<?xml version="1.0" encoding="UTF-8" standalone="no"?>
<gpx version="1.1" creator="GPX Editor 1.3.56.1423" xmlns="http://www.topografix.com/GPX/1/1" xmlns:xsi="http://www.w3.org/2001/XMLSchema-instance" xsi:schemaLocation="http://www.topografix.com/GPX/1/1 http://www.topografix.com/GPX/1/1/gpx.xsd">
<metadata>
	<name>(2014-01-02) - S'Arenal - Badia Gran - Llucmajor - Sant-Jordi - S'Arenal</name>
	<link href="http://www.komoot.de">
		<text>komoot homepage</text>
		<type>text/html</type>
	</link>
	<bounds minlat="39.4324836730957" minlon="2.73824954032898" maxlat="39.5720176696777" maxlon="2.89292907714844" />
</metadata>
<trk>
	<name>(2014-01-02) - S'Arenal - Badia Gran - Llucmajor - Sant-Jordi - S'Arenal</name>
	<trkseg>
		<trkpt lat="39.5071601867676" lon="2.75531768798828">
			<ele>66.3000030517578</ele>
			<time>2014-01-02T09:40:59Z</time>
		</trkpt>
		<trkpt lat="39.5071487426758" lon="2.75524187088013">
			<ele>67</ele>
			<time>2014-01-02T09:41:09Z</time>
		</trkpt>
		<trkpt lat="39.5072174072266" lon="2.75521349906921">
			<ele>66.5</ele>
			<time>2014-01-02T09:41:11Z</time>
		</trkpt>
		<trkpt lat="39.507266998291" lon="2.75514698028564">
			<ele>66.0999984741211</ele>
			<time>2014-01-02T09:41:13Z</time>
		</trkpt>
		<trkpt lat="39.5072860717773" lon="2.75508594512939">
			<ele>66.0999984741211</ele>
			<time>2014-01-02T09:41:15Z</time>
		</trkpt>
		<trkpt lat="39.5073127746582" lon="2.7549946308136">
			<ele>65.3000030517578</ele>
			<time>2014-01-02T09:41:18Z</time>
		</trkpt>
		<trkpt lat="39.5073432922363" lon="2.75491499900818">
			<ele>64.8000030517578</ele>
			<time>2014-01-02T09:41:20Z</time>
		</trkpt>
		<trkpt lat="39.5073661804199" lon="2.75485920906067">
			<ele>64</ele>
			<time>2014-01-02T09:41:21Z</time>
		</trkpt>
		<trkpt lat="39.5073928833008" lon="2.75480079650879">
			<ele>63.0999984741211</ele>
			<time>2014-01-02T09:41:22Z</time>
		</trkpt>
		<trkpt lat="39.5074195861816" lon="2.75473570823669">
			<ele>62.5</ele>
			<time>2014-01-02T09:41:23Z</time>
		</trkpt>
		<trkpt lat="39.5074501037598" lon="2.75466299057007">
			<ele>62</ele>
			<time>2014-01-02T09:41:24Z</time>
		</trkpt>
		<trkpt lat="39.5074806213379" lon="2.75459742546082">
			<ele>61.5999984741211</ele>
			<time>2014-01-02T09:41:25Z</time>
		</trkpt>
		<trkpt lat="39.5075035095215" lon="2.75454044342041">
			<ele>61.0999984741211</ele>
			<time>2014-01-02T09:41:26Z</time>
		</trkpt>
		<trkpt lat="39.5075302124023" lon="2.7544732093811">
			<ele>60.7999992370605</ele>
			<time>2014-01-02T09:41:28Z</time>
		</trkpt>
		<trkpt lat="39.5075531005859" lon="2.75440049171448">
			<ele>60.7999992370605</ele>
			<time>2014-01-02T09:41:31Z</time>
		</trkpt>
		<trkpt lat="39.5076026916504" lon="2.75430297851563">
			<ele>59.0999984741211</ele>
			<time>2014-01-02T09:41:34Z</time>
		</trkpt>
		<trkpt lat="39.5076446533203" lon="2.75419998168945">
			<ele>58.9000015258789</ele>
			<time>2014-01-02T09:41:36Z</time>
		</trkpt>
		<trkpt lat="39.5076675415039" lon="2.7541401386261">
			<ele>58.2999992370605</ele>
			<time>2014-01-02T09:41:37Z</time>
		</trkpt>
		<trkpt lat="39.5076942443848" lon="2.75407981872559">
			<ele>58</ele>
			<time>2014-01-02T09:41:38Z</time>
		</trkpt>
		<trkpt lat="39.5077209472656" lon="2.75400710105896">
			<ele>58.0999984741211</ele>
			<time>2014-01-02T09:41:39Z</time>
		</trkpt>
		<trkpt lat="39.5077476501465" lon="2.75393724441528">
			<ele>58</ele>
			<time>2014-01-02T09:41:40Z</time>
		</trkpt>
		<trkpt lat="39.5077743530273" lon="2.7538640499115">
			<ele>58.4000015258789</ele>
			<time>2014-01-02T09:41:41Z</time>
		</trkpt>
		<trkpt lat="39.5078048706055" lon="2.75379681587219">
			<ele>57.7000007629395</ele>
			<time>2014-01-02T09:41:42Z</time>
		</trkpt>
		<trkpt lat="39.5078315734863" lon="2.75372648239136">
			<ele>57.7999992370605</ele>
			<time>2014-01-02T09:41:43Z</time>
		</trkpt>
		<trkpt lat="39.5078582763672" lon="2.75366044044495">
			<ele>57.9000015258789</ele>
			<time>2014-01-02T09:41:44Z</time>
		</trkpt>
		<trkpt lat="39.507884979248" lon="2.75359511375427">
			<ele>58</ele>
			<time>2014-01-02T09:41:45Z</time>
		</trkpt>
		<trkpt lat="39.5079193115234" lon="2.75350117683411">
			<ele>58.2000007629395</ele>
			<time>2014-01-02T09:41:47Z</time>
		</trkpt>
		<trkpt lat="39.507942199707" lon="2.75343012809753">
			<ele>58.5999984741211</ele>
			<time>2014-01-02T09:41:50Z</time>
		</trkpt>
		<trkpt lat="39.5079650878906" lon="2.75336384773254">
			<ele>58.7999992370605</ele>
			<time>2014-01-02T09:41:52Z</time>
		</trkpt>
		<trkpt lat="39.5080032348633" lon="2.75328063964844">
			<ele>59</ele>
			<time>2014-01-02T09:41:54Z</time>
		</trkpt>
		<trkpt lat="39.5080413818359" lon="2.75320315361023">
			<ele>58.7000007629395</ele>
			<time>2014-01-02T09:41:56Z</time>
		</trkpt>
		<trkpt lat="39.5080757141113" lon="2.75311207771301">
			<ele>59.0999984741211</ele>
			<time>2014-01-02T09:41:58Z</time>
		</trkpt>
		<trkpt lat="39.5081024169922" lon="2.75302863121033">
			<ele>58.9000015258789</ele>
			<time>2014-01-02T09:42:00Z</time>
		</trkpt>
		<trkpt lat="39.5081329345703" lon="2.75294256210327">
			<ele>58.7000007629395</ele>
			<time>2014-01-02T09:42:02Z</time>
		</trkpt>
		<trkpt lat="39.5081672668457" lon="2.75285363197327">
			<ele>59</ele>
			<time>2014-01-02T09:42:04Z</time>
		</trkpt>
		<trkpt lat="39.5081977844238" lon="2.75276231765747">
			<ele>59.0999984741211</ele>
			<time>2014-01-02T09:42:06Z</time>
		</trkpt>
		<trkpt lat="39.508228302002" lon="2.75266742706299">
			<ele>58.2000007629395</ele>
			<time>2014-01-02T09:42:08Z</time>
		</trkpt>
		<trkpt lat="39.5082550048828" lon="2.75258588790894">
			<ele>57.4000015258789</ele>
			<time>2014-01-02T09:42:10Z</time>
		</trkpt>
		<trkpt lat="39.5082893371582" lon="2.75252819061279">
			<ele>55.9000015258789</ele>
			<time>2014-01-02T09:42:12Z</time>
		</trkpt>
		<trkpt lat="39.5083389282227" lon="2.75256371498108">
			<ele>55.5</ele>
			<time>2014-01-02T09:42:14Z</time>
		</trkpt>
		<trkpt lat="39.5083847045898" lon="2.75260233879089">
			<ele>55.4000015258789</ele>
			<time>2014-01-02T09:42:15Z</time>
		</trkpt>
		<trkpt lat="39.508430480957" lon="2.75263547897339">
			<ele>55.9000015258789</ele>
			<time>2014-01-02T09:42:16Z</time>
		</trkpt>
		<trkpt lat="39.508472442627" lon="2.75267291069031">
			<ele>56.2999992370605</ele>
			<time>2014-01-02T09:42:17Z</time>
		</trkpt>
		<trkpt lat="39.5085182189941" lon="2.75272750854492">
			<ele>52.9000015258789</ele>
			<time>2014-01-02T09:42:19Z</time>
		</trkpt>
		<trkpt lat="39.5085716247559" lon="2.75277543067932">
			<ele>53.5</ele>
			<time>2014-01-02T09:42:21Z</time>
		</trkpt>
		<trkpt lat="39.5086441040039" lon="2.75281620025635">
			<ele>52.7999992370605</ele>
			<time>2014-01-02T09:42:23Z</time>
		</trkpt>
		<trkpt lat="39.5087051391602" lon="2.75285911560059">
			<ele>53.4000015258789</ele>
			<time>2014-01-02T09:42:25Z</time>
		</trkpt>
		<trkpt lat="39.5087699890137" lon="2.75292181968689">
			<ele>55.9000015258789</ele>
			<time>2014-01-02T09:42:27Z</time>
		</trkpt>
		<trkpt lat="39.5088348388672" lon="2.75295925140381">
			<ele>55.9000015258789</ele>
			<time>2014-01-02T09:42:29Z</time>
		</trkpt>
		<trkpt lat="39.5089073181152" lon="2.75300168991089">
			<ele>56.4000015258789</ele>
			<time>2014-01-02T09:42:31Z</time>
		</trkpt>
		<trkpt lat="39.508975982666" lon="2.75304627418518">
			<ele>56.9000015258789</ele>
			<time>2014-01-02T09:42:33Z</time>
		</trkpt>
		<trkpt lat="39.509033203125" lon="2.75309205055237">
			<ele>56.9000015258789</ele>
			<time>2014-01-02T09:42:35Z</time>
		</trkpt>
		<trkpt lat="39.5090789794922" lon="2.75311946868896">
			<ele>57.7000007629395</ele>
			<time>2014-01-02T09:42:37Z</time>
		</trkpt>
		<trkpt lat="39.5091361999512" lon="2.75308895111084">
			<ele>59.4000015258789</ele>
			<time>2014-01-02T09:42:40Z</time>
		</trkpt>
		<trkpt lat="39.5091361999512" lon="2.75303030014038">
			<ele>59.5999984741211</ele>
			<time>2014-01-02T09:42:42Z</time>
		</trkpt>
		<trkpt lat="39.5091018676758" lon="2.75296998023987">
			<ele>58.7999992370605</ele>
			<time>2014-01-02T09:42:43Z</time>
		</trkpt>
		<trkpt lat="39.5090713500977" lon="2.75287580490112">
			<ele>59.2000007629395</ele>
			<time>2014-01-02T09:42:45Z</time>
		</trkpt>
		<trkpt lat="39.5090408325195" lon="2.75278377532959">
			<ele>58.2000007629395</ele>
			<time>2014-01-02T09:42:47Z</time>
		</trkpt>
		<trkpt lat="39.5090103149414" lon="2.75268936157227">
			<ele>57.7000007629395</ele>
			<time>2014-01-02T09:42:49Z</time>
		</trkpt>
		<trkpt lat="39.5089797973633" lon="2.75259566307068">
			<ele>57.4000015258789</ele>
			<time>2014-01-02T09:42:51Z</time>
		</trkpt>
		<trkpt lat="39.5089454650879" lon="2.75249814987183">
			<ele>56.9000015258789</ele>
			<time>2014-01-02T09:42:53Z</time>
		</trkpt>
		<trkpt lat="39.5089111328125" lon="2.75240588188171">
			<ele>56.5999984741211</ele>
			<time>2014-01-02T09:42:55Z</time>
		</trkpt>
		<trkpt lat="39.5088806152344" lon="2.75231266021729">
			<ele>56.4000015258789</ele>
			<time>2014-01-02T09:42:57Z</time>
		</trkpt>
		<trkpt lat="39.5088539123535" lon="2.75222206115723">
			<ele>56.4000015258789</ele>
			<time>2014-01-02T09:42:59Z</time>
		</trkpt>
		<trkpt lat="39.5088195800781" lon="2.75213098526001">
			<ele>56.4000015258789</ele>
			<time>2014-01-02T09:43:01Z</time>
		</trkpt>
		<trkpt lat="39.5087890625" lon="2.75203919410706">
			<ele>55.0999984741211</ele>
			<time>2014-01-02T09:43:03Z</time>
		</trkpt>
		<trkpt lat="39.5087623596191" lon="2.75194931030273">
			<ele>53.5999984741211</ele>
			<time>2014-01-02T09:43:05Z</time>
		</trkpt>
		<trkpt lat="39.508731842041" lon="2.7518515586853">
			<ele>53.9000015258789</ele>
			<time>2014-01-02T09:43:07Z</time>
		</trkpt>
		<trkpt lat="39.5087051391602" lon="2.75176358222961">
			<ele>53.5999984741211</ele>
			<time>2014-01-02T09:43:09Z</time>
		</trkpt>
		<trkpt lat="39.5086784362793" lon="2.7516770362854">
			<ele>53</ele>
			<time>2014-01-02T09:43:11Z</time>
		</trkpt>
		<trkpt lat="39.5086517333984" lon="2.75160455703735">
			<ele>53</ele>
			<time>2014-01-02T09:43:13Z</time>
		</trkpt>
		<trkpt lat="39.5086326599121" lon="2.75154209136963">
			<ele>52.7000007629395</ele>
			<time>2014-01-02T09:43:16Z</time>
		</trkpt>
		<trkpt lat="39.5086135864258" lon="2.75147151947021">
			<ele>53.7999992370605</ele>
			<time>2014-01-02T09:43:19Z</time>
		</trkpt>
		<trkpt lat="39.5085830688477" lon="2.75140070915222">
			<ele>53.9000015258789</ele>
			<time>2014-01-02T09:43:21Z</time>
		</trkpt>
		<trkpt lat="39.5085563659668" lon="2.75132441520691">
			<ele>53.7999992370605</ele>
			<time>2014-01-02T09:43:23Z</time>
		</trkpt>
		<trkpt lat="39.5085296630859" lon="2.75125575065613">
			<ele>54</ele>
			<time>2014-01-02T09:43:25Z</time>
		</trkpt>
		<trkpt lat="39.5084991455078" lon="2.75117540359497">
			<ele>54.2000007629395</ele>
			<time>2014-01-02T09:43:27Z</time>
		</trkpt>
		<trkpt lat="39.5084953308105" lon="2.75110673904419">
			<ele>50.7000007629395</ele>
			<time>2014-01-02T09:43:29Z</time>
		</trkpt>
		<trkpt lat="39.5084800720215" lon="2.75103402137756">
			<ele>49.9000015258789</ele>
			<time>2014-01-02T09:43:31Z</time>
		</trkpt>
		<trkpt lat="39.5084571838379" lon="2.75095772743225">
			<ele>50.5999984741211</ele>
			<time>2014-01-02T09:43:33Z</time>
		</trkpt>
		<trkpt lat="39.5084342956543" lon="2.75088381767273">
			<ele>50.9000015258789</ele>
			<time>2014-01-02T09:43:35Z</time>
		</trkpt>
		<trkpt lat="39.5084114074707" lon="2.75080299377441">
			<ele>51</ele>
			<time>2014-01-02T09:43:37Z</time>
		</trkpt>
		<trkpt lat="39.5083808898926" lon="2.75072312355042">
			<ele>52.5999984741211</ele>
			<time>2014-01-02T09:43:39Z</time>
		</trkpt>
		<trkpt lat="39.5083541870117" lon="2.75064158439636">
			<ele>53.5</ele>
			<time>2014-01-02T09:43:41Z</time>
		</trkpt>
		<trkpt lat="39.5083198547363" lon="2.75057601928711">
			<ele>55.5</ele>
			<time>2014-01-02T09:43:43Z</time>
		</trkpt>
		<trkpt lat="39.5082931518555" lon="2.75049996376038">
			<ele>57.2999992370605</ele>
			<time>2014-01-02T09:43:45Z</time>
		</trkpt>
		<trkpt lat="39.5083541870117" lon="2.75046825408936">
			<ele>56.2000007629395</ele>
			<time>2014-01-02T09:43:47Z</time>
		</trkpt>
		<trkpt lat="39.5083999633789" lon="2.75043392181396">
			<ele>56.5999984741211</ele>
			<time>2014-01-02T09:43:49Z</time>
		</trkpt>
		<trkpt lat="39.5084419250488" lon="2.75038242340088">
			<ele>56.9000015258789</ele>
			<time>2014-01-02T09:43:52Z</time>
		</trkpt>
		<trkpt lat="39.5084991455078" lon="2.75034356117249">
			<ele>57.0999984741211</ele>
			<time>2014-01-02T09:43:53Z</time>
		</trkpt>
		<trkpt lat="39.5085601806641" lon="2.75030899047852">
			<ele>57.4000015258789</ele>
			<time>2014-01-02T09:43:55Z</time>
		</trkpt>
		<trkpt lat="39.5086212158203" lon="2.75027227401733">
			<ele>57.5</ele>
			<time>2014-01-02T09:43:57Z</time>
		</trkpt>
		<trkpt lat="39.5086860656738" lon="2.75022888183594">
			<ele>57.5999984741211</ele>
			<time>2014-01-02T09:43:59Z</time>
		</trkpt>
		<trkpt lat="39.5087509155273" lon="2.75017833709717">
			<ele>57.4000015258789</ele>
			<time>2014-01-02T09:44:01Z</time>
		</trkpt>
		<trkpt lat="39.5088195800781" lon="2.75013518333435">
			<ele>57.2999992370605</ele>
			<time>2014-01-02T09:44:03Z</time>
		</trkpt>
		<trkpt lat="39.5088958740234" lon="2.75010299682617">
			<ele>57.0999984741211</ele>
			<time>2014-01-02T09:44:05Z</time>
		</trkpt>
		<trkpt lat="39.5089683532715" lon="2.750075340271">
			<ele>57.0999984741211</ele>
			<time>2014-01-02T09:44:07Z</time>
		</trkpt>
		<trkpt lat="39.5090408325195" lon="2.75004005432129">
			<ele>57.4000015258789</ele>
			<time>2014-01-02T09:44:09Z</time>
		</trkpt>
		<trkpt lat="39.5091133117676" lon="2.75000548362732">
			<ele>57.4000015258789</ele>
			<time>2014-01-02T09:44:11Z</time>
		</trkpt>
		<trkpt lat="39.5091857910156" lon="2.7499794960022">
			<ele>56.9000015258789</ele>
			<time>2014-01-02T09:44:13Z</time>
		</trkpt>
		<trkpt lat="39.5092582702637" lon="2.74994015693665">
			<ele>56.9000015258789</ele>
			<time>2014-01-02T09:44:15Z</time>
		</trkpt>
		<trkpt lat="39.509334564209" lon="2.74990487098694">
			<ele>56.7000007629395</ele>
			<time>2014-01-02T09:44:17Z</time>
		</trkpt>
		<trkpt lat="39.5094108581543" lon="2.74986004829407">
			<ele>56.5999984741211</ele>
			<time>2014-01-02T09:44:19Z</time>
		</trkpt>
		<trkpt lat="39.5094833374023" lon="2.74981594085693">
			<ele>56.7999992370605</ele>
			<time>2014-01-02T09:44:21Z</time>
		</trkpt>
		<trkpt lat="39.5095596313477" lon="2.74977135658264">
			<ele>57.0999984741211</ele>
			<time>2014-01-02T09:44:23Z</time>
		</trkpt>
		<trkpt lat="39.5096015930176" lon="2.74974989891052">
			<ele>57.2999992370605</ele>
			<time>2014-01-02T09:44:25Z</time>
		</trkpt>
		<trkpt lat="39.5096435546875" lon="2.74972653388977">
			<ele>57.4000015258789</ele>
			<time>2014-01-02T09:44:25Z</time>
		</trkpt>
		<trkpt lat="39.5097198486328" lon="2.74968528747559">
			<ele>57.2000007629395</ele>
			<time>2014-01-02T09:44:27Z</time>
		</trkpt>
		<trkpt lat="39.5097999572754" lon="2.74964046478271">
			<ele>57.2999992370605</ele>
			<time>2014-01-02T09:44:29Z</time>
		</trkpt>
		<trkpt lat="39.509880065918" lon="2.74959921836853">
			<ele>57</ele>
			<time>2014-01-02T09:44:31Z</time>
		</trkpt>
		<trkpt lat="39.5099563598633" lon="2.74955821037292">
			<ele>57.0999984741211</ele>
			<time>2014-01-02T09:44:33Z</time>
		</trkpt>
		<trkpt lat="39.5100364685059" lon="2.74951601028442">
			<ele>58.2000007629395</ele>
			<time>2014-01-02T09:44:35Z</time>
		</trkpt>
		<trkpt lat="39.5100784301758" lon="2.74949240684509">
			<ele>58.2999992370605</ele>
			<time>2014-01-02T09:44:36Z</time>
		</trkpt>
		<trkpt lat="39.510124206543" lon="2.74946975708008">
			<ele>58.4000015258789</ele>
			<time>2014-01-02T09:44:37Z</time>
		</trkpt>
		<trkpt lat="39.5102005004883" lon="2.74942398071289">
			<ele>58.4000015258789</ele>
			<time>2014-01-02T09:44:39Z</time>
		</trkpt>
		<trkpt lat="39.5102806091309" lon="2.74937534332275">
			<ele>58.4000015258789</ele>
			<time>2014-01-02T09:44:41Z</time>
		</trkpt>
		<trkpt lat="39.5103607177734" lon="2.74933004379272">
			<ele>58.2999992370605</ele>
			<time>2014-01-02T09:44:43Z</time>
		</trkpt>
		<trkpt lat="39.510440826416" lon="2.74928641319275">
			<ele>57.9000015258789</ele>
			<time>2014-01-02T09:44:45Z</time>
		</trkpt>
		<trkpt lat="39.5105209350586" lon="2.74924159049988">
			<ele>57.9000015258789</ele>
			<time>2014-01-02T09:44:47Z</time>
		</trkpt>
		<trkpt lat="39.5106010437012" lon="2.74919629096985">
			<ele>57.7999992370605</ele>
			<time>2014-01-02T09:44:49Z</time>
		</trkpt>
		<trkpt lat="39.5106811523438" lon="2.74915146827698">
			<ele>57.7999992370605</ele>
			<time>2014-01-02T09:44:51Z</time>
		</trkpt>
		<trkpt lat="39.5107612609863" lon="2.74910187721252">
			<ele>57.9000015258789</ele>
			<time>2014-01-02T09:44:53Z</time>
		</trkpt>
		<trkpt lat="39.5108032226563" lon="2.74907851219177">
			<ele>57.9000015258789</ele>
			<time>2014-01-02T09:44:54Z</time>
		</trkpt>
		<trkpt lat="39.5108833312988" lon="2.74903178215027">
			<ele>57.5</ele>
			<time>2014-01-02T09:44:56Z</time>
		</trkpt>
		<trkpt lat="39.5109672546387" lon="2.74898457527161">
			<ele>57.4000015258789</ele>
			<time>2014-01-02T09:44:58Z</time>
		</trkpt>
		<trkpt lat="39.5110473632813" lon="2.74894094467163">
			<ele>57.5</ele>
			<time>2014-01-02T09:45:00Z</time>
		</trkpt>
		<trkpt lat="39.5111274719238" lon="2.74889469146729">
			<ele>57.4000015258789</ele>
			<time>2014-01-02T09:45:02Z</time>
		</trkpt>
		<trkpt lat="39.5111656188965" lon="2.74886679649353">
			<ele>57.5</ele>
			<time>2014-01-02T09:45:03Z</time>
		</trkpt>
		<trkpt lat="39.5112075805664" lon="2.74884057044983">
			<ele>57.5</ele>
			<time>2014-01-02T09:45:04Z</time>
		</trkpt>
		<trkpt lat="39.511287689209" lon="2.74878883361816">
			<ele>57.4000015258789</ele>
			<time>2014-01-02T09:45:06Z</time>
		</trkpt>
		<trkpt lat="39.5113677978516" lon="2.74873852729797">
			<ele>57.0999984741211</ele>
			<time>2014-01-02T09:45:08Z</time>
		</trkpt>
		<trkpt lat="39.5114440917969" lon="2.74868655204773">
			<ele>57.2000007629395</ele>
			<time>2014-01-02T09:45:10Z</time>
		</trkpt>
		<trkpt lat="39.5115242004395" lon="2.74863576889038">
			<ele>56.9000015258789</ele>
			<time>2014-01-02T09:45:12Z</time>
		</trkpt>
		<trkpt lat="39.511604309082" lon="2.7485818862915">
			<ele>57</ele>
			<time>2014-01-02T09:45:14Z</time>
		</trkpt>
		<trkpt lat="39.5116806030273" lon="2.74852585792542">
			<ele>57</ele>
			<time>2014-01-02T09:45:16Z</time>
		</trkpt>
		<trkpt lat="39.5117568969727" lon="2.74847531318665">
			<ele>57.0999984741211</ele>
			<time>2014-01-02T09:45:18Z</time>
		</trkpt>
		<trkpt lat="39.511833190918" lon="2.74842619895935">
			<ele>56.9000015258789</ele>
			<time>2014-01-02T09:45:20Z</time>
		</trkpt>
		<trkpt lat="39.5119094848633" lon="2.74837422370911">
			<ele>56.5999984741211</ele>
			<time>2014-01-02T09:45:22Z</time>
		</trkpt>
		<trkpt lat="39.5119819641113" lon="2.74831819534302">
			<ele>56.4000015258789</ele>
			<time>2014-01-02T09:45:24Z</time>
		</trkpt>
		<trkpt lat="39.5120582580566" lon="2.74825572967529">
			<ele>56.0999984741211</ele>
			<time>2014-01-02T09:45:26Z</time>
		</trkpt>
		<trkpt lat="39.512134552002" lon="2.74820232391357">
			<ele>56</ele>
			<time>2014-01-02T09:45:28Z</time>
		</trkpt>
		<trkpt lat="39.5122108459473" lon="2.7481472492218">
			<ele>55.9000015258789</ele>
			<time>2014-01-02T09:45:30Z</time>
		</trkpt>
		<trkpt lat="39.5122833251953" lon="2.74808597564697">
			<ele>55.7000007629395</ele>
			<time>2014-01-02T09:45:32Z</time>
		</trkpt>
		<trkpt lat="39.512321472168" lon="2.74805235862732">
			<ele>55.7999992370605</ele>
			<time>2014-01-02T09:45:33Z</time>
		</trkpt>
		<trkpt lat="39.512393951416" lon="2.74799394607544">
			<ele>55.7999992370605</ele>
			<time>2014-01-02T09:45:35Z</time>
		</trkpt>
		<trkpt lat="39.5124702453613" lon="2.74793553352356">
			<ele>55.7999992370605</ele>
			<time>2014-01-02T09:45:37Z</time>
		</trkpt>
		<trkpt lat="39.5125465393066" lon="2.74787712097168">
			<ele>55.7000007629395</ele>
			<time>2014-01-02T09:45:39Z</time>
		</trkpt>
		<trkpt lat="39.5126190185547" lon="2.74782085418701">
			<ele>55.4000015258789</ele>
			<time>2014-01-02T09:45:41Z</time>
		</trkpt>
		<trkpt lat="39.5126914978027" lon="2.74776172637939">
			<ele>55.4000015258789</ele>
			<time>2014-01-02T09:45:43Z</time>
		</trkpt>
		<trkpt lat="39.512767791748" lon="2.74770307540894">
			<ele>55.4000015258789</ele>
			<time>2014-01-02T09:45:45Z</time>
		</trkpt>
		<trkpt lat="39.5128364562988" lon="2.74764108657837">
			<ele>55.2999992370605</ele>
			<time>2014-01-02T09:45:47Z</time>
		</trkpt>
		<trkpt lat="39.5129089355469" lon="2.74758315086365">
			<ele>55.0999984741211</ele>
			<time>2014-01-02T09:45:49Z</time>
		</trkpt>
		<trkpt lat="39.5129814147949" lon="2.74752473831177">
			<ele>55</ele>
			<time>2014-01-02T09:45:51Z</time>
		</trkpt>
		<trkpt lat="39.513053894043" lon="2.74746751785278">
			<ele>54.7999992370605</ele>
			<time>2014-01-02T09:45:53Z</time>
		</trkpt>
		<trkpt lat="39.513126373291" lon="2.74740767478943">
			<ele>55</ele>
			<time>2014-01-02T09:45:55Z</time>
		</trkpt>
		<trkpt lat="39.5131988525391" lon="2.7473475933075">
			<ele>55</ele>
			<time>2014-01-02T09:45:57Z</time>
		</trkpt>
		<trkpt lat="39.5132713317871" lon="2.7472882270813">
			<ele>55</ele>
			<time>2014-01-02T09:45:59Z</time>
		</trkpt>
		<trkpt lat="39.5133438110352" lon="2.74723076820374">
			<ele>55.2999992370605</ele>
			<time>2014-01-02T09:46:01Z</time>
		</trkpt>
		<trkpt lat="39.5134162902832" lon="2.7471661567688">
			<ele>55.0999984741211</ele>
			<time>2014-01-02T09:46:03Z</time>
		</trkpt>
		<trkpt lat="39.513484954834" lon="2.74709939956665">
			<ele>55.2000007629395</ele>
			<time>2014-01-02T09:46:05Z</time>
		</trkpt>
		<trkpt lat="39.5135536193848" lon="2.7470395565033">
			<ele>55</ele>
			<time>2014-01-02T09:46:07Z</time>
		</trkpt>
		<trkpt lat="39.5136260986328" lon="2.74698972702026">
			<ele>55.0999984741211</ele>
			<time>2014-01-02T09:46:09Z</time>
		</trkpt>
		<trkpt lat="39.5136985778809" lon="2.74694037437439">
			<ele>55.0999984741211</ele>
			<time>2014-01-02T09:46:11Z</time>
		</trkpt>
		<trkpt lat="39.5137672424316" lon="2.74689078330994">
			<ele>54.9000015258789</ele>
			<time>2014-01-02T09:46:13Z</time>
		</trkpt>
		<trkpt lat="39.5138397216797" lon="2.74683451652527">
			<ele>55</ele>
			<time>2014-01-02T09:46:15Z</time>
		</trkpt>
		<trkpt lat="39.5139122009277" lon="2.74677538871765">
			<ele>54.7999992370605</ele>
			<time>2014-01-02T09:46:17Z</time>
		</trkpt>
		<trkpt lat="39.5139846801758" lon="2.74671792984009">
			<ele>54.5</ele>
			<time>2014-01-02T09:46:19Z</time>
		</trkpt>
		<trkpt lat="39.5140571594238" lon="2.74666523933411">
			<ele>54.2999992370605</ele>
			<time>2014-01-02T09:46:21Z</time>
		</trkpt>
		<trkpt lat="39.5141258239746" lon="2.74660658836365">
			<ele>54.2000007629395</ele>
			<time>2014-01-02T09:46:23Z</time>
		</trkpt>
		<trkpt lat="39.5141983032227" lon="2.74654626846313">
			<ele>54.2000007629395</ele>
			<time>2014-01-02T09:46:25Z</time>
		</trkpt>
		<trkpt lat="39.5142669677734" lon="2.74649357795715">
			<ele>54.4000015258789</ele>
			<time>2014-01-02T09:46:27Z</time>
		</trkpt>
		<trkpt lat="39.5143394470215" lon="2.74643993377686">
			<ele>54.2000007629395</ele>
			<time>2014-01-02T09:46:29Z</time>
		</trkpt>
		<trkpt lat="39.5144119262695" lon="2.74638175964355">
			<ele>53.9000015258789</ele>
			<time>2014-01-02T09:46:31Z</time>
		</trkpt>
		<trkpt lat="39.5144805908203" lon="2.74632573127747">
			<ele>53.7999992370605</ele>
			<time>2014-01-02T09:46:33Z</time>
		</trkpt>
		<trkpt lat="39.5145492553711" lon="2.7462682723999">
			<ele>53.5</ele>
			<time>2014-01-02T09:46:36Z</time>
		</trkpt>
		<trkpt lat="39.5146217346191" lon="2.74620914459229">
			<ele>53.7999992370605</ele>
			<time>2014-01-02T09:46:37Z</time>
		</trkpt>
		<trkpt lat="39.5146903991699" lon="2.74614953994751">
			<ele>53.9000015258789</ele>
			<time>2014-01-02T09:46:39Z</time>
		</trkpt>
		<trkpt lat="39.5147666931152" lon="2.74609208106995">
			<ele>54</ele>
			<time>2014-01-02T09:46:41Z</time>
		</trkpt>
		<trkpt lat="39.5148429870605" lon="2.74603176116943">
			<ele>54</ele>
			<time>2014-01-02T09:46:43Z</time>
		</trkpt>
		<trkpt lat="39.5149116516113" lon="2.74597501754761">
			<ele>53.9000015258789</ele>
			<time>2014-01-02T09:46:45Z</time>
		</trkpt>
		<trkpt lat="39.5149841308594" lon="2.74591326713562">
			<ele>54</ele>
			<time>2014-01-02T09:46:47Z</time>
		</trkpt>
		<trkpt lat="39.5150566101074" lon="2.74585175514221">
			<ele>54.2999992370605</ele>
			<time>2014-01-02T09:46:49Z</time>
		</trkpt>
		<trkpt lat="39.5151252746582" lon="2.74579429626465">
			<ele>54.5</ele>
			<time>2014-01-02T09:46:51Z</time>
		</trkpt>
		<trkpt lat="39.5151977539063" lon="2.7457332611084">
			<ele>54.5</ele>
			<time>2014-01-02T09:46:53Z</time>
		</trkpt>
		<trkpt lat="39.5152626037598" lon="2.74566841125488">
			<ele>54.5999984741211</ele>
			<time>2014-01-02T09:46:55Z</time>
		</trkpt>
		<trkpt lat="39.5153312683105" lon="2.74560332298279">
			<ele>54.7999992370605</ele>
			<time>2014-01-02T09:46:57Z</time>
		</trkpt>
		<trkpt lat="39.5154037475586" lon="2.74554347991943">
			<ele>54.9000015258789</ele>
			<time>2014-01-02T09:46:59Z</time>
		</trkpt>
		<trkpt lat="39.5154762268066" lon="2.74548578262329">
			<ele>54.7000007629395</ele>
			<time>2014-01-02T09:47:01Z</time>
		</trkpt>
		<trkpt lat="39.5155487060547" lon="2.74543309211731">
			<ele>54.5999984741211</ele>
			<time>2014-01-02T09:47:03Z</time>
		</trkpt>
		<trkpt lat="39.515625" lon="2.74538159370422">
			<ele>54.5</ele>
			<time>2014-01-02T09:47:05Z</time>
		</trkpt>
		<trkpt lat="39.5156936645508" lon="2.7453248500824">
			<ele>54.5999984741211</ele>
			<time>2014-01-02T09:47:07Z</time>
		</trkpt>
		<trkpt lat="39.5157585144043" lon="2.74525928497314">
			<ele>54.5999984741211</ele>
			<time>2014-01-02T09:47:09Z</time>
		</trkpt>
		<trkpt lat="39.5158309936523" lon="2.74520039558411">
			<ele>54.9000015258789</ele>
			<time>2014-01-02T09:47:11Z</time>
		</trkpt>
		<trkpt lat="39.5158996582031" lon="2.74513936042786">
			<ele>55</ele>
			<time>2014-01-02T09:47:13Z</time>
		</trkpt>
		<trkpt lat="39.5159759521484" lon="2.74509000778198">
			<ele>54.9000015258789</ele>
			<time>2014-01-02T09:47:15Z</time>
		</trkpt>
		<trkpt lat="39.5160446166992" lon="2.74503540992737">
			<ele>54.9000015258789</ele>
			<time>2014-01-02T09:47:17Z</time>
		</trkpt>
		<trkpt lat="39.51611328125" lon="2.74497294425964">
			<ele>55</ele>
			<time>2014-01-02T09:47:19Z</time>
		</trkpt>
		<trkpt lat="39.5161819458008" lon="2.74491024017334">
			<ele>54.7000007629395</ele>
			<time>2014-01-02T09:47:21Z</time>
		</trkpt>
		<trkpt lat="39.5162506103516" lon="2.74484872817993">
			<ele>54.5</ele>
			<time>2014-01-02T09:47:23Z</time>
		</trkpt>
		<trkpt lat="39.5163154602051" lon="2.74478483200073">
			<ele>54.4000015258789</ele>
			<time>2014-01-02T09:47:25Z</time>
		</trkpt>
		<trkpt lat="39.5163803100586" lon="2.7447144985199">
			<ele>54.2999992370605</ele>
			<time>2014-01-02T09:47:27Z</time>
		</trkpt>
		<trkpt lat="39.5164413452148" lon="2.74464559555054">
			<ele>54.2999992370605</ele>
			<time>2014-01-02T09:47:29Z</time>
		</trkpt>
		<trkpt lat="39.5165061950684" lon="2.74457931518555">
			<ele>54.2000007629395</ele>
			<time>2014-01-02T09:47:31Z</time>
		</trkpt>
		<trkpt lat="39.5165786743164" lon="2.74452996253967">
			<ele>54.2999992370605</ele>
			<time>2014-01-02T09:47:33Z</time>
		</trkpt>
		<trkpt lat="39.5166435241699" lon="2.74447321891785">
			<ele>54.9000015258789</ele>
			<time>2014-01-02T09:47:35Z</time>
		</trkpt>
		<trkpt lat="39.5167045593262" lon="2.74440789222717">
			<ele>54.5</ele>
			<time>2014-01-02T09:47:37Z</time>
		</trkpt>
		<trkpt lat="39.516773223877" lon="2.74435114860535">
			<ele>54.4000015258789</ele>
			<time>2014-01-02T09:47:39Z</time>
		</trkpt>
		<trkpt lat="39.5168380737305" lon="2.74429082870483">
			<ele>54.4000015258789</ele>
			<time>2014-01-02T09:47:41Z</time>
		</trkpt>
		<trkpt lat="39.516902923584" lon="2.74422335624695">
			<ele>54.5</ele>
			<time>2014-01-02T09:47:43Z</time>
		</trkpt>
		<trkpt lat="39.5169715881348" lon="2.74415636062622">
			<ele>54.4000015258789</ele>
			<time>2014-01-02T09:47:45Z</time>
		</trkpt>
		<trkpt lat="39.5170364379883" lon="2.7440869808197">
			<ele>54.5</ele>
			<time>2014-01-02T09:47:47Z</time>
		</trkpt>
		<trkpt lat="39.5170974731445" lon="2.7440128326416">
			<ele>54.4000015258789</ele>
			<time>2014-01-02T09:47:49Z</time>
		</trkpt>
		<trkpt lat="39.517162322998" lon="2.74394369125366">
			<ele>54.2999992370605</ele>
			<time>2014-01-02T09:47:51Z</time>
		</trkpt>
		<trkpt lat="39.5172309875488" lon="2.7438759803772">
			<ele>54.0999984741211</ele>
			<time>2014-01-02T09:47:53Z</time>
		</trkpt>
		<trkpt lat="39.5172996520996" lon="2.74380826950073">
			<ele>54</ele>
			<time>2014-01-02T09:47:55Z</time>
		</trkpt>
		<trkpt lat="39.5173645019531" lon="2.74373435974121">
			<ele>53.7000007629395</ele>
			<time>2014-01-02T09:47:57Z</time>
		</trkpt>
		<trkpt lat="39.5174255371094" lon="2.74365878105164">
			<ele>53.9000015258789</ele>
			<time>2014-01-02T09:47:59Z</time>
		</trkpt>
		<trkpt lat="39.5174903869629" lon="2.74359154701233">
			<ele>54</ele>
			<time>2014-01-02T09:48:01Z</time>
		</trkpt>
		<trkpt lat="39.5175514221191" lon="2.74352216720581">
			<ele>53.9000015258789</ele>
			<time>2014-01-02T09:48:03Z</time>
		</trkpt>
		<trkpt lat="39.5176162719727" lon="2.74345684051514">
			<ele>54</ele>
			<time>2014-01-02T09:48:05Z</time>
		</trkpt>
		<trkpt lat="39.5176849365234" lon="2.74339294433594">
			<ele>54.2000007629395</ele>
			<time>2014-01-02T09:48:07Z</time>
		</trkpt>
		<trkpt lat="39.5177421569824" lon="2.74332070350647">
			<ele>54.2999992370605</ele>
			<time>2014-01-02T09:48:09Z</time>
		</trkpt>
		<trkpt lat="39.5178070068359" lon="2.7432541847229">
			<ele>54.4000015258789</ele>
			<time>2014-01-02T09:48:11Z</time>
		</trkpt>
		<trkpt lat="39.5178718566895" lon="2.74319791793823">
			<ele>54.2000007629395</ele>
			<time>2014-01-02T09:48:13Z</time>
		</trkpt>
		<trkpt lat="39.5179328918457" lon="2.74312925338745">
			<ele>53.7999992370605</ele>
			<time>2014-01-02T09:48:15Z</time>
		</trkpt>
		<trkpt lat="39.517993927002" lon="2.74306344985962">
			<ele>54</ele>
			<time>2014-01-02T09:48:17Z</time>
		</trkpt>
		<trkpt lat="39.5180549621582" lon="2.7429940700531">
			<ele>53.9000015258789</ele>
			<time>2014-01-02T09:48:19Z</time>
		</trkpt>
		<trkpt lat="39.5181198120117" lon="2.74292969703674">
			<ele>54.2000007629395</ele>
			<time>2014-01-02T09:48:21Z</time>
		</trkpt>
		<trkpt lat="39.518180847168" lon="2.74286341667175">
			<ele>54.2000007629395</ele>
			<time>2014-01-02T09:48:23Z</time>
		</trkpt>
		<trkpt lat="39.5182456970215" lon="2.74279737472534">
			<ele>54</ele>
			<time>2014-01-02T09:48:25Z</time>
		</trkpt>
		<trkpt lat="39.5183067321777" lon="2.74272918701172">
			<ele>53.9000015258789</ele>
			<time>2014-01-02T09:48:27Z</time>
		</trkpt>
		<trkpt lat="39.5183715820313" lon="2.74266004562378">
			<ele>54</ele>
			<time>2014-01-02T09:48:29Z</time>
		</trkpt>
		<trkpt lat="39.5184326171875" lon="2.74259638786316">
			<ele>54.0999984741211</ele>
			<time>2014-01-02T09:48:31Z</time>
		</trkpt>
		<trkpt lat="39.518497467041" lon="2.74253010749817">
			<ele>54.2999992370605</ele>
			<time>2014-01-02T09:48:33Z</time>
		</trkpt>
		<trkpt lat="39.5185585021973" lon="2.74245715141296">
			<ele>54.2000007629395</ele>
			<time>2014-01-02T09:48:35Z</time>
		</trkpt>
		<trkpt lat="39.5186195373535" lon="2.7423882484436">
			<ele>54.2999992370605</ele>
			<time>2014-01-02T09:48:37Z</time>
		</trkpt>
		<trkpt lat="39.518684387207" lon="2.74231719970703">
			<ele>54.2000007629395</ele>
			<time>2014-01-02T09:48:39Z</time>
		</trkpt>
		<trkpt lat="39.5187492370605" lon="2.74225044250488">
			<ele>54.4000015258789</ele>
			<time>2014-01-02T09:48:41Z</time>
		</trkpt>
		<trkpt lat="39.5188140869141" lon="2.74218535423279">
			<ele>54.2999992370605</ele>
			<time>2014-01-02T09:48:43Z</time>
		</trkpt>
		<trkpt lat="39.5188751220703" lon="2.74211430549622">
			<ele>54.2999992370605</ele>
			<time>2014-01-02T09:48:45Z</time>
		</trkpt>
		<trkpt lat="39.5189399719238" lon="2.74204444885254">
			<ele>54.4000015258789</ele>
			<time>2014-01-02T09:48:47Z</time>
		</trkpt>
		<trkpt lat="39.5190010070801" lon="2.7419753074646">
			<ele>54.5999984741211</ele>
			<time>2014-01-02T09:48:49Z</time>
		</trkpt>
		<trkpt lat="39.5190658569336" lon="2.74191045761108">
			<ele>54.7999992370605</ele>
			<time>2014-01-02T09:48:51Z</time>
		</trkpt>
		<trkpt lat="39.5191307067871" lon="2.74183869361877">
			<ele>54.5999984741211</ele>
			<time>2014-01-02T09:48:53Z</time>
		</trkpt>
		<trkpt lat="39.5191955566406" lon="2.74176812171936">
			<ele>54.5</ele>
			<time>2014-01-02T09:48:55Z</time>
		</trkpt>
		<trkpt lat="39.5192604064941" lon="2.7417004108429">
			<ele>54.4000015258789</ele>
			<time>2014-01-02T09:48:57Z</time>
		</trkpt>
		<trkpt lat="39.5193214416504" lon="2.74163413047791">
			<ele>54.4000015258789</ele>
			<time>2014-01-02T09:48:59Z</time>
		</trkpt>
		<trkpt lat="39.5193862915039" lon="2.74156451225281">
			<ele>54.0999984741211</ele>
			<time>2014-01-02T09:49:01Z</time>
		</trkpt>
		<trkpt lat="39.5194435119629" lon="2.74148750305176">
			<ele>54.2000007629395</ele>
			<time>2014-01-02T09:49:03Z</time>
		</trkpt>
		<trkpt lat="39.5195045471191" lon="2.74141573905945">
			<ele>54.2999992370605</ele>
			<time>2014-01-02T09:49:05Z</time>
		</trkpt>
		<trkpt lat="39.5195732116699" lon="2.74135184288025">
			<ele>54.2000007629395</ele>
			<time>2014-01-02T09:49:07Z</time>
		</trkpt>
		<trkpt lat="39.5196418762207" lon="2.74129271507263">
			<ele>54.2999992370605</ele>
			<time>2014-01-02T09:49:09Z</time>
		</trkpt>
		<trkpt lat="39.5197067260742" lon="2.74122548103333">
			<ele>54.0999984741211</ele>
			<time>2014-01-02T09:49:11Z</time>
		</trkpt>
		<trkpt lat="39.519775390625" lon="2.74116039276123">
			<ele>54.2000007629395</ele>
			<time>2014-01-02T09:49:13Z</time>
		</trkpt>
		<trkpt lat="39.5198402404785" lon="2.74109077453613">
			<ele>54</ele>
			<time>2014-01-02T09:49:15Z</time>
		</trkpt>
		<trkpt lat="39.5199012756348" lon="2.7410204410553">
			<ele>54.4000015258789</ele>
			<time>2014-01-02T09:49:17Z</time>
		</trkpt>
		<trkpt lat="39.5199661254883" lon="2.74095416069031">
			<ele>54.4000015258789</ele>
			<time>2014-01-02T09:49:19Z</time>
		</trkpt>
		<trkpt lat="39.5200309753418" lon="2.74088764190674">
			<ele>54.4000015258789</ele>
			<time>2014-01-02T09:49:21Z</time>
		</trkpt>
		<trkpt lat="39.5200958251953" lon="2.74082016944885">
			<ele>54.4000015258789</ele>
			<time>2014-01-02T09:49:23Z</time>
		</trkpt>
		<trkpt lat="39.5201568603516" lon="2.74075603485107">
			<ele>54.4000015258789</ele>
			<time>2014-01-02T09:49:25Z</time>
		</trkpt>
		<trkpt lat="39.5202178955078" lon="2.7406895160675">
			<ele>54.5</ele>
			<time>2014-01-02T09:49:27Z</time>
		</trkpt>
		<trkpt lat="39.5202789306641" lon="2.74061894416809">
			<ele>54.5</ele>
			<time>2014-01-02T09:49:29Z</time>
		</trkpt>
		<trkpt lat="39.5203399658203" lon="2.74055147171021">
			<ele>54.4000015258789</ele>
			<time>2014-01-02T09:49:31Z</time>
		</trkpt>
		<trkpt lat="39.5204048156738" lon="2.74048686027527">
			<ele>54.4000015258789</ele>
			<time>2014-01-02T09:49:33Z</time>
		</trkpt>
		<trkpt lat="39.5204658508301" lon="2.74041819572449">
			<ele>54.5</ele>
			<time>2014-01-02T09:49:35Z</time>
		</trkpt>
		<trkpt lat="39.5205268859863" lon="2.74034786224365">
			<ele>54.5</ele>
			<time>2014-01-02T09:49:37Z</time>
		</trkpt>
		<trkpt lat="39.5205955505371" lon="2.74028587341309">
			<ele>54.5</ele>
			<time>2014-01-02T09:49:39Z</time>
		</trkpt>
		<trkpt lat="39.5206565856934" lon="2.74022078514099">
			<ele>54.2000007629395</ele>
			<time>2014-01-02T09:49:41Z</time>
		</trkpt>
		<trkpt lat="39.5207176208496" lon="2.74015474319458">
			<ele>54.2999992370605</ele>
			<time>2014-01-02T09:49:43Z</time>
		</trkpt>
		<trkpt lat="39.5207786560059" lon="2.74008870124817">
			<ele>54.7999992370605</ele>
			<time>2014-01-02T09:49:45Z</time>
		</trkpt>
		<trkpt lat="39.5208396911621" lon="2.74002242088318">
			<ele>54.5999984741211</ele>
			<time>2014-01-02T09:49:47Z</time>
		</trkpt>
		<trkpt lat="39.5208969116211" lon="2.73995685577393">
			<ele>54.4000015258789</ele>
			<time>2014-01-02T09:49:49Z</time>
		</trkpt>
		<trkpt lat="39.5209579467773" lon="2.73989319801331">
			<ele>54.5</ele>
			<time>2014-01-02T09:49:51Z</time>
		</trkpt>
		<trkpt lat="39.5210189819336" lon="2.73983335494995">
			<ele>54.5</ele>
			<time>2014-01-02T09:49:53Z</time>
		</trkpt>
		<trkpt lat="39.5210800170898" lon="2.73977327346802">
			<ele>54.5999984741211</ele>
			<time>2014-01-02T09:49:55Z</time>
		</trkpt>
		<trkpt lat="39.5211410522461" lon="2.73970723152161">
			<ele>54.5</ele>
			<time>2014-01-02T09:49:57Z</time>
		</trkpt>
		<trkpt lat="39.5212020874023" lon="2.73963904380798">
			<ele>54.4000015258789</ele>
			<time>2014-01-02T09:49:59Z</time>
		</trkpt>
		<trkpt lat="39.5212631225586" lon="2.7395715713501">
			<ele>54.4000015258789</ele>
			<time>2014-01-02T09:50:01Z</time>
		</trkpt>
		<trkpt lat="39.5213279724121" lon="2.73950552940369">
			<ele>54.2000007629395</ele>
			<time>2014-01-02T09:50:03Z</time>
		</trkpt>
		<trkpt lat="39.5213890075684" lon="2.73943567276001">
			<ele>54</ele>
			<time>2014-01-02T09:50:05Z</time>
		</trkpt>
		<trkpt lat="39.5214538574219" lon="2.73936581611633">
			<ele>54.0999984741211</ele>
			<time>2014-01-02T09:50:07Z</time>
		</trkpt>
		<trkpt lat="39.5215148925781" lon="2.73929619789124">
			<ele>53.9000015258789</ele>
			<time>2014-01-02T09:50:09Z</time>
		</trkpt>
		<trkpt lat="39.5215759277344" lon="2.73922944068909">
			<ele>53.9000015258789</ele>
			<time>2014-01-02T09:50:11Z</time>
		</trkpt>
		<trkpt lat="39.5216369628906" lon="2.73916125297546">
			<ele>53.7999992370605</ele>
			<time>2014-01-02T09:50:13Z</time>
		</trkpt>
		<trkpt lat="39.5216979980469" lon="2.73909783363342">
			<ele>53.2000007629395</ele>
			<time>2014-01-02T09:50:15Z</time>
		</trkpt>
		<trkpt lat="39.5217552185059" lon="2.73903036117554">
			<ele>53.0999984741211</ele>
			<time>2014-01-02T09:50:17Z</time>
		</trkpt>
		<trkpt lat="39.5218124389648" lon="2.73896074295044">
			<ele>53.2000007629395</ele>
			<time>2014-01-02T09:50:19Z</time>
		</trkpt>
		<trkpt lat="39.5218696594238" lon="2.73889374732971">
			<ele>52.9000015258789</ele>
			<time>2014-01-02T09:50:21Z</time>
		</trkpt>
		<trkpt lat="39.5219230651855" lon="2.73882722854614">
			<ele>52.7999992370605</ele>
			<time>2014-01-02T09:50:23Z</time>
		</trkpt>
		<trkpt lat="39.5219764709473" lon="2.73878192901611">
			<ele>53</ele>
			<time>2014-01-02T09:50:25Z</time>
		</trkpt>
		<trkpt lat="39.5220375061035" lon="2.73877882957458">
			<ele>53.4000015258789</ele>
			<time>2014-01-02T09:50:28Z</time>
		</trkpt>
		<trkpt lat="39.522087097168" lon="2.73882651329041">
			<ele>53.2000007629395</ele>
			<time>2014-01-02T09:50:30Z</time>
		</trkpt>
		<trkpt lat="39.5221099853516" lon="2.73888540267944">
			<ele>54.0999984741211</ele>
			<time>2014-01-02T09:50:32Z</time>
		</trkpt>
		<trkpt lat="39.5220832824707" lon="2.73881006240845">
			<ele>53.5</ele>
			<time>2014-01-02T09:50:38Z</time>
		</trkpt>
		<trkpt lat="39.5220794677734" lon="2.73874187469482">
			<ele>53.5999984741211</ele>
			<time>2014-01-02T09:50:40Z</time>
		</trkpt>
		<trkpt lat="39.5220794677734" lon="2.73866510391235">
			<ele>54.0999984741211</ele>
			<time>2014-01-02T09:50:42Z</time>
		</trkpt>
		<trkpt lat="39.5221290588379" lon="2.73859858512878">
			<ele>54.5999984741211</ele>
			<time>2014-01-02T09:50:44Z</time>
		</trkpt>
		<trkpt lat="39.5221748352051" lon="2.73853302001953">
			<ele>54.0999984741211</ele>
			<time>2014-01-02T09:50:46Z</time>
		</trkpt>
		<trkpt lat="39.5222206115723" lon="2.73846411705017">
			<ele>54.5999984741211</ele>
			<time>2014-01-02T09:50:48Z</time>
		</trkpt>
		<trkpt lat="39.5222702026367" lon="2.73840689659119">
			<ele>54.2000007629395</ele>
			<time>2014-01-02T09:50:50Z</time>
		</trkpt>
		<trkpt lat="39.5223236083984" lon="2.73835206031799">
			<ele>54.0999984741211</ele>
			<time>2014-01-02T09:50:52Z</time>
		</trkpt>
		<trkpt lat="39.5223770141602" lon="2.73829984664917">
			<ele>54.2000007629395</ele>
			<time>2014-01-02T09:50:54Z</time>
		</trkpt>
		<trkpt lat="39.5224304199219" lon="2.73826670646667">
			<ele>54.4000015258789</ele>
			<time>2014-01-02T09:50:56Z</time>
		</trkpt>
		<trkpt lat="39.5224761962891" lon="2.73834729194641">
			<ele>54.7999992370605</ele>
			<time>2014-01-02T09:50:58Z</time>
		</trkpt>
		<trkpt lat="39.5225219726563" lon="2.73841071128845">
			<ele>55.2999992370605</ele>
			<time>2014-01-02T09:51:00Z</time>
		</trkpt>
		<trkpt lat="39.5225715637207" lon="2.73848295211792">
			<ele>55.5</ele>
			<time>2014-01-02T09:51:02Z</time>
		</trkpt>
		<trkpt lat="39.5226249694824" lon="2.7385573387146">
			<ele>54.5999984741211</ele>
			<time>2014-01-02T09:51:04Z</time>
		</trkpt>
		<trkpt lat="39.5226669311523" lon="2.73863911628723">
			<ele>54.2000007629395</ele>
			<time>2014-01-02T09:51:06Z</time>
		</trkpt>
		<trkpt lat="39.5227127075195" lon="2.73872947692871">
			<ele>55.7999992370605</ele>
			<time>2014-01-02T09:51:08Z</time>
		</trkpt>
		<trkpt lat="39.5227432250977" lon="2.73877096176147">
			<ele>59.0999984741211</ele>
			<time>2014-01-02T09:51:36Z</time>
		</trkpt>
		<trkpt lat="39.5227890014648" lon="2.73876166343689">
			<ele>64.4000015258789</ele>
			<time>2014-01-02T09:52:16Z</time>
		</trkpt>
		<trkpt lat="39.522834777832" lon="2.73874950408936">
			<ele>67.4000015258789</ele>
			<time>2014-01-02T09:53:30Z</time>
		</trkpt>
		<trkpt lat="39.522876739502" lon="2.73873257637024">
			<ele>68.0999984741211</ele>
			<time>2014-01-02T09:54:27Z</time>
		</trkpt>
		<trkpt lat="39.5228042602539" lon="2.73871064186096">
			<ele>67.0999984741211</ele>
			<time>2014-01-02T09:54:43Z</time>
		</trkpt>
		<trkpt lat="39.5227584838867" lon="2.73870968818665">
			<ele>66.6999969482422</ele>
			<time>2014-01-02T09:54:47Z</time>
		</trkpt>
		<trkpt lat="39.5227546691895" lon="2.73864221572876">
			<ele>68.3000030517578</ele>
			<time>2014-01-02T09:54:59Z</time>
		</trkpt>
		<trkpt lat="39.5227088928223" lon="2.73867917060852">
			<ele>67.9000015258789</ele>
			<time>2014-01-02T09:55:08Z</time>
		</trkpt>
		<trkpt lat="39.5227546691895" lon="2.73865294456482">
			<ele>70.5999984741211</ele>
			<time>2014-01-02T09:55:32Z</time>
		</trkpt>
		<trkpt lat="39.5227966308594" lon="2.73862552642822">
			<ele>70.8000030517578</ele>
			<time>2014-01-02T09:55:44Z</time>
		</trkpt>
		<trkpt lat="39.522834777832" lon="2.73866271972656">
			<ele>70.4000015258789</ele>
			<time>2014-01-02T09:56:53Z</time>
		</trkpt>
		<trkpt lat="39.5227737426758" lon="2.73862814903259">
			<ele>69.6999969482422</ele>
			<time>2014-01-02T09:56:58Z</time>
		</trkpt>
		<trkpt lat="39.5227279663086" lon="2.7385880947113">
			<ele>69.5999984741211</ele>
			<time>2014-01-02T09:57:00Z</time>
		</trkpt>
		<trkpt lat="39.5226821899414" lon="2.73854279518127">
			<ele>69.1999969482422</ele>
			<time>2014-01-02T09:57:02Z</time>
		</trkpt>
		<trkpt lat="39.5226593017578" lon="2.73860239982605">
			<ele>67.5</ele>
			<time>2014-01-02T09:57:07Z</time>
		</trkpt>
		<trkpt lat="39.5226936340332" lon="2.73864483833313">
			<ele>65.8000030517578</ele>
			<time>2014-01-02T09:57:09Z</time>
		</trkpt>
		<trkpt lat="39.5227470397949" lon="2.73869562149048">
			<ele>64.8000030517578</ele>
			<time>2014-01-02T09:57:11Z</time>
		</trkpt>
		<trkpt lat="39.5227890014648" lon="2.73875308036804">
			<ele>65.6999969482422</ele>
			<time>2014-01-02T09:57:13Z</time>
		</trkpt>
		<trkpt lat="39.5228233337402" lon="2.73881411552429">
			<ele>67.1999969482422</ele>
			<time>2014-01-02T09:57:15Z</time>
		</trkpt>
		<trkpt lat="39.5228576660156" lon="2.7388641834259">
			<ele>67.1999969482422</ele>
			<time>2014-01-02T09:57:17Z</time>
		</trkpt>
		<trkpt lat="39.5228691101074" lon="2.73892331123352">
			<ele>67.1999969482422</ele>
			<time>2014-01-02T09:57:19Z</time>
		</trkpt>
		<trkpt lat="39.5229225158691" lon="2.73897051811218">
			<ele>67.0999984741211</ele>
			<time>2014-01-02T09:57:22Z</time>
		</trkpt>
		<trkpt lat="39.5229187011719" lon="2.7389121055603">
			<ele>63.4000015258789</ele>
			<time>2014-01-02T09:57:27Z</time>
		</trkpt>
		<trkpt lat="39.5228614807129" lon="2.73887228965759">
			<ele>64.5</ele>
			<time>2014-01-02T09:57:29Z</time>
		</trkpt>
		<trkpt lat="39.5227890014648" lon="2.73881697654724">
			<ele>65.4000015258789</ele>
			<time>2014-01-02T09:57:31Z</time>
		</trkpt>
		<trkpt lat="39.5228004455566" lon="2.73875975608826">
			<ele>63.7000007629395</ele>
			<time>2014-01-02T09:59:09Z</time>
		</trkpt>
		<trkpt lat="39.5228462219238" lon="2.73873901367188">
			<ele>65.1999969482422</ele>
			<time>2014-01-02T09:59:31Z</time>
		</trkpt>
		<trkpt lat="39.5227966308594" lon="2.73871517181396">
			<ele>65</ele>
			<time>2014-01-02T09:59:38Z</time>
		</trkpt>
		<trkpt lat="39.5227737426758" lon="2.73866105079651">
			<ele>70.5999984741211</ele>
			<time>2014-01-02T10:00:27Z</time>
		</trkpt>
		<trkpt lat="39.5227241516113" lon="2.73864817619324">
			<ele>66</ele>
			<time>2014-01-02T10:00:29Z</time>
		</trkpt>
		<trkpt lat="39.5226821899414" lon="2.738600730896">
			<ele>66.4000015258789</ele>
			<time>2014-01-02T10:00:31Z</time>
		</trkpt>
		<trkpt lat="39.522632598877" lon="2.73853254318237">
			<ele>65.5</ele>
			<time>2014-01-02T10:00:34Z</time>
		</trkpt>
		<trkpt lat="39.5225830078125" lon="2.73847603797913">
			<ele>66.4000015258789</ele>
			<time>2014-01-02T10:00:36Z</time>
		</trkpt>
		<trkpt lat="39.5225448608398" lon="2.73841953277588">
			<ele>65.8000030517578</ele>
			<time>2014-01-02T10:00:38Z</time>
		</trkpt>
		<trkpt lat="39.5225143432617" lon="2.73837375640869">
			<ele>65.5999984741211</ele>
			<time>2014-01-02T10:00:40Z</time>
		</trkpt>
		<trkpt lat="39.5224761962891" lon="2.73831915855408">
			<ele>65.8000030517578</ele>
			<time>2014-01-02T10:00:42Z</time>
		</trkpt>
		<trkpt lat="39.5224380493164" lon="2.73826050758362">
			<ele>65</ele>
			<time>2014-01-02T10:00:45Z</time>
		</trkpt>
		<trkpt lat="39.5223693847656" lon="2.73824954032898">
			<ele>62.5999984741211</ele>
			<time>2014-01-02T10:00:48Z</time>
		</trkpt>
		<trkpt lat="39.5223159790039" lon="2.73829293251038">
			<ele>62.2000007629395</ele>
			<time>2014-01-02T10:00:50Z</time>
		</trkpt>
		<trkpt lat="39.522274017334" lon="2.7383553981781">
			<ele>61.2000007629395</ele>
			<time>2014-01-02T10:00:52Z</time>
		</trkpt>
		<trkpt lat="39.5222282409668" lon="2.7384147644043">
			<ele>60.7000007629395</ele>
			<time>2014-01-02T10:00:54Z</time>
		</trkpt>
		<trkpt lat="39.5221748352051" lon="2.73847341537476">
			<ele>60.5</ele>
			<time>2014-01-02T10:00:56Z</time>
		</trkpt>
		<trkpt lat="39.5221214294434" lon="2.73853015899658">
			<ele>60.2999992370605</ele>
			<time>2014-01-02T10:00:58Z</time>
		</trkpt>
		<trkpt lat="39.5220718383789" lon="2.73859214782715">
			<ele>59.9000015258789</ele>
			<time>2014-01-02T10:01:00Z</time>
		</trkpt>
		<trkpt lat="39.5220146179199" lon="2.73864722251892">
			<ele>59.9000015258789</ele>
			<time>2014-01-02T10:01:02Z</time>
		</trkpt>
		<trkpt lat="39.5219612121582" lon="2.73871612548828">
			<ele>59.5999984741211</ele>
			<time>2014-01-02T10:01:04Z</time>
		</trkpt>
		<trkpt lat="39.5219116210938" lon="2.73878121376038">
			<ele>59.5</ele>
			<time>2014-01-02T10:01:06Z</time>
		</trkpt>
		<trkpt lat="39.5218544006348" lon="2.73883867263794">
			<ele>59.4000015258789</ele>
			<time>2014-01-02T10:01:08Z</time>
		</trkpt>
		<trkpt lat="39.521800994873" lon="2.73890042304993">
			<ele>59.7000007629395</ele>
			<time>2014-01-02T10:01:10Z</time>
		</trkpt>
		<trkpt lat="39.5217437744141" lon="2.73895859718323">
			<ele>59.5999984741211</ele>
			<time>2014-01-02T10:01:12Z</time>
		</trkpt>
		<trkpt lat="39.5216865539551" lon="2.73902106285095">
			<ele>59.5</ele>
			<time>2014-01-02T10:01:14Z</time>
		</trkpt>
		<trkpt lat="39.5216331481934" lon="2.73907876014709">
			<ele>59.5999984741211</ele>
			<time>2014-01-02T10:01:16Z</time>
		</trkpt>
		<trkpt lat="39.5215835571289" lon="2.7391402721405">
			<ele>59.4000015258789</ele>
			<time>2014-01-02T10:01:18Z</time>
		</trkpt>
		<trkpt lat="39.5215301513672" lon="2.73919701576233">
			<ele>59.2999992370605</ele>
			<time>2014-01-02T10:01:20Z</time>
		</trkpt>
		<trkpt lat="39.5214729309082" lon="2.73925471305847">
			<ele>59.5</ele>
			<time>2014-01-02T10:01:22Z</time>
		</trkpt>
		<trkpt lat="39.5214157104492" lon="2.73931312561035">
			<ele>59.5</ele>
			<time>2014-01-02T10:01:24Z</time>
		</trkpt>
		<trkpt lat="39.5213584899902" lon="2.73937320709229">
			<ele>59.7000007629395</ele>
			<time>2014-01-02T10:01:26Z</time>
		</trkpt>
		<trkpt lat="39.5213050842285" lon="2.73943591117859">
			<ele>59.5999984741211</ele>
			<time>2014-01-02T10:01:28Z</time>
		</trkpt>
		<trkpt lat="39.5212478637695" lon="2.7394962310791">
			<ele>59.5999984741211</ele>
			<time>2014-01-02T10:01:30Z</time>
		</trkpt>
		<trkpt lat="39.5211944580078" lon="2.73955631256104">
			<ele>59.2000007629395</ele>
			<time>2014-01-02T10:01:32Z</time>
		</trkpt>
		<trkpt lat="39.5211372375488" lon="2.73961448669434">
			<ele>59</ele>
			<time>2014-01-02T10:01:34Z</time>
		</trkpt>
		<trkpt lat="39.5210876464844" lon="2.73967456817627">
			<ele>58.5</ele>
			<time>2014-01-02T10:01:36Z</time>
		</trkpt>
		<trkpt lat="39.5210342407227" lon="2.73973107337952">
			<ele>58.2000007629395</ele>
			<time>2014-01-02T10:01:38Z</time>
		</trkpt>
		<trkpt lat="39.5209770202637" lon="2.73979139328003">
			<ele>57.7999992370605</ele>
			<time>2014-01-02T10:01:40Z</time>
		</trkpt>
		<trkpt lat="39.520923614502" lon="2.73985123634338">
			<ele>57.5</ele>
			<time>2014-01-02T10:01:42Z</time>
		</trkpt>
		<trkpt lat="39.5208702087402" lon="2.73990726470947">
			<ele>57.4000015258789</ele>
			<time>2014-01-02T10:01:44Z</time>
		</trkpt>
		<trkpt lat="39.5208168029785" lon="2.73996734619141">
			<ele>57.2000007629395</ele>
			<time>2014-01-02T10:01:46Z</time>
		</trkpt>
		<trkpt lat="39.5207633972168" lon="2.7400267124176">
			<ele>56.7999992370605</ele>
			<time>2014-01-02T10:01:48Z</time>
		</trkpt>
		<trkpt lat="39.5207061767578" lon="2.74008655548096">
			<ele>56.7999992370605</ele>
			<time>2014-01-02T10:01:50Z</time>
		</trkpt>
		<trkpt lat="39.5206527709961" lon="2.74014735221863">
			<ele>56.7000007629395</ele>
			<time>2014-01-02T10:01:52Z</time>
		</trkpt>
		<trkpt lat="39.5205993652344" lon="2.74020624160767">
			<ele>56.7999992370605</ele>
			<time>2014-01-02T10:01:54Z</time>
		</trkpt>
		<trkpt lat="39.5205421447754" lon="2.7402651309967">
			<ele>56.5</ele>
			<time>2014-01-02T10:01:56Z</time>
		</trkpt>
		<trkpt lat="39.5204887390137" lon="2.74032258987427">
			<ele>56.5</ele>
			<time>2014-01-02T10:01:58Z</time>
		</trkpt>
		<trkpt lat="39.520435333252" lon="2.74038481712341">
			<ele>56.5</ele>
			<time>2014-01-02T10:02:00Z</time>
		</trkpt>
		<trkpt lat="39.5203819274902" lon="2.7404453754425">
			<ele>56.5999984741211</ele>
			<time>2014-01-02T10:02:02Z</time>
		</trkpt>
		<trkpt lat="39.5203247070313" lon="2.74050068855286">
			<ele>56.5999984741211</ele>
			<time>2014-01-02T10:02:04Z</time>
		</trkpt>
		<trkpt lat="39.5202674865723" lon="2.74055576324463">
			<ele>56.7000007629395</ele>
			<time>2014-01-02T10:02:06Z</time>
		</trkpt>
		<trkpt lat="39.5202178955078" lon="2.74062037467957">
			<ele>56.7000007629395</ele>
			<time>2014-01-02T10:02:08Z</time>
		</trkpt>
		<trkpt lat="39.5201606750488" lon="2.74067616462708">
			<ele>56.7000007629395</ele>
			<time>2014-01-02T10:02:10Z</time>
		</trkpt>
		<trkpt lat="39.5201072692871" lon="2.74073243141174">
			<ele>56.5</ele>
			<time>2014-01-02T10:02:12Z</time>
		</trkpt>
		<trkpt lat="39.5200500488281" lon="2.74078869819641">
			<ele>56.5</ele>
			<time>2014-01-02T10:02:14Z</time>
		</trkpt>
		<trkpt lat="39.5199966430664" lon="2.74084734916687">
			<ele>56.9000015258789</ele>
			<time>2014-01-02T10:02:16Z</time>
		</trkpt>
		<trkpt lat="39.5199394226074" lon="2.74090266227722">
			<ele>56.7000007629395</ele>
			<time>2014-01-02T10:02:18Z</time>
		</trkpt>
		<trkpt lat="39.5198822021484" lon="2.740962266922">
			<ele>56.9000015258789</ele>
			<time>2014-01-02T10:02:20Z</time>
		</trkpt>
		<trkpt lat="39.5198249816895" lon="2.74102091789246">
			<ele>57.2000007629395</ele>
			<time>2014-01-02T10:02:22Z</time>
		</trkpt>
		<trkpt lat="39.519775390625" lon="2.74108743667603">
			<ele>57.2000007629395</ele>
			<time>2014-01-02T10:02:24Z</time>
		</trkpt>
		<trkpt lat="39.519718170166" lon="2.74114775657654">
			<ele>57.5</ele>
			<time>2014-01-02T10:02:26Z</time>
		</trkpt>
		<trkpt lat="39.5196571350098" lon="2.74119973182678">
			<ele>58.2000007629395</ele>
			<time>2014-01-02T10:02:28Z</time>
		</trkpt>
		<trkpt lat="39.5196075439453" lon="2.74126029014587">
			<ele>57.7000007629395</ele>
			<time>2014-01-02T10:02:30Z</time>
		</trkpt>
		<trkpt lat="39.5195541381836" lon="2.7413158416748">
			<ele>57.7000007629395</ele>
			<time>2014-01-02T10:02:32Z</time>
		</trkpt>
		<trkpt lat="39.5195007324219" lon="2.74137759208679">
			<ele>57.7000007629395</ele>
			<time>2014-01-02T10:02:34Z</time>
		</trkpt>
		<trkpt lat="39.5194473266602" lon="2.74143600463867">
			<ele>57.4000015258789</ele>
			<time>2014-01-02T10:02:36Z</time>
		</trkpt>
		<trkpt lat="39.5193901062012" lon="2.74150109291077">
			<ele>57</ele>
			<time>2014-01-02T10:02:38Z</time>
		</trkpt>
		<trkpt lat="39.5193367004395" lon="2.74155926704407">
			<ele>56.7999992370605</ele>
			<time>2014-01-02T10:02:40Z</time>
		</trkpt>
		<trkpt lat="39.5192832946777" lon="2.74161839485168">
			<ele>56.5999984741211</ele>
			<time>2014-01-02T10:02:42Z</time>
		</trkpt>
		<trkpt lat="39.5192260742188" lon="2.74167633056641">
			<ele>56.4000015258789</ele>
			<time>2014-01-02T10:02:44Z</time>
		</trkpt>
		<trkpt lat="39.519172668457" lon="2.74173426628113">
			<ele>56</ele>
			<time>2014-01-02T10:02:46Z</time>
		</trkpt>
		<trkpt lat="39.519115447998" lon="2.74179172515869">
			<ele>55.9000015258789</ele>
			<time>2014-01-02T10:02:48Z</time>
		</trkpt>
		<trkpt lat="39.5190544128418" lon="2.74184918403625">
			<ele>55.9000015258789</ele>
			<time>2014-01-02T10:02:50Z</time>
		</trkpt>
		<trkpt lat="39.5190010070801" lon="2.7419068813324">
			<ele>55.7999992370605</ele>
			<time>2014-01-02T10:02:52Z</time>
		</trkpt>
		<trkpt lat="39.5189514160156" lon="2.74195766448975">
			<ele>55.7999992370605</ele>
			<time>2014-01-02T10:02:54Z</time>
		</trkpt>
		<trkpt lat="39.5188980102539" lon="2.74200773239136">
			<ele>55.7999992370605</ele>
			<time>2014-01-02T10:02:56Z</time>
		</trkpt>
		<trkpt lat="39.5188446044922" lon="2.74206709861755">
			<ele>56</ele>
			<time>2014-01-02T10:02:58Z</time>
		</trkpt>
		<trkpt lat="39.5187911987305" lon="2.74212455749512">
			<ele>56.0999984741211</ele>
			<time>2014-01-02T10:03:00Z</time>
		</trkpt>
		<trkpt lat="39.518741607666" lon="2.74218058586121">
			<ele>56.2000007629395</ele>
			<time>2014-01-02T10:03:02Z</time>
		</trkpt>
		<trkpt lat="39.518684387207" lon="2.74223518371582">
			<ele>56.2999992370605</ele>
			<time>2014-01-02T10:03:04Z</time>
		</trkpt>
		<trkpt lat="39.518627166748" lon="2.74228739738464">
			<ele>56.2999992370605</ele>
			<time>2014-01-02T10:03:06Z</time>
		</trkpt>
		<trkpt lat="39.5185737609863" lon="2.74235439300537">
			<ele>56.2000007629395</ele>
			<time>2014-01-02T10:03:08Z</time>
		</trkpt>
		<trkpt lat="39.5185203552246" lon="2.74241161346436">
			<ele>56</ele>
			<time>2014-01-02T10:03:10Z</time>
		</trkpt>
		<trkpt lat="39.5184593200684" lon="2.7424681186676">
			<ele>55.4000015258789</ele>
			<time>2014-01-02T10:03:12Z</time>
		</trkpt>
		<trkpt lat="39.5183982849121" lon="2.74252772331238">
			<ele>55.4000015258789</ele>
			<time>2014-01-02T10:03:14Z</time>
		</trkpt>
		<trkpt lat="39.5183372497559" lon="2.74259090423584">
			<ele>55.2999992370605</ele>
			<time>2014-01-02T10:03:16Z</time>
		</trkpt>
		<trkpt lat="39.5182800292969" lon="2.74265575408936">
			<ele>55.4000015258789</ele>
			<time>2014-01-02T10:03:18Z</time>
		</trkpt>
		<trkpt lat="39.5182228088379" lon="2.74272036552429">
			<ele>55.5999984741211</ele>
			<time>2014-01-02T10:03:20Z</time>
		</trkpt>
		<trkpt lat="39.5181617736816" lon="2.74278259277344">
			<ele>55.7999992370605</ele>
			<time>2014-01-02T10:03:22Z</time>
		</trkpt>
		<trkpt lat="39.5181045532227" lon="2.74284601211548">
			<ele>55.5999984741211</ele>
			<time>2014-01-02T10:03:24Z</time>
		</trkpt>
		<trkpt lat="39.5180473327637" lon="2.74290728569031">
			<ele>55.5</ele>
			<time>2014-01-02T10:03:26Z</time>
		</trkpt>
		<trkpt lat="39.5179901123047" lon="2.74296760559082">
			<ele>55.0999984741211</ele>
			<time>2014-01-02T10:03:28Z</time>
		</trkpt>
		<trkpt lat="39.5179290771484" lon="2.74303269386292">
			<ele>55.0999984741211</ele>
			<time>2014-01-02T10:03:30Z</time>
		</trkpt>
		<trkpt lat="39.5178718566895" lon="2.7430956363678">
			<ele>55</ele>
			<time>2014-01-02T10:03:32Z</time>
		</trkpt>
		<trkpt lat="39.5178146362305" lon="2.74316358566284">
			<ele>54.7999992370605</ele>
			<time>2014-01-02T10:03:34Z</time>
		</trkpt>
		<trkpt lat="39.5177612304688" lon="2.74323081970215">
			<ele>54.5999984741211</ele>
			<time>2014-01-02T10:03:36Z</time>
		</trkpt>
		<trkpt lat="39.5177001953125" lon="2.74329161643982">
			<ele>54.9000015258789</ele>
			<time>2014-01-02T10:03:38Z</time>
		</trkpt>
		<trkpt lat="39.5176429748535" lon="2.74335503578186">
			<ele>55</ele>
			<time>2014-01-02T10:03:40Z</time>
		</trkpt>
		<trkpt lat="39.5175857543945" lon="2.74342155456543">
			<ele>55.5999984741211</ele>
			<time>2014-01-02T10:03:42Z</time>
		</trkpt>
		<trkpt lat="39.5175285339355" lon="2.74347615242004">
			<ele>55</ele>
			<time>2014-01-02T10:03:44Z</time>
		</trkpt>
		<trkpt lat="39.5174713134766" lon="2.74353837966919">
			<ele>54.5</ele>
			<time>2014-01-02T10:03:46Z</time>
		</trkpt>
		<trkpt lat="39.5174179077148" lon="2.7436044216156">
			<ele>54.4000015258789</ele>
			<time>2014-01-02T10:03:48Z</time>
		</trkpt>
		<trkpt lat="39.5173568725586" lon="2.74366784095764">
			<ele>54.9000015258789</ele>
			<time>2014-01-02T10:03:50Z</time>
		</trkpt>
		<trkpt lat="39.5172958374023" lon="2.74372220039368">
			<ele>54.5999984741211</ele>
			<time>2014-01-02T10:03:52Z</time>
		</trkpt>
		<trkpt lat="39.5172348022461" lon="2.74378633499146">
			<ele>54.4000015258789</ele>
			<time>2014-01-02T10:03:54Z</time>
		</trkpt>
		<trkpt lat="39.5171775817871" lon="2.74384760856628">
			<ele>54.2000007629395</ele>
			<time>2014-01-02T10:03:56Z</time>
		</trkpt>
		<trkpt lat="39.5171165466309" lon="2.74390435218811">
			<ele>54.0999984741211</ele>
			<time>2014-01-02T10:03:58Z</time>
		</trkpt>
		<trkpt lat="39.5170555114746" lon="2.74396824836731">
			<ele>54.2999992370605</ele>
			<time>2014-01-02T10:04:00Z</time>
		</trkpt>
		<trkpt lat="39.5169868469238" lon="2.74402976036072">
			<ele>54.0999984741211</ele>
			<time>2014-01-02T10:04:02Z</time>
		</trkpt>
		<trkpt lat="39.5169258117676" lon="2.74408626556396">
			<ele>53.7999992370605</ele>
			<time>2014-01-02T10:04:04Z</time>
		</trkpt>
		<trkpt lat="39.5168685913086" lon="2.74415111541748">
			<ele>54.2000007629395</ele>
			<time>2014-01-02T10:04:06Z</time>
		</trkpt>
		<trkpt lat="39.5168075561523" lon="2.74421072006226">
			<ele>54</ele>
			<time>2014-01-02T10:04:08Z</time>
		</trkpt>
		<trkpt lat="39.5167503356934" lon="2.74427342414856">
			<ele>53.7999992370605</ele>
			<time>2014-01-02T10:04:10Z</time>
		</trkpt>
		<trkpt lat="39.5166931152344" lon="2.74434065818787">
			<ele>54</ele>
			<time>2014-01-02T10:04:12Z</time>
		</trkpt>
		<trkpt lat="39.5166358947754" lon="2.74440002441406">
			<ele>54.2999992370605</ele>
			<time>2014-01-02T10:04:14Z</time>
		</trkpt>
		<trkpt lat="39.5165786743164" lon="2.7444589138031">
			<ele>55</ele>
			<time>2014-01-02T10:04:16Z</time>
		</trkpt>
		<trkpt lat="39.5165214538574" lon="2.74452090263367">
			<ele>55</ele>
			<time>2014-01-02T10:04:18Z</time>
		</trkpt>
		<trkpt lat="39.5164642333984" lon="2.74458289146423">
			<ele>55.5999984741211</ele>
			<time>2014-01-02T10:04:20Z</time>
		</trkpt>
		<trkpt lat="39.5164031982422" lon="2.74463725090027">
			<ele>55</ele>
			<time>2014-01-02T10:04:22Z</time>
		</trkpt>
		<trkpt lat="39.5163459777832" lon="2.74469256401062">
			<ele>55</ele>
			<time>2014-01-02T10:04:24Z</time>
		</trkpt>
		<trkpt lat="39.516284942627" lon="2.74475359916687">
			<ele>55.2999992370605</ele>
			<time>2014-01-02T10:04:26Z</time>
		</trkpt>
		<trkpt lat="39.5162239074707" lon="2.7448103427887">
			<ele>55.5999984741211</ele>
			<time>2014-01-02T10:04:28Z</time>
		</trkpt>
		<trkpt lat="39.5161628723145" lon="2.74486947059631">
			<ele>55.4000015258789</ele>
			<time>2014-01-02T10:04:30Z</time>
		</trkpt>
		<trkpt lat="39.5160980224609" lon="2.74492454528809">
			<ele>55.5999984741211</ele>
			<time>2014-01-02T10:04:32Z</time>
		</trkpt>
		<trkpt lat="39.5160369873047" lon="2.74497628211975">
			<ele>55.9000015258789</ele>
			<time>2014-01-02T10:04:34Z</time>
		</trkpt>
		<trkpt lat="39.5159721374512" lon="2.74502778053284">
			<ele>56.0999984741211</ele>
			<time>2014-01-02T10:04:36Z</time>
		</trkpt>
		<trkpt lat="39.5159111022949" lon="2.7450852394104">
			<ele>56.2999992370605</ele>
			<time>2014-01-02T10:04:38Z</time>
		</trkpt>
		<trkpt lat="39.5158500671387" lon="2.74513936042786">
			<ele>56.7000007629395</ele>
			<time>2014-01-02T10:04:40Z</time>
		</trkpt>
		<trkpt lat="39.5157890319824" lon="2.74519324302673">
			<ele>57</ele>
			<time>2014-01-02T10:04:42Z</time>
		</trkpt>
		<trkpt lat="39.5157241821289" lon="2.74524211883545">
			<ele>57.2999992370605</ele>
			<time>2014-01-02T10:04:44Z</time>
		</trkpt>
		<trkpt lat="39.5156669616699" lon="2.74529504776001">
			<ele>57.5999984741211</ele>
			<time>2014-01-02T10:04:46Z</time>
		</trkpt>
		<trkpt lat="39.5156021118164" lon="2.74534344673157">
			<ele>57.5999984741211</ele>
			<time>2014-01-02T10:04:48Z</time>
		</trkpt>
		<trkpt lat="39.5155334472656" lon="2.74538683891296">
			<ele>57.9000015258789</ele>
			<time>2014-01-02T10:04:50Z</time>
		</trkpt>
		<trkpt lat="39.5154647827148" lon="2.74542355537415">
			<ele>58.0999984741211</ele>
			<time>2014-01-02T10:04:52Z</time>
		</trkpt>
		<trkpt lat="39.5153961181641" lon="2.74548149108887">
			<ele>57.7000007629395</ele>
			<time>2014-01-02T10:04:54Z</time>
		</trkpt>
		<trkpt lat="39.5153312683105" lon="2.74553680419922">
			<ele>57.4000015258789</ele>
			<time>2014-01-02T10:04:56Z</time>
		</trkpt>
		<trkpt lat="39.515266418457" lon="2.7455883026123">
			<ele>57.4000015258789</ele>
			<time>2014-01-02T10:04:58Z</time>
		</trkpt>
		<trkpt lat="39.5152015686035" lon="2.74563980102539">
			<ele>57.7000007629395</ele>
			<time>2014-01-02T10:05:00Z</time>
		</trkpt>
		<trkpt lat="39.51513671875" lon="2.74569940567017">
			<ele>58</ele>
			<time>2014-01-02T10:05:02Z</time>
		</trkpt>
		<trkpt lat="39.5150718688965" lon="2.74575281143188">
			<ele>58.0999984741211</ele>
			<time>2014-01-02T10:05:04Z</time>
		</trkpt>
		<trkpt lat="39.515007019043" lon="2.74580430984497">
			<ele>57.5999984741211</ele>
			<time>2014-01-02T10:05:06Z</time>
		</trkpt>
		<trkpt lat="39.5149421691895" lon="2.74585485458374">
			<ele>57.5999984741211</ele>
			<time>2014-01-02T10:05:08Z</time>
		</trkpt>
		<trkpt lat="39.5148773193359" lon="2.7459089756012">
			<ele>57.5999984741211</ele>
			<time>2014-01-02T10:05:10Z</time>
		</trkpt>
		<trkpt lat="39.5148086547852" lon="2.74595403671265">
			<ele>57.7999992370605</ele>
			<time>2014-01-02T10:05:12Z</time>
		</trkpt>
		<trkpt lat="39.5147438049316" lon="2.74600124359131">
			<ele>57.9000015258789</ele>
			<time>2014-01-02T10:05:14Z</time>
		</trkpt>
		<trkpt lat="39.5146827697754" lon="2.74605298042297">
			<ele>58.2999992370605</ele>
			<time>2014-01-02T10:05:16Z</time>
		</trkpt>
		<trkpt lat="39.5146179199219" lon="2.74609994888306">
			<ele>58.5</ele>
			<time>2014-01-02T10:05:18Z</time>
		</trkpt>
		<trkpt lat="39.5145568847656" lon="2.74615359306335">
			<ele>58.5</ele>
			<time>2014-01-02T10:05:20Z</time>
		</trkpt>
		<trkpt lat="39.5144920349121" lon="2.74620866775513">
			<ele>58.4000015258789</ele>
			<time>2014-01-02T10:05:22Z</time>
		</trkpt>
		<trkpt lat="39.5144348144531" lon="2.74625873565674">
			<ele>58.2999992370605</ele>
			<time>2014-01-02T10:05:24Z</time>
		</trkpt>
		<trkpt lat="39.5143661499023" lon="2.7463059425354">
			<ele>58.2999992370605</ele>
			<time>2014-01-02T10:05:26Z</time>
		</trkpt>
		<trkpt lat="39.5142974853516" lon="2.74635529518127">
			<ele>58.4000015258789</ele>
			<time>2014-01-02T10:05:28Z</time>
		</trkpt>
		<trkpt lat="39.514232635498" lon="2.74640679359436">
			<ele>58.2000007629395</ele>
			<time>2014-01-02T10:05:30Z</time>
		</trkpt>
		<trkpt lat="39.5141677856445" lon="2.74646043777466">
			<ele>58.5999984741211</ele>
			<time>2014-01-02T10:05:32Z</time>
		</trkpt>
		<trkpt lat="39.5141067504883" lon="2.74651288986206">
			<ele>58.9000015258789</ele>
			<time>2014-01-02T10:05:34Z</time>
		</trkpt>
		<trkpt lat="39.514045715332" lon="2.7465615272522">
			<ele>59.2999992370605</ele>
			<time>2014-01-02T10:05:36Z</time>
		</trkpt>
		<trkpt lat="39.5139808654785" lon="2.74660897254944">
			<ele>59.2000007629395</ele>
			<time>2014-01-02T10:05:38Z</time>
		</trkpt>
		<trkpt lat="39.5139198303223" lon="2.74665713310242">
			<ele>59.5999984741211</ele>
			<time>2014-01-02T10:05:40Z</time>
		</trkpt>
		<trkpt lat="39.5138511657715" lon="2.74670457839966">
			<ele>60</ele>
			<time>2014-01-02T10:05:42Z</time>
		</trkpt>
		<trkpt lat="39.5137977600098" lon="2.74677062034607">
			<ele>60.2000007629395</ele>
			<time>2014-01-02T10:05:44Z</time>
		</trkpt>
		<trkpt lat="39.5137367248535" lon="2.74682354927063">
			<ele>60.5999984741211</ele>
			<time>2014-01-02T10:05:46Z</time>
		</trkpt>
		<trkpt lat="39.5136756896973" lon="2.7468695640564">
			<ele>60.9000015258789</ele>
			<time>2014-01-02T10:05:48Z</time>
		</trkpt>
		<trkpt lat="39.513614654541" lon="2.74691581726074">
			<ele>61.2999992370605</ele>
			<time>2014-01-02T10:05:50Z</time>
		</trkpt>
		<trkpt lat="39.5135498046875" lon="2.74696230888367">
			<ele>61.0999984741211</ele>
			<time>2014-01-02T10:05:52Z</time>
		</trkpt>
		<trkpt lat="39.513484954834" lon="2.74699974060059">
			<ele>61</ele>
			<time>2014-01-02T10:05:54Z</time>
		</trkpt>
		<trkpt lat="39.5134162902832" lon="2.74704170227051">
			<ele>61.0999984741211</ele>
			<time>2014-01-02T10:05:56Z</time>
		</trkpt>
		<trkpt lat="39.513355255127" lon="2.74709177017212">
			<ele>61.2000007629395</ele>
			<time>2014-01-02T10:05:58Z</time>
		</trkpt>
		<trkpt lat="39.513298034668" lon="2.74714636802673">
			<ele>61.0999984741211</ele>
			<time>2014-01-02T10:06:00Z</time>
		</trkpt>
		<trkpt lat="39.5132293701172" lon="2.7471878528595">
			<ele>61.2000007629395</ele>
			<time>2014-01-02T10:06:02Z</time>
		</trkpt>
		<trkpt lat="39.5131683349609" lon="2.74723958969116">
			<ele>61.2000007629395</ele>
			<time>2014-01-02T10:06:04Z</time>
		</trkpt>
		<trkpt lat="39.5131072998047" lon="2.74729084968567">
			<ele>61.4000015258789</ele>
			<time>2014-01-02T10:06:06Z</time>
		</trkpt>
		<trkpt lat="39.5130462646484" lon="2.74734020233154">
			<ele>61.5</ele>
			<time>2014-01-02T10:06:08Z</time>
		</trkpt>
		<trkpt lat="39.5129814147949" lon="2.74739027023315">
			<ele>61.2999992370605</ele>
			<time>2014-01-02T10:06:10Z</time>
		</trkpt>
		<trkpt lat="39.5129280090332" lon="2.74744892120361">
			<ele>60.9000015258789</ele>
			<time>2014-01-02T10:06:12Z</time>
		</trkpt>
		<trkpt lat="39.5128631591797" lon="2.74749326705933">
			<ele>61</ele>
			<time>2014-01-02T10:06:14Z</time>
		</trkpt>
		<trkpt lat="39.5127983093262" lon="2.74754905700684">
			<ele>61.0999984741211</ele>
			<time>2014-01-02T10:06:16Z</time>
		</trkpt>
		<trkpt lat="39.5127410888672" lon="2.74760150909424">
			<ele>60.7999992370605</ele>
			<time>2014-01-02T10:06:18Z</time>
		</trkpt>
		<trkpt lat="39.5126800537109" lon="2.74765205383301">
			<ele>60.5999984741211</ele>
			<time>2014-01-02T10:06:20Z</time>
		</trkpt>
		<trkpt lat="39.5126190185547" lon="2.74770212173462">
			<ele>60.4000015258789</ele>
			<time>2014-01-02T10:06:22Z</time>
		</trkpt>
		<trkpt lat="39.5125541687012" lon="2.74775290489197">
			<ele>60.2999992370605</ele>
			<time>2014-01-02T10:06:24Z</time>
		</trkpt>
		<trkpt lat="39.5124931335449" lon="2.74780702590942">
			<ele>60.4000015258789</ele>
			<time>2014-01-02T10:06:26Z</time>
		</trkpt>
		<trkpt lat="39.5124359130859" lon="2.74785971641541">
			<ele>60.2999992370605</ele>
			<time>2014-01-02T10:06:28Z</time>
		</trkpt>
		<trkpt lat="39.5123710632324" lon="2.74791049957275">
			<ele>60.2999992370605</ele>
			<time>2014-01-02T10:06:30Z</time>
		</trkpt>
		<trkpt lat="39.5123100280762" lon="2.74796462059021">
			<ele>60.2999992370605</ele>
			<time>2014-01-02T10:06:32Z</time>
		</trkpt>
		<trkpt lat="39.5122451782227" lon="2.74801564216614">
			<ele>59.7000007629395</ele>
			<time>2014-01-02T10:06:34Z</time>
		</trkpt>
		<trkpt lat="39.5121803283691" lon="2.74806380271912">
			<ele>59.7999992370605</ele>
			<time>2014-01-02T10:06:36Z</time>
		</trkpt>
		<trkpt lat="39.5121192932129" lon="2.74811553955078">
			<ele>59.7000007629395</ele>
			<time>2014-01-02T10:06:38Z</time>
		</trkpt>
		<trkpt lat="39.5120582580566" lon="2.74816608428955">
			<ele>59.7000007629395</ele>
			<time>2014-01-02T10:06:40Z</time>
		</trkpt>
		<trkpt lat="39.5119934082031" lon="2.74820947647095">
			<ele>59.9000015258789</ele>
			<time>2014-01-02T10:06:42Z</time>
		</trkpt>
		<trkpt lat="39.5119323730469" lon="2.7482590675354">
			<ele>59.9000015258789</ele>
			<time>2014-01-02T10:06:44Z</time>
		</trkpt>
		<trkpt lat="39.5118637084961" lon="2.74830627441406">
			<ele>59.7999992370605</ele>
			<time>2014-01-02T10:06:46Z</time>
		</trkpt>
		<trkpt lat="39.5117988586426" lon="2.74835181236267">
			<ele>59.7999992370605</ele>
			<time>2014-01-02T10:06:48Z</time>
		</trkpt>
		<trkpt lat="39.5117301940918" lon="2.7483959197998">
			<ele>59.7999992370605</ele>
			<time>2014-01-02T10:06:50Z</time>
		</trkpt>
		<trkpt lat="39.5116691589355" lon="2.7484450340271">
			<ele>59.7000007629395</ele>
			<time>2014-01-02T10:06:52Z</time>
		</trkpt>
		<trkpt lat="39.5116004943848" lon="2.74848747253418">
			<ele>59.9000015258789</ele>
			<time>2014-01-02T10:06:54Z</time>
		</trkpt>
		<trkpt lat="39.5115280151367" lon="2.74853181838989">
			<ele>60.0999984741211</ele>
			<time>2014-01-02T10:06:56Z</time>
		</trkpt>
		<trkpt lat="39.5114707946777" lon="2.74858355522156">
			<ele>60.5999984741211</ele>
			<time>2014-01-02T10:06:58Z</time>
		</trkpt>
		<trkpt lat="39.5114059448242" lon="2.74862813949585">
			<ele>61</ele>
			<time>2014-01-02T10:07:00Z</time>
		</trkpt>
		<trkpt lat="39.5113372802734" lon="2.74867463111877">
			<ele>61</ele>
			<time>2014-01-02T10:07:02Z</time>
		</trkpt>
		<trkpt lat="39.5112686157227" lon="2.74871945381165">
			<ele>60.9000015258789</ele>
			<time>2014-01-02T10:07:04Z</time>
		</trkpt>
		<trkpt lat="39.5111999511719" lon="2.74875569343567">
			<ele>60.7000007629395</ele>
			<time>2014-01-02T10:07:06Z</time>
		</trkpt>
		<trkpt lat="39.5111312866211" lon="2.74879693984985">
			<ele>60.2000007629395</ele>
			<time>2014-01-02T10:07:08Z</time>
		</trkpt>
		<trkpt lat="39.5110626220703" lon="2.74883842468262">
			<ele>60</ele>
			<time>2014-01-02T10:07:10Z</time>
		</trkpt>
		<trkpt lat="39.5109977722168" lon="2.7488796710968">
			<ele>59.9000015258789</ele>
			<time>2014-01-02T10:07:12Z</time>
		</trkpt>
		<trkpt lat="39.5109252929688" lon="2.74891710281372">
			<ele>60</ele>
			<time>2014-01-02T10:07:14Z</time>
		</trkpt>
		<trkpt lat="39.510856628418" lon="2.74895572662354">
			<ele>60.2000007629395</ele>
			<time>2014-01-02T10:07:16Z</time>
		</trkpt>
		<trkpt lat="39.5107917785645" lon="2.74899482727051">
			<ele>60.2000007629395</ele>
			<time>2014-01-02T10:07:18Z</time>
		</trkpt>
		<trkpt lat="39.5107231140137" lon="2.74903035163879">
			<ele>60.2000007629395</ele>
			<time>2014-01-02T10:07:20Z</time>
		</trkpt>
		<trkpt lat="39.5106506347656" lon="2.74906492233276">
			<ele>60</ele>
			<time>2014-01-02T10:07:22Z</time>
		</trkpt>
		<trkpt lat="39.5105819702148" lon="2.74910497665405">
			<ele>59.9000015258789</ele>
			<time>2014-01-02T10:07:24Z</time>
		</trkpt>
		<trkpt lat="39.5105171203613" lon="2.74914526939392">
			<ele>59.5999984741211</ele>
			<time>2014-01-02T10:07:26Z</time>
		</trkpt>
		<trkpt lat="39.5104484558105" lon="2.74918508529663">
			<ele>59.7000007629395</ele>
			<time>2014-01-02T10:07:28Z</time>
		</trkpt>
		<trkpt lat="39.5103797912598" lon="2.74922227859497">
			<ele>59.5999984741211</ele>
			<time>2014-01-02T10:07:30Z</time>
		</trkpt>
		<trkpt lat="39.5103073120117" lon="2.74925804138184">
			<ele>59.5999984741211</ele>
			<time>2014-01-02T10:07:32Z</time>
		</trkpt>
		<trkpt lat="39.5102424621582" lon="2.74929547309875">
			<ele>59.7000007629395</ele>
			<time>2014-01-02T10:07:34Z</time>
		</trkpt>
		<trkpt lat="39.5101737976074" lon="2.74933457374573">
			<ele>59.7000007629395</ele>
			<time>2014-01-02T10:07:36Z</time>
		</trkpt>
		<trkpt lat="39.5101051330566" lon="2.74937295913696">
			<ele>59.5999984741211</ele>
			<time>2014-01-02T10:07:38Z</time>
		</trkpt>
		<trkpt lat="39.5100364685059" lon="2.74940943717957">
			<ele>59.7000007629395</ele>
			<time>2014-01-02T10:07:40Z</time>
		</trkpt>
		<trkpt lat="39.5099678039551" lon="2.74944615364075">
			<ele>59.7999992370605</ele>
			<time>2014-01-02T10:07:42Z</time>
		</trkpt>
		<trkpt lat="39.5098991394043" lon="2.7494900226593">
			<ele>59.7000007629395</ele>
			<time>2014-01-02T10:07:44Z</time>
		</trkpt>
		<trkpt lat="39.5098266601563" lon="2.74952816963196">
			<ele>59.7000007629395</ele>
			<time>2014-01-02T10:07:46Z</time>
		</trkpt>
		<trkpt lat="39.5097579956055" lon="2.74956727027893">
			<ele>59.9000015258789</ele>
			<time>2014-01-02T10:07:48Z</time>
		</trkpt>
		<trkpt lat="39.509693145752" lon="2.74960851669312">
			<ele>59.7999992370605</ele>
			<time>2014-01-02T10:07:50Z</time>
		</trkpt>
		<trkpt lat="39.5096244812012" lon="2.74964427947998">
			<ele>59.7999992370605</ele>
			<time>2014-01-02T10:07:52Z</time>
		</trkpt>
		<trkpt lat="39.5095558166504" lon="2.74967932701111">
			<ele>59.5999984741211</ele>
			<time>2014-01-02T10:07:54Z</time>
		</trkpt>
		<trkpt lat="39.5094909667969" lon="2.74971652030945">
			<ele>59.5</ele>
			<time>2014-01-02T10:07:56Z</time>
		</trkpt>
		<trkpt lat="39.5094223022461" lon="2.74975252151489">
			<ele>59.5</ele>
			<time>2014-01-02T10:07:58Z</time>
		</trkpt>
		<trkpt lat="39.5093536376953" lon="2.74979090690613">
			<ele>59.2999992370605</ele>
			<time>2014-01-02T10:08:00Z</time>
		</trkpt>
		<trkpt lat="39.5092887878418" lon="2.74983191490173">
			<ele>59.2999992370605</ele>
			<time>2014-01-02T10:08:02Z</time>
		</trkpt>
		<trkpt lat="39.5092239379883" lon="2.74987697601318">
			<ele>59</ele>
			<time>2014-01-02T10:08:04Z</time>
		</trkpt>
		<trkpt lat="39.5091552734375" lon="2.74992108345032">
			<ele>58.7999992370605</ele>
			<time>2014-01-02T10:08:06Z</time>
		</trkpt>
		<trkpt lat="39.5090866088867" lon="2.74995899200439">
			<ele>58.2999992370605</ele>
			<time>2014-01-02T10:08:08Z</time>
		</trkpt>
		<trkpt lat="39.5090179443359" lon="2.74999213218689">
			<ele>58.2999992370605</ele>
			<time>2014-01-02T10:08:10Z</time>
		</trkpt>
		<trkpt lat="39.5089454650879" lon="2.75002789497375">
			<ele>58.2999992370605</ele>
			<time>2014-01-02T10:08:12Z</time>
		</trkpt>
		<trkpt lat="39.5088806152344" lon="2.75006699562073">
			<ele>58.2000007629395</ele>
			<time>2014-01-02T10:08:14Z</time>
		</trkpt>
		<trkpt lat="39.5088119506836" lon="2.75010681152344">
			<ele>58.2999992370605</ele>
			<time>2014-01-02T10:08:16Z</time>
		</trkpt>
		<trkpt lat="39.5087432861328" lon="2.75014233589172">
			<ele>58.4000015258789</ele>
			<time>2014-01-02T10:08:18Z</time>
		</trkpt>
		<trkpt lat="39.508674621582" lon="2.75017929077148">
			<ele>58.2999992370605</ele>
			<time>2014-01-02T10:08:20Z</time>
		</trkpt>
		<trkpt lat="39.5086097717285" lon="2.7502179145813">
			<ele>58.2999992370605</ele>
			<time>2014-01-02T10:08:22Z</time>
		</trkpt>
		<trkpt lat="39.508544921875" lon="2.75025606155396">
			<ele>58.2999992370605</ele>
			<time>2014-01-02T10:08:24Z</time>
		</trkpt>
		<trkpt lat="39.5084800720215" lon="2.75029468536377">
			<ele>58.0999984741211</ele>
			<time>2014-01-02T10:08:26Z</time>
		</trkpt>
		<trkpt lat="39.5084114074707" lon="2.75033450126648">
			<ele>58.0999984741211</ele>
			<time>2014-01-02T10:08:28Z</time>
		</trkpt>
		<trkpt lat="39.5083465576172" lon="2.75037312507629">
			<ele>58.0999984741211</ele>
			<time>2014-01-02T10:08:30Z</time>
		</trkpt>
		<trkpt lat="39.5082740783691" lon="2.75040602684021">
			<ele>58.2000007629395</ele>
			<time>2014-01-02T10:08:32Z</time>
		</trkpt>
		<trkpt lat="39.5082054138184" lon="2.75044226646423">
			<ele>58.2000007629395</ele>
			<time>2014-01-02T10:08:34Z</time>
		</trkpt>
		<trkpt lat="39.5081367492676" lon="2.75047945976257">
			<ele>57.9000015258789</ele>
			<time>2014-01-02T10:08:36Z</time>
		</trkpt>
		<trkpt lat="39.5080680847168" lon="2.75051283836365">
			<ele>58.2000007629395</ele>
			<time>2014-01-02T10:08:38Z</time>
		</trkpt>
		<trkpt lat="39.5080032348633" lon="2.75054597854614">
			<ele>58.2999992370605</ele>
			<time>2014-01-02T10:08:40Z</time>
		</trkpt>
		<trkpt lat="39.5079383850098" lon="2.75058388710022">
			<ele>58.5</ele>
			<time>2014-01-02T10:08:42Z</time>
		</trkpt>
		<trkpt lat="39.5078773498535" lon="2.75062203407288">
			<ele>58.5</ele>
			<time>2014-01-02T10:08:44Z</time>
		</trkpt>
		<trkpt lat="39.5078125" lon="2.75065803527832">
			<ele>58.4000015258789</ele>
			<time>2014-01-02T10:08:46Z</time>
		</trkpt>
		<trkpt lat="39.5077514648438" lon="2.75070071220398">
			<ele>58.2000007629395</ele>
			<time>2014-01-02T10:08:48Z</time>
		</trkpt>
		<trkpt lat="39.5076904296875" lon="2.7507426738739">
			<ele>57.9000015258789</ele>
			<time>2014-01-02T10:08:50Z</time>
		</trkpt>
		<trkpt lat="39.5076293945313" lon="2.75078344345093">
			<ele>57.9000015258789</ele>
			<time>2014-01-02T10:08:52Z</time>
		</trkpt>
		<trkpt lat="39.5075645446777" lon="2.75081944465637">
			<ele>57.7999992370605</ele>
			<time>2014-01-02T10:08:54Z</time>
		</trkpt>
		<trkpt lat="39.5075035095215" lon="2.75085544586182">
			<ele>57.7000007629395</ele>
			<time>2014-01-02T10:08:56Z</time>
		</trkpt>
		<trkpt lat="39.5074424743652" lon="2.75089168548584">
			<ele>57.9000015258789</ele>
			<time>2014-01-02T10:08:58Z</time>
		</trkpt>
		<trkpt lat="39.5073738098145" lon="2.75092577934265">
			<ele>58.0999984741211</ele>
			<time>2014-01-02T10:09:00Z</time>
		</trkpt>
		<trkpt lat="39.5073051452637" lon="2.75095438957214">
			<ele>58.2000007629395</ele>
			<time>2014-01-02T10:09:02Z</time>
		</trkpt>
		<trkpt lat="39.5072402954102" lon="2.75098919868469">
			<ele>58</ele>
			<time>2014-01-02T10:09:04Z</time>
		</trkpt>
		<trkpt lat="39.5071754455566" lon="2.75102591514587">
			<ele>57.9000015258789</ele>
			<time>2014-01-02T10:09:06Z</time>
		</trkpt>
		<trkpt lat="39.5071067810059" lon="2.75106000900269">
			<ele>57.7000007629395</ele>
			<time>2014-01-02T10:09:08Z</time>
		</trkpt>
		<trkpt lat="39.5070419311523" lon="2.75109577178955">
			<ele>57.7000007629395</ele>
			<time>2014-01-02T10:09:10Z</time>
		</trkpt>
		<trkpt lat="39.5069732666016" lon="2.7511293888092">
			<ele>57.5</ele>
			<time>2014-01-02T10:09:12Z</time>
		</trkpt>
		<trkpt lat="39.506908416748" lon="2.75116491317749">
			<ele>57.4000015258789</ele>
			<time>2014-01-02T10:09:14Z</time>
		</trkpt>
		<trkpt lat="39.5068397521973" lon="2.75120377540588">
			<ele>57.5</ele>
			<time>2014-01-02T10:09:16Z</time>
		</trkpt>
		<trkpt lat="39.5067710876465" lon="2.75124025344849">
			<ele>57.2000007629395</ele>
			<time>2014-01-02T10:09:18Z</time>
		</trkpt>
		<trkpt lat="39.5066986083984" lon="2.75127673149109">
			<ele>57.0999984741211</ele>
			<time>2014-01-02T10:09:20Z</time>
		</trkpt>
		<trkpt lat="39.5066299438477" lon="2.75131058692932">
			<ele>56.7999992370605</ele>
			<time>2014-01-02T10:09:22Z</time>
		</trkpt>
		<trkpt lat="39.5065574645996" lon="2.75133752822876">
			<ele>56.7000007629395</ele>
			<time>2014-01-02T10:09:24Z</time>
		</trkpt>
		<trkpt lat="39.5064888000488" lon="2.75136232376099">
			<ele>56.5999984741211</ele>
			<time>2014-01-02T10:09:26Z</time>
		</trkpt>
		<trkpt lat="39.5064239501953" lon="2.75139307975769">
			<ele>56.7000007629395</ele>
			<time>2014-01-02T10:09:28Z</time>
		</trkpt>
		<trkpt lat="39.5063552856445" lon="2.75142312049866">
			<ele>56.5</ele>
			<time>2014-01-02T10:09:30Z</time>
		</trkpt>
		<trkpt lat="39.5062828063965" lon="2.75145125389099">
			<ele>56.5999984741211</ele>
			<time>2014-01-02T10:09:32Z</time>
		</trkpt>
		<trkpt lat="39.5062141418457" lon="2.7514762878418">
			<ele>56.5999984741211</ele>
			<time>2014-01-02T10:09:34Z</time>
		</trkpt>
		<trkpt lat="39.5061454772949" lon="2.75150275230408">
			<ele>56.4000015258789</ele>
			<time>2014-01-02T10:09:36Z</time>
		</trkpt>
		<trkpt lat="39.5060768127441" lon="2.75152802467346">
			<ele>56.5999984741211</ele>
			<time>2014-01-02T10:09:38Z</time>
		</trkpt>
		<trkpt lat="39.5060119628906" lon="2.75155425071716">
			<ele>56.5</ele>
			<time>2014-01-02T10:09:40Z</time>
		</trkpt>
		<trkpt lat="39.5059432983398" lon="2.75157856941223">
			<ele>56.5</ele>
			<time>2014-01-02T10:09:42Z</time>
		</trkpt>
		<trkpt lat="39.5058784484863" lon="2.75160837173462">
			<ele>56.2999992370605</ele>
			<time>2014-01-02T10:09:44Z</time>
		</trkpt>
		<trkpt lat="39.5058097839355" lon="2.75163793563843">
			<ele>56.2000007629395</ele>
			<time>2014-01-02T10:09:46Z</time>
		</trkpt>
		<trkpt lat="39.5057411193848" lon="2.75166273117065">
			<ele>56.0999984741211</ele>
			<time>2014-01-02T10:09:48Z</time>
		</trkpt>
		<trkpt lat="39.5056648254395" lon="2.75166082382202">
			<ele>56.2000007629395</ele>
			<time>2014-01-02T10:09:50Z</time>
		</trkpt>
		<trkpt lat="39.5055885314941" lon="2.75166511535645">
			<ele>56.4000015258789</ele>
			<time>2014-01-02T10:09:52Z</time>
		</trkpt>
		<trkpt lat="39.5055122375488" lon="2.75167202949524">
			<ele>56.5999984741211</ele>
			<time>2014-01-02T10:09:54Z</time>
		</trkpt>
		<trkpt lat="39.5054359436035" lon="2.75167155265808">
			<ele>57</ele>
			<time>2014-01-02T10:09:56Z</time>
		</trkpt>
		<trkpt lat="39.5053596496582" lon="2.75167393684387">
			<ele>57.4000015258789</ele>
			<time>2014-01-02T10:09:58Z</time>
		</trkpt>
		<trkpt lat="39.5052795410156" lon="2.75167608261108">
			<ele>58.2999992370605</ele>
			<time>2014-01-02T10:10:00Z</time>
		</trkpt>
		<trkpt lat="39.5052070617676" lon="2.75168037414551">
			<ele>58.2999992370605</ele>
			<time>2014-01-02T10:10:02Z</time>
		</trkpt>
		<trkpt lat="39.5051383972168" lon="2.75168371200562">
			<ele>58.4000015258789</ele>
			<time>2014-01-02T10:10:04Z</time>
		</trkpt>
		<trkpt lat="39.5050659179688" lon="2.75168657302856">
			<ele>58.0999984741211</ele>
			<time>2014-01-02T10:10:06Z</time>
		</trkpt>
		<trkpt lat="39.5049934387207" lon="2.75169444084167">
			<ele>58</ele>
			<time>2014-01-02T10:10:08Z</time>
		</trkpt>
		<trkpt lat="39.5049247741699" lon="2.75170636177063">
			<ele>57.2000007629395</ele>
			<time>2014-01-02T10:10:10Z</time>
		</trkpt>
		<trkpt lat="39.5048484802246" lon="2.75170135498047">
			<ele>57.4000015258789</ele>
			<time>2014-01-02T10:10:12Z</time>
		</trkpt>
		<trkpt lat="39.5047760009766" lon="2.75170350074768">
			<ele>57.4000015258789</ele>
			<time>2014-01-02T10:10:14Z</time>
		</trkpt>
		<trkpt lat="39.5046997070313" lon="2.75170826911926">
			<ele>57.5999984741211</ele>
			<time>2014-01-02T10:10:16Z</time>
		</trkpt>
		<trkpt lat="39.5046234130859" lon="2.75171232223511">
			<ele>57.5</ele>
			<time>2014-01-02T10:10:18Z</time>
		</trkpt>
		<trkpt lat="39.5045509338379" lon="2.751713514328">
			<ele>57.7999992370605</ele>
			<time>2014-01-02T10:10:20Z</time>
		</trkpt>
		<trkpt lat="39.5044746398926" lon="2.75171375274658">
			<ele>58</ele>
			<time>2014-01-02T10:10:22Z</time>
		</trkpt>
		<trkpt lat="39.5043983459473" lon="2.7517204284668">
			<ele>57.9000015258789</ele>
			<time>2014-01-02T10:10:24Z</time>
		</trkpt>
		<trkpt lat="39.504322052002" lon="2.75172758102417">
			<ele>58</ele>
			<time>2014-01-02T10:10:26Z</time>
		</trkpt>
		<trkpt lat="39.5042457580566" lon="2.75173044204712">
			<ele>58.0999984741211</ele>
			<time>2014-01-02T10:10:28Z</time>
		</trkpt>
		<trkpt lat="39.5041694641113" lon="2.75173616409302">
			<ele>57.5</ele>
			<time>2014-01-02T10:10:30Z</time>
		</trkpt>
		<trkpt lat="39.5040969848633" lon="2.75172710418701">
			<ele>57.2999992370605</ele>
			<time>2014-01-02T10:10:32Z</time>
		</trkpt>
		<trkpt lat="39.5040245056152" lon="2.7517364025116">
			<ele>56.9000015258789</ele>
			<time>2014-01-02T10:10:34Z</time>
		</trkpt>
		<trkpt lat="39.5039520263672" lon="2.7517454624176">
			<ele>56.5</ele>
			<time>2014-01-02T10:10:36Z</time>
		</trkpt>
		<trkpt lat="39.5038833618164" lon="2.7517352104187">
			<ele>56.7000007629395</ele>
			<time>2014-01-02T10:10:38Z</time>
		</trkpt>
		<trkpt lat="39.5038108825684" lon="2.7517306804657">
			<ele>56.5999984741211</ele>
			<time>2014-01-02T10:10:40Z</time>
		</trkpt>
		<trkpt lat="39.5037422180176" lon="2.75173306465149">
			<ele>56.5999984741211</ele>
			<time>2014-01-02T10:10:42Z</time>
		</trkpt>
		<trkpt lat="39.5036697387695" lon="2.75173687934875">
			<ele>56.7000007629395</ele>
			<time>2014-01-02T10:10:44Z</time>
		</trkpt>
		<trkpt lat="39.5035972595215" lon="2.75172710418701">
			<ele>57.0999984741211</ele>
			<time>2014-01-02T10:10:46Z</time>
		</trkpt>
		<trkpt lat="39.5035133361816" lon="2.75171589851379">
			<ele>57.5999984741211</ele>
			<time>2014-01-02T10:10:48Z</time>
		</trkpt>
		<trkpt lat="39.5034370422363" lon="2.7516975402832">
			<ele>58.5999984741211</ele>
			<time>2014-01-02T10:10:50Z</time>
		</trkpt>
		<trkpt lat="39.5033493041992" lon="2.75166058540344">
			<ele>60</ele>
			<time>2014-01-02T10:10:52Z</time>
		</trkpt>
		<trkpt lat="39.503288269043" lon="2.7516622543335">
			<ele>59.5999984741211</ele>
			<time>2014-01-02T10:10:54Z</time>
		</trkpt>
		<trkpt lat="39.5032196044922" lon="2.75164151191711">
			<ele>59.9000015258789</ele>
			<time>2014-01-02T10:10:56Z</time>
		</trkpt>
		<trkpt lat="39.5031394958496" lon="2.75162577629089">
			<ele>60.5</ele>
			<time>2014-01-02T10:10:58Z</time>
		</trkpt>
		<trkpt lat="39.5030670166016" lon="2.75162625312805">
			<ele>59.9000015258789</ele>
			<time>2014-01-02T10:11:00Z</time>
		</trkpt>
		<trkpt lat="39.5029907226563" lon="2.75161337852478">
			<ele>60.7000007629395</ele>
			<time>2014-01-02T10:11:02Z</time>
		</trkpt>
		<trkpt lat="39.5029067993164" lon="2.75159120559692">
			<ele>61.0999984741211</ele>
			<time>2014-01-02T10:11:04Z</time>
		</trkpt>
		<trkpt lat="39.5028266906738" lon="2.75156450271606">
			<ele>62.0999984741211</ele>
			<time>2014-01-02T10:11:06Z</time>
		</trkpt>
		<trkpt lat="39.5027732849121" lon="2.7515697479248">
			<ele>61.2999992370605</ele>
			<time>2014-01-02T10:11:08Z</time>
		</trkpt>
		<trkpt lat="39.5026779174805" lon="2.75157642364502">
			<ele>60.4000015258789</ele>
			<time>2014-01-02T10:11:12Z</time>
		</trkpt>
		<trkpt lat="39.502613067627" lon="2.75155806541443">
			<ele>59.0999984741211</ele>
			<time>2014-01-02T10:11:13Z</time>
		</trkpt>
		<trkpt lat="39.5025291442871" lon="2.75155115127563">
			<ele>58.4000015258789</ele>
			<time>2014-01-02T10:11:15Z</time>
		</trkpt>
		<trkpt lat="39.5024452209473" lon="2.75152683258057">
			<ele>57.0999984741211</ele>
			<time>2014-01-02T10:11:17Z</time>
		</trkpt>
		<trkpt lat="39.5023803710938" lon="2.75148987770081">
			<ele>56.5</ele>
			<time>2014-01-02T10:11:19Z</time>
		</trkpt>
		<trkpt lat="39.502326965332" lon="2.75146675109863">
			<ele>55.9000015258789</ele>
			<time>2014-01-02T10:11:21Z</time>
		</trkpt>
		<trkpt lat="39.5022773742676" lon="2.75145077705383">
			<ele>56.7000007629395</ele>
			<time>2014-01-02T10:11:23Z</time>
		</trkpt>
		<trkpt lat="39.5022239685059" lon="2.75144696235657">
			<ele>56.2000007629395</ele>
			<time>2014-01-02T10:11:25Z</time>
		</trkpt>
		<trkpt lat="39.5021820068359" lon="2.75142168998718">
			<ele>55.7999992370605</ele>
			<time>2014-01-02T10:11:28Z</time>
		</trkpt>
		<trkpt lat="39.5021209716797" lon="2.75139594078064">
			<ele>55.5999984741211</ele>
			<time>2014-01-02T10:11:30Z</time>
		</trkpt>
		<trkpt lat="39.5020751953125" lon="2.75136232376099">
			<ele>56.4000015258789</ele>
			<time>2014-01-02T10:11:31Z</time>
		</trkpt>
		<trkpt lat="39.502010345459" lon="2.75135707855225">
			<ele>56.5</ele>
			<time>2014-01-02T10:11:33Z</time>
		</trkpt>
		<trkpt lat="39.5019493103027" lon="2.75134134292603">
			<ele>56.9000015258789</ele>
			<time>2014-01-02T10:11:34Z</time>
		</trkpt>
		<trkpt lat="39.5018768310547" lon="2.75132703781128">
			<ele>55.9000015258789</ele>
			<time>2014-01-02T10:11:36Z</time>
		</trkpt>
		<trkpt lat="39.5018119812012" lon="2.75131773948669">
			<ele>54.7999992370605</ele>
			<time>2014-01-02T10:11:38Z</time>
		</trkpt>
		<trkpt lat="39.5017471313477" lon="2.751300573349">
			<ele>54.7000007629395</ele>
			<time>2014-01-02T10:11:40Z</time>
		</trkpt>
		<trkpt lat="39.5016975402832" lon="2.75126171112061">
			<ele>54.9000015258789</ele>
			<time>2014-01-02T10:11:41Z</time>
		</trkpt>
		<trkpt lat="39.5016326904297" lon="2.75122976303101">
			<ele>54.7000007629395</ele>
			<time>2014-01-02T10:11:43Z</time>
		</trkpt>
		<trkpt lat="39.5015525817871" lon="2.75121545791626">
			<ele>54.5</ele>
			<time>2014-01-02T10:11:45Z</time>
		</trkpt>
		<trkpt lat="39.50146484375" lon="2.75117826461792">
			<ele>55</ele>
			<time>2014-01-02T10:11:47Z</time>
		</trkpt>
		<trkpt lat="39.5014152526855" lon="2.75115752220154">
			<ele>55.0999984741211</ele>
			<time>2014-01-02T10:11:48Z</time>
		</trkpt>
		<trkpt lat="39.5013656616211" lon="2.75114464759827">
			<ele>54.5999984741211</ele>
			<time>2014-01-02T10:11:50Z</time>
		</trkpt>
		<trkpt lat="39.5012893676758" lon="2.75109839439392">
			<ele>55.5999984741211</ele>
			<time>2014-01-02T10:11:52Z</time>
		</trkpt>
		<trkpt lat="39.5012092590332" lon="2.75106549263">
			<ele>56</ele>
			<time>2014-01-02T10:11:54Z</time>
		</trkpt>
		<trkpt lat="39.501148223877" lon="2.75105500221252">
			<ele>55.5</ele>
			<time>2014-01-02T10:11:56Z</time>
		</trkpt>
		<trkpt lat="39.5010643005371" lon="2.75104284286499">
			<ele>55.2000007629395</ele>
			<time>2014-01-02T10:11:58Z</time>
		</trkpt>
		<trkpt lat="39.5009880065918" lon="2.75103235244751">
			<ele>54.5999984741211</ele>
			<time>2014-01-02T10:12:00Z</time>
		</trkpt>
		<trkpt lat="39.5009231567383" lon="2.75101566314697">
			<ele>54</ele>
			<time>2014-01-02T10:12:02Z</time>
		</trkpt>
		<trkpt lat="39.5008544921875" lon="2.75098490715027">
			<ele>53.0999984741211</ele>
			<time>2014-01-02T10:12:04Z</time>
		</trkpt>
		<trkpt lat="39.500789642334" lon="2.75094795227051">
			<ele>53.5</ele>
			<time>2014-01-02T10:12:06Z</time>
		</trkpt>
		<trkpt lat="39.5007019042969" lon="2.75092244148254">
			<ele>53.7999992370605</ele>
			<time>2014-01-02T10:12:08Z</time>
		</trkpt>
		<trkpt lat="39.5006523132324" lon="2.750901222229">
			<ele>55.7000007629395</ele>
			<time>2014-01-02T10:12:09Z</time>
		</trkpt>
		<trkpt lat="39.5005760192871" lon="2.75087857246399">
			<ele>55.7999992370605</ele>
			<time>2014-01-02T10:12:11Z</time>
		</trkpt>
		<trkpt lat="39.5005111694336" lon="2.75085806846619">
			<ele>56.7000007629395</ele>
			<time>2014-01-02T10:12:13Z</time>
		</trkpt>
		<trkpt lat="39.5004272460938" lon="2.75082969665527">
			<ele>56.5999984741211</ele>
			<time>2014-01-02T10:12:15Z</time>
		</trkpt>
		<trkpt lat="39.5003700256348" lon="2.75083017349243">
			<ele>55.7999992370605</ele>
			<time>2014-01-02T10:12:17Z</time>
		</trkpt>
		<trkpt lat="39.5002861022949" lon="2.75083923339844">
			<ele>56.4000015258789</ele>
			<time>2014-01-02T10:12:19Z</time>
		</trkpt>
		<trkpt lat="39.5002288818359" lon="2.75087451934814">
			<ele>56.4000015258789</ele>
			<time>2014-01-02T10:12:21Z</time>
		</trkpt>
		<trkpt lat="39.5001640319824" lon="2.75091171264648">
			<ele>56.5999984741211</ele>
			<time>2014-01-02T10:12:23Z</time>
		</trkpt>
		<trkpt lat="39.5001029968262" lon="2.75095057487488">
			<ele>56.9000015258789</ele>
			<time>2014-01-02T10:12:25Z</time>
		</trkpt>
		<trkpt lat="39.5000457763672" lon="2.75099301338196">
			<ele>57.5</ele>
			<time>2014-01-02T10:12:27Z</time>
		</trkpt>
		<trkpt lat="39.4999809265137" lon="2.75103211402893">
			<ele>57.9000015258789</ele>
			<time>2014-01-02T10:12:29Z</time>
		</trkpt>
		<trkpt lat="39.4999160766602" lon="2.75106644630432">
			<ele>58.4000015258789</ele>
			<time>2014-01-02T10:12:31Z</time>
		</trkpt>
		<trkpt lat="39.4998512268066" lon="2.7511031627655">
			<ele>58.5</ele>
			<time>2014-01-02T10:12:33Z</time>
		</trkpt>
		<trkpt lat="39.4997901916504" lon="2.75113892555237">
			<ele>59</ele>
			<time>2014-01-02T10:12:35Z</time>
		</trkpt>
		<trkpt lat="39.4997291564941" lon="2.75117874145508">
			<ele>59.4000015258789</ele>
			<time>2014-01-02T10:12:37Z</time>
		</trkpt>
		<trkpt lat="39.4996566772461" lon="2.75120639801025">
			<ele>59.2000007629395</ele>
			<time>2014-01-02T10:12:39Z</time>
		</trkpt>
		<trkpt lat="39.499584197998" lon="2.75123405456543">
			<ele>59.5</ele>
			<time>2014-01-02T10:12:41Z</time>
		</trkpt>
		<trkpt lat="39.4995346069336" lon="2.75123429298401">
			<ele>59.7000007629395</ele>
			<time>2014-01-02T10:12:42Z</time>
		</trkpt>
		<trkpt lat="39.4994506835938" lon="2.75125336647034">
			<ele>59.4000015258789</ele>
			<time>2014-01-02T10:12:44Z</time>
		</trkpt>
		<trkpt lat="39.4993705749512" lon="2.75126886367798">
			<ele>59.2999992370605</ele>
			<time>2014-01-02T10:12:46Z</time>
		</trkpt>
		<trkpt lat="39.4992904663086" lon="2.7512834072113">
			<ele>59</ele>
			<time>2014-01-02T10:12:48Z</time>
		</trkpt>
		<trkpt lat="39.4992179870605" lon="2.75131440162659">
			<ele>59.2000007629395</ele>
			<time>2014-01-02T10:12:50Z</time>
		</trkpt>
		<trkpt lat="39.4991455078125" lon="2.75134968757629">
			<ele>59.5</ele>
			<time>2014-01-02T10:12:52Z</time>
		</trkpt>
		<trkpt lat="39.4990768432617" lon="2.75138688087463">
			<ele>59.5999984741211</ele>
			<time>2014-01-02T10:12:54Z</time>
		</trkpt>
		<trkpt lat="39.4990158081055" lon="2.75142598152161">
			<ele>60.0999984741211</ele>
			<time>2014-01-02T10:12:56Z</time>
		</trkpt>
		<trkpt lat="39.4989547729492" lon="2.75146269798279">
			<ele>60.5</ele>
			<time>2014-01-02T10:12:58Z</time>
		</trkpt>
		<trkpt lat="39.4989013671875" lon="2.75150465965271">
			<ele>60.9000015258789</ele>
			<time>2014-01-02T10:13:00Z</time>
		</trkpt>
		<trkpt lat="39.4988403320313" lon="2.75152564048767">
			<ele>63.2000007629395</ele>
			<time>2014-01-02T10:13:02Z</time>
		</trkpt>
		<trkpt lat="39.4987869262695" lon="2.75156474113464">
			<ele>62.9000015258789</ele>
			<time>2014-01-02T10:13:04Z</time>
		</trkpt>
		<trkpt lat="39.4987297058105" lon="2.75160002708435">
			<ele>63.7999992370605</ele>
			<time>2014-01-02T10:13:06Z</time>
		</trkpt>
		<trkpt lat="39.4986801147461" lon="2.75163531303406">
			<ele>63.4000015258789</ele>
			<time>2014-01-02T10:13:08Z</time>
		</trkpt>
		<trkpt lat="39.4986267089844" lon="2.75166845321655">
			<ele>63.5</ele>
			<time>2014-01-02T10:13:10Z</time>
		</trkpt>
		<trkpt lat="39.4985694885254" lon="2.75169634819031">
			<ele>64</ele>
			<time>2014-01-02T10:13:12Z</time>
		</trkpt>
		<trkpt lat="39.4985122680664" lon="2.75171995162964">
			<ele>64</ele>
			<time>2014-01-02T10:13:14Z</time>
		</trkpt>
		<trkpt lat="39.498462677002" lon="2.75174641609192">
			<ele>63.7999992370605</ele>
			<time>2014-01-02T10:13:16Z</time>
		</trkpt>
		<trkpt lat="39.498405456543" lon="2.75176072120667">
			<ele>64.0999984741211</ele>
			<time>2014-01-02T10:13:18Z</time>
		</trkpt>
		<trkpt lat="39.4983520507813" lon="2.75176954269409">
			<ele>64.0999984741211</ele>
			<time>2014-01-02T10:13:20Z</time>
		</trkpt>
		<trkpt lat="39.4983024597168" lon="2.75179433822632">
			<ele>63.5</ele>
			<time>2014-01-02T10:13:22Z</time>
		</trkpt>
		<trkpt lat="39.4982452392578" lon="2.75181412696838">
			<ele>63.0999984741211</ele>
			<time>2014-01-02T10:13:24Z</time>
		</trkpt>
		<trkpt lat="39.4981842041016" lon="2.75180554389954">
			<ele>63.4000015258789</ele>
			<time>2014-01-02T10:13:26Z</time>
		</trkpt>
		<trkpt lat="39.4981231689453" lon="2.75179696083069">
			<ele>64</ele>
			<time>2014-01-02T10:13:28Z</time>
		</trkpt>
		<trkpt lat="39.4980621337891" lon="2.75178027153015">
			<ele>64.0999984741211</ele>
			<time>2014-01-02T10:13:30Z</time>
		</trkpt>
		<trkpt lat="39.4980010986328" lon="2.75175738334656">
			<ele>64.1999969482422</ele>
			<time>2014-01-02T10:13:32Z</time>
		</trkpt>
		<trkpt lat="39.4979400634766" lon="2.75173473358154">
			<ele>64</ele>
			<time>2014-01-02T10:13:34Z</time>
		</trkpt>
		<trkpt lat="39.4978790283203" lon="2.75169467926025">
			<ele>64.5999984741211</ele>
			<time>2014-01-02T10:13:36Z</time>
		</trkpt>
		<trkpt lat="39.4978256225586" lon="2.75166392326355">
			<ele>64.5</ele>
			<time>2014-01-02T10:13:38Z</time>
		</trkpt>
		<trkpt lat="39.4977722167969" lon="2.75163698196411">
			<ele>65.0999984741211</ele>
			<time>2014-01-02T10:13:40Z</time>
		</trkpt>
		<trkpt lat="39.4977226257324" lon="2.75160980224609">
			<ele>66.4000015258789</ele>
			<time>2014-01-02T10:13:42Z</time>
		</trkpt>
		<trkpt lat="39.4976768493652" lon="2.75156950950623">
			<ele>67.0999984741211</ele>
			<time>2014-01-02T10:13:44Z</time>
		</trkpt>
		<trkpt lat="39.4976387023926" lon="2.75152730941772">
			<ele>67.4000015258789</ele>
			<time>2014-01-02T10:13:46Z</time>
		</trkpt>
		<trkpt lat="39.4975891113281" lon="2.75147104263306">
			<ele>67.8000030517578</ele>
			<time>2014-01-02T10:13:48Z</time>
		</trkpt>
		<trkpt lat="39.4975242614746" lon="2.7514009475708">
			<ele>68.4000015258789</ele>
			<time>2014-01-02T10:13:50Z</time>
		</trkpt>
		<trkpt lat="39.4974937438965" lon="2.75135016441345">
			<ele>69</ele>
			<time>2014-01-02T10:13:52Z</time>
		</trkpt>
		<trkpt lat="39.4974555969238" lon="2.7512743473053">
			<ele>68.3000030517578</ele>
			<time>2014-01-02T10:13:55Z</time>
		</trkpt>
		<trkpt lat="39.4974060058594" lon="2.75124216079712">
			<ele>68.8000030517578</ele>
			<time>2014-01-02T10:13:57Z</time>
		</trkpt>
		<trkpt lat="39.497371673584" lon="2.75118231773376">
			<ele>68.5</ele>
			<time>2014-01-02T10:13:59Z</time>
		</trkpt>
		<trkpt lat="39.497371673584" lon="2.75110340118408">
			<ele>68.5</ele>
			<time>2014-01-02T10:14:01Z</time>
		</trkpt>
		<trkpt lat="39.497371673584" lon="2.75102472305298">
			<ele>68.5</ele>
			<time>2014-01-02T10:14:04Z</time>
		</trkpt>
		<trkpt lat="39.4973373413086" lon="2.75095367431641">
			<ele>70.3000030517578</ele>
			<time>2014-01-02T10:14:06Z</time>
		</trkpt>
		<trkpt lat="39.497314453125" lon="2.75089287757874">
			<ele>71.8000030517578</ele>
			<time>2014-01-02T10:14:08Z</time>
		</trkpt>
		<trkpt lat="39.4972991943359" lon="2.75082182884216">
			<ele>72.5999984741211</ele>
			<time>2014-01-02T10:14:10Z</time>
		</trkpt>
		<trkpt lat="39.4972877502441" lon="2.75075030326843">
			<ele>72.0999984741211</ele>
			<time>2014-01-02T10:14:12Z</time>
		</trkpt>
		<trkpt lat="39.4972839355469" lon="2.75067853927612">
			<ele>72.6999969482422</ele>
			<time>2014-01-02T10:14:14Z</time>
		</trkpt>
		<trkpt lat="39.4972724914551" lon="2.75059509277344">
			<ele>74.0999984741211</ele>
			<time>2014-01-02T10:14:16Z</time>
		</trkpt>
		<trkpt lat="39.497257232666" lon="2.75051403045654">
			<ele>75</ele>
			<time>2014-01-02T10:14:18Z</time>
		</trkpt>
		<trkpt lat="39.4972686767578" lon="2.75045418739319">
			<ele>74.4000015258789</ele>
			<time>2014-01-02T10:14:20Z</time>
		</trkpt>
		<trkpt lat="39.4972953796387" lon="2.75039982795715">
			<ele>74.4000015258789</ele>
			<time>2014-01-02T10:14:22Z</time>
		</trkpt>
		<trkpt lat="39.497314453125" lon="2.75033855438232">
			<ele>74.3000030517578</ele>
			<time>2014-01-02T10:14:24Z</time>
		</trkpt>
		<trkpt lat="39.4973258972168" lon="2.75027680397034">
			<ele>74.4000015258789</ele>
			<time>2014-01-02T10:14:26Z</time>
		</trkpt>
		<trkpt lat="39.4973449707031" lon="2.75021314620972">
			<ele>74.8000030517578</ele>
			<time>2014-01-02T10:14:28Z</time>
		</trkpt>
		<trkpt lat="39.4973564147949" lon="2.75014400482178">
			<ele>75.1999969482422</ele>
			<time>2014-01-02T10:14:30Z</time>
		</trkpt>
		<trkpt lat="39.4973640441895" lon="2.7500741481781">
			<ele>75</ele>
			<time>2014-01-02T10:14:32Z</time>
		</trkpt>
		<trkpt lat="39.497371673584" lon="2.75000047683716">
			<ele>75.1999969482422</ele>
			<time>2014-01-02T10:14:34Z</time>
		</trkpt>
		<trkpt lat="39.4973831176758" lon="2.74992442131042">
			<ele>74.6999969482422</ele>
			<time>2014-01-02T10:14:36Z</time>
		</trkpt>
		<trkpt lat="39.4973907470703" lon="2.74986577033997">
			<ele>74.8000030517578</ele>
			<time>2014-01-02T10:14:38Z</time>
		</trkpt>
		<trkpt lat="39.4973945617676" lon="2.74979567527771">
			<ele>74.9000015258789</ele>
			<time>2014-01-02T10:14:40Z</time>
		</trkpt>
		<trkpt lat="39.4973983764648" lon="2.74971699714661">
			<ele>74.8000030517578</ele>
			<time>2014-01-02T10:14:42Z</time>
		</trkpt>
		<trkpt lat="39.4974021911621" lon="2.74965262413025">
			<ele>73.1999969482422</ele>
			<time>2014-01-02T10:14:44Z</time>
		</trkpt>
		<trkpt lat="39.4974365234375" lon="2.74958515167236">
			<ele>72.9000015258789</ele>
			<time>2014-01-02T10:14:47Z</time>
		</trkpt>
		<trkpt lat="39.4973907470703" lon="2.74957728385925">
			<ele>75.1999969482422</ele>
			<time>2014-01-02T10:14:57Z</time>
		</trkpt>
		<trkpt lat="39.4973373413086" lon="2.74962377548218">
			<ele>75.0999984741211</ele>
			<time>2014-01-02T10:15:00Z</time>
		</trkpt>
		<trkpt lat="39.4972953796387" lon="2.7496542930603">
			<ele>75</ele>
			<time>2014-01-02T10:15:02Z</time>
		</trkpt>
		<trkpt lat="39.4972534179688" lon="2.74959754943848">
			<ele>75.6999969482422</ele>
			<time>2014-01-02T10:15:03Z</time>
		</trkpt>
		<trkpt lat="39.4971961975098" lon="2.74956440925598">
			<ele>75.0999984741211</ele>
			<time>2014-01-02T10:15:05Z</time>
		</trkpt>
		<trkpt lat="39.4971351623535" lon="2.74950051307678">
			<ele>74.5999984741211</ele>
			<time>2014-01-02T10:15:07Z</time>
		</trkpt>
		<trkpt lat="39.4970779418945" lon="2.74943280220032">
			<ele>74.1999969482422</ele>
			<time>2014-01-02T10:15:09Z</time>
		</trkpt>
		<trkpt lat="39.4970436096191" lon="2.74934911727905">
			<ele>70.5999984741211</ele>
			<time>2014-01-02T10:15:11Z</time>
		</trkpt>
		<trkpt lat="39.4969902038574" lon="2.74928379058838">
			<ele>70</ele>
			<time>2014-01-02T10:15:13Z</time>
		</trkpt>
		<trkpt lat="39.4969329833984" lon="2.74921011924744">
			<ele>69.9000015258789</ele>
			<time>2014-01-02T10:15:15Z</time>
		</trkpt>
		<trkpt lat="39.4968795776367" lon="2.74914407730103">
			<ele>69.6999969482422</ele>
			<time>2014-01-02T10:15:17Z</time>
		</trkpt>
		<trkpt lat="39.496826171875" lon="2.74909210205078">
			<ele>71.5</ele>
			<time>2014-01-02T10:15:19Z</time>
		</trkpt>
		<trkpt lat="39.496768951416" lon="2.74902653694153">
			<ele>71.4000015258789</ele>
			<time>2014-01-02T10:15:21Z</time>
		</trkpt>
		<trkpt lat="39.4967079162598" lon="2.74896931648254">
			<ele>70.6999969482422</ele>
			<time>2014-01-02T10:15:23Z</time>
		</trkpt>
		<trkpt lat="39.4966621398926" lon="2.74894070625305">
			<ele>70.8000030517578</ele>
			<time>2014-01-02T10:15:25Z</time>
		</trkpt>
		<trkpt lat="39.4965972900391" lon="2.74893188476563">
			<ele>70.9000015258789</ele>
			<time>2014-01-02T10:15:27Z</time>
		</trkpt>
		<trkpt lat="39.4965438842773" lon="2.74890971183777">
			<ele>71.4000015258789</ele>
			<time>2014-01-02T10:15:29Z</time>
		</trkpt>
		<trkpt lat="39.4964981079102" lon="2.74888634681702">
			<ele>71</ele>
			<time>2014-01-02T10:15:31Z</time>
		</trkpt>
		<trkpt lat="39.4964485168457" lon="2.74885845184326">
			<ele>71</ele>
			<time>2014-01-02T10:15:33Z</time>
		</trkpt>
		<trkpt lat="39.4963989257813" lon="2.74883151054382">
			<ele>71</ele>
			<time>2014-01-02T10:15:35Z</time>
		</trkpt>
		<trkpt lat="39.496337890625" lon="2.74879670143127">
			<ele>71.3000030517578</ele>
			<time>2014-01-02T10:15:37Z</time>
		</trkpt>
		<trkpt lat="39.4962768554688" lon="2.74876189231873">
			<ele>71.9000015258789</ele>
			<time>2014-01-02T10:15:39Z</time>
		</trkpt>
		<trkpt lat="39.4962158203125" lon="2.74871730804443">
			<ele>72.3000030517578</ele>
			<time>2014-01-02T10:15:41Z</time>
		</trkpt>
		<trkpt lat="39.496150970459" lon="2.74867367744446">
			<ele>72.3000030517578</ele>
			<time>2014-01-02T10:15:44Z</time>
		</trkpt>
		<trkpt lat="39.4960975646973" lon="2.74863576889038">
			<ele>72.8000030517578</ele>
			<time>2014-01-02T10:15:46Z</time>
		</trkpt>
		<trkpt lat="39.4960289001465" lon="2.74859356880188">
			<ele>72.5999984741211</ele>
			<time>2014-01-02T10:15:48Z</time>
		</trkpt>
		<trkpt lat="39.4959716796875" lon="2.74857258796692">
			<ele>72.9000015258789</ele>
			<time>2014-01-02T10:15:50Z</time>
		</trkpt>
		<trkpt lat="39.4959144592285" lon="2.74854803085327">
			<ele>73.5</ele>
			<time>2014-01-02T10:15:52Z</time>
		</trkpt>
		<trkpt lat="39.4958534240723" lon="2.74852466583252">
			<ele>73.5</ele>
			<time>2014-01-02T10:15:54Z</time>
		</trkpt>
		<trkpt lat="39.4957847595215" lon="2.74851155281067">
			<ele>74.4000015258789</ele>
			<time>2014-01-02T10:15:56Z</time>
		</trkpt>
		<trkpt lat="39.4957237243652" lon="2.74849390983582">
			<ele>74.4000015258789</ele>
			<time>2014-01-02T10:15:58Z</time>
		</trkpt>
		<trkpt lat="39.4956665039063" lon="2.74847841262817">
			<ele>74.6999969482422</ele>
			<time>2014-01-02T10:16:00Z</time>
		</trkpt>
		<trkpt lat="39.49560546875" lon="2.74845242500305">
			<ele>76.1999969482422</ele>
			<time>2014-01-02T10:16:02Z</time>
		</trkpt>
		<trkpt lat="39.4955520629883" lon="2.74844026565552">
			<ele>76.5999984741211</ele>
			<time>2014-01-02T10:16:04Z</time>
		</trkpt>
		<trkpt lat="39.4954948425293" lon="2.74843263626099">
			<ele>76.9000015258789</ele>
			<time>2014-01-02T10:16:06Z</time>
		</trkpt>
		<trkpt lat="39.4954376220703" lon="2.7484290599823">
			<ele>77.1999969482422</ele>
			<time>2014-01-02T10:16:08Z</time>
		</trkpt>
		<trkpt lat="39.4953765869141" lon="2.74841856956482">
			<ele>77.6999969482422</ele>
			<time>2014-01-02T10:16:10Z</time>
		</trkpt>
		<trkpt lat="39.4953231811523" lon="2.7483959197998">
			<ele>78</ele>
			<time>2014-01-02T10:16:12Z</time>
		</trkpt>
		<trkpt lat="39.4952659606934" lon="2.74838519096375">
			<ele>78.3000030517578</ele>
			<time>2014-01-02T10:16:14Z</time>
		</trkpt>
		<trkpt lat="39.4952087402344" lon="2.74837565422058">
			<ele>78.3000030517578</ele>
			<time>2014-01-02T10:16:16Z</time>
		</trkpt>
		<trkpt lat="39.4951591491699" lon="2.7483696937561">
			<ele>77.1999969482422</ele>
			<time>2014-01-02T10:16:18Z</time>
		</trkpt>
		<trkpt lat="39.4951019287109" lon="2.74836611747742">
			<ele>76.5999984741211</ele>
			<time>2014-01-02T10:16:20Z</time>
		</trkpt>
		<trkpt lat="39.4950370788574" lon="2.74834561347961">
			<ele>76.4000015258789</ele>
			<time>2014-01-02T10:16:22Z</time>
		</trkpt>
		<trkpt lat="39.4949684143066" lon="2.74833154678345">
			<ele>75.8000030517578</ele>
			<time>2014-01-02T10:16:24Z</time>
		</trkpt>
		<trkpt lat="39.4948997497559" lon="2.74831104278564">
			<ele>75.5999984741211</ele>
			<time>2014-01-02T10:16:26Z</time>
		</trkpt>
		<trkpt lat="39.4948310852051" lon="2.74828028678894">
			<ele>75.4000015258789</ele>
			<time>2014-01-02T10:16:28Z</time>
		</trkpt>
		<trkpt lat="39.494758605957" lon="2.74824857711792">
			<ele>75</ele>
			<time>2014-01-02T10:16:30Z</time>
		</trkpt>
		<trkpt lat="39.4946784973145" lon="2.74820494651794">
			<ele>74.6999969482422</ele>
			<time>2014-01-02T10:16:32Z</time>
		</trkpt>
		<trkpt lat="39.4946327209473" lon="2.74818301200867">
			<ele>74.1999969482422</ele>
			<time>2014-01-02T10:16:33Z</time>
		</trkpt>
		<trkpt lat="39.4945945739746" lon="2.74816060066223">
			<ele>74.4000015258789</ele>
			<time>2014-01-02T10:16:34Z</time>
		</trkpt>
		<trkpt lat="39.4945449829102" lon="2.74813771247864">
			<ele>74.0999984741211</ele>
			<time>2014-01-02T10:16:35Z</time>
		</trkpt>
		<trkpt lat="39.4944953918457" lon="2.74810671806335">
			<ele>73.8000030517578</ele>
			<time>2014-01-02T10:16:36Z</time>
		</trkpt>
		<trkpt lat="39.4944458007813" lon="2.7480776309967">
			<ele>73.5</ele>
			<time>2014-01-02T10:16:37Z</time>
		</trkpt>
		<trkpt lat="39.4943962097168" lon="2.74804449081421">
			<ele>73.5</ele>
			<time>2014-01-02T10:16:38Z</time>
		</trkpt>
		<trkpt lat="39.4943466186523" lon="2.74801397323608">
			<ele>73.3000030517578</ele>
			<time>2014-01-02T10:16:39Z</time>
		</trkpt>
		<trkpt lat="39.4942970275879" lon="2.7479829788208">
			<ele>73.1999969482422</ele>
			<time>2014-01-02T10:16:40Z</time>
		</trkpt>
		<trkpt lat="39.494255065918" lon="2.74795508384705">
			<ele>72.8000030517578</ele>
			<time>2014-01-02T10:16:41Z</time>
		</trkpt>
		<trkpt lat="39.4942092895508" lon="2.74792671203613">
			<ele>72.5999984741211</ele>
			<time>2014-01-02T10:16:42Z</time>
		</trkpt>
		<trkpt lat="39.4941673278809" lon="2.74789261817932">
			<ele>72.5999984741211</ele>
			<time>2014-01-02T10:16:43Z</time>
		</trkpt>
		<trkpt lat="39.4941253662109" lon="2.74786043167114">
			<ele>72.6999969482422</ele>
			<time>2014-01-02T10:16:44Z</time>
		</trkpt>
		<trkpt lat="39.4940452575684" lon="2.74780559539795">
			<ele>72.5999984741211</ele>
			<time>2014-01-02T10:16:46Z</time>
		</trkpt>
		<trkpt lat="39.493968963623" lon="2.74775743484497">
			<ele>72.6999969482422</ele>
			<time>2014-01-02T10:16:48Z</time>
		</trkpt>
		<trkpt lat="39.4939079284668" lon="2.74770426750183">
			<ele>72.6999969482422</ele>
			<time>2014-01-02T10:16:50Z</time>
		</trkpt>
		<trkpt lat="39.4938468933105" lon="2.74765276908875">
			<ele>72.8000030517578</ele>
			<time>2014-01-02T10:16:52Z</time>
		</trkpt>
		<trkpt lat="39.4937896728516" lon="2.74760413169861">
			<ele>73.0999984741211</ele>
			<time>2014-01-02T10:16:54Z</time>
		</trkpt>
		<trkpt lat="39.4937324523926" lon="2.74754881858826">
			<ele>72.6999969482422</ele>
			<time>2014-01-02T10:16:56Z</time>
		</trkpt>
		<trkpt lat="39.4936790466309" lon="2.74749636650085">
			<ele>72.5</ele>
			<time>2014-01-02T10:16:58Z</time>
		</trkpt>
		<trkpt lat="39.4936180114746" lon="2.7474319934845">
			<ele>72.6999969482422</ele>
			<time>2014-01-02T10:17:00Z</time>
		</trkpt>
		<trkpt lat="39.4935569763184" lon="2.74736166000366">
			<ele>72.1999969482422</ele>
			<time>2014-01-02T10:17:02Z</time>
		</trkpt>
		<trkpt lat="39.4934959411621" lon="2.74728512763977">
			<ele>71.8000030517578</ele>
			<time>2014-01-02T10:17:04Z</time>
		</trkpt>
		<trkpt lat="39.4934310913086" lon="2.74720788002014">
			<ele>71.5999984741211</ele>
			<time>2014-01-02T10:17:06Z</time>
		</trkpt>
		<trkpt lat="39.4933662414551" lon="2.74712252616882">
			<ele>71.5999984741211</ele>
			<time>2014-01-02T10:17:08Z</time>
		</trkpt>
		<trkpt lat="39.4933395385742" lon="2.74707341194153">
			<ele>71.5999984741211</ele>
			<time>2014-01-02T10:17:09Z</time>
		</trkpt>
		<trkpt lat="39.4933013916016" lon="2.74702477455139">
			<ele>71.5</ele>
			<time>2014-01-02T10:17:10Z</time>
		</trkpt>
		<trkpt lat="39.4932746887207" lon="2.74697804450989">
			<ele>71.5999984741211</ele>
			<time>2014-01-02T10:17:11Z</time>
		</trkpt>
		<trkpt lat="39.4932518005371" lon="2.7469277381897">
			<ele>71.6999969482422</ele>
			<time>2014-01-02T10:17:12Z</time>
		</trkpt>
		<trkpt lat="39.4932174682617" lon="2.74688220024109">
			<ele>71.6999969482422</ele>
			<time>2014-01-02T10:17:13Z</time>
		</trkpt>
		<trkpt lat="39.4931640625" lon="2.74679565429688">
			<ele>71.5999984741211</ele>
			<time>2014-01-02T10:17:15Z</time>
		</trkpt>
		<trkpt lat="39.4931335449219" lon="2.74671936035156">
			<ele>71.5999984741211</ele>
			<time>2014-01-02T10:17:17Z</time>
		</trkpt>
		<trkpt lat="39.4930953979492" lon="2.74664711952209">
			<ele>72</ele>
			<time>2014-01-02T10:17:19Z</time>
		</trkpt>
		<trkpt lat="39.493049621582" lon="2.74657726287842">
			<ele>72.5</ele>
			<time>2014-01-02T10:17:21Z</time>
		</trkpt>
		<trkpt lat="39.4930229187012" lon="2.74650287628174">
			<ele>73.0999984741211</ele>
			<time>2014-01-02T10:17:23Z</time>
		</trkpt>
		<trkpt lat="39.4929885864258" lon="2.74645161628723">
			<ele>74.5</ele>
			<time>2014-01-02T10:17:25Z</time>
		</trkpt>
		<trkpt lat="39.4929618835449" lon="2.74637913703918">
			<ele>73.5999984741211</ele>
			<time>2014-01-02T10:17:28Z</time>
		</trkpt>
		<trkpt lat="39.4929351806641" lon="2.74631333351135">
			<ele>74.3000030517578</ele>
			<time>2014-01-02T10:17:30Z</time>
		</trkpt>
		<trkpt lat="39.4929046630859" lon="2.74625635147095">
			<ele>74.4000015258789</ele>
			<time>2014-01-02T10:17:32Z</time>
		</trkpt>
		<trkpt lat="39.4928741455078" lon="2.7461986541748">
			<ele>74.3000030517578</ele>
			<time>2014-01-02T10:17:34Z</time>
		</trkpt>
		<trkpt lat="39.4928359985352" lon="2.74612331390381">
			<ele>74.6999969482422</ele>
			<time>2014-01-02T10:17:36Z</time>
		</trkpt>
		<trkpt lat="39.4928016662598" lon="2.74605560302734">
			<ele>75.0999984741211</ele>
			<time>2014-01-02T10:17:38Z</time>
		</trkpt>
		<trkpt lat="39.4927635192871" lon="2.74596476554871">
			<ele>75</ele>
			<time>2014-01-02T10:17:40Z</time>
		</trkpt>
		<trkpt lat="39.4927139282227" lon="2.74588346481323">
			<ele>75.3000030517578</ele>
			<time>2014-01-02T10:17:42Z</time>
		</trkpt>
		<trkpt lat="39.4926681518555" lon="2.74580454826355">
			<ele>75.3000030517578</ele>
			<time>2014-01-02T10:17:44Z</time>
		</trkpt>
		<trkpt lat="39.4926414489746" lon="2.74574065208435">
			<ele>75.1999969482422</ele>
			<time>2014-01-02T10:17:46Z</time>
		</trkpt>
		<trkpt lat="39.492618560791" lon="2.74566674232483">
			<ele>75.4000015258789</ele>
			<time>2014-01-02T10:17:48Z</time>
		</trkpt>
		<trkpt lat="39.4926300048828" lon="2.7455894947052">
			<ele>75.9000015258789</ele>
			<time>2014-01-02T10:17:50Z</time>
		</trkpt>
		<trkpt lat="39.4926490783691" lon="2.74551320075989">
			<ele>76.4000015258789</ele>
			<time>2014-01-02T10:17:52Z</time>
		</trkpt>
		<trkpt lat="39.4926147460938" lon="2.74540877342224">
			<ele>77.3000030517578</ele>
			<time>2014-01-02T10:17:54Z</time>
		</trkpt>
		<trkpt lat="39.4925689697266" lon="2.74534606933594">
			<ele>76.8000030517578</ele>
			<time>2014-01-02T10:17:56Z</time>
		</trkpt>
		<trkpt lat="39.4925003051758" lon="2.74533820152283">
			<ele>76.6999969482422</ele>
			<time>2014-01-02T10:17:58Z</time>
		</trkpt>
		<trkpt lat="39.4924240112305" lon="2.74532675743103">
			<ele>77</ele>
			<time>2014-01-02T10:18:00Z</time>
		</trkpt>
		<trkpt lat="39.4923477172852" lon="2.74528026580811">
			<ele>76.4000015258789</ele>
			<time>2014-01-02T10:18:02Z</time>
		</trkpt>
		<trkpt lat="39.492317199707" lon="2.74523711204529">
			<ele>76.0999984741211</ele>
			<time>2014-01-02T10:18:03Z</time>
		</trkpt>
		<trkpt lat="39.492259979248" lon="2.74515104293823">
			<ele>76.0999984741211</ele>
			<time>2014-01-02T10:18:05Z</time>
		</trkpt>
		<trkpt lat="39.4922294616699" lon="2.74509215354919">
			<ele>75.5999984741211</ele>
			<time>2014-01-02T10:18:06Z</time>
		</trkpt>
		<trkpt lat="39.4921989440918" lon="2.74504137039185">
			<ele>75.1999969482422</ele>
			<time>2014-01-02T10:18:07Z</time>
		</trkpt>
		<trkpt lat="39.4921722412109" lon="2.74499320983887">
			<ele>74.6999969482422</ele>
			<time>2014-01-02T10:18:08Z</time>
		</trkpt>
		<trkpt lat="39.4921379089355" lon="2.74494338035583">
			<ele>74.8000030517578</ele>
			<time>2014-01-02T10:18:09Z</time>
		</trkpt>
		<trkpt lat="39.4921073913574" lon="2.7448902130127">
			<ele>74.8000030517578</ele>
			<time>2014-01-02T10:18:10Z</time>
		</trkpt>
		<trkpt lat="39.492073059082" lon="2.74484300613403">
			<ele>75.1999969482422</ele>
			<time>2014-01-02T10:18:11Z</time>
		</trkpt>
		<trkpt lat="39.4920463562012" lon="2.74479246139526">
			<ele>75.3000030517578</ele>
			<time>2014-01-02T10:18:12Z</time>
		</trkpt>
		<trkpt lat="39.492015838623" lon="2.74474406242371">
			<ele>75.0999984741211</ele>
			<time>2014-01-02T10:18:13Z</time>
		</trkpt>
		<trkpt lat="39.4919891357422" lon="2.74469614028931">
			<ele>75.0999984741211</ele>
			<time>2014-01-02T10:18:14Z</time>
		</trkpt>
		<trkpt lat="39.4919586181641" lon="2.74465179443359">
			<ele>75.4000015258789</ele>
			<time>2014-01-02T10:18:15Z</time>
		</trkpt>
		<trkpt lat="39.4919204711914" lon="2.74460220336914">
			<ele>75.5999984741211</ele>
			<time>2014-01-02T10:18:16Z</time>
		</trkpt>
		<trkpt lat="39.491870880127" lon="2.74454188346863">
			<ele>74.8000030517578</ele>
			<time>2014-01-02T10:18:18Z</time>
		</trkpt>
		<trkpt lat="39.4918212890625" lon="2.74446964263916">
			<ele>74.4000015258789</ele>
			<time>2014-01-02T10:18:20Z</time>
		</trkpt>
		<trkpt lat="39.4917678833008" lon="2.74439597129822">
			<ele>74.1999969482422</ele>
			<time>2014-01-02T10:18:22Z</time>
		</trkpt>
		<trkpt lat="39.4917144775391" lon="2.74432945251465">
			<ele>74.8000030517578</ele>
			<time>2014-01-02T10:18:24Z</time>
		</trkpt>
		<trkpt lat="39.4916610717773" lon="2.74426531791687">
			<ele>74.3000030517578</ele>
			<time>2014-01-02T10:18:26Z</time>
		</trkpt>
		<trkpt lat="39.4916076660156" lon="2.74419808387756">
			<ele>74.1999969482422</ele>
			<time>2014-01-02T10:18:28Z</time>
		</trkpt>
		<trkpt lat="39.4915542602539" lon="2.744140625">
			<ele>74.1999969482422</ele>
			<time>2014-01-02T10:18:30Z</time>
		</trkpt>
		<trkpt lat="39.4915084838867" lon="2.74407982826233">
			<ele>74.3000030517578</ele>
			<time>2014-01-02T10:18:32Z</time>
		</trkpt>
		<trkpt lat="39.4914627075195" lon="2.74402093887329">
			<ele>74.5999984741211</ele>
			<time>2014-01-02T10:18:34Z</time>
		</trkpt>
		<trkpt lat="39.4914169311523" lon="2.74396276473999">
			<ele>75.1999969482422</ele>
			<time>2014-01-02T10:18:36Z</time>
		</trkpt>
		<trkpt lat="39.4913711547852" lon="2.74390649795532">
			<ele>75.3000030517578</ele>
			<time>2014-01-02T10:18:38Z</time>
		</trkpt>
		<trkpt lat="39.4913291931152" lon="2.74385237693787">
			<ele>75.6999969482422</ele>
			<time>2014-01-02T10:18:40Z</time>
		</trkpt>
		<trkpt lat="39.491283416748" lon="2.74379730224609">
			<ele>76.4000015258789</ele>
			<time>2014-01-02T10:18:42Z</time>
		</trkpt>
		<trkpt lat="39.4912414550781" lon="2.74374794960022">
			<ele>76.6999969482422</ele>
			<time>2014-01-02T10:18:44Z</time>
		</trkpt>
		<trkpt lat="39.4911956787109" lon="2.74369359016418">
			<ele>77.4000015258789</ele>
			<time>2014-01-02T10:18:47Z</time>
		</trkpt>
		<trkpt lat="39.491153717041" lon="2.74364566802979">
			<ele>77.3000030517578</ele>
			<time>2014-01-02T10:18:48Z</time>
		</trkpt>
		<trkpt lat="39.4911117553711" lon="2.74359512329102">
			<ele>77.0999984741211</ele>
			<time>2014-01-02T10:18:50Z</time>
		</trkpt>
		<trkpt lat="39.4910430908203" lon="2.74351811408997">
			<ele>77</ele>
			<time>2014-01-02T10:18:53Z</time>
		</trkpt>
		<trkpt lat="39.4909973144531" lon="2.7434663772583">
			<ele>77</ele>
			<time>2014-01-02T10:18:55Z</time>
		</trkpt>
		<trkpt lat="39.4909515380859" lon="2.74341654777527">
			<ele>76.8000030517578</ele>
			<time>2014-01-02T10:18:58Z</time>
		</trkpt>
		<trkpt lat="39.4908790588379" lon="2.74334073066711">
			<ele>77.3000030517578</ele>
			<time>2014-01-02T10:19:01Z</time>
		</trkpt>
		<trkpt lat="39.4908332824707" lon="2.74329352378845">
			<ele>77.5</ele>
			<time>2014-01-02T10:19:02Z</time>
		</trkpt>
		<trkpt lat="39.4907836914063" lon="2.74324440956116">
			<ele>77.6999969482422</ele>
			<time>2014-01-02T10:19:04Z</time>
		</trkpt>
		<trkpt lat="39.4907341003418" lon="2.74319577217102">
			<ele>77.5</ele>
			<time>2014-01-02T10:19:06Z</time>
		</trkpt>
		<trkpt lat="39.4906921386719" lon="2.74314212799072">
			<ele>77.6999969482422</ele>
			<time>2014-01-02T10:19:08Z</time>
		</trkpt>
		<trkpt lat="39.4906425476074" lon="2.74309253692627">
			<ele>77.6999969482422</ele>
			<time>2014-01-02T10:19:10Z</time>
		</trkpt>
		<trkpt lat="39.490592956543" lon="2.74304223060608">
			<ele>77.5</ele>
			<time>2014-01-02T10:19:12Z</time>
		</trkpt>
		<trkpt lat="39.4905471801758" lon="2.74299335479736">
			<ele>77</ele>
			<time>2014-01-02T10:19:14Z</time>
		</trkpt>
		<trkpt lat="39.4904975891113" lon="2.74294376373291">
			<ele>77</ele>
			<time>2014-01-02T10:19:16Z</time>
		</trkpt>
		<trkpt lat="39.4904479980469" lon="2.74289441108704">
			<ele>77.1999969482422</ele>
			<time>2014-01-02T10:19:18Z</time>
		</trkpt>
		<trkpt lat="39.4903945922852" lon="2.74284386634827">
			<ele>77.3000030517578</ele>
			<time>2014-01-02T10:19:20Z</time>
		</trkpt>
		<trkpt lat="39.490348815918" lon="2.74279522895813">
			<ele>77.0999984741211</ele>
			<time>2014-01-02T10:19:22Z</time>
		</trkpt>
		<trkpt lat="39.4902992248535" lon="2.7427499294281">
			<ele>76.9000015258789</ele>
			<time>2014-01-02T10:19:24Z</time>
		</trkpt>
		<trkpt lat="39.4902420043945" lon="2.74270153045654">
			<ele>76.9000015258789</ele>
			<time>2014-01-02T10:19:26Z</time>
		</trkpt>
		<trkpt lat="39.4901924133301" lon="2.74265813827515">
			<ele>76.9000015258789</ele>
			<time>2014-01-02T10:19:28Z</time>
		</trkpt>
		<trkpt lat="39.4901351928711" lon="2.74260425567627">
			<ele>76.5999984741211</ele>
			<time>2014-01-02T10:19:30Z</time>
		</trkpt>
		<trkpt lat="39.4900856018066" lon="2.74254703521729">
			<ele>76.5999984741211</ele>
			<time>2014-01-02T10:19:32Z</time>
		</trkpt>
		<trkpt lat="39.4900321960449" lon="2.74249529838562">
			<ele>76.5</ele>
			<time>2014-01-02T10:19:34Z</time>
		</trkpt>
		<trkpt lat="39.4899749755859" lon="2.74244594573975">
			<ele>76.4000015258789</ele>
			<time>2014-01-02T10:19:36Z</time>
		</trkpt>
		<trkpt lat="39.4899215698242" lon="2.74239635467529">
			<ele>76.5</ele>
			<time>2014-01-02T10:19:38Z</time>
		</trkpt>
		<trkpt lat="39.4898643493652" lon="2.74234843254089">
			<ele>76.6999969482422</ele>
			<time>2014-01-02T10:19:40Z</time>
		</trkpt>
		<trkpt lat="39.489803314209" lon="2.74230241775513">
			<ele>76.5</ele>
			<time>2014-01-02T10:19:42Z</time>
		</trkpt>
		<trkpt lat="39.4897422790527" lon="2.74225616455078">
			<ele>76.6999969482422</ele>
			<time>2014-01-02T10:19:44Z</time>
		</trkpt>
		<trkpt lat="39.4896850585938" lon="2.74220728874207">
			<ele>76.6999969482422</ele>
			<time>2014-01-02T10:19:46Z</time>
		</trkpt>
		<trkpt lat="39.4896278381348" lon="2.74215865135193">
			<ele>76.8000030517578</ele>
			<time>2014-01-02T10:19:48Z</time>
		</trkpt>
		<trkpt lat="39.4895706176758" lon="2.74210906028748">
			<ele>76.8000030517578</ele>
			<time>2014-01-02T10:19:50Z</time>
		</trkpt>
		<trkpt lat="39.4895172119141" lon="2.74206066131592">
			<ele>76.8000030517578</ele>
			<time>2014-01-02T10:19:52Z</time>
		</trkpt>
		<trkpt lat="39.4894599914551" lon="2.74200916290283">
			<ele>76.9000015258789</ele>
			<time>2014-01-02T10:19:54Z</time>
		</trkpt>
		<trkpt lat="39.4894027709961" lon="2.74196457862854">
			<ele>76.9000015258789</ele>
			<time>2014-01-02T10:19:56Z</time>
		</trkpt>
		<trkpt lat="39.4893455505371" lon="2.74192476272583">
			<ele>77.0999984741211</ele>
			<time>2014-01-02T10:19:58Z</time>
		</trkpt>
		<trkpt lat="39.4892883300781" lon="2.74188494682312">
			<ele>77.0999984741211</ele>
			<time>2014-01-02T10:20:00Z</time>
		</trkpt>
		<trkpt lat="39.4892387390137" lon="2.74184131622314">
			<ele>77.4000015258789</ele>
			<time>2014-01-02T10:20:02Z</time>
		</trkpt>
		<trkpt lat="39.489185333252" lon="2.74180150032043">
			<ele>77.8000030517578</ele>
			<time>2014-01-02T10:20:04Z</time>
		</trkpt>
		<trkpt lat="39.4891319274902" lon="2.7417619228363">
			<ele>77.8000030517578</ele>
			<time>2014-01-02T10:20:06Z</time>
		</trkpt>
		<trkpt lat="39.4890785217285" lon="2.7417209148407">
			<ele>77.9000015258789</ele>
			<time>2014-01-02T10:20:08Z</time>
		</trkpt>
		<trkpt lat="39.4890174865723" lon="2.74168562889099">
			<ele>77.9000015258789</ele>
			<time>2014-01-02T10:20:10Z</time>
		</trkpt>
		<trkpt lat="39.4889640808105" lon="2.74164080619812">
			<ele>77.9000015258789</ele>
			<time>2014-01-02T10:20:12Z</time>
		</trkpt>
		<trkpt lat="39.4889030456543" lon="2.74159836769104">
			<ele>78</ele>
			<time>2014-01-02T10:20:14Z</time>
		</trkpt>
		<trkpt lat="39.488842010498" lon="2.74156093597412">
			<ele>78.0999984741211</ele>
			<time>2014-01-02T10:20:16Z</time>
		</trkpt>
		<trkpt lat="39.4887847900391" lon="2.74152708053589">
			<ele>77.8000030517578</ele>
			<time>2014-01-02T10:20:18Z</time>
		</trkpt>
		<trkpt lat="39.4887199401855" lon="2.74149322509766">
			<ele>77.6999969482422</ele>
			<time>2014-01-02T10:20:20Z</time>
		</trkpt>
		<trkpt lat="39.4886627197266" lon="2.74145579338074">
			<ele>77</ele>
			<time>2014-01-02T10:20:22Z</time>
		</trkpt>
		<trkpt lat="39.4886016845703" lon="2.74141502380371">
			<ele>76.4000015258789</ele>
			<time>2014-01-02T10:20:24Z</time>
		</trkpt>
		<trkpt lat="39.4885597229004" lon="2.74138283729553">
			<ele>76</ele>
			<time>2014-01-02T10:20:25Z</time>
		</trkpt>
		<trkpt lat="39.4884796142578" lon="2.74133348464966">
			<ele>76.0999984741211</ele>
			<time>2014-01-02T10:20:27Z</time>
		</trkpt>
		<trkpt lat="39.4884414672852" lon="2.74130821228027">
			<ele>76</ele>
			<time>2014-01-02T10:20:28Z</time>
		</trkpt>
		<trkpt lat="39.488395690918" lon="2.7412748336792">
			<ele>75.9000015258789</ele>
			<time>2014-01-02T10:20:29Z</time>
		</trkpt>
		<trkpt lat="39.488353729248" lon="2.74124503135681">
			<ele>75.5999984741211</ele>
			<time>2014-01-02T10:20:30Z</time>
		</trkpt>
		<trkpt lat="39.4883041381836" lon="2.74121618270874">
			<ele>75.5</ele>
			<time>2014-01-02T10:20:31Z</time>
		</trkpt>
		<trkpt lat="39.4882545471191" lon="2.74118995666504">
			<ele>75.5999984741211</ele>
			<time>2014-01-02T10:20:32Z</time>
		</trkpt>
		<trkpt lat="39.488208770752" lon="2.74116539955139">
			<ele>75.6999969482422</ele>
			<time>2014-01-02T10:20:33Z</time>
		</trkpt>
		<trkpt lat="39.4881553649902" lon="2.74113774299622">
			<ele>75.8000030517578</ele>
			<time>2014-01-02T10:20:34Z</time>
		</trkpt>
		<trkpt lat="39.4881134033203" lon="2.74111270904541">
			<ele>75.9000015258789</ele>
			<time>2014-01-02T10:20:35Z</time>
		</trkpt>
		<trkpt lat="39.4880638122559" lon="2.74108934402466">
			<ele>75.8000030517578</ele>
			<time>2014-01-02T10:20:36Z</time>
		</trkpt>
		<trkpt lat="39.4880218505859" lon="2.74106502532959">
			<ele>75.5</ele>
			<time>2014-01-02T10:20:37Z</time>
		</trkpt>
		<trkpt lat="39.4879760742188" lon="2.74103808403015">
			<ele>75.5999984741211</ele>
			<time>2014-01-02T10:20:38Z</time>
		</trkpt>
		<trkpt lat="39.4879302978516" lon="2.74100828170776">
			<ele>76</ele>
			<time>2014-01-02T10:20:39Z</time>
		</trkpt>
		<trkpt lat="39.4878883361816" lon="2.74097895622253">
			<ele>76.1999969482422</ele>
			<time>2014-01-02T10:20:40Z</time>
		</trkpt>
		<trkpt lat="39.4878044128418" lon="2.74092507362366">
			<ele>76.0999984741211</ele>
			<time>2014-01-02T10:20:42Z</time>
		</trkpt>
		<trkpt lat="39.4877243041992" lon="2.74087166786194">
			<ele>75.9000015258789</ele>
			<time>2014-01-02T10:20:44Z</time>
		</trkpt>
		<trkpt lat="39.4876823425293" lon="2.74084639549255">
			<ele>75.6999969482422</ele>
			<time>2014-01-02T10:20:45Z</time>
		</trkpt>
		<trkpt lat="39.4876365661621" lon="2.74082636833191">
			<ele>75.3000030517578</ele>
			<time>2014-01-02T10:20:46Z</time>
		</trkpt>
		<trkpt lat="39.4875984191895" lon="2.74078130722046">
			<ele>75.4000015258789</ele>
			<time>2014-01-02T10:20:48Z</time>
		</trkpt>
		<trkpt lat="39.4875259399414" lon="2.74075388908386">
			<ele>75.4000015258789</ele>
			<time>2014-01-02T10:20:50Z</time>
		</trkpt>
		<trkpt lat="39.4874572753906" lon="2.74075794219971">
			<ele>75.4000015258789</ele>
			<time>2014-01-02T10:20:52Z</time>
		</trkpt>
		<trkpt lat="39.4873886108398" lon="2.74083828926086">
			<ele>74.9000015258789</ele>
			<time>2014-01-02T10:20:54Z</time>
		</trkpt>
		<trkpt lat="39.4873237609863" lon="2.74091362953186">
			<ele>74.8000030517578</ele>
			<time>2014-01-02T10:20:56Z</time>
		</trkpt>
		<trkpt lat="39.4872856140137" lon="2.74095511436462">
			<ele>75.3000030517578</ele>
			<time>2014-01-02T10:20:57Z</time>
		</trkpt>
		<trkpt lat="39.4872436523438" lon="2.74099373817444">
			<ele>75.1999969482422</ele>
			<time>2014-01-02T10:20:58Z</time>
		</trkpt>
		<trkpt lat="39.4872055053711" lon="2.74103164672852">
			<ele>75.0999984741211</ele>
			<time>2014-01-02T10:20:59Z</time>
		</trkpt>
		<trkpt lat="39.4871673583984" lon="2.74106884002686">
			<ele>75.1999969482422</ele>
			<time>2014-01-02T10:21:00Z</time>
		</trkpt>
		<trkpt lat="39.487133026123" lon="2.7411048412323">
			<ele>75.0999984741211</ele>
			<time>2014-01-02T10:21:01Z</time>
		</trkpt>
		<trkpt lat="39.4870948791504" lon="2.74114441871643">
			<ele>75.5999984741211</ele>
			<time>2014-01-02T10:21:02Z</time>
		</trkpt>
		<trkpt lat="39.4870376586914" lon="2.74122309684753">
			<ele>75.6999969482422</ele>
			<time>2014-01-02T10:21:04Z</time>
		</trkpt>
		<trkpt lat="39.486988067627" lon="2.74130725860596">
			<ele>76.0999984741211</ele>
			<time>2014-01-02T10:21:06Z</time>
		</trkpt>
		<trkpt lat="39.4869346618652" lon="2.74137687683105">
			<ele>76</ele>
			<time>2014-01-02T10:21:08Z</time>
		</trkpt>
		<trkpt lat="39.4868812561035" lon="2.74143671989441">
			<ele>77.1999969482422</ele>
			<time>2014-01-02T10:21:10Z</time>
		</trkpt>
		<trkpt lat="39.4868354797363" lon="2.74149060249329">
			<ele>77.9000015258789</ele>
			<time>2014-01-02T10:21:12Z</time>
		</trkpt>
		<trkpt lat="39.4867897033691" lon="2.74155235290527">
			<ele>78.0999984741211</ele>
			<time>2014-01-02T10:21:14Z</time>
		</trkpt>
		<trkpt lat="39.4867362976074" lon="2.741623878479">
			<ele>78.1999969482422</ele>
			<time>2014-01-02T10:21:16Z</time>
		</trkpt>
		<trkpt lat="39.4866981506348" lon="2.7416934967041">
			<ele>78.1999969482422</ele>
			<time>2014-01-02T10:21:18Z</time>
		</trkpt>
		<trkpt lat="39.4866561889648" lon="2.74176955223083">
			<ele>78</ele>
			<time>2014-01-02T10:21:20Z</time>
		</trkpt>
		<trkpt lat="39.4866333007813" lon="2.74186563491821">
			<ele>77</ele>
			<time>2014-01-02T10:21:22Z</time>
		</trkpt>
		<trkpt lat="39.4865989685059" lon="2.74194312095642">
			<ele>76.1999969482422</ele>
			<time>2014-01-02T10:21:24Z</time>
		</trkpt>
		<trkpt lat="39.4865646362305" lon="2.74202680587769">
			<ele>75.9000015258789</ele>
			<time>2014-01-02T10:21:26Z</time>
		</trkpt>
		<trkpt lat="39.4865264892578" lon="2.74209594726563">
			<ele>76.0999984741211</ele>
			<time>2014-01-02T10:21:28Z</time>
		</trkpt>
		<trkpt lat="39.4864845275879" lon="2.74216508865356">
			<ele>76</ele>
			<time>2014-01-02T10:21:30Z</time>
		</trkpt>
		<trkpt lat="39.4864501953125" lon="2.74223113059998">
			<ele>75.8000030517578</ele>
			<time>2014-01-02T10:21:32Z</time>
		</trkpt>
		<trkpt lat="39.4864120483398" lon="2.7423083782196">
			<ele>75.9000015258789</ele>
			<time>2014-01-02T10:21:34Z</time>
		</trkpt>
		<trkpt lat="39.486385345459" lon="2.74236917495728">
			<ele>76.1999969482422</ele>
			<time>2014-01-02T10:21:36Z</time>
		</trkpt>
		<trkpt lat="39.4863510131836" lon="2.74243330955505">
			<ele>76.4000015258789</ele>
			<time>2014-01-02T10:21:38Z</time>
		</trkpt>
		<trkpt lat="39.4863166809082" lon="2.74249172210693">
			<ele>76.5</ele>
			<time>2014-01-02T10:21:40Z</time>
		</trkpt>
		<trkpt lat="39.4862861633301" lon="2.74254727363586">
			<ele>76.1999969482422</ele>
			<time>2014-01-02T10:21:42Z</time>
		</trkpt>
		<trkpt lat="39.486255645752" lon="2.74260520935059">
			<ele>76.5</ele>
			<time>2014-01-02T10:21:44Z</time>
		</trkpt>
		<trkpt lat="39.4862251281738" lon="2.74266505241394">
			<ele>76.3000030517578</ele>
			<time>2014-01-02T10:21:46Z</time>
		</trkpt>
		<trkpt lat="39.4861869812012" lon="2.7427089214325">
			<ele>76.6999969482422</ele>
			<time>2014-01-02T10:21:48Z</time>
		</trkpt>
		<trkpt lat="39.486156463623" lon="2.74275541305542">
			<ele>77.4000015258789</ele>
			<time>2014-01-02T10:21:50Z</time>
		</trkpt>
		<trkpt lat="39.4861297607422" lon="2.74282956123352">
			<ele>77.6999969482422</ele>
			<time>2014-01-02T10:21:52Z</time>
		</trkpt>
		<trkpt lat="39.4861068725586" lon="2.74289584159851">
			<ele>77.1999969482422</ele>
			<time>2014-01-02T10:21:54Z</time>
		</trkpt>
		<trkpt lat="39.4860801696777" lon="2.74295854568481">
			<ele>77.1999969482422</ele>
			<time>2014-01-02T10:21:56Z</time>
		</trkpt>
		<trkpt lat="39.4860496520996" lon="2.74301695823669">
			<ele>77</ele>
			<time>2014-01-02T10:21:58Z</time>
		</trkpt>
		<trkpt lat="39.4860153198242" lon="2.74308085441589">
			<ele>77</ele>
			<time>2014-01-02T10:22:00Z</time>
		</trkpt>
		<trkpt lat="39.4859886169434" lon="2.74314332008362">
			<ele>77.0999984741211</ele>
			<time>2014-01-02T10:22:02Z</time>
		</trkpt>
		<trkpt lat="39.4859580993652" lon="2.74320387840271">
			<ele>77.0999984741211</ele>
			<time>2014-01-02T10:22:04Z</time>
		</trkpt>
		<trkpt lat="39.4859237670898" lon="2.74326324462891">
			<ele>78.0999984741211</ele>
			<time>2014-01-02T10:22:06Z</time>
		</trkpt>
		<trkpt lat="39.485897064209" lon="2.74332475662231">
			<ele>78.4000015258789</ele>
			<time>2014-01-02T10:22:08Z</time>
		</trkpt>
		<trkpt lat="39.4858665466309" lon="2.74338841438293">
			<ele>78.6999969482422</ele>
			<time>2014-01-02T10:22:10Z</time>
		</trkpt>
		<trkpt lat="39.4858283996582" lon="2.74345302581787">
			<ele>78.5999984741211</ele>
			<time>2014-01-02T10:22:12Z</time>
		</trkpt>
		<trkpt lat="39.4858016967773" lon="2.74352550506592">
			<ele>78.5999984741211</ele>
			<time>2014-01-02T10:22:14Z</time>
		</trkpt>
		<trkpt lat="39.4857788085938" lon="2.74358701705933">
			<ele>79</ele>
			<time>2014-01-02T10:22:16Z</time>
		</trkpt>
		<trkpt lat="39.4857521057129" lon="2.74365162849426">
			<ele>79.5</ele>
			<time>2014-01-02T10:22:18Z</time>
		</trkpt>
		<trkpt lat="39.485725402832" lon="2.74372291564941">
			<ele>79.6999969482422</ele>
			<time>2014-01-02T10:22:20Z</time>
		</trkpt>
		<trkpt lat="39.4856948852539" lon="2.74378943443298">
			<ele>79.6999969482422</ele>
			<time>2014-01-02T10:22:22Z</time>
		</trkpt>
		<trkpt lat="39.485668182373" lon="2.74386644363403">
			<ele>79.8000030517578</ele>
			<time>2014-01-02T10:22:24Z</time>
		</trkpt>
		<trkpt lat="39.4856376647949" lon="2.74394106864929">
			<ele>80.0999984741211</ele>
			<time>2014-01-02T10:22:26Z</time>
		</trkpt>
		<trkpt lat="39.4856185913086" lon="2.74400758743286">
			<ele>79.9000015258789</ele>
			<time>2014-01-02T10:22:28Z</time>
		</trkpt>
		<trkpt lat="39.485595703125" lon="2.74407768249512">
			<ele>80.1999969482422</ele>
			<time>2014-01-02T10:22:30Z</time>
		</trkpt>
		<trkpt lat="39.4855651855469" lon="2.74414157867432">
			<ele>80.6999969482422</ele>
			<time>2014-01-02T10:22:32Z</time>
		</trkpt>
		<trkpt lat="39.485523223877" lon="2.74419355392456">
			<ele>80.6999969482422</ele>
			<time>2014-01-02T10:22:34Z</time>
		</trkpt>
		<trkpt lat="39.485466003418" lon="2.74421906471252">
			<ele>80.8000030517578</ele>
			<time>2014-01-02T10:22:36Z</time>
		</trkpt>
		<trkpt lat="39.4854125976563" lon="2.74423170089722">
			<ele>80.9000015258789</ele>
			<time>2014-01-02T10:22:38Z</time>
		</trkpt>
		<trkpt lat="39.4853820800781" lon="2.74415612220764">
			<ele>81</ele>
			<time>2014-01-02T10:22:39Z</time>
		</trkpt>
		<trkpt lat="39.4853210449219" lon="2.7441029548645">
			<ele>80.3000030517578</ele>
			<time>2014-01-02T10:22:41Z</time>
		</trkpt>
		<trkpt lat="39.4852752685547" lon="2.74405288696289">
			<ele>77.4000015258789</ele>
			<time>2014-01-02T10:22:43Z</time>
		</trkpt>
		<trkpt lat="39.4852142333984" lon="2.74399709701538">
			<ele>77.3000030517578</ele>
			<time>2014-01-02T10:22:45Z</time>
		</trkpt>
		<trkpt lat="39.4851531982422" lon="2.74393725395203">
			<ele>77.0999984741211</ele>
			<time>2014-01-02T10:22:48Z</time>
		</trkpt>
		<trkpt lat="39.4850540161133" lon="2.74384951591492">
			<ele>77.0999984741211</ele>
			<time>2014-01-02T10:22:50Z</time>
		</trkpt>
		<trkpt lat="39.484992980957" lon="2.74380040168762">
			<ele>77.6999969482422</ele>
			<time>2014-01-02T10:22:52Z</time>
		</trkpt>
		<trkpt lat="39.4849395751953" lon="2.74374985694885">
			<ele>78</ele>
			<time>2014-01-02T10:22:54Z</time>
		</trkpt>
		<trkpt lat="39.4848823547363" lon="2.74369263648987">
			<ele>78.5999984741211</ele>
			<time>2014-01-02T10:22:56Z</time>
		</trkpt>
		<trkpt lat="39.4848289489746" lon="2.74364280700684">
			<ele>79</ele>
			<time>2014-01-02T10:22:58Z</time>
		</trkpt>
		<trkpt lat="39.4847793579102" lon="2.74359273910522">
			<ele>79.0999984741211</ele>
			<time>2014-01-02T10:23:00Z</time>
		</trkpt>
		<trkpt lat="39.4847221374512" lon="2.74355673789978">
			<ele>79.0999984741211</ele>
			<time>2014-01-02T10:23:02Z</time>
		</trkpt>
		<trkpt lat="39.4846649169922" lon="2.74352383613586">
			<ele>79.6999969482422</ele>
			<time>2014-01-02T10:23:04Z</time>
		</trkpt>
		<trkpt lat="39.4846038818359" lon="2.74350738525391">
			<ele>79.5</ele>
			<time>2014-01-02T10:23:06Z</time>
		</trkpt>
		<trkpt lat="39.4845428466797" lon="2.74352407455444">
			<ele>79.8000030517578</ele>
			<time>2014-01-02T10:23:08Z</time>
		</trkpt>
		<trkpt lat="39.484489440918" lon="2.74356865882874">
			<ele>80</ele>
			<time>2014-01-02T10:23:10Z</time>
		</trkpt>
		<trkpt lat="39.4844398498535" lon="2.74361896514893">
			<ele>79.8000030517578</ele>
			<time>2014-01-02T10:23:12Z</time>
		</trkpt>
		<trkpt lat="39.4843902587891" lon="2.74368333816528">
			<ele>79.5</ele>
			<time>2014-01-02T10:23:14Z</time>
		</trkpt>
		<trkpt lat="39.4843330383301" lon="2.74373126029968">
			<ele>80.0999984741211</ele>
			<time>2014-01-02T10:23:16Z</time>
		</trkpt>
		<trkpt lat="39.4842834472656" lon="2.74377965927124">
			<ele>79.6999969482422</ele>
			<time>2014-01-02T10:23:18Z</time>
		</trkpt>
		<trkpt lat="39.4842147827148" lon="2.74378681182861">
			<ele>80.1999969482422</ele>
			<time>2014-01-02T10:23:20Z</time>
		</trkpt>
		<trkpt lat="39.4841537475586" lon="2.74379992485046">
			<ele>80.4000015258789</ele>
			<time>2014-01-02T10:23:22Z</time>
		</trkpt>
		<trkpt lat="39.4840927124023" lon="2.74381518363953">
			<ele>80.5</ele>
			<time>2014-01-02T10:23:24Z</time>
		</trkpt>
		<trkpt lat="39.4840278625488" lon="2.74383020401001">
			<ele>80.6999969482422</ele>
			<time>2014-01-02T10:23:26Z</time>
		</trkpt>
		<trkpt lat="39.4839630126953" lon="2.74384355545044">
			<ele>80.8000030517578</ele>
			<time>2014-01-02T10:23:28Z</time>
		</trkpt>
		<trkpt lat="39.4838981628418" lon="2.74386405944824">
			<ele>80.5</ele>
			<time>2014-01-02T10:23:30Z</time>
		</trkpt>
		<trkpt lat="39.4838371276855" lon="2.74387979507446">
			<ele>81</ele>
			<time>2014-01-02T10:23:32Z</time>
		</trkpt>
		<trkpt lat="39.483772277832" lon="2.74389123916626">
			<ele>81.3000030517578</ele>
			<time>2014-01-02T10:23:34Z</time>
		</trkpt>
		<trkpt lat="39.4837112426758" lon="2.74390387535095">
			<ele>81.3000030517578</ele>
			<time>2014-01-02T10:23:36Z</time>
		</trkpt>
		<trkpt lat="39.4836463928223" lon="2.74392509460449">
			<ele>81.6999969482422</ele>
			<time>2014-01-02T10:23:38Z</time>
		</trkpt>
		<trkpt lat="39.4835891723633" lon="2.74394989013672">
			<ele>81.1999969482422</ele>
			<time>2014-01-02T10:23:40Z</time>
		</trkpt>
		<trkpt lat="39.4835319519043" lon="2.74396896362305">
			<ele>81.9000015258789</ele>
			<time>2014-01-02T10:23:42Z</time>
		</trkpt>
		<trkpt lat="39.4834747314453" lon="2.74398159980774">
			<ele>82.0999984741211</ele>
			<time>2014-01-02T10:23:44Z</time>
		</trkpt>
		<trkpt lat="39.4834136962891" lon="2.74399590492249">
			<ele>82.9000015258789</ele>
			<time>2014-01-02T10:23:46Z</time>
		</trkpt>
		<trkpt lat="39.4833526611328" lon="2.74400949478149">
			<ele>83.6999969482422</ele>
			<time>2014-01-02T10:23:48Z</time>
		</trkpt>
		<trkpt lat="39.4832916259766" lon="2.74401307106018">
			<ele>84.4000015258789</ele>
			<time>2014-01-02T10:23:50Z</time>
		</trkpt>
		<trkpt lat="39.4832344055176" lon="2.74402713775635">
			<ele>84.5999984741211</ele>
			<time>2014-01-02T10:23:52Z</time>
		</trkpt>
		<trkpt lat="39.4831809997559" lon="2.74405789375305">
			<ele>85.4000015258789</ele>
			<time>2014-01-02T10:23:54Z</time>
		</trkpt>
		<trkpt lat="39.4831237792969" lon="2.74406814575195">
			<ele>86</ele>
			<time>2014-01-02T10:23:56Z</time>
		</trkpt>
		<trkpt lat="39.4830436706543" lon="2.7440881729126">
			<ele>86.8000030517578</ele>
			<time>2014-01-02T10:23:59Z</time>
		</trkpt>
		<trkpt lat="39.4829902648926" lon="2.7441041469574">
			<ele>87.0999984741211</ele>
			<time>2014-01-02T10:24:01Z</time>
		</trkpt>
		<trkpt lat="39.4829406738281" lon="2.74411916732788">
			<ele>87.3000030517578</ele>
			<time>2014-01-02T10:24:03Z</time>
		</trkpt>
		<trkpt lat="39.4828910827637" lon="2.74413347244263">
			<ele>87.5999984741211</ele>
			<time>2014-01-02T10:24:05Z</time>
		</trkpt>
		<trkpt lat="39.482837677002" lon="2.74414348602295">
			<ele>88.0999984741211</ele>
			<time>2014-01-02T10:24:07Z</time>
		</trkpt>
		<trkpt lat="39.4827880859375" lon="2.74415183067322">
			<ele>88.3000030517578</ele>
			<time>2014-01-02T10:24:09Z</time>
		</trkpt>
		<trkpt lat="39.482738494873" lon="2.74416041374207">
			<ele>88.8000030517578</ele>
			<time>2014-01-02T10:24:11Z</time>
		</trkpt>
		<trkpt lat="39.4826850891113" lon="2.74416923522949">
			<ele>89.1999969482422</ele>
			<time>2014-01-02T10:24:13Z</time>
		</trkpt>
		<trkpt lat="39.4826354980469" lon="2.74417781829834">
			<ele>89.5999984741211</ele>
			<time>2014-01-02T10:24:15Z</time>
		</trkpt>
		<trkpt lat="39.4825859069824" lon="2.74419808387756">
			<ele>89.6999969482422</ele>
			<time>2014-01-02T10:24:17Z</time>
		</trkpt>
		<trkpt lat="39.4825325012207" lon="2.74421453475952">
			<ele>90.3000030517578</ele>
			<time>2014-01-02T10:24:19Z</time>
		</trkpt>
		<trkpt lat="39.482479095459" lon="2.74422287940979">
			<ele>90.6999969482422</ele>
			<time>2014-01-02T10:24:21Z</time>
		</trkpt>
		<trkpt lat="39.4824256896973" lon="2.74423313140869">
			<ele>91.0999984741211</ele>
			<time>2014-01-02T10:24:23Z</time>
		</trkpt>
		<trkpt lat="39.4823722839355" lon="2.74424362182617">
			<ele>91.5999984741211</ele>
			<time>2014-01-02T10:24:25Z</time>
		</trkpt>
		<trkpt lat="39.4823188781738" lon="2.74425554275513">
			<ele>92</ele>
			<time>2014-01-02T10:24:27Z</time>
		</trkpt>
		<trkpt lat="39.4822654724121" lon="2.7442672252655">
			<ele>92.5999984741211</ele>
			<time>2014-01-02T10:24:29Z</time>
		</trkpt>
		<trkpt lat="39.4822158813477" lon="2.74428558349609">
			<ele>92.8000030517578</ele>
			<time>2014-01-02T10:24:31Z</time>
		</trkpt>
		<trkpt lat="39.4821624755859" lon="2.744295835495">
			<ele>92.8000030517578</ele>
			<time>2014-01-02T10:24:33Z</time>
		</trkpt>
		<trkpt lat="39.482105255127" lon="2.74431014060974">
			<ele>92.6999969482422</ele>
			<time>2014-01-02T10:24:35Z</time>
		</trkpt>
		<trkpt lat="39.482048034668" lon="2.74432611465454">
			<ele>92.5999984741211</ele>
			<time>2014-01-02T10:24:37Z</time>
		</trkpt>
		<trkpt lat="39.4819946289063" lon="2.74433732032776">
			<ele>92.5999984741211</ele>
			<time>2014-01-02T10:24:39Z</time>
		</trkpt>
		<trkpt lat="39.4819374084473" lon="2.74435329437256">
			<ele>92.9000015258789</ele>
			<time>2014-01-02T10:24:41Z</time>
		</trkpt>
		<trkpt lat="39.4818840026855" lon="2.74437642097473">
			<ele>93.4000015258789</ele>
			<time>2014-01-02T10:24:43Z</time>
		</trkpt>
		<trkpt lat="39.4818229675293" lon="2.74438452720642">
			<ele>93.5999984741211</ele>
			<time>2014-01-02T10:24:45Z</time>
		</trkpt>
		<trkpt lat="39.4817657470703" lon="2.74439311027527">
			<ele>93.6999969482422</ele>
			<time>2014-01-02T10:24:47Z</time>
		</trkpt>
		<trkpt lat="39.4817123413086" lon="2.74440741539001">
			<ele>94.0999984741211</ele>
			<time>2014-01-02T10:24:49Z</time>
		</trkpt>
		<trkpt lat="39.4816551208496" lon="2.74441456794739">
			<ele>94.5</ele>
			<time>2014-01-02T10:24:51Z</time>
		</trkpt>
		<trkpt lat="39.4816055297852" lon="2.7444326877594">
			<ele>95.0999984741211</ele>
			<time>2014-01-02T10:24:53Z</time>
		</trkpt>
		<trkpt lat="39.4815559387207" lon="2.74444842338562">
			<ele>94.8000030517578</ele>
			<time>2014-01-02T10:24:55Z</time>
		</trkpt>
		<trkpt lat="39.481502532959" lon="2.74446249008179">
			<ele>95</ele>
			<time>2014-01-02T10:24:57Z</time>
		</trkpt>
		<trkpt lat="39.4814453125" lon="2.74447226524353">
			<ele>95.0999984741211</ele>
			<time>2014-01-02T10:24:59Z</time>
		</trkpt>
		<trkpt lat="39.481388092041" lon="2.74448680877686">
			<ele>95.0999984741211</ele>
			<time>2014-01-02T10:25:01Z</time>
		</trkpt>
		<trkpt lat="39.4813346862793" lon="2.74449348449707">
			<ele>95.3000030517578</ele>
			<time>2014-01-02T10:25:03Z</time>
		</trkpt>
		<trkpt lat="39.4812774658203" lon="2.74450540542603">
			<ele>95.6999969482422</ele>
			<time>2014-01-02T10:25:05Z</time>
		</trkpt>
		<trkpt lat="39.4812240600586" lon="2.74452018737793">
			<ele>95.5</ele>
			<time>2014-01-02T10:25:07Z</time>
		</trkpt>
		<trkpt lat="39.4811706542969" lon="2.74453401565552">
			<ele>95.5</ele>
			<time>2014-01-02T10:25:09Z</time>
		</trkpt>
		<trkpt lat="39.4811172485352" lon="2.74454545974731">
			<ele>95.1999969482422</ele>
			<time>2014-01-02T10:25:11Z</time>
		</trkpt>
		<trkpt lat="39.4810600280762" lon="2.74455833435059">
			<ele>95.6999969482422</ele>
			<time>2014-01-02T10:25:13Z</time>
		</trkpt>
		<trkpt lat="39.4810066223145" lon="2.7445752620697">
			<ele>95.8000030517578</ele>
			<time>2014-01-02T10:25:15Z</time>
		</trkpt>
		<trkpt lat="39.4809494018555" lon="2.74458336830139">
			<ele>95.9000015258789</ele>
			<time>2014-01-02T10:25:17Z</time>
		</trkpt>
		<trkpt lat="39.4808921813965" lon="2.74459385871887">
			<ele>96.6999969482422</ele>
			<time>2014-01-02T10:25:19Z</time>
		</trkpt>
		<trkpt lat="39.4808387756348" lon="2.74460744857788">
			<ele>96.9000015258789</ele>
			<time>2014-01-02T10:25:21Z</time>
		</trkpt>
		<trkpt lat="39.4807891845703" lon="2.74462461471558">
			<ele>97</ele>
			<time>2014-01-02T10:25:23Z</time>
		</trkpt>
		<trkpt lat="39.4807395935059" lon="2.74464321136475">
			<ele>96.8000030517578</ele>
			<time>2014-01-02T10:25:25Z</time>
		</trkpt>
		<trkpt lat="39.4806861877441" lon="2.74465560913086">
			<ele>96.9000015258789</ele>
			<time>2014-01-02T10:25:27Z</time>
		</trkpt>
		<trkpt lat="39.4806327819824" lon="2.74467158317566">
			<ele>97.5999984741211</ele>
			<time>2014-01-02T10:25:29Z</time>
		</trkpt>
		<trkpt lat="39.480583190918" lon="2.74468588829041">
			<ele>97.8000030517578</ele>
			<time>2014-01-02T10:25:31Z</time>
		</trkpt>
		<trkpt lat="39.4805335998535" lon="2.74470019340515">
			<ele>98.0999984741211</ele>
			<time>2014-01-02T10:25:33Z</time>
		</trkpt>
		<trkpt lat="39.4804840087891" lon="2.74471116065979">
			<ele>98.4000015258789</ele>
			<time>2014-01-02T10:25:35Z</time>
		</trkpt>
		<trkpt lat="39.4804344177246" lon="2.74472522735596">
			<ele>98.4000015258789</ele>
			<time>2014-01-02T10:25:37Z</time>
		</trkpt>
		<trkpt lat="39.4803848266602" lon="2.74474453926086">
			<ele>98.5999984741211</ele>
			<time>2014-01-02T10:25:39Z</time>
		</trkpt>
		<trkpt lat="39.480339050293" lon="2.74475169181824">
			<ele>99.1999969482422</ele>
			<time>2014-01-02T10:25:41Z</time>
		</trkpt>
		<trkpt lat="39.4802856445313" lon="2.74476075172424">
			<ele>99.6999969482422</ele>
			<time>2014-01-02T10:25:43Z</time>
		</trkpt>
		<trkpt lat="39.4802360534668" lon="2.74476981163025">
			<ele>100.199996948242</ele>
			<time>2014-01-02T10:25:45Z</time>
		</trkpt>
		<trkpt lat="39.4801902770996" lon="2.74478363990784">
			<ele>100.400001525879</ele>
			<time>2014-01-02T10:25:47Z</time>
		</trkpt>
		<trkpt lat="39.4801368713379" lon="2.74479079246521">
			<ele>100.699996948242</ele>
			<time>2014-01-02T10:25:49Z</time>
		</trkpt>
		<trkpt lat="39.4800834655762" lon="2.74480104446411">
			<ele>100.900001525879</ele>
			<time>2014-01-02T10:25:51Z</time>
		</trkpt>
		<trkpt lat="39.4800300598145" lon="2.74481439590454">
			<ele>101.099998474121</ele>
			<time>2014-01-02T10:25:53Z</time>
		</trkpt>
		<trkpt lat="39.47998046875" lon="2.74482464790344">
			<ele>101.5</ele>
			<time>2014-01-02T10:25:55Z</time>
		</trkpt>
		<trkpt lat="39.4799308776855" lon="2.74483752250671">
			<ele>101.699996948242</ele>
			<time>2014-01-02T10:25:57Z</time>
		</trkpt>
		<trkpt lat="39.4798812866211" lon="2.74485182762146">
			<ele>102.099998474121</ele>
			<time>2014-01-02T10:25:59Z</time>
		</trkpt>
		<trkpt lat="39.4798278808594" lon="2.74486136436462">
			<ele>102.599998474121</ele>
			<time>2014-01-02T10:26:01Z</time>
		</trkpt>
		<trkpt lat="39.4797821044922" lon="2.74487686157227">
			<ele>102.800003051758</ele>
			<time>2014-01-02T10:26:03Z</time>
		</trkpt>
		<trkpt lat="39.4797325134277" lon="2.74489092826843">
			<ele>102.900001525879</ele>
			<time>2014-01-02T10:26:05Z</time>
		</trkpt>
		<trkpt lat="39.479679107666" lon="2.74490427970886">
			<ele>103.099998474121</ele>
			<time>2014-01-02T10:26:07Z</time>
		</trkpt>
		<trkpt lat="39.4796257019043" lon="2.74492025375366">
			<ele>103.5</ele>
			<time>2014-01-02T10:26:09Z</time>
		</trkpt>
		<trkpt lat="39.4795761108398" lon="2.74493646621704">
			<ele>103.5</ele>
			<time>2014-01-02T10:26:11Z</time>
		</trkpt>
		<trkpt lat="39.4795265197754" lon="2.74494886398315">
			<ele>104</ele>
			<time>2014-01-02T10:26:13Z</time>
		</trkpt>
		<trkpt lat="39.4794769287109" lon="2.74496078491211">
			<ele>104.199996948242</ele>
			<time>2014-01-02T10:26:15Z</time>
		</trkpt>
		<trkpt lat="39.4794273376465" lon="2.74497604370117">
			<ele>104.400001525879</ele>
			<time>2014-01-02T10:26:17Z</time>
		</trkpt>
		<trkpt lat="39.479377746582" lon="2.74498867988586">
			<ele>104.5</ele>
			<time>2014-01-02T10:26:19Z</time>
		</trkpt>
		<trkpt lat="39.4793281555176" lon="2.7450008392334">
			<ele>104.900001525879</ele>
			<time>2014-01-02T10:26:21Z</time>
		</trkpt>
		<trkpt lat="39.4792785644531" lon="2.74501132965088">
			<ele>105.199996948242</ele>
			<time>2014-01-02T10:26:23Z</time>
		</trkpt>
		<trkpt lat="39.4792251586914" lon="2.74502372741699">
			<ele>105.5</ele>
			<time>2014-01-02T10:26:25Z</time>
		</trkpt>
		<trkpt lat="39.4791793823242" lon="2.74503874778748">
			<ele>105.5</ele>
			<time>2014-01-02T10:26:27Z</time>
		</trkpt>
		<trkpt lat="39.479133605957" lon="2.74505281448364">
			<ele>106</ele>
			<time>2014-01-02T10:26:29Z</time>
		</trkpt>
		<trkpt lat="39.4790878295898" lon="2.74507355690002">
			<ele>105.900001525879</ele>
			<time>2014-01-02T10:26:31Z</time>
		</trkpt>
		<trkpt lat="39.4790420532227" lon="2.74508762359619">
			<ele>106</ele>
			<time>2014-01-02T10:26:33Z</time>
		</trkpt>
		<trkpt lat="39.4789962768555" lon="2.74510335922241">
			<ele>106.099998474121</ele>
			<time>2014-01-02T10:26:35Z</time>
		</trkpt>
		<trkpt lat="39.478946685791" lon="2.74511361122131">
			<ele>106.5</ele>
			<time>2014-01-02T10:26:37Z</time>
		</trkpt>
		<trkpt lat="39.4789009094238" lon="2.7451274394989">
			<ele>106.800003051758</ele>
			<time>2014-01-02T10:26:39Z</time>
		</trkpt>
		<trkpt lat="39.4788551330566" lon="2.74514102935791">
			<ele>106.699996948242</ele>
			<time>2014-01-02T10:26:41Z</time>
		</trkpt>
		<trkpt lat="39.4788093566895" lon="2.74515414237976">
			<ele>106.800003051758</ele>
			<time>2014-01-02T10:26:43Z</time>
		</trkpt>
		<trkpt lat="39.478759765625" lon="2.74516272544861">
			<ele>107.099998474121</ele>
			<time>2014-01-02T10:26:45Z</time>
		</trkpt>
		<trkpt lat="39.4787139892578" lon="2.74517345428467">
			<ele>107.300003051758</ele>
			<time>2014-01-02T10:26:47Z</time>
		</trkpt>
		<trkpt lat="39.4786682128906" lon="2.74518704414368">
			<ele>107.5</ele>
			<time>2014-01-02T10:26:49Z</time>
		</trkpt>
		<trkpt lat="39.4786186218262" lon="2.745201587677">
			<ele>107.800003051758</ele>
			<time>2014-01-02T10:26:51Z</time>
		</trkpt>
		<trkpt lat="39.478572845459" lon="2.74521708488464">
			<ele>107.900001525879</ele>
			<time>2014-01-02T10:26:53Z</time>
		</trkpt>
		<trkpt lat="39.4785232543945" lon="2.74522805213928">
			<ele>108.5</ele>
			<time>2014-01-02T10:26:55Z</time>
		</trkpt>
		<trkpt lat="39.4784736633301" lon="2.74523949623108">
			<ele>108.900001525879</ele>
			<time>2014-01-02T10:26:57Z</time>
		</trkpt>
		<trkpt lat="39.4784278869629" lon="2.74525213241577">
			<ele>109.300003051758</ele>
			<time>2014-01-02T10:26:59Z</time>
		</trkpt>
		<trkpt lat="39.4783821105957" lon="2.74526500701904">
			<ele>109.900001525879</ele>
			<time>2014-01-02T10:27:01Z</time>
		</trkpt>
		<trkpt lat="39.4783325195313" lon="2.74527502059937">
			<ele>110.599998474121</ele>
			<time>2014-01-02T10:27:03Z</time>
		</trkpt>
		<trkpt lat="39.4782829284668" lon="2.74528241157532">
			<ele>111.300003051758</ele>
			<time>2014-01-02T10:27:05Z</time>
		</trkpt>
		<trkpt lat="39.4782371520996" lon="2.74529409408569">
			<ele>111.900001525879</ele>
			<time>2014-01-02T10:27:07Z</time>
		</trkpt>
		<trkpt lat="39.4781875610352" lon="2.74530410766602">
			<ele>112.699996948242</ele>
			<time>2014-01-02T10:27:09Z</time>
		</trkpt>
		<trkpt lat="39.4781379699707" lon="2.7453088760376">
			<ele>113.199996948242</ele>
			<time>2014-01-02T10:27:11Z</time>
		</trkpt>
		<trkpt lat="39.4780883789063" lon="2.74531531333923">
			<ele>113.900001525879</ele>
			<time>2014-01-02T10:27:13Z</time>
		</trkpt>
		<trkpt lat="39.4780387878418" lon="2.74532318115234">
			<ele>114.400001525879</ele>
			<time>2014-01-02T10:27:15Z</time>
		</trkpt>
		<trkpt lat="39.4779891967773" lon="2.74533295631409">
			<ele>114.800003051758</ele>
			<time>2014-01-02T10:27:17Z</time>
		</trkpt>
		<trkpt lat="39.4779357910156" lon="2.74534106254578">
			<ele>115.099998474121</ele>
			<time>2014-01-02T10:27:19Z</time>
		</trkpt>
		<trkpt lat="39.4778823852539" lon="2.74535965919495">
			<ele>115</ele>
			<time>2014-01-02T10:27:21Z</time>
		</trkpt>
		<trkpt lat="39.4778251647949" lon="2.74537348747253">
			<ele>115.300003051758</ele>
			<time>2014-01-02T10:27:23Z</time>
		</trkpt>
		<trkpt lat="39.4777755737305" lon="2.74538469314575">
			<ele>115.599998474121</ele>
			<time>2014-01-02T10:27:25Z</time>
		</trkpt>
		<trkpt lat="39.477725982666" lon="2.74539923667908">
			<ele>115.5</ele>
			<time>2014-01-02T10:27:27Z</time>
		</trkpt>
		<trkpt lat="39.4776763916016" lon="2.74541211128235">
			<ele>115.599998474121</ele>
			<time>2014-01-02T10:27:29Z</time>
		</trkpt>
		<trkpt lat="39.4776268005371" lon="2.74542021751404">
			<ele>115.5</ele>
			<time>2014-01-02T10:27:31Z</time>
		</trkpt>
		<trkpt lat="39.4775810241699" lon="2.74543905258179">
			<ele>115.099998474121</ele>
			<time>2014-01-02T10:27:33Z</time>
		</trkpt>
		<trkpt lat="39.4775352478027" lon="2.74545550346375">
			<ele>114.599998474121</ele>
			<time>2014-01-02T10:27:47Z</time>
		</trkpt>
		<trkpt lat="39.4774780273438" lon="2.74547529220581">
			<ele>114.199996948242</ele>
			<time>2014-01-02T10:27:51Z</time>
		</trkpt>
		<trkpt lat="39.4774703979492" lon="2.74553513526917">
			<ele>113.699996948242</ele>
			<time>2014-01-02T10:27:55Z</time>
		</trkpt>
		<trkpt lat="39.4775161743164" lon="2.74557495117188">
			<ele>113.800003051758</ele>
			<time>2014-01-02T10:27:56Z</time>
		</trkpt>
		<trkpt lat="39.4775848388672" lon="2.74561405181885">
			<ele>112.800003051758</ele>
			<time>2014-01-02T10:27:58Z</time>
		</trkpt>
		<trkpt lat="39.4776458740234" lon="2.74566578865051">
			<ele>112.900001525879</ele>
			<time>2014-01-02T10:28:00Z</time>
		</trkpt>
		<trkpt lat="39.477710723877" lon="2.74570345878601">
			<ele>112.800003051758</ele>
			<time>2014-01-02T10:28:02Z</time>
		</trkpt>
		<trkpt lat="39.477783203125" lon="2.74569368362427">
			<ele>112.300003051758</ele>
			<time>2014-01-02T10:28:04Z</time>
		</trkpt>
		<trkpt lat="39.477855682373" lon="2.745680809021">
			<ele>112.099998474121</ele>
			<time>2014-01-02T10:28:06Z</time>
		</trkpt>
		<trkpt lat="39.4779167175293" lon="2.74566841125488">
			<ele>112.099998474121</ele>
			<time>2014-01-02T10:28:08Z</time>
		</trkpt>
		<trkpt lat="39.4779815673828" lon="2.74566245079041">
			<ele>111.900001525879</ele>
			<time>2014-01-02T10:28:10Z</time>
		</trkpt>
		<trkpt lat="39.4780349731445" lon="2.74569773674011">
			<ele>111</ele>
			<time>2014-01-02T10:28:12Z</time>
		</trkpt>
		<trkpt lat="39.4780807495117" lon="2.74575304985046">
			<ele>110.599998474121</ele>
			<time>2014-01-02T10:28:14Z</time>
		</trkpt>
		<trkpt lat="39.478099822998" lon="2.74583172798157">
			<ele>110.5</ele>
			<time>2014-01-02T10:28:16Z</time>
		</trkpt>
		<trkpt lat="39.4780807495117" lon="2.74576568603516">
			<ele>110.800003051758</ele>
			<time>2014-01-02T10:28:23Z</time>
		</trkpt>
		<trkpt lat="39.4780731201172" lon="2.74569034576416">
			<ele>111.800003051758</ele>
			<time>2014-01-02T10:28:26Z</time>
		</trkpt>
		<trkpt lat="39.4780158996582" lon="2.74567890167236">
			<ele>111.800003051758</ele>
			<time>2014-01-02T10:28:29Z</time>
		</trkpt>
		<trkpt lat="39.4779624938965" lon="2.745680809021">
			<ele>112.300003051758</ele>
			<time>2014-01-02T10:28:31Z</time>
		</trkpt>
		<trkpt lat="39.477912902832" lon="2.74568343162537">
			<ele>113.099998474121</ele>
			<time>2014-01-02T10:28:33Z</time>
		</trkpt>
		<trkpt lat="39.4778671264648" lon="2.74569892883301">
			<ele>113.099998474121</ele>
			<time>2014-01-02T10:28:35Z</time>
		</trkpt>
		<trkpt lat="39.4778213500977" lon="2.74572134017944">
			<ele>113.800003051758</ele>
			<time>2014-01-02T10:28:37Z</time>
		</trkpt>
		<trkpt lat="39.4777755737305" lon="2.74573564529419">
			<ele>113.800003051758</ele>
			<time>2014-01-02T10:28:39Z</time>
		</trkpt>
		<trkpt lat="39.4777297973633" lon="2.74572587013245">
			<ele>113</ele>
			<time>2014-01-02T10:28:42Z</time>
		</trkpt>
		<trkpt lat="39.4776802062988" lon="2.74566984176636">
			<ele>113.099998474121</ele>
			<time>2014-01-02T10:28:46Z</time>
		</trkpt>
		<trkpt lat="39.4776268005371" lon="2.74563956260681">
			<ele>113.300003051758</ele>
			<time>2014-01-02T10:28:48Z</time>
		</trkpt>
		<trkpt lat="39.4775810241699" lon="2.74560379981995">
			<ele>113.099998474121</ele>
			<time>2014-01-02T10:28:51Z</time>
		</trkpt>
		<trkpt lat="39.4775390625" lon="2.745521068573">
			<ele>113.599998474121</ele>
			<time>2014-01-02T10:29:09Z</time>
		</trkpt>
		<trkpt lat="39.4774627685547" lon="2.74549627304077">
			<ele>113.699996948242</ele>
			<time>2014-01-02T10:29:11Z</time>
		</trkpt>
		<trkpt lat="39.4773902893066" lon="2.74551868438721">
			<ele>113.800003051758</ele>
			<time>2014-01-02T10:29:13Z</time>
		</trkpt>
		<trkpt lat="39.4773139953613" lon="2.7455358505249">
			<ele>113.699996948242</ele>
			<time>2014-01-02T10:29:15Z</time>
		</trkpt>
		<trkpt lat="39.4772415161133" lon="2.7455518245697">
			<ele>114</ele>
			<time>2014-01-02T10:29:17Z</time>
		</trkpt>
		<trkpt lat="39.4771728515625" lon="2.74556994438171">
			<ele>114</ele>
			<time>2014-01-02T10:29:19Z</time>
		</trkpt>
		<trkpt lat="39.4771041870117" lon="2.74559164047241">
			<ele>114</ele>
			<time>2014-01-02T10:29:21Z</time>
		</trkpt>
		<trkpt lat="39.4770355224609" lon="2.74560809135437">
			<ele>114.300003051758</ele>
			<time>2014-01-02T10:29:23Z</time>
		</trkpt>
		<trkpt lat="39.4769706726074" lon="2.74562311172485">
			<ele>114.599998474121</ele>
			<time>2014-01-02T10:29:25Z</time>
		</trkpt>
		<trkpt lat="39.4769096374512" lon="2.7456362247467">
			<ele>114.599998474121</ele>
			<time>2014-01-02T10:29:27Z</time>
		</trkpt>
		<trkpt lat="39.4768486022949" lon="2.74564862251282">
			<ele>114.800003051758</ele>
			<time>2014-01-02T10:29:29Z</time>
		</trkpt>
		<trkpt lat="39.4767913818359" lon="2.74566507339478">
			<ele>114.900001525879</ele>
			<time>2014-01-02T10:29:31Z</time>
		</trkpt>
		<trkpt lat="39.4767303466797" lon="2.74567794799805">
			<ele>115</ele>
			<time>2014-01-02T10:29:33Z</time>
		</trkpt>
		<trkpt lat="39.476676940918" lon="2.74569582939148">
			<ele>115.199996948242</ele>
			<time>2014-01-02T10:29:35Z</time>
		</trkpt>
		<trkpt lat="39.4766235351563" lon="2.74570941925049">
			<ele>115.199996948242</ele>
			<time>2014-01-02T10:29:37Z</time>
		</trkpt>
		<trkpt lat="39.4765739440918" lon="2.74572658538818">
			<ele>115.5</ele>
			<time>2014-01-02T10:29:39Z</time>
		</trkpt>
		<trkpt lat="39.4765205383301" lon="2.74574041366577">
			<ele>115.800003051758</ele>
			<time>2014-01-02T10:29:41Z</time>
		</trkpt>
		<trkpt lat="39.4764633178711" lon="2.74575042724609">
			<ele>116</ele>
			<time>2014-01-02T10:29:43Z</time>
		</trkpt>
		<trkpt lat="39.4764060974121" lon="2.74576663970947">
			<ele>116.300003051758</ele>
			<time>2014-01-02T10:29:45Z</time>
		</trkpt>
		<trkpt lat="39.4763488769531" lon="2.74577689170837">
			<ele>116.900001525879</ele>
			<time>2014-01-02T10:29:47Z</time>
		</trkpt>
		<trkpt lat="39.4762916564941" lon="2.74579644203186">
			<ele>116.800003051758</ele>
			<time>2014-01-02T10:29:49Z</time>
		</trkpt>
		<trkpt lat="39.4762382507324" lon="2.74580931663513">
			<ele>117.300003051758</ele>
			<time>2014-01-02T10:29:51Z</time>
		</trkpt>
		<trkpt lat="39.476188659668" lon="2.74582457542419">
			<ele>117.300003051758</ele>
			<time>2014-01-02T10:29:53Z</time>
		</trkpt>
		<trkpt lat="39.4761352539063" lon="2.7458381652832">
			<ele>117.599998474121</ele>
			<time>2014-01-02T10:29:55Z</time>
		</trkpt>
		<trkpt lat="39.4760818481445" lon="2.74585294723511">
			<ele>117.5</ele>
			<time>2014-01-02T10:29:57Z</time>
		</trkpt>
		<trkpt lat="39.4760246276855" lon="2.74586391448975">
			<ele>117.599998474121</ele>
			<time>2014-01-02T10:29:59Z</time>
		</trkpt>
		<trkpt lat="39.4759674072266" lon="2.74587607383728">
			<ele>117.699996948242</ele>
			<time>2014-01-02T10:30:01Z</time>
		</trkpt>
		<trkpt lat="39.4759178161621" lon="2.74588656425476">
			<ele>117.900001525879</ele>
			<time>2014-01-02T10:30:03Z</time>
		</trkpt>
		<trkpt lat="39.4758644104004" lon="2.74590039253235">
			<ele>117.800003051758</ele>
			<time>2014-01-02T10:30:05Z</time>
		</trkpt>
		<trkpt lat="39.4758110046387" lon="2.74591279029846">
			<ele>118</ele>
			<time>2014-01-02T10:30:07Z</time>
		</trkpt>
		<trkpt lat="39.475757598877" lon="2.74592733383179">
			<ele>117.900001525879</ele>
			<time>2014-01-02T10:30:09Z</time>
		</trkpt>
		<trkpt lat="39.4757118225098" lon="2.745938539505">
			<ele>117.900001525879</ele>
			<time>2014-01-02T10:30:11Z</time>
		</trkpt>
		<trkpt lat="39.475658416748" lon="2.74595212936401">
			<ele>117.900001525879</ele>
			<time>2014-01-02T10:30:13Z</time>
		</trkpt>
		<trkpt lat="39.4756050109863" lon="2.74596238136292">
			<ele>118.5</ele>
			<time>2014-01-02T10:30:15Z</time>
		</trkpt>
		<trkpt lat="39.4755516052246" lon="2.74597382545471">
			<ele>118.599998474121</ele>
			<time>2014-01-02T10:30:17Z</time>
		</trkpt>
		<trkpt lat="39.4754981994629" lon="2.74599099159241">
			<ele>118.800003051758</ele>
			<time>2014-01-02T10:30:19Z</time>
		</trkpt>
		<trkpt lat="39.4754447937012" lon="2.74600601196289">
			<ele>119</ele>
			<time>2014-01-02T10:30:21Z</time>
		</trkpt>
		<trkpt lat="39.4753837585449" lon="2.74601697921753">
			<ele>119.099998474121</ele>
			<time>2014-01-02T10:30:23Z</time>
		</trkpt>
		<trkpt lat="39.4753303527832" lon="2.74603199958801">
			<ele>119.400001525879</ele>
			<time>2014-01-02T10:30:25Z</time>
		</trkpt>
		<trkpt lat="39.4752769470215" lon="2.74604368209839">
			<ele>119.800003051758</ele>
			<time>2014-01-02T10:30:27Z</time>
		</trkpt>
		<trkpt lat="39.4752235412598" lon="2.7460618019104">
			<ele>119.599998474121</ele>
			<time>2014-01-02T10:30:29Z</time>
		</trkpt>
		<trkpt lat="39.4751663208008" lon="2.74607539176941">
			<ele>120</ele>
			<time>2014-01-02T10:30:31Z</time>
		</trkpt>
		<trkpt lat="39.4751129150391" lon="2.74609184265137">
			<ele>120</ele>
			<time>2014-01-02T10:30:33Z</time>
		</trkpt>
		<trkpt lat="39.4750633239746" lon="2.74610829353333">
			<ele>120.099998474121</ele>
			<time>2014-01-02T10:30:35Z</time>
		</trkpt>
		<trkpt lat="39.4750099182129" lon="2.74612593650818">
			<ele>120.199996948242</ele>
			<time>2014-01-02T10:30:37Z</time>
		</trkpt>
		<trkpt lat="39.4749641418457" lon="2.74613523483276">
			<ele>120.199996948242</ele>
			<time>2014-01-02T10:30:39Z</time>
		</trkpt>
		<trkpt lat="39.474910736084" lon="2.74615526199341">
			<ele>120.400001525879</ele>
			<time>2014-01-02T10:30:41Z</time>
		</trkpt>
		<trkpt lat="39.4748649597168" lon="2.7461724281311">
			<ele>120.400001525879</ele>
			<time>2014-01-02T10:30:43Z</time>
		</trkpt>
		<trkpt lat="39.4748115539551" lon="2.74617910385132">
			<ele>121.5</ele>
			<time>2014-01-02T10:30:45Z</time>
		</trkpt>
		<trkpt lat="39.4747619628906" lon="2.74619364738464">
			<ele>121.699996948242</ele>
			<time>2014-01-02T10:30:47Z</time>
		</trkpt>
		<trkpt lat="39.4747047424316" lon="2.74620962142944">
			<ele>121.699996948242</ele>
			<time>2014-01-02T10:30:49Z</time>
		</trkpt>
		<trkpt lat="39.4746551513672" lon="2.74622201919556">
			<ele>122</ele>
			<time>2014-01-02T10:30:51Z</time>
		</trkpt>
		<trkpt lat="39.4746017456055" lon="2.74623799324036">
			<ele>122.199996948242</ele>
			<time>2014-01-02T10:30:53Z</time>
		</trkpt>
		<trkpt lat="39.474552154541" lon="2.746253490448">
			<ele>122.099998474121</ele>
			<time>2014-01-02T10:30:55Z</time>
		</trkpt>
		<trkpt lat="39.4744987487793" lon="2.74626898765564">
			<ele>122.199996948242</ele>
			<time>2014-01-02T10:30:57Z</time>
		</trkpt>
		<trkpt lat="39.4744491577148" lon="2.74628686904907">
			<ele>122.199996948242</ele>
			<time>2014-01-02T10:30:59Z</time>
		</trkpt>
		<trkpt lat="39.4743957519531" lon="2.74629712104797">
			<ele>122.699996948242</ele>
			<time>2014-01-02T10:31:01Z</time>
		</trkpt>
		<trkpt lat="39.4743423461914" lon="2.74631118774414">
			<ele>123</ele>
			<time>2014-01-02T10:31:03Z</time>
		</trkpt>
		<trkpt lat="39.474292755127" lon="2.74632382392883">
			<ele>123</ele>
			<time>2014-01-02T10:31:05Z</time>
		</trkpt>
		<trkpt lat="39.4742393493652" lon="2.74633431434631">
			<ele>123.5</ele>
			<time>2014-01-02T10:31:07Z</time>
		</trkpt>
		<trkpt lat="39.4741859436035" lon="2.7463493347168">
			<ele>123.900001525879</ele>
			<time>2014-01-02T10:31:09Z</time>
		</trkpt>
		<trkpt lat="39.4741363525391" lon="2.74636006355286">
			<ele>123.900001525879</ele>
			<time>2014-01-02T10:31:11Z</time>
		</trkpt>
		<trkpt lat="39.4740829467773" lon="2.7463641166687">
			<ele>124.800003051758</ele>
			<time>2014-01-02T10:31:13Z</time>
		</trkpt>
		<trkpt lat="39.4740333557129" lon="2.74637126922607">
			<ele>125</ele>
			<time>2014-01-02T10:31:15Z</time>
		</trkpt>
		<trkpt lat="39.4739837646484" lon="2.74638915061951">
			<ele>125.199996948242</ele>
			<time>2014-01-02T10:31:17Z</time>
		</trkpt>
		<trkpt lat="39.473934173584" lon="2.74640536308289">
			<ele>125.5</ele>
			<time>2014-01-02T10:31:19Z</time>
		</trkpt>
		<trkpt lat="39.473876953125" lon="2.746422290802">
			<ele>126.199996948242</ele>
			<time>2014-01-02T10:31:21Z</time>
		</trkpt>
		<trkpt lat="39.4738311767578" lon="2.74644088745117">
			<ele>125.5</ele>
			<time>2014-01-02T10:31:23Z</time>
		</trkpt>
		<trkpt lat="39.4737815856934" lon="2.74645972251892">
			<ele>125.300003051758</ele>
			<time>2014-01-02T10:31:25Z</time>
		</trkpt>
		<trkpt lat="39.4737319946289" lon="2.74647402763367">
			<ele>125.699996948242</ele>
			<time>2014-01-02T10:31:27Z</time>
		</trkpt>
		<trkpt lat="39.4736785888672" lon="2.7464861869812">
			<ele>125.5</ele>
			<time>2014-01-02T10:31:29Z</time>
		</trkpt>
		<trkpt lat="39.4736289978027" lon="2.74649834632874">
			<ele>125.599998474121</ele>
			<time>2014-01-02T10:31:31Z</time>
		</trkpt>
		<trkpt lat="39.4735794067383" lon="2.74651384353638">
			<ele>125.800003051758</ele>
			<time>2014-01-02T10:31:33Z</time>
		</trkpt>
		<trkpt lat="39.4735260009766" lon="2.74652314186096">
			<ele>125.900001525879</ele>
			<time>2014-01-02T10:31:35Z</time>
		</trkpt>
		<trkpt lat="39.4734725952148" lon="2.7465353012085">
			<ele>126</ele>
			<time>2014-01-02T10:31:37Z</time>
		</trkpt>
		<trkpt lat="39.4734230041504" lon="2.74655246734619">
			<ele>126.5</ele>
			<time>2014-01-02T10:31:39Z</time>
		</trkpt>
		<trkpt lat="39.4733657836914" lon="2.74656629562378">
			<ele>126.800003051758</ele>
			<time>2014-01-02T10:31:41Z</time>
		</trkpt>
		<trkpt lat="39.4733123779297" lon="2.74657273292542">
			<ele>127.400001525879</ele>
			<time>2014-01-02T10:31:43Z</time>
		</trkpt>
		<trkpt lat="39.4732627868652" lon="2.74659061431885">
			<ele>127.099998474121</ele>
			<time>2014-01-02T10:31:45Z</time>
		</trkpt>
		<trkpt lat="39.4732093811035" lon="2.74660205841064">
			<ele>127.199996948242</ele>
			<time>2014-01-02T10:31:47Z</time>
		</trkpt>
		<trkpt lat="39.4731636047363" lon="2.74662089347839">
			<ele>126.900001525879</ele>
			<time>2014-01-02T10:31:49Z</time>
		</trkpt>
		<trkpt lat="39.4731101989746" lon="2.74663376808167">
			<ele>126.900001525879</ele>
			<time>2014-01-02T10:31:51Z</time>
		</trkpt>
		<trkpt lat="39.4730606079102" lon="2.74663949012756">
			<ele>127.300003051758</ele>
			<time>2014-01-02T10:31:53Z</time>
		</trkpt>
		<trkpt lat="39.4730033874512" lon="2.74665522575378">
			<ele>127.800003051758</ele>
			<time>2014-01-02T10:31:55Z</time>
		</trkpt>
		<trkpt lat="39.4729537963867" lon="2.74667000770569">
			<ele>127.800003051758</ele>
			<time>2014-01-02T10:31:57Z</time>
		</trkpt>
		<trkpt lat="39.472900390625" lon="2.74668669700623">
			<ele>127.900001525879</ele>
			<time>2014-01-02T10:31:59Z</time>
		</trkpt>
		<trkpt lat="39.4728507995605" lon="2.74669933319092">
			<ele>128.399993896484</ele>
			<time>2014-01-02T10:32:01Z</time>
		</trkpt>
		<trkpt lat="39.4727973937988" lon="2.74670958518982">
			<ele>128.699996948242</ele>
			<time>2014-01-02T10:32:03Z</time>
		</trkpt>
		<trkpt lat="39.4727516174316" lon="2.74672317504883">
			<ele>128.699996948242</ele>
			<time>2014-01-02T10:32:05Z</time>
		</trkpt>
		<trkpt lat="39.4727058410645" lon="2.74673628807068">
			<ele>128.800003051758</ele>
			<time>2014-01-02T10:32:07Z</time>
		</trkpt>
		<trkpt lat="39.47265625" lon="2.74674510955811">
			<ele>129.100006103516</ele>
			<time>2014-01-02T10:32:09Z</time>
		</trkpt>
		<trkpt lat="39.4726104736328" lon="2.74675798416138">
			<ele>129.100006103516</ele>
			<time>2014-01-02T10:32:11Z</time>
		</trkpt>
		<trkpt lat="39.4725608825684" lon="2.74677205085754">
			<ele>129.300003051758</ele>
			<time>2014-01-02T10:32:13Z</time>
		</trkpt>
		<trkpt lat="39.4725151062012" lon="2.74678611755371">
			<ele>129.699996948242</ele>
			<time>2014-01-02T10:32:15Z</time>
		</trkpt>
		<trkpt lat="39.4724655151367" lon="2.74679946899414">
			<ele>129.699996948242</ele>
			<time>2014-01-02T10:32:17Z</time>
		</trkpt>
		<trkpt lat="39.4724197387695" lon="2.74680852890015">
			<ele>130</ele>
			<time>2014-01-02T10:32:19Z</time>
		</trkpt>
		<trkpt lat="39.4723701477051" lon="2.74681687355042">
			<ele>130.699996948242</ele>
			<time>2014-01-02T10:32:21Z</time>
		</trkpt>
		<trkpt lat="39.4723205566406" lon="2.7468273639679">
			<ele>131.199996948242</ele>
			<time>2014-01-02T10:32:23Z</time>
		</trkpt>
		<trkpt lat="39.4722671508789" lon="2.74683928489685">
			<ele>131.600006103516</ele>
			<time>2014-01-02T10:32:25Z</time>
		</trkpt>
		<trkpt lat="39.4722137451172" lon="2.74685311317444">
			<ele>131.899993896484</ele>
			<time>2014-01-02T10:32:27Z</time>
		</trkpt>
		<trkpt lat="39.4721641540527" lon="2.74686694145203">
			<ele>132.300003051758</ele>
			<time>2014-01-02T10:32:29Z</time>
		</trkpt>
		<trkpt lat="39.4721145629883" lon="2.74688625335693">
			<ele>131.899993896484</ele>
			<time>2014-01-02T10:32:31Z</time>
		</trkpt>
		<trkpt lat="39.4720611572266" lon="2.74689960479736">
			<ele>132.399993896484</ele>
			<time>2014-01-02T10:32:33Z</time>
		</trkpt>
		<trkpt lat="39.4720115661621" lon="2.74691534042358">
			<ele>132.5</ele>
			<time>2014-01-02T10:32:35Z</time>
		</trkpt>
		<trkpt lat="39.4719619750977" lon="2.74693202972412">
			<ele>132.600006103516</ele>
			<time>2014-01-02T10:32:37Z</time>
		</trkpt>
		<trkpt lat="39.4719161987305" lon="2.74694299697876">
			<ele>132.899993896484</ele>
			<time>2014-01-02T10:32:39Z</time>
		</trkpt>
		<trkpt lat="39.471866607666" lon="2.74695158004761">
			<ele>132.800003051758</ele>
			<time>2014-01-02T10:32:41Z</time>
		</trkpt>
		<trkpt lat="39.4718170166016" lon="2.74696755409241">
			<ele>132.699996948242</ele>
			<time>2014-01-02T10:32:43Z</time>
		</trkpt>
		<trkpt lat="39.4717712402344" lon="2.7469847202301">
			<ele>132.600006103516</ele>
			<time>2014-01-02T10:32:45Z</time>
		</trkpt>
		<trkpt lat="39.4717254638672" lon="2.74700021743774">
			<ele>132.5</ele>
			<time>2014-01-02T10:32:47Z</time>
		</trkpt>
		<trkpt lat="39.4716758728027" lon="2.74700736999512">
			<ele>132.800003051758</ele>
			<time>2014-01-02T10:32:49Z</time>
		</trkpt>
		<trkpt lat="39.4716262817383" lon="2.74701976776123">
			<ele>133</ele>
			<time>2014-01-02T10:32:51Z</time>
		</trkpt>
		<trkpt lat="39.4715805053711" lon="2.74703073501587">
			<ele>133.300003051758</ele>
			<time>2014-01-02T10:32:53Z</time>
		</trkpt>
		<trkpt lat="39.4715309143066" lon="2.74704551696777">
			<ele>133.5</ele>
			<time>2014-01-02T10:32:55Z</time>
		</trkpt>
		<trkpt lat="39.4714813232422" lon="2.74705862998962">
			<ele>133.699996948242</ele>
			<time>2014-01-02T10:32:57Z</time>
		</trkpt>
		<trkpt lat="39.471435546875" lon="2.74707007408142">
			<ele>133.899993896484</ele>
			<time>2014-01-02T10:32:59Z</time>
		</trkpt>
		<trkpt lat="39.4713821411133" lon="2.74708199501038">
			<ele>134.600006103516</ele>
			<time>2014-01-02T10:33:01Z</time>
		</trkpt>
		<trkpt lat="39.4713325500488" lon="2.74709415435791">
			<ele>134.800003051758</ele>
			<time>2014-01-02T10:33:03Z</time>
		</trkpt>
		<trkpt lat="39.4712867736816" lon="2.74710655212402">
			<ele>134.5</ele>
			<time>2014-01-02T10:33:05Z</time>
		</trkpt>
		<trkpt lat="39.4712333679199" lon="2.74711656570435">
			<ele>134.800003051758</ele>
			<time>2014-01-02T10:33:07Z</time>
		</trkpt>
		<trkpt lat="39.4711875915527" lon="2.74713039398193">
			<ele>135.300003051758</ele>
			<time>2014-01-02T10:33:09Z</time>
		</trkpt>
		<trkpt lat="39.4711418151855" lon="2.74714469909668">
			<ele>135.300003051758</ele>
			<time>2014-01-02T10:33:11Z</time>
		</trkpt>
		<trkpt lat="39.4710960388184" lon="2.74715542793274">
			<ele>135.600006103516</ele>
			<time>2014-01-02T10:33:13Z</time>
		</trkpt>
		<trkpt lat="39.4710464477539" lon="2.74716711044312">
			<ele>135.899993896484</ele>
			<time>2014-01-02T10:33:15Z</time>
		</trkpt>
		<trkpt lat="39.4709968566895" lon="2.74717664718628">
			<ele>136.199996948242</ele>
			<time>2014-01-02T10:33:17Z</time>
		</trkpt>
		<trkpt lat="39.470947265625" lon="2.74719142913818">
			<ele>136.5</ele>
			<time>2014-01-02T10:33:19Z</time>
		</trkpt>
		<trkpt lat="39.4708976745605" lon="2.7472038269043">
			<ele>136.699996948242</ele>
			<time>2014-01-02T10:33:21Z</time>
		</trkpt>
		<trkpt lat="39.4708442687988" lon="2.74721670150757">
			<ele>137.199996948242</ele>
			<time>2014-01-02T10:33:23Z</time>
		</trkpt>
		<trkpt lat="39.4707984924316" lon="2.74723529815674">
			<ele>137.399993896484</ele>
			<time>2014-01-02T10:33:25Z</time>
		</trkpt>
		<trkpt lat="39.4707527160645" lon="2.74725437164307">
			<ele>137.5</ele>
			<time>2014-01-02T10:33:27Z</time>
		</trkpt>
		<trkpt lat="39.4707069396973" lon="2.74725890159607">
			<ele>138</ele>
			<time>2014-01-02T10:33:29Z</time>
		</trkpt>
		<trkpt lat="39.4706573486328" lon="2.74727296829224">
			<ele>138.800003051758</ele>
			<time>2014-01-02T10:33:31Z</time>
		</trkpt>
		<trkpt lat="39.4706115722656" lon="2.74728894233704">
			<ele>139.600006103516</ele>
			<time>2014-01-02T10:33:33Z</time>
		</trkpt>
		<trkpt lat="39.4705619812012" lon="2.74729490280151">
			<ele>139.800003051758</ele>
			<time>2014-01-02T10:33:35Z</time>
		</trkpt>
		<trkpt lat="39.4705123901367" lon="2.74730706214905">
			<ele>140.199996948242</ele>
			<time>2014-01-02T10:33:37Z</time>
		</trkpt>
		<trkpt lat="39.4704704284668" lon="2.74732208251953">
			<ele>140.399993896484</ele>
			<time>2014-01-02T10:33:39Z</time>
		</trkpt>
		<trkpt lat="39.4704208374023" lon="2.74733376502991">
			<ele>140.600006103516</ele>
			<time>2014-01-02T10:33:41Z</time>
		</trkpt>
		<trkpt lat="39.4703712463379" lon="2.7473452091217">
			<ele>141.300003051758</ele>
			<time>2014-01-02T10:33:43Z</time>
		</trkpt>
		<trkpt lat="39.4703178405762" lon="2.74735522270203">
			<ele>141.699996948242</ele>
			<time>2014-01-02T10:33:45Z</time>
		</trkpt>
		<trkpt lat="39.470272064209" lon="2.74736928939819">
			<ele>141.800003051758</ele>
			<time>2014-01-02T10:33:47Z</time>
		</trkpt>
		<trkpt lat="39.4702262878418" lon="2.74738335609436">
			<ele>142.100006103516</ele>
			<time>2014-01-02T10:33:49Z</time>
		</trkpt>
		<trkpt lat="39.4701766967773" lon="2.74739742279053">
			<ele>142.5</ele>
			<time>2014-01-02T10:33:51Z</time>
		</trkpt>
		<trkpt lat="39.4701232910156" lon="2.74741125106812">
			<ele>143</ele>
			<time>2014-01-02T10:33:53Z</time>
		</trkpt>
		<trkpt lat="39.4700736999512" lon="2.74742794036865">
			<ele>143.399993896484</ele>
			<time>2014-01-02T10:33:55Z</time>
		</trkpt>
		<trkpt lat="39.4700202941895" lon="2.7474377155304">
			<ele>143.699996948242</ele>
			<time>2014-01-02T10:33:57Z</time>
		</trkpt>
		<trkpt lat="39.469970703125" lon="2.74745011329651">
			<ele>143.800003051758</ele>
			<time>2014-01-02T10:33:59Z</time>
		</trkpt>
		<trkpt lat="39.4699211120605" lon="2.74745774269104">
			<ele>143.899993896484</ele>
			<time>2014-01-02T10:34:01Z</time>
		</trkpt>
		<trkpt lat="39.4698486328125" lon="2.74747776985168">
			<ele>144.100006103516</ele>
			<time>2014-01-02T10:34:04Z</time>
		</trkpt>
		<trkpt lat="39.469799041748" lon="2.7474889755249">
			<ele>144.199996948242</ele>
			<time>2014-01-02T10:34:06Z</time>
		</trkpt>
		<trkpt lat="39.4697494506836" lon="2.74750399589539">
			<ele>144.699996948242</ele>
			<time>2014-01-02T10:34:08Z</time>
		</trkpt>
		<trkpt lat="39.4697036743164" lon="2.74751424789429">
			<ele>145.199996948242</ele>
			<time>2014-01-02T10:34:10Z</time>
		</trkpt>
		<trkpt lat="39.4696502685547" lon="2.74752807617188">
			<ele>145.399993896484</ele>
			<time>2014-01-02T10:34:12Z</time>
		</trkpt>
		<trkpt lat="39.4696006774902" lon="2.7475380897522">
			<ele>145.699996948242</ele>
			<time>2014-01-02T10:34:14Z</time>
		</trkpt>
		<trkpt lat="39.4695510864258" lon="2.74755072593689">
			<ele>145.800003051758</ele>
			<time>2014-01-02T10:34:16Z</time>
		</trkpt>
		<trkpt lat="39.4695053100586" lon="2.74756217002869">
			<ele>146.100006103516</ele>
			<time>2014-01-02T10:34:18Z</time>
		</trkpt>
		<trkpt lat="39.4694557189941" lon="2.74757695198059">
			<ele>146.199996948242</ele>
			<time>2014-01-02T10:34:20Z</time>
		</trkpt>
		<trkpt lat="39.4694061279297" lon="2.74758791923523">
			<ele>146.199996948242</ele>
			<time>2014-01-02T10:34:22Z</time>
		</trkpt>
		<trkpt lat="39.4693565368652" lon="2.74760174751282">
			<ele>146.5</ele>
			<time>2014-01-02T10:34:24Z</time>
		</trkpt>
		<trkpt lat="39.4693069458008" lon="2.74761509895325">
			<ele>146.800003051758</ele>
			<time>2014-01-02T10:34:26Z</time>
		</trkpt>
		<trkpt lat="39.4692611694336" lon="2.74762940406799">
			<ele>147.199996948242</ele>
			<time>2014-01-02T10:34:28Z</time>
		</trkpt>
		<trkpt lat="39.4692115783691" lon="2.74764227867126">
			<ele>147.600006103516</ele>
			<time>2014-01-02T10:34:30Z</time>
		</trkpt>
		<trkpt lat="39.4691619873047" lon="2.74765348434448">
			<ele>147.600006103516</ele>
			<time>2014-01-02T10:34:32Z</time>
		</trkpt>
		<trkpt lat="39.4691123962402" lon="2.74766778945923">
			<ele>147.800003051758</ele>
			<time>2014-01-02T10:34:34Z</time>
		</trkpt>
		<trkpt lat="39.4690628051758" lon="2.74767899513245">
			<ele>148.199996948242</ele>
			<time>2014-01-02T10:34:36Z</time>
		</trkpt>
		<trkpt lat="39.4690132141113" lon="2.74769020080566">
			<ele>148.100006103516</ele>
			<time>2014-01-02T10:34:38Z</time>
		</trkpt>
		<trkpt lat="39.4689598083496" lon="2.7477023601532">
			<ele>148.5</ele>
			<time>2014-01-02T10:34:40Z</time>
		</trkpt>
		<trkpt lat="39.4689102172852" lon="2.74771928787231">
			<ele>148.699996948242</ele>
			<time>2014-01-02T10:34:42Z</time>
		</trkpt>
		<trkpt lat="39.4688568115234" lon="2.74773144721985">
			<ele>148.800003051758</ele>
			<time>2014-01-02T10:34:44Z</time>
		</trkpt>
		<trkpt lat="39.4688034057617" lon="2.74774861335754">
			<ele>148.699996948242</ele>
			<time>2014-01-02T10:34:46Z</time>
		</trkpt>
		<trkpt lat="39.4687461853027" lon="2.74776434898376">
			<ele>148.600006103516</ele>
			<time>2014-01-02T10:34:48Z</time>
		</trkpt>
		<trkpt lat="39.468692779541" lon="2.74777507781982">
			<ele>148.5</ele>
			<time>2014-01-02T10:34:50Z</time>
		</trkpt>
		<trkpt lat="39.4686393737793" lon="2.74778866767883">
			<ele>148.600006103516</ele>
			<time>2014-01-02T10:34:52Z</time>
		</trkpt>
		<trkpt lat="39.4685935974121" lon="2.74780011177063">
			<ele>149</ele>
			<time>2014-01-02T10:34:54Z</time>
		</trkpt>
		<trkpt lat="39.4685287475586" lon="2.74779653549194">
			<ele>148.899993896484</ele>
			<time>2014-01-02T10:34:57Z</time>
		</trkpt>
		<trkpt lat="39.4684829711914" lon="2.74782586097717">
			<ele>148.699996948242</ele>
			<time>2014-01-02T10:35:00Z</time>
		</trkpt>
		<trkpt lat="39.468505859375" lon="2.74777221679688">
			<ele>146.600006103516</ele>
			<time>2014-01-02T10:35:51Z</time>
		</trkpt>
		<trkpt lat="39.4685325622559" lon="2.74782752990723">
			<ele>142.899993896484</ele>
			<time>2014-01-02T10:40:32Z</time>
		</trkpt>
		<trkpt lat="39.4684906005859" lon="2.74785232543945">
			<ele>144.399993896484</ele>
			<time>2014-01-02T10:40:46Z</time>
		</trkpt>
		<trkpt lat="39.4684371948242" lon="2.74785089492798">
			<ele>145</ele>
			<time>2014-01-02T10:41:00Z</time>
		</trkpt>
		<trkpt lat="39.4683799743652" lon="2.74786019325256">
			<ele>145.300003051758</ele>
			<time>2014-01-02T10:41:03Z</time>
		</trkpt>
		<trkpt lat="39.4683303833008" lon="2.74786972999573">
			<ele>145.399993896484</ele>
			<time>2014-01-02T10:41:05Z</time>
		</trkpt>
		<trkpt lat="39.4682693481445" lon="2.74787902832031">
			<ele>145.800003051758</ele>
			<time>2014-01-02T10:41:07Z</time>
		</trkpt>
		<trkpt lat="39.4682121276855" lon="2.747891664505">
			<ele>145.699996948242</ele>
			<time>2014-01-02T10:41:09Z</time>
		</trkpt>
		<trkpt lat="39.468147277832" lon="2.7479088306427">
			<ele>145.800003051758</ele>
			<time>2014-01-02T10:41:11Z</time>
		</trkpt>
		<trkpt lat="39.4680862426758" lon="2.74792456626892">
			<ele>145.699996948242</ele>
			<time>2014-01-02T10:41:13Z</time>
		</trkpt>
		<trkpt lat="39.4680213928223" lon="2.74793791770935">
			<ele>146</ele>
			<time>2014-01-02T10:41:15Z</time>
		</trkpt>
		<trkpt lat="39.4679527282715" lon="2.74795699119568">
			<ele>146.300003051758</ele>
			<time>2014-01-02T10:41:17Z</time>
		</trkpt>
		<trkpt lat="39.4678802490234" lon="2.74797248840332">
			<ele>146.600006103516</ele>
			<time>2014-01-02T10:41:19Z</time>
		</trkpt>
		<trkpt lat="39.4678039550781" lon="2.74799537658691">
			<ele>146.800003051758</ele>
			<time>2014-01-02T10:41:21Z</time>
		</trkpt>
		<trkpt lat="39.4677314758301" lon="2.7480137348175">
			<ele>147.199996948242</ele>
			<time>2014-01-02T10:41:23Z</time>
		</trkpt>
		<trkpt lat="39.467658996582" lon="2.74803400039673">
			<ele>147.399993896484</ele>
			<time>2014-01-02T10:41:25Z</time>
		</trkpt>
		<trkpt lat="39.467586517334" lon="2.74805021286011">
			<ele>147.699996948242</ele>
			<time>2014-01-02T10:41:27Z</time>
		</trkpt>
		<trkpt lat="39.4675140380859" lon="2.74806427955627">
			<ele>148</ele>
			<time>2014-01-02T10:41:29Z</time>
		</trkpt>
		<trkpt lat="39.4674377441406" lon="2.74807906150818">
			<ele>148.300003051758</ele>
			<time>2014-01-02T10:41:31Z</time>
		</trkpt>
		<trkpt lat="39.4673652648926" lon="2.74809861183167">
			<ele>148.600006103516</ele>
			<time>2014-01-02T10:41:33Z</time>
		</trkpt>
		<trkpt lat="39.4672927856445" lon="2.74811315536499">
			<ele>148.699996948242</ele>
			<time>2014-01-02T10:41:35Z</time>
		</trkpt>
		<trkpt lat="39.4672203063965" lon="2.74813151359558">
			<ele>149</ele>
			<time>2014-01-02T10:41:37Z</time>
		</trkpt>
		<trkpt lat="39.4671478271484" lon="2.74814796447754">
			<ele>149.300003051758</ele>
			<time>2014-01-02T10:41:39Z</time>
		</trkpt>
		<trkpt lat="39.4670791625977" lon="2.74816608428955">
			<ele>149.600006103516</ele>
			<time>2014-01-02T10:41:41Z</time>
		</trkpt>
		<trkpt lat="39.4670104980469" lon="2.74818181991577">
			<ele>150</ele>
			<time>2014-01-02T10:41:43Z</time>
		</trkpt>
		<trkpt lat="39.4669418334961" lon="2.74819564819336">
			<ele>150.199996948242</ele>
			<time>2014-01-02T10:41:45Z</time>
		</trkpt>
		<trkpt lat="39.4668769836426" lon="2.74820971488953">
			<ele>150.199996948242</ele>
			<time>2014-01-02T10:41:47Z</time>
		</trkpt>
		<trkpt lat="39.4668121337891" lon="2.74822974205017">
			<ele>150.300003051758</ele>
			<time>2014-01-02T10:41:49Z</time>
		</trkpt>
		<trkpt lat="39.4667434692383" lon="2.7482488155365">
			<ele>150.300003051758</ele>
			<time>2014-01-02T10:41:51Z</time>
		</trkpt>
		<trkpt lat="39.4666786193848" lon="2.74826622009277">
			<ele>150.199996948242</ele>
			<time>2014-01-02T10:41:53Z</time>
		</trkpt>
		<trkpt lat="39.466609954834" lon="2.74828433990479">
			<ele>150.199996948242</ele>
			<time>2014-01-02T10:41:55Z</time>
		</trkpt>
		<trkpt lat="39.4665412902832" lon="2.74830484390259">
			<ele>150.300003051758</ele>
			<time>2014-01-02T10:41:57Z</time>
		</trkpt>
		<trkpt lat="39.4664764404297" lon="2.74832725524902">
			<ele>150</ele>
			<time>2014-01-02T10:41:59Z</time>
		</trkpt>
		<trkpt lat="39.4664115905762" lon="2.74834728240967">
			<ele>149.699996948242</ele>
			<time>2014-01-02T10:42:01Z</time>
		</trkpt>
		<trkpt lat="39.4663429260254" lon="2.74836802482605">
			<ele>149.699996948242</ele>
			<time>2014-01-02T10:42:03Z</time>
		</trkpt>
		<trkpt lat="39.4662742614746" lon="2.74838161468506">
			<ele>149.899993896484</ele>
			<time>2014-01-02T10:42:05Z</time>
		</trkpt>
		<trkpt lat="39.4662055969238" lon="2.74840021133423">
			<ele>149.699996948242</ele>
			<time>2014-01-02T10:42:07Z</time>
		</trkpt>
		<trkpt lat="39.4661331176758" lon="2.74841856956482">
			<ele>149.899993896484</ele>
			<time>2014-01-02T10:42:09Z</time>
		</trkpt>
		<trkpt lat="39.466064453125" lon="2.74843645095825">
			<ele>150</ele>
			<time>2014-01-02T10:42:11Z</time>
		</trkpt>
		<trkpt lat="39.465991973877" lon="2.74845409393311">
			<ele>150.300003051758</ele>
			<time>2014-01-02T10:42:13Z</time>
		</trkpt>
		<trkpt lat="39.4659233093262" lon="2.74847269058228">
			<ele>150.399993896484</ele>
			<time>2014-01-02T10:42:15Z</time>
		</trkpt>
		<trkpt lat="39.4658546447754" lon="2.74848866462708">
			<ele>150.699996948242</ele>
			<time>2014-01-02T10:42:17Z</time>
		</trkpt>
		<trkpt lat="39.4657897949219" lon="2.74850511550903">
			<ele>150.899993896484</ele>
			<time>2014-01-02T10:42:19Z</time>
		</trkpt>
		<trkpt lat="39.4657249450684" lon="2.74852275848389">
			<ele>150.899993896484</ele>
			<time>2014-01-02T10:42:21Z</time>
		</trkpt>
		<trkpt lat="39.4656562805176" lon="2.74854230880737">
			<ele>151.300003051758</ele>
			<time>2014-01-02T10:42:23Z</time>
		</trkpt>
		<trkpt lat="39.4655876159668" lon="2.74855828285217">
			<ele>151.5</ele>
			<time>2014-01-02T10:42:25Z</time>
		</trkpt>
		<trkpt lat="39.465518951416" lon="2.74857378005981">
			<ele>151.600006103516</ele>
			<time>2014-01-02T10:42:27Z</time>
		</trkpt>
		<trkpt lat="39.4654502868652" lon="2.74859213829041">
			<ele>151.899993896484</ele>
			<time>2014-01-02T10:42:29Z</time>
		</trkpt>
		<trkpt lat="39.4653816223145" lon="2.74860787391663">
			<ele>152.199996948242</ele>
			<time>2014-01-02T10:42:31Z</time>
		</trkpt>
		<trkpt lat="39.4653167724609" lon="2.74862670898438">
			<ele>152.5</ele>
			<time>2014-01-02T10:42:33Z</time>
		</trkpt>
		<trkpt lat="39.4652481079102" lon="2.74864315986633">
			<ele>152.600006103516</ele>
			<time>2014-01-02T10:42:35Z</time>
		</trkpt>
		<trkpt lat="39.4651794433594" lon="2.74865984916687">
			<ele>152.800003051758</ele>
			<time>2014-01-02T10:42:37Z</time>
		</trkpt>
		<trkpt lat="39.4651107788086" lon="2.7486743927002">
			<ele>153</ele>
			<time>2014-01-02T10:42:39Z</time>
		</trkpt>
		<trkpt lat="39.4650459289551" lon="2.74869441986084">
			<ele>153.399993896484</ele>
			<time>2014-01-02T10:42:41Z</time>
		</trkpt>
		<trkpt lat="39.464973449707" lon="2.74871277809143">
			<ele>153.699996948242</ele>
			<time>2014-01-02T10:42:43Z</time>
		</trkpt>
		<trkpt lat="39.4649047851563" lon="2.74873161315918">
			<ele>153.800003051758</ele>
			<time>2014-01-02T10:42:45Z</time>
		</trkpt>
		<trkpt lat="39.4648361206055" lon="2.74874544143677">
			<ele>154</ele>
			<time>2014-01-02T10:42:47Z</time>
		</trkpt>
		<trkpt lat="39.4647674560547" lon="2.74876427650452">
			<ele>154.100006103516</ele>
			<time>2014-01-02T10:42:49Z</time>
		</trkpt>
		<trkpt lat="39.4647026062012" lon="2.74878525733948">
			<ele>153.800003051758</ele>
			<time>2014-01-02T10:42:51Z</time>
		</trkpt>
		<trkpt lat="39.4646377563477" lon="2.74880576133728">
			<ele>154.199996948242</ele>
			<time>2014-01-02T10:42:53Z</time>
		</trkpt>
		<trkpt lat="39.4645652770996" lon="2.74882340431213">
			<ele>154.100006103516</ele>
			<time>2014-01-02T10:42:55Z</time>
		</trkpt>
		<trkpt lat="39.4644889831543" lon="2.74884605407715">
			<ele>154.100006103516</ele>
			<time>2014-01-02T10:42:57Z</time>
		</trkpt>
		<trkpt lat="39.4644203186035" lon="2.74886989593506">
			<ele>154.399993896484</ele>
			<time>2014-01-02T10:42:59Z</time>
		</trkpt>
		<trkpt lat="39.4643478393555" lon="2.74889039993286">
			<ele>154.199996948242</ele>
			<time>2014-01-02T10:43:01Z</time>
		</trkpt>
		<trkpt lat="39.4642753601074" lon="2.74891495704651">
			<ele>154.399993896484</ele>
			<time>2014-01-02T10:43:03Z</time>
		</trkpt>
		<trkpt lat="39.4642028808594" lon="2.74894070625305">
			<ele>154.5</ele>
			<time>2014-01-02T10:43:05Z</time>
		</trkpt>
		<trkpt lat="39.4641265869141" lon="2.74896430969238">
			<ele>154.199996948242</ele>
			<time>2014-01-02T10:43:07Z</time>
		</trkpt>
		<trkpt lat="39.4640579223633" lon="2.74899244308472">
			<ele>154</ele>
			<time>2014-01-02T10:43:09Z</time>
		</trkpt>
		<trkpt lat="39.463981628418" lon="2.74901747703552">
			<ele>154</ele>
			<time>2014-01-02T10:43:11Z</time>
		</trkpt>
		<trkpt lat="39.4639091491699" lon="2.74904608726501">
			<ele>153.899993896484</ele>
			<time>2014-01-02T10:43:13Z</time>
		</trkpt>
		<trkpt lat="39.4638366699219" lon="2.74907088279724">
			<ele>154.100006103516</ele>
			<time>2014-01-02T10:43:15Z</time>
		</trkpt>
		<trkpt lat="39.4637641906738" lon="2.7490918636322">
			<ele>154.199996948242</ele>
			<time>2014-01-02T10:43:17Z</time>
		</trkpt>
		<trkpt lat="39.463695526123" lon="2.74911546707153">
			<ele>154.300003051758</ele>
			<time>2014-01-02T10:43:19Z</time>
		</trkpt>
		<trkpt lat="39.4636268615723" lon="2.74914240837097">
			<ele>154</ele>
			<time>2014-01-02T10:43:21Z</time>
		</trkpt>
		<trkpt lat="39.4635581970215" lon="2.74917006492615">
			<ele>154.199996948242</ele>
			<time>2014-01-02T10:43:23Z</time>
		</trkpt>
		<trkpt lat="39.4634857177734" lon="2.74919652938843">
			<ele>154.600006103516</ele>
			<time>2014-01-02T10:43:25Z</time>
		</trkpt>
		<trkpt lat="39.4634132385254" lon="2.74921894073486">
			<ele>154.699996948242</ele>
			<time>2014-01-02T10:43:27Z</time>
		</trkpt>
		<trkpt lat="39.4633445739746" lon="2.74924445152283">
			<ele>154.899993896484</ele>
			<time>2014-01-02T10:43:29Z</time>
		</trkpt>
		<trkpt lat="39.4632759094238" lon="2.74927639961243">
			<ele>154.699996948242</ele>
			<time>2014-01-02T10:43:31Z</time>
		</trkpt>
		<trkpt lat="39.4632034301758" lon="2.7493007183075">
			<ele>154.899993896484</ele>
			<time>2014-01-02T10:43:33Z</time>
		</trkpt>
		<trkpt lat="39.4631385803223" lon="2.74933290481567">
			<ele>154.300003051758</ele>
			<time>2014-01-02T10:43:35Z</time>
		</trkpt>
		<trkpt lat="39.463077545166" lon="2.74936866760254">
			<ele>153.300003051758</ele>
			<time>2014-01-02T10:43:37Z</time>
		</trkpt>
		<trkpt lat="39.4630126953125" lon="2.74939823150635">
			<ele>153</ele>
			<time>2014-01-02T10:43:39Z</time>
		</trkpt>
		<trkpt lat="39.462947845459" lon="2.74943280220032">
			<ele>152.300003051758</ele>
			<time>2014-01-02T10:43:41Z</time>
		</trkpt>
		<trkpt lat="39.4628791809082" lon="2.74946188926697">
			<ele>152</ele>
			<time>2014-01-02T10:43:43Z</time>
		</trkpt>
		<trkpt lat="39.4628143310547" lon="2.7494945526123">
			<ele>151.399993896484</ele>
			<time>2014-01-02T10:43:45Z</time>
		</trkpt>
		<trkpt lat="39.4627456665039" lon="2.74952840805054">
			<ele>151.100006103516</ele>
			<time>2014-01-02T10:43:47Z</time>
		</trkpt>
		<trkpt lat="39.4626770019531" lon="2.74956011772156">
			<ele>150.899993896484</ele>
			<time>2014-01-02T10:43:49Z</time>
		</trkpt>
		<trkpt lat="39.4626083374023" lon="2.74958968162537">
			<ele>150.899993896484</ele>
			<time>2014-01-02T10:43:51Z</time>
		</trkpt>
		<trkpt lat="39.4625358581543" lon="2.74962210655212">
			<ele>151</ele>
			<time>2014-01-02T10:43:53Z</time>
		</trkpt>
		<trkpt lat="39.4624671936035" lon="2.74965262413025">
			<ele>151.300003051758</ele>
			<time>2014-01-02T10:43:55Z</time>
		</trkpt>
		<trkpt lat="39.4623985290527" lon="2.74969005584717">
			<ele>150.899993896484</ele>
			<time>2014-01-02T10:43:57Z</time>
		</trkpt>
		<trkpt lat="39.462329864502" lon="2.74971842765808">
			<ele>151.100006103516</ele>
			<time>2014-01-02T10:43:59Z</time>
		</trkpt>
		<trkpt lat="39.4622650146484" lon="2.74975156784058">
			<ele>150.699996948242</ele>
			<time>2014-01-02T10:44:01Z</time>
		</trkpt>
		<trkpt lat="39.4622001647949" lon="2.74979066848755">
			<ele>150.399993896484</ele>
			<time>2014-01-02T10:44:03Z</time>
		</trkpt>
		<trkpt lat="39.4621315002441" lon="2.74982285499573">
			<ele>150</ele>
			<time>2014-01-02T10:44:05Z</time>
		</trkpt>
		<trkpt lat="39.4620628356934" lon="2.74984908103943">
			<ele>150.399993896484</ele>
			<time>2014-01-02T10:44:07Z</time>
		</trkpt>
		<trkpt lat="39.4619941711426" lon="2.74987936019897">
			<ele>150.600006103516</ele>
			<time>2014-01-02T10:44:09Z</time>
		</trkpt>
		<trkpt lat="39.4619216918945" lon="2.74991011619568">
			<ele>150.699996948242</ele>
			<time>2014-01-02T10:44:11Z</time>
		</trkpt>
		<trkpt lat="39.4618530273438" lon="2.74993872642517">
			<ele>150.800003051758</ele>
			<time>2014-01-02T10:44:13Z</time>
		</trkpt>
		<trkpt lat="39.4617805480957" lon="2.74997591972351">
			<ele>150.899993896484</ele>
			<time>2014-01-02T10:44:15Z</time>
		</trkpt>
		<trkpt lat="39.4617156982422" lon="2.75000786781311">
			<ele>150.399993896484</ele>
			<time>2014-01-02T10:44:17Z</time>
		</trkpt>
		<trkpt lat="39.4616432189941" lon="2.7500467300415">
			<ele>150.699996948242</ele>
			<time>2014-01-02T10:44:19Z</time>
		</trkpt>
		<trkpt lat="39.4615707397461" lon="2.7500786781311">
			<ele>150.600006103516</ele>
			<time>2014-01-02T10:44:21Z</time>
		</trkpt>
		<trkpt lat="39.461498260498" lon="2.75010800361633">
			<ele>150.5</ele>
			<time>2014-01-02T10:44:23Z</time>
		</trkpt>
		<trkpt lat="39.4614295959473" lon="2.75013995170593">
			<ele>150.600006103516</ele>
			<time>2014-01-02T10:44:25Z</time>
		</trkpt>
		<trkpt lat="39.4613609313965" lon="2.75017309188843">
			<ele>150.800003051758</ele>
			<time>2014-01-02T10:44:27Z</time>
		</trkpt>
		<trkpt lat="39.461296081543" lon="2.75020360946655">
			<ele>151.199996948242</ele>
			<time>2014-01-02T10:44:29Z</time>
		</trkpt>
		<trkpt lat="39.4612236022949" lon="2.75023627281189">
			<ele>151.399993896484</ele>
			<time>2014-01-02T10:44:31Z</time>
		</trkpt>
		<trkpt lat="39.4611549377441" lon="2.75026941299438">
			<ele>151.600006103516</ele>
			<time>2014-01-02T10:44:33Z</time>
		</trkpt>
		<trkpt lat="39.4610862731934" lon="2.75030779838562">
			<ele>151.899993896484</ele>
			<time>2014-01-02T10:44:35Z</time>
		</trkpt>
		<trkpt lat="39.4610176086426" lon="2.7503399848938">
			<ele>152</ele>
			<time>2014-01-02T10:44:37Z</time>
		</trkpt>
		<trkpt lat="39.4609489440918" lon="2.75037097930908">
			<ele>152.100006103516</ele>
			<time>2014-01-02T10:44:39Z</time>
		</trkpt>
		<trkpt lat="39.4608764648438" lon="2.75039982795715">
			<ele>152.399993896484</ele>
			<time>2014-01-02T10:44:41Z</time>
		</trkpt>
		<trkpt lat="39.4608116149902" lon="2.75043106079102">
			<ele>152</ele>
			<time>2014-01-02T10:44:43Z</time>
		</trkpt>
		<trkpt lat="39.4607429504395" lon="2.75046300888062">
			<ele>152.100006103516</ele>
			<time>2014-01-02T10:44:45Z</time>
		</trkpt>
		<trkpt lat="39.4606666564941" lon="2.75049638748169">
			<ele>152.600006103516</ele>
			<time>2014-01-02T10:44:47Z</time>
		</trkpt>
		<trkpt lat="39.4605941772461" lon="2.7505362033844">
			<ele>152.699996948242</ele>
			<time>2014-01-02T10:44:49Z</time>
		</trkpt>
		<trkpt lat="39.460521697998" lon="2.75057601928711">
			<ele>152.699996948242</ele>
			<time>2014-01-02T10:44:51Z</time>
		</trkpt>
		<trkpt lat="39.46044921875" lon="2.75061130523682">
			<ele>152.899993896484</ele>
			<time>2014-01-02T10:44:53Z</time>
		</trkpt>
		<trkpt lat="39.460376739502" lon="2.75065088272095">
			<ele>153</ele>
			<time>2014-01-02T10:44:55Z</time>
		</trkpt>
		<trkpt lat="39.4602966308594" lon="2.75068736076355">
			<ele>153.100006103516</ele>
			<time>2014-01-02T10:44:57Z</time>
		</trkpt>
		<trkpt lat="39.4602165222168" lon="2.75072956085205">
			<ele>153.5</ele>
			<time>2014-01-02T10:44:59Z</time>
		</trkpt>
		<trkpt lat="39.4601364135742" lon="2.75077223777771">
			<ele>153.399993896484</ele>
			<time>2014-01-02T10:45:01Z</time>
		</trkpt>
		<trkpt lat="39.4600944519043" lon="2.75079441070557">
			<ele>153.5</ele>
			<time>2014-01-02T10:45:02Z</time>
		</trkpt>
		<trkpt lat="39.4600105285645" lon="2.7508327960968">
			<ele>153.800003051758</ele>
			<time>2014-01-02T10:45:04Z</time>
		</trkpt>
		<trkpt lat="39.4599304199219" lon="2.75087666511536">
			<ele>153.600006103516</ele>
			<time>2014-01-02T10:45:06Z</time>
		</trkpt>
		<trkpt lat="39.459846496582" lon="2.75091981887817">
			<ele>153.800003051758</ele>
			<time>2014-01-02T10:45:08Z</time>
		</trkpt>
		<trkpt lat="39.4597663879395" lon="2.7509617805481">
			<ele>153.699996948242</ele>
			<time>2014-01-02T10:45:10Z</time>
		</trkpt>
		<trkpt lat="39.4596862792969" lon="2.75100612640381">
			<ele>153.800003051758</ele>
			<time>2014-01-02T10:45:12Z</time>
		</trkpt>
		<trkpt lat="39.4596099853516" lon="2.75105285644531">
			<ele>153.100006103516</ele>
			<time>2014-01-02T10:45:14Z</time>
		</trkpt>
		<trkpt lat="39.459529876709" lon="2.75109958648682">
			<ele>153.100006103516</ele>
			<time>2014-01-02T10:45:16Z</time>
		</trkpt>
		<trkpt lat="39.4594841003418" lon="2.75112152099609">
			<ele>153.199996948242</ele>
			<time>2014-01-02T10:45:17Z</time>
		</trkpt>
		<trkpt lat="39.4594421386719" lon="2.75114321708679">
			<ele>153.300003051758</ele>
			<time>2014-01-02T10:45:18Z</time>
		</trkpt>
		<trkpt lat="39.459400177002" lon="2.75116682052612">
			<ele>153.600006103516</ele>
			<time>2014-01-02T10:45:19Z</time>
		</trkpt>
		<trkpt lat="39.4593544006348" lon="2.7511875629425">
			<ele>153.600006103516</ele>
			<time>2014-01-02T10:45:20Z</time>
		</trkpt>
		<trkpt lat="39.4592704772949" lon="2.75122857093811">
			<ele>153.399993896484</ele>
			<time>2014-01-02T10:45:22Z</time>
		</trkpt>
		<trkpt lat="39.459228515625" lon="2.75125050544739">
			<ele>153.600006103516</ele>
			<time>2014-01-02T10:45:23Z</time>
		</trkpt>
		<trkpt lat="39.4591865539551" lon="2.75127077102661">
			<ele>153.600006103516</ele>
			<time>2014-01-02T10:45:24Z</time>
		</trkpt>
		<trkpt lat="39.4591026306152" lon="2.75131464004517">
			<ele>153.399993896484</ele>
			<time>2014-01-02T10:45:26Z</time>
		</trkpt>
		<trkpt lat="39.4590606689453" lon="2.75133419036865">
			<ele>153.5</ele>
			<time>2014-01-02T10:45:27Z</time>
		</trkpt>
		<trkpt lat="39.4590187072754" lon="2.7513575553894">
			<ele>153.5</ele>
			<time>2014-01-02T10:45:28Z</time>
		</trkpt>
		<trkpt lat="39.4589424133301" lon="2.75140166282654">
			<ele>153.300003051758</ele>
			<time>2014-01-02T10:45:30Z</time>
		</trkpt>
		<trkpt lat="39.4589004516602" lon="2.75142478942871">
			<ele>153.5</ele>
			<time>2014-01-02T10:45:31Z</time>
		</trkpt>
		<trkpt lat="39.4588203430176" lon="2.75146722793579">
			<ele>152.899993896484</ele>
			<time>2014-01-02T10:45:33Z</time>
		</trkpt>
		<trkpt lat="39.458740234375" lon="2.75151062011719">
			<ele>152.899993896484</ele>
			<time>2014-01-02T10:45:35Z</time>
		</trkpt>
		<trkpt lat="39.4586601257324" lon="2.75154805183411">
			<ele>152.600006103516</ele>
			<time>2014-01-02T10:45:37Z</time>
		</trkpt>
		<trkpt lat="39.4585800170898" lon="2.75159215927124">
			<ele>152.399993896484</ele>
			<time>2014-01-02T10:45:39Z</time>
		</trkpt>
		<trkpt lat="39.4584999084473" lon="2.75163865089417">
			<ele>152.300003051758</ele>
			<time>2014-01-02T10:45:41Z</time>
		</trkpt>
		<trkpt lat="39.4584541320801" lon="2.7516565322876">
			<ele>152.800003051758</ele>
			<time>2014-01-02T10:45:42Z</time>
		</trkpt>
		<trkpt lat="39.4584121704102" lon="2.75168013572693">
			<ele>152.600006103516</ele>
			<time>2014-01-02T10:45:43Z</time>
		</trkpt>
		<trkpt lat="39.4583702087402" lon="2.75170254707336">
			<ele>152.399993896484</ele>
			<time>2014-01-02T10:45:44Z</time>
		</trkpt>
		<trkpt lat="39.4582862854004" lon="2.75174498558044">
			<ele>151.600006103516</ele>
			<time>2014-01-02T10:45:46Z</time>
		</trkpt>
		<trkpt lat="39.4582443237305" lon="2.75176978111267">
			<ele>151.600006103516</ele>
			<time>2014-01-02T10:45:47Z</time>
		</trkpt>
		<trkpt lat="39.4581985473633" lon="2.75179243087769">
			<ele>151.5</ele>
			<time>2014-01-02T10:45:48Z</time>
		</trkpt>
		<trkpt lat="39.4581565856934" lon="2.75181555747986">
			<ele>151.399993896484</ele>
			<time>2014-01-02T10:45:49Z</time>
		</trkpt>
		<trkpt lat="39.458080291748" lon="2.75186252593994">
			<ele>150.300003051758</ele>
			<time>2014-01-02T10:45:51Z</time>
		</trkpt>
		<trkpt lat="39.4580039978027" lon="2.75191402435303">
			<ele>149.300003051758</ele>
			<time>2014-01-02T10:45:53Z</time>
		</trkpt>
		<trkpt lat="39.4579200744629" lon="2.75196146965027">
			<ele>148.600006103516</ele>
			<time>2014-01-02T10:45:55Z</time>
		</trkpt>
		<trkpt lat="39.4578399658203" lon="2.75200366973877">
			<ele>148</ele>
			<time>2014-01-02T10:45:57Z</time>
		</trkpt>
		<trkpt lat="39.4577941894531" lon="2.75202989578247">
			<ele>147.899993896484</ele>
			<time>2014-01-02T10:45:58Z</time>
		</trkpt>
		<trkpt lat="39.4577102661133" lon="2.75207877159119">
			<ele>147</ele>
			<time>2014-01-02T10:46:00Z</time>
		</trkpt>
		<trkpt lat="39.4576683044434" lon="2.75209999084473">
			<ele>146.5</ele>
			<time>2014-01-02T10:46:01Z</time>
		</trkpt>
		<trkpt lat="39.4576263427734" lon="2.75212812423706">
			<ele>146.199996948242</ele>
			<time>2014-01-02T10:46:02Z</time>
		</trkpt>
		<trkpt lat="39.457576751709" lon="2.75215244293213">
			<ele>146</ele>
			<time>2014-01-02T10:46:03Z</time>
		</trkpt>
		<trkpt lat="39.4575309753418" lon="2.7521755695343">
			<ele>145.800003051758</ele>
			<time>2014-01-02T10:46:04Z</time>
		</trkpt>
		<trkpt lat="39.4574851989746" lon="2.75220227241516">
			<ele>145.800003051758</ele>
			<time>2014-01-02T10:46:05Z</time>
		</trkpt>
		<trkpt lat="39.4574432373047" lon="2.75222897529602">
			<ele>145.699996948242</ele>
			<time>2014-01-02T10:46:06Z</time>
		</trkpt>
		<trkpt lat="39.4573936462402" lon="2.75225591659546">
			<ele>145.5</ele>
			<time>2014-01-02T10:46:07Z</time>
		</trkpt>
		<trkpt lat="39.4573364257813" lon="2.75228524208069">
			<ele>145.300003051758</ele>
			<time>2014-01-02T10:46:08Z</time>
		</trkpt>
		<trkpt lat="39.4572792053223" lon="2.7522919178009">
			<ele>145.100006103516</ele>
			<time>2014-01-02T10:46:09Z</time>
		</trkpt>
		<trkpt lat="39.4572143554688" lon="2.75234198570251">
			<ele>144</ele>
			<time>2014-01-02T10:46:11Z</time>
		</trkpt>
		<trkpt lat="39.4571723937988" lon="2.75238037109375">
			<ele>143.600006103516</ele>
			<time>2014-01-02T10:46:12Z</time>
		</trkpt>
		<trkpt lat="39.4571266174316" lon="2.75240659713745">
			<ele>143.399993896484</ele>
			<time>2014-01-02T10:46:13Z</time>
		</trkpt>
		<trkpt lat="39.4570465087891" lon="2.75245594978333">
			<ele>141.699996948242</ele>
			<time>2014-01-02T10:46:15Z</time>
		</trkpt>
		<trkpt lat="39.4570045471191" lon="2.75248074531555">
			<ele>141.699996948242</ele>
			<time>2014-01-02T10:46:16Z</time>
		</trkpt>
		<trkpt lat="39.4569358825684" lon="2.75252914428711">
			<ele>141.600006103516</ele>
			<time>2014-01-02T10:46:18Z</time>
		</trkpt>
		<trkpt lat="39.4568901062012" lon="2.75255370140076">
			<ele>142.5</ele>
			<time>2014-01-02T10:46:19Z</time>
		</trkpt>
		<trkpt lat="39.4568367004395" lon="2.75259304046631">
			<ele>142.800003051758</ele>
			<time>2014-01-02T10:46:20Z</time>
		</trkpt>
		<trkpt lat="39.4567832946777" lon="2.75264430046082">
			<ele>142.899993896484</ele>
			<time>2014-01-02T10:46:21Z</time>
		</trkpt>
		<trkpt lat="39.4567184448242" lon="2.75261998176575">
			<ele>142.199996948242</ele>
			<time>2014-01-02T10:46:23Z</time>
		</trkpt>
		<trkpt lat="39.4566383361816" lon="2.75265407562256">
			<ele>142.399993896484</ele>
			<time>2014-01-02T10:46:25Z</time>
		</trkpt>
		<trkpt lat="39.4565620422363" lon="2.75269269943237">
			<ele>142.600006103516</ele>
			<time>2014-01-02T10:46:27Z</time>
		</trkpt>
		<trkpt lat="39.4564895629883" lon="2.75273609161377">
			<ele>143.100006103516</ele>
			<time>2014-01-02T10:46:29Z</time>
		</trkpt>
		<trkpt lat="39.4564170837402" lon="2.75277519226074">
			<ele>143.600006103516</ele>
			<time>2014-01-02T10:46:31Z</time>
		</trkpt>
		<trkpt lat="39.4563446044922" lon="2.75281596183777">
			<ele>143.800003051758</ele>
			<time>2014-01-02T10:46:33Z</time>
		</trkpt>
		<trkpt lat="39.4562683105469" lon="2.75284028053284">
			<ele>143.899993896484</ele>
			<time>2014-01-02T10:46:35Z</time>
		</trkpt>
		<trkpt lat="39.4561996459961" lon="2.75287199020386">
			<ele>144.5</ele>
			<time>2014-01-02T10:46:37Z</time>
		</trkpt>
		<trkpt lat="39.4561309814453" lon="2.75289607048035">
			<ele>144.100006103516</ele>
			<time>2014-01-02T10:46:39Z</time>
		</trkpt>
		<trkpt lat="39.4560623168945" lon="2.7529239654541">
			<ele>144.5</ele>
			<time>2014-01-02T10:46:41Z</time>
		</trkpt>
		<trkpt lat="39.455997467041" lon="2.75295376777649">
			<ele>144.300003051758</ele>
			<time>2014-01-02T10:46:43Z</time>
		</trkpt>
		<trkpt lat="39.4559288024902" lon="2.75298762321472">
			<ele>144.399993896484</ele>
			<time>2014-01-02T10:46:45Z</time>
		</trkpt>
		<trkpt lat="39.4558601379395" lon="2.7530198097229">
			<ele>144.399993896484</ele>
			<time>2014-01-02T10:46:47Z</time>
		</trkpt>
		<trkpt lat="39.4557914733887" lon="2.75305438041687">
			<ele>144.5</ele>
			<time>2014-01-02T10:46:49Z</time>
		</trkpt>
		<trkpt lat="39.4557189941406" lon="2.75308609008789">
			<ele>144.800003051758</ele>
			<time>2014-01-02T10:46:51Z</time>
		</trkpt>
		<trkpt lat="39.4556503295898" lon="2.75312352180481">
			<ele>144.800003051758</ele>
			<time>2014-01-02T10:46:53Z</time>
		</trkpt>
		<trkpt lat="39.4555778503418" lon="2.75314950942993">
			<ele>145</ele>
			<time>2014-01-02T10:46:55Z</time>
		</trkpt>
		<trkpt lat="39.455509185791" lon="2.75318765640259">
			<ele>145.199996948242</ele>
			<time>2014-01-02T10:46:57Z</time>
		</trkpt>
		<trkpt lat="39.4554405212402" lon="2.7532205581665">
			<ele>145.399993896484</ele>
			<time>2014-01-02T10:46:59Z</time>
		</trkpt>
		<trkpt lat="39.4553756713867" lon="2.75324821472168">
			<ele>145.199996948242</ele>
			<time>2014-01-02T10:47:01Z</time>
		</trkpt>
		<trkpt lat="39.4553031921387" lon="2.7532742023468">
			<ele>145.300003051758</ele>
			<time>2014-01-02T10:47:03Z</time>
		</trkpt>
		<trkpt lat="39.4552383422852" lon="2.75330948829651">
			<ele>145.399993896484</ele>
			<time>2014-01-02T10:47:05Z</time>
		</trkpt>
		<trkpt lat="39.4551734924316" lon="2.75334501266479">
			<ele>145.699996948242</ele>
			<time>2014-01-02T10:47:07Z</time>
		</trkpt>
		<trkpt lat="39.4551086425781" lon="2.75337982177734">
			<ele>146.100006103516</ele>
			<time>2014-01-02T10:47:09Z</time>
		</trkpt>
		<trkpt lat="39.4550399780273" lon="2.7534122467041">
			<ele>146.300003051758</ele>
			<time>2014-01-02T10:47:11Z</time>
		</trkpt>
		<trkpt lat="39.4549751281738" lon="2.75344657897949">
			<ele>146.5</ele>
			<time>2014-01-02T10:47:13Z</time>
		</trkpt>
		<trkpt lat="39.4549102783203" lon="2.75348305702209">
			<ele>146.399993896484</ele>
			<time>2014-01-02T10:47:15Z</time>
		</trkpt>
		<trkpt lat="39.4548492431641" lon="2.75351691246033">
			<ele>146.199996948242</ele>
			<time>2014-01-02T10:47:17Z</time>
		</trkpt>
		<trkpt lat="39.4547843933105" lon="2.75355052947998">
			<ele>146.100006103516</ele>
			<time>2014-01-02T10:47:19Z</time>
		</trkpt>
		<trkpt lat="39.454719543457" lon="2.753582239151">
			<ele>146.300003051758</ele>
			<time>2014-01-02T10:47:21Z</time>
		</trkpt>
		<trkpt lat="39.4546585083008" lon="2.75361061096191">
			<ele>146.199996948242</ele>
			<time>2014-01-02T10:47:23Z</time>
		</trkpt>
		<trkpt lat="39.4545936584473" lon="2.75363540649414">
			<ele>146.399993896484</ele>
			<time>2014-01-02T10:47:25Z</time>
		</trkpt>
		<trkpt lat="39.4545402526855" lon="2.75367665290833">
			<ele>146.5</ele>
			<time>2014-01-02T10:47:27Z</time>
		</trkpt>
		<trkpt lat="39.4544830322266" lon="2.7537055015564">
			<ele>146.399993896484</ele>
			<time>2014-01-02T10:47:29Z</time>
		</trkpt>
		<trkpt lat="39.4544258117676" lon="2.7537362575531">
			<ele>146.399993896484</ele>
			<time>2014-01-02T10:47:31Z</time>
		</trkpt>
		<trkpt lat="39.4543685913086" lon="2.75376415252686">
			<ele>146</ele>
			<time>2014-01-02T10:47:33Z</time>
		</trkpt>
		<trkpt lat="39.4543151855469" lon="2.75379061698914">
			<ele>146.100006103516</ele>
			<time>2014-01-02T10:47:35Z</time>
		</trkpt>
		<trkpt lat="39.4542617797852" lon="2.75382041931152">
			<ele>146.100006103516</ele>
			<time>2014-01-02T10:47:37Z</time>
		</trkpt>
		<trkpt lat="39.4542121887207" lon="2.75386166572571">
			<ele>145.800003051758</ele>
			<time>2014-01-02T10:47:39Z</time>
		</trkpt>
		<trkpt lat="39.454158782959" lon="2.75388646125793">
			<ele>146</ele>
			<time>2014-01-02T10:47:41Z</time>
		</trkpt>
		<trkpt lat="39.4541015625" lon="2.75390839576721">
			<ele>146.699996948242</ele>
			<time>2014-01-02T10:47:43Z</time>
		</trkpt>
		<trkpt lat="39.4540481567383" lon="2.7539370059967">
			<ele>146.600006103516</ele>
			<time>2014-01-02T10:47:45Z</time>
		</trkpt>
		<trkpt lat="39.4539985656738" lon="2.7539644241333">
			<ele>146.5</ele>
			<time>2014-01-02T10:47:47Z</time>
		</trkpt>
		<trkpt lat="39.4539451599121" lon="2.75399470329285">
			<ele>146.300003051758</ele>
			<time>2014-01-02T10:47:49Z</time>
		</trkpt>
		<trkpt lat="39.4538917541504" lon="2.75403022766113">
			<ele>146.100006103516</ele>
			<time>2014-01-02T10:47:51Z</time>
		</trkpt>
		<trkpt lat="39.4538421630859" lon="2.75406193733215">
			<ele>146.300003051758</ele>
			<time>2014-01-02T10:47:53Z</time>
		</trkpt>
		<trkpt lat="39.4537925720215" lon="2.75409555435181">
			<ele>146.100006103516</ele>
			<time>2014-01-02T10:47:55Z</time>
		</trkpt>
		<trkpt lat="39.4537467956543" lon="2.75412535667419">
			<ele>146.399993896484</ele>
			<time>2014-01-02T10:47:57Z</time>
		</trkpt>
		<trkpt lat="39.4536972045898" lon="2.75415730476379">
			<ele>146.5</ele>
			<time>2014-01-02T10:47:59Z</time>
		</trkpt>
		<trkpt lat="39.4536514282227" lon="2.75419068336487">
			<ele>146.5</ele>
			<time>2014-01-02T10:48:01Z</time>
		</trkpt>
		<trkpt lat="39.4536018371582" lon="2.75422191619873">
			<ele>146.399993896484</ele>
			<time>2014-01-02T10:48:03Z</time>
		</trkpt>
		<trkpt lat="39.4535522460938" lon="2.75425219535828">
			<ele>146.5</ele>
			<time>2014-01-02T10:48:05Z</time>
		</trkpt>
		<trkpt lat="39.4535064697266" lon="2.75428628921509">
			<ele>146.5</ele>
			<time>2014-01-02T10:48:07Z</time>
		</trkpt>
		<trkpt lat="39.4534568786621" lon="2.75431442260742">
			<ele>146.800003051758</ele>
			<time>2014-01-02T10:48:09Z</time>
		</trkpt>
		<trkpt lat="39.4534072875977" lon="2.75434422492981">
			<ele>146.899993896484</ele>
			<time>2014-01-02T10:48:11Z</time>
		</trkpt>
		<trkpt lat="39.4533576965332" lon="2.7543785572052">
			<ele>146.600006103516</ele>
			<time>2014-01-02T10:48:13Z</time>
		</trkpt>
		<trkpt lat="39.4533081054688" lon="2.75440645217896">
			<ele>146.699996948242</ele>
			<time>2014-01-02T10:48:15Z</time>
		</trkpt>
		<trkpt lat="39.4532585144043" lon="2.75443530082703">
			<ele>146.399993896484</ele>
			<time>2014-01-02T10:48:17Z</time>
		</trkpt>
		<trkpt lat="39.4532089233398" lon="2.75447487831116">
			<ele>147</ele>
			<time>2014-01-02T10:48:19Z</time>
		</trkpt>
		<trkpt lat="39.4531555175781" lon="2.75449872016907">
			<ele>147.699996948242</ele>
			<time>2014-01-02T10:48:21Z</time>
		</trkpt>
		<trkpt lat="39.4531059265137" lon="2.75451636314392">
			<ele>147.600006103516</ele>
			<time>2014-01-02T10:48:23Z</time>
		</trkpt>
		<trkpt lat="39.453052520752" lon="2.75454950332642">
			<ele>148</ele>
			<time>2014-01-02T10:48:25Z</time>
		</trkpt>
		<trkpt lat="39.4530029296875" lon="2.75457119941711">
			<ele>148.199996948242</ele>
			<time>2014-01-02T10:48:27Z</time>
		</trkpt>
		<trkpt lat="39.4529495239258" lon="2.7545964717865">
			<ele>147.800003051758</ele>
			<time>2014-01-02T10:48:29Z</time>
		</trkpt>
		<trkpt lat="39.4529037475586" lon="2.75462961196899">
			<ele>148.800003051758</ele>
			<time>2014-01-02T10:48:31Z</time>
		</trkpt>
		<trkpt lat="39.4528541564941" lon="2.7546534538269">
			<ele>149</ele>
			<time>2014-01-02T10:48:33Z</time>
		</trkpt>
		<trkpt lat="39.452808380127" lon="2.75467848777771">
			<ele>149.300003051758</ele>
			<time>2014-01-02T10:48:35Z</time>
		</trkpt>
		<trkpt lat="39.4527587890625" lon="2.75470399856567">
			<ele>149.300003051758</ele>
			<time>2014-01-02T10:48:37Z</time>
		</trkpt>
		<trkpt lat="39.452709197998" lon="2.75473308563232">
			<ele>149.5</ele>
			<time>2014-01-02T10:48:39Z</time>
		</trkpt>
		<trkpt lat="39.4526596069336" lon="2.7547607421875">
			<ele>150.5</ele>
			<time>2014-01-02T10:48:41Z</time>
		</trkpt>
		<trkpt lat="39.4525947570801" lon="2.75479197502136">
			<ele>151.100006103516</ele>
			<time>2014-01-02T10:48:44Z</time>
		</trkpt>
		<trkpt lat="39.4525527954102" lon="2.75481605529785">
			<ele>151.199996948242</ele>
			<time>2014-01-02T10:48:46Z</time>
		</trkpt>
		<trkpt lat="39.4524917602539" lon="2.75484848022461">
			<ele>150.800003051758</ele>
			<time>2014-01-02T10:48:48Z</time>
		</trkpt>
		<trkpt lat="39.4524307250977" lon="2.75486087799072">
			<ele>150.899993896484</ele>
			<time>2014-01-02T10:48:50Z</time>
		</trkpt>
		<trkpt lat="39.4523811340332" lon="2.75489830970764">
			<ele>150.899993896484</ele>
			<time>2014-01-02T10:48:52Z</time>
		</trkpt>
		<trkpt lat="39.4523315429688" lon="2.75492763519287">
			<ele>150.300003051758</ele>
			<time>2014-01-02T10:48:54Z</time>
		</trkpt>
		<trkpt lat="39.452278137207" lon="2.75495553016663">
			<ele>150.699996948242</ele>
			<time>2014-01-02T10:48:56Z</time>
		</trkpt>
		<trkpt lat="39.452220916748" lon="2.75497102737427">
			<ele>151</ele>
			<time>2014-01-02T10:48:58Z</time>
		</trkpt>
		<trkpt lat="39.4521713256836" lon="2.75498294830322">
			<ele>152</ele>
			<time>2014-01-02T10:49:00Z</time>
		</trkpt>
		<trkpt lat="39.4521217346191" lon="2.7550003528595">
			<ele>152.199996948242</ele>
			<time>2014-01-02T10:49:02Z</time>
		</trkpt>
		<trkpt lat="39.4520683288574" lon="2.75503015518188">
			<ele>152.899993896484</ele>
			<time>2014-01-02T10:49:04Z</time>
		</trkpt>
		<trkpt lat="39.452018737793" lon="2.75506091117859">
			<ele>153</ele>
			<time>2014-01-02T10:49:06Z</time>
		</trkpt>
		<trkpt lat="39.4519729614258" lon="2.75509071350098">
			<ele>153.199996948242</ele>
			<time>2014-01-02T10:49:08Z</time>
		</trkpt>
		<trkpt lat="39.4519233703613" lon="2.75511884689331">
			<ele>153.800003051758</ele>
			<time>2014-01-02T10:49:10Z</time>
		</trkpt>
		<trkpt lat="39.4518737792969" lon="2.75515818595886">
			<ele>154.5</ele>
			<time>2014-01-02T10:49:12Z</time>
		</trkpt>
		<trkpt lat="39.4518241882324" lon="2.75518393516541">
			<ele>155.5</ele>
			<time>2014-01-02T10:49:14Z</time>
		</trkpt>
		<trkpt lat="39.4517478942871" lon="2.75521802902222">
			<ele>155.100006103516</ele>
			<time>2014-01-02T10:49:17Z</time>
		</trkpt>
		<trkpt lat="39.4516944885254" lon="2.75524353981018">
			<ele>155.399993896484</ele>
			<time>2014-01-02T10:49:19Z</time>
		</trkpt>
		<trkpt lat="39.4516448974609" lon="2.7552604675293">
			<ele>154.699996948242</ele>
			<time>2014-01-02T10:49:21Z</time>
		</trkpt>
		<trkpt lat="39.4515686035156" lon="2.75529503822327">
			<ele>154.5</ele>
			<time>2014-01-02T10:49:24Z</time>
		</trkpt>
		<trkpt lat="39.4515151977539" lon="2.75531315803528">
			<ele>155.300003051758</ele>
			<time>2014-01-02T10:49:26Z</time>
		</trkpt>
		<trkpt lat="39.4514656066895" lon="2.7553391456604">
			<ele>155.699996948242</ele>
			<time>2014-01-02T10:49:28Z</time>
		</trkpt>
		<trkpt lat="39.4514236450195" lon="2.75536704063416">
			<ele>154.699996948242</ele>
			<time>2014-01-02T10:49:30Z</time>
		</trkpt>
		<trkpt lat="39.4513664245605" lon="2.75539445877075">
			<ele>154.5</ele>
			<time>2014-01-02T10:49:32Z</time>
		</trkpt>
		<trkpt lat="39.4513168334961" lon="2.75541925430298">
			<ele>154.5</ele>
			<time>2014-01-02T10:49:34Z</time>
		</trkpt>
		<trkpt lat="39.4512672424316" lon="2.75544309616089">
			<ele>154.5</ele>
			<time>2014-01-02T10:49:36Z</time>
		</trkpt>
		<trkpt lat="39.4512214660645" lon="2.75546550750732">
			<ele>154.5</ele>
			<time>2014-01-02T10:49:38Z</time>
		</trkpt>
		<trkpt lat="39.4511756896973" lon="2.75548720359802">
			<ele>154.800003051758</ele>
			<time>2014-01-02T10:49:40Z</time>
		</trkpt>
		<trkpt lat="39.4511260986328" lon="2.75551509857178">
			<ele>155</ele>
			<time>2014-01-02T10:49:42Z</time>
		</trkpt>
		<trkpt lat="39.4510803222656" lon="2.75554347038269">
			<ele>155.5</ele>
			<time>2014-01-02T10:49:44Z</time>
		</trkpt>
		<trkpt lat="39.4510269165039" lon="2.75556707382202">
			<ele>156.199996948242</ele>
			<time>2014-01-02T10:49:46Z</time>
		</trkpt>
		<trkpt lat="39.4509811401367" lon="2.75559067726135">
			<ele>156.300003051758</ele>
			<time>2014-01-02T10:49:48Z</time>
		</trkpt>
		<trkpt lat="39.450927734375" lon="2.75561189651489">
			<ele>156.399993896484</ele>
			<time>2014-01-02T10:49:50Z</time>
		</trkpt>
		<trkpt lat="39.4508743286133" lon="2.75562810897827">
			<ele>157.199996948242</ele>
			<time>2014-01-02T10:49:52Z</time>
		</trkpt>
		<trkpt lat="39.4508285522461" lon="2.75565648078918">
			<ele>157.100006103516</ele>
			<time>2014-01-02T10:49:54Z</time>
		</trkpt>
		<trkpt lat="39.4507789611816" lon="2.75568270683289">
			<ele>156.399993896484</ele>
			<time>2014-01-02T10:49:56Z</time>
		</trkpt>
		<trkpt lat="39.4507293701172" lon="2.75570750236511">
			<ele>156.899993896484</ele>
			<time>2014-01-02T10:49:58Z</time>
		</trkpt>
		<trkpt lat="39.4506797790527" lon="2.75573873519897">
			<ele>157.399993896484</ele>
			<time>2014-01-02T10:50:00Z</time>
		</trkpt>
		<trkpt lat="39.4506340026855" lon="2.75576376914978">
			<ele>157.899993896484</ele>
			<time>2014-01-02T10:50:02Z</time>
		</trkpt>
		<trkpt lat="39.4505882263184" lon="2.75578880310059">
			<ele>158.5</ele>
			<time>2014-01-02T10:50:04Z</time>
		</trkpt>
		<trkpt lat="39.4505424499512" lon="2.75581622123718">
			<ele>158.399993896484</ele>
			<time>2014-01-02T10:50:06Z</time>
		</trkpt>
		<trkpt lat="39.450496673584" lon="2.75584769248962">
			<ele>158.600006103516</ele>
			<time>2014-01-02T10:50:08Z</time>
		</trkpt>
		<trkpt lat="39.4504508972168" lon="2.75586462020874">
			<ele>158.899993896484</ele>
			<time>2014-01-02T10:50:10Z</time>
		</trkpt>
		<trkpt lat="39.4504051208496" lon="2.75588178634644">
			<ele>159.100006103516</ele>
			<time>2014-01-02T10:50:12Z</time>
		</trkpt>
		<trkpt lat="39.4503631591797" lon="2.75591707229614">
			<ele>159.399993896484</ele>
			<time>2014-01-02T10:50:14Z</time>
		</trkpt>
		<trkpt lat="39.4503135681152" lon="2.75594067573547">
			<ele>160</ele>
			<time>2014-01-02T10:50:16Z</time>
		</trkpt>
		<trkpt lat="39.450267791748" lon="2.75596809387207">
			<ele>160</ele>
			<time>2014-01-02T10:50:18Z</time>
		</trkpt>
		<trkpt lat="39.4502143859863" lon="2.75599312782288">
			<ele>160.600006103516</ele>
			<time>2014-01-02T10:50:20Z</time>
		</trkpt>
		<trkpt lat="39.4501609802246" lon="2.75601506233215">
			<ele>160.899993896484</ele>
			<time>2014-01-02T10:50:22Z</time>
		</trkpt>
		<trkpt lat="39.4501113891602" lon="2.7560408115387">
			<ele>161.100006103516</ele>
			<time>2014-01-02T10:50:24Z</time>
		</trkpt>
		<trkpt lat="39.4500617980957" lon="2.75606346130371">
			<ele>161.199996948242</ele>
			<time>2014-01-02T10:50:26Z</time>
		</trkpt>
		<trkpt lat="39.450008392334" lon="2.7560863494873">
			<ele>161.800003051758</ele>
			<time>2014-01-02T10:50:28Z</time>
		</trkpt>
		<trkpt lat="39.4499588012695" lon="2.75611400604248">
			<ele>162</ele>
			<time>2014-01-02T10:50:30Z</time>
		</trkpt>
		<trkpt lat="39.4499130249023" lon="2.75613951683044">
			<ele>161.800003051758</ele>
			<time>2014-01-02T10:50:32Z</time>
		</trkpt>
		<trkpt lat="39.4498710632324" lon="2.75616884231567">
			<ele>162.199996948242</ele>
			<time>2014-01-02T10:50:34Z</time>
		</trkpt>
		<trkpt lat="39.449821472168" lon="2.75619506835938">
			<ele>162.300003051758</ele>
			<time>2014-01-02T10:50:36Z</time>
		</trkpt>
		<trkpt lat="39.449779510498" lon="2.75621938705444">
			<ele>162.600006103516</ele>
			<time>2014-01-02T10:50:38Z</time>
		</trkpt>
		<trkpt lat="39.4497261047363" lon="2.75624084472656">
			<ele>162.699996948242</ele>
			<time>2014-01-02T10:50:40Z</time>
		</trkpt>
		<trkpt lat="39.4496726989746" lon="2.75626707077026">
			<ele>163.399993896484</ele>
			<time>2014-01-02T10:50:42Z</time>
		</trkpt>
		<trkpt lat="39.4496192932129" lon="2.75630164146423">
			<ele>163.100006103516</ele>
			<time>2014-01-02T10:50:44Z</time>
		</trkpt>
		<trkpt lat="39.4495697021484" lon="2.75632882118225">
			<ele>163.199996948242</ele>
			<time>2014-01-02T10:50:46Z</time>
		</trkpt>
		<trkpt lat="39.4495162963867" lon="2.75635457038879">
			<ele>163.199996948242</ele>
			<time>2014-01-02T10:50:48Z</time>
		</trkpt>
		<trkpt lat="39.4494667053223" lon="2.7563784122467">
			<ele>163.600006103516</ele>
			<time>2014-01-02T10:50:50Z</time>
		</trkpt>
		<trkpt lat="39.4494171142578" lon="2.75640201568604">
			<ele>163.800003051758</ele>
			<time>2014-01-02T10:50:52Z</time>
		</trkpt>
		<trkpt lat="39.4493713378906" lon="2.75642561912537">
			<ele>163.5</ele>
			<time>2014-01-02T10:50:54Z</time>
		</trkpt>
		<trkpt lat="39.4493217468262" lon="2.75644683837891">
			<ele>163.600006103516</ele>
			<time>2014-01-02T10:50:56Z</time>
		</trkpt>
		<trkpt lat="39.4492721557617" lon="2.75647258758545">
			<ele>163.899993896484</ele>
			<time>2014-01-02T10:50:58Z</time>
		</trkpt>
		<trkpt lat="39.44921875" lon="2.75650334358215">
			<ele>163.199996948242</ele>
			<time>2014-01-02T10:51:00Z</time>
		</trkpt>
		<trkpt lat="39.4491653442383" lon="2.7565279006958">
			<ele>163</ele>
			<time>2014-01-02T10:51:02Z</time>
		</trkpt>
		<trkpt lat="39.4491081237793" lon="2.75655269622803">
			<ele>163.100006103516</ele>
			<time>2014-01-02T10:51:04Z</time>
		</trkpt>
		<trkpt lat="39.4490547180176" lon="2.75658369064331">
			<ele>163</ele>
			<time>2014-01-02T10:51:06Z</time>
		</trkpt>
		<trkpt lat="39.4490013122559" lon="2.75661468505859">
			<ele>163.399993896484</ele>
			<time>2014-01-02T10:51:08Z</time>
		</trkpt>
		<trkpt lat="39.4489479064941" lon="2.75664043426514">
			<ele>163.5</ele>
			<time>2014-01-02T10:51:10Z</time>
		</trkpt>
		<trkpt lat="39.4488945007324" lon="2.75666809082031">
			<ele>163.800003051758</ele>
			<time>2014-01-02T10:51:12Z</time>
		</trkpt>
		<trkpt lat="39.448844909668" lon="2.7566990852356">
			<ele>163.699996948242</ele>
			<time>2014-01-02T10:51:14Z</time>
		</trkpt>
		<trkpt lat="39.4487953186035" lon="2.75672149658203">
			<ele>163.399993896484</ele>
			<time>2014-01-02T10:51:16Z</time>
		</trkpt>
		<trkpt lat="39.4487419128418" lon="2.75674891471863">
			<ele>164</ele>
			<time>2014-01-02T10:51:18Z</time>
		</trkpt>
		<trkpt lat="39.4486885070801" lon="2.75677895545959">
			<ele>164.100006103516</ele>
			<time>2014-01-02T10:51:20Z</time>
		</trkpt>
		<trkpt lat="39.4486427307129" lon="2.75680994987488">
			<ele>164.100006103516</ele>
			<time>2014-01-02T10:51:22Z</time>
		</trkpt>
		<trkpt lat="39.4485893249512" lon="2.75683426856995">
			<ele>164.600006103516</ele>
			<time>2014-01-02T10:51:24Z</time>
		</trkpt>
		<trkpt lat="39.4485397338867" lon="2.75685882568359">
			<ele>164.899993896484</ele>
			<time>2014-01-02T10:51:26Z</time>
		</trkpt>
		<trkpt lat="39.448486328125" lon="2.75688695907593">
			<ele>165.100006103516</ele>
			<time>2014-01-02T10:51:28Z</time>
		</trkpt>
		<trkpt lat="39.4484367370605" lon="2.75691390037537">
			<ele>165.199996948242</ele>
			<time>2014-01-02T10:51:30Z</time>
		</trkpt>
		<trkpt lat="39.4483871459961" lon="2.75693988800049">
			<ele>165.199996948242</ele>
			<time>2014-01-02T10:51:32Z</time>
		</trkpt>
		<trkpt lat="39.4483413696289" lon="2.75696802139282">
			<ele>165.100006103516</ele>
			<time>2014-01-02T10:51:34Z</time>
		</trkpt>
		<trkpt lat="39.4482955932617" lon="2.75698804855347">
			<ele>165.800003051758</ele>
			<time>2014-01-02T10:51:36Z</time>
		</trkpt>
		<trkpt lat="39.4482498168945" lon="2.75701236724854">
			<ele>165.899993896484</ele>
			<time>2014-01-02T10:51:38Z</time>
		</trkpt>
		<trkpt lat="39.4482040405273" lon="2.75703835487366">
			<ele>165.699996948242</ele>
			<time>2014-01-02T10:51:40Z</time>
		</trkpt>
		<trkpt lat="39.4481582641602" lon="2.75706338882446">
			<ele>165.899993896484</ele>
			<time>2014-01-02T10:51:42Z</time>
		</trkpt>
		<trkpt lat="39.4481086730957" lon="2.75709295272827">
			<ele>166.300003051758</ele>
			<time>2014-01-02T10:51:44Z</time>
		</trkpt>
		<trkpt lat="39.4480628967285" lon="2.75712275505066">
			<ele>166.699996948242</ele>
			<time>2014-01-02T10:51:46Z</time>
		</trkpt>
		<trkpt lat="39.4480171203613" lon="2.75714993476868">
			<ele>167.100006103516</ele>
			<time>2014-01-02T10:51:48Z</time>
		</trkpt>
		<trkpt lat="39.4479713439941" lon="2.75718426704407">
			<ele>166.800003051758</ele>
			<time>2014-01-02T10:51:50Z</time>
		</trkpt>
		<trkpt lat="39.4479217529297" lon="2.75721192359924">
			<ele>167.5</ele>
			<time>2014-01-02T10:51:52Z</time>
		</trkpt>
		<trkpt lat="39.4478759765625" lon="2.75724053382874">
			<ele>168.600006103516</ele>
			<time>2014-01-02T10:51:54Z</time>
		</trkpt>
		<trkpt lat="39.4478340148926" lon="2.75727295875549">
			<ele>168.5</ele>
			<time>2014-01-02T10:51:56Z</time>
		</trkpt>
		<trkpt lat="39.4477844238281" lon="2.75729894638062">
			<ele>168.800003051758</ele>
			<time>2014-01-02T10:51:58Z</time>
		</trkpt>
		<trkpt lat="39.4477386474609" lon="2.75732159614563">
			<ele>169</ele>
			<time>2014-01-02T10:52:00Z</time>
		</trkpt>
		<trkpt lat="39.4476890563965" lon="2.75734496116638">
			<ele>169.399993896484</ele>
			<time>2014-01-02T10:52:02Z</time>
		</trkpt>
		<trkpt lat="39.4476432800293" lon="2.75737023353577">
			<ele>169.300003051758</ele>
			<time>2014-01-02T10:52:04Z</time>
		</trkpt>
		<trkpt lat="39.4475936889648" lon="2.75738644599915">
			<ele>170.199996948242</ele>
			<time>2014-01-02T10:52:06Z</time>
		</trkpt>
		<trkpt lat="39.4475440979004" lon="2.75741147994995">
			<ele>170.399993896484</ele>
			<time>2014-01-02T10:52:08Z</time>
		</trkpt>
		<trkpt lat="39.4474983215332" lon="2.75743317604065">
			<ele>170.600006103516</ele>
			<time>2014-01-02T10:52:10Z</time>
		</trkpt>
		<trkpt lat="39.447452545166" lon="2.75745344161987">
			<ele>171.100006103516</ele>
			<time>2014-01-02T10:52:12Z</time>
		</trkpt>
		<trkpt lat="39.4474029541016" lon="2.75747323036194">
			<ele>171.699996948242</ele>
			<time>2014-01-02T10:52:14Z</time>
		</trkpt>
		<trkpt lat="39.4473609924316" lon="2.75750112533569">
			<ele>171.5</ele>
			<time>2014-01-02T10:52:16Z</time>
		</trkpt>
		<trkpt lat="39.4473152160645" lon="2.75752377510071">
			<ele>172.199996948242</ele>
			<time>2014-01-02T10:52:18Z</time>
		</trkpt>
		<trkpt lat="39.4472694396973" lon="2.75754499435425">
			<ele>172.899993896484</ele>
			<time>2014-01-02T10:52:20Z</time>
		</trkpt>
		<trkpt lat="39.4472198486328" lon="2.75757312774658">
			<ele>172.800003051758</ele>
			<time>2014-01-02T10:52:22Z</time>
		</trkpt>
		<trkpt lat="39.4471740722656" lon="2.7575991153717">
			<ele>172.600006103516</ele>
			<time>2014-01-02T10:52:24Z</time>
		</trkpt>
		<trkpt lat="39.4471282958984" lon="2.75762462615967">
			<ele>173</ele>
			<time>2014-01-02T10:52:26Z</time>
		</trkpt>
		<trkpt lat="39.4470825195313" lon="2.75764560699463">
			<ele>172.699996948242</ele>
			<time>2014-01-02T10:52:28Z</time>
		</trkpt>
		<trkpt lat="39.4470367431641" lon="2.75766777992249">
			<ele>173.199996948242</ele>
			<time>2014-01-02T10:52:30Z</time>
		</trkpt>
		<trkpt lat="39.4469871520996" lon="2.75768709182739">
			<ele>173.800003051758</ele>
			<time>2014-01-02T10:52:32Z</time>
		</trkpt>
		<trkpt lat="39.4469375610352" lon="2.75771021842957">
			<ele>174.100006103516</ele>
			<time>2014-01-02T10:52:34Z</time>
		</trkpt>
		<trkpt lat="39.4468994140625" lon="2.75774216651917">
			<ele>174.5</ele>
			<time>2014-01-02T10:52:36Z</time>
		</trkpt>
		<trkpt lat="39.446849822998" lon="2.75773000717163">
			<ele>174.300003051758</ele>
			<time>2014-01-02T10:52:39Z</time>
		</trkpt>
		<trkpt lat="39.4468154907227" lon="2.75777959823608">
			<ele>170.699996948242</ele>
			<time>2014-01-02T10:55:52Z</time>
		</trkpt>
		<trkpt lat="39.4467582702637" lon="2.75781989097595">
			<ele>169.699996948242</ele>
			<time>2014-01-02T10:55:55Z</time>
		</trkpt>
		<trkpt lat="39.4467086791992" lon="2.75783514976501">
			<ele>170.800003051758</ele>
			<time>2014-01-02T10:55:57Z</time>
		</trkpt>
		<trkpt lat="39.446662902832" lon="2.75786471366882">
			<ele>171.800003051758</ele>
			<time>2014-01-02T10:55:59Z</time>
		</trkpt>
		<trkpt lat="39.4466094970703" lon="2.75788855552673">
			<ele>172</ele>
			<time>2014-01-02T10:56:01Z</time>
		</trkpt>
		<trkpt lat="39.4465560913086" lon="2.7579288482666">
			<ele>171.5</ele>
			<time>2014-01-02T10:56:03Z</time>
		</trkpt>
		<trkpt lat="39.4465103149414" lon="2.75796985626221">
			<ele>171.199996948242</ele>
			<time>2014-01-02T10:56:05Z</time>
		</trkpt>
		<trkpt lat="39.4464530944824" lon="2.75800728797913">
			<ele>170.600006103516</ele>
			<time>2014-01-02T10:56:07Z</time>
		</trkpt>
		<trkpt lat="39.4463996887207" lon="2.75803661346436">
			<ele>170.5</ele>
			<time>2014-01-02T10:56:09Z</time>
		</trkpt>
		<trkpt lat="39.4463386535645" lon="2.75805902481079">
			<ele>170.199996948242</ele>
			<time>2014-01-02T10:56:11Z</time>
		</trkpt>
		<trkpt lat="39.4462776184082" lon="2.75808477401733">
			<ele>170.199996948242</ele>
			<time>2014-01-02T10:56:13Z</time>
		</trkpt>
		<trkpt lat="39.446216583252" lon="2.75811219215393">
			<ele>169.699996948242</ele>
			<time>2014-01-02T10:56:15Z</time>
		</trkpt>
		<trkpt lat="39.4461631774902" lon="2.75815010070801">
			<ele>169.399993896484</ele>
			<time>2014-01-02T10:56:17Z</time>
		</trkpt>
		<trkpt lat="39.446102142334" lon="2.75817394256592">
			<ele>169.600006103516</ele>
			<time>2014-01-02T10:56:19Z</time>
		</trkpt>
		<trkpt lat="39.4460411071777" lon="2.75820970535278">
			<ele>169.899993896484</ele>
			<time>2014-01-02T10:56:21Z</time>
		</trkpt>
		<trkpt lat="39.4459838867188" lon="2.75824666023254">
			<ele>170</ele>
			<time>2014-01-02T10:56:23Z</time>
		</trkpt>
		<trkpt lat="39.4459228515625" lon="2.7582790851593">
			<ele>170.100006103516</ele>
			<time>2014-01-02T10:56:25Z</time>
		</trkpt>
		<trkpt lat="39.4458618164063" lon="2.75831270217896">
			<ele>170.399993896484</ele>
			<time>2014-01-02T10:56:27Z</time>
		</trkpt>
		<trkpt lat="39.4458045959473" lon="2.75833964347839">
			<ele>170.5</ele>
			<time>2014-01-02T10:56:29Z</time>
		</trkpt>
		<trkpt lat="39.4457397460938" lon="2.75836992263794">
			<ele>170.699996948242</ele>
			<time>2014-01-02T10:56:31Z</time>
		</trkpt>
		<trkpt lat="39.4456748962402" lon="2.75840663909912">
			<ele>171.100006103516</ele>
			<time>2014-01-02T10:56:33Z</time>
		</trkpt>
		<trkpt lat="39.4456100463867" lon="2.75843691825867">
			<ele>171</ele>
			<time>2014-01-02T10:56:35Z</time>
		</trkpt>
		<trkpt lat="39.4455413818359" lon="2.758469581604">
			<ele>171.300003051758</ele>
			<time>2014-01-02T10:56:37Z</time>
		</trkpt>
		<trkpt lat="39.4454765319824" lon="2.75850367546082">
			<ele>171.399993896484</ele>
			<time>2014-01-02T10:56:39Z</time>
		</trkpt>
		<trkpt lat="39.4454078674316" lon="2.75853514671326">
			<ele>171.5</ele>
			<time>2014-01-02T10:56:41Z</time>
		</trkpt>
		<trkpt lat="39.4453468322754" lon="2.75856065750122">
			<ele>171.600006103516</ele>
			<time>2014-01-02T10:56:43Z</time>
		</trkpt>
		<trkpt lat="39.4452857971191" lon="2.75859189033508">
			<ele>171.600006103516</ele>
			<time>2014-01-02T10:56:45Z</time>
		</trkpt>
		<trkpt lat="39.4452209472656" lon="2.75862216949463">
			<ele>171.899993896484</ele>
			<time>2014-01-02T10:56:47Z</time>
		</trkpt>
		<trkpt lat="39.4451560974121" lon="2.75865006446838">
			<ele>172</ele>
			<time>2014-01-02T10:56:49Z</time>
		</trkpt>
		<trkpt lat="39.4450912475586" lon="2.75868105888367">
			<ele>171.800003051758</ele>
			<time>2014-01-02T10:56:51Z</time>
		</trkpt>
		<trkpt lat="39.4450263977051" lon="2.75871348381042">
			<ele>171.699996948242</ele>
			<time>2014-01-02T10:56:53Z</time>
		</trkpt>
		<trkpt lat="39.4449691772461" lon="2.75876808166504">
			<ele>173.5</ele>
			<time>2014-01-02T10:56:55Z</time>
		</trkpt>
		<trkpt lat="39.4449081420898" lon="2.75880074501038">
			<ele>173.5</ele>
			<time>2014-01-02T10:56:57Z</time>
		</trkpt>
		<trkpt lat="39.4448471069336" lon="2.75883078575134">
			<ele>173.199996948242</ele>
			<time>2014-01-02T10:56:59Z</time>
		</trkpt>
		<trkpt lat="39.4447784423828" lon="2.75886106491089">
			<ele>173.199996948242</ele>
			<time>2014-01-02T10:57:01Z</time>
		</trkpt>
		<trkpt lat="39.4447135925293" lon="2.75889229774475">
			<ele>173.199996948242</ele>
			<time>2014-01-02T10:57:03Z</time>
		</trkpt>
		<trkpt lat="39.444652557373" lon="2.75892281532288">
			<ele>173.100006103516</ele>
			<time>2014-01-02T10:57:05Z</time>
		</trkpt>
		<trkpt lat="39.4445915222168" lon="2.75895261764526">
			<ele>173.600006103516</ele>
			<time>2014-01-02T10:57:07Z</time>
		</trkpt>
		<trkpt lat="39.4445343017578" lon="2.75898385047913">
			<ele>173.899993896484</ele>
			<time>2014-01-02T10:57:09Z</time>
		</trkpt>
		<trkpt lat="39.4444770812988" lon="2.75901436805725">
			<ele>174.100006103516</ele>
			<time>2014-01-02T10:57:11Z</time>
		</trkpt>
		<trkpt lat="39.4444198608398" lon="2.75904369354248">
			<ele>174.399993896484</ele>
			<time>2014-01-02T10:57:13Z</time>
		</trkpt>
		<trkpt lat="39.4443626403809" lon="2.75907373428345">
			<ele>174.5</ele>
			<time>2014-01-02T10:57:15Z</time>
		</trkpt>
		<trkpt lat="39.4443054199219" lon="2.75910615921021">
			<ele>174.899993896484</ele>
			<time>2014-01-02T10:57:17Z</time>
		</trkpt>
		<trkpt lat="39.4442481994629" lon="2.75913500785828">
			<ele>174.699996948242</ele>
			<time>2014-01-02T10:57:19Z</time>
		</trkpt>
		<trkpt lat="39.4441909790039" lon="2.75916028022766">
			<ele>174.800003051758</ele>
			<time>2014-01-02T10:57:21Z</time>
		</trkpt>
		<trkpt lat="39.4441375732422" lon="2.75918102264404">
			<ele>175</ele>
			<time>2014-01-02T10:57:23Z</time>
		</trkpt>
		<trkpt lat="39.4440841674805" lon="2.75920677185059">
			<ele>175.199996948242</ele>
			<time>2014-01-02T10:57:25Z</time>
		</trkpt>
		<trkpt lat="39.4440383911133" lon="2.75923156738281">
			<ele>175.399993896484</ele>
			<time>2014-01-02T10:57:27Z</time>
		</trkpt>
		<trkpt lat="39.4439888000488" lon="2.7592568397522">
			<ele>175.5</ele>
			<time>2014-01-02T10:57:29Z</time>
		</trkpt>
		<trkpt lat="39.4439353942871" lon="2.75928473472595">
			<ele>175.899993896484</ele>
			<time>2014-01-02T10:57:31Z</time>
		</trkpt>
		<trkpt lat="39.4438858032227" lon="2.75931024551392">
			<ele>176.100006103516</ele>
			<time>2014-01-02T10:57:33Z</time>
		</trkpt>
		<trkpt lat="39.4438400268555" lon="2.75933146476746">
			<ele>176.5</ele>
			<time>2014-01-02T10:57:35Z</time>
		</trkpt>
		<trkpt lat="39.443790435791" lon="2.75935840606689">
			<ele>176.399993896484</ele>
			<time>2014-01-02T10:57:37Z</time>
		</trkpt>
		<trkpt lat="39.4437446594238" lon="2.75938725471497">
			<ele>176.199996948242</ele>
			<time>2014-01-02T10:57:39Z</time>
		</trkpt>
		<trkpt lat="39.4436912536621" lon="2.7594153881073">
			<ele>176.5</ele>
			<time>2014-01-02T10:57:41Z</time>
		</trkpt>
		<trkpt lat="39.4436454772949" lon="2.75943922996521">
			<ele>176.5</ele>
			<time>2014-01-02T10:57:43Z</time>
		</trkpt>
		<trkpt lat="39.4435958862305" lon="2.75946307182312">
			<ele>176.899993896484</ele>
			<time>2014-01-02T10:57:45Z</time>
		</trkpt>
		<trkpt lat="39.4435501098633" lon="2.75948429107666">
			<ele>177.5</ele>
			<time>2014-01-02T10:57:47Z</time>
		</trkpt>
		<trkpt lat="39.4435043334961" lon="2.75950622558594">
			<ele>177.899993896484</ele>
			<time>2014-01-02T10:57:49Z</time>
		</trkpt>
		<trkpt lat="39.4434585571289" lon="2.7595272064209">
			<ele>178.199996948242</ele>
			<time>2014-01-02T10:57:51Z</time>
		</trkpt>
		<trkpt lat="39.4434127807617" lon="2.75955009460449">
			<ele>178.399993896484</ele>
			<time>2014-01-02T10:57:53Z</time>
		</trkpt>
		<trkpt lat="39.4433670043945" lon="2.75956583023071">
			<ele>179.100006103516</ele>
			<time>2014-01-02T10:57:55Z</time>
		</trkpt>
		<trkpt lat="39.4433135986328" lon="2.75959134101868">
			<ele>179.699996948242</ele>
			<time>2014-01-02T10:57:57Z</time>
		</trkpt>
		<trkpt lat="39.4432678222656" lon="2.75961542129517">
			<ele>180.100006103516</ele>
			<time>2014-01-02T10:57:59Z</time>
		</trkpt>
		<trkpt lat="39.4432220458984" lon="2.75964403152466">
			<ele>180.300003051758</ele>
			<time>2014-01-02T10:58:01Z</time>
		</trkpt>
		<trkpt lat="39.4431762695313" lon="2.75967073440552">
			<ele>180.199996948242</ele>
			<time>2014-01-02T10:58:03Z</time>
		</trkpt>
		<trkpt lat="39.4431228637695" lon="2.75969266891479">
			<ele>180.699996948242</ele>
			<time>2014-01-02T10:58:05Z</time>
		</trkpt>
		<trkpt lat="39.4430770874023" lon="2.75972008705139">
			<ele>180.800003051758</ele>
			<time>2014-01-02T10:58:07Z</time>
		</trkpt>
		<trkpt lat="39.4430236816406" lon="2.75975036621094">
			<ele>180.699996948242</ele>
			<time>2014-01-02T10:58:09Z</time>
		</trkpt>
		<trkpt lat="39.4429702758789" lon="2.75977468490601">
			<ele>180.600006103516</ele>
			<time>2014-01-02T10:58:11Z</time>
		</trkpt>
		<trkpt lat="39.4429206848145" lon="2.75980234146118">
			<ele>180.800003051758</ele>
			<time>2014-01-02T10:58:13Z</time>
		</trkpt>
		<trkpt lat="39.44287109375" lon="2.75982975959778">
			<ele>181.100006103516</ele>
			<time>2014-01-02T10:58:15Z</time>
		</trkpt>
		<trkpt lat="39.4428176879883" lon="2.75985932350159">
			<ele>181.5</ele>
			<time>2014-01-02T10:58:17Z</time>
		</trkpt>
		<trkpt lat="39.4427680969238" lon="2.75988364219666">
			<ele>181.899993896484</ele>
			<time>2014-01-02T10:58:19Z</time>
		</trkpt>
		<trkpt lat="39.4427223205566" lon="2.75990962982178">
			<ele>182.199996948242</ele>
			<time>2014-01-02T10:58:21Z</time>
		</trkpt>
		<trkpt lat="39.4426765441895" lon="2.7599356174469">
			<ele>182.600006103516</ele>
			<time>2014-01-02T10:58:23Z</time>
		</trkpt>
		<trkpt lat="39.442626953125" lon="2.75996088981628">
			<ele>182.800003051758</ele>
			<time>2014-01-02T10:58:25Z</time>
		</trkpt>
		<trkpt lat="39.4425773620605" lon="2.75998425483704">
			<ele>182.600006103516</ele>
			<time>2014-01-02T10:58:27Z</time>
		</trkpt>
		<trkpt lat="39.4425315856934" lon="2.76000785827637">
			<ele>182.800003051758</ele>
			<time>2014-01-02T10:58:29Z</time>
		</trkpt>
		<trkpt lat="39.4424896240234" lon="2.76002979278564">
			<ele>182.800003051758</ele>
			<time>2014-01-02T10:58:31Z</time>
		</trkpt>
		<trkpt lat="39.4424438476563" lon="2.76005601882935">
			<ele>183.100006103516</ele>
			<time>2014-01-02T10:58:33Z</time>
		</trkpt>
		<trkpt lat="39.4423980712891" lon="2.76007914543152">
			<ele>183.5</ele>
			<time>2014-01-02T10:58:35Z</time>
		</trkpt>
		<trkpt lat="39.4423522949219" lon="2.76010704040527">
			<ele>183.800003051758</ele>
			<time>2014-01-02T10:58:37Z</time>
		</trkpt>
		<trkpt lat="39.442310333252" lon="2.76013278961182">
			<ele>184</ele>
			<time>2014-01-02T10:58:39Z</time>
		</trkpt>
		<trkpt lat="39.4422645568848" lon="2.76015639305115">
			<ele>184</ele>
			<time>2014-01-02T10:58:41Z</time>
		</trkpt>
		<trkpt lat="39.4422225952148" lon="2.76017761230469">
			<ele>184.199996948242</ele>
			<time>2014-01-02T10:58:43Z</time>
		</trkpt>
		<trkpt lat="39.4421844482422" lon="2.76020455360413">
			<ele>184.199996948242</ele>
			<time>2014-01-02T10:58:45Z</time>
		</trkpt>
		<trkpt lat="39.442138671875" lon="2.7602276802063">
			<ele>184.199996948242</ele>
			<time>2014-01-02T10:58:47Z</time>
		</trkpt>
		<trkpt lat="39.4420890808105" lon="2.76024436950684">
			<ele>184.399993896484</ele>
			<time>2014-01-02T10:58:49Z</time>
		</trkpt>
		<trkpt lat="39.4420433044434" lon="2.76026344299316">
			<ele>184.600006103516</ele>
			<time>2014-01-02T10:58:51Z</time>
		</trkpt>
		<trkpt lat="39.4419975280762" lon="2.76028418540955">
			<ele>184.699996948242</ele>
			<time>2014-01-02T10:58:53Z</time>
		</trkpt>
		<trkpt lat="39.4419555664063" lon="2.76031303405762">
			<ele>184.800003051758</ele>
			<time>2014-01-02T10:58:55Z</time>
		</trkpt>
		<trkpt lat="39.4419136047363" lon="2.76034641265869">
			<ele>184.899993896484</ele>
			<time>2014-01-02T10:58:57Z</time>
		</trkpt>
		<trkpt lat="39.4418678283691" lon="2.76037430763245">
			<ele>185.399993896484</ele>
			<time>2014-01-02T10:58:59Z</time>
		</trkpt>
		<trkpt lat="39.441822052002" lon="2.76040410995483">
			<ele>185.399993896484</ele>
			<time>2014-01-02T10:59:01Z</time>
		</trkpt>
		<trkpt lat="39.4417762756348" lon="2.7604296207428">
			<ele>185.699996948242</ele>
			<time>2014-01-02T10:59:03Z</time>
		</trkpt>
		<trkpt lat="39.4417343139648" lon="2.76045656204224">
			<ele>186</ele>
			<time>2014-01-02T10:59:05Z</time>
		</trkpt>
		<trkpt lat="39.4416847229004" lon="2.76047849655151">
			<ele>186.199996948242</ele>
			<time>2014-01-02T10:59:07Z</time>
		</trkpt>
		<trkpt lat="39.4416389465332" lon="2.76050472259521">
			<ele>186.800003051758</ele>
			<time>2014-01-02T10:59:09Z</time>
		</trkpt>
		<trkpt lat="39.441593170166" lon="2.7605254650116">
			<ele>187</ele>
			<time>2014-01-02T10:59:11Z</time>
		</trkpt>
		<trkpt lat="39.4415473937988" lon="2.76055145263672">
			<ele>187.399993896484</ele>
			<time>2014-01-02T10:59:13Z</time>
		</trkpt>
		<trkpt lat="39.4415054321289" lon="2.76057386398315">
			<ele>187.699996948242</ele>
			<time>2014-01-02T10:59:15Z</time>
		</trkpt>
		<trkpt lat="39.4414596557617" lon="2.76059532165527">
			<ele>188</ele>
			<time>2014-01-02T10:59:17Z</time>
		</trkpt>
		<trkpt lat="39.4414138793945" lon="2.76061987876892">
			<ele>188.100006103516</ele>
			<time>2014-01-02T10:59:19Z</time>
		</trkpt>
		<trkpt lat="39.4413719177246" lon="2.76064276695251">
			<ele>188.199996948242</ele>
			<time>2014-01-02T10:59:21Z</time>
		</trkpt>
		<trkpt lat="39.4413299560547" lon="2.76066303253174">
			<ele>188.399993896484</ele>
			<time>2014-01-02T10:59:23Z</time>
		</trkpt>
		<trkpt lat="39.4412879943848" lon="2.76068258285522">
			<ele>188.699996948242</ele>
			<time>2014-01-02T10:59:25Z</time>
		</trkpt>
		<trkpt lat="39.4412269592285" lon="2.76071548461914">
			<ele>189.300003051758</ele>
			<time>2014-01-02T10:59:28Z</time>
		</trkpt>
		<trkpt lat="39.4411811828613" lon="2.7607421875">
			<ele>189.100006103516</ele>
			<time>2014-01-02T10:59:30Z</time>
		</trkpt>
		<trkpt lat="39.4411392211914" lon="2.76076173782349">
			<ele>189.5</ele>
			<time>2014-01-02T10:59:32Z</time>
		</trkpt>
		<trkpt lat="39.4410972595215" lon="2.76078581809998">
			<ele>189.899993896484</ele>
			<time>2014-01-02T10:59:34Z</time>
		</trkpt>
		<trkpt lat="39.4410514831543" lon="2.76080703735352">
			<ele>190.199996948242</ele>
			<time>2014-01-02T10:59:36Z</time>
		</trkpt>
		<trkpt lat="39.440990447998" lon="2.76083922386169">
			<ele>190.5</ele>
			<time>2014-01-02T10:59:39Z</time>
		</trkpt>
		<trkpt lat="39.4409484863281" lon="2.76086068153381">
			<ele>190.600006103516</ele>
			<time>2014-01-02T10:59:41Z</time>
		</trkpt>
		<trkpt lat="39.4409065246582" lon="2.76088213920593">
			<ele>190.899993896484</ele>
			<time>2014-01-02T10:59:43Z</time>
		</trkpt>
		<trkpt lat="39.4408645629883" lon="2.76091074943542">
			<ele>191.300003051758</ele>
			<time>2014-01-02T10:59:45Z</time>
		</trkpt>
		<trkpt lat="39.4408226013184" lon="2.76093697547913">
			<ele>191.600006103516</ele>
			<time>2014-01-02T10:59:47Z</time>
		</trkpt>
		<trkpt lat="39.4407844543457" lon="2.76096868515015">
			<ele>191.699996948242</ele>
			<time>2014-01-02T10:59:49Z</time>
		</trkpt>
		<trkpt lat="39.4407424926758" lon="2.7609965801239">
			<ele>192.100006103516</ele>
			<time>2014-01-02T10:59:51Z</time>
		</trkpt>
		<trkpt lat="39.4407005310059" lon="2.76102137565613">
			<ele>192.600006103516</ele>
			<time>2014-01-02T10:59:53Z</time>
		</trkpt>
		<trkpt lat="39.4406547546387" lon="2.76104879379272">
			<ele>192.600006103516</ele>
			<time>2014-01-02T10:59:55Z</time>
		</trkpt>
		<trkpt lat="39.4406127929688" lon="2.76107001304626">
			<ele>193</ele>
			<time>2014-01-02T10:59:57Z</time>
		</trkpt>
		<trkpt lat="39.4405708312988" lon="2.76109290122986">
			<ele>193.100006103516</ele>
			<time>2014-01-02T10:59:59Z</time>
		</trkpt>
		<trkpt lat="39.4405250549316" lon="2.76111221313477">
			<ele>193.600006103516</ele>
			<time>2014-01-02T11:00:01Z</time>
		</trkpt>
		<trkpt lat="39.4404792785645" lon="2.76113295555115">
			<ele>193.899993896484</ele>
			<time>2014-01-02T11:00:03Z</time>
		</trkpt>
		<trkpt lat="39.4404373168945" lon="2.76115584373474">
			<ele>193.899993896484</ele>
			<time>2014-01-02T11:00:05Z</time>
		</trkpt>
		<trkpt lat="39.4403953552246" lon="2.76117658615112">
			<ele>194.199996948242</ele>
			<time>2014-01-02T11:00:07Z</time>
		</trkpt>
		<trkpt lat="39.4403495788574" lon="2.76120090484619">
			<ele>194.300003051758</ele>
			<time>2014-01-02T11:00:09Z</time>
		</trkpt>
		<trkpt lat="39.4403076171875" lon="2.76122212409973">
			<ele>194.800003051758</ele>
			<time>2014-01-02T11:00:11Z</time>
		</trkpt>
		<trkpt lat="39.4402618408203" lon="2.76124119758606">
			<ele>195.100006103516</ele>
			<time>2014-01-02T11:00:13Z</time>
		</trkpt>
		<trkpt lat="39.4402198791504" lon="2.76126551628113">
			<ele>195.399993896484</ele>
			<time>2014-01-02T11:00:15Z</time>
		</trkpt>
		<trkpt lat="39.4401741027832" lon="2.76128578186035">
			<ele>195.800003051758</ele>
			<time>2014-01-02T11:00:17Z</time>
		</trkpt>
		<trkpt lat="39.4401245117188" lon="2.76130652427673">
			<ele>196.100006103516</ele>
			<time>2014-01-02T11:00:19Z</time>
		</trkpt>
		<trkpt lat="39.4400787353516" lon="2.76132798194885">
			<ele>196.5</ele>
			<time>2014-01-02T11:00:21Z</time>
		</trkpt>
		<trkpt lat="39.4400291442871" lon="2.76134562492371">
			<ele>196.600006103516</ele>
			<time>2014-01-02T11:00:23Z</time>
		</trkpt>
		<trkpt lat="39.4399833679199" lon="2.76136493682861">
			<ele>197</ele>
			<time>2014-01-02T11:00:25Z</time>
		</trkpt>
		<trkpt lat="39.4399337768555" lon="2.76137614250183">
			<ele>197.199996948242</ele>
			<time>2014-01-02T11:00:27Z</time>
		</trkpt>
		<trkpt lat="39.4398880004883" lon="2.76138830184937">
			<ele>197.600006103516</ele>
			<time>2014-01-02T11:00:29Z</time>
		</trkpt>
		<trkpt lat="39.4398384094238" lon="2.76140546798706">
			<ele>197.699996948242</ele>
			<time>2014-01-02T11:00:31Z</time>
		</trkpt>
		<trkpt lat="39.4397888183594" lon="2.76141238212585">
			<ele>198</ele>
			<time>2014-01-02T11:00:33Z</time>
		</trkpt>
		<trkpt lat="39.4397392272949" lon="2.76142144203186">
			<ele>198.399993896484</ele>
			<time>2014-01-02T11:00:35Z</time>
		</trkpt>
		<trkpt lat="39.4396934509277" lon="2.76142644882202">
			<ele>198.199996948242</ele>
			<time>2014-01-02T11:00:37Z</time>
		</trkpt>
		<trkpt lat="39.439640045166" lon="2.76143050193787">
			<ele>198.199996948242</ele>
			<time>2014-01-02T11:00:39Z</time>
		</trkpt>
		<trkpt lat="39.4395904541016" lon="2.76143479347229">
			<ele>198.199996948242</ele>
			<time>2014-01-02T11:00:41Z</time>
		</trkpt>
		<trkpt lat="39.4395370483398" lon="2.76143670082092">
			<ele>198.300003051758</ele>
			<time>2014-01-02T11:00:43Z</time>
		</trkpt>
		<trkpt lat="39.4394836425781" lon="2.76143479347229">
			<ele>198.300003051758</ele>
			<time>2014-01-02T11:00:45Z</time>
		</trkpt>
		<trkpt lat="39.4394302368164" lon="2.76143002510071">
			<ele>197.899993896484</ele>
			<time>2014-01-02T11:00:47Z</time>
		</trkpt>
		<trkpt lat="39.4393768310547" lon="2.76142311096191">
			<ele>198.100006103516</ele>
			<time>2014-01-02T11:00:49Z</time>
		</trkpt>
		<trkpt lat="39.4393157958984" lon="2.76141262054443">
			<ele>198</ele>
			<time>2014-01-02T11:00:51Z</time>
		</trkpt>
		<trkpt lat="39.4392623901367" lon="2.76140356063843">
			<ele>197.800003051758</ele>
			<time>2014-01-02T11:00:53Z</time>
		</trkpt>
		<trkpt lat="39.4392051696777" lon="2.76138854026794">
			<ele>197.699996948242</ele>
			<time>2014-01-02T11:00:55Z</time>
		</trkpt>
		<trkpt lat="39.4391479492188" lon="2.76137208938599">
			<ele>198</ele>
			<time>2014-01-02T11:00:57Z</time>
		</trkpt>
		<trkpt lat="39.4390907287598" lon="2.7613525390625">
			<ele>198</ele>
			<time>2014-01-02T11:00:59Z</time>
		</trkpt>
		<trkpt lat="39.4390335083008" lon="2.76132035255432">
			<ele>198</ele>
			<time>2014-01-02T11:01:01Z</time>
		</trkpt>
		<trkpt lat="39.4389724731445" lon="2.76129508018494">
			<ele>198</ele>
			<time>2014-01-02T11:01:03Z</time>
		</trkpt>
		<trkpt lat="39.4389152526855" lon="2.76126742362976">
			<ele>198</ele>
			<time>2014-01-02T11:01:05Z</time>
		</trkpt>
		<trkpt lat="39.438850402832" lon="2.76123881340027">
			<ele>198</ele>
			<time>2014-01-02T11:01:07Z</time>
		</trkpt>
		<trkpt lat="39.4387969970703" lon="2.76121354103088">
			<ele>198</ele>
			<time>2014-01-02T11:01:09Z</time>
		</trkpt>
		<trkpt lat="39.4387397766113" lon="2.76118755340576">
			<ele>197.899993896484</ele>
			<time>2014-01-02T11:01:11Z</time>
		</trkpt>
		<trkpt lat="39.4386825561523" lon="2.76116132736206">
			<ele>198.100006103516</ele>
			<time>2014-01-02T11:01:13Z</time>
		</trkpt>
		<trkpt lat="39.4386253356934" lon="2.76112985610962">
			<ele>197.800003051758</ele>
			<time>2014-01-02T11:01:15Z</time>
		</trkpt>
		<trkpt lat="39.4385643005371" lon="2.76110506057739">
			<ele>197.600006103516</ele>
			<time>2014-01-02T11:01:17Z</time>
		</trkpt>
		<trkpt lat="39.4385032653809" lon="2.76107668876648">
			<ele>197.699996948242</ele>
			<time>2014-01-02T11:01:19Z</time>
		</trkpt>
		<trkpt lat="39.4384460449219" lon="2.76104688644409">
			<ele>197.699996948242</ele>
			<time>2014-01-02T11:01:21Z</time>
		</trkpt>
		<trkpt lat="39.4383850097656" lon="2.76102066040039">
			<ele>197.399993896484</ele>
			<time>2014-01-02T11:01:23Z</time>
		</trkpt>
		<trkpt lat="39.4383201599121" lon="2.760990858078">
			<ele>197.199996948242</ele>
			<time>2014-01-02T11:01:25Z</time>
		</trkpt>
		<trkpt lat="39.4382553100586" lon="2.76096081733704">
			<ele>196.800003051758</ele>
			<time>2014-01-02T11:01:27Z</time>
		</trkpt>
		<trkpt lat="39.4381904602051" lon="2.76092863082886">
			<ele>196.600006103516</ele>
			<time>2014-01-02T11:01:29Z</time>
		</trkpt>
		<trkpt lat="39.4381217956543" lon="2.76089429855347">
			<ele>196.399993896484</ele>
			<time>2014-01-02T11:01:31Z</time>
		</trkpt>
		<trkpt lat="39.4380531311035" lon="2.76086592674255">
			<ele>195.699996948242</ele>
			<time>2014-01-02T11:01:33Z</time>
		</trkpt>
		<trkpt lat="39.4379806518555" lon="2.76083111763">
			<ele>195.300003051758</ele>
			<time>2014-01-02T11:01:35Z</time>
		</trkpt>
		<trkpt lat="39.437915802002" lon="2.76079773902893">
			<ele>195.300003051758</ele>
			<time>2014-01-02T11:01:37Z</time>
		</trkpt>
		<trkpt lat="39.4378471374512" lon="2.76076364517212">
			<ele>195.199996948242</ele>
			<time>2014-01-02T11:01:39Z</time>
		</trkpt>
		<trkpt lat="39.4377784729004" lon="2.76073145866394">
			<ele>194.899993896484</ele>
			<time>2014-01-02T11:01:41Z</time>
		</trkpt>
		<trkpt lat="39.4377098083496" lon="2.76069760322571">
			<ele>195</ele>
			<time>2014-01-02T11:01:43Z</time>
		</trkpt>
		<trkpt lat="39.4376411437988" lon="2.76066327095032">
			<ele>194.800003051758</ele>
			<time>2014-01-02T11:01:45Z</time>
		</trkpt>
		<trkpt lat="39.437572479248" lon="2.76063084602356">
			<ele>194.699996948242</ele>
			<time>2014-01-02T11:01:47Z</time>
		</trkpt>
		<trkpt lat="39.4375" lon="2.76059818267822">
			<ele>194.399993896484</ele>
			<time>2014-01-02T11:01:49Z</time>
		</trkpt>
		<trkpt lat="39.4374313354492" lon="2.76056599617004">
			<ele>194.199996948242</ele>
			<time>2014-01-02T11:01:51Z</time>
		</trkpt>
		<trkpt lat="39.4373664855957" lon="2.76053309440613">
			<ele>194.300003051758</ele>
			<time>2014-01-02T11:01:53Z</time>
		</trkpt>
		<trkpt lat="39.4373016357422" lon="2.76050162315369">
			<ele>194.100006103516</ele>
			<time>2014-01-02T11:01:55Z</time>
		</trkpt>
		<trkpt lat="39.4372329711914" lon="2.76046705245972">
			<ele>193.899993896484</ele>
			<time>2014-01-02T11:01:57Z</time>
		</trkpt>
		<trkpt lat="39.4371643066406" lon="2.76043558120728">
			<ele>193.699996948242</ele>
			<time>2014-01-02T11:01:59Z</time>
		</trkpt>
		<trkpt lat="39.4371032714844" lon="2.76040482521057">
			<ele>193.899993896484</ele>
			<time>2014-01-02T11:02:01Z</time>
		</trkpt>
		<trkpt lat="39.4370384216309" lon="2.76037526130676">
			<ele>194</ele>
			<time>2014-01-02T11:02:03Z</time>
		</trkpt>
		<trkpt lat="39.4369735717773" lon="2.76035284996033">
			<ele>193.5</ele>
			<time>2014-01-02T11:02:05Z</time>
		</trkpt>
		<trkpt lat="39.4369087219238" lon="2.7603235244751">
			<ele>193.399993896484</ele>
			<time>2014-01-02T11:02:07Z</time>
		</trkpt>
		<trkpt lat="39.4368476867676" lon="2.76029753684998">
			<ele>193.399993896484</ele>
			<time>2014-01-02T11:02:09Z</time>
		</trkpt>
		<trkpt lat="39.4367790222168" lon="2.76027131080627">
			<ele>193.399993896484</ele>
			<time>2014-01-02T11:02:11Z</time>
		</trkpt>
		<trkpt lat="39.4367179870605" lon="2.76023411750793">
			<ele>193.399993896484</ele>
			<time>2014-01-02T11:02:13Z</time>
		</trkpt>
		<trkpt lat="39.436653137207" lon="2.76020503044128">
			<ele>193.5</ele>
			<time>2014-01-02T11:02:15Z</time>
		</trkpt>
		<trkpt lat="39.436595916748" lon="2.76017951965332">
			<ele>193.899993896484</ele>
			<time>2014-01-02T11:02:17Z</time>
		</trkpt>
		<trkpt lat="39.4365386962891" lon="2.76015567779541">
			<ele>193.5</ele>
			<time>2014-01-02T11:02:19Z</time>
		</trkpt>
		<trkpt lat="39.4364891052246" lon="2.76013040542603">
			<ele>193.600006103516</ele>
			<time>2014-01-02T11:02:21Z</time>
		</trkpt>
		<trkpt lat="39.4364280700684" lon="2.7601306438446">
			<ele>192.899993896484</ele>
			<time>2014-01-02T11:02:23Z</time>
		</trkpt>
		<trkpt lat="39.4363822937012" lon="2.76019859313965">
			<ele>192.399993896484</ele>
			<time>2014-01-02T11:02:25Z</time>
		</trkpt>
		<trkpt lat="39.4363632202148" lon="2.76028800010681">
			<ele>191.800003051758</ele>
			<time>2014-01-02T11:02:27Z</time>
		</trkpt>
		<trkpt lat="39.4363327026367" lon="2.76037383079529">
			<ele>191.899993896484</ele>
			<time>2014-01-02T11:02:29Z</time>
		</trkpt>
		<trkpt lat="39.4363059997559" lon="2.76046919822693">
			<ele>191.699996948242</ele>
			<time>2014-01-02T11:02:31Z</time>
		</trkpt>
		<trkpt lat="39.436279296875" lon="2.76057052612305">
			<ele>191.600006103516</ele>
			<time>2014-01-02T11:02:33Z</time>
		</trkpt>
		<trkpt lat="39.4362487792969" lon="2.76067638397217">
			<ele>191.100006103516</ele>
			<time>2014-01-02T11:02:35Z</time>
		</trkpt>
		<trkpt lat="39.4362335205078" lon="2.76073241233826">
			<ele>190.699996948242</ele>
			<time>2014-01-02T11:02:36Z</time>
		</trkpt>
		<trkpt lat="39.4362182617188" lon="2.76078987121582">
			<ele>190.600006103516</ele>
			<time>2014-01-02T11:02:37Z</time>
		</trkpt>
		<trkpt lat="39.4362030029297" lon="2.76084566116333">
			<ele>190.600006103516</ele>
			<time>2014-01-02T11:02:38Z</time>
		</trkpt>
		<trkpt lat="39.4361763000488" lon="2.76095104217529">
			<ele>190.100006103516</ele>
			<time>2014-01-02T11:02:40Z</time>
		</trkpt>
		<trkpt lat="39.436149597168" lon="2.76105070114136">
			<ele>189.699996948242</ele>
			<time>2014-01-02T11:02:42Z</time>
		</trkpt>
		<trkpt lat="39.4361228942871" lon="2.76114988327026">
			<ele>189.399993896484</ele>
			<time>2014-01-02T11:02:44Z</time>
		</trkpt>
		<trkpt lat="39.4360961914063" lon="2.76124978065491">
			<ele>189.300003051758</ele>
			<time>2014-01-02T11:02:46Z</time>
		</trkpt>
		<trkpt lat="39.4360656738281" lon="2.76135063171387">
			<ele>189</ele>
			<time>2014-01-02T11:02:48Z</time>
		</trkpt>
		<trkpt lat="39.43603515625" lon="2.76145148277283">
			<ele>188.800003051758</ele>
			<time>2014-01-02T11:02:50Z</time>
		</trkpt>
		<trkpt lat="39.4360046386719" lon="2.76155591011047">
			<ele>189</ele>
			<time>2014-01-02T11:02:52Z</time>
		</trkpt>
		<trkpt lat="39.435977935791" lon="2.76165986061096">
			<ele>188.800003051758</ele>
			<time>2014-01-02T11:02:54Z</time>
		</trkpt>
		<trkpt lat="39.4359474182129" lon="2.76176166534424">
			<ele>188.699996948242</ele>
			<time>2014-01-02T11:02:56Z</time>
		</trkpt>
		<trkpt lat="39.4359130859375" lon="2.76186227798462">
			<ele>188.5</ele>
			<time>2014-01-02T11:02:58Z</time>
		</trkpt>
		<trkpt lat="39.4358863830566" lon="2.76196312904358">
			<ele>188.399993896484</ele>
			<time>2014-01-02T11:03:00Z</time>
		</trkpt>
		<trkpt lat="39.4358596801758" lon="2.76206493377686">
			<ele>188.5</ele>
			<time>2014-01-02T11:03:02Z</time>
		</trkpt>
		<trkpt lat="39.4358329772949" lon="2.76216387748718">
			<ele>188.399993896484</ele>
			<time>2014-01-02T11:03:04Z</time>
		</trkpt>
		<trkpt lat="39.4358024597168" lon="2.76226735115051">
			<ele>188.600006103516</ele>
			<time>2014-01-02T11:03:06Z</time>
		</trkpt>
		<trkpt lat="39.4357719421387" lon="2.76237106323242">
			<ele>188.399993896484</ele>
			<time>2014-01-02T11:03:08Z</time>
		</trkpt>
		<trkpt lat="39.4357376098633" lon="2.76247954368591">
			<ele>188.300003051758</ele>
			<time>2014-01-02T11:03:10Z</time>
		</trkpt>
		<trkpt lat="39.4357223510742" lon="2.76253604888916">
			<ele>188.600006103516</ele>
			<time>2014-01-02T11:03:11Z</time>
		</trkpt>
		<trkpt lat="39.4357070922852" lon="2.76259326934814">
			<ele>188.399993896484</ele>
			<time>2014-01-02T11:03:12Z</time>
		</trkpt>
		<trkpt lat="39.435676574707" lon="2.76270651817322">
			<ele>188.300003051758</ele>
			<time>2014-01-02T11:03:14Z</time>
		</trkpt>
		<trkpt lat="39.4356575012207" lon="2.76276850700378">
			<ele>188.300003051758</ele>
			<time>2014-01-02T11:03:15Z</time>
		</trkpt>
		<trkpt lat="39.4356422424316" lon="2.7628276348114">
			<ele>188</ele>
			<time>2014-01-02T11:03:16Z</time>
		</trkpt>
		<trkpt lat="39.4356231689453" lon="2.76288819313049">
			<ele>187.699996948242</ele>
			<time>2014-01-02T11:03:17Z</time>
		</trkpt>
		<trkpt lat="39.435604095459" lon="2.76294946670532">
			<ele>188.100006103516</ele>
			<time>2014-01-02T11:03:18Z</time>
		</trkpt>
		<trkpt lat="39.4355888366699" lon="2.76301240921021">
			<ele>188.199996948242</ele>
			<time>2014-01-02T11:03:19Z</time>
		</trkpt>
		<trkpt lat="39.4355697631836" lon="2.76307272911072">
			<ele>188.100006103516</ele>
			<time>2014-01-02T11:03:20Z</time>
		</trkpt>
		<trkpt lat="39.4355506896973" lon="2.76313281059265">
			<ele>187.699996948242</ele>
			<time>2014-01-02T11:03:21Z</time>
		</trkpt>
		<trkpt lat="39.4355316162109" lon="2.76319360733032">
			<ele>187.399993896484</ele>
			<time>2014-01-02T11:03:22Z</time>
		</trkpt>
		<trkpt lat="39.4355163574219" lon="2.76325511932373">
			<ele>187.199996948242</ele>
			<time>2014-01-02T11:03:23Z</time>
		</trkpt>
		<trkpt lat="39.4355010986328" lon="2.76331949234009">
			<ele>187.199996948242</ele>
			<time>2014-01-02T11:03:24Z</time>
		</trkpt>
		<trkpt lat="39.4354858398438" lon="2.76337933540344">
			<ele>187.100006103516</ele>
			<time>2014-01-02T11:03:25Z</time>
		</trkpt>
		<trkpt lat="39.4354705810547" lon="2.76344156265259">
			<ele>187</ele>
			<time>2014-01-02T11:03:26Z</time>
		</trkpt>
		<trkpt lat="39.4354553222656" lon="2.76350212097168">
			<ele>187.100006103516</ele>
			<time>2014-01-02T11:03:27Z</time>
		</trkpt>
		<trkpt lat="39.4354362487793" lon="2.76356267929077">
			<ele>187</ele>
			<time>2014-01-02T11:03:28Z</time>
		</trkpt>
		<trkpt lat="39.435417175293" lon="2.76362133026123">
			<ele>186.699996948242</ele>
			<time>2014-01-02T11:03:29Z</time>
		</trkpt>
		<trkpt lat="39.4354019165039" lon="2.76367926597595">
			<ele>186.699996948242</ele>
			<time>2014-01-02T11:03:30Z</time>
		</trkpt>
		<trkpt lat="39.4353828430176" lon="2.76373720169067">
			<ele>186.699996948242</ele>
			<time>2014-01-02T11:03:31Z</time>
		</trkpt>
		<trkpt lat="39.4353675842285" lon="2.76379323005676">
			<ele>186.699996948242</ele>
			<time>2014-01-02T11:03:32Z</time>
		</trkpt>
		<trkpt lat="39.4353523254395" lon="2.76385235786438">
			<ele>186.699996948242</ele>
			<time>2014-01-02T11:03:33Z</time>
		</trkpt>
		<trkpt lat="39.4353370666504" lon="2.76391291618347">
			<ele>186.899993896484</ele>
			<time>2014-01-02T11:03:34Z</time>
		</trkpt>
		<trkpt lat="39.4353218078613" lon="2.76397204399109">
			<ele>186.899993896484</ele>
			<time>2014-01-02T11:03:35Z</time>
		</trkpt>
		<trkpt lat="39.4353065490723" lon="2.76403117179871">
			<ele>187</ele>
			<time>2014-01-02T11:03:36Z</time>
		</trkpt>
		<trkpt lat="39.4352836608887" lon="2.7641429901123">
			<ele>187.100006103516</ele>
			<time>2014-01-02T11:03:38Z</time>
		</trkpt>
		<trkpt lat="39.4352684020996" lon="2.7642023563385">
			<ele>187</ele>
			<time>2014-01-02T11:03:39Z</time>
		</trkpt>
		<trkpt lat="39.4352531433105" lon="2.76426267623901">
			<ele>187</ele>
			<time>2014-01-02T11:03:40Z</time>
		</trkpt>
		<trkpt lat="39.4352378845215" lon="2.764319896698">
			<ele>186.800003051758</ele>
			<time>2014-01-02T11:03:41Z</time>
		</trkpt>
		<trkpt lat="39.4352264404297" lon="2.76437711715698">
			<ele>186.800003051758</ele>
			<time>2014-01-02T11:03:42Z</time>
		</trkpt>
		<trkpt lat="39.4352111816406" lon="2.76443481445313">
			<ele>186.899993896484</ele>
			<time>2014-01-02T11:03:43Z</time>
		</trkpt>
		<trkpt lat="39.4351921081543" lon="2.76448798179626">
			<ele>187.199996948242</ele>
			<time>2014-01-02T11:03:44Z</time>
		</trkpt>
		<trkpt lat="39.435173034668" lon="2.76454997062683">
			<ele>186.899993896484</ele>
			<time>2014-01-02T11:03:45Z</time>
		</trkpt>
		<trkpt lat="39.4351577758789" lon="2.7646119594574">
			<ele>186.5</ele>
			<time>2014-01-02T11:03:46Z</time>
		</trkpt>
		<trkpt lat="39.4351387023926" lon="2.76466822624207">
			<ele>186.199996948242</ele>
			<time>2014-01-02T11:03:47Z</time>
		</trkpt>
		<trkpt lat="39.4351196289063" lon="2.76472783088684">
			<ele>185.899993896484</ele>
			<time>2014-01-02T11:03:48Z</time>
		</trkpt>
		<trkpt lat="39.4351081848145" lon="2.76478981971741">
			<ele>185.800003051758</ele>
			<time>2014-01-02T11:03:49Z</time>
		</trkpt>
		<trkpt lat="39.4350891113281" lon="2.76485443115234">
			<ele>185.800003051758</ele>
			<time>2014-01-02T11:03:50Z</time>
		</trkpt>
		<trkpt lat="39.4350738525391" lon="2.76491403579712">
			<ele>185.899993896484</ele>
			<time>2014-01-02T11:03:51Z</time>
		</trkpt>
		<trkpt lat="39.4350547790527" lon="2.76497769355774">
			<ele>185.899993896484</ele>
			<time>2014-01-02T11:03:52Z</time>
		</trkpt>
		<trkpt lat="39.4350357055664" lon="2.76504039764404">
			<ele>185.800003051758</ele>
			<time>2014-01-02T11:03:53Z</time>
		</trkpt>
		<trkpt lat="39.4350204467773" lon="2.76510095596313">
			<ele>185.600006103516</ele>
			<time>2014-01-02T11:03:54Z</time>
		</trkpt>
		<trkpt lat="39.435001373291" lon="2.76515960693359">
			<ele>185.699996948242</ele>
			<time>2014-01-02T11:03:55Z</time>
		</trkpt>
		<trkpt lat="39.4349899291992" lon="2.76522254943848">
			<ele>185.5</ele>
			<time>2014-01-02T11:03:56Z</time>
		</trkpt>
		<trkpt lat="39.4349708557129" lon="2.76528596878052">
			<ele>185.600006103516</ele>
			<time>2014-01-02T11:03:57Z</time>
		</trkpt>
		<trkpt lat="39.4349555969238" lon="2.76534605026245">
			<ele>185.600006103516</ele>
			<time>2014-01-02T11:03:58Z</time>
		</trkpt>
		<trkpt lat="39.4349403381348" lon="2.7654070854187">
			<ele>185.800003051758</ele>
			<time>2014-01-02T11:03:59Z</time>
		</trkpt>
		<trkpt lat="39.4349212646484" lon="2.76546835899353">
			<ele>185.399993896484</ele>
			<time>2014-01-02T11:04:00Z</time>
		</trkpt>
		<trkpt lat="39.4349060058594" lon="2.76552677154541">
			<ele>185.100006103516</ele>
			<time>2014-01-02T11:04:01Z</time>
		</trkpt>
		<trkpt lat="39.4348907470703" lon="2.76558899879456">
			<ele>184.800003051758</ele>
			<time>2014-01-02T11:04:02Z</time>
		</trkpt>
		<trkpt lat="39.434871673584" lon="2.76565074920654">
			<ele>184.600006103516</ele>
			<time>2014-01-02T11:04:03Z</time>
		</trkpt>
		<trkpt lat="39.4348526000977" lon="2.76571130752563">
			<ele>184.600006103516</ele>
			<time>2014-01-02T11:04:04Z</time>
		</trkpt>
		<trkpt lat="39.4348373413086" lon="2.76577043533325">
			<ele>184.5</ele>
			<time>2014-01-02T11:04:05Z</time>
		</trkpt>
		<trkpt lat="39.4348220825195" lon="2.76582741737366">
			<ele>184.399993896484</ele>
			<time>2014-01-02T11:04:06Z</time>
		</trkpt>
		<trkpt lat="39.4348030090332" lon="2.7658863067627">
			<ele>184.5</ele>
			<time>2014-01-02T11:04:07Z</time>
		</trkpt>
		<trkpt lat="39.4347877502441" lon="2.76594710350037">
			<ele>184.5</ele>
			<time>2014-01-02T11:04:08Z</time>
		</trkpt>
		<trkpt lat="39.4347763061523" lon="2.76600527763367">
			<ele>184.600006103516</ele>
			<time>2014-01-02T11:04:09Z</time>
		</trkpt>
		<trkpt lat="39.434757232666" lon="2.76606345176697">
			<ele>184.600006103516</ele>
			<time>2014-01-02T11:04:10Z</time>
		</trkpt>
		<trkpt lat="39.434741973877" lon="2.76612281799316">
			<ele>184.399993896484</ele>
			<time>2014-01-02T11:04:11Z</time>
		</trkpt>
		<trkpt lat="39.4347267150879" lon="2.76617908477783">
			<ele>184.399993896484</ele>
			<time>2014-01-02T11:04:12Z</time>
		</trkpt>
		<trkpt lat="39.4347076416016" lon="2.76623940467834">
			<ele>184.300003051758</ele>
			<time>2014-01-02T11:04:13Z</time>
		</trkpt>
		<trkpt lat="39.4346885681152" lon="2.7662980556488">
			<ele>184.100006103516</ele>
			<time>2014-01-02T11:04:14Z</time>
		</trkpt>
		<trkpt lat="39.4346694946289" lon="2.76635694503784">
			<ele>184.100006103516</ele>
			<time>2014-01-02T11:04:15Z</time>
		</trkpt>
		<trkpt lat="39.4346542358398" lon="2.76641702651978">
			<ele>183.800003051758</ele>
			<time>2014-01-02T11:04:16Z</time>
		</trkpt>
		<trkpt lat="39.4346351623535" lon="2.76647686958313">
			<ele>183.699996948242</ele>
			<time>2014-01-02T11:04:17Z</time>
		</trkpt>
		<trkpt lat="39.4346199035645" lon="2.76653790473938">
			<ele>183.699996948242</ele>
			<time>2014-01-02T11:04:18Z</time>
		</trkpt>
		<trkpt lat="39.4346046447754" lon="2.76659393310547">
			<ele>183.600006103516</ele>
			<time>2014-01-02T11:04:19Z</time>
		</trkpt>
		<trkpt lat="39.4345855712891" lon="2.76664972305298">
			<ele>183.600006103516</ele>
			<time>2014-01-02T11:04:20Z</time>
		</trkpt>
		<trkpt lat="39.4345741271973" lon="2.76670837402344">
			<ele>183.600006103516</ele>
			<time>2014-01-02T11:04:21Z</time>
		</trkpt>
		<trkpt lat="39.4345550537109" lon="2.76676368713379">
			<ele>183.800003051758</ele>
			<time>2014-01-02T11:04:22Z</time>
		</trkpt>
		<trkpt lat="39.4345359802246" lon="2.76681971549988">
			<ele>183.699996948242</ele>
			<time>2014-01-02T11:04:23Z</time>
		</trkpt>
		<trkpt lat="39.4345207214355" lon="2.76687908172607">
			<ele>183.800003051758</ele>
			<time>2014-01-02T11:04:24Z</time>
		</trkpt>
		<trkpt lat="39.4345054626465" lon="2.76694107055664">
			<ele>184.199996948242</ele>
			<time>2014-01-02T11:04:26Z</time>
		</trkpt>
		<trkpt lat="39.4344902038574" lon="2.76699829101563">
			<ele>184.100006103516</ele>
			<time>2014-01-02T11:04:27Z</time>
		</trkpt>
		<trkpt lat="39.4344520568848" lon="2.76710629463196">
			<ele>183.899993896484</ele>
			<time>2014-01-02T11:04:29Z</time>
		</trkpt>
		<trkpt lat="39.4344253540039" lon="2.76722168922424">
			<ele>183.899993896484</ele>
			<time>2014-01-02T11:04:30Z</time>
		</trkpt>
		<trkpt lat="39.4343910217285" lon="2.76734328269958">
			<ele>184.100006103516</ele>
			<time>2014-01-02T11:04:32Z</time>
		</trkpt>
		<trkpt lat="39.4343757629395" lon="2.76739907264709">
			<ele>183.600006103516</ele>
			<time>2014-01-02T11:04:33Z</time>
		</trkpt>
		<trkpt lat="39.4343566894531" lon="2.76745939254761">
			<ele>183.899993896484</ele>
			<time>2014-01-02T11:04:34Z</time>
		</trkpt>
		<trkpt lat="39.4343223571777" lon="2.76756858825684">
			<ele>184</ele>
			<time>2014-01-02T11:04:37Z</time>
		</trkpt>
		<trkpt lat="39.4342880249023" lon="2.76769280433655">
			<ele>183.899993896484</ele>
			<time>2014-01-02T11:04:39Z</time>
		</trkpt>
		<trkpt lat="39.4342575073242" lon="2.76781511306763">
			<ele>183.699996948242</ele>
			<time>2014-01-02T11:04:40Z</time>
		</trkpt>
		<trkpt lat="39.4342422485352" lon="2.76787638664246">
			<ele>183.699996948242</ele>
			<time>2014-01-02T11:04:41Z</time>
		</trkpt>
		<trkpt lat="39.4342231750488" lon="2.76794099807739">
			<ele>183.5</ele>
			<time>2014-01-02T11:04:42Z</time>
		</trkpt>
		<trkpt lat="39.4342041015625" lon="2.76800107955933">
			<ele>183.699996948242</ele>
			<time>2014-01-02T11:04:43Z</time>
		</trkpt>
		<trkpt lat="39.4341850280762" lon="2.76806116104126">
			<ele>183.600006103516</ele>
			<time>2014-01-02T11:04:44Z</time>
		</trkpt>
		<trkpt lat="39.4341659545898" lon="2.76812767982483">
			<ele>183.800003051758</ele>
			<time>2014-01-02T11:04:45Z</time>
		</trkpt>
		<trkpt lat="39.4341583251953" lon="2.76818871498108">
			<ele>183.600006103516</ele>
			<time>2014-01-02T11:04:46Z</time>
		</trkpt>
		<trkpt lat="39.4341430664063" lon="2.76824998855591">
			<ele>183.300003051758</ele>
			<time>2014-01-02T11:04:47Z</time>
		</trkpt>
		<trkpt lat="39.4341239929199" lon="2.76831483840942">
			<ele>183.300003051758</ele>
			<time>2014-01-02T11:04:48Z</time>
		</trkpt>
		<trkpt lat="39.4341049194336" lon="2.76837825775146">
			<ele>183.300003051758</ele>
			<time>2014-01-02T11:04:49Z</time>
		</trkpt>
		<trkpt lat="39.4340858459473" lon="2.76844429969788">
			<ele>182.800003051758</ele>
			<time>2014-01-02T11:04:50Z</time>
		</trkpt>
		<trkpt lat="39.4340629577637" lon="2.7685067653656">
			<ele>182.899993896484</ele>
			<time>2014-01-02T11:04:51Z</time>
		</trkpt>
		<trkpt lat="39.4340286254883" lon="2.76856279373169">
			<ele>182.800003051758</ele>
			<time>2014-01-02T11:04:52Z</time>
		</trkpt>
		<trkpt lat="39.4339828491211" lon="2.76860380172729">
			<ele>182.899993896484</ele>
			<time>2014-01-02T11:04:53Z</time>
		</trkpt>
		<trkpt lat="39.4339294433594" lon="2.76863193511963">
			<ele>182.800003051758</ele>
			<time>2014-01-02T11:04:54Z</time>
		</trkpt>
		<trkpt lat="39.4338760375977" lon="2.76865434646606">
			<ele>182.699996948242</ele>
			<time>2014-01-02T11:04:55Z</time>
		</trkpt>
		<trkpt lat="39.4338264465332" lon="2.76867914199829">
			<ele>183</ele>
			<time>2014-01-02T11:04:56Z</time>
		</trkpt>
		<trkpt lat="39.4337730407715" lon="2.76869797706604">
			<ele>183.199996948242</ele>
			<time>2014-01-02T11:04:57Z</time>
		</trkpt>
		<trkpt lat="39.433723449707" lon="2.76872420310974">
			<ele>183</ele>
			<time>2014-01-02T11:04:58Z</time>
		</trkpt>
		<trkpt lat="39.4336738586426" lon="2.76875019073486">
			<ele>183</ele>
			<time>2014-01-02T11:04:59Z</time>
		</trkpt>
		<trkpt lat="39.4336242675781" lon="2.76877617835999">
			<ele>183</ele>
			<time>2014-01-02T11:05:00Z</time>
		</trkpt>
		<trkpt lat="39.4335708618164" lon="2.76879739761353">
			<ele>183</ele>
			<time>2014-01-02T11:05:01Z</time>
		</trkpt>
		<trkpt lat="39.433521270752" lon="2.7688193321228">
			<ele>182.899993896484</ele>
			<time>2014-01-02T11:05:02Z</time>
		</trkpt>
		<trkpt lat="39.433464050293" lon="2.76884269714355">
			<ele>183</ele>
			<time>2014-01-02T11:05:03Z</time>
		</trkpt>
		<trkpt lat="39.4334144592285" lon="2.76886796951294">
			<ele>183.199996948242</ele>
			<time>2014-01-02T11:05:04Z</time>
		</trkpt>
		<trkpt lat="39.4333610534668" lon="2.76889324188232">
			<ele>183</ele>
			<time>2014-01-02T11:05:05Z</time>
		</trkpt>
		<trkpt lat="39.4333038330078" lon="2.76891803741455">
			<ele>182.899993896484</ele>
			<time>2014-01-02T11:05:06Z</time>
		</trkpt>
		<trkpt lat="39.4332504272461" lon="2.76894092559814">
			<ele>182.800003051758</ele>
			<time>2014-01-02T11:05:07Z</time>
		</trkpt>
		<trkpt lat="39.4331932067871" lon="2.76896619796753">
			<ele>182.699996948242</ele>
			<time>2014-01-02T11:05:08Z</time>
		</trkpt>
		<trkpt lat="39.4331398010254" lon="2.76898837089539">
			<ele>182.399993896484</ele>
			<time>2014-01-02T11:05:09Z</time>
		</trkpt>
		<trkpt lat="39.4330825805664" lon="2.76901412010193">
			<ele>182.199996948242</ele>
			<time>2014-01-02T11:05:10Z</time>
		</trkpt>
		<trkpt lat="39.4330291748047" lon="2.76904296875">
			<ele>182.100006103516</ele>
			<time>2014-01-02T11:05:11Z</time>
		</trkpt>
		<trkpt lat="39.4329719543457" lon="2.76906704902649">
			<ele>182.5</ele>
			<time>2014-01-02T11:05:12Z</time>
		</trkpt>
		<trkpt lat="39.432918548584" lon="2.76909780502319">
			<ele>182.300003051758</ele>
			<time>2014-01-02T11:05:13Z</time>
		</trkpt>
		<trkpt lat="39.4328651428223" lon="2.76912426948547">
			<ele>182.300003051758</ele>
			<time>2014-01-02T11:05:14Z</time>
		</trkpt>
		<trkpt lat="39.4328117370605" lon="2.76915168762207">
			<ele>182.100006103516</ele>
			<time>2014-01-02T11:05:15Z</time>
		</trkpt>
		<trkpt lat="39.4327545166016" lon="2.76917505264282">
			<ele>182.300003051758</ele>
			<time>2014-01-02T11:05:16Z</time>
		</trkpt>
		<trkpt lat="39.4327011108398" lon="2.76919937133789">
			<ele>182.5</ele>
			<time>2014-01-02T11:05:17Z</time>
		</trkpt>
		<trkpt lat="39.4326515197754" lon="2.76922655105591">
			<ele>182.699996948242</ele>
			<time>2014-01-02T11:05:18Z</time>
		</trkpt>
		<trkpt lat="39.4325981140137" lon="2.7692506313324">
			<ele>183.699996948242</ele>
			<time>2014-01-02T11:05:19Z</time>
		</trkpt>
		<trkpt lat="39.4325485229492" lon="2.76929497718811">
			<ele>183.399993896484</ele>
			<time>2014-01-02T11:05:20Z</time>
		</trkpt>
		<trkpt lat="39.4325065612793" lon="2.76933550834656">
			<ele>183.399993896484</ele>
			<time>2014-01-02T11:05:21Z</time>
		</trkpt>
		<trkpt lat="39.4324836730957" lon="2.76940321922302">
			<ele>183.199996948242</ele>
			<time>2014-01-02T11:05:22Z</time>
		</trkpt>
		<trkpt lat="39.4324989318848" lon="2.76946926116943">
			<ele>183.399993896484</ele>
			<time>2014-01-02T11:05:23Z</time>
		</trkpt>
		<trkpt lat="39.4325408935547" lon="2.76960420608521">
			<ele>182.899993896484</ele>
			<time>2014-01-02T11:05:25Z</time>
		</trkpt>
		<trkpt lat="39.432559967041" lon="2.76968669891357">
			<ele>182.600006103516</ele>
			<time>2014-01-02T11:05:26Z</time>
		</trkpt>
		<trkpt lat="39.4325714111328" lon="2.76975536346436">
			<ele>182.699996948242</ele>
			<time>2014-01-02T11:05:27Z</time>
		</trkpt>
		<trkpt lat="39.4325866699219" lon="2.76983070373535">
			<ele>182.699996948242</ele>
			<time>2014-01-02T11:05:28Z</time>
		</trkpt>
		<trkpt lat="39.4326057434082" lon="2.76990175247192">
			<ele>183.100006103516</ele>
			<time>2014-01-02T11:05:29Z</time>
		</trkpt>
		<trkpt lat="39.4326248168945" lon="2.76997375488281">
			<ele>182.600006103516</ele>
			<time>2014-01-02T11:05:30Z</time>
		</trkpt>
		<trkpt lat="39.4326438903809" lon="2.77004289627075">
			<ele>182.5</ele>
			<time>2014-01-02T11:05:31Z</time>
		</trkpt>
		<trkpt lat="39.4326591491699" lon="2.77012252807617">
			<ele>182.100006103516</ele>
			<time>2014-01-02T11:05:32Z</time>
		</trkpt>
		<trkpt lat="39.4326782226563" lon="2.77019596099854">
			<ele>182.300003051758</ele>
			<time>2014-01-02T11:05:33Z</time>
		</trkpt>
		<trkpt lat="39.4326934814453" lon="2.77027344703674">
			<ele>182.300003051758</ele>
			<time>2014-01-02T11:05:34Z</time>
		</trkpt>
		<trkpt lat="39.4327125549316" lon="2.77036142349243">
			<ele>181.899993896484</ele>
			<time>2014-01-02T11:05:35Z</time>
		</trkpt>
		<trkpt lat="39.4327278137207" lon="2.77043294906616">
			<ele>181.800003051758</ele>
			<time>2014-01-02T11:05:36Z</time>
		</trkpt>
		<trkpt lat="39.4327430725098" lon="2.77050232887268">
			<ele>181.800003051758</ele>
			<time>2014-01-02T11:05:37Z</time>
		</trkpt>
		<trkpt lat="39.4327621459961" lon="2.7705717086792">
			<ele>182.100006103516</ele>
			<time>2014-01-02T11:05:38Z</time>
		</trkpt>
		<trkpt lat="39.4327774047852" lon="2.77064204216003">
			<ele>182.399993896484</ele>
			<time>2014-01-02T11:05:39Z</time>
		</trkpt>
		<trkpt lat="39.4327926635742" lon="2.77071475982666">
			<ele>182.5</ele>
			<time>2014-01-02T11:05:40Z</time>
		</trkpt>
		<trkpt lat="39.4328117370605" lon="2.77078175544739">
			<ele>182.399993896484</ele>
			<time>2014-01-02T11:05:41Z</time>
		</trkpt>
		<trkpt lat="39.4328269958496" lon="2.77085113525391">
			<ele>182.199996948242</ele>
			<time>2014-01-02T11:05:42Z</time>
		</trkpt>
		<trkpt lat="39.4328422546387" lon="2.77092361450195">
			<ele>182.199996948242</ele>
			<time>2014-01-02T11:05:43Z</time>
		</trkpt>
		<trkpt lat="39.432861328125" lon="2.77098965644836">
			<ele>182.300003051758</ele>
			<time>2014-01-02T11:05:44Z</time>
		</trkpt>
		<trkpt lat="39.4328804016113" lon="2.77105855941772">
			<ele>182.5</ele>
			<time>2014-01-02T11:05:45Z</time>
		</trkpt>
		<trkpt lat="39.4328918457031" lon="2.77112865447998">
			<ele>182.699996948242</ele>
			<time>2014-01-02T11:05:46Z</time>
		</trkpt>
		<trkpt lat="39.4329109191895" lon="2.77120327949524">
			<ele>182.600006103516</ele>
			<time>2014-01-02T11:05:47Z</time>
		</trkpt>
		<trkpt lat="39.4329261779785" lon="2.77127575874329">
			<ele>182.699996948242</ele>
			<time>2014-01-02T11:05:48Z</time>
		</trkpt>
		<trkpt lat="39.4329414367676" lon="2.77134776115417">
			<ele>182.699996948242</ele>
			<time>2014-01-02T11:05:49Z</time>
		</trkpt>
		<trkpt lat="39.4329605102539" lon="2.77141761779785">
			<ele>182.699996948242</ele>
			<time>2014-01-02T11:05:50Z</time>
		</trkpt>
		<trkpt lat="39.432975769043" lon="2.77148365974426">
			<ele>182.399993896484</ele>
			<time>2014-01-02T11:05:51Z</time>
		</trkpt>
		<trkpt lat="39.432991027832" lon="2.77154803276062">
			<ele>182.5</ele>
			<time>2014-01-02T11:05:52Z</time>
		</trkpt>
		<trkpt lat="39.4330062866211" lon="2.77161455154419">
			<ele>182.600006103516</ele>
			<time>2014-01-02T11:05:53Z</time>
		</trkpt>
		<trkpt lat="39.4330215454102" lon="2.77168560028076">
			<ele>182.800003051758</ele>
			<time>2014-01-02T11:05:54Z</time>
		</trkpt>
		<trkpt lat="39.4330406188965" lon="2.77175307273865">
			<ele>182.600006103516</ele>
			<time>2014-01-02T11:05:55Z</time>
		</trkpt>
		<trkpt lat="39.4330520629883" lon="2.77181839942932">
			<ele>182.399993896484</ele>
			<time>2014-01-02T11:05:56Z</time>
		</trkpt>
		<trkpt lat="39.4330711364746" lon="2.77188348770142">
			<ele>182.199996948242</ele>
			<time>2014-01-02T11:05:57Z</time>
		</trkpt>
		<trkpt lat="39.4330863952637" lon="2.77194905281067">
			<ele>182.199996948242</ele>
			<time>2014-01-02T11:05:58Z</time>
		</trkpt>
		<trkpt lat="39.4331016540527" lon="2.77201819419861">
			<ele>182</ele>
			<time>2014-01-02T11:05:59Z</time>
		</trkpt>
		<trkpt lat="39.4331130981445" lon="2.77207779884338">
			<ele>181.600006103516</ele>
			<time>2014-01-02T11:06:00Z</time>
		</trkpt>
		<trkpt lat="39.4331283569336" lon="2.77213764190674">
			<ele>181.5</ele>
			<time>2014-01-02T11:06:01Z</time>
		</trkpt>
		<trkpt lat="39.4331436157227" lon="2.77219891548157">
			<ele>181.800003051758</ele>
			<time>2014-01-02T11:06:02Z</time>
		</trkpt>
		<trkpt lat="39.4331588745117" lon="2.77225947380066">
			<ele>182.100006103516</ele>
			<time>2014-01-02T11:06:03Z</time>
		</trkpt>
		<trkpt lat="39.4331703186035" lon="2.77231860160828">
			<ele>181.899993896484</ele>
			<time>2014-01-02T11:06:04Z</time>
		</trkpt>
		<trkpt lat="39.4331855773926" lon="2.77237868309021">
			<ele>181.800003051758</ele>
			<time>2014-01-02T11:06:05Z</time>
		</trkpt>
		<trkpt lat="39.4331970214844" lon="2.77243661880493">
			<ele>181.600006103516</ele>
			<time>2014-01-02T11:06:06Z</time>
		</trkpt>
		<trkpt lat="39.4332084655762" lon="2.7724928855896">
			<ele>181.699996948242</ele>
			<time>2014-01-02T11:06:07Z</time>
		</trkpt>
		<trkpt lat="39.4332237243652" lon="2.77254748344421">
			<ele>181.899993896484</ele>
			<time>2014-01-02T11:06:08Z</time>
		</trkpt>
		<trkpt lat="39.433235168457" lon="2.77260422706604">
			<ele>181.899993896484</ele>
			<time>2014-01-02T11:06:09Z</time>
		</trkpt>
		<trkpt lat="39.4332504272461" lon="2.77266073226929">
			<ele>181.800003051758</ele>
			<time>2014-01-02T11:06:10Z</time>
		</trkpt>
		<trkpt lat="39.4332656860352" lon="2.77272009849548">
			<ele>181.699996948242</ele>
			<time>2014-01-02T11:06:11Z</time>
		</trkpt>
		<trkpt lat="39.433277130127" lon="2.77277731895447">
			<ele>181.5</ele>
			<time>2014-01-02T11:06:12Z</time>
		</trkpt>
		<trkpt lat="39.433292388916" lon="2.7728419303894">
			<ele>181.199996948242</ele>
			<time>2014-01-02T11:06:13Z</time>
		</trkpt>
		<trkpt lat="39.4333038330078" lon="2.77290415763855">
			<ele>181.199996948242</ele>
			<time>2014-01-02T11:06:14Z</time>
		</trkpt>
		<trkpt lat="39.4333190917969" lon="2.77296471595764">
			<ele>181.199996948242</ele>
			<time>2014-01-02T11:06:15Z</time>
		</trkpt>
		<trkpt lat="39.4333305358887" lon="2.77302479743958">
			<ele>181.399993896484</ele>
			<time>2014-01-02T11:06:16Z</time>
		</trkpt>
		<trkpt lat="39.4333381652832" lon="2.7730860710144">
			<ele>181.5</ele>
			<time>2014-01-02T11:06:17Z</time>
		</trkpt>
		<trkpt lat="39.4333457946777" lon="2.77314972877502">
			<ele>181.5</ele>
			<time>2014-01-02T11:06:18Z</time>
		</trkpt>
		<trkpt lat="39.433349609375" lon="2.77321314811707">
			<ele>181.5</ele>
			<time>2014-01-02T11:06:19Z</time>
		</trkpt>
		<trkpt lat="39.4333572387695" lon="2.77327799797058">
			<ele>181.300003051758</ele>
			<time>2014-01-02T11:06:20Z</time>
		</trkpt>
		<trkpt lat="39.4333648681641" lon="2.77334117889404">
			<ele>181.300003051758</ele>
			<time>2014-01-02T11:06:21Z</time>
		</trkpt>
		<trkpt lat="39.4333724975586" lon="2.77340173721313">
			<ele>181.399993896484</ele>
			<time>2014-01-02T11:06:22Z</time>
		</trkpt>
		<trkpt lat="39.4333763122559" lon="2.77346301078796">
			<ele>181.5</ele>
			<time>2014-01-02T11:06:23Z</time>
		</trkpt>
		<trkpt lat="39.4333839416504" lon="2.77352499961853">
			<ele>181.600006103516</ele>
			<time>2014-01-02T11:06:24Z</time>
		</trkpt>
		<trkpt lat="39.4333877563477" lon="2.77358794212341">
			<ele>181.5</ele>
			<time>2014-01-02T11:06:25Z</time>
		</trkpt>
		<trkpt lat="39.4333953857422" lon="2.77364921569824">
			<ele>181.5</ele>
			<time>2014-01-02T11:06:26Z</time>
		</trkpt>
		<trkpt lat="39.4333992004395" lon="2.77371096611023">
			<ele>181.399993896484</ele>
			<time>2014-01-02T11:06:27Z</time>
		</trkpt>
		<trkpt lat="39.433406829834" lon="2.77377605438232">
			<ele>181.600006103516</ele>
			<time>2014-01-02T11:06:28Z</time>
		</trkpt>
		<trkpt lat="39.4334106445313" lon="2.77383899688721">
			<ele>181.100006103516</ele>
			<time>2014-01-02T11:06:29Z</time>
		</trkpt>
		<trkpt lat="39.4334144592285" lon="2.7739040851593">
			<ele>181</ele>
			<time>2014-01-02T11:06:30Z</time>
		</trkpt>
		<trkpt lat="39.433422088623" lon="2.77396774291992">
			<ele>181</ele>
			<time>2014-01-02T11:06:31Z</time>
		</trkpt>
		<trkpt lat="39.4334297180176" lon="2.77403044700623">
			<ele>181.100006103516</ele>
			<time>2014-01-02T11:06:32Z</time>
		</trkpt>
		<trkpt lat="39.4334335327148" lon="2.77409863471985">
			<ele>181.300003051758</ele>
			<time>2014-01-02T11:06:33Z</time>
		</trkpt>
		<trkpt lat="39.4334411621094" lon="2.77416324615479">
			<ele>181.300003051758</ele>
			<time>2014-01-02T11:06:34Z</time>
		</trkpt>
		<trkpt lat="39.4334526062012" lon="2.77422642707825">
			<ele>181.300003051758</ele>
			<time>2014-01-02T11:06:35Z</time>
		</trkpt>
		<trkpt lat="39.4334564208984" lon="2.77428936958313">
			<ele>181.199996948242</ele>
			<time>2014-01-02T11:06:36Z</time>
		</trkpt>
		<trkpt lat="39.4334602355957" lon="2.77435374259949">
			<ele>181.199996948242</ele>
			<time>2014-01-02T11:06:37Z</time>
		</trkpt>
		<trkpt lat="39.433464050293" lon="2.77441668510437">
			<ele>181.100006103516</ele>
			<time>2014-01-02T11:06:38Z</time>
		</trkpt>
		<trkpt lat="39.4334716796875" lon="2.77447938919067">
			<ele>180.800003051758</ele>
			<time>2014-01-02T11:06:39Z</time>
		</trkpt>
		<trkpt lat="39.4334754943848" lon="2.77454495429993">
			<ele>181.100006103516</ele>
			<time>2014-01-02T11:06:40Z</time>
		</trkpt>
		<trkpt lat="39.4334831237793" lon="2.77460908889771">
			<ele>181.399993896484</ele>
			<time>2014-01-02T11:06:41Z</time>
		</trkpt>
		<trkpt lat="39.4334907531738" lon="2.77466893196106">
			<ele>181.699996948242</ele>
			<time>2014-01-02T11:06:42Z</time>
		</trkpt>
		<trkpt lat="39.4334983825684" lon="2.7747323513031">
			<ele>181.5</ele>
			<time>2014-01-02T11:06:43Z</time>
		</trkpt>
		<trkpt lat="39.4335021972656" lon="2.77479863166809">
			<ele>181.300003051758</ele>
			<time>2014-01-02T11:06:44Z</time>
		</trkpt>
		<trkpt lat="39.4335098266602" lon="2.77486658096313">
			<ele>181</ele>
			<time>2014-01-02T11:06:45Z</time>
		</trkpt>
		<trkpt lat="39.4335174560547" lon="2.77493166923523">
			<ele>180.899993896484</ele>
			<time>2014-01-02T11:06:46Z</time>
		</trkpt>
		<trkpt lat="39.4335250854492" lon="2.77500629425049">
			<ele>180.800003051758</ele>
			<time>2014-01-02T11:06:47Z</time>
		</trkpt>
		<trkpt lat="39.4335327148438" lon="2.77506756782532">
			<ele>180.699996948242</ele>
			<time>2014-01-02T11:06:48Z</time>
		</trkpt>
		<trkpt lat="39.4335403442383" lon="2.77513456344604">
			<ele>180.399993896484</ele>
			<time>2014-01-02T11:06:49Z</time>
		</trkpt>
		<trkpt lat="39.4335479736328" lon="2.77519726753235">
			<ele>180.399993896484</ele>
			<time>2014-01-02T11:06:50Z</time>
		</trkpt>
		<trkpt lat="39.4335517883301" lon="2.7752628326416">
			<ele>180.399993896484</ele>
			<time>2014-01-02T11:06:51Z</time>
		</trkpt>
		<trkpt lat="39.4335594177246" lon="2.77532839775085">
			<ele>180.300003051758</ele>
			<time>2014-01-02T11:06:52Z</time>
		</trkpt>
		<trkpt lat="39.4335708618164" lon="2.77539205551147">
			<ele>180.199996948242</ele>
			<time>2014-01-02T11:06:53Z</time>
		</trkpt>
		<trkpt lat="39.4335784912109" lon="2.77545833587646">
			<ele>180</ele>
			<time>2014-01-02T11:06:54Z</time>
		</trkpt>
		<trkpt lat="39.4335861206055" lon="2.77552437782288">
			<ele>179.800003051758</ele>
			<time>2014-01-02T11:06:55Z</time>
		</trkpt>
		<trkpt lat="39.43359375" lon="2.77558660507202">
			<ele>179.800003051758</ele>
			<time>2014-01-02T11:06:56Z</time>
		</trkpt>
		<trkpt lat="39.4336013793945" lon="2.77565169334412">
			<ele>179.899993896484</ele>
			<time>2014-01-02T11:06:57Z</time>
		</trkpt>
		<trkpt lat="39.4336090087891" lon="2.77571654319763">
			<ele>179.600006103516</ele>
			<time>2014-01-02T11:06:58Z</time>
		</trkpt>
		<trkpt lat="39.4336204528809" lon="2.77578282356262">
			<ele>179.199996948242</ele>
			<time>2014-01-02T11:06:59Z</time>
		</trkpt>
		<trkpt lat="39.4336318969727" lon="2.77585291862488">
			<ele>179.100006103516</ele>
			<time>2014-01-02T11:07:00Z</time>
		</trkpt>
		<trkpt lat="39.4336433410645" lon="2.77591919898987">
			<ele>179.5</ele>
			<time>2014-01-02T11:07:01Z</time>
		</trkpt>
		<trkpt lat="39.4336471557617" lon="2.77599048614502">
			<ele>179.600006103516</ele>
			<time>2014-01-02T11:07:02Z</time>
		</trkpt>
		<trkpt lat="39.4336547851563" lon="2.77605843544006">
			<ele>179.399993896484</ele>
			<time>2014-01-02T11:07:03Z</time>
		</trkpt>
		<trkpt lat="39.4336624145508" lon="2.77612686157227">
			<ele>179.300003051758</ele>
			<time>2014-01-02T11:07:04Z</time>
		</trkpt>
		<trkpt lat="39.4336700439453" lon="2.7761971950531">
			<ele>179.100006103516</ele>
			<time>2014-01-02T11:07:05Z</time>
		</trkpt>
		<trkpt lat="39.4336776733398" lon="2.77626609802246">
			<ele>178.899993896484</ele>
			<time>2014-01-02T11:07:06Z</time>
		</trkpt>
		<trkpt lat="39.4336853027344" lon="2.77633929252625">
			<ele>178.5</ele>
			<time>2014-01-02T11:07:07Z</time>
		</trkpt>
		<trkpt lat="39.4337005615234" lon="2.77640557289124">
			<ele>178.5</ele>
			<time>2014-01-02T11:07:08Z</time>
		</trkpt>
		<trkpt lat="39.433708190918" lon="2.77647495269775">
			<ele>178.600006103516</ele>
			<time>2014-01-02T11:07:10Z</time>
		</trkpt>
		<trkpt lat="39.4337272644043" lon="2.77660965919495">
			<ele>178.600006103516</ele>
			<time>2014-01-02T11:07:12Z</time>
		</trkpt>
		<trkpt lat="39.4337387084961" lon="2.7767448425293">
			<ele>179</ele>
			<time>2014-01-02T11:07:14Z</time>
		</trkpt>
		<trkpt lat="39.4337501525879" lon="2.77681350708008">
			<ele>179.100006103516</ele>
			<time>2014-01-02T11:07:15Z</time>
		</trkpt>
		<trkpt lat="39.4337615966797" lon="2.77694511413574">
			<ele>179.5</ele>
			<time>2014-01-02T11:07:16Z</time>
		</trkpt>
		<trkpt lat="39.4337768554688" lon="2.77701020240784">
			<ele>179.399993896484</ele>
			<time>2014-01-02T11:07:17Z</time>
		</trkpt>
		<trkpt lat="39.4337844848633" lon="2.77707576751709">
			<ele>179.399993896484</ele>
			<time>2014-01-02T11:07:18Z</time>
		</trkpt>
		<trkpt lat="39.4337921142578" lon="2.7771430015564">
			<ele>179.399993896484</ele>
			<time>2014-01-02T11:07:19Z</time>
		</trkpt>
		<trkpt lat="39.4337997436523" lon="2.77720856666565">
			<ele>179.300003051758</ele>
			<time>2014-01-02T11:07:20Z</time>
		</trkpt>
		<trkpt lat="39.4338111877441" lon="2.77727437019348">
			<ele>179.600006103516</ele>
			<time>2014-01-02T11:07:21Z</time>
		</trkpt>
		<trkpt lat="39.4338188171387" lon="2.77733969688416">
			<ele>179.5</ele>
			<time>2014-01-02T11:07:22Z</time>
		</trkpt>
		<trkpt lat="39.4338264465332" lon="2.7774019241333">
			<ele>179.800003051758</ele>
			<time>2014-01-02T11:07:23Z</time>
		</trkpt>
		<trkpt lat="39.4338340759277" lon="2.77746677398682">
			<ele>180</ele>
			<time>2014-01-02T11:07:24Z</time>
		</trkpt>
		<trkpt lat="39.4338417053223" lon="2.77753210067749">
			<ele>179.899993896484</ele>
			<time>2014-01-02T11:07:25Z</time>
		</trkpt>
		<trkpt lat="39.4338569641113" lon="2.77759265899658">
			<ele>179.899993896484</ele>
			<time>2014-01-02T11:07:26Z</time>
		</trkpt>
		<trkpt lat="39.4338645935059" lon="2.77765297889709">
			<ele>179.699996948242</ele>
			<time>2014-01-02T11:07:27Z</time>
		</trkpt>
		<trkpt lat="39.4338722229004" lon="2.77771210670471">
			<ele>179.699996948242</ele>
			<time>2014-01-02T11:07:28Z</time>
		</trkpt>
		<trkpt lat="39.4338798522949" lon="2.77777457237244">
			<ele>180.199996948242</ele>
			<time>2014-01-02T11:07:29Z</time>
		</trkpt>
		<trkpt lat="39.433895111084" lon="2.77789282798767">
			<ele>179.800003051758</ele>
			<time>2014-01-02T11:07:31Z</time>
		</trkpt>
		<trkpt lat="39.4339065551758" lon="2.77795314788818">
			<ele>179.899993896484</ele>
			<time>2014-01-02T11:07:32Z</time>
		</trkpt>
		<trkpt lat="39.4339141845703" lon="2.7780122756958">
			<ele>179.899993896484</ele>
			<time>2014-01-02T11:07:33Z</time>
		</trkpt>
		<trkpt lat="39.4339218139648" lon="2.77807092666626">
			<ele>180</ele>
			<time>2014-01-02T11:07:34Z</time>
		</trkpt>
		<trkpt lat="39.4339294433594" lon="2.77812910079956">
			<ele>180</ele>
			<time>2014-01-02T11:07:35Z</time>
		</trkpt>
		<trkpt lat="39.4339408874512" lon="2.77818703651428">
			<ele>180</ele>
			<time>2014-01-02T11:07:36Z</time>
		</trkpt>
		<trkpt lat="39.4339485168457" lon="2.77824640274048">
			<ele>180.199996948242</ele>
			<time>2014-01-02T11:07:37Z</time>
		</trkpt>
		<trkpt lat="39.4339599609375" lon="2.77836108207703">
			<ele>180.199996948242</ele>
			<time>2014-01-02T11:07:39Z</time>
		</trkpt>
		<trkpt lat="39.4339752197266" lon="2.77847337722778">
			<ele>179.899993896484</ele>
			<time>2014-01-02T11:07:41Z</time>
		</trkpt>
		<trkpt lat="39.4339828491211" lon="2.77853083610535">
			<ele>179.800003051758</ele>
			<time>2014-01-02T11:07:42Z</time>
		</trkpt>
		<trkpt lat="39.4339904785156" lon="2.77859115600586">
			<ele>180</ele>
			<time>2014-01-02T11:07:43Z</time>
		</trkpt>
		<trkpt lat="39.4340019226074" lon="2.7786500453949">
			<ele>180</ele>
			<time>2014-01-02T11:07:44Z</time>
		</trkpt>
		<trkpt lat="39.434009552002" lon="2.77871417999268">
			<ele>180</ele>
			<time>2014-01-02T11:07:45Z</time>
		</trkpt>
		<trkpt lat="39.4340209960938" lon="2.77877950668335">
			<ele>179.600006103516</ele>
			<time>2014-01-02T11:07:46Z</time>
		</trkpt>
		<trkpt lat="39.4340286254883" lon="2.7788507938385">
			<ele>179.300003051758</ele>
			<time>2014-01-02T11:07:47Z</time>
		</trkpt>
		<trkpt lat="39.4340400695801" lon="2.77892637252808">
			<ele>179.100006103516</ele>
			<time>2014-01-02T11:07:48Z</time>
		</trkpt>
		<trkpt lat="39.4340515136719" lon="2.77900195121765">
			<ele>178.699996948242</ele>
			<time>2014-01-02T11:07:49Z</time>
		</trkpt>
		<trkpt lat="39.4340629577637" lon="2.77908158302307">
			<ele>178.5</ele>
			<time>2014-01-02T11:07:50Z</time>
		</trkpt>
		<trkpt lat="39.4340705871582" lon="2.77916312217712">
			<ele>178.399993896484</ele>
			<time>2014-01-02T11:07:51Z</time>
		</trkpt>
		<trkpt lat="39.4340858459473" lon="2.77924919128418">
			<ele>178.100006103516</ele>
			<time>2014-01-02T11:07:52Z</time>
		</trkpt>
		<trkpt lat="39.4340934753418" lon="2.77933120727539">
			<ele>177.600006103516</ele>
			<time>2014-01-02T11:07:54Z</time>
		</trkpt>
		<trkpt lat="39.4341201782227" lon="2.77951145172119">
			<ele>176.800003051758</ele>
			<time>2014-01-02T11:07:55Z</time>
		</trkpt>
		<trkpt lat="39.4341316223145" lon="2.77960395812988">
			<ele>176.399993896484</ele>
			<time>2014-01-02T11:07:56Z</time>
		</trkpt>
		<trkpt lat="39.4341430664063" lon="2.77969765663147">
			<ele>176.199996948242</ele>
			<time>2014-01-02T11:07:57Z</time>
		</trkpt>
		<trkpt lat="39.4341583251953" lon="2.77978992462158">
			<ele>176</ele>
			<time>2014-01-02T11:07:58Z</time>
		</trkpt>
		<trkpt lat="39.4341735839844" lon="2.77988624572754">
			<ele>175.800003051758</ele>
			<time>2014-01-02T11:07:59Z</time>
		</trkpt>
		<trkpt lat="39.4341888427734" lon="2.77997970581055">
			<ele>175.399993896484</ele>
			<time>2014-01-02T11:08:00Z</time>
		</trkpt>
		<trkpt lat="39.4342041015625" lon="2.78007531166077">
			<ele>175.199996948242</ele>
			<time>2014-01-02T11:08:01Z</time>
		</trkpt>
		<trkpt lat="39.4342193603516" lon="2.78017139434814">
			<ele>174.899993896484</ele>
			<time>2014-01-02T11:08:02Z</time>
		</trkpt>
		<trkpt lat="39.4342346191406" lon="2.78026652336121">
			<ele>174.899993896484</ele>
			<time>2014-01-02T11:08:04Z</time>
		</trkpt>
		<trkpt lat="39.434253692627" lon="2.78045988082886">
			<ele>174.899993896484</ele>
			<time>2014-01-02T11:08:05Z</time>
		</trkpt>
		<trkpt lat="39.434268951416" lon="2.78055095672607">
			<ele>174.800003051758</ele>
			<time>2014-01-02T11:08:06Z</time>
		</trkpt>
		<trkpt lat="39.4342803955078" lon="2.78064632415771">
			<ele>174.800003051758</ele>
			<time>2014-01-02T11:08:07Z</time>
		</trkpt>
		<trkpt lat="39.4342918395996" lon="2.78073167800903">
			<ele>175</ele>
			<time>2014-01-02T11:08:08Z</time>
		</trkpt>
		<trkpt lat="39.4343032836914" lon="2.78081369400024">
			<ele>175.399993896484</ele>
			<time>2014-01-02T11:08:09Z</time>
		</trkpt>
		<trkpt lat="39.4343147277832" lon="2.78089427947998">
			<ele>175.199996948242</ele>
			<time>2014-01-02T11:08:10Z</time>
		</trkpt>
		<trkpt lat="39.434326171875" lon="2.78097081184387">
			<ele>175.199996948242</ele>
			<time>2014-01-02T11:08:11Z</time>
		</trkpt>
		<trkpt lat="39.4343376159668" lon="2.78104448318481">
			<ele>175.100006103516</ele>
			<time>2014-01-02T11:08:12Z</time>
		</trkpt>
		<trkpt lat="39.4343528747559" lon="2.78111910820007">
			<ele>175.399993896484</ele>
			<time>2014-01-02T11:08:13Z</time>
		</trkpt>
		<trkpt lat="39.4343566894531" lon="2.78119254112244">
			<ele>175.600006103516</ele>
			<time>2014-01-02T11:08:14Z</time>
		</trkpt>
		<trkpt lat="39.4343643188477" lon="2.78126692771912">
			<ele>175.600006103516</ele>
			<time>2014-01-02T11:08:15Z</time>
		</trkpt>
		<trkpt lat="39.4343719482422" lon="2.78133487701416">
			<ele>175.600006103516</ele>
			<time>2014-01-02T11:08:16Z</time>
		</trkpt>
		<trkpt lat="39.434383392334" lon="2.78140735626221">
			<ele>175.699996948242</ele>
			<time>2014-01-02T11:08:17Z</time>
		</trkpt>
		<trkpt lat="39.4343948364258" lon="2.78147745132446">
			<ele>175.699996948242</ele>
			<time>2014-01-02T11:08:18Z</time>
		</trkpt>
		<trkpt lat="39.4344024658203" lon="2.7815465927124">
			<ele>175.899993896484</ele>
			<time>2014-01-02T11:08:19Z</time>
		</trkpt>
		<trkpt lat="39.4344139099121" lon="2.78161382675171">
			<ele>176</ele>
			<time>2014-01-02T11:08:20Z</time>
		</trkpt>
		<trkpt lat="39.4344253540039" lon="2.78168034553528">
			<ele>175.899993896484</ele>
			<time>2014-01-02T11:08:21Z</time>
		</trkpt>
		<trkpt lat="39.4344367980957" lon="2.78174591064453">
			<ele>175.800003051758</ele>
			<time>2014-01-02T11:08:22Z</time>
		</trkpt>
		<trkpt lat="39.434440612793" lon="2.78181219100952">
			<ele>175.699996948242</ele>
			<time>2014-01-02T11:08:23Z</time>
		</trkpt>
		<trkpt lat="39.4344520568848" lon="2.78187775611877">
			<ele>175.800003051758</ele>
			<time>2014-01-02T11:08:24Z</time>
		</trkpt>
		<trkpt lat="39.4344596862793" lon="2.7819447517395">
			<ele>175.800003051758</ele>
			<time>2014-01-02T11:08:25Z</time>
		</trkpt>
		<trkpt lat="39.4344673156738" lon="2.78201222419739">
			<ele>176</ele>
			<time>2014-01-02T11:08:26Z</time>
		</trkpt>
		<trkpt lat="39.4344787597656" lon="2.78207993507385">
			<ele>175.800003051758</ele>
			<time>2014-01-02T11:08:27Z</time>
		</trkpt>
		<trkpt lat="39.4344902038574" lon="2.78214764595032">
			<ele>175.800003051758</ele>
			<time>2014-01-02T11:08:28Z</time>
		</trkpt>
		<trkpt lat="39.434497833252" lon="2.78221249580383">
			<ele>175.600006103516</ele>
			<time>2014-01-02T11:08:29Z</time>
		</trkpt>
		<trkpt lat="39.4345092773438" lon="2.78228139877319">
			<ele>175.5</ele>
			<time>2014-01-02T11:08:30Z</time>
		</trkpt>
		<trkpt lat="39.4345169067383" lon="2.78234648704529">
			<ele>175.699996948242</ele>
			<time>2014-01-02T11:08:31Z</time>
		</trkpt>
		<trkpt lat="39.4345283508301" lon="2.78241062164307">
			<ele>175.600006103516</ele>
			<time>2014-01-02T11:08:32Z</time>
		</trkpt>
		<trkpt lat="39.4345359802246" lon="2.7824809551239">
			<ele>175.5</ele>
			<time>2014-01-02T11:08:33Z</time>
		</trkpt>
		<trkpt lat="39.4345474243164" lon="2.78255224227905">
			<ele>175.100006103516</ele>
			<time>2014-01-02T11:08:34Z</time>
		</trkpt>
		<trkpt lat="39.4345588684082" lon="2.78262233734131">
			<ele>175.100006103516</ele>
			<time>2014-01-02T11:08:35Z</time>
		</trkpt>
		<trkpt lat="39.4345664978027" lon="2.7826943397522">
			<ele>175</ele>
			<time>2014-01-02T11:08:36Z</time>
		</trkpt>
		<trkpt lat="39.4345779418945" lon="2.78276824951172">
			<ele>174.899993896484</ele>
			<time>2014-01-02T11:08:37Z</time>
		</trkpt>
		<trkpt lat="39.4345932006836" lon="2.78284025192261">
			<ele>174.699996948242</ele>
			<time>2014-01-02T11:08:38Z</time>
		</trkpt>
		<trkpt lat="39.4346008300781" lon="2.78290891647339">
			<ele>174.699996948242</ele>
			<time>2014-01-02T11:08:39Z</time>
		</trkpt>
		<trkpt lat="39.4346122741699" lon="2.78297924995422">
			<ele>174.699996948242</ele>
			<time>2014-01-02T11:08:40Z</time>
		</trkpt>
		<trkpt lat="39.4346237182617" lon="2.78305101394653">
			<ele>174.600006103516</ele>
			<time>2014-01-02T11:08:41Z</time>
		</trkpt>
		<trkpt lat="39.4346351623535" lon="2.783118724823">
			<ele>174.600006103516</ele>
			<time>2014-01-02T11:08:42Z</time>
		</trkpt>
		<trkpt lat="39.434642791748" lon="2.78319025039673">
			<ele>174.5</ele>
			<time>2014-01-02T11:08:43Z</time>
		</trkpt>
		<trkpt lat="39.4346542358398" lon="2.78326153755188">
			<ele>174.399993896484</ele>
			<time>2014-01-02T11:08:44Z</time>
		</trkpt>
		<trkpt lat="39.4346694946289" lon="2.78333139419556">
			<ele>174.5</ele>
			<time>2014-01-02T11:08:45Z</time>
		</trkpt>
		<trkpt lat="39.4346771240234" lon="2.78340125083923">
			<ele>174.600006103516</ele>
			<time>2014-01-02T11:08:46Z</time>
		</trkpt>
		<trkpt lat="39.4346885681152" lon="2.78346920013428">
			<ele>174.800003051758</ele>
			<time>2014-01-02T11:08:47Z</time>
		</trkpt>
		<trkpt lat="39.4346923828125" lon="2.78353452682495">
			<ele>174.899993896484</ele>
			<time>2014-01-02T11:08:48Z</time>
		</trkpt>
		<trkpt lat="39.4347038269043" lon="2.78359818458557">
			<ele>174.699996948242</ele>
			<time>2014-01-02T11:08:49Z</time>
		</trkpt>
		<trkpt lat="39.4347190856934" lon="2.78366327285767">
			<ele>174.699996948242</ele>
			<time>2014-01-02T11:08:50Z</time>
		</trkpt>
		<trkpt lat="39.4347305297852" lon="2.78372883796692">
			<ele>174.600006103516</ele>
			<time>2014-01-02T11:08:51Z</time>
		</trkpt>
		<trkpt lat="39.434741973877" lon="2.78379940986633">
			<ele>174.600006103516</ele>
			<time>2014-01-02T11:08:52Z</time>
		</trkpt>
		<trkpt lat="39.4347496032715" lon="2.78387260437012">
			<ele>174.600006103516</ele>
			<time>2014-01-02T11:08:53Z</time>
		</trkpt>
		<trkpt lat="39.434757232666" lon="2.78394603729248">
			<ele>174.399993896484</ele>
			<time>2014-01-02T11:08:54Z</time>
		</trkpt>
		<trkpt lat="39.4347686767578" lon="2.7840211391449">
			<ele>174.399993896484</ele>
			<time>2014-01-02T11:08:55Z</time>
		</trkpt>
		<trkpt lat="39.4347839355469" lon="2.7840940952301">
			<ele>174.300003051758</ele>
			<time>2014-01-02T11:08:56Z</time>
		</trkpt>
		<trkpt lat="39.4347953796387" lon="2.78417158126831">
			<ele>174.100006103516</ele>
			<time>2014-01-02T11:08:57Z</time>
		</trkpt>
		<trkpt lat="39.4348068237305" lon="2.7842481136322">
			<ele>174</ele>
			<time>2014-01-02T11:08:58Z</time>
		</trkpt>
		<trkpt lat="39.4348182678223" lon="2.78432965278625">
			<ele>173.699996948242</ele>
			<time>2014-01-02T11:08:59Z</time>
		</trkpt>
		<trkpt lat="39.4348258972168" lon="2.78441333770752">
			<ele>173.5</ele>
			<time>2014-01-02T11:09:00Z</time>
		</trkpt>
		<trkpt lat="39.4348411560059" lon="2.78449892997742">
			<ele>173.399993896484</ele>
			<time>2014-01-02T11:09:01Z</time>
		</trkpt>
		<trkpt lat="39.4348526000977" lon="2.78458428382874">
			<ele>173.5</ele>
			<time>2014-01-02T11:09:02Z</time>
		</trkpt>
		<trkpt lat="39.4348640441895" lon="2.78466582298279">
			<ele>173.399993896484</ele>
			<time>2014-01-02T11:09:03Z</time>
		</trkpt>
		<trkpt lat="39.4348754882813" lon="2.78474617004395">
			<ele>173.199996948242</ele>
			<time>2014-01-02T11:09:04Z</time>
		</trkpt>
		<trkpt lat="39.434886932373" lon="2.78482627868652">
			<ele>173.100006103516</ele>
			<time>2014-01-02T11:09:05Z</time>
		</trkpt>
		<trkpt lat="39.4348983764648" lon="2.7849063873291">
			<ele>172.899993896484</ele>
			<time>2014-01-02T11:09:06Z</time>
		</trkpt>
		<trkpt lat="39.4349098205566" lon="2.78498649597168">
			<ele>172.699996948242</ele>
			<time>2014-01-02T11:09:07Z</time>
		</trkpt>
		<trkpt lat="39.4349212646484" lon="2.7850706577301">
			<ele>172.399993896484</ele>
			<time>2014-01-02T11:09:08Z</time>
		</trkpt>
		<trkpt lat="39.4349327087402" lon="2.78515434265137">
			<ele>172.199996948242</ele>
			<time>2014-01-02T11:09:09Z</time>
		</trkpt>
		<trkpt lat="39.434944152832" lon="2.78523945808411">
			<ele>172</ele>
			<time>2014-01-02T11:09:10Z</time>
		</trkpt>
		<trkpt lat="39.4349517822266" lon="2.78532147407532">
			<ele>172</ele>
			<time>2014-01-02T11:09:11Z</time>
		</trkpt>
		<trkpt lat="39.4349632263184" lon="2.78540539741516">
			<ele>171.800003051758</ele>
			<time>2014-01-02T11:09:12Z</time>
		</trkpt>
		<trkpt lat="39.4349746704102" lon="2.78548789024353">
			<ele>171.600006103516</ele>
			<time>2014-01-02T11:09:13Z</time>
		</trkpt>
		<trkpt lat="39.434986114502" lon="2.78556799888611">
			<ele>171.899993896484</ele>
			<time>2014-01-02T11:09:14Z</time>
		</trkpt>
		<trkpt lat="39.4349937438965" lon="2.78564715385437">
			<ele>172.100006103516</ele>
			<time>2014-01-02T11:09:15Z</time>
		</trkpt>
		<trkpt lat="39.4350051879883" lon="2.78572654724121">
			<ele>172.199996948242</ele>
			<time>2014-01-02T11:09:16Z</time>
		</trkpt>
		<trkpt lat="39.4350128173828" lon="2.78580856323242">
			<ele>172.300003051758</ele>
			<time>2014-01-02T11:09:17Z</time>
		</trkpt>
		<trkpt lat="39.4350280761719" lon="2.785884141922">
			<ele>172.199996948242</ele>
			<time>2014-01-02T11:09:18Z</time>
		</trkpt>
		<trkpt lat="39.4350433349609" lon="2.78596067428589">
			<ele>172.199996948242</ele>
			<time>2014-01-02T11:09:19Z</time>
		</trkpt>
		<trkpt lat="39.4350509643555" lon="2.78603458404541">
			<ele>172.100006103516</ele>
			<time>2014-01-02T11:09:20Z</time>
		</trkpt>
		<trkpt lat="39.4350624084473" lon="2.78611087799072">
			<ele>171.899993896484</ele>
			<time>2014-01-02T11:09:21Z</time>
		</trkpt>
		<trkpt lat="39.4350738525391" lon="2.78618979454041">
			<ele>171.699996948242</ele>
			<time>2014-01-02T11:09:22Z</time>
		</trkpt>
		<trkpt lat="39.4350814819336" lon="2.78626608848572">
			<ele>171.600006103516</ele>
			<time>2014-01-02T11:09:23Z</time>
		</trkpt>
		<trkpt lat="39.4350929260254" lon="2.78634166717529">
			<ele>171.699996948242</ele>
			<time>2014-01-02T11:09:24Z</time>
		</trkpt>
		<trkpt lat="39.4351005554199" lon="2.78641867637634">
			<ele>171.699996948242</ele>
			<time>2014-01-02T11:09:25Z</time>
		</trkpt>
		<trkpt lat="39.4351119995117" lon="2.78649139404297">
			<ele>171.800003051758</ele>
			<time>2014-01-02T11:09:26Z</time>
		</trkpt>
		<trkpt lat="39.4351234436035" lon="2.78656625747681">
			<ele>171.800003051758</ele>
			<time>2014-01-02T11:09:27Z</time>
		</trkpt>
		<trkpt lat="39.4351348876953" lon="2.7866415977478">
			<ele>171.699996948242</ele>
			<time>2014-01-02T11:09:28Z</time>
		</trkpt>
		<trkpt lat="39.4351463317871" lon="2.78671813011169">
			<ele>171.800003051758</ele>
			<time>2014-01-02T11:09:29Z</time>
		</trkpt>
		<trkpt lat="39.4351577758789" lon="2.78679084777832">
			<ele>171.800003051758</ele>
			<time>2014-01-02T11:09:30Z</time>
		</trkpt>
		<trkpt lat="39.4351654052734" lon="2.78686213493347">
			<ele>171.699996948242</ele>
			<time>2014-01-02T11:09:31Z</time>
		</trkpt>
		<trkpt lat="39.4351768493652" lon="2.78693199157715">
			<ele>171.600006103516</ele>
			<time>2014-01-02T11:09:32Z</time>
		</trkpt>
		<trkpt lat="39.435188293457" lon="2.78700566291809">
			<ele>171.5</ele>
			<time>2014-01-02T11:09:33Z</time>
		</trkpt>
		<trkpt lat="39.4351997375488" lon="2.78707695007324">
			<ele>171.300003051758</ele>
			<time>2014-01-02T11:09:34Z</time>
		</trkpt>
		<trkpt lat="39.4352111816406" lon="2.7871515750885">
			<ele>171.300003051758</ele>
			<time>2014-01-02T11:09:35Z</time>
		</trkpt>
		<trkpt lat="39.4352226257324" lon="2.78722810745239">
			<ele>171.199996948242</ele>
			<time>2014-01-02T11:09:36Z</time>
		</trkpt>
		<trkpt lat="39.4352340698242" lon="2.78730082511902">
			<ele>171.300003051758</ele>
			<time>2014-01-02T11:09:37Z</time>
		</trkpt>
		<trkpt lat="39.435245513916" lon="2.78737568855286">
			<ele>171.300003051758</ele>
			<time>2014-01-02T11:09:38Z</time>
		</trkpt>
		<trkpt lat="39.4352607727051" lon="2.78744792938232">
			<ele>171.399993896484</ele>
			<time>2014-01-02T11:09:39Z</time>
		</trkpt>
		<trkpt lat="39.4352722167969" lon="2.7875189781189">
			<ele>171.399993896484</ele>
			<time>2014-01-02T11:09:40Z</time>
		</trkpt>
		<trkpt lat="39.4352798461914" lon="2.78759121894836">
			<ele>171.199996948242</ele>
			<time>2014-01-02T11:09:41Z</time>
		</trkpt>
		<trkpt lat="39.4352874755859" lon="2.78766202926636">
			<ele>171.5</ele>
			<time>2014-01-02T11:09:42Z</time>
		</trkpt>
		<trkpt lat="39.4352989196777" lon="2.78773236274719">
			<ele>171.699996948242</ele>
			<time>2014-01-02T11:09:43Z</time>
		</trkpt>
		<trkpt lat="39.4353065490723" lon="2.78780055046082">
			<ele>172.300003051758</ele>
			<time>2014-01-02T11:09:44Z</time>
		</trkpt>
		<trkpt lat="39.4353141784668" lon="2.78787088394165">
			<ele>171.899993896484</ele>
			<time>2014-01-02T11:09:45Z</time>
		</trkpt>
		<trkpt lat="39.4353256225586" lon="2.78794050216675">
			<ele>171.899993896484</ele>
			<time>2014-01-02T11:09:46Z</time>
		</trkpt>
		<trkpt lat="39.4353370666504" lon="2.78801107406616">
			<ele>172</ele>
			<time>2014-01-02T11:09:47Z</time>
		</trkpt>
		<trkpt lat="39.4353485107422" lon="2.78808403015137">
			<ele>171.899993896484</ele>
			<time>2014-01-02T11:09:48Z</time>
		</trkpt>
		<trkpt lat="39.435359954834" lon="2.78815627098083">
			<ele>172</ele>
			<time>2014-01-02T11:09:49Z</time>
		</trkpt>
		<trkpt lat="39.4353675842285" lon="2.78823304176331">
			<ele>172</ele>
			<time>2014-01-02T11:09:50Z</time>
		</trkpt>
		<trkpt lat="39.435375213623" lon="2.7883095741272">
			<ele>172.699996948242</ele>
			<time>2014-01-02T11:09:51Z</time>
		</trkpt>
		<trkpt lat="39.4353904724121" lon="2.78838753700256">
			<ele>172.600006103516</ele>
			<time>2014-01-02T11:09:52Z</time>
		</trkpt>
		<trkpt lat="39.4353981018066" lon="2.78845977783203">
			<ele>172.399993896484</ele>
			<time>2014-01-02T11:09:53Z</time>
		</trkpt>
		<trkpt lat="39.4354095458984" lon="2.7885377407074">
			<ele>172.199996948242</ele>
			<time>2014-01-02T11:09:54Z</time>
		</trkpt>
		<trkpt lat="39.4354209899902" lon="2.78861260414124">
			<ele>172</ele>
			<time>2014-01-02T11:09:55Z</time>
		</trkpt>
		<trkpt lat="39.4354286193848" lon="2.78869009017944">
			<ele>171.800003051758</ele>
			<time>2014-01-02T11:09:56Z</time>
		</trkpt>
		<trkpt lat="39.4354400634766" lon="2.7887704372406">
			<ele>171.5</ele>
			<time>2014-01-02T11:09:57Z</time>
		</trkpt>
		<trkpt lat="39.4354515075684" lon="2.7888548374176">
			<ele>171.199996948242</ele>
			<time>2014-01-02T11:09:58Z</time>
		</trkpt>
		<trkpt lat="39.4354629516602" lon="2.7889392375946">
			<ele>170.600006103516</ele>
			<time>2014-01-02T11:09:59Z</time>
		</trkpt>
		<trkpt lat="39.4354705810547" lon="2.78902792930603">
			<ele>170.300003051758</ele>
			<time>2014-01-02T11:10:01Z</time>
		</trkpt>
		<trkpt lat="39.4354820251465" lon="2.78911924362183">
			<ele>170</ele>
			<time>2014-01-02T11:10:01Z</time>
		</trkpt>
		<trkpt lat="39.4354934692383" lon="2.78921389579773">
			<ele>169.600006103516</ele>
			<time>2014-01-02T11:10:02Z</time>
		</trkpt>
		<trkpt lat="39.4355087280273" lon="2.78930687904358">
			<ele>169.600006103516</ele>
			<time>2014-01-02T11:10:03Z</time>
		</trkpt>
		<trkpt lat="39.4355201721191" lon="2.78940296173096">
			<ele>169.300003051758</ele>
			<time>2014-01-02T11:10:04Z</time>
		</trkpt>
		<trkpt lat="39.4355278015137" lon="2.78949379920959">
			<ele>169.100006103516</ele>
			<time>2014-01-02T11:10:05Z</time>
		</trkpt>
		<trkpt lat="39.4355392456055" lon="2.78959012031555">
			<ele>169.199996948242</ele>
			<time>2014-01-02T11:10:06Z</time>
		</trkpt>
		<trkpt lat="39.4355506896973" lon="2.78968191146851">
			<ele>169.199996948242</ele>
			<time>2014-01-02T11:10:07Z</time>
		</trkpt>
		<trkpt lat="39.4355583190918" lon="2.78977966308594">
			<ele>168.800003051758</ele>
			<time>2014-01-02T11:10:08Z</time>
		</trkpt>
		<trkpt lat="39.4355697631836" lon="2.78987240791321">
			<ele>168.800003051758</ele>
			<time>2014-01-02T11:10:09Z</time>
		</trkpt>
		<trkpt lat="39.4355812072754" lon="2.78996396064758">
			<ele>168.5</ele>
			<time>2014-01-02T11:10:10Z</time>
		</trkpt>
		<trkpt lat="39.4355964660645" lon="2.79005980491638">
			<ele>168.300003051758</ele>
			<time>2014-01-02T11:10:11Z</time>
		</trkpt>
		<trkpt lat="39.4356117248535" lon="2.79015183448792">
			<ele>167.899993896484</ele>
			<time>2014-01-02T11:10:12Z</time>
		</trkpt>
		<trkpt lat="39.4356231689453" lon="2.7902467250824">
			<ele>167.699996948242</ele>
			<time>2014-01-02T11:10:13Z</time>
		</trkpt>
		<trkpt lat="39.4356307983398" lon="2.79034113883972">
			<ele>167.5</ele>
			<time>2014-01-02T11:10:14Z</time>
		</trkpt>
		<trkpt lat="39.4356422424316" lon="2.79043245315552">
			<ele>167.300003051758</ele>
			<time>2014-01-02T11:10:15Z</time>
		</trkpt>
		<trkpt lat="39.4356536865234" lon="2.79052114486694">
			<ele>167</ele>
			<time>2014-01-02T11:10:16Z</time>
		</trkpt>
		<trkpt lat="39.435661315918" lon="2.79061055183411">
			<ele>166.399993896484</ele>
			<time>2014-01-02T11:10:17Z</time>
		</trkpt>
		<trkpt lat="39.4356689453125" lon="2.79070067405701">
			<ele>166.300003051758</ele>
			<time>2014-01-02T11:10:18Z</time>
		</trkpt>
		<trkpt lat="39.4356803894043" lon="2.79079294204712">
			<ele>165.800003051758</ele>
			<time>2014-01-02T11:10:19Z</time>
		</trkpt>
		<trkpt lat="39.4356880187988" lon="2.79088592529297">
			<ele>165.699996948242</ele>
			<time>2014-01-02T11:10:20Z</time>
		</trkpt>
		<trkpt lat="39.4357032775879" lon="2.79097890853882">
			<ele>165.699996948242</ele>
			<time>2014-01-02T11:10:21Z</time>
		</trkpt>
		<trkpt lat="39.435718536377" lon="2.79106640815735">
			<ele>165.300003051758</ele>
			<time>2014-01-02T11:10:22Z</time>
		</trkpt>
		<trkpt lat="39.4357261657715" lon="2.7911548614502">
			<ele>165.300003051758</ele>
			<time>2014-01-02T11:10:23Z</time>
		</trkpt>
		<trkpt lat="39.4357376098633" lon="2.79124140739441">
			<ele>165.100006103516</ele>
			<time>2014-01-02T11:10:24Z</time>
		</trkpt>
		<trkpt lat="39.4357490539551" lon="2.79132652282715">
			<ele>165.300003051758</ele>
			<time>2014-01-02T11:10:25Z</time>
		</trkpt>
		<trkpt lat="39.4357604980469" lon="2.79141354560852">
			<ele>165.100006103516</ele>
			<time>2014-01-02T11:10:26Z</time>
		</trkpt>
		<trkpt lat="39.4357719421387" lon="2.79149913787842">
			<ele>164.800003051758</ele>
			<time>2014-01-02T11:10:27Z</time>
		</trkpt>
		<trkpt lat="39.4357795715332" lon="2.79158473014832">
			<ele>164.699996948242</ele>
			<time>2014-01-02T11:10:28Z</time>
		</trkpt>
		<trkpt lat="39.435791015625" lon="2.79166913032532">
			<ele>164.800003051758</ele>
			<time>2014-01-02T11:10:29Z</time>
		</trkpt>
		<trkpt lat="39.4358100891113" lon="2.79175448417664">
			<ele>165.199996948242</ele>
			<time>2014-01-02T11:10:30Z</time>
		</trkpt>
		<trkpt lat="39.4358367919922" lon="2.79182481765747">
			<ele>165.600006103516</ele>
			<time>2014-01-02T11:10:31Z</time>
		</trkpt>
		<trkpt lat="39.4358749389648" lon="2.79189729690552">
			<ele>166.199996948242</ele>
			<time>2014-01-02T11:10:32Z</time>
		</trkpt>
		<trkpt lat="39.4359169006348" lon="2.79196882247925">
			<ele>166.199996948242</ele>
			<time>2014-01-02T11:10:33Z</time>
		</trkpt>
		<trkpt lat="39.4359550476074" lon="2.79204106330872">
			<ele>166.5</ele>
			<time>2014-01-02T11:10:34Z</time>
		</trkpt>
		<trkpt lat="39.4359893798828" lon="2.79211187362671">
			<ele>167.199996948242</ele>
			<time>2014-01-02T11:10:35Z</time>
		</trkpt>
		<trkpt lat="39.4360466003418" lon="2.79216718673706">
			<ele>167.199996948242</ele>
			<time>2014-01-02T11:10:36Z</time>
		</trkpt>
		<trkpt lat="39.4361038208008" lon="2.79221844673157">
			<ele>167.199996948242</ele>
			<time>2014-01-02T11:10:37Z</time>
		</trkpt>
		<trkpt lat="39.436164855957" lon="2.79226851463318">
			<ele>168.100006103516</ele>
			<time>2014-01-02T11:10:38Z</time>
		</trkpt>
		<trkpt lat="39.4362144470215" lon="2.7923104763031">
			<ele>167.300003051758</ele>
			<time>2014-01-02T11:10:39Z</time>
		</trkpt>
		<trkpt lat="39.4362716674805" lon="2.79236125946045">
			<ele>167.100006103516</ele>
			<time>2014-01-02T11:10:40Z</time>
		</trkpt>
		<trkpt lat="39.4363212585449" lon="2.7924165725708">
			<ele>167.100006103516</ele>
			<time>2014-01-02T11:10:41Z</time>
		</trkpt>
		<trkpt lat="39.4363708496094" lon="2.79248356819153">
			<ele>167</ele>
			<time>2014-01-02T11:10:42Z</time>
		</trkpt>
		<trkpt lat="39.4364128112793" lon="2.79255795478821">
			<ele>167.600006103516</ele>
			<time>2014-01-02T11:10:43Z</time>
		</trkpt>
		<trkpt lat="39.4364318847656" lon="2.79264307022095">
			<ele>166.800003051758</ele>
			<time>2014-01-02T11:10:44Z</time>
		</trkpt>
		<trkpt lat="39.4364585876465" lon="2.79272174835205">
			<ele>166.800003051758</ele>
			<time>2014-01-02T11:10:45Z</time>
		</trkpt>
		<trkpt lat="39.4364814758301" lon="2.79280471801758">
			<ele>166.600006103516</ele>
			<time>2014-01-02T11:10:46Z</time>
		</trkpt>
		<trkpt lat="39.4365081787109" lon="2.79288268089294">
			<ele>166.600006103516</ele>
			<time>2014-01-02T11:10:47Z</time>
		</trkpt>
		<trkpt lat="39.4365310668945" lon="2.79296064376831">
			<ele>166.300003051758</ele>
			<time>2014-01-02T11:10:48Z</time>
		</trkpt>
		<trkpt lat="39.4365577697754" lon="2.79303956031799">
			<ele>166.100006103516</ele>
			<time>2014-01-02T11:10:49Z</time>
		</trkpt>
		<trkpt lat="39.436580657959" lon="2.79311656951904">
			<ele>165.800003051758</ele>
			<time>2014-01-02T11:10:50Z</time>
		</trkpt>
		<trkpt lat="39.4366035461426" lon="2.79319763183594">
			<ele>165.699996948242</ele>
			<time>2014-01-02T11:10:51Z</time>
		</trkpt>
		<trkpt lat="39.4366264343262" lon="2.79327464103699">
			<ele>165.600006103516</ele>
			<time>2014-01-02T11:10:52Z</time>
		</trkpt>
		<trkpt lat="39.4366455078125" lon="2.7933521270752">
			<ele>165.300003051758</ele>
			<time>2014-01-02T11:10:53Z</time>
		</trkpt>
		<trkpt lat="39.4366722106934" lon="2.79342913627625">
			<ele>165.600006103516</ele>
			<time>2014-01-02T11:10:54Z</time>
		</trkpt>
		<trkpt lat="39.4366912841797" lon="2.79350614547729">
			<ele>165.600006103516</ele>
			<time>2014-01-02T11:10:55Z</time>
		</trkpt>
		<trkpt lat="39.436710357666" lon="2.79358124732971">
			<ele>165.300003051758</ele>
			<time>2014-01-02T11:10:56Z</time>
		</trkpt>
		<trkpt lat="39.4367294311523" lon="2.79365754127502">
			<ele>165.300003051758</ele>
			<time>2014-01-02T11:10:57Z</time>
		</trkpt>
		<trkpt lat="39.4367523193359" lon="2.7937331199646">
			<ele>165.300003051758</ele>
			<time>2014-01-02T11:10:58Z</time>
		</trkpt>
		<trkpt lat="39.4367752075195" lon="2.79381012916565">
			<ele>165.100006103516</ele>
			<time>2014-01-02T11:10:59Z</time>
		</trkpt>
		<trkpt lat="39.4367942810059" lon="2.79388308525085">
			<ele>165.100006103516</ele>
			<time>2014-01-02T11:11:00Z</time>
		</trkpt>
		<trkpt lat="39.4368171691895" lon="2.79395627975464">
			<ele>165</ele>
			<time>2014-01-02T11:11:01Z</time>
		</trkpt>
		<trkpt lat="39.4368362426758" lon="2.79403138160706">
			<ele>165.100006103516</ele>
			<time>2014-01-02T11:11:02Z</time>
		</trkpt>
		<trkpt lat="39.4368553161621" lon="2.79410433769226">
			<ele>164.5</ele>
			<time>2014-01-02T11:11:03Z</time>
		</trkpt>
		<trkpt lat="39.4368705749512" lon="2.79417490959167">
			<ele>164.699996948242</ele>
			<time>2014-01-02T11:11:04Z</time>
		</trkpt>
		<trkpt lat="39.4368934631348" lon="2.79424571990967">
			<ele>164.800003051758</ele>
			<time>2014-01-02T11:11:05Z</time>
		</trkpt>
		<trkpt lat="39.4369125366211" lon="2.79431128501892">
			<ele>164.699996948242</ele>
			<time>2014-01-02T11:11:06Z</time>
		</trkpt>
		<trkpt lat="39.4369316101074" lon="2.79437875747681">
			<ele>164.699996948242</ele>
			<time>2014-01-02T11:11:07Z</time>
		</trkpt>
		<trkpt lat="39.4369468688965" lon="2.79444289207458">
			<ele>164.699996948242</ele>
			<time>2014-01-02T11:11:08Z</time>
		</trkpt>
		<trkpt lat="39.4369735717773" lon="2.79450607299805">
			<ele>164.800003051758</ele>
			<time>2014-01-02T11:11:09Z</time>
		</trkpt>
		<trkpt lat="39.4370040893555" lon="2.79456734657288">
			<ele>165.100006103516</ele>
			<time>2014-01-02T11:11:10Z</time>
		</trkpt>
		<trkpt lat="39.4370346069336" lon="2.79463291168213">
			<ele>165.5</ele>
			<time>2014-01-02T11:11:11Z</time>
		</trkpt>
		<trkpt lat="39.4370651245117" lon="2.79469537734985">
			<ele>165.699996948242</ele>
			<time>2014-01-02T11:11:12Z</time>
		</trkpt>
		<trkpt lat="39.4370880126953" lon="2.79475617408752">
			<ele>166.100006103516</ele>
			<time>2014-01-02T11:11:13Z</time>
		</trkpt>
		<trkpt lat="39.4371147155762" lon="2.79481887817383">
			<ele>166.300003051758</ele>
			<time>2014-01-02T11:11:14Z</time>
		</trkpt>
		<trkpt lat="39.437141418457" lon="2.79488158226013">
			<ele>166.600006103516</ele>
			<time>2014-01-02T11:11:15Z</time>
		</trkpt>
		<trkpt lat="39.4371681213379" lon="2.79494309425354">
			<ele>166.800003051758</ele>
			<time>2014-01-02T11:11:16Z</time>
		</trkpt>
		<trkpt lat="39.437198638916" lon="2.79499959945679">
			<ele>167.199996948242</ele>
			<time>2014-01-02T11:11:17Z</time>
		</trkpt>
		<trkpt lat="39.4372253417969" lon="2.79505896568298">
			<ele>167.399993896484</ele>
			<time>2014-01-02T11:11:18Z</time>
		</trkpt>
		<trkpt lat="39.4372520446777" lon="2.79511690139771">
			<ele>167.5</ele>
			<time>2014-01-02T11:11:19Z</time>
		</trkpt>
		<trkpt lat="39.4372787475586" lon="2.79517436027527">
			<ele>167.800003051758</ele>
			<time>2014-01-02T11:11:20Z</time>
		</trkpt>
		<trkpt lat="39.4373054504395" lon="2.79523324966431">
			<ele>168</ele>
			<time>2014-01-02T11:11:21Z</time>
		</trkpt>
		<trkpt lat="39.437328338623" lon="2.79529070854187">
			<ele>168.100006103516</ele>
			<time>2014-01-02T11:11:22Z</time>
		</trkpt>
		<trkpt lat="39.4373550415039" lon="2.79534506797791">
			<ele>168.399993896484</ele>
			<time>2014-01-02T11:11:23Z</time>
		</trkpt>
		<trkpt lat="39.4373817443848" lon="2.79539465904236">
			<ele>168.699996948242</ele>
			<time>2014-01-02T11:11:24Z</time>
		</trkpt>
		<trkpt lat="39.4374122619629" lon="2.79544186592102">
			<ele>168.899993896484</ele>
			<time>2014-01-02T11:11:25Z</time>
		</trkpt>
		<trkpt lat="39.4374389648438" lon="2.79549098014832">
			<ele>169</ele>
			<time>2014-01-02T11:11:26Z</time>
		</trkpt>
		<trkpt lat="39.4374694824219" lon="2.79553508758545">
			<ele>168.899993896484</ele>
			<time>2014-01-02T11:11:27Z</time>
		</trkpt>
		<trkpt lat="39.4375267028809" lon="2.79561758041382">
			<ele>170</ele>
			<time>2014-01-02T11:11:29Z</time>
		</trkpt>
		<trkpt lat="39.4375915527344" lon="2.79569554328918">
			<ele>169.899993896484</ele>
			<time>2014-01-02T11:11:31Z</time>
		</trkpt>
		<trkpt lat="39.4376487731934" lon="2.79577779769897">
			<ele>170.199996948242</ele>
			<time>2014-01-02T11:11:33Z</time>
		</trkpt>
		<trkpt lat="39.4377059936523" lon="2.79585385322571">
			<ele>170.399993896484</ele>
			<time>2014-01-02T11:11:35Z</time>
		</trkpt>
		<trkpt lat="39.4377670288086" lon="2.79593062400818">
			<ele>170.699996948242</ele>
			<time>2014-01-02T11:11:37Z</time>
		</trkpt>
		<trkpt lat="39.4378242492676" lon="2.79600858688354">
			<ele>171.199996948242</ele>
			<time>2014-01-02T11:11:39Z</time>
		</trkpt>
		<trkpt lat="39.4378776550293" lon="2.79608535766602">
			<ele>171</ele>
			<time>2014-01-02T11:11:41Z</time>
		</trkpt>
		<trkpt lat="39.4379348754883" lon="2.79615950584412">
			<ele>170.800003051758</ele>
			<time>2014-01-02T11:11:43Z</time>
		</trkpt>
		<trkpt lat="39.4379653930664" lon="2.79620361328125">
			<ele>170.899993896484</ele>
			<time>2014-01-02T11:11:44Z</time>
		</trkpt>
		<trkpt lat="39.4380264282227" lon="2.79628467559814">
			<ele>170.399993896484</ele>
			<time>2014-01-02T11:11:46Z</time>
		</trkpt>
		<trkpt lat="39.4380798339844" lon="2.79637169837952">
			<ele>170.100006103516</ele>
			<time>2014-01-02T11:11:48Z</time>
		</trkpt>
		<trkpt lat="39.4381408691406" lon="2.79645729064941">
			<ele>170.100006103516</ele>
			<time>2014-01-02T11:11:50Z</time>
		</trkpt>
		<trkpt lat="39.4381904602051" lon="2.79654860496521">
			<ele>170.399993896484</ele>
			<time>2014-01-02T11:11:52Z</time>
		</trkpt>
		<trkpt lat="39.4382286071777" lon="2.79664611816406">
			<ele>170.399993896484</ele>
			<time>2014-01-02T11:11:54Z</time>
		</trkpt>
		<trkpt lat="39.4382705688477" lon="2.79673790931702">
			<ele>170.699996948242</ele>
			<time>2014-01-02T11:11:56Z</time>
		</trkpt>
		<trkpt lat="39.4383010864258" lon="2.79683589935303">
			<ele>170.600006103516</ele>
			<time>2014-01-02T11:11:58Z</time>
		</trkpt>
		<trkpt lat="39.4383239746094" lon="2.79692983627319">
			<ele>170.600006103516</ele>
			<time>2014-01-02T11:12:00Z</time>
		</trkpt>
		<trkpt lat="39.4383392333984" lon="2.79698967933655">
			<ele>170.199996948242</ele>
			<time>2014-01-02T11:12:01Z</time>
		</trkpt>
		<trkpt lat="39.4383544921875" lon="2.79704642295837">
			<ele>169.399993896484</ele>
			<time>2014-01-02T11:12:02Z</time>
		</trkpt>
		<trkpt lat="39.4383811950684" lon="2.79714918136597">
			<ele>169.100006103516</ele>
			<time>2014-01-02T11:12:04Z</time>
		</trkpt>
		<trkpt lat="39.4384117126465" lon="2.79725289344788">
			<ele>168.399993896484</ele>
			<time>2014-01-02T11:12:06Z</time>
		</trkpt>
		<trkpt lat="39.4384269714355" lon="2.79735517501831">
			<ele>167.800003051758</ele>
			<time>2014-01-02T11:12:08Z</time>
		</trkpt>
		<trkpt lat="39.4384460449219" lon="2.79746723175049">
			<ele>167</ele>
			<time>2014-01-02T11:12:10Z</time>
		</trkpt>
		<trkpt lat="39.4384536743164" lon="2.79752969741821">
			<ele>167</ele>
			<time>2014-01-02T11:12:11Z</time>
		</trkpt>
		<trkpt lat="39.4384536743164" lon="2.79759240150452">
			<ele>166.699996948242</ele>
			<time>2014-01-02T11:12:12Z</time>
		</trkpt>
		<trkpt lat="39.4384498596191" lon="2.79771041870117">
			<ele>165.899993896484</ele>
			<time>2014-01-02T11:12:14Z</time>
		</trkpt>
		<trkpt lat="39.4384422302246" lon="2.79776859283447">
			<ele>166.100006103516</ele>
			<time>2014-01-02T11:12:15Z</time>
		</trkpt>
		<trkpt lat="39.4384307861328" lon="2.79788208007813">
			<ele>165.5</ele>
			<time>2014-01-02T11:12:17Z</time>
		</trkpt>
		<trkpt lat="39.4384269714355" lon="2.79794001579285">
			<ele>165.300003051758</ele>
			<time>2014-01-02T11:12:18Z</time>
		</trkpt>
		<trkpt lat="39.438419342041" lon="2.79805564880371">
			<ele>165</ele>
			<time>2014-01-02T11:12:20Z</time>
		</trkpt>
		<trkpt lat="39.438419342041" lon="2.79811763763428">
			<ele>164.699996948242</ele>
			<time>2014-01-02T11:12:21Z</time>
		</trkpt>
		<trkpt lat="39.438404083252" lon="2.79822969436646">
			<ele>164.300003051758</ele>
			<time>2014-01-02T11:12:23Z</time>
		</trkpt>
		<trkpt lat="39.438404083252" lon="2.79834127426147">
			<ele>164.399993896484</ele>
			<time>2014-01-02T11:12:25Z</time>
		</trkpt>
		<trkpt lat="39.4383964538574" lon="2.79845142364502">
			<ele>164.600006103516</ele>
			<time>2014-01-02T11:12:27Z</time>
		</trkpt>
		<trkpt lat="39.4383735656738" lon="2.79855966567993">
			<ele>164.600006103516</ele>
			<time>2014-01-02T11:12:29Z</time>
		</trkpt>
		<trkpt lat="39.4383506774902" lon="2.79861330986023">
			<ele>164.5</ele>
			<time>2014-01-02T11:12:30Z</time>
		</trkpt>
		<trkpt lat="39.4383010864258" lon="2.79870176315308">
			<ele>165.100006103516</ele>
			<time>2014-01-02T11:12:32Z</time>
		</trkpt>
		<trkpt lat="39.4382362365723" lon="2.79876470565796">
			<ele>165.300003051758</ele>
			<time>2014-01-02T11:12:34Z</time>
		</trkpt>
		<trkpt lat="39.4381256103516" lon="2.798832654953">
			<ele>165.399993896484</ele>
			<time>2014-01-02T11:12:37Z</time>
		</trkpt>
		<trkpt lat="39.4380531311035" lon="2.79885745048523">
			<ele>165.399993896484</ele>
			<time>2014-01-02T11:12:39Z</time>
		</trkpt>
		<trkpt lat="39.4379806518555" lon="2.79889273643494">
			<ele>165.199996948242</ele>
			<time>2014-01-02T11:12:41Z</time>
		</trkpt>
		<trkpt lat="39.4379081726074" lon="2.79893326759338">
			<ele>165.399993896484</ele>
			<time>2014-01-02T11:12:43Z</time>
		</trkpt>
		<trkpt lat="39.4378356933594" lon="2.7989661693573">
			<ele>165.399993896484</ele>
			<time>2014-01-02T11:12:45Z</time>
		</trkpt>
		<trkpt lat="39.4377670288086" lon="2.79900169372559">
			<ele>166.300003051758</ele>
			<time>2014-01-02T11:12:47Z</time>
		</trkpt>
		<trkpt lat="39.4376907348633" lon="2.79902100563049">
			<ele>167</ele>
			<time>2014-01-02T11:12:49Z</time>
		</trkpt>
		<trkpt lat="39.4376182556152" lon="2.79904770851135">
			<ele>167.399993896484</ele>
			<time>2014-01-02T11:12:51Z</time>
		</trkpt>
		<trkpt lat="39.4375457763672" lon="2.79908919334412">
			<ele>167.699996948242</ele>
			<time>2014-01-02T11:12:53Z</time>
		</trkpt>
		<trkpt lat="39.4374694824219" lon="2.79912614822388">
			<ele>167.600006103516</ele>
			<time>2014-01-02T11:12:55Z</time>
		</trkpt>
		<trkpt lat="39.4374084472656" lon="2.79915904998779">
			<ele>168</ele>
			<time>2014-01-02T11:12:57Z</time>
		</trkpt>
		<trkpt lat="39.4373321533203" lon="2.79919767379761">
			<ele>167.899993896484</ele>
			<time>2014-01-02T11:12:59Z</time>
		</trkpt>
		<trkpt lat="39.4372634887695" lon="2.79923963546753">
			<ele>168.800003051758</ele>
			<time>2014-01-02T11:13:01Z</time>
		</trkpt>
		<trkpt lat="39.4371948242188" lon="2.79930686950684">
			<ele>169.100006103516</ele>
			<time>2014-01-02T11:13:03Z</time>
		</trkpt>
		<trkpt lat="39.4371185302734" lon="2.7993426322937">
			<ele>169.899993896484</ele>
			<time>2014-01-02T11:13:05Z</time>
		</trkpt>
		<trkpt lat="39.4370460510254" lon="2.79940128326416">
			<ele>170.300003051758</ele>
			<time>2014-01-02T11:13:07Z</time>
		</trkpt>
		<trkpt lat="39.4369697570801" lon="2.79944777488708">
			<ele>171.800003051758</ele>
			<time>2014-01-02T11:13:09Z</time>
		</trkpt>
		<trkpt lat="39.4369049072266" lon="2.79952883720398">
			<ele>171.399993896484</ele>
			<time>2014-01-02T11:13:11Z</time>
		</trkpt>
		<trkpt lat="39.4368782043457" lon="2.7995753288269">
			<ele>170.300003051758</ele>
			<time>2014-01-02T11:13:12Z</time>
		</trkpt>
		<trkpt lat="39.4368934631348" lon="2.79963898658752">
			<ele>169.800003051758</ele>
			<time>2014-01-02T11:13:13Z</time>
		</trkpt>
		<trkpt lat="39.4369163513184" lon="2.79974269866943">
			<ele>169.800003051758</ele>
			<time>2014-01-02T11:13:15Z</time>
		</trkpt>
		<trkpt lat="39.4369583129883" lon="2.79977512359619">
			<ele>170.100006103516</ele>
			<time>2014-01-02T11:13:16Z</time>
		</trkpt>
		<trkpt lat="39.4370193481445" lon="2.79984402656555">
			<ele>170.5</ele>
			<time>2014-01-02T11:13:18Z</time>
		</trkpt>
		<trkpt lat="39.4370765686035" lon="2.79992246627808">
			<ele>170.100006103516</ele>
			<time>2014-01-02T11:13:20Z</time>
		</trkpt>
		<trkpt lat="39.4371376037598" lon="2.80000734329224">
			<ele>169.5</ele>
			<time>2014-01-02T11:13:22Z</time>
		</trkpt>
		<trkpt lat="39.4372024536133" lon="2.80008745193481">
			<ele>169.600006103516</ele>
			<time>2014-01-02T11:13:24Z</time>
		</trkpt>
		<trkpt lat="39.4372596740723" lon="2.80017113685608">
			<ele>170.100006103516</ele>
			<time>2014-01-02T11:13:26Z</time>
		</trkpt>
		<trkpt lat="39.4373207092285" lon="2.80025267601013">
			<ele>170.699996948242</ele>
			<time>2014-01-02T11:13:28Z</time>
		</trkpt>
		<trkpt lat="39.4373512268066" lon="2.8002941608429">
			<ele>170.800003051758</ele>
			<time>2014-01-02T11:13:29Z</time>
		</trkpt>
		<trkpt lat="39.4374160766602" lon="2.80037546157837">
			<ele>171.100006103516</ele>
			<time>2014-01-02T11:13:31Z</time>
		</trkpt>
		<trkpt lat="39.4374465942383" lon="2.80042552947998">
			<ele>170.699996948242</ele>
			<time>2014-01-02T11:13:32Z</time>
		</trkpt>
		<trkpt lat="39.4374809265137" lon="2.80047035217285">
			<ele>170.699996948242</ele>
			<time>2014-01-02T11:13:33Z</time>
		</trkpt>
		<trkpt lat="39.4375038146973" lon="2.8005199432373">
			<ele>170.899993896484</ele>
			<time>2014-01-02T11:13:34Z</time>
		</trkpt>
		<trkpt lat="39.4375305175781" lon="2.80056858062744">
			<ele>170.600006103516</ele>
			<time>2014-01-02T11:13:35Z</time>
		</trkpt>
		<trkpt lat="39.4375801086426" lon="2.80066061019897">
			<ele>170.600006103516</ele>
			<time>2014-01-02T11:13:37Z</time>
		</trkpt>
		<trkpt lat="39.437629699707" lon="2.80074548721313">
			<ele>170.199996948242</ele>
			<time>2014-01-02T11:13:39Z</time>
		</trkpt>
		<trkpt lat="39.4376792907715" lon="2.80082821846008">
			<ele>170.5</ele>
			<time>2014-01-02T11:13:41Z</time>
		</trkpt>
		<trkpt lat="39.4377288818359" lon="2.80091047286987">
			<ele>170</ele>
			<time>2014-01-02T11:13:43Z</time>
		</trkpt>
		<trkpt lat="39.4377746582031" lon="2.80098342895508">
			<ele>169.899993896484</ele>
			<time>2014-01-02T11:13:45Z</time>
		</trkpt>
		<trkpt lat="39.4378204345703" lon="2.80106210708618">
			<ele>169.699996948242</ele>
			<time>2014-01-02T11:13:47Z</time>
		</trkpt>
		<trkpt lat="39.4378623962402" lon="2.8011417388916">
			<ele>169.5</ele>
			<time>2014-01-02T11:13:49Z</time>
		</trkpt>
		<trkpt lat="39.437915802002" lon="2.80122923851013">
			<ele>169</ele>
			<time>2014-01-02T11:13:51Z</time>
		</trkpt>
		<trkpt lat="39.4379463195801" lon="2.80127644538879">
			<ele>168.600006103516</ele>
			<time>2014-01-02T11:13:52Z</time>
		</trkpt>
		<trkpt lat="39.4380035400391" lon="2.80137872695923">
			<ele>168.699996948242</ele>
			<time>2014-01-02T11:13:54Z</time>
		</trkpt>
		<trkpt lat="39.4380340576172" lon="2.80142974853516">
			<ele>168.600006103516</ele>
			<time>2014-01-02T11:13:55Z</time>
		</trkpt>
		<trkpt lat="39.4380683898926" lon="2.80148077011108">
			<ele>168.600006103516</ele>
			<time>2014-01-02T11:13:56Z</time>
		</trkpt>
		<trkpt lat="39.4380989074707" lon="2.80153489112854">
			<ele>168.399993896484</ele>
			<time>2014-01-02T11:13:57Z</time>
		</trkpt>
		<trkpt lat="39.4381294250488" lon="2.80159091949463">
			<ele>168.5</ele>
			<time>2014-01-02T11:13:58Z</time>
		</trkpt>
		<trkpt lat="39.4381637573242" lon="2.80164933204651">
			<ele>168.300003051758</ele>
			<time>2014-01-02T11:13:59Z</time>
		</trkpt>
		<trkpt lat="39.4381942749023" lon="2.80170750617981">
			<ele>168.600006103516</ele>
			<time>2014-01-02T11:14:00Z</time>
		</trkpt>
		<trkpt lat="39.4382286071777" lon="2.80177164077759">
			<ele>168</ele>
			<time>2014-01-02T11:14:01Z</time>
		</trkpt>
		<trkpt lat="39.4382591247559" lon="2.80182909965515">
			<ele>168.300003051758</ele>
			<time>2014-01-02T11:14:02Z</time>
		</trkpt>
		<trkpt lat="39.4382972717285" lon="2.80188798904419">
			<ele>168.199996948242</ele>
			<time>2014-01-02T11:14:03Z</time>
		</trkpt>
		<trkpt lat="39.4383316040039" lon="2.80194759368896">
			<ele>167.899993896484</ele>
			<time>2014-01-02T11:14:04Z</time>
		</trkpt>
		<trkpt lat="39.4383659362793" lon="2.802006483078">
			<ele>167.5</ele>
			<time>2014-01-02T11:14:05Z</time>
		</trkpt>
		<trkpt lat="39.4384002685547" lon="2.8020613193512">
			<ele>167</ele>
			<time>2014-01-02T11:14:06Z</time>
		</trkpt>
		<trkpt lat="39.4384269714355" lon="2.80212473869324">
			<ele>166.699996948242</ele>
			<time>2014-01-02T11:14:07Z</time>
		</trkpt>
		<trkpt lat="39.4384574890137" lon="2.80218577384949">
			<ele>167.399993896484</ele>
			<time>2014-01-02T11:14:08Z</time>
		</trkpt>
		<trkpt lat="39.4384880065918" lon="2.80224704742432">
			<ele>167.199996948242</ele>
			<time>2014-01-02T11:14:09Z</time>
		</trkpt>
		<trkpt lat="39.4385185241699" lon="2.80231046676636">
			<ele>167.300003051758</ele>
			<time>2014-01-02T11:14:10Z</time>
		</trkpt>
		<trkpt lat="39.438549041748" lon="2.80237197875977">
			<ele>167.199996948242</ele>
			<time>2014-01-02T11:14:11Z</time>
		</trkpt>
		<trkpt lat="39.4385871887207" lon="2.80242347717285">
			<ele>167.300003051758</ele>
			<time>2014-01-02T11:14:12Z</time>
		</trkpt>
		<trkpt lat="39.4386253356934" lon="2.80248308181763">
			<ele>167.399993896484</ele>
			<time>2014-01-02T11:14:13Z</time>
		</trkpt>
		<trkpt lat="39.4386558532715" lon="2.80254530906677">
			<ele>166.600006103516</ele>
			<time>2014-01-02T11:14:14Z</time>
		</trkpt>
		<trkpt lat="39.4386863708496" lon="2.80260896682739">
			<ele>167.100006103516</ele>
			<time>2014-01-02T11:14:15Z</time>
		</trkpt>
		<trkpt lat="39.4387130737305" lon="2.80267190933228">
			<ele>166.899993896484</ele>
			<time>2014-01-02T11:14:16Z</time>
		</trkpt>
		<trkpt lat="39.4387474060059" lon="2.80272698402405">
			<ele>166.600006103516</ele>
			<time>2014-01-02T11:14:17Z</time>
		</trkpt>
		<trkpt lat="39.4387817382813" lon="2.80278134346008">
			<ele>166.300003051758</ele>
			<time>2014-01-02T11:14:18Z</time>
		</trkpt>
		<trkpt lat="39.4388122558594" lon="2.80283379554749">
			<ele>165.899993896484</ele>
			<time>2014-01-02T11:14:19Z</time>
		</trkpt>
		<trkpt lat="39.4388465881348" lon="2.80289793014526">
			<ele>166</ele>
			<time>2014-01-02T11:14:20Z</time>
		</trkpt>
		<trkpt lat="39.4388847351074" lon="2.80295920372009">
			<ele>165.800003051758</ele>
			<time>2014-01-02T11:14:21Z</time>
		</trkpt>
		<trkpt lat="39.4389152526855" lon="2.80303621292114">
			<ele>165.399993896484</ele>
			<time>2014-01-02T11:14:22Z</time>
		</trkpt>
		<trkpt lat="39.4389457702637" lon="2.80309629440308">
			<ele>164.899993896484</ele>
			<time>2014-01-02T11:14:23Z</time>
		</trkpt>
		<trkpt lat="39.4389801025391" lon="2.80315709114075">
			<ele>164.5</ele>
			<time>2014-01-02T11:14:24Z</time>
		</trkpt>
		<trkpt lat="39.4390144348145" lon="2.803218126297">
			<ele>164.199996948242</ele>
			<time>2014-01-02T11:14:25Z</time>
		</trkpt>
		<trkpt lat="39.4390525817871" lon="2.80328130722046">
			<ele>163.699996948242</ele>
			<time>2014-01-02T11:14:26Z</time>
		</trkpt>
		<trkpt lat="39.4390869140625" lon="2.80334711074829">
			<ele>163.399993896484</ele>
			<time>2014-01-02T11:14:27Z</time>
		</trkpt>
		<trkpt lat="39.4391250610352" lon="2.80340623855591">
			<ele>163</ele>
			<time>2014-01-02T11:14:28Z</time>
		</trkpt>
		<trkpt lat="39.4391593933105" lon="2.80346441268921">
			<ele>162.899993896484</ele>
			<time>2014-01-02T11:14:29Z</time>
		</trkpt>
		<trkpt lat="39.4391975402832" lon="2.80352377891541">
			<ele>162.600006103516</ele>
			<time>2014-01-02T11:14:30Z</time>
		</trkpt>
		<trkpt lat="39.4392318725586" lon="2.80358791351318">
			<ele>162.600006103516</ele>
			<time>2014-01-02T11:14:31Z</time>
		</trkpt>
		<trkpt lat="39.4392623901367" lon="2.80364799499512">
			<ele>162.399993896484</ele>
			<time>2014-01-02T11:14:32Z</time>
		</trkpt>
		<trkpt lat="39.4392967224121" lon="2.80370855331421">
			<ele>162.100006103516</ele>
			<time>2014-01-02T11:14:33Z</time>
		</trkpt>
		<trkpt lat="39.4393310546875" lon="2.80376768112183">
			<ele>161.800003051758</ele>
			<time>2014-01-02T11:14:34Z</time>
		</trkpt>
		<trkpt lat="39.4393615722656" lon="2.8038272857666">
			<ele>162</ele>
			<time>2014-01-02T11:14:35Z</time>
		</trkpt>
		<trkpt lat="39.4393920898438" lon="2.80388569831848">
			<ele>162</ele>
			<time>2014-01-02T11:14:36Z</time>
		</trkpt>
		<trkpt lat="39.4394226074219" lon="2.80394315719604">
			<ele>162</ele>
			<time>2014-01-02T11:14:37Z</time>
		</trkpt>
		<trkpt lat="39.439453125" lon="2.80399894714355">
			<ele>161.699996948242</ele>
			<time>2014-01-02T11:14:38Z</time>
		</trkpt>
		<trkpt lat="39.4394874572754" lon="2.80405807495117">
			<ele>161.699996948242</ele>
			<time>2014-01-02T11:14:39Z</time>
		</trkpt>
		<trkpt lat="39.4395179748535" lon="2.80411505699158">
			<ele>161.5</ele>
			<time>2014-01-02T11:14:40Z</time>
		</trkpt>
		<trkpt lat="39.4395484924316" lon="2.8041718006134">
			<ele>161.399993896484</ele>
			<time>2014-01-02T11:14:41Z</time>
		</trkpt>
		<trkpt lat="39.4395790100098" lon="2.80422902107239">
			<ele>161.300003051758</ele>
			<time>2014-01-02T11:14:42Z</time>
		</trkpt>
		<trkpt lat="39.4396133422852" lon="2.80428266525269">
			<ele>161.300003051758</ele>
			<time>2014-01-02T11:14:43Z</time>
		</trkpt>
		<trkpt lat="39.439640045166" lon="2.80433940887451">
			<ele>161</ele>
			<time>2014-01-02T11:14:44Z</time>
		</trkpt>
		<trkpt lat="39.4396705627441" lon="2.80439686775208">
			<ele>160.899993896484</ele>
			<time>2014-01-02T11:14:45Z</time>
		</trkpt>
		<trkpt lat="39.439697265625" lon="2.80445146560669">
			<ele>160.800003051758</ele>
			<time>2014-01-02T11:14:46Z</time>
		</trkpt>
		<trkpt lat="39.4397277832031" lon="2.80450773239136">
			<ele>160.800003051758</ele>
			<time>2014-01-02T11:14:47Z</time>
		</trkpt>
		<trkpt lat="39.4397583007813" lon="2.80456233024597">
			<ele>160.899993896484</ele>
			<time>2014-01-02T11:14:48Z</time>
		</trkpt>
		<trkpt lat="39.4397888183594" lon="2.80462312698364">
			<ele>160.699996948242</ele>
			<time>2014-01-02T11:14:49Z</time>
		</trkpt>
		<trkpt lat="39.4398155212402" lon="2.80468130111694">
			<ele>160.800003051758</ele>
			<time>2014-01-02T11:14:50Z</time>
		</trkpt>
		<trkpt lat="39.4398422241211" lon="2.80473351478577">
			<ele>160.5</ele>
			<time>2014-01-02T11:14:51Z</time>
		</trkpt>
		<trkpt lat="39.4398651123047" lon="2.80478763580322">
			<ele>160.199996948242</ele>
			<time>2014-01-02T11:14:52Z</time>
		</trkpt>
		<trkpt lat="39.4398956298828" lon="2.80484533309937">
			<ele>160.100006103516</ele>
			<time>2014-01-02T11:14:53Z</time>
		</trkpt>
		<trkpt lat="39.4399261474609" lon="2.80489945411682">
			<ele>159.699996948242</ele>
			<time>2014-01-02T11:14:54Z</time>
		</trkpt>
		<trkpt lat="39.4399566650391" lon="2.80495095252991">
			<ele>159.800003051758</ele>
			<time>2014-01-02T11:14:55Z</time>
		</trkpt>
		<trkpt lat="39.4399833679199" lon="2.80500340461731">
			<ele>159.899993896484</ele>
			<time>2014-01-02T11:14:56Z</time>
		</trkpt>
		<trkpt lat="39.440013885498" lon="2.80505347251892">
			<ele>159.699996948242</ele>
			<time>2014-01-02T11:14:57Z</time>
		</trkpt>
		<trkpt lat="39.4400444030762" lon="2.80510330200195">
			<ele>159.5</ele>
			<time>2014-01-02T11:14:58Z</time>
		</trkpt>
		<trkpt lat="39.4400749206543" lon="2.80515289306641">
			<ele>159.5</ele>
			<time>2014-01-02T11:14:59Z</time>
		</trkpt>
		<trkpt lat="39.4401016235352" lon="2.80520558357239">
			<ele>159.800003051758</ele>
			<time>2014-01-02T11:15:00Z</time>
		</trkpt>
		<trkpt lat="39.440128326416" lon="2.80525827407837">
			<ele>160</ele>
			<time>2014-01-02T11:15:01Z</time>
		</trkpt>
		<trkpt lat="39.4401512145996" lon="2.80531120300293">
			<ele>160.399993896484</ele>
			<time>2014-01-02T11:15:02Z</time>
		</trkpt>
		<trkpt lat="39.4401779174805" lon="2.80536222457886">
			<ele>160.5</ele>
			<time>2014-01-02T11:15:03Z</time>
		</trkpt>
		<trkpt lat="39.4402084350586" lon="2.80541181564331">
			<ele>160.199996948242</ele>
			<time>2014-01-02T11:15:04Z</time>
		</trkpt>
		<trkpt lat="39.4402351379395" lon="2.80546307563782">
			<ele>160.300003051758</ele>
			<time>2014-01-02T11:15:05Z</time>
		</trkpt>
		<trkpt lat="39.4402656555176" lon="2.80551242828369">
			<ele>160.100006103516</ele>
			<time>2014-01-02T11:15:06Z</time>
		</trkpt>
		<trkpt lat="39.4402923583984" lon="2.80556440353394">
			<ele>159.899993896484</ele>
			<time>2014-01-02T11:15:07Z</time>
		</trkpt>
		<trkpt lat="39.4403228759766" lon="2.80561566352844">
			<ele>160</ele>
			<time>2014-01-02T11:15:08Z</time>
		</trkpt>
		<trkpt lat="39.4403495788574" lon="2.80566573143005">
			<ele>159.899993896484</ele>
			<time>2014-01-02T11:15:09Z</time>
		</trkpt>
		<trkpt lat="39.440372467041" lon="2.80571699142456">
			<ele>160.199996948242</ele>
			<time>2014-01-02T11:15:10Z</time>
		</trkpt>
		<trkpt lat="39.4404029846191" lon="2.80576825141907">
			<ele>160.600006103516</ele>
			<time>2014-01-02T11:15:11Z</time>
		</trkpt>
		<trkpt lat="39.4404258728027" lon="2.80582308769226">
			<ele>160.800003051758</ele>
			<time>2014-01-02T11:15:12Z</time>
		</trkpt>
		<trkpt lat="39.4404563903809" lon="2.80587530136108">
			<ele>160.699996948242</ele>
			<time>2014-01-02T11:15:13Z</time>
		</trkpt>
		<trkpt lat="39.4404830932617" lon="2.80593180656433">
			<ele>160.800003051758</ele>
			<time>2014-01-02T11:15:14Z</time>
		</trkpt>
		<trkpt lat="39.4405097961426" lon="2.80598139762878">
			<ele>160.899993896484</ele>
			<time>2014-01-02T11:15:15Z</time>
		</trkpt>
		<trkpt lat="39.4405364990234" lon="2.80602931976318">
			<ele>160.899993896484</ele>
			<time>2014-01-02T11:15:16Z</time>
		</trkpt>
		<trkpt lat="39.4405670166016" lon="2.80608224868774">
			<ele>160.899993896484</ele>
			<time>2014-01-02T11:15:17Z</time>
		</trkpt>
		<trkpt lat="39.4405937194824" lon="2.80613446235657">
			<ele>161.199996948242</ele>
			<time>2014-01-02T11:15:18Z</time>
		</trkpt>
		<trkpt lat="39.4406204223633" lon="2.80618834495544">
			<ele>161.199996948242</ele>
			<time>2014-01-02T11:15:19Z</time>
		</trkpt>
		<trkpt lat="39.4406509399414" lon="2.8062424659729">
			<ele>161.199996948242</ele>
			<time>2014-01-02T11:15:20Z</time>
		</trkpt>
		<trkpt lat="39.4406776428223" lon="2.80629396438599">
			<ele>161.199996948242</ele>
			<time>2014-01-02T11:15:21Z</time>
		</trkpt>
		<trkpt lat="39.4407119750977" lon="2.80635023117065">
			<ele>161.100006103516</ele>
			<time>2014-01-02T11:15:22Z</time>
		</trkpt>
		<trkpt lat="39.4407386779785" lon="2.80640363693237">
			<ele>161.100006103516</ele>
			<time>2014-01-02T11:15:23Z</time>
		</trkpt>
		<trkpt lat="39.4407653808594" lon="2.80646014213562">
			<ele>161.199996948242</ele>
			<time>2014-01-02T11:15:24Z</time>
		</trkpt>
		<trkpt lat="39.4407920837402" lon="2.80651354789734">
			<ele>161.199996948242</ele>
			<time>2014-01-02T11:15:25Z</time>
		</trkpt>
		<trkpt lat="39.4408226013184" lon="2.806565284729">
			<ele>161.300003051758</ele>
			<time>2014-01-02T11:15:26Z</time>
		</trkpt>
		<trkpt lat="39.4408531188965" lon="2.80662059783936">
			<ele>161</ele>
			<time>2014-01-02T11:15:27Z</time>
		</trkpt>
		<trkpt lat="39.4408836364746" lon="2.8066782951355">
			<ele>160.699996948242</ele>
			<time>2014-01-02T11:15:28Z</time>
		</trkpt>
		<trkpt lat="39.4409217834473" lon="2.80673480033875">
			<ele>160.800003051758</ele>
			<time>2014-01-02T11:15:29Z</time>
		</trkpt>
		<trkpt lat="39.4409523010254" lon="2.80679392814636">
			<ele>160.800003051758</ele>
			<time>2014-01-02T11:15:30Z</time>
		</trkpt>
		<trkpt lat="39.4409790039063" lon="2.80684924125671">
			<ele>160.600006103516</ele>
			<time>2014-01-02T11:15:31Z</time>
		</trkpt>
		<trkpt lat="39.4410057067871" lon="2.80690407752991">
			<ele>161</ele>
			<time>2014-01-02T11:15:32Z</time>
		</trkpt>
		<trkpt lat="39.4410362243652" lon="2.8069634437561">
			<ele>160.800003051758</ele>
			<time>2014-01-02T11:15:33Z</time>
		</trkpt>
		<trkpt lat="39.4410667419434" lon="2.80701971054077">
			<ele>160.899993896484</ele>
			<time>2014-01-02T11:15:34Z</time>
		</trkpt>
		<trkpt lat="39.4410972595215" lon="2.80707669258118">
			<ele>161.100006103516</ele>
			<time>2014-01-02T11:15:35Z</time>
		</trkpt>
		<trkpt lat="39.4411277770996" lon="2.8071346282959">
			<ele>161</ele>
			<time>2014-01-02T11:15:36Z</time>
		</trkpt>
		<trkpt lat="39.4411582946777" lon="2.80719304084778">
			<ele>161.199996948242</ele>
			<time>2014-01-02T11:15:37Z</time>
		</trkpt>
		<trkpt lat="39.4411888122559" lon="2.8072452545166">
			<ele>161</ele>
			<time>2014-01-02T11:15:38Z</time>
		</trkpt>
		<trkpt lat="39.441219329834" lon="2.80729603767395">
			<ele>161</ele>
			<time>2014-01-02T11:15:39Z</time>
		</trkpt>
		<trkpt lat="39.4412498474121" lon="2.8073513507843">
			<ele>161.100006103516</ele>
			<time>2014-01-02T11:15:40Z</time>
		</trkpt>
		<trkpt lat="39.441276550293" lon="2.80740642547607">
			<ele>161.100006103516</ele>
			<time>2014-01-02T11:15:41Z</time>
		</trkpt>
		<trkpt lat="39.4413070678711" lon="2.80746412277222">
			<ele>161.5</ele>
			<time>2014-01-02T11:15:42Z</time>
		</trkpt>
		<trkpt lat="39.4413375854492" lon="2.80752015113831">
			<ele>162</ele>
			<time>2014-01-02T11:15:43Z</time>
		</trkpt>
		<trkpt lat="39.4413681030273" lon="2.8075692653656">
			<ele>161.899993896484</ele>
			<time>2014-01-02T11:15:44Z</time>
		</trkpt>
		<trkpt lat="39.4413871765137" lon="2.8076229095459">
			<ele>161.800003051758</ele>
			<time>2014-01-02T11:15:45Z</time>
		</trkpt>
		<trkpt lat="39.4414405822754" lon="2.80771827697754">
			<ele>161.899993896484</ele>
			<time>2014-01-02T11:15:48Z</time>
		</trkpt>
		<trkpt lat="39.4414863586426" lon="2.80780553817749">
			<ele>162.100006103516</ele>
			<time>2014-01-02T11:15:49Z</time>
		</trkpt>
		<trkpt lat="39.441520690918" lon="2.8078773021698">
			<ele>161.699996948242</ele>
			<time>2014-01-02T11:15:51Z</time>
		</trkpt>
		<trkpt lat="39.4415512084961" lon="2.80792570114136">
			<ele>161.699996948242</ele>
			<time>2014-01-02T11:15:53Z</time>
		</trkpt>
		<trkpt lat="39.4415969848633" lon="2.80794930458069">
			<ele>160.600006103516</ele>
			<time>2014-01-02T11:17:55Z</time>
		</trkpt>
		<trkpt lat="39.4416313171387" lon="2.80802249908447">
			<ele>161.300003051758</ele>
			<time>2014-01-02T11:17:58Z</time>
		</trkpt>
		<trkpt lat="39.4416580200195" lon="2.80808329582214">
			<ele>160.5</ele>
			<time>2014-01-02T11:18:00Z</time>
		</trkpt>
		<trkpt lat="39.4416999816895" lon="2.80815100669861">
			<ele>160.600006103516</ele>
			<time>2014-01-02T11:18:02Z</time>
		</trkpt>
		<trkpt lat="39.4417419433594" lon="2.80822205543518">
			<ele>160.800003051758</ele>
			<time>2014-01-02T11:18:04Z</time>
		</trkpt>
		<trkpt lat="39.4417915344238" lon="2.80830264091492">
			<ele>160.899993896484</ele>
			<time>2014-01-02T11:18:06Z</time>
		</trkpt>
		<trkpt lat="39.4418563842773" lon="2.80837559700012">
			<ele>160.199996948242</ele>
			<time>2014-01-02T11:18:08Z</time>
		</trkpt>
		<trkpt lat="39.4419059753418" lon="2.80845499038696">
			<ele>160</ele>
			<time>2014-01-02T11:18:10Z</time>
		</trkpt>
		<trkpt lat="39.4419555664063" lon="2.80853724479675">
			<ele>160.399993896484</ele>
			<time>2014-01-02T11:18:12Z</time>
		</trkpt>
		<trkpt lat="39.4420051574707" lon="2.80861663818359">
			<ele>160.600006103516</ele>
			<time>2014-01-02T11:18:14Z</time>
		</trkpt>
		<trkpt lat="39.4420585632324" lon="2.80869746208191">
			<ele>161</ele>
			<time>2014-01-02T11:18:16Z</time>
		</trkpt>
		<trkpt lat="39.4421157836914" lon="2.80878090858459">
			<ele>160.800003051758</ele>
			<time>2014-01-02T11:18:18Z</time>
		</trkpt>
		<trkpt lat="39.4421730041504" lon="2.80886363983154">
			<ele>161.100006103516</ele>
			<time>2014-01-02T11:18:20Z</time>
		</trkpt>
		<trkpt lat="39.4422264099121" lon="2.80894541740417">
			<ele>161</ele>
			<time>2014-01-02T11:18:22Z</time>
		</trkpt>
		<trkpt lat="39.4422836303711" lon="2.80902814865112">
			<ele>161</ele>
			<time>2014-01-02T11:18:24Z</time>
		</trkpt>
		<trkpt lat="39.4423408508301" lon="2.80911183357239">
			<ele>161.100006103516</ele>
			<time>2014-01-02T11:18:26Z</time>
		</trkpt>
		<trkpt lat="39.4423980712891" lon="2.80919289588928">
			<ele>161.300003051758</ele>
			<time>2014-01-02T11:18:28Z</time>
		</trkpt>
		<trkpt lat="39.4424285888672" lon="2.80923938751221">
			<ele>161.600006103516</ele>
			<time>2014-01-02T11:18:29Z</time>
		</trkpt>
		<trkpt lat="39.442455291748" lon="2.80928492546082">
			<ele>161.600006103516</ele>
			<time>2014-01-02T11:18:30Z</time>
		</trkpt>
		<trkpt lat="39.4424858093262" lon="2.80933094024658">
			<ele>161.899993896484</ele>
			<time>2014-01-02T11:18:31Z</time>
		</trkpt>
		<trkpt lat="39.4425354003906" lon="2.80942296981812">
			<ele>162.300003051758</ele>
			<time>2014-01-02T11:18:33Z</time>
		</trkpt>
		<trkpt lat="39.4425926208496" lon="2.80950808525085">
			<ele>162.5</ele>
			<time>2014-01-02T11:18:35Z</time>
		</trkpt>
		<trkpt lat="39.4426383972168" lon="2.80959010124207">
			<ele>163.100006103516</ele>
			<time>2014-01-02T11:18:37Z</time>
		</trkpt>
		<trkpt lat="39.4426803588867" lon="2.8096718788147">
			<ele>163</ele>
			<time>2014-01-02T11:18:39Z</time>
		</trkpt>
		<trkpt lat="39.4427261352539" lon="2.80974888801575">
			<ele>163.199996948242</ele>
			<time>2014-01-02T11:18:41Z</time>
		</trkpt>
		<trkpt lat="39.4427642822266" lon="2.80984020233154">
			<ele>163.100006103516</ele>
			<time>2014-01-02T11:18:43Z</time>
		</trkpt>
		<trkpt lat="39.4428100585938" lon="2.80992937088013">
			<ele>162.899993896484</ele>
			<time>2014-01-02T11:18:45Z</time>
		</trkpt>
		<trkpt lat="39.4428520202637" lon="2.8100152015686">
			<ele>162.899993896484</ele>
			<time>2014-01-02T11:18:47Z</time>
		</trkpt>
		<trkpt lat="39.4428977966309" lon="2.81010341644287">
			<ele>162.899993896484</ele>
			<time>2014-01-02T11:18:49Z</time>
		</trkpt>
		<trkpt lat="39.4429359436035" lon="2.81019330024719">
			<ele>163.100006103516</ele>
			<time>2014-01-02T11:18:51Z</time>
		</trkpt>
		<trkpt lat="39.4429817199707" lon="2.81028079986572">
			<ele>163</ele>
			<time>2014-01-02T11:18:53Z</time>
		</trkpt>
		<trkpt lat="39.4430160522461" lon="2.81036496162415">
			<ele>163.199996948242</ele>
			<time>2014-01-02T11:18:55Z</time>
		</trkpt>
		<trkpt lat="39.4430618286133" lon="2.8104555606842">
			<ele>162.899993896484</ele>
			<time>2014-01-02T11:18:57Z</time>
		</trkpt>
		<trkpt lat="39.4431037902832" lon="2.81054449081421">
			<ele>162.600006103516</ele>
			<time>2014-01-02T11:18:59Z</time>
		</trkpt>
		<trkpt lat="39.4431495666504" lon="2.81063437461853">
			<ele>162.199996948242</ele>
			<time>2014-01-02T11:19:01Z</time>
		</trkpt>
		<trkpt lat="39.4431953430176" lon="2.81072521209717">
			<ele>161.899993896484</ele>
			<time>2014-01-02T11:19:03Z</time>
		</trkpt>
		<trkpt lat="39.4432373046875" lon="2.81081914901733">
			<ele>161.699996948242</ele>
			<time>2014-01-02T11:19:05Z</time>
		</trkpt>
		<trkpt lat="39.4432792663574" lon="2.81090974807739">
			<ele>161.600006103516</ele>
			<time>2014-01-02T11:19:07Z</time>
		</trkpt>
		<trkpt lat="39.4433250427246" lon="2.8110020160675">
			<ele>161.699996948242</ele>
			<time>2014-01-02T11:19:09Z</time>
		</trkpt>
		<trkpt lat="39.4433746337891" lon="2.81109166145325">
			<ele>161.800003051758</ele>
			<time>2014-01-02T11:19:11Z</time>
		</trkpt>
		<trkpt lat="39.4434204101563" lon="2.81118607521057">
			<ele>162.300003051758</ele>
			<time>2014-01-02T11:19:13Z</time>
		</trkpt>
		<trkpt lat="39.4434661865234" lon="2.81128001213074">
			<ele>162.699996948242</ele>
			<time>2014-01-02T11:19:15Z</time>
		</trkpt>
		<trkpt lat="39.4435157775879" lon="2.81138277053833">
			<ele>163.199996948242</ele>
			<time>2014-01-02T11:19:17Z</time>
		</trkpt>
		<trkpt lat="39.443546295166" lon="2.81143355369568">
			<ele>162.800003051758</ele>
			<time>2014-01-02T11:19:18Z</time>
		</trkpt>
		<trkpt lat="39.4435920715332" lon="2.81153964996338">
			<ele>162.100006103516</ele>
			<time>2014-01-02T11:19:20Z</time>
		</trkpt>
		<trkpt lat="39.4436340332031" lon="2.81164336204529">
			<ele>161.600006103516</ele>
			<time>2014-01-02T11:19:22Z</time>
		</trkpt>
		<trkpt lat="39.443660736084" lon="2.81169366836548">
			<ele>161.300003051758</ele>
			<time>2014-01-02T11:19:23Z</time>
		</trkpt>
		<trkpt lat="39.4436874389648" lon="2.81174755096436">
			<ele>160.899993896484</ele>
			<time>2014-01-02T11:19:24Z</time>
		</trkpt>
		<trkpt lat="39.4437103271484" lon="2.81179881095886">
			<ele>160.600006103516</ele>
			<time>2014-01-02T11:19:25Z</time>
		</trkpt>
		<trkpt lat="39.443733215332" lon="2.81184816360474">
			<ele>160.699996948242</ele>
			<time>2014-01-02T11:19:26Z</time>
		</trkpt>
		<trkpt lat="39.4437599182129" lon="2.81190204620361">
			<ele>160.399993896484</ele>
			<time>2014-01-02T11:19:27Z</time>
		</trkpt>
		<trkpt lat="39.4437828063965" lon="2.81195068359375">
			<ele>160.199996948242</ele>
			<time>2014-01-02T11:19:28Z</time>
		</trkpt>
		<trkpt lat="39.4438285827637" lon="2.81205034255981">
			<ele>160.5</ele>
			<time>2014-01-02T11:19:30Z</time>
		</trkpt>
		<trkpt lat="39.4438552856445" lon="2.81210422515869">
			<ele>160.5</ele>
			<time>2014-01-02T11:19:31Z</time>
		</trkpt>
		<trkpt lat="39.4438819885254" lon="2.81215453147888">
			<ele>160.399993896484</ele>
			<time>2014-01-02T11:19:32Z</time>
		</trkpt>
		<trkpt lat="39.443904876709" lon="2.81220698356628">
			<ele>160.300003051758</ele>
			<time>2014-01-02T11:19:33Z</time>
		</trkpt>
		<trkpt lat="39.4439315795898" lon="2.8122570514679">
			<ele>160.399993896484</ele>
			<time>2014-01-02T11:19:34Z</time>
		</trkpt>
		<trkpt lat="39.443962097168" lon="2.81230759620667">
			<ele>160.600006103516</ele>
			<time>2014-01-02T11:19:35Z</time>
		</trkpt>
		<trkpt lat="39.4439811706543" lon="2.81235933303833">
			<ele>160.699996948242</ele>
			<time>2014-01-02T11:19:37Z</time>
		</trkpt>
		<trkpt lat="39.4440078735352" lon="2.81240940093994">
			<ele>160.600006103516</ele>
			<time>2014-01-02T11:19:38Z</time>
		</trkpt>
		<trkpt lat="39.4440383911133" lon="2.81249523162842">
			<ele>160.199996948242</ele>
			<time>2014-01-02T11:19:40Z</time>
		</trkpt>
		<trkpt lat="39.4441413879395" lon="2.81264281272888">
			<ele>159.199996948242</ele>
			<time>2014-01-02T11:19:43Z</time>
		</trkpt>
		<trkpt lat="39.4441909790039" lon="2.81271553039551">
			<ele>156.699996948242</ele>
			<time>2014-01-02T11:19:45Z</time>
		</trkpt>
		<trkpt lat="39.4442138671875" lon="2.81282329559326">
			<ele>159.399993896484</ele>
			<time>2014-01-02T11:19:45Z</time>
		</trkpt>
		<trkpt lat="39.4442329406738" lon="2.81288552284241">
			<ele>159.199996948242</ele>
			<time>2014-01-02T11:19:46Z</time>
		</trkpt>
		<trkpt lat="39.4442481994629" lon="2.8129460811615">
			<ele>158.600006103516</ele>
			<time>2014-01-02T11:19:48Z</time>
		</trkpt>
		<trkpt lat="39.4443092346191" lon="2.81305050849915">
			<ele>158.800003051758</ele>
			<time>2014-01-02T11:19:50Z</time>
		</trkpt>
		<trkpt lat="39.4443588256836" lon="2.81317543983459">
			<ele>159.899993896484</ele>
			<time>2014-01-02T11:19:51Z</time>
		</trkpt>
		<trkpt lat="39.4443778991699" lon="2.8132438659668">
			<ele>160</ele>
			<time>2014-01-02T11:19:52Z</time>
		</trkpt>
		<trkpt lat="39.4444046020508" lon="2.81330394744873">
			<ele>159.800003051758</ele>
			<time>2014-01-02T11:19:53Z</time>
		</trkpt>
		<trkpt lat="39.4444160461426" lon="2.81337547302246">
			<ele>159.899993896484</ele>
			<time>2014-01-02T11:19:54Z</time>
		</trkpt>
		<trkpt lat="39.4444351196289" lon="2.81344127655029">
			<ele>159.600006103516</ele>
			<time>2014-01-02T11:19:55Z</time>
		</trkpt>
		<trkpt lat="39.4444694519043" lon="2.81349921226501">
			<ele>159.600006103516</ele>
			<time>2014-01-02T11:19:56Z</time>
		</trkpt>
		<trkpt lat="39.4444923400879" lon="2.8135621547699">
			<ele>159.600006103516</ele>
			<time>2014-01-02T11:19:57Z</time>
		</trkpt>
		<trkpt lat="39.4445190429688" lon="2.81361317634583">
			<ele>159.800003051758</ele>
			<time>2014-01-02T11:19:58Z</time>
		</trkpt>
		<trkpt lat="39.4445495605469" lon="2.81367230415344">
			<ele>159.300003051758</ele>
			<time>2014-01-02T11:19:59Z</time>
		</trkpt>
		<trkpt lat="39.4445877075195" lon="2.81372308731079">
			<ele>159</ele>
			<time>2014-01-02T11:20:00Z</time>
		</trkpt>
		<trkpt lat="39.4446220397949" lon="2.81377601623535">
			<ele>159.399993896484</ele>
			<time>2014-01-02T11:20:01Z</time>
		</trkpt>
		<trkpt lat="39.444652557373" lon="2.81383872032166">
			<ele>159.300003051758</ele>
			<time>2014-01-02T11:20:02Z</time>
		</trkpt>
		<trkpt lat="39.4446868896484" lon="2.81389904022217">
			<ele>159.399993896484</ele>
			<time>2014-01-02T11:20:03Z</time>
		</trkpt>
		<trkpt lat="39.4447212219238" lon="2.81395936012268">
			<ele>159.300003051758</ele>
			<time>2014-01-02T11:20:04Z</time>
		</trkpt>
		<trkpt lat="39.4447479248047" lon="2.81401824951172">
			<ele>158.699996948242</ele>
			<time>2014-01-02T11:20:05Z</time>
		</trkpt>
		<trkpt lat="39.4447708129883" lon="2.81408262252808">
			<ele>159</ele>
			<time>2014-01-02T11:20:06Z</time>
		</trkpt>
		<trkpt lat="39.4448089599609" lon="2.81413865089417">
			<ele>159</ele>
			<time>2014-01-02T11:20:07Z</time>
		</trkpt>
		<trkpt lat="39.4448432922363" lon="2.81419706344604">
			<ele>159</ele>
			<time>2014-01-02T11:20:08Z</time>
		</trkpt>
		<trkpt lat="39.4448738098145" lon="2.8142511844635">
			<ele>158.600006103516</ele>
			<time>2014-01-02T11:20:09Z</time>
		</trkpt>
		<trkpt lat="39.4449081420898" lon="2.81431007385254">
			<ele>158.800003051758</ele>
			<time>2014-01-02T11:20:10Z</time>
		</trkpt>
		<trkpt lat="39.444938659668" lon="2.81436419487">
			<ele>158.899993896484</ele>
			<time>2014-01-02T11:20:11Z</time>
		</trkpt>
		<trkpt lat="39.4449691772461" lon="2.81441974639893">
			<ele>158.899993896484</ele>
			<time>2014-01-02T11:20:12Z</time>
		</trkpt>
		<trkpt lat="39.4450035095215" lon="2.81447267532349">
			<ele>158.600006103516</ele>
			<time>2014-01-02T11:20:13Z</time>
		</trkpt>
		<trkpt lat="39.4450302124023" lon="2.81452870368958">
			<ele>158.699996948242</ele>
			<time>2014-01-02T11:20:14Z</time>
		</trkpt>
		<trkpt lat="39.4450607299805" lon="2.81458258628845">
			<ele>158.800003051758</ele>
			<time>2014-01-02T11:20:15Z</time>
		</trkpt>
		<trkpt lat="39.4450912475586" lon="2.8146333694458">
			<ele>159.199996948242</ele>
			<time>2014-01-02T11:20:16Z</time>
		</trkpt>
		<trkpt lat="39.4451217651367" lon="2.81468796730042">
			<ele>159</ele>
			<time>2014-01-02T11:20:17Z</time>
		</trkpt>
		<trkpt lat="39.4451484680176" lon="2.81474137306213">
			<ele>159</ele>
			<time>2014-01-02T11:20:18Z</time>
		</trkpt>
		<trkpt lat="39.4451789855957" lon="2.81479382514954">
			<ele>159.199996948242</ele>
			<time>2014-01-02T11:20:19Z</time>
		</trkpt>
		<trkpt lat="39.4452018737793" lon="2.81484699249268">
			<ele>159.199996948242</ele>
			<time>2014-01-02T11:20:20Z</time>
		</trkpt>
		<trkpt lat="39.4452285766602" lon="2.81490015983582">
			<ele>159.399993896484</ele>
			<time>2014-01-02T11:20:21Z</time>
		</trkpt>
		<trkpt lat="39.445255279541" lon="2.81495785713196">
			<ele>159.800003051758</ele>
			<time>2014-01-02T11:20:22Z</time>
		</trkpt>
		<trkpt lat="39.4452857971191" lon="2.81500458717346">
			<ele>159.699996948242</ele>
			<time>2014-01-02T11:20:23Z</time>
		</trkpt>
		<trkpt lat="39.4453163146973" lon="2.81505060195923">
			<ele>160.100006103516</ele>
			<time>2014-01-02T11:20:24Z</time>
		</trkpt>
		<trkpt lat="39.4453430175781" lon="2.81509590148926">
			<ele>160.399993896484</ele>
			<time>2014-01-02T11:20:25Z</time>
		</trkpt>
		<trkpt lat="39.4453735351563" lon="2.81514525413513">
			<ele>160.100006103516</ele>
			<time>2014-01-02T11:20:26Z</time>
		</trkpt>
		<trkpt lat="39.4454002380371" lon="2.81519317626953">
			<ele>160.100006103516</ele>
			<time>2014-01-02T11:20:27Z</time>
		</trkpt>
		<trkpt lat="39.4454307556152" lon="2.81524062156677">
			<ele>160</ele>
			<time>2014-01-02T11:20:28Z</time>
		</trkpt>
		<trkpt lat="39.4454612731934" lon="2.81528615951538">
			<ele>160</ele>
			<time>2014-01-02T11:20:29Z</time>
		</trkpt>
		<trkpt lat="39.4454917907715" lon="2.81533360481262">
			<ele>159.899993896484</ele>
			<time>2014-01-02T11:20:30Z</time>
		</trkpt>
		<trkpt lat="39.4455223083496" lon="2.81537771224976">
			<ele>159.899993896484</ele>
			<time>2014-01-02T11:20:31Z</time>
		</trkpt>
		<trkpt lat="39.4455528259277" lon="2.81542325019836">
			<ele>160</ele>
			<time>2014-01-02T11:20:32Z</time>
		</trkpt>
		<trkpt lat="39.4455833435059" lon="2.81547117233276">
			<ele>159.699996948242</ele>
			<time>2014-01-02T11:20:33Z</time>
		</trkpt>
		<trkpt lat="39.4456176757813" lon="2.81551885604858">
			<ele>159.699996948242</ele>
			<time>2014-01-02T11:20:34Z</time>
		</trkpt>
		<trkpt lat="39.4456481933594" lon="2.81556463241577">
			<ele>159.699996948242</ele>
			<time>2014-01-02T11:20:35Z</time>
		</trkpt>
		<trkpt lat="39.4456825256348" lon="2.8156042098999">
			<ele>159.800003051758</ele>
			<time>2014-01-02T11:20:36Z</time>
		</trkpt>
		<trkpt lat="39.4457168579102" lon="2.81564784049988">
			<ele>160.199996948242</ele>
			<time>2014-01-02T11:20:37Z</time>
		</trkpt>
		<trkpt lat="39.4457511901855" lon="2.81569170951843">
			<ele>160.399993896484</ele>
			<time>2014-01-02T11:20:38Z</time>
		</trkpt>
		<trkpt lat="39.4457855224609" lon="2.8157331943512">
			<ele>160.699996948242</ele>
			<time>2014-01-02T11:20:39Z</time>
		</trkpt>
		<trkpt lat="39.4458198547363" lon="2.81577467918396">
			<ele>160.899993896484</ele>
			<time>2014-01-02T11:20:40Z</time>
		</trkpt>
		<trkpt lat="39.445858001709" lon="2.81581211090088">
			<ele>161</ele>
			<time>2014-01-02T11:20:41Z</time>
		</trkpt>
		<trkpt lat="39.445930480957" lon="2.81587886810303">
			<ele>161.699996948242</ele>
			<time>2014-01-02T11:20:43Z</time>
		</trkpt>
		<trkpt lat="39.4459686279297" lon="2.81591200828552">
			<ele>161.600006103516</ele>
			<time>2014-01-02T11:20:44Z</time>
		</trkpt>
		<trkpt lat="39.4460105895996" lon="2.81594467163086">
			<ele>161.5</ele>
			<time>2014-01-02T11:20:45Z</time>
		</trkpt>
		<trkpt lat="39.4460525512695" lon="2.81598138809204">
			<ele>161.800003051758</ele>
			<time>2014-01-02T11:20:46Z</time>
		</trkpt>
		<trkpt lat="39.4460868835449" lon="2.81601548194885">
			<ele>161.399993896484</ele>
			<time>2014-01-02T11:20:47Z</time>
		</trkpt>
		<trkpt lat="39.4461288452148" lon="2.81605529785156">
			<ele>161.5</ele>
			<time>2014-01-02T11:20:48Z</time>
		</trkpt>
		<trkpt lat="39.4461669921875" lon="2.81608963012695">
			<ele>161.100006103516</ele>
			<time>2014-01-02T11:20:49Z</time>
		</trkpt>
		<trkpt lat="39.4462089538574" lon="2.81612420082092">
			<ele>161.300003051758</ele>
			<time>2014-01-02T11:20:50Z</time>
		</trkpt>
		<trkpt lat="39.4462509155273" lon="2.81615948677063">
			<ele>161.399993896484</ele>
			<time>2014-01-02T11:20:51Z</time>
		</trkpt>
		<trkpt lat="39.4462890625" lon="2.8161940574646">
			<ele>161.100006103516</ele>
			<time>2014-01-02T11:20:52Z</time>
		</trkpt>
		<trkpt lat="39.4463272094727" lon="2.81622672080994">
			<ele>161.199996948242</ele>
			<time>2014-01-02T11:20:53Z</time>
		</trkpt>
		<trkpt lat="39.4463691711426" lon="2.81626391410828">
			<ele>160.899993896484</ele>
			<time>2014-01-02T11:20:54Z</time>
		</trkpt>
		<trkpt lat="39.4464073181152" lon="2.81630301475525">
			<ele>160.800003051758</ele>
			<time>2014-01-02T11:20:55Z</time>
		</trkpt>
		<trkpt lat="39.4464454650879" lon="2.81634640693665">
			<ele>160.800003051758</ele>
			<time>2014-01-02T11:20:56Z</time>
		</trkpt>
		<trkpt lat="39.4464797973633" lon="2.81638550758362">
			<ele>160.600006103516</ele>
			<time>2014-01-02T11:20:57Z</time>
		</trkpt>
		<trkpt lat="39.4465179443359" lon="2.81642556190491">
			<ele>160.5</ele>
			<time>2014-01-02T11:20:58Z</time>
		</trkpt>
		<trkpt lat="39.4465522766113" lon="2.81647205352783">
			<ele>160.300003051758</ele>
			<time>2014-01-02T11:20:59Z</time>
		</trkpt>
		<trkpt lat="39.446590423584" lon="2.81651973724365">
			<ele>160.100006103516</ele>
			<time>2014-01-02T11:21:00Z</time>
		</trkpt>
		<trkpt lat="39.4466285705566" lon="2.81656837463379">
			<ele>159.899993896484</ele>
			<time>2014-01-02T11:21:01Z</time>
		</trkpt>
		<trkpt lat="39.446662902832" lon="2.81661605834961">
			<ele>160.300003051758</ele>
			<time>2014-01-02T11:21:02Z</time>
		</trkpt>
		<trkpt lat="39.4467010498047" lon="2.81666326522827">
			<ele>160.5</ele>
			<time>2014-01-02T11:21:03Z</time>
		</trkpt>
		<trkpt lat="39.4467315673828" lon="2.81671452522278">
			<ele>160.300003051758</ele>
			<time>2014-01-02T11:21:04Z</time>
		</trkpt>
		<trkpt lat="39.4467582702637" lon="2.81676411628723">
			<ele>160.300003051758</ele>
			<time>2014-01-02T11:21:05Z</time>
		</trkpt>
		<trkpt lat="39.4467887878418" lon="2.81680965423584">
			<ele>160.300003051758</ele>
			<time>2014-01-02T11:21:06Z</time>
		</trkpt>
		<trkpt lat="39.4468231201172" lon="2.81685519218445">
			<ele>160.199996948242</ele>
			<time>2014-01-02T11:21:07Z</time>
		</trkpt>
		<trkpt lat="39.4468574523926" lon="2.81690406799316">
			<ele>160</ele>
			<time>2014-01-02T11:21:08Z</time>
		</trkpt>
		<trkpt lat="39.4468841552734" lon="2.81695079803467">
			<ele>160</ele>
			<time>2014-01-02T11:21:09Z</time>
		</trkpt>
		<trkpt lat="39.4469146728516" lon="2.81699681282043">
			<ele>159.899993896484</ele>
			<time>2014-01-02T11:21:10Z</time>
		</trkpt>
		<trkpt lat="39.4469451904297" lon="2.81704354286194">
			<ele>159.600006103516</ele>
			<time>2014-01-02T11:21:11Z</time>
		</trkpt>
		<trkpt lat="39.4469757080078" lon="2.81708836555481">
			<ele>159.399993896484</ele>
			<time>2014-01-02T11:21:12Z</time>
		</trkpt>
		<trkpt lat="39.4470100402832" lon="2.81713199615479">
			<ele>159.399993896484</ele>
			<time>2014-01-02T11:21:13Z</time>
		</trkpt>
		<trkpt lat="39.4470672607422" lon="2.8172173500061">
			<ele>159.5</ele>
			<time>2014-01-02T11:21:15Z</time>
		</trkpt>
		<trkpt lat="39.4470977783203" lon="2.81726217269897">
			<ele>159.5</ele>
			<time>2014-01-02T11:21:16Z</time>
		</trkpt>
		<trkpt lat="39.4471282958984" lon="2.81731033325195">
			<ele>159.600006103516</ele>
			<time>2014-01-02T11:21:17Z</time>
		</trkpt>
		<trkpt lat="39.4471588134766" lon="2.81735229492188">
			<ele>159.5</ele>
			<time>2014-01-02T11:21:18Z</time>
		</trkpt>
		<trkpt lat="39.4471893310547" lon="2.81739687919617">
			<ele>159.699996948242</ele>
			<time>2014-01-02T11:21:19Z</time>
		</trkpt>
		<trkpt lat="39.4472160339355" lon="2.81744480133057">
			<ele>159.199996948242</ele>
			<time>2014-01-02T11:21:20Z</time>
		</trkpt>
		<trkpt lat="39.4472427368164" lon="2.81749701499939">
			<ele>159</ele>
			<time>2014-01-02T11:21:21Z</time>
		</trkpt>
		<trkpt lat="39.4472618103027" lon="2.817551612854">
			<ele>158.899993896484</ele>
			<time>2014-01-02T11:21:22Z</time>
		</trkpt>
		<trkpt lat="39.4472770690918" lon="2.81760931015015">
			<ele>158.699996948242</ele>
			<time>2014-01-02T11:21:23Z</time>
		</trkpt>
		<trkpt lat="39.4472885131836" lon="2.81766867637634">
			<ele>158.899993896484</ele>
			<time>2014-01-02T11:21:24Z</time>
		</trkpt>
		<trkpt lat="39.4472961425781" lon="2.81773281097412">
			<ele>159.199996948242</ele>
			<time>2014-01-02T11:21:25Z</time>
		</trkpt>
		<trkpt lat="39.4472999572754" lon="2.81779456138611">
			<ele>159.5</ele>
			<time>2014-01-02T11:21:26Z</time>
		</trkpt>
		<trkpt lat="39.4473152160645" lon="2.81790828704834">
			<ele>159.600006103516</ele>
			<time>2014-01-02T11:21:28Z</time>
		</trkpt>
		<trkpt lat="39.447322845459" lon="2.81796526908875">
			<ele>159.199996948242</ele>
			<time>2014-01-02T11:21:29Z</time>
		</trkpt>
		<trkpt lat="39.4473304748535" lon="2.81802463531494">
			<ele>159</ele>
			<time>2014-01-02T11:21:30Z</time>
		</trkpt>
		<trkpt lat="39.4473419189453" lon="2.81808233261108">
			<ele>159</ele>
			<time>2014-01-02T11:21:31Z</time>
		</trkpt>
		<trkpt lat="39.4473495483398" lon="2.81814241409302">
			<ele>159</ele>
			<time>2014-01-02T11:21:32Z</time>
		</trkpt>
		<trkpt lat="39.4473571777344" lon="2.81820225715637">
			<ele>159</ele>
			<time>2014-01-02T11:21:33Z</time>
		</trkpt>
		<trkpt lat="39.4473648071289" lon="2.81826949119568">
			<ele>158.899993896484</ele>
			<time>2014-01-02T11:21:34Z</time>
		</trkpt>
		<trkpt lat="39.4473724365234" lon="2.81833791732788">
			<ele>158.800003051758</ele>
			<time>2014-01-02T11:21:35Z</time>
		</trkpt>
		<trkpt lat="39.4473838806152" lon="2.81840538978577">
			<ele>158.300003051758</ele>
			<time>2014-01-02T11:21:36Z</time>
		</trkpt>
		<trkpt lat="39.4473915100098" lon="2.81847262382507">
			<ele>158.5</ele>
			<time>2014-01-02T11:21:37Z</time>
		</trkpt>
		<trkpt lat="39.4474029541016" lon="2.81854367256165">
			<ele>158.699996948242</ele>
			<time>2014-01-02T11:21:38Z</time>
		</trkpt>
		<trkpt lat="39.4474067687988" lon="2.81861567497253">
			<ele>158.800003051758</ele>
			<time>2014-01-02T11:21:39Z</time>
		</trkpt>
		<trkpt lat="39.4474182128906" lon="2.81868386268616">
			<ele>158.300003051758</ele>
			<time>2014-01-02T11:21:40Z</time>
		</trkpt>
		<trkpt lat="39.4474296569824" lon="2.81876158714294">
			<ele>158.399993896484</ele>
			<time>2014-01-02T11:21:41Z</time>
		</trkpt>
		<trkpt lat="39.447437286377" lon="2.81882858276367">
			<ele>158.199996948242</ele>
			<time>2014-01-02T11:21:42Z</time>
		</trkpt>
		<trkpt lat="39.4474411010742" lon="2.81890201568604">
			<ele>158.5</ele>
			<time>2014-01-02T11:21:43Z</time>
		</trkpt>
		<trkpt lat="39.447437286377" lon="2.81897163391113">
			<ele>158.800003051758</ele>
			<time>2014-01-02T11:21:44Z</time>
		</trkpt>
		<trkpt lat="39.4474220275879" lon="2.81904101371765">
			<ele>159.100006103516</ele>
			<time>2014-01-02T11:21:45Z</time>
		</trkpt>
		<trkpt lat="39.4474067687988" lon="2.8191089630127">
			<ele>159.300003051758</ele>
			<time>2014-01-02T11:21:46Z</time>
		</trkpt>
		<trkpt lat="39.4473762512207" lon="2.81915831565857">
			<ele>159.399993896484</ele>
			<time>2014-01-02T11:21:47Z</time>
		</trkpt>
		<trkpt lat="39.447338104248" lon="2.81921434402466">
			<ele>159.5</ele>
			<time>2014-01-02T11:21:48Z</time>
		</trkpt>
		<trkpt lat="39.4473037719727" lon="2.81926226615906">
			<ele>159.600006103516</ele>
			<time>2014-01-02T11:21:49Z</time>
		</trkpt>
		<trkpt lat="39.4472732543945" lon="2.81931972503662">
			<ele>159.899993896484</ele>
			<time>2014-01-02T11:21:50Z</time>
		</trkpt>
		<trkpt lat="39.4472389221191" lon="2.81937217712402">
			<ele>160</ele>
			<time>2014-01-02T11:21:51Z</time>
		</trkpt>
		<trkpt lat="39.447208404541" lon="2.81942343711853">
			<ele>160.300003051758</ele>
			<time>2014-01-02T11:21:52Z</time>
		</trkpt>
		<trkpt lat="39.4471778869629" lon="2.8194797039032">
			<ele>160.600006103516</ele>
			<time>2014-01-02T11:21:53Z</time>
		</trkpt>
		<trkpt lat="39.4471549987793" lon="2.81953501701355">
			<ele>160.600006103516</ele>
			<time>2014-01-02T11:21:54Z</time>
		</trkpt>
		<trkpt lat="39.4471282958984" lon="2.8195903301239">
			<ele>160.800003051758</ele>
			<time>2014-01-02T11:21:55Z</time>
		</trkpt>
		<trkpt lat="39.4471054077148" lon="2.81964683532715">
			<ele>160.800003051758</ele>
			<time>2014-01-02T11:21:56Z</time>
		</trkpt>
		<trkpt lat="39.4470863342285" lon="2.8197033405304">
			<ele>160.699996948242</ele>
			<time>2014-01-02T11:21:57Z</time>
		</trkpt>
		<trkpt lat="39.4470558166504" lon="2.81976437568665">
			<ele>160.800003051758</ele>
			<time>2014-01-02T11:21:58Z</time>
		</trkpt>
		<trkpt lat="39.4470329284668" lon="2.81982731819153">
			<ele>160.699996948242</ele>
			<time>2014-01-02T11:21:59Z</time>
		</trkpt>
		<trkpt lat="39.4470062255859" lon="2.81988978385925">
			<ele>160.600006103516</ele>
			<time>2014-01-02T11:22:00Z</time>
		</trkpt>
		<trkpt lat="39.4469833374023" lon="2.81995177268982">
			<ele>160.5</ele>
			<time>2014-01-02T11:22:01Z</time>
		</trkpt>
		<trkpt lat="39.446964263916" lon="2.82001066207886">
			<ele>160.5</ele>
			<time>2014-01-02T11:22:02Z</time>
		</trkpt>
		<trkpt lat="39.4469451904297" lon="2.82006978988647">
			<ele>160.5</ele>
			<time>2014-01-02T11:22:03Z</time>
		</trkpt>
		<trkpt lat="39.4469184875488" lon="2.82013154029846">
			<ele>160.699996948242</ele>
			<time>2014-01-02T11:22:04Z</time>
		</trkpt>
		<trkpt lat="39.4468955993652" lon="2.82019233703613">
			<ele>160.699996948242</ele>
			<time>2014-01-02T11:22:05Z</time>
		</trkpt>
		<trkpt lat="39.4468727111816" lon="2.82025408744812">
			<ele>160.899993896484</ele>
			<time>2014-01-02T11:22:06Z</time>
		</trkpt>
		<trkpt lat="39.446849822998" lon="2.8203136920929">
			<ele>160.5</ele>
			<time>2014-01-02T11:22:07Z</time>
		</trkpt>
		<trkpt lat="39.4468269348145" lon="2.82037496566772">
			<ele>160.600006103516</ele>
			<time>2014-01-02T11:22:08Z</time>
		</trkpt>
		<trkpt lat="39.4468002319336" lon="2.8204402923584">
			<ele>160.699996948242</ele>
			<time>2014-01-02T11:22:09Z</time>
		</trkpt>
		<trkpt lat="39.4467964172363" lon="2.82049870491028">
			<ele>161.399993896484</ele>
			<time>2014-01-02T11:22:10Z</time>
		</trkpt>
		<trkpt lat="39.4467887878418" lon="2.82061910629272">
			<ele>161.199996948242</ele>
			<time>2014-01-02T11:22:12Z</time>
		</trkpt>
		<trkpt lat="39.4467887878418" lon="2.82069182395935">
			<ele>161</ele>
			<time>2014-01-02T11:22:13Z</time>
		</trkpt>
		<trkpt lat="39.4467887878418" lon="2.82075881958008">
			<ele>160.699996948242</ele>
			<time>2014-01-02T11:22:14Z</time>
		</trkpt>
		<trkpt lat="39.4467887878418" lon="2.82083320617676">
			<ele>160.699996948242</ele>
			<time>2014-01-02T11:22:15Z</time>
		</trkpt>
		<trkpt lat="39.4467887878418" lon="2.82090497016907">
			<ele>161</ele>
			<time>2014-01-02T11:22:16Z</time>
		</trkpt>
		<trkpt lat="39.4468002319336" lon="2.82096982002258">
			<ele>161.100006103516</ele>
			<time>2014-01-02T11:22:17Z</time>
		</trkpt>
		<trkpt lat="39.4468116760254" lon="2.82102918624878">
			<ele>160.699996948242</ele>
			<time>2014-01-02T11:22:18Z</time>
		</trkpt>
		<trkpt lat="39.4468193054199" lon="2.82109332084656">
			<ele>160.399993896484</ele>
			<time>2014-01-02T11:22:19Z</time>
		</trkpt>
		<trkpt lat="39.4468307495117" lon="2.82115411758423">
			<ele>160.300003051758</ele>
			<time>2014-01-02T11:22:20Z</time>
		</trkpt>
		<trkpt lat="39.4468421936035" lon="2.82121682167053">
			<ele>159.899993896484</ele>
			<time>2014-01-02T11:22:21Z</time>
		</trkpt>
		<trkpt lat="39.4468574523926" lon="2.82127380371094">
			<ele>159.399993896484</ele>
			<time>2014-01-02T11:22:22Z</time>
		</trkpt>
		<trkpt lat="39.4468727111816" lon="2.82133650779724">
			<ele>159.100006103516</ele>
			<time>2014-01-02T11:22:23Z</time>
		</trkpt>
		<trkpt lat="39.4468879699707" lon="2.8213996887207">
			<ele>158.5</ele>
			<time>2014-01-02T11:22:24Z</time>
		</trkpt>
		<trkpt lat="39.4469032287598" lon="2.82146215438843">
			<ele>158.199996948242</ele>
			<time>2014-01-02T11:22:25Z</time>
		</trkpt>
		<trkpt lat="39.4469223022461" lon="2.82152605056763">
			<ele>158.300003051758</ele>
			<time>2014-01-02T11:22:26Z</time>
		</trkpt>
		<trkpt lat="39.4469413757324" lon="2.82159018516541">
			<ele>158.5</ele>
			<time>2014-01-02T11:22:27Z</time>
		</trkpt>
		<trkpt lat="39.4469566345215" lon="2.82164835929871">
			<ele>158.199996948242</ele>
			<time>2014-01-02T11:22:28Z</time>
		</trkpt>
		<trkpt lat="39.4469757080078" lon="2.82171130180359">
			<ele>158.399993896484</ele>
			<time>2014-01-02T11:22:29Z</time>
		</trkpt>
		<trkpt lat="39.4469909667969" lon="2.82176995277405">
			<ele>158.399993896484</ele>
			<time>2014-01-02T11:22:30Z</time>
		</trkpt>
		<trkpt lat="39.4470138549805" lon="2.8218297958374">
			<ele>158</ele>
			<time>2014-01-02T11:22:31Z</time>
		</trkpt>
		<trkpt lat="39.4470367431641" lon="2.82188820838928">
			<ele>157.699996948242</ele>
			<time>2014-01-02T11:22:32Z</time>
		</trkpt>
		<trkpt lat="39.4470596313477" lon="2.821946144104">
			<ele>157.699996948242</ele>
			<time>2014-01-02T11:22:33Z</time>
		</trkpt>
		<trkpt lat="39.4470901489258" lon="2.82199621200562">
			<ele>157.600006103516</ele>
			<time>2014-01-02T11:22:34Z</time>
		</trkpt>
		<trkpt lat="39.4471168518066" lon="2.82205057144165">
			<ele>157.800003051758</ele>
			<time>2014-01-02T11:22:35Z</time>
		</trkpt>
		<trkpt lat="39.447135925293" lon="2.82210779190063">
			<ele>157.600006103516</ele>
			<time>2014-01-02T11:22:36Z</time>
		</trkpt>
		<trkpt lat="39.4471588134766" lon="2.82217001914978">
			<ele>157.5</ele>
			<time>2014-01-02T11:22:37Z</time>
		</trkpt>
		<trkpt lat="39.4471817016602" lon="2.82223272323608">
			<ele>157.300003051758</ele>
			<time>2014-01-02T11:22:38Z</time>
		</trkpt>
		<trkpt lat="39.4472045898438" lon="2.82228922843933">
			<ele>157.800003051758</ele>
			<time>2014-01-02T11:22:39Z</time>
		</trkpt>
		<trkpt lat="39.4472312927246" lon="2.82234168052673">
			<ele>158.300003051758</ele>
			<time>2014-01-02T11:22:40Z</time>
		</trkpt>
		<trkpt lat="39.4472541809082" lon="2.82239675521851">
			<ele>158.300003051758</ele>
			<time>2014-01-02T11:22:41Z</time>
		</trkpt>
		<trkpt lat="39.4472808837891" lon="2.82244849205017">
			<ele>158.399993896484</ele>
			<time>2014-01-02T11:22:42Z</time>
		</trkpt>
		<trkpt lat="39.4473037719727" lon="2.82250165939331">
			<ele>158.5</ele>
			<time>2014-01-02T11:22:43Z</time>
		</trkpt>
		<trkpt lat="39.4473342895508" lon="2.82255458831787">
			<ele>158.5</ele>
			<time>2014-01-02T11:22:44Z</time>
		</trkpt>
		<trkpt lat="39.4473686218262" lon="2.82261109352112">
			<ele>158.800003051758</ele>
			<time>2014-01-02T11:22:45Z</time>
		</trkpt>
		<trkpt lat="39.4474029541016" lon="2.82265877723694">
			<ele>159.399993896484</ele>
			<time>2014-01-02T11:22:46Z</time>
		</trkpt>
		<trkpt lat="39.4474449157715" lon="2.82270503044128">
			<ele>159.800003051758</ele>
			<time>2014-01-02T11:22:48Z</time>
		</trkpt>
		<trkpt lat="39.4474868774414" lon="2.82275080680847">
			<ele>159.800003051758</ele>
			<time>2014-01-02T11:22:48Z</time>
		</trkpt>
		<trkpt lat="39.4475288391113" lon="2.82278728485107">
			<ele>160</ele>
			<time>2014-01-02T11:22:50Z</time>
		</trkpt>
		<trkpt lat="39.4475746154785" lon="2.82282423973083">
			<ele>160</ele>
			<time>2014-01-02T11:22:51Z</time>
		</trkpt>
		<trkpt lat="39.4476165771484" lon="2.82285571098328">
			<ele>160.100006103516</ele>
			<time>2014-01-02T11:22:51Z</time>
		</trkpt>
		<trkpt lat="39.4476585388184" lon="2.82288885116577">
			<ele>160.100006103516</ele>
			<time>2014-01-02T11:22:52Z</time>
		</trkpt>
		<trkpt lat="39.4477005004883" lon="2.82292461395264">
			<ele>160</ele>
			<time>2014-01-02T11:22:53Z</time>
		</trkpt>
		<trkpt lat="39.4477462768555" lon="2.82295727729797">
			<ele>160.399993896484</ele>
			<time>2014-01-02T11:22:54Z</time>
		</trkpt>
		<trkpt lat="39.4477844238281" lon="2.82299518585205">
			<ele>160.199996948242</ele>
			<time>2014-01-02T11:22:55Z</time>
		</trkpt>
		<trkpt lat="39.447826385498" lon="2.82303071022034">
			<ele>160</ele>
			<time>2014-01-02T11:22:56Z</time>
		</trkpt>
		<trkpt lat="39.447868347168" lon="2.82306265830994">
			<ele>160.399993896484</ele>
			<time>2014-01-02T11:22:57Z</time>
		</trkpt>
		<trkpt lat="39.4479064941406" lon="2.82309103012085">
			<ele>160.5</ele>
			<time>2014-01-02T11:22:58Z</time>
		</trkpt>
		<trkpt lat="39.4479446411133" lon="2.82312107086182">
			<ele>160.600006103516</ele>
			<time>2014-01-02T11:22:59Z</time>
		</trkpt>
		<trkpt lat="39.4479866027832" lon="2.82315063476563">
			<ele>160.699996948242</ele>
			<time>2014-01-02T11:23:00Z</time>
		</trkpt>
		<trkpt lat="39.4480514526367" lon="2.82321357727051">
			<ele>160.199996948242</ele>
			<time>2014-01-02T11:23:02Z</time>
		</trkpt>
		<trkpt lat="39.4481010437012" lon="2.82324814796448">
			<ele>160.699996948242</ele>
			<time>2014-01-02T11:23:03Z</time>
		</trkpt>
		<trkpt lat="39.4481735229492" lon="2.82330775260925">
			<ele>160.600006103516</ele>
			<time>2014-01-02T11:23:05Z</time>
		</trkpt>
		<trkpt lat="39.4482154846191" lon="2.82333970069885">
			<ele>160.5</ele>
			<time>2014-01-02T11:23:06Z</time>
		</trkpt>
		<trkpt lat="39.4482574462891" lon="2.82337212562561">
			<ele>160.899993896484</ele>
			<time>2014-01-02T11:23:07Z</time>
		</trkpt>
		<trkpt lat="39.4482917785645" lon="2.82340884208679">
			<ele>161</ele>
			<time>2014-01-02T11:23:08Z</time>
		</trkpt>
		<trkpt lat="39.4483337402344" lon="2.82344269752502">
			<ele>161.5</ele>
			<time>2014-01-02T11:23:09Z</time>
		</trkpt>
		<trkpt lat="39.4483757019043" lon="2.82348203659058">
			<ele>161.699996948242</ele>
			<time>2014-01-02T11:23:10Z</time>
		</trkpt>
		<trkpt lat="39.448413848877" lon="2.82351183891296">
			<ele>161.800003051758</ele>
			<time>2014-01-02T11:23:11Z</time>
		</trkpt>
		<trkpt lat="39.4484558105469" lon="2.82354474067688">
			<ele>161.800003051758</ele>
			<time>2014-01-02T11:23:12Z</time>
		</trkpt>
		<trkpt lat="39.4484939575195" lon="2.82358384132385">
			<ele>161.5</ele>
			<time>2014-01-02T11:23:13Z</time>
		</trkpt>
		<trkpt lat="39.4485702514648" lon="2.82365107536316">
			<ele>161.899993896484</ele>
			<time>2014-01-02T11:23:15Z</time>
		</trkpt>
		<trkpt lat="39.4486465454102" lon="2.82370924949646">
			<ele>161.899993896484</ele>
			<time>2014-01-02T11:23:17Z</time>
		</trkpt>
		<trkpt lat="39.4486885070801" lon="2.82374167442322">
			<ele>162.199996948242</ele>
			<time>2014-01-02T11:23:18Z</time>
		</trkpt>
		<trkpt lat="39.4487266540527" lon="2.82378053665161">
			<ele>162.5</ele>
			<time>2014-01-02T11:23:19Z</time>
		</trkpt>
		<trkpt lat="39.448802947998" lon="2.82384586334229">
			<ele>162.300003051758</ele>
			<time>2014-01-02T11:23:21Z</time>
		</trkpt>
		<trkpt lat="39.4488410949707" lon="2.82388138771057">
			<ele>161.5</ele>
			<time>2014-01-02T11:23:22Z</time>
		</trkpt>
		<trkpt lat="39.4488868713379" lon="2.82391166687012">
			<ele>162</ele>
			<time>2014-01-02T11:23:23Z</time>
		</trkpt>
		<trkpt lat="39.4489593505859" lon="2.82397747039795">
			<ele>162.199996948242</ele>
			<time>2014-01-02T11:23:25Z</time>
		</trkpt>
		<trkpt lat="39.4490356445313" lon="2.82403707504272">
			<ele>162.399993896484</ele>
			<time>2014-01-02T11:23:27Z</time>
		</trkpt>
		<trkpt lat="39.4490776062012" lon="2.82406854629517">
			<ele>162.5</ele>
			<time>2014-01-02T11:23:28Z</time>
		</trkpt>
		<trkpt lat="39.4491500854492" lon="2.82412767410278">
			<ele>163</ele>
			<time>2014-01-02T11:23:30Z</time>
		</trkpt>
		<trkpt lat="39.4492225646973" lon="2.8241925239563">
			<ele>163.300003051758</ele>
			<time>2014-01-02T11:23:32Z</time>
		</trkpt>
		<trkpt lat="39.4492645263672" lon="2.82422590255737">
			<ele>163.5</ele>
			<time>2014-01-02T11:23:33Z</time>
		</trkpt>
		<trkpt lat="39.4492988586426" lon="2.82426261901855">
			<ele>163.800003051758</ele>
			<time>2014-01-02T11:23:34Z</time>
		</trkpt>
		<trkpt lat="39.4493675231934" lon="2.82432889938354">
			<ele>164.100006103516</ele>
			<time>2014-01-02T11:23:36Z</time>
		</trkpt>
		<trkpt lat="39.4494438171387" lon="2.8243989944458">
			<ele>164.5</ele>
			<time>2014-01-02T11:23:38Z</time>
		</trkpt>
		<trkpt lat="39.4494819641113" lon="2.82443451881409">
			<ele>164.5</ele>
			<time>2014-01-02T11:23:39Z</time>
		</trkpt>
		<trkpt lat="39.4495239257813" lon="2.8244640827179">
			<ele>164.699996948242</ele>
			<time>2014-01-02T11:23:40Z</time>
		</trkpt>
		<trkpt lat="39.4496002197266" lon="2.82452368736267">
			<ele>164.800003051758</ele>
			<time>2014-01-02T11:23:42Z</time>
		</trkpt>
		<trkpt lat="39.4496803283691" lon="2.82458257675171">
			<ele>165.300003051758</ele>
			<time>2014-01-02T11:23:44Z</time>
		</trkpt>
		<trkpt lat="39.4497184753418" lon="2.82461309432983">
			<ele>165.399993896484</ele>
			<time>2014-01-02T11:23:45Z</time>
		</trkpt>
		<trkpt lat="39.4497566223145" lon="2.82464551925659">
			<ele>165.600006103516</ele>
			<time>2014-01-02T11:23:46Z</time>
		</trkpt>
		<trkpt lat="39.449836730957" lon="2.82470226287842">
			<ele>165.600006103516</ele>
			<time>2014-01-02T11:23:48Z</time>
		</trkpt>
		<trkpt lat="39.449878692627" lon="2.82473254203796">
			<ele>165.699996948242</ele>
			<time>2014-01-02T11:23:49Z</time>
		</trkpt>
		<trkpt lat="39.4499168395996" lon="2.82476544380188">
			<ele>165.699996948242</ele>
			<time>2014-01-02T11:23:50Z</time>
		</trkpt>
		<trkpt lat="39.4499626159668" lon="2.82479786872864">
			<ele>165.800003051758</ele>
			<time>2014-01-02T11:23:51Z</time>
		</trkpt>
		<trkpt lat="39.4500045776367" lon="2.82482886314392">
			<ele>165.600006103516</ele>
			<time>2014-01-02T11:23:53Z</time>
		</trkpt>
		<trkpt lat="39.450080871582" lon="2.82489705085754">
			<ele>166.100006103516</ele>
			<time>2014-01-02T11:23:54Z</time>
		</trkpt>
		<trkpt lat="39.450122833252" lon="2.82493162155151">
			<ele>166.300003051758</ele>
			<time>2014-01-02T11:23:55Z</time>
		</trkpt>
		<trkpt lat="39.4502029418945" lon="2.82499003410339">
			<ele>166.5</ele>
			<time>2014-01-02T11:23:57Z</time>
		</trkpt>
		<trkpt lat="39.4502792358398" lon="2.82505393028259">
			<ele>166.800003051758</ele>
			<time>2014-01-02T11:23:59Z</time>
		</trkpt>
		<trkpt lat="39.4503173828125" lon="2.82508540153503">
			<ele>166.399993896484</ele>
			<time>2014-01-02T11:24:00Z</time>
		</trkpt>
		<trkpt lat="39.4503936767578" lon="2.82514905929565">
			<ele>166.300003051758</ele>
			<time>2014-01-02T11:24:02Z</time>
		</trkpt>
		<trkpt lat="39.4504737854004" lon="2.82520413398743">
			<ele>166.100006103516</ele>
			<time>2014-01-02T11:24:04Z</time>
		</trkpt>
		<trkpt lat="39.450511932373" lon="2.82523393630981">
			<ele>166.199996948242</ele>
			<time>2014-01-02T11:24:05Z</time>
		</trkpt>
		<trkpt lat="39.4505882263184" lon="2.82530617713928">
			<ele>166</ele>
			<time>2014-01-02T11:24:07Z</time>
		</trkpt>
		<trkpt lat="39.4506645202637" lon="2.82536101341248">
			<ele>165.600006103516</ele>
			<time>2014-01-02T11:24:09Z</time>
		</trkpt>
		<trkpt lat="39.4507026672363" lon="2.82539558410645">
			<ele>165.5</ele>
			<time>2014-01-02T11:24:10Z</time>
		</trkpt>
		<trkpt lat="39.4507446289063" lon="2.82542943954468">
			<ele>165.5</ele>
			<time>2014-01-02T11:24:11Z</time>
		</trkpt>
		<trkpt lat="39.4507865905762" lon="2.82546758651733">
			<ele>165.699996948242</ele>
			<time>2014-01-02T11:24:12Z</time>
		</trkpt>
		<trkpt lat="39.4508438110352" lon="2.82551670074463">
			<ele>165.699996948242</ele>
			<time>2014-01-02T11:24:13Z</time>
		</trkpt>
		<trkpt lat="39.4509124755859" lon="2.82556247711182">
			<ele>166.800003051758</ele>
			<time>2014-01-02T11:24:15Z</time>
		</trkpt>
		<trkpt lat="39.4509735107422" lon="2.82562708854675">
			<ele>166.899993896484</ele>
			<time>2014-01-02T11:24:17Z</time>
		</trkpt>
		<trkpt lat="39.4510498046875" lon="2.82568168640137">
			<ele>166.800003051758</ele>
			<time>2014-01-02T11:24:19Z</time>
		</trkpt>
		<trkpt lat="39.451114654541" lon="2.82573080062866">
			<ele>166.199996948242</ele>
			<time>2014-01-02T11:24:21Z</time>
		</trkpt>
		<trkpt lat="39.4511909484863" lon="2.82579398155212">
			<ele>165.800003051758</ele>
			<time>2014-01-02T11:24:23Z</time>
		</trkpt>
		<trkpt lat="39.4512710571289" lon="2.82584714889526">
			<ele>166.199996948242</ele>
			<time>2014-01-02T11:24:25Z</time>
		</trkpt>
		<trkpt lat="39.4513397216797" lon="2.82591438293457">
			<ele>166.600006103516</ele>
			<time>2014-01-02T11:24:27Z</time>
		</trkpt>
		<trkpt lat="39.4514083862305" lon="2.82597208023071">
			<ele>165.899993896484</ele>
			<time>2014-01-02T11:24:29Z</time>
		</trkpt>
		<trkpt lat="39.451488494873" lon="2.82602739334106">
			<ele>166.300003051758</ele>
			<time>2014-01-02T11:24:31Z</time>
		</trkpt>
		<trkpt lat="39.451545715332" lon="2.82608890533447">
			<ele>166.100006103516</ele>
			<time>2014-01-02T11:24:33Z</time>
		</trkpt>
		<trkpt lat="39.4516220092773" lon="2.82613515853882">
			<ele>166.5</ele>
			<time>2014-01-02T11:24:35Z</time>
		</trkpt>
		<trkpt lat="39.4516983032227" lon="2.82620596885681">
			<ele>166</ele>
			<time>2014-01-02T11:24:37Z</time>
		</trkpt>
		<trkpt lat="39.4517555236816" lon="2.82627582550049">
			<ele>166.5</ele>
			<time>2014-01-02T11:24:39Z</time>
		</trkpt>
		<trkpt lat="39.4518356323242" lon="2.82632660865784">
			<ele>166.899993896484</ele>
			<time>2014-01-02T11:24:41Z</time>
		</trkpt>
		<trkpt lat="39.451904296875" lon="2.82638120651245">
			<ele>166.300003051758</ele>
			<time>2014-01-02T11:24:43Z</time>
		</trkpt>
		<trkpt lat="39.451961517334" lon="2.82644057273865">
			<ele>166.399993896484</ele>
			<time>2014-01-02T11:24:45Z</time>
		</trkpt>
		<trkpt lat="39.4520301818848" lon="2.82649779319763">
			<ele>166.899993896484</ele>
			<time>2014-01-02T11:24:47Z</time>
		</trkpt>
		<trkpt lat="39.4520797729492" lon="2.82651472091675">
			<ele>166.899993896484</ele>
			<time>2014-01-02T11:24:48Z</time>
		</trkpt>
		<trkpt lat="39.4521446228027" lon="2.82656717300415">
			<ele>164.399993896484</ele>
			<time>2014-01-02T11:24:50Z</time>
		</trkpt>
		<trkpt lat="39.452220916748" lon="2.8266282081604">
			<ele>165.699996948242</ele>
			<time>2014-01-02T11:24:52Z</time>
		</trkpt>
		<trkpt lat="39.4522933959961" lon="2.82668709754944">
			<ele>165.100006103516</ele>
			<time>2014-01-02T11:24:54Z</time>
		</trkpt>
		<trkpt lat="39.4523582458496" lon="2.82674860954285">
			<ele>165</ele>
			<time>2014-01-02T11:24:56Z</time>
		</trkpt>
		<trkpt lat="39.4524230957031" lon="2.82680010795593">
			<ele>165.100006103516</ele>
			<time>2014-01-02T11:24:58Z</time>
		</trkpt>
		<trkpt lat="39.4524917602539" lon="2.82686066627502">
			<ele>165.800003051758</ele>
			<time>2014-01-02T11:25:00Z</time>
		</trkpt>
		<trkpt lat="39.4525604248047" lon="2.82691764831543">
			<ele>165.800003051758</ele>
			<time>2014-01-02T11:25:02Z</time>
		</trkpt>
		<trkpt lat="39.45263671875" lon="2.82697057723999">
			<ele>166</ele>
			<time>2014-01-02T11:25:04Z</time>
		</trkpt>
		<trkpt lat="39.452709197998" lon="2.82702422142029">
			<ele>165.899993896484</ele>
			<time>2014-01-02T11:25:06Z</time>
		</trkpt>
		<trkpt lat="39.4527473449707" lon="2.82705616950989">
			<ele>166</ele>
			<time>2014-01-02T11:25:07Z</time>
		</trkpt>
		<trkpt lat="39.4527816772461" lon="2.82710909843445">
			<ele>166</ele>
			<time>2014-01-02T11:25:09Z</time>
		</trkpt>
		<trkpt lat="39.4528465270996" lon="2.82717299461365">
			<ele>165.800003051758</ele>
			<time>2014-01-02T11:25:11Z</time>
		</trkpt>
		<trkpt lat="39.4529113769531" lon="2.8272430896759">
			<ele>163.800003051758</ele>
			<time>2014-01-02T11:25:13Z</time>
		</trkpt>
		<trkpt lat="39.452953338623" lon="2.8272705078125">
			<ele>163</ele>
			<time>2014-01-02T11:25:14Z</time>
		</trkpt>
		<trkpt lat="39.452995300293" lon="2.82730531692505">
			<ele>162.699996948242</ele>
			<time>2014-01-02T11:25:15Z</time>
		</trkpt>
		<trkpt lat="39.4530639648438" lon="2.82737159729004">
			<ele>162.100006103516</ele>
			<time>2014-01-02T11:25:17Z</time>
		</trkpt>
		<trkpt lat="39.4531402587891" lon="2.82743835449219">
			<ele>162</ele>
			<time>2014-01-02T11:25:19Z</time>
		</trkpt>
		<trkpt lat="39.4531745910645" lon="2.82748126983643">
			<ele>161.5</ele>
			<time>2014-01-02T11:25:20Z</time>
		</trkpt>
		<trkpt lat="39.4532432556152" lon="2.82753157615662">
			<ele>161.199996948242</ele>
			<time>2014-01-02T11:25:22Z</time>
		</trkpt>
		<trkpt lat="39.4533195495605" lon="2.8275933265686">
			<ele>161.699996948242</ele>
			<time>2014-01-02T11:25:24Z</time>
		</trkpt>
		<trkpt lat="39.4533843994141" lon="2.82765102386475">
			<ele>162.100006103516</ele>
			<time>2014-01-02T11:25:26Z</time>
		</trkpt>
		<trkpt lat="39.4534530639648" lon="2.827721118927">
			<ele>162</ele>
			<time>2014-01-02T11:25:28Z</time>
		</trkpt>
		<trkpt lat="39.4535255432129" lon="2.82778143882751">
			<ele>162.300003051758</ele>
			<time>2014-01-02T11:25:30Z</time>
		</trkpt>
		<trkpt lat="39.4535980224609" lon="2.82784819602966">
			<ele>161.399993896484</ele>
			<time>2014-01-02T11:25:32Z</time>
		</trkpt>
		<trkpt lat="39.453670501709" lon="2.82791662216187">
			<ele>161.300003051758</ele>
			<time>2014-01-02T11:25:34Z</time>
		</trkpt>
		<trkpt lat="39.453742980957" lon="2.82797312736511">
			<ele>161.300003051758</ele>
			<time>2014-01-02T11:25:36Z</time>
		</trkpt>
		<trkpt lat="39.4538154602051" lon="2.82802700996399">
			<ele>161.399993896484</ele>
			<time>2014-01-02T11:25:38Z</time>
		</trkpt>
		<trkpt lat="39.4538841247559" lon="2.82809066772461">
			<ele>160.699996948242</ele>
			<time>2014-01-02T11:25:40Z</time>
		</trkpt>
		<trkpt lat="39.4539489746094" lon="2.82814741134644">
			<ele>160.899993896484</ele>
			<time>2014-01-02T11:25:42Z</time>
		</trkpt>
		<trkpt lat="39.453987121582" lon="2.82818555831909">
			<ele>160.600006103516</ele>
			<time>2014-01-02T11:25:43Z</time>
		</trkpt>
		<trkpt lat="39.4540557861328" lon="2.82824540138245">
			<ele>161.199996948242</ele>
			<time>2014-01-02T11:25:45Z</time>
		</trkpt>
		<trkpt lat="39.4540939331055" lon="2.82827806472778">
			<ele>160.800003051758</ele>
			<time>2014-01-02T11:25:46Z</time>
		</trkpt>
		<trkpt lat="39.454158782959" lon="2.82834124565125">
			<ele>160.800003051758</ele>
			<time>2014-01-02T11:25:48Z</time>
		</trkpt>
		<trkpt lat="39.454231262207" lon="2.82840514183044">
			<ele>160.5</ele>
			<time>2014-01-02T11:25:50Z</time>
		</trkpt>
		<trkpt lat="39.4542655944824" lon="2.82844614982605">
			<ele>159.5</ele>
			<time>2014-01-02T11:25:51Z</time>
		</trkpt>
		<trkpt lat="39.4543380737305" lon="2.82850742340088">
			<ele>159.699996948242</ele>
			<time>2014-01-02T11:25:53Z</time>
		</trkpt>
		<trkpt lat="39.4544448852539" lon="2.82860231399536">
			<ele>160.199996948242</ele>
			<time>2014-01-02T11:25:57Z</time>
		</trkpt>
		<trkpt lat="39.4545135498047" lon="2.82866764068604">
			<ele>160.600006103516</ele>
			<time>2014-01-02T11:25:58Z</time>
		</trkpt>
		<trkpt lat="39.45458984375" lon="2.82873106002808">
			<ele>161.300003051758</ele>
			<time>2014-01-02T11:26:00Z</time>
		</trkpt>
		<trkpt lat="39.454662322998" lon="2.82880330085754">
			<ele>162.399993896484</ele>
			<time>2014-01-02T11:26:02Z</time>
		</trkpt>
		<trkpt lat="39.4547004699707" lon="2.82883739471436">
			<ele>162.699996948242</ele>
			<time>2014-01-02T11:26:03Z</time>
		</trkpt>
		<trkpt lat="39.4547386169434" lon="2.82887554168701">
			<ele>162.800003051758</ele>
			<time>2014-01-02T11:26:04Z</time>
		</trkpt>
		<trkpt lat="39.4547843933105" lon="2.82890868186951">
			<ele>163.399993896484</ele>
			<time>2014-01-02T11:26:05Z</time>
		</trkpt>
		<trkpt lat="39.4548225402832" lon="2.82894039154053">
			<ele>164.100006103516</ele>
			<time>2014-01-02T11:26:06Z</time>
		</trkpt>
		<trkpt lat="39.4548988342285" lon="2.82900142669678">
			<ele>165</ele>
			<time>2014-01-02T11:26:08Z</time>
		</trkpt>
		<trkpt lat="39.4549713134766" lon="2.82906794548035">
			<ele>165.800003051758</ele>
			<time>2014-01-02T11:26:10Z</time>
		</trkpt>
		<trkpt lat="39.4550399780273" lon="2.8291289806366">
			<ele>166.699996948242</ele>
			<time>2014-01-02T11:26:12Z</time>
		</trkpt>
		<trkpt lat="39.4551124572754" lon="2.82919073104858">
			<ele>167.199996948242</ele>
			<time>2014-01-02T11:26:14Z</time>
		</trkpt>
		<trkpt lat="39.4551887512207" lon="2.82925343513489">
			<ele>167.699996948242</ele>
			<time>2014-01-02T11:26:16Z</time>
		</trkpt>
		<trkpt lat="39.4552612304688" lon="2.82931876182556">
			<ele>167.899993896484</ele>
			<time>2014-01-02T11:26:18Z</time>
		</trkpt>
		<trkpt lat="39.4553375244141" lon="2.82938098907471">
			<ele>168.100006103516</ele>
			<time>2014-01-02T11:26:20Z</time>
		</trkpt>
		<trkpt lat="39.4553756713867" lon="2.82941102981567">
			<ele>168</ele>
			<time>2014-01-02T11:26:21Z</time>
		</trkpt>
		<trkpt lat="39.4554138183594" lon="2.8294460773468">
			<ele>168.199996948242</ele>
			<time>2014-01-02T11:26:22Z</time>
		</trkpt>
		<trkpt lat="39.455451965332" lon="2.82947278022766">
			<ele>168.399993896484</ele>
			<time>2014-01-02T11:26:23Z</time>
		</trkpt>
		<trkpt lat="39.4554977416992" lon="2.82950472831726">
			<ele>168.300003051758</ele>
			<time>2014-01-02T11:26:24Z</time>
		</trkpt>
		<trkpt lat="39.4555320739746" lon="2.82954668998718">
			<ele>168.399993896484</ele>
			<time>2014-01-02T11:26:25Z</time>
		</trkpt>
		<trkpt lat="39.4556007385254" lon="2.82959985733032">
			<ele>168.800003051758</ele>
			<time>2014-01-02T11:26:27Z</time>
		</trkpt>
		<trkpt lat="39.4556732177734" lon="2.82965731620789">
			<ele>168.5</ele>
			<time>2014-01-02T11:26:29Z</time>
		</trkpt>
		<trkpt lat="39.4557075500488" lon="2.82969307899475">
			<ele>168.100006103516</ele>
			<time>2014-01-02T11:26:30Z</time>
		</trkpt>
		<trkpt lat="39.4557800292969" lon="2.82975053787231">
			<ele>167.600006103516</ele>
			<time>2014-01-02T11:26:32Z</time>
		</trkpt>
		<trkpt lat="39.4558410644531" lon="2.82981491088867">
			<ele>167.699996948242</ele>
			<time>2014-01-02T11:26:34Z</time>
		</trkpt>
		<trkpt lat="39.4559097290039" lon="2.82987594604492">
			<ele>167.600006103516</ele>
			<time>2014-01-02T11:26:36Z</time>
		</trkpt>
		<trkpt lat="39.4559783935547" lon="2.82993984222412">
			<ele>167.300003051758</ele>
			<time>2014-01-02T11:26:38Z</time>
		</trkpt>
		<trkpt lat="39.4560470581055" lon="2.83000373840332">
			<ele>167.199996948242</ele>
			<time>2014-01-02T11:26:40Z</time>
		</trkpt>
		<trkpt lat="39.4561157226563" lon="2.83006191253662">
			<ele>167</ele>
			<time>2014-01-02T11:26:42Z</time>
		</trkpt>
		<trkpt lat="39.4561767578125" lon="2.83011937141418">
			<ele>167</ele>
			<time>2014-01-02T11:26:44Z</time>
		</trkpt>
		<trkpt lat="39.4562492370605" lon="2.83017754554749">
			<ele>167.600006103516</ele>
			<time>2014-01-02T11:26:46Z</time>
		</trkpt>
		<trkpt lat="39.4563179016113" lon="2.83023571968079">
			<ele>167.5</ele>
			<time>2014-01-02T11:26:48Z</time>
		</trkpt>
		<trkpt lat="39.4563865661621" lon="2.83028817176819">
			<ele>168.199996948242</ele>
			<time>2014-01-02T11:26:50Z</time>
		</trkpt>
		<trkpt lat="39.4564552307129" lon="2.83035039901733">
			<ele>167.5</ele>
			<time>2014-01-02T11:26:52Z</time>
		</trkpt>
		<trkpt lat="39.4565315246582" lon="2.83041071891785">
			<ele>166.600006103516</ele>
			<time>2014-01-02T11:26:54Z</time>
		</trkpt>
		<trkpt lat="39.4566078186035" lon="2.83046889305115">
			<ele>166.600006103516</ele>
			<time>2014-01-02T11:26:56Z</time>
		</trkpt>
		<trkpt lat="39.4566688537598" lon="2.83053088188171">
			<ele>167.199996948242</ele>
			<time>2014-01-02T11:26:58Z</time>
		</trkpt>
		<trkpt lat="39.4567031860352" lon="2.8305652141571">
			<ele>167.699996948242</ele>
			<time>2014-01-02T11:26:59Z</time>
		</trkpt>
		<trkpt lat="39.4567794799805" lon="2.83063244819641">
			<ele>168</ele>
			<time>2014-01-02T11:27:01Z</time>
		</trkpt>
		<trkpt lat="39.4568481445313" lon="2.83069539070129">
			<ele>168.399993896484</ele>
			<time>2014-01-02T11:27:03Z</time>
		</trkpt>
		<trkpt lat="39.456916809082" lon="2.83075881004333">
			<ele>168.699996948242</ele>
			<time>2014-01-02T11:27:05Z</time>
		</trkpt>
		<trkpt lat="39.4569892883301" lon="2.83081769943237">
			<ele>168.699996948242</ele>
			<time>2014-01-02T11:27:07Z</time>
		</trkpt>
		<trkpt lat="39.4570579528809" lon="2.83088135719299">
			<ele>168.699996948242</ele>
			<time>2014-01-02T11:27:09Z</time>
		</trkpt>
		<trkpt lat="39.4571228027344" lon="2.83094334602356">
			<ele>168.699996948242</ele>
			<time>2014-01-02T11:27:11Z</time>
		</trkpt>
		<trkpt lat="39.4571914672852" lon="2.83100175857544">
			<ele>169</ele>
			<time>2014-01-02T11:27:13Z</time>
		</trkpt>
		<trkpt lat="39.4572601318359" lon="2.83106017112732">
			<ele>168.600006103516</ele>
			<time>2014-01-02T11:27:15Z</time>
		</trkpt>
		<trkpt lat="39.4573249816895" lon="2.8311185836792">
			<ele>168.399993896484</ele>
			<time>2014-01-02T11:27:17Z</time>
		</trkpt>
		<trkpt lat="39.4573936462402" lon="2.8311767578125">
			<ele>167.899993896484</ele>
			<time>2014-01-02T11:27:19Z</time>
		</trkpt>
		<trkpt lat="39.4574546813965" lon="2.83123421669006">
			<ele>168.100006103516</ele>
			<time>2014-01-02T11:27:21Z</time>
		</trkpt>
		<trkpt lat="39.4575119018555" lon="2.83129024505615">
			<ele>168.199996948242</ele>
			<time>2014-01-02T11:27:23Z</time>
		</trkpt>
		<trkpt lat="39.4575614929199" lon="2.83133888244629">
			<ele>168.699996948242</ele>
			<time>2014-01-02T11:27:25Z</time>
		</trkpt>
		<trkpt lat="39.4575996398926" lon="2.83139634132385">
			<ele>168.399993896484</ele>
			<time>2014-01-02T11:27:27Z</time>
		</trkpt>
		<trkpt lat="39.4575653076172" lon="2.83143782615662">
			<ele>168.199996948242</ele>
			<time>2014-01-02T11:28:16Z</time>
		</trkpt>
		<trkpt lat="39.45751953125" lon="2.83146739006042">
			<ele>168.100006103516</ele>
			<time>2014-01-02T11:28:19Z</time>
		</trkpt>
		<trkpt lat="39.4574584960938" lon="2.8315007686615">
			<ele>168.399993896484</ele>
			<time>2014-01-02T11:28:22Z</time>
		</trkpt>
		<trkpt lat="39.4574089050293" lon="2.83154249191284">
			<ele>168.699996948242</ele>
			<time>2014-01-02T11:28:24Z</time>
		</trkpt>
		<trkpt lat="39.4573554992676" lon="2.83157753944397">
			<ele>169</ele>
			<time>2014-01-02T11:28:26Z</time>
		</trkpt>
		<trkpt lat="39.4572982788086" lon="2.8316113948822">
			<ele>169</ele>
			<time>2014-01-02T11:28:28Z</time>
		</trkpt>
		<trkpt lat="39.4572410583496" lon="2.83165311813354">
			<ele>169.600006103516</ele>
			<time>2014-01-02T11:28:30Z</time>
		</trkpt>
		<trkpt lat="39.4571762084961" lon="2.8316912651062">
			<ele>168.800003051758</ele>
			<time>2014-01-02T11:28:32Z</time>
		</trkpt>
		<trkpt lat="39.4571151733398" lon="2.83173227310181">
			<ele>168.100006103516</ele>
			<time>2014-01-02T11:28:34Z</time>
		</trkpt>
		<trkpt lat="39.4570541381836" lon="2.83179235458374">
			<ele>169.600006103516</ele>
			<time>2014-01-02T11:28:36Z</time>
		</trkpt>
		<trkpt lat="39.4569892883301" lon="2.83184480667114">
			<ele>168.899993896484</ele>
			<time>2014-01-02T11:28:38Z</time>
		</trkpt>
		<trkpt lat="39.4569320678711" lon="2.83190870285034">
			<ele>169</ele>
			<time>2014-01-02T11:28:40Z</time>
		</trkpt>
		<trkpt lat="39.4568748474121" lon="2.83196830749512">
			<ele>169.300003051758</ele>
			<time>2014-01-02T11:28:42Z</time>
		</trkpt>
		<trkpt lat="39.4568138122559" lon="2.83203196525574">
			<ele>169.5</ele>
			<time>2014-01-02T11:28:44Z</time>
		</trkpt>
		<trkpt lat="39.4567642211914" lon="2.83209323883057">
			<ele>167.899993896484</ele>
			<time>2014-01-02T11:28:46Z</time>
		</trkpt>
		<trkpt lat="39.456714630127" lon="2.83218359947205">
			<ele>167.5</ele>
			<time>2014-01-02T11:28:48Z</time>
		</trkpt>
		<trkpt lat="39.4566612243652" lon="2.8322696685791">
			<ele>168.100006103516</ele>
			<time>2014-01-02T11:28:50Z</time>
		</trkpt>
		<trkpt lat="39.4566040039063" lon="2.83236193656921">
			<ele>167.600006103516</ele>
			<time>2014-01-02T11:28:52Z</time>
		</trkpt>
		<trkpt lat="39.4565773010254" lon="2.83240962028503">
			<ele>167.800003051758</ele>
			<time>2014-01-02T11:28:53Z</time>
		</trkpt>
		<trkpt lat="39.4565505981445" lon="2.83245444297791">
			<ele>167.800003051758</ele>
			<time>2014-01-02T11:28:54Z</time>
		</trkpt>
		<trkpt lat="39.4564895629883" lon="2.83253622055054">
			<ele>167.600006103516</ele>
			<time>2014-01-02T11:28:56Z</time>
		</trkpt>
		<trkpt lat="39.4564437866211" lon="2.83261847496033">
			<ele>166.800003051758</ele>
			<time>2014-01-02T11:28:58Z</time>
		</trkpt>
		<trkpt lat="39.456413269043" lon="2.83266854286194">
			<ele>167.800003051758</ele>
			<time>2014-01-02T11:28:59Z</time>
		</trkpt>
		<trkpt lat="39.4563598632813" lon="2.832763671875">
			<ele>167.899993896484</ele>
			<time>2014-01-02T11:29:01Z</time>
		</trkpt>
		<trkpt lat="39.4563102722168" lon="2.83285069465637">
			<ele>167.399993896484</ele>
			<time>2014-01-02T11:29:03Z</time>
		</trkpt>
		<trkpt lat="39.4562606811523" lon="2.83294224739075">
			<ele>166.600006103516</ele>
			<time>2014-01-02T11:29:05Z</time>
		</trkpt>
		<trkpt lat="39.4562339782715" lon="2.83299016952515">
			<ele>166.5</ele>
			<time>2014-01-02T11:29:06Z</time>
		</trkpt>
		<trkpt lat="39.4561805725098" lon="2.83308696746826">
			<ele>166.300003051758</ele>
			<time>2014-01-02T11:29:08Z</time>
		</trkpt>
		<trkpt lat="39.4561309814453" lon="2.83317303657532">
			<ele>166.199996948242</ele>
			<time>2014-01-02T11:29:10Z</time>
		</trkpt>
		<trkpt lat="39.4560737609863" lon="2.83326649665833">
			<ele>166</ele>
			<time>2014-01-02T11:29:12Z</time>
		</trkpt>
		<trkpt lat="39.4560279846191" lon="2.83335876464844">
			<ele>166.199996948242</ele>
			<time>2014-01-02T11:29:14Z</time>
		</trkpt>
		<trkpt lat="39.455997467041" lon="2.8334105014801">
			<ele>166.5</ele>
			<time>2014-01-02T11:29:15Z</time>
		</trkpt>
		<trkpt lat="39.4559669494629" lon="2.83346033096313">
			<ele>166.399993896484</ele>
			<time>2014-01-02T11:29:16Z</time>
		</trkpt>
		<trkpt lat="39.4559326171875" lon="2.83350729942322">
			<ele>165.300003051758</ele>
			<time>2014-01-02T11:29:17Z</time>
		</trkpt>
		<trkpt lat="39.4559020996094" lon="2.83355832099915">
			<ele>165.100006103516</ele>
			<time>2014-01-02T11:29:18Z</time>
		</trkpt>
		<trkpt lat="39.4558639526367" lon="2.83361124992371">
			<ele>165.100006103516</ele>
			<time>2014-01-02T11:29:19Z</time>
		</trkpt>
		<trkpt lat="39.4558334350586" lon="2.83366107940674">
			<ele>165</ele>
			<time>2014-01-02T11:29:20Z</time>
		</trkpt>
		<trkpt lat="39.455810546875" lon="2.83371210098267">
			<ele>164.899993896484</ele>
			<time>2014-01-02T11:29:21Z</time>
		</trkpt>
		<trkpt lat="39.4557838439941" lon="2.83376145362854">
			<ele>165.100006103516</ele>
			<time>2014-01-02T11:29:22Z</time>
		</trkpt>
		<trkpt lat="39.455738067627" lon="2.83385682106018">
			<ele>165.399993896484</ele>
			<time>2014-01-02T11:29:24Z</time>
		</trkpt>
		<trkpt lat="39.4557113647461" lon="2.83391404151917">
			<ele>165.600006103516</ele>
			<time>2014-01-02T11:29:25Z</time>
		</trkpt>
		<trkpt lat="39.4556846618652" lon="2.83396553993225">
			<ele>165.699996948242</ele>
			<time>2014-01-02T11:29:26Z</time>
		</trkpt>
		<trkpt lat="39.4556312561035" lon="2.83405709266663">
			<ele>165.899993896484</ele>
			<time>2014-01-02T11:29:28Z</time>
		</trkpt>
		<trkpt lat="39.4555778503418" lon="2.83414888381958">
			<ele>165.600006103516</ele>
			<time>2014-01-02T11:29:30Z</time>
		</trkpt>
		<trkpt lat="39.4555282592773" lon="2.83423924446106">
			<ele>165.699996948242</ele>
			<time>2014-01-02T11:29:32Z</time>
		</trkpt>
		<trkpt lat="39.4554710388184" lon="2.8343288898468">
			<ele>166</ele>
			<time>2014-01-02T11:29:34Z</time>
		</trkpt>
		<trkpt lat="39.4554443359375" lon="2.83437490463257">
			<ele>166.100006103516</ele>
			<time>2014-01-02T11:29:35Z</time>
		</trkpt>
		<trkpt lat="39.4553871154785" lon="2.83446574211121">
			<ele>166</ele>
			<time>2014-01-02T11:29:37Z</time>
		</trkpt>
		<trkpt lat="39.4553337097168" lon="2.83455729484558">
			<ele>166.100006103516</ele>
			<time>2014-01-02T11:29:40Z</time>
		</trkpt>
		<trkpt lat="39.4552879333496" lon="2.83465099334717">
			<ele>166.100006103516</ele>
			<time>2014-01-02T11:29:41Z</time>
		</trkpt>
		<trkpt lat="39.4552345275879" lon="2.83474087715149">
			<ele>166.600006103516</ele>
			<time>2014-01-02T11:29:43Z</time>
		</trkpt>
		<trkpt lat="39.4552040100098" lon="2.83478736877441">
			<ele>167.199996948242</ele>
			<time>2014-01-02T11:29:44Z</time>
		</trkpt>
		<trkpt lat="39.4551582336426" lon="2.83488082885742">
			<ele>167.100006103516</ele>
			<time>2014-01-02T11:29:46Z</time>
		</trkpt>
		<trkpt lat="39.4551200866699" lon="2.83498239517212">
			<ele>167.300003051758</ele>
			<time>2014-01-02T11:29:48Z</time>
		</trkpt>
		<trkpt lat="39.4550933837891" lon="2.83508563041687">
			<ele>167.5</ele>
			<time>2014-01-02T11:29:50Z</time>
		</trkpt>
		<trkpt lat="39.4550743103027" lon="2.8351902961731">
			<ele>167.5</ele>
			<time>2014-01-02T11:29:52Z</time>
		</trkpt>
		<trkpt lat="39.4550514221191" lon="2.83528828620911">
			<ele>167.800003051758</ele>
			<time>2014-01-02T11:29:54Z</time>
		</trkpt>
		<trkpt lat="39.4550285339355" lon="2.83538579940796">
			<ele>167.800003051758</ele>
			<time>2014-01-02T11:29:56Z</time>
		</trkpt>
		<trkpt lat="39.4550018310547" lon="2.83547115325928">
			<ele>167.300003051758</ele>
			<time>2014-01-02T11:29:58Z</time>
		</trkpt>
		<trkpt lat="39.4549560546875" lon="2.83555006980896">
			<ele>167</ele>
			<time>2014-01-02T11:30:00Z</time>
		</trkpt>
		<trkpt lat="39.4549140930176" lon="2.83562874794006">
			<ele>166.600006103516</ele>
			<time>2014-01-02T11:30:02Z</time>
		</trkpt>
		<trkpt lat="39.4548683166504" lon="2.8357150554657">
			<ele>166</ele>
			<time>2014-01-02T11:30:04Z</time>
		</trkpt>
		<trkpt lat="39.4548149108887" lon="2.83577919006348">
			<ele>165.100006103516</ele>
			<time>2014-01-02T11:30:06Z</time>
		</trkpt>
		<trkpt lat="39.4547729492188" lon="2.8358519077301">
			<ele>165.300003051758</ele>
			<time>2014-01-02T11:30:08Z</time>
		</trkpt>
		<trkpt lat="39.4547386169434" lon="2.83592343330383">
			<ele>164.899993896484</ele>
			<time>2014-01-02T11:30:10Z</time>
		</trkpt>
		<trkpt lat="39.4547004699707" lon="2.83599853515625">
			<ele>164.399993896484</ele>
			<time>2014-01-02T11:30:12Z</time>
		</trkpt>
		<trkpt lat="39.4546585083008" lon="2.83608984947205">
			<ele>164.100006103516</ele>
			<time>2014-01-02T11:30:14Z</time>
		</trkpt>
		<trkpt lat="39.4546241760254" lon="2.83617162704468">
			<ele>164.399993896484</ele>
			<time>2014-01-02T11:30:16Z</time>
		</trkpt>
		<trkpt lat="39.4545860290527" lon="2.83625435829163">
			<ele>164.5</ele>
			<time>2014-01-02T11:30:18Z</time>
		</trkpt>
		<trkpt lat="39.4545440673828" lon="2.83633470535278">
			<ele>164.199996948242</ele>
			<time>2014-01-02T11:30:20Z</time>
		</trkpt>
		<trkpt lat="39.4545021057129" lon="2.83642435073853">
			<ele>163.800003051758</ele>
			<time>2014-01-02T11:30:22Z</time>
		</trkpt>
		<trkpt lat="39.4544525146484" lon="2.83651947975159">
			<ele>163.5</ele>
			<time>2014-01-02T11:30:24Z</time>
		</trkpt>
		<trkpt lat="39.4544258117676" lon="2.83657026290894">
			<ele>164.300003051758</ele>
			<time>2014-01-02T11:30:25Z</time>
		</trkpt>
		<trkpt lat="39.4543762207031" lon="2.83666038513184">
			<ele>163</ele>
			<time>2014-01-02T11:30:27Z</time>
		</trkpt>
		<trkpt lat="39.4543495178223" lon="2.83670806884766">
			<ele>163.199996948242</ele>
			<time>2014-01-02T11:30:28Z</time>
		</trkpt>
		<trkpt lat="39.4542999267578" lon="2.83680009841919">
			<ele>163.600006103516</ele>
			<time>2014-01-02T11:30:30Z</time>
		</trkpt>
		<trkpt lat="39.454273223877" lon="2.83685183525085">
			<ele>163.600006103516</ele>
			<time>2014-01-02T11:30:31Z</time>
		</trkpt>
		<trkpt lat="39.4542465209961" lon="2.83690333366394">
			<ele>163.699996948242</ele>
			<time>2014-01-02T11:30:32Z</time>
		</trkpt>
		<trkpt lat="39.4541931152344" lon="2.83699584007263">
			<ele>163.600006103516</ele>
			<time>2014-01-02T11:30:34Z</time>
		</trkpt>
		<trkpt lat="39.4541435241699" lon="2.83709001541138">
			<ele>163.800003051758</ele>
			<time>2014-01-02T11:30:36Z</time>
		</trkpt>
		<trkpt lat="39.4540939331055" lon="2.83718347549438">
			<ele>162.600006103516</ele>
			<time>2014-01-02T11:30:38Z</time>
		</trkpt>
		<trkpt lat="39.4540405273438" lon="2.83728313446045">
			<ele>162.399993896484</ele>
			<time>2014-01-02T11:30:40Z</time>
		</trkpt>
		<trkpt lat="39.4540100097656" lon="2.83733487129211">
			<ele>162.5</ele>
			<time>2014-01-02T11:30:41Z</time>
		</trkpt>
		<trkpt lat="39.4539794921875" lon="2.83737897872925">
			<ele>162.399993896484</ele>
			<time>2014-01-02T11:30:42Z</time>
		</trkpt>
		<trkpt lat="39.4539527893066" lon="2.83743166923523">
			<ele>161.899993896484</ele>
			<time>2014-01-02T11:30:43Z</time>
		</trkpt>
		<trkpt lat="39.4539260864258" lon="2.83748316764832">
			<ele>161.899993896484</ele>
			<time>2014-01-02T11:30:44Z</time>
		</trkpt>
		<trkpt lat="39.4538955688477" lon="2.83753991127014">
			<ele>161.699996948242</ele>
			<time>2014-01-02T11:30:45Z</time>
		</trkpt>
		<trkpt lat="39.4538650512695" lon="2.8375928401947">
			<ele>161.699996948242</ele>
			<time>2014-01-02T11:30:46Z</time>
		</trkpt>
		<trkpt lat="39.4538383483887" lon="2.8376452922821">
			<ele>161.800003051758</ele>
			<time>2014-01-02T11:30:47Z</time>
		</trkpt>
		<trkpt lat="39.4538116455078" lon="2.83769536018372">
			<ele>160</ele>
			<time>2014-01-02T11:30:48Z</time>
		</trkpt>
		<trkpt lat="39.4537811279297" lon="2.83774590492249">
			<ele>159.699996948242</ele>
			<time>2014-01-02T11:30:49Z</time>
		</trkpt>
		<trkpt lat="39.4537582397461" lon="2.83779525756836">
			<ele>159.800003051758</ele>
			<time>2014-01-02T11:30:50Z</time>
		</trkpt>
		<trkpt lat="39.4537239074707" lon="2.83785200119019">
			<ele>160</ele>
			<time>2014-01-02T11:30:51Z</time>
		</trkpt>
		<trkpt lat="39.4537010192871" lon="2.8379008769989">
			<ele>160.399993896484</ele>
			<time>2014-01-02T11:30:52Z</time>
		</trkpt>
		<trkpt lat="39.4536628723145" lon="2.83794546127319">
			<ele>160.800003051758</ele>
			<time>2014-01-02T11:30:53Z</time>
		</trkpt>
		<trkpt lat="39.4536170959473" lon="2.83797764778137">
			<ele>160.600006103516</ele>
			<time>2014-01-02T11:30:54Z</time>
		</trkpt>
		<trkpt lat="39.4535713195801" lon="2.83800172805786">
			<ele>160.899993896484</ele>
			<time>2014-01-02T11:30:55Z</time>
		</trkpt>
		<trkpt lat="39.4535255432129" lon="2.83802056312561">
			<ele>161.399993896484</ele>
			<time>2014-01-02T11:30:56Z</time>
		</trkpt>
		<trkpt lat="39.4534797668457" lon="2.83804106712341">
			<ele>161.800003051758</ele>
			<time>2014-01-02T11:30:57Z</time>
		</trkpt>
		<trkpt lat="39.4534339904785" lon="2.83806014060974">
			<ele>162.199996948242</ele>
			<time>2014-01-02T11:30:58Z</time>
		</trkpt>
		<trkpt lat="39.4533882141113" lon="2.83807897567749">
			<ele>162.699996948242</ele>
			<time>2014-01-02T11:30:59Z</time>
		</trkpt>
		<trkpt lat="39.4533386230469" lon="2.83809900283813">
			<ele>163.399993896484</ele>
			<time>2014-01-02T11:31:00Z</time>
		</trkpt>
		<trkpt lat="39.453296661377" lon="2.8381199836731">
			<ele>163.600006103516</ele>
			<time>2014-01-02T11:31:01Z</time>
		</trkpt>
		<trkpt lat="39.4532508850098" lon="2.83814072608948">
			<ele>163.699996948242</ele>
			<time>2014-01-02T11:31:02Z</time>
		</trkpt>
		<trkpt lat="39.4532012939453" lon="2.83816385269165">
			<ele>163.600006103516</ele>
			<time>2014-01-02T11:31:03Z</time>
		</trkpt>
		<trkpt lat="39.4531555175781" lon="2.83818602561951">
			<ele>163.5</ele>
			<time>2014-01-02T11:31:04Z</time>
		</trkpt>
		<trkpt lat="39.4531097412109" lon="2.83820867538452">
			<ele>163.600006103516</ele>
			<time>2014-01-02T11:31:05Z</time>
		</trkpt>
		<trkpt lat="39.4530601501465" lon="2.83822679519653">
			<ele>163.800003051758</ele>
			<time>2014-01-02T11:31:06Z</time>
		</trkpt>
		<trkpt lat="39.4530143737793" lon="2.8382465839386">
			<ele>164.399993896484</ele>
			<time>2014-01-02T11:31:07Z</time>
		</trkpt>
		<trkpt lat="39.4529685974121" lon="2.83826994895935">
			<ele>164.399993896484</ele>
			<time>2014-01-02T11:31:08Z</time>
		</trkpt>
		<trkpt lat="39.4529228210449" lon="2.83829212188721">
			<ele>165.100006103516</ele>
			<time>2014-01-02T11:31:09Z</time>
		</trkpt>
		<trkpt lat="39.4528770446777" lon="2.83831191062927">
			<ele>165.199996948242</ele>
			<time>2014-01-02T11:31:10Z</time>
		</trkpt>
		<trkpt lat="39.4528312683105" lon="2.83833360671997">
			<ele>165.699996948242</ele>
			<time>2014-01-02T11:31:11Z</time>
		</trkpt>
		<trkpt lat="39.4527854919434" lon="2.83835244178772">
			<ele>166.199996948242</ele>
			<time>2014-01-02T11:31:12Z</time>
		</trkpt>
		<trkpt lat="39.4527397155762" lon="2.83837056159973">
			<ele>166.600006103516</ele>
			<time>2014-01-02T11:31:13Z</time>
		</trkpt>
		<trkpt lat="39.4526977539063" lon="2.83839297294617">
			<ele>166.300003051758</ele>
			<time>2014-01-02T11:31:14Z</time>
		</trkpt>
		<trkpt lat="39.4526519775391" lon="2.83841395378113">
			<ele>165.899993896484</ele>
			<time>2014-01-02T11:31:15Z</time>
		</trkpt>
		<trkpt lat="39.4526023864746" lon="2.83843660354614">
			<ele>165.5</ele>
			<time>2014-01-02T11:31:16Z</time>
		</trkpt>
		<trkpt lat="39.4525566101074" lon="2.83845591545105">
			<ele>165.899993896484</ele>
			<time>2014-01-02T11:31:17Z</time>
		</trkpt>
		<trkpt lat="39.4525146484375" lon="2.83847784996033">
			<ele>166.199996948242</ele>
			<time>2014-01-02T11:31:18Z</time>
		</trkpt>
		<trkpt lat="39.4524688720703" lon="2.83850526809692">
			<ele>166.100006103516</ele>
			<time>2014-01-02T11:31:19Z</time>
		</trkpt>
		<trkpt lat="39.4524230957031" lon="2.83853149414063">
			<ele>166</ele>
			<time>2014-01-02T11:31:20Z</time>
		</trkpt>
		<trkpt lat="39.4523773193359" lon="2.83855795860291">
			<ele>165.800003051758</ele>
			<time>2014-01-02T11:31:21Z</time>
		</trkpt>
		<trkpt lat="39.452335357666" lon="2.83858346939087">
			<ele>165</ele>
			<time>2014-01-02T11:31:22Z</time>
		</trkpt>
		<trkpt lat="39.4522895812988" lon="2.8386082649231">
			<ele>165.199996948242</ele>
			<time>2014-01-02T11:31:23Z</time>
		</trkpt>
		<trkpt lat="39.4522438049316" lon="2.83863210678101">
			<ele>165.399993896484</ele>
			<time>2014-01-02T11:31:24Z</time>
		</trkpt>
		<trkpt lat="39.4522018432617" lon="2.83865332603455">
			<ele>165.800003051758</ele>
			<time>2014-01-02T11:31:25Z</time>
		</trkpt>
		<trkpt lat="39.4521522521973" lon="2.8386754989624">
			<ele>165.899993896484</ele>
			<time>2014-01-02T11:31:26Z</time>
		</trkpt>
		<trkpt lat="39.4521102905273" lon="2.83869624137878">
			<ele>166</ele>
			<time>2014-01-02T11:31:27Z</time>
		</trkpt>
		<trkpt lat="39.4520645141602" lon="2.83871507644653">
			<ele>166.100006103516</ele>
			<time>2014-01-02T11:31:28Z</time>
		</trkpt>
		<trkpt lat="39.4520225524902" lon="2.83873176574707">
			<ele>166.399993896484</ele>
			<time>2014-01-02T11:31:29Z</time>
		</trkpt>
		<trkpt lat="39.4519729614258" lon="2.83874845504761">
			<ele>166.800003051758</ele>
			<time>2014-01-02T11:31:30Z</time>
		</trkpt>
		<trkpt lat="39.4519309997559" lon="2.83876204490662">
			<ele>167.199996948242</ele>
			<time>2014-01-02T11:31:31Z</time>
		</trkpt>
		<trkpt lat="39.4518852233887" lon="2.83878421783447">
			<ele>167.600006103516</ele>
			<time>2014-01-02T11:31:32Z</time>
		</trkpt>
		<trkpt lat="39.4518394470215" lon="2.83880186080933">
			<ele>167.899993896484</ele>
			<time>2014-01-02T11:31:33Z</time>
		</trkpt>
		<trkpt lat="39.4517974853516" lon="2.8388192653656">
			<ele>168.100006103516</ele>
			<time>2014-01-02T11:31:34Z</time>
		</trkpt>
		<trkpt lat="39.4517517089844" lon="2.83883953094482">
			<ele>167.899993896484</ele>
			<time>2014-01-02T11:31:35Z</time>
		</trkpt>
		<trkpt lat="39.4517097473145" lon="2.83886289596558">
			<ele>167.600006103516</ele>
			<time>2014-01-02T11:31:36Z</time>
		</trkpt>
		<trkpt lat="39.4516639709473" lon="2.83888363838196">
			<ele>167.5</ele>
			<time>2014-01-02T11:31:37Z</time>
		</trkpt>
		<trkpt lat="39.4516181945801" lon="2.83890390396118">
			<ele>167.699996948242</ele>
			<time>2014-01-02T11:31:38Z</time>
		</trkpt>
		<trkpt lat="39.4515724182129" lon="2.83892941474915">
			<ele>167.699996948242</ele>
			<time>2014-01-02T11:31:39Z</time>
		</trkpt>
		<trkpt lat="39.451530456543" lon="2.8389573097229">
			<ele>167.699996948242</ele>
			<time>2014-01-02T11:31:40Z</time>
		</trkpt>
		<trkpt lat="39.4514999389648" lon="2.83899831771851">
			<ele>168.100006103516</ele>
			<time>2014-01-02T11:31:41Z</time>
		</trkpt>
		<trkpt lat="39.4514503479004" lon="2.83908367156982">
			<ele>168.100006103516</ele>
			<time>2014-01-02T11:31:43Z</time>
		</trkpt>
		<trkpt lat="39.4514045715332" lon="2.83913779258728">
			<ele>168.399993896484</ele>
			<time>2014-01-02T11:31:45Z</time>
		</trkpt>
		<trkpt lat="39.4513359069824" lon="2.83916425704956">
			<ele>168.300003051758</ele>
			<time>2014-01-02T11:31:47Z</time>
		</trkpt>
		<trkpt lat="39.4512939453125" lon="2.83918809890747">
			<ele>167.300003051758</ele>
			<time>2014-01-02T11:31:48Z</time>
		</trkpt>
		<trkpt lat="39.4512481689453" lon="2.83922815322876">
			<ele>166.899993896484</ele>
			<time>2014-01-02T11:31:49Z</time>
		</trkpt>
		<trkpt lat="39.4512023925781" lon="2.83927726745605">
			<ele>166.100006103516</ele>
			<time>2014-01-02T11:31:50Z</time>
		</trkpt>
		<trkpt lat="39.4511566162109" lon="2.83932542800903">
			<ele>166</ele>
			<time>2014-01-02T11:31:51Z</time>
		</trkpt>
		<trkpt lat="39.4511108398438" lon="2.8393771648407">
			<ele>165.800003051758</ele>
			<time>2014-01-02T11:31:52Z</time>
		</trkpt>
		<trkpt lat="39.4510612487793" lon="2.83942484855652">
			<ele>165.5</ele>
			<time>2014-01-02T11:31:53Z</time>
		</trkpt>
		<trkpt lat="39.4510192871094" lon="2.83947491645813">
			<ele>165.399993896484</ele>
			<time>2014-01-02T11:31:54Z</time>
		</trkpt>
		<trkpt lat="39.4509773254395" lon="2.83953309059143">
			<ele>165.699996948242</ele>
			<time>2014-01-02T11:31:55Z</time>
		</trkpt>
		<trkpt lat="39.4509315490723" lon="2.83958649635315">
			<ele>165.399993896484</ele>
			<time>2014-01-02T11:31:56Z</time>
		</trkpt>
		<trkpt lat="39.4508857727051" lon="2.83963942527771">
			<ele>165.199996948242</ele>
			<time>2014-01-02T11:31:57Z</time>
		</trkpt>
		<trkpt lat="39.4508361816406" lon="2.83969020843506">
			<ele>165.199996948242</ele>
			<time>2014-01-02T11:31:58Z</time>
		</trkpt>
		<trkpt lat="39.4507865905762" lon="2.83974194526672">
			<ele>164.699996948242</ele>
			<time>2014-01-02T11:31:59Z</time>
		</trkpt>
		<trkpt lat="39.4507446289063" lon="2.83979821205139">
			<ele>164.699996948242</ele>
			<time>2014-01-02T11:32:00Z</time>
		</trkpt>
		<trkpt lat="39.4506988525391" lon="2.839848279953">
			<ele>164.100006103516</ele>
			<time>2014-01-02T11:32:01Z</time>
		</trkpt>
		<trkpt lat="39.4506568908691" lon="2.83989810943604">
			<ele>163.399993896484</ele>
			<time>2014-01-02T11:32:02Z</time>
		</trkpt>
		<trkpt lat="39.4506149291992" lon="2.83995008468628">
			<ele>163.399993896484</ele>
			<time>2014-01-02T11:32:03Z</time>
		</trkpt>
		<trkpt lat="39.4505767822266" lon="2.84000539779663">
			<ele>163</ele>
			<time>2014-01-02T11:32:04Z</time>
		</trkpt>
		<trkpt lat="39.4505348205566" lon="2.84006094932556">
			<ele>162.800003051758</ele>
			<time>2014-01-02T11:32:05Z</time>
		</trkpt>
		<trkpt lat="39.4504852294922" lon="2.84010720252991">
			<ele>163.100006103516</ele>
			<time>2014-01-02T11:32:06Z</time>
		</trkpt>
		<trkpt lat="39.450439453125" lon="2.84015822410583">
			<ele>163</ele>
			<time>2014-01-02T11:32:07Z</time>
		</trkpt>
		<trkpt lat="39.4503936767578" lon="2.84021162986755">
			<ele>162.5</ele>
			<time>2014-01-02T11:32:08Z</time>
		</trkpt>
		<trkpt lat="39.4503479003906" lon="2.84025979042053">
			<ele>162.399993896484</ele>
			<time>2014-01-02T11:32:09Z</time>
		</trkpt>
		<trkpt lat="39.4503021240234" lon="2.84030818939209">
			<ele>162</ele>
			<time>2014-01-02T11:32:10Z</time>
		</trkpt>
		<trkpt lat="39.4502601623535" lon="2.84035229682922">
			<ele>161.199996948242</ele>
			<time>2014-01-02T11:32:11Z</time>
		</trkpt>
		<trkpt lat="39.4502182006836" lon="2.84040284156799">
			<ele>161.5</ele>
			<time>2014-01-02T11:32:12Z</time>
		</trkpt>
		<trkpt lat="39.4501762390137" lon="2.84045481681824">
			<ele>161.5</ele>
			<time>2014-01-02T11:32:13Z</time>
		</trkpt>
		<trkpt lat="39.4501342773438" lon="2.84050488471985">
			<ele>161.100006103516</ele>
			<time>2014-01-02T11:32:14Z</time>
		</trkpt>
		<trkpt lat="39.4500923156738" lon="2.84055590629578">
			<ele>161</ele>
			<time>2014-01-02T11:32:15Z</time>
		</trkpt>
		<trkpt lat="39.4500465393066" lon="2.84060215950012">
			<ele>160.800003051758</ele>
			<time>2014-01-02T11:32:16Z</time>
		</trkpt>
		<trkpt lat="39.450008392334" lon="2.84065175056458">
			<ele>160.899993896484</ele>
			<time>2014-01-02T11:32:17Z</time>
		</trkpt>
		<trkpt lat="39.4499664306641" lon="2.8406994342804">
			<ele>161.199996948242</ele>
			<time>2014-01-02T11:32:18Z</time>
		</trkpt>
		<trkpt lat="39.4499244689941" lon="2.84074807167053">
			<ele>160.899993896484</ele>
			<time>2014-01-02T11:32:19Z</time>
		</trkpt>
		<trkpt lat="39.4498825073242" lon="2.84079670906067">
			<ele>160.899993896484</ele>
			<time>2014-01-02T11:32:20Z</time>
		</trkpt>
		<trkpt lat="39.4498405456543" lon="2.84084463119507">
			<ele>160.300003051758</ele>
			<time>2014-01-02T11:32:21Z</time>
		</trkpt>
		<trkpt lat="39.4497985839844" lon="2.84089303016663">
			<ele>160.100006103516</ele>
			<time>2014-01-02T11:32:22Z</time>
		</trkpt>
		<trkpt lat="39.4497528076172" lon="2.84094071388245">
			<ele>159.899993896484</ele>
			<time>2014-01-02T11:32:23Z</time>
		</trkpt>
		<trkpt lat="39.4497108459473" lon="2.84098720550537">
			<ele>159.800003051758</ele>
			<time>2014-01-02T11:32:24Z</time>
		</trkpt>
		<trkpt lat="39.4496688842773" lon="2.84103107452393">
			<ele>159.5</ele>
			<time>2014-01-02T11:32:25Z</time>
		</trkpt>
		<trkpt lat="39.4496269226074" lon="2.84107828140259">
			<ele>159.399993896484</ele>
			<time>2014-01-02T11:32:26Z</time>
		</trkpt>
		<trkpt lat="39.4495849609375" lon="2.84112477302551">
			<ele>159.300003051758</ele>
			<time>2014-01-02T11:32:27Z</time>
		</trkpt>
		<trkpt lat="39.4495468139648" lon="2.84117221832275">
			<ele>159.300003051758</ele>
			<time>2014-01-02T11:32:28Z</time>
		</trkpt>
		<trkpt lat="39.4495086669922" lon="2.84121608734131">
			<ele>159.199996948242</ele>
			<time>2014-01-02T11:32:29Z</time>
		</trkpt>
		<trkpt lat="39.4494667053223" lon="2.84126472473145">
			<ele>158.800003051758</ele>
			<time>2014-01-02T11:32:30Z</time>
		</trkpt>
		<trkpt lat="39.4494209289551" lon="2.84130907058716">
			<ele>158.699996948242</ele>
			<time>2014-01-02T11:32:31Z</time>
		</trkpt>
		<trkpt lat="39.4493827819824" lon="2.84135222434998">
			<ele>158.199996948242</ele>
			<time>2014-01-02T11:32:32Z</time>
		</trkpt>
		<trkpt lat="39.4493408203125" lon="2.84139657020569">
			<ele>157</ele>
			<time>2014-01-02T11:32:33Z</time>
		</trkpt>
		<trkpt lat="39.4492988586426" lon="2.84144687652588">
			<ele>157.899993896484</ele>
			<time>2014-01-02T11:32:34Z</time>
		</trkpt>
		<trkpt lat="39.4492568969727" lon="2.8414900302887">
			<ele>157.699996948242</ele>
			<time>2014-01-02T11:32:35Z</time>
		</trkpt>
		<trkpt lat="39.44921875" lon="2.84153509140015">
			<ele>157.600006103516</ele>
			<time>2014-01-02T11:32:36Z</time>
		</trkpt>
		<trkpt lat="39.4491806030273" lon="2.84158253669739">
			<ele>157.699996948242</ele>
			<time>2014-01-02T11:32:37Z</time>
		</trkpt>
		<trkpt lat="39.4491386413574" lon="2.8416268825531">
			<ele>157.600006103516</ele>
			<time>2014-01-02T11:32:38Z</time>
		</trkpt>
		<trkpt lat="39.4491004943848" lon="2.84166717529297">
			<ele>157.699996948242</ele>
			<time>2014-01-02T11:32:39Z</time>
		</trkpt>
		<trkpt lat="39.4490585327148" lon="2.84171175956726">
			<ele>157.5</ele>
			<time>2014-01-02T11:32:40Z</time>
		</trkpt>
		<trkpt lat="39.4490203857422" lon="2.84175300598145">
			<ele>157.5</ele>
			<time>2014-01-02T11:32:41Z</time>
		</trkpt>
		<trkpt lat="39.4489822387695" lon="2.84179592132568">
			<ele>157.100006103516</ele>
			<time>2014-01-02T11:32:42Z</time>
		</trkpt>
		<trkpt lat="39.4489402770996" lon="2.84184193611145">
			<ele>157.399993896484</ele>
			<time>2014-01-02T11:32:43Z</time>
		</trkpt>
		<trkpt lat="39.448902130127" lon="2.84188532829285">
			<ele>157.399993896484</ele>
			<time>2014-01-02T11:32:44Z</time>
		</trkpt>
		<trkpt lat="39.448860168457" lon="2.84193253517151">
			<ele>157.5</ele>
			<time>2014-01-02T11:32:45Z</time>
		</trkpt>
		<trkpt lat="39.4488220214844" lon="2.84197807312012">
			<ele>157.600006103516</ele>
			<time>2014-01-02T11:32:46Z</time>
		</trkpt>
		<trkpt lat="39.4487838745117" lon="2.84202432632446">
			<ele>157.899993896484</ele>
			<time>2014-01-02T11:32:47Z</time>
		</trkpt>
		<trkpt lat="39.4487419128418" lon="2.84206604957581">
			<ele>158.300003051758</ele>
			<time>2014-01-02T11:32:48Z</time>
		</trkpt>
		<trkpt lat="39.4487037658691" lon="2.84211182594299">
			<ele>158.399993896484</ele>
			<time>2014-01-02T11:32:49Z</time>
		</trkpt>
		<trkpt lat="39.4486656188965" lon="2.84215450286865">
			<ele>158.600006103516</ele>
			<time>2014-01-02T11:32:50Z</time>
		</trkpt>
		<trkpt lat="39.4486274719238" lon="2.84219884872437">
			<ele>158.300003051758</ele>
			<time>2014-01-02T11:32:51Z</time>
		</trkpt>
		<trkpt lat="39.4485893249512" lon="2.84224200248718">
			<ele>158.100006103516</ele>
			<time>2014-01-02T11:32:52Z</time>
		</trkpt>
		<trkpt lat="39.4485473632813" lon="2.84228205680847">
			<ele>158.100006103516</ele>
			<time>2014-01-02T11:32:53Z</time>
		</trkpt>
		<trkpt lat="39.4485092163086" lon="2.84232473373413">
			<ele>158</ele>
			<time>2014-01-02T11:32:54Z</time>
		</trkpt>
		<trkpt lat="39.4484634399414" lon="2.84236526489258">
			<ele>157.800003051758</ele>
			<time>2014-01-02T11:32:55Z</time>
		</trkpt>
		<trkpt lat="39.4484252929688" lon="2.84240531921387">
			<ele>158.300003051758</ele>
			<time>2014-01-02T11:32:56Z</time>
		</trkpt>
		<trkpt lat="39.4483833312988" lon="2.84244298934937">
			<ele>158.199996948242</ele>
			<time>2014-01-02T11:32:57Z</time>
		</trkpt>
		<trkpt lat="39.4483413696289" lon="2.84248614311218">
			<ele>157.300003051758</ele>
			<time>2014-01-02T11:32:58Z</time>
		</trkpt>
		<trkpt lat="39.4483032226563" lon="2.84252786636353">
			<ele>157</ele>
			<time>2014-01-02T11:32:59Z</time>
		</trkpt>
		<trkpt lat="39.4482612609863" lon="2.84257197380066">
			<ele>157</ele>
			<time>2014-01-02T11:33:00Z</time>
		</trkpt>
		<trkpt lat="39.4482231140137" lon="2.84261512756348">
			<ele>156.399993896484</ele>
			<time>2014-01-02T11:33:01Z</time>
		</trkpt>
		<trkpt lat="39.4481811523438" lon="2.84265804290771">
			<ele>156.699996948242</ele>
			<time>2014-01-02T11:33:02Z</time>
		</trkpt>
		<trkpt lat="39.4481391906738" lon="2.84270143508911">
			<ele>156.399993896484</ele>
			<time>2014-01-02T11:33:03Z</time>
		</trkpt>
		<trkpt lat="39.4481010437012" lon="2.84274888038635">
			<ele>155.600006103516</ele>
			<time>2014-01-02T11:33:04Z</time>
		</trkpt>
		<trkpt lat="39.4480590820313" lon="2.8427939414978">
			<ele>155.300003051758</ele>
			<time>2014-01-02T11:33:05Z</time>
		</trkpt>
		<trkpt lat="39.4480171203613" lon="2.84283781051636">
			<ele>155.100006103516</ele>
			<time>2014-01-02T11:33:06Z</time>
		</trkpt>
		<trkpt lat="39.4479751586914" lon="2.84288215637207">
			<ele>154.800003051758</ele>
			<time>2014-01-02T11:33:07Z</time>
		</trkpt>
		<trkpt lat="39.4479331970215" lon="2.84292435646057">
			<ele>154</ele>
			<time>2014-01-02T11:33:08Z</time>
		</trkpt>
		<trkpt lat="39.4478912353516" lon="2.8429708480835">
			<ele>153.800003051758</ele>
			<time>2014-01-02T11:33:09Z</time>
		</trkpt>
		<trkpt lat="39.4478492736816" lon="2.84301209449768">
			<ele>153.5</ele>
			<time>2014-01-02T11:33:10Z</time>
		</trkpt>
		<trkpt lat="39.447811126709" lon="2.84305477142334">
			<ele>153.5</ele>
			<time>2014-01-02T11:33:11Z</time>
		</trkpt>
		<trkpt lat="39.4477691650391" lon="2.84309506416321">
			<ele>153.5</ele>
			<time>2014-01-02T11:33:12Z</time>
		</trkpt>
		<trkpt lat="39.4477310180664" lon="2.84313821792603">
			<ele>153.199996948242</ele>
			<time>2014-01-02T11:33:13Z</time>
		</trkpt>
		<trkpt lat="39.4476928710938" lon="2.84318232536316">
			<ele>153.199996948242</ele>
			<time>2014-01-02T11:33:14Z</time>
		</trkpt>
		<trkpt lat="39.4476547241211" lon="2.84322738647461">
			<ele>152.899993896484</ele>
			<time>2014-01-02T11:33:15Z</time>
		</trkpt>
		<trkpt lat="39.4476165771484" lon="2.84326815605164">
			<ele>152.600006103516</ele>
			<time>2014-01-02T11:33:16Z</time>
		</trkpt>
		<trkpt lat="39.4475746154785" lon="2.84330821037292">
			<ele>152.399993896484</ele>
			<time>2014-01-02T11:33:17Z</time>
		</trkpt>
		<trkpt lat="39.4475364685059" lon="2.84334921836853">
			<ele>152.399993896484</ele>
			<time>2014-01-02T11:33:18Z</time>
		</trkpt>
		<trkpt lat="39.4474983215332" lon="2.84338974952698">
			<ele>152.300003051758</ele>
			<time>2014-01-02T11:33:19Z</time>
		</trkpt>
		<trkpt lat="39.4474601745605" lon="2.84343266487122">
			<ele>152.300003051758</ele>
			<time>2014-01-02T11:33:20Z</time>
		</trkpt>
		<trkpt lat="39.4474220275879" lon="2.84347438812256">
			<ele>152.399993896484</ele>
			<time>2014-01-02T11:33:21Z</time>
		</trkpt>
		<trkpt lat="39.4473876953125" lon="2.84351873397827">
			<ele>152.600006103516</ele>
			<time>2014-01-02T11:33:22Z</time>
		</trkpt>
		<trkpt lat="39.4473495483398" lon="2.8435583114624">
			<ele>152.5</ele>
			<time>2014-01-02T11:33:23Z</time>
		</trkpt>
		<trkpt lat="39.4473114013672" lon="2.84359669685364">
			<ele>152.300003051758</ele>
			<time>2014-01-02T11:33:24Z</time>
		</trkpt>
		<trkpt lat="39.4472694396973" lon="2.84363055229187">
			<ele>151.300003051758</ele>
			<time>2014-01-02T11:33:25Z</time>
		</trkpt>
		<trkpt lat="39.4472274780273" lon="2.84367370605469">
			<ele>151.800003051758</ele>
			<time>2014-01-02T11:33:26Z</time>
		</trkpt>
		<trkpt lat="39.447193145752" lon="2.84371542930603">
			<ele>151.5</ele>
			<time>2014-01-02T11:33:27Z</time>
		</trkpt>
		<trkpt lat="39.4471549987793" lon="2.84375739097595">
			<ele>151.800003051758</ele>
			<time>2014-01-02T11:33:28Z</time>
		</trkpt>
		<trkpt lat="39.4471206665039" lon="2.84379649162292">
			<ele>151.800003051758</ele>
			<time>2014-01-02T11:33:29Z</time>
		</trkpt>
		<trkpt lat="39.4470825195313" lon="2.84383702278137">
			<ele>151.899993896484</ele>
			<time>2014-01-02T11:33:30Z</time>
		</trkpt>
		<trkpt lat="39.4470405578613" lon="2.84387564659119">
			<ele>151.600006103516</ele>
			<time>2014-01-02T11:33:31Z</time>
		</trkpt>
		<trkpt lat="39.4470062255859" lon="2.84391474723816">
			<ele>151.5</ele>
			<time>2014-01-02T11:33:32Z</time>
		</trkpt>
		<trkpt lat="39.446964263916" lon="2.84395408630371">
			<ele>151.5</ele>
			<time>2014-01-02T11:33:33Z</time>
		</trkpt>
		<trkpt lat="39.4469223022461" lon="2.843994140625">
			<ele>151.5</ele>
			<time>2014-01-02T11:33:34Z</time>
		</trkpt>
		<trkpt lat="39.4468841552734" lon="2.84403419494629">
			<ele>151.300003051758</ele>
			<time>2014-01-02T11:33:35Z</time>
		</trkpt>
		<trkpt lat="39.4468383789063" lon="2.84407567977905">
			<ele>151.600006103516</ele>
			<time>2014-01-02T11:33:36Z</time>
		</trkpt>
		<trkpt lat="39.4467964172363" lon="2.84412097930908">
			<ele>151.800003051758</ele>
			<time>2014-01-02T11:33:37Z</time>
		</trkpt>
		<trkpt lat="39.4467544555664" lon="2.84416437149048">
			<ele>151.899993896484</ele>
			<time>2014-01-02T11:33:38Z</time>
		</trkpt>
		<trkpt lat="39.4467163085938" lon="2.84420871734619">
			<ele>152</ele>
			<time>2014-01-02T11:33:39Z</time>
		</trkpt>
		<trkpt lat="39.4466743469238" lon="2.84425044059753">
			<ele>151.800003051758</ele>
			<time>2014-01-02T11:33:40Z</time>
		</trkpt>
		<trkpt lat="39.4466323852539" lon="2.84429526329041">
			<ele>151.699996948242</ele>
			<time>2014-01-02T11:33:41Z</time>
		</trkpt>
		<trkpt lat="39.446590423584" lon="2.84433603286743">
			<ele>151.699996948242</ele>
			<time>2014-01-02T11:33:42Z</time>
		</trkpt>
		<trkpt lat="39.4465446472168" lon="2.84437823295593">
			<ele>151.300003051758</ele>
			<time>2014-01-02T11:33:43Z</time>
		</trkpt>
		<trkpt lat="39.4465026855469" lon="2.8444242477417">
			<ele>151.199996948242</ele>
			<time>2014-01-02T11:33:44Z</time>
		</trkpt>
		<trkpt lat="39.4464569091797" lon="2.84447002410889">
			<ele>150.899993896484</ele>
			<time>2014-01-02T11:33:45Z</time>
		</trkpt>
		<trkpt lat="39.4464111328125" lon="2.84451508522034">
			<ele>150.800003051758</ele>
			<time>2014-01-02T11:33:46Z</time>
		</trkpt>
		<trkpt lat="39.4463691711426" lon="2.84456014633179">
			<ele>150.5</ele>
			<time>2014-01-02T11:33:47Z</time>
		</trkpt>
		<trkpt lat="39.4463272094727" lon="2.84460258483887">
			<ele>150.300003051758</ele>
			<time>2014-01-02T11:33:48Z</time>
		</trkpt>
		<trkpt lat="39.4462852478027" lon="2.84465026855469">
			<ele>149.899993896484</ele>
			<time>2014-01-02T11:33:49Z</time>
		</trkpt>
		<trkpt lat="39.4462432861328" lon="2.8446934223175">
			<ele>150</ele>
			<time>2014-01-02T11:33:50Z</time>
		</trkpt>
		<trkpt lat="39.4462013244629" lon="2.84473776817322">
			<ele>149.800003051758</ele>
			<time>2014-01-02T11:33:51Z</time>
		</trkpt>
		<trkpt lat="39.4461631774902" lon="2.84477734565735">
			<ele>149.699996948242</ele>
			<time>2014-01-02T11:33:52Z</time>
		</trkpt>
		<trkpt lat="39.4461250305176" lon="2.8448212146759">
			<ele>149.600006103516</ele>
			<time>2014-01-02T11:33:53Z</time>
		</trkpt>
		<trkpt lat="39.4460830688477" lon="2.84486389160156">
			<ele>149.5</ele>
			<time>2014-01-02T11:33:54Z</time>
		</trkpt>
		<trkpt lat="39.4460411071777" lon="2.84490728378296">
			<ele>149.5</ele>
			<time>2014-01-02T11:33:55Z</time>
		</trkpt>
		<trkpt lat="39.4460029602051" lon="2.84495306015015">
			<ele>149.600006103516</ele>
			<time>2014-01-02T11:33:56Z</time>
		</trkpt>
		<trkpt lat="39.4459648132324" lon="2.84499859809875">
			<ele>149.699996948242</ele>
			<time>2014-01-02T11:33:57Z</time>
		</trkpt>
		<trkpt lat="39.4459266662598" lon="2.84503817558289">
			<ele>149.399993896484</ele>
			<time>2014-01-02T11:33:58Z</time>
		</trkpt>
		<trkpt lat="39.4458847045898" lon="2.84507775306702">
			<ele>149.5</ele>
			<time>2014-01-02T11:33:59Z</time>
		</trkpt>
		<trkpt lat="39.4458427429199" lon="2.84511852264404">
			<ele>149.800003051758</ele>
			<time>2014-01-02T11:34:00Z</time>
		</trkpt>
		<trkpt lat="39.44580078125" lon="2.84515762329102">
			<ele>149.800003051758</ele>
			<time>2014-01-02T11:34:01Z</time>
		</trkpt>
		<trkpt lat="39.4457626342773" lon="2.8452045917511">
			<ele>150.199996948242</ele>
			<time>2014-01-02T11:34:02Z</time>
		</trkpt>
		<trkpt lat="39.445728302002" lon="2.84524607658386">
			<ele>150.300003051758</ele>
			<time>2014-01-02T11:34:03Z</time>
		</trkpt>
		<trkpt lat="39.4456901550293" lon="2.8452832698822">
			<ele>149.899993896484</ele>
			<time>2014-01-02T11:34:04Z</time>
		</trkpt>
		<trkpt lat="39.4456520080566" lon="2.8453209400177">
			<ele>150.300003051758</ele>
			<time>2014-01-02T11:34:05Z</time>
		</trkpt>
		<trkpt lat="39.445613861084" lon="2.84536218643188">
			<ele>150.600006103516</ele>
			<time>2014-01-02T11:34:06Z</time>
		</trkpt>
		<trkpt lat="39.4455795288086" lon="2.84540057182312">
			<ele>150.399993896484</ele>
			<time>2014-01-02T11:34:07Z</time>
		</trkpt>
		<trkpt lat="39.4455451965332" lon="2.84543967247009">
			<ele>150.800003051758</ele>
			<time>2014-01-02T11:34:08Z</time>
		</trkpt>
		<trkpt lat="39.4454727172852" lon="2.84550595283508">
			<ele>151.300003051758</ele>
			<time>2014-01-02T11:34:10Z</time>
		</trkpt>
		<trkpt lat="39.4454116821289" lon="2.84557247161865">
			<ele>151.399993896484</ele>
			<time>2014-01-02T11:34:12Z</time>
		</trkpt>
		<trkpt lat="39.4453735351563" lon="2.84563398361206">
			<ele>151.300003051758</ele>
			<time>2014-01-02T11:34:14Z</time>
		</trkpt>
		<trkpt lat="39.4453620910645" lon="2.84569692611694">
			<ele>151.899993896484</ele>
			<time>2014-01-02T11:34:16Z</time>
		</trkpt>
		<trkpt lat="39.445384979248" lon="2.8457555770874">
			<ele>151.600006103516</ele>
			<time>2014-01-02T11:34:18Z</time>
		</trkpt>
		<trkpt lat="39.445426940918" lon="2.84579873085022">
			<ele>151.100006103516</ele>
			<time>2014-01-02T11:34:20Z</time>
		</trkpt>
		<trkpt lat="39.4454803466797" lon="2.84584212303162">
			<ele>151.300003051758</ele>
			<time>2014-01-02T11:34:22Z</time>
		</trkpt>
		<trkpt lat="39.4455375671387" lon="2.8458776473999">
			<ele>151.5</ele>
			<time>2014-01-02T11:34:24Z</time>
		</trkpt>
		<trkpt lat="39.4455947875977" lon="2.84590935707092">
			<ele>151.600006103516</ele>
			<time>2014-01-02T11:34:26Z</time>
		</trkpt>
		<trkpt lat="39.4456672668457" lon="2.84593534469604">
			<ele>152</ele>
			<time>2014-01-02T11:34:28Z</time>
		</trkpt>
		<trkpt lat="39.4457359313965" lon="2.84595441818237">
			<ele>152</ele>
			<time>2014-01-02T11:34:30Z</time>
		</trkpt>
		<trkpt lat="39.4458160400391" lon="2.84596419334412">
			<ele>152.199996948242</ele>
			<time>2014-01-02T11:34:32Z</time>
		</trkpt>
		<trkpt lat="39.4458923339844" lon="2.84597969055176">
			<ele>152.100006103516</ele>
			<time>2014-01-02T11:34:34Z</time>
		</trkpt>
		<trkpt lat="39.4459609985352" lon="2.84599232673645">
			<ele>152.100006103516</ele>
			<time>2014-01-02T11:34:36Z</time>
		</trkpt>
		<trkpt lat="39.4460334777832" lon="2.84599661827087">
			<ele>152.300003051758</ele>
			<time>2014-01-02T11:34:38Z</time>
		</trkpt>
		<trkpt lat="39.4461059570313" lon="2.84601497650146">
			<ele>152.800003051758</ele>
			<time>2014-01-02T11:34:40Z</time>
		</trkpt>
		<trkpt lat="39.4461708068848" lon="2.846027135849">
			<ele>153</ele>
			<time>2014-01-02T11:34:42Z</time>
		</trkpt>
		<trkpt lat="39.4462432861328" lon="2.84604620933533">
			<ele>153.300003051758</ele>
			<time>2014-01-02T11:34:44Z</time>
		</trkpt>
		<trkpt lat="39.4463119506836" lon="2.84606599807739">
			<ele>153.100006103516</ele>
			<time>2014-01-02T11:34:46Z</time>
		</trkpt>
		<trkpt lat="39.4463844299316" lon="2.84608626365662">
			<ele>152.800003051758</ele>
			<time>2014-01-02T11:34:48Z</time>
		</trkpt>
		<trkpt lat="39.4464530944824" lon="2.84611439704895">
			<ele>152.899993896484</ele>
			<time>2014-01-02T11:34:50Z</time>
		</trkpt>
		<trkpt lat="39.4465637207031" lon="2.84614729881287">
			<ele>153.199996948242</ele>
			<time>2014-01-02T11:34:53Z</time>
		</trkpt>
		<trkpt lat="39.4466323852539" lon="2.8461742401123">
			<ele>153.300003051758</ele>
			<time>2014-01-02T11:34:56Z</time>
		</trkpt>
		<trkpt lat="39.446704864502" lon="2.84620547294617">
			<ele>153.399993896484</ele>
			<time>2014-01-02T11:34:57Z</time>
		</trkpt>
		<trkpt lat="39.44677734375" lon="2.8462336063385">
			<ele>153.600006103516</ele>
			<time>2014-01-02T11:35:00Z</time>
		</trkpt>
		<trkpt lat="39.4468460083008" lon="2.84626460075378">
			<ele>154.100006103516</ele>
			<time>2014-01-02T11:35:01Z</time>
		</trkpt>
		<trkpt lat="39.4469146728516" lon="2.84629726409912">
			<ele>154.399993896484</ele>
			<time>2014-01-02T11:35:03Z</time>
		</trkpt>
		<trkpt lat="39.4469795227051" lon="2.84632921218872">
			<ele>154.600006103516</ele>
			<time>2014-01-02T11:35:05Z</time>
		</trkpt>
		<trkpt lat="39.4470481872559" lon="2.84636497497559">
			<ele>154.699996948242</ele>
			<time>2014-01-02T11:35:07Z</time>
		</trkpt>
		<trkpt lat="39.4471130371094" lon="2.84639525413513">
			<ele>154.899993896484</ele>
			<time>2014-01-02T11:35:09Z</time>
		</trkpt>
		<trkpt lat="39.4471817016602" lon="2.84642362594604">
			<ele>155.100006103516</ele>
			<time>2014-01-02T11:35:11Z</time>
		</trkpt>
		<trkpt lat="39.4472503662109" lon="2.84645938873291">
			<ele>155.199996948242</ele>
			<time>2014-01-02T11:35:13Z</time>
		</trkpt>
		<trkpt lat="39.4473152160645" lon="2.84649252891541">
			<ele>155.5</ele>
			<time>2014-01-02T11:35:15Z</time>
		</trkpt>
		<trkpt lat="39.4473838806152" lon="2.84652590751648">
			<ele>155.899993896484</ele>
			<time>2014-01-02T11:35:17Z</time>
		</trkpt>
		<trkpt lat="39.447452545166" lon="2.84656119346619">
			<ele>156.199996948242</ele>
			<time>2014-01-02T11:35:19Z</time>
		</trkpt>
		<trkpt lat="39.4475135803223" lon="2.846604347229">
			<ele>155.399993896484</ele>
			<time>2014-01-02T11:35:21Z</time>
		</trkpt>
		<trkpt lat="39.4475517272949" lon="2.84664034843445">
			<ele>156.5</ele>
			<time>2014-01-02T11:35:22Z</time>
		</trkpt>
		<trkpt lat="39.4476051330566" lon="2.84670925140381">
			<ele>156.800003051758</ele>
			<time>2014-01-02T11:35:24Z</time>
		</trkpt>
		<trkpt lat="39.4476623535156" lon="2.84677243232727">
			<ele>157.100006103516</ele>
			<time>2014-01-02T11:35:26Z</time>
		</trkpt>
		<trkpt lat="39.4477043151855" lon="2.84685039520264">
			<ele>156.100006103516</ele>
			<time>2014-01-02T11:35:28Z</time>
		</trkpt>
		<trkpt lat="39.4477577209473" lon="2.84692192077637">
			<ele>156.100006103516</ele>
			<time>2014-01-02T11:35:30Z</time>
		</trkpt>
		<trkpt lat="39.4477920532227" lon="2.84700441360474">
			<ele>156.300003051758</ele>
			<time>2014-01-02T11:35:32Z</time>
		</trkpt>
		<trkpt lat="39.4478225708008" lon="2.84709787368774">
			<ele>156.100006103516</ele>
			<time>2014-01-02T11:35:34Z</time>
		</trkpt>
		<trkpt lat="39.4478454589844" lon="2.8471884727478">
			<ele>156.100006103516</ele>
			<time>2014-01-02T11:35:36Z</time>
		</trkpt>
		<trkpt lat="39.4478721618652" lon="2.84728360176086">
			<ele>156.699996948242</ele>
			<time>2014-01-02T11:35:38Z</time>
		</trkpt>
		<trkpt lat="39.4478988647461" lon="2.84736776351929">
			<ele>156.800003051758</ele>
			<time>2014-01-02T11:35:40Z</time>
		</trkpt>
		<trkpt lat="39.4479217529297" lon="2.8474440574646">
			<ele>156.699996948242</ele>
			<time>2014-01-02T11:35:42Z</time>
		</trkpt>
		<trkpt lat="39.4479446411133" lon="2.84752202033997">
			<ele>156.800003051758</ele>
			<time>2014-01-02T11:35:44Z</time>
		</trkpt>
		<trkpt lat="39.4479598999023" lon="2.8476095199585">
			<ele>154</ele>
			<time>2014-01-02T11:35:46Z</time>
		</trkpt>
		<trkpt lat="39.4479904174805" lon="2.84769821166992">
			<ele>153</ele>
			<time>2014-01-02T11:35:48Z</time>
		</trkpt>
		<trkpt lat="39.4480209350586" lon="2.84779334068298">
			<ele>154</ele>
			<time>2014-01-02T11:35:50Z</time>
		</trkpt>
		<trkpt lat="39.4480590820313" lon="2.84788775444031">
			<ele>154</ele>
			<time>2014-01-02T11:35:52Z</time>
		</trkpt>
		<trkpt lat="39.4481010437012" lon="2.8479745388031">
			<ele>154.199996948242</ele>
			<time>2014-01-02T11:35:54Z</time>
		</trkpt>
		<trkpt lat="39.4481468200684" lon="2.84805750846863">
			<ele>153.5</ele>
			<time>2014-01-02T11:35:56Z</time>
		</trkpt>
		<trkpt lat="39.448184967041" lon="2.84813499450684">
			<ele>154</ele>
			<time>2014-01-02T11:35:58Z</time>
		</trkpt>
		<trkpt lat="39.4482269287109" lon="2.84821224212646">
			<ele>153.899993896484</ele>
			<time>2014-01-02T11:36:00Z</time>
		</trkpt>
		<trkpt lat="39.4482727050781" lon="2.84828758239746">
			<ele>154.199996948242</ele>
			<time>2014-01-02T11:36:02Z</time>
		</trkpt>
		<trkpt lat="39.4483299255371" lon="2.84836363792419">
			<ele>154.699996948242</ele>
			<time>2014-01-02T11:36:04Z</time>
		</trkpt>
		<trkpt lat="39.4483604431152" lon="2.8484103679657">
			<ele>155.300003051758</ele>
			<time>2014-01-02T11:36:05Z</time>
		</trkpt>
		<trkpt lat="39.4484176635742" lon="2.84848237037659">
			<ele>155.100006103516</ele>
			<time>2014-01-02T11:36:07Z</time>
		</trkpt>
		<trkpt lat="39.4484748840332" lon="2.84854245185852">
			<ele>155.600006103516</ele>
			<time>2014-01-02T11:36:09Z</time>
		</trkpt>
		<trkpt lat="39.4485168457031" lon="2.8486053943634">
			<ele>154.899993896484</ele>
			<time>2014-01-02T11:36:11Z</time>
		</trkpt>
		<trkpt lat="39.4485282897949" lon="2.84868955612183">
			<ele>154.800003051758</ele>
			<time>2014-01-02T11:36:13Z</time>
		</trkpt>
		<trkpt lat="39.4485664367676" lon="2.84876394271851">
			<ele>154</ele>
			<time>2014-01-02T11:36:15Z</time>
		</trkpt>
		<trkpt lat="39.4485893249512" lon="2.84884810447693">
			<ele>154</ele>
			<time>2014-01-02T11:36:17Z</time>
		</trkpt>
		<trkpt lat="39.4486045837402" lon="2.84894108772278">
			<ele>154.699996948242</ele>
			<time>2014-01-02T11:36:19Z</time>
		</trkpt>
		<trkpt lat="39.4486465454102" lon="2.84902739524841">
			<ele>154.600006103516</ele>
			<time>2014-01-02T11:36:21Z</time>
		</trkpt>
		<trkpt lat="39.4486885070801" lon="2.84910345077515">
			<ele>154</ele>
			<time>2014-01-02T11:36:23Z</time>
		</trkpt>
		<trkpt lat="39.4487266540527" lon="2.84913563728333">
			<ele>154.100006103516</ele>
			<time>2014-01-02T11:36:24Z</time>
		</trkpt>
		<trkpt lat="39.4487991333008" lon="2.84920525550842">
			<ele>154.600006103516</ele>
			<time>2014-01-02T11:36:26Z</time>
		</trkpt>
		<trkpt lat="39.4488487243652" lon="2.84927225112915">
			<ele>155.600006103516</ele>
			<time>2014-01-02T11:36:28Z</time>
		</trkpt>
		<trkpt lat="39.448902130127" lon="2.84934973716736">
			<ele>156.199996948242</ele>
			<time>2014-01-02T11:36:30Z</time>
		</trkpt>
		<trkpt lat="39.4489593505859" lon="2.84942388534546">
			<ele>155.699996948242</ele>
			<time>2014-01-02T11:36:32Z</time>
		</trkpt>
		<trkpt lat="39.4489974975586" lon="2.84948825836182">
			<ele>155.899993896484</ele>
			<time>2014-01-02T11:36:34Z</time>
		</trkpt>
		<trkpt lat="39.4490547180176" lon="2.84955835342407">
			<ele>155.600006103516</ele>
			<time>2014-01-02T11:36:36Z</time>
		</trkpt>
		<trkpt lat="39.4491157531738" lon="2.84963655471802">
			<ele>155.300003051758</ele>
			<time>2014-01-02T11:36:38Z</time>
		</trkpt>
		<trkpt lat="39.4491539001465" lon="2.84968185424805">
			<ele>156.100006103516</ele>
			<time>2014-01-02T11:36:40Z</time>
		</trkpt>
		<trkpt lat="39.4492225646973" lon="2.84976577758789">
			<ele>157.399993896484</ele>
			<time>2014-01-02T11:36:42Z</time>
		</trkpt>
		<trkpt lat="39.4492797851563" lon="2.8498420715332">
			<ele>158</ele>
			<time>2014-01-02T11:36:44Z</time>
		</trkpt>
		<trkpt lat="39.4493370056152" lon="2.8499219417572">
			<ele>157.899993896484</ele>
			<time>2014-01-02T11:36:46Z</time>
		</trkpt>
		<trkpt lat="39.4493942260742" lon="2.85000371932983">
			<ele>157</ele>
			<time>2014-01-02T11:36:49Z</time>
		</trkpt>
		<trkpt lat="39.4494514465332" lon="2.85007452964783">
			<ele>157.800003051758</ele>
			<time>2014-01-02T11:36:50Z</time>
		</trkpt>
		<trkpt lat="39.4495048522949" lon="2.85014152526855">
			<ele>157.899993896484</ele>
			<time>2014-01-02T11:36:52Z</time>
		</trkpt>
		<trkpt lat="39.4495506286621" lon="2.85021734237671">
			<ele>157.899993896484</ele>
			<time>2014-01-02T11:36:54Z</time>
		</trkpt>
		<trkpt lat="39.4495887756348" lon="2.85026526451111">
			<ele>157.899993896484</ele>
			<time>2014-01-02T11:36:55Z</time>
		</trkpt>
		<trkpt lat="39.4496383666992" lon="2.85033941268921">
			<ele>159.100006103516</ele>
			<time>2014-01-02T11:36:57Z</time>
		</trkpt>
		<trkpt lat="39.4496955871582" lon="2.85041809082031">
			<ele>160</ele>
			<time>2014-01-02T11:36:59Z</time>
		</trkpt>
		<trkpt lat="39.4497451782227" lon="2.85048484802246">
			<ele>160.300003051758</ele>
			<time>2014-01-02T11:37:01Z</time>
		</trkpt>
		<trkpt lat="39.4498062133789" lon="2.85055422782898">
			<ele>160.899993896484</ele>
			<time>2014-01-02T11:37:03Z</time>
		</trkpt>
		<trkpt lat="39.4498519897461" lon="2.85062694549561">
			<ele>160.800003051758</ele>
			<time>2014-01-02T11:37:05Z</time>
		</trkpt>
		<trkpt lat="39.449893951416" lon="2.85070013999939">
			<ele>159.699996948242</ele>
			<time>2014-01-02T11:37:07Z</time>
		</trkpt>
		<trkpt lat="39.4499435424805" lon="2.85076594352722">
			<ele>159.600006103516</ele>
			<time>2014-01-02T11:37:09Z</time>
		</trkpt>
		<trkpt lat="39.4499893188477" lon="2.85085082054138">
			<ele>159.699996948242</ele>
			<time>2014-01-02T11:37:11Z</time>
		</trkpt>
		<trkpt lat="39.4500503540039" lon="2.85091805458069">
			<ele>159</ele>
			<time>2014-01-02T11:37:13Z</time>
		</trkpt>
		<trkpt lat="39.4501113891602" lon="2.85099530220032">
			<ele>157.600006103516</ele>
			<time>2014-01-02T11:37:15Z</time>
		</trkpt>
		<trkpt lat="39.4501419067383" lon="2.85104417800903">
			<ele>156.699996948242</ele>
			<time>2014-01-02T11:37:16Z</time>
		</trkpt>
		<trkpt lat="39.4502182006836" lon="2.85112261772156">
			<ele>158.5</ele>
			<time>2014-01-02T11:37:18Z</time>
		</trkpt>
		<trkpt lat="39.450252532959" lon="2.8511643409729">
			<ele>158.800003051758</ele>
			<time>2014-01-02T11:37:19Z</time>
		</trkpt>
		<trkpt lat="39.4502944946289" lon="2.85123229026794">
			<ele>159.199996948242</ele>
			<time>2014-01-02T11:37:21Z</time>
		</trkpt>
		<trkpt lat="39.4503440856934" lon="2.85131096839905">
			<ele>159.300003051758</ele>
			<time>2014-01-02T11:37:23Z</time>
		</trkpt>
		<trkpt lat="39.4503898620605" lon="2.85137724876404">
			<ele>159.800003051758</ele>
			<time>2014-01-02T11:37:25Z</time>
		</trkpt>
		<trkpt lat="39.4504432678223" lon="2.85145473480225">
			<ele>159.300003051758</ele>
			<time>2014-01-02T11:37:27Z</time>
		</trkpt>
		<trkpt lat="39.4504776000977" lon="2.85152316093445">
			<ele>159</ele>
			<time>2014-01-02T11:37:29Z</time>
		</trkpt>
		<trkpt lat="39.4505233764648" lon="2.85158944129944">
			<ele>158.899993896484</ele>
			<time>2014-01-02T11:37:31Z</time>
		</trkpt>
		<trkpt lat="39.450569152832" lon="2.8516480922699">
			<ele>159.300003051758</ele>
			<time>2014-01-02T11:37:33Z</time>
		</trkpt>
		<trkpt lat="39.4506149291992" lon="2.85171985626221">
			<ele>159.399993896484</ele>
			<time>2014-01-02T11:37:35Z</time>
		</trkpt>
		<trkpt lat="39.4506568908691" lon="2.85178232192993">
			<ele>158.800003051758</ele>
			<time>2014-01-02T11:37:37Z</time>
		</trkpt>
		<trkpt lat="39.4507064819336" lon="2.85184907913208">
			<ele>158.100006103516</ele>
			<time>2014-01-02T11:37:39Z</time>
		</trkpt>
		<trkpt lat="39.4507522583008" lon="2.85192131996155">
			<ele>158.199996948242</ele>
			<time>2014-01-02T11:37:41Z</time>
		</trkpt>
		<trkpt lat="39.4508094787598" lon="2.8519914150238">
			<ele>158.600006103516</ele>
			<time>2014-01-02T11:37:43Z</time>
		</trkpt>
		<trkpt lat="39.4508666992188" lon="2.85206031799316">
			<ele>158.5</ele>
			<time>2014-01-02T11:37:45Z</time>
		</trkpt>
		<trkpt lat="39.4509162902832" lon="2.85213613510132">
			<ele>158.5</ele>
			<time>2014-01-02T11:37:47Z</time>
		</trkpt>
		<trkpt lat="39.4509696960449" lon="2.85219168663025">
			<ele>159</ele>
			<time>2014-01-02T11:37:49Z</time>
		</trkpt>
		<trkpt lat="39.4510269165039" lon="2.85226464271545">
			<ele>158.699996948242</ele>
			<time>2014-01-02T11:37:51Z</time>
		</trkpt>
		<trkpt lat="39.4510803222656" lon="2.85233044624329">
			<ele>159</ele>
			<time>2014-01-02T11:37:53Z</time>
		</trkpt>
		<trkpt lat="39.4511375427246" lon="2.85239005088806">
			<ele>159.399993896484</ele>
			<time>2014-01-02T11:37:55Z</time>
		</trkpt>
		<trkpt lat="39.4511833190918" lon="2.85243535041809">
			<ele>159.300003051758</ele>
			<time>2014-01-02T11:37:57Z</time>
		</trkpt>
		<trkpt lat="39.4512252807617" lon="2.85251712799072">
			<ele>160.100006103516</ele>
			<time>2014-01-02T11:37:59Z</time>
		</trkpt>
		<trkpt lat="39.4512748718262" lon="2.85259318351746">
			<ele>160.300003051758</ele>
			<time>2014-01-02T11:38:02Z</time>
		</trkpt>
		<trkpt lat="39.4513282775879" lon="2.85266280174255">
			<ele>161.5</ele>
			<time>2014-01-02T11:38:03Z</time>
		</trkpt>
		<trkpt lat="39.4513778686523" lon="2.85273575782776">
			<ele>161.5</ele>
			<time>2014-01-02T11:38:05Z</time>
		</trkpt>
		<trkpt lat="39.4514350891113" lon="2.85282397270203">
			<ele>161</ele>
			<time>2014-01-02T11:38:07Z</time>
		</trkpt>
		<trkpt lat="39.4514961242676" lon="2.85291719436646">
			<ele>160.199996948242</ele>
			<time>2014-01-02T11:38:09Z</time>
		</trkpt>
		<trkpt lat="39.451530456543" lon="2.85295915603638">
			<ele>160.199996948242</ele>
			<time>2014-01-02T11:38:10Z</time>
		</trkpt>
		<trkpt lat="39.4515914916992" lon="2.85304236412048">
			<ele>160.199996948242</ele>
			<time>2014-01-02T11:38:12Z</time>
		</trkpt>
		<trkpt lat="39.45166015625" lon="2.8531129360199">
			<ele>160</ele>
			<time>2014-01-02T11:38:14Z</time>
		</trkpt>
		<trkpt lat="39.4517021179199" lon="2.85314631462097">
			<ele>159.5</ele>
			<time>2014-01-02T11:38:15Z</time>
		</trkpt>
		<trkpt lat="39.4517402648926" lon="2.85317802429199">
			<ele>159.300003051758</ele>
			<time>2014-01-02T11:38:16Z</time>
		</trkpt>
		<trkpt lat="39.4517860412598" lon="2.85320615768433">
			<ele>159.100006103516</ele>
			<time>2014-01-02T11:38:17Z</time>
		</trkpt>
		<trkpt lat="39.4518241882324" lon="2.85323762893677">
			<ele>159.300003051758</ele>
			<time>2014-01-02T11:38:18Z</time>
		</trkpt>
		<trkpt lat="39.4518661499023" lon="2.85326838493347">
			<ele>159</ele>
			<time>2014-01-02T11:38:19Z</time>
		</trkpt>
		<trkpt lat="39.451904296875" lon="2.85330176353455">
			<ele>158.899993896484</ele>
			<time>2014-01-02T11:38:20Z</time>
		</trkpt>
		<trkpt lat="39.4519805908203" lon="2.85335350036621">
			<ele>158.600006103516</ele>
			<time>2014-01-02T11:38:22Z</time>
		</trkpt>
		<trkpt lat="39.4520530700684" lon="2.85340881347656">
			<ele>158.5</ele>
			<time>2014-01-02T11:38:24Z</time>
		</trkpt>
		<trkpt lat="39.4521293640137" lon="2.85346269607544">
			<ele>158.300003051758</ele>
			<time>2014-01-02T11:38:26Z</time>
		</trkpt>
		<trkpt lat="39.4521713256836" lon="2.85349106788635">
			<ele>158.199996948242</ele>
			<time>2014-01-02T11:38:27Z</time>
		</trkpt>
		<trkpt lat="39.4522094726563" lon="2.85352230072021">
			<ele>158.199996948242</ele>
			<time>2014-01-02T11:38:28Z</time>
		</trkpt>
		<trkpt lat="39.4522857666016" lon="2.8535795211792">
			<ele>158</ele>
			<time>2014-01-02T11:38:30Z</time>
		</trkpt>
		<trkpt lat="39.4523620605469" lon="2.85363554954529">
			<ele>158</ele>
			<time>2014-01-02T11:38:32Z</time>
		</trkpt>
		<trkpt lat="39.4524002075195" lon="2.85366773605347">
			<ele>157.5</ele>
			<time>2014-01-02T11:38:33Z</time>
		</trkpt>
		<trkpt lat="39.4524383544922" lon="2.85370111465454">
			<ele>157.300003051758</ele>
			<time>2014-01-02T11:38:34Z</time>
		</trkpt>
		<trkpt lat="39.4524765014648" lon="2.85373520851135">
			<ele>157.199996948242</ele>
			<time>2014-01-02T11:38:35Z</time>
		</trkpt>
		<trkpt lat="39.4525184631348" lon="2.85376334190369">
			<ele>157</ele>
			<time>2014-01-02T11:38:36Z</time>
		</trkpt>
		<trkpt lat="39.4525604248047" lon="2.85378909111023">
			<ele>157.199996948242</ele>
			<time>2014-01-02T11:38:37Z</time>
		</trkpt>
		<trkpt lat="39.4526062011719" lon="2.85381627082825">
			<ele>157.100006103516</ele>
			<time>2014-01-02T11:38:38Z</time>
		</trkpt>
		<trkpt lat="39.4526481628418" lon="2.85384798049927">
			<ele>156.899993896484</ele>
			<time>2014-01-02T11:38:39Z</time>
		</trkpt>
		<trkpt lat="39.4526901245117" lon="2.85387921333313">
			<ele>156.5</ele>
			<time>2014-01-02T11:38:40Z</time>
		</trkpt>
		<trkpt lat="39.4527320861816" lon="2.85390901565552">
			<ele>156.600006103516</ele>
			<time>2014-01-02T11:38:41Z</time>
		</trkpt>
		<trkpt lat="39.4527740478516" lon="2.85393452644348">
			<ele>156.600006103516</ele>
			<time>2014-01-02T11:38:42Z</time>
		</trkpt>
		<trkpt lat="39.4528198242188" lon="2.85395956039429">
			<ele>156.800003051758</ele>
			<time>2014-01-02T11:38:43Z</time>
		</trkpt>
		<trkpt lat="39.4528617858887" lon="2.85398650169373">
			<ele>156.699996948242</ele>
			<time>2014-01-02T11:38:44Z</time>
		</trkpt>
		<trkpt lat="39.4529037475586" lon="2.85401606559753">
			<ele>156.899993896484</ele>
			<time>2014-01-02T11:38:45Z</time>
		</trkpt>
		<trkpt lat="39.4529495239258" lon="2.85404253005981">
			<ele>156.800003051758</ele>
			<time>2014-01-02T11:38:46Z</time>
		</trkpt>
		<trkpt lat="39.4529876708984" lon="2.85407137870789">
			<ele>156.899993896484</ele>
			<time>2014-01-02T11:38:47Z</time>
		</trkpt>
		<trkpt lat="39.453067779541" lon="2.85413289070129">
			<ele>157.5</ele>
			<time>2014-01-02T11:38:49Z</time>
		</trkpt>
		<trkpt lat="39.4531097412109" lon="2.85416793823242">
			<ele>157.5</ele>
			<time>2014-01-02T11:38:50Z</time>
		</trkpt>
		<trkpt lat="39.4531517028809" lon="2.85419917106628">
			<ele>157</ele>
			<time>2014-01-02T11:38:51Z</time>
		</trkpt>
		<trkpt lat="39.4531936645508" lon="2.85423183441162">
			<ele>156.800003051758</ele>
			<time>2014-01-02T11:38:52Z</time>
		</trkpt>
		<trkpt lat="39.4532356262207" lon="2.8542640209198">
			<ele>157.300003051758</ele>
			<time>2014-01-02T11:38:53Z</time>
		</trkpt>
		<trkpt lat="39.4533081054688" lon="2.85432052612305">
			<ele>157.5</ele>
			<time>2014-01-02T11:38:55Z</time>
		</trkpt>
		<trkpt lat="39.4533843994141" lon="2.85437512397766">
			<ele>157.5</ele>
			<time>2014-01-02T11:38:57Z</time>
		</trkpt>
		<trkpt lat="39.4534568786621" lon="2.85443425178528">
			<ele>158.199996948242</ele>
			<time>2014-01-02T11:38:59Z</time>
		</trkpt>
		<trkpt lat="39.4535331726074" lon="2.85448813438416">
			<ele>157.699996948242</ele>
			<time>2014-01-02T11:39:01Z</time>
		</trkpt>
		<trkpt lat="39.4535713195801" lon="2.85451626777649">
			<ele>157.5</ele>
			<time>2014-01-02T11:39:02Z</time>
		</trkpt>
		<trkpt lat="39.4536514282227" lon="2.85457324981689">
			<ele>157.300003051758</ele>
			<time>2014-01-02T11:39:04Z</time>
		</trkpt>
		<trkpt lat="39.453727722168" lon="2.85463118553162">
			<ele>156.899993896484</ele>
			<time>2014-01-02T11:39:06Z</time>
		</trkpt>
		<trkpt lat="39.4537658691406" lon="2.85466003417969">
			<ele>157</ele>
			<time>2014-01-02T11:39:07Z</time>
		</trkpt>
		<trkpt lat="39.4538421630859" lon="2.85470938682556">
			<ele>156.899993896484</ele>
			<time>2014-01-02T11:39:09Z</time>
		</trkpt>
		<trkpt lat="39.453914642334" lon="2.8547580242157">
			<ele>156.199996948242</ele>
			<time>2014-01-02T11:39:11Z</time>
		</trkpt>
		<trkpt lat="39.4539947509766" lon="2.8548002243042">
			<ele>156.199996948242</ele>
			<time>2014-01-02T11:39:13Z</time>
		</trkpt>
		<trkpt lat="39.4540748596191" lon="2.85483527183533">
			<ele>156.399993896484</ele>
			<time>2014-01-02T11:39:15Z</time>
		</trkpt>
		<trkpt lat="39.4541549682617" lon="2.85486364364624">
			<ele>156.5</ele>
			<time>2014-01-02T11:39:17Z</time>
		</trkpt>
		<trkpt lat="39.4542427062988" lon="2.85489106178284">
			<ele>156.300003051758</ele>
			<time>2014-01-02T11:39:19Z</time>
		</trkpt>
		<trkpt lat="39.4543228149414" lon="2.85491514205933">
			<ele>156.5</ele>
			<time>2014-01-02T11:39:21Z</time>
		</trkpt>
		<trkpt lat="39.4543685913086" lon="2.85492587089539">
			<ele>157</ele>
			<time>2014-01-02T11:39:22Z</time>
		</trkpt>
		<trkpt lat="39.4544486999512" lon="2.85494327545166">
			<ele>156.600006103516</ele>
			<time>2014-01-02T11:39:24Z</time>
		</trkpt>
		<trkpt lat="39.4544944763184" lon="2.85495615005493">
			<ele>156.699996948242</ele>
			<time>2014-01-02T11:39:25Z</time>
		</trkpt>
		<trkpt lat="39.4545822143555" lon="2.85497736930847">
			<ele>156.199996948242</ele>
			<time>2014-01-02T11:39:27Z</time>
		</trkpt>
		<trkpt lat="39.4546661376953" lon="2.85500144958496">
			<ele>155.800003051758</ele>
			<time>2014-01-02T11:39:29Z</time>
		</trkpt>
		<trkpt lat="39.4547500610352" lon="2.85502099990845">
			<ele>155.5</ele>
			<time>2014-01-02T11:39:31Z</time>
		</trkpt>
		<trkpt lat="39.4547958374023" lon="2.85502815246582">
			<ele>155.300003051758</ele>
			<time>2014-01-02T11:39:32Z</time>
		</trkpt>
		<trkpt lat="39.4548416137695" lon="2.85504150390625">
			<ele>155.100006103516</ele>
			<time>2014-01-02T11:39:33Z</time>
		</trkpt>
		<trkpt lat="39.454891204834" lon="2.855055809021">
			<ele>155.100006103516</ele>
			<time>2014-01-02T11:39:34Z</time>
		</trkpt>
		<trkpt lat="39.4549369812012" lon="2.85506820678711">
			<ele>154.899993896484</ele>
			<time>2014-01-02T11:39:35Z</time>
		</trkpt>
		<trkpt lat="39.4549865722656" lon="2.85508155822754">
			<ele>155</ele>
			<time>2014-01-02T11:39:36Z</time>
		</trkpt>
		<trkpt lat="39.4550399780273" lon="2.85509419441223">
			<ele>155</ele>
			<time>2014-01-02T11:39:37Z</time>
		</trkpt>
		<trkpt lat="39.4550895690918" lon="2.85510635375977">
			<ele>154.800003051758</ele>
			<time>2014-01-02T11:39:38Z</time>
		</trkpt>
		<trkpt lat="39.4551429748535" lon="2.85511803627014">
			<ele>154.600006103516</ele>
			<time>2014-01-02T11:39:39Z</time>
		</trkpt>
		<trkpt lat="39.4551963806152" lon="2.85513162612915">
			<ele>154.5</ele>
			<time>2014-01-02T11:39:40Z</time>
		</trkpt>
		<trkpt lat="39.4552536010742" lon="2.85514545440674">
			<ele>154.600006103516</ele>
			<time>2014-01-02T11:39:41Z</time>
		</trkpt>
		<trkpt lat="39.4553108215332" lon="2.85515689849854">
			<ele>154.699996948242</ele>
			<time>2014-01-02T11:39:42Z</time>
		</trkpt>
		<trkpt lat="39.4553680419922" lon="2.85516905784607">
			<ele>154.5</ele>
			<time>2014-01-02T11:39:43Z</time>
		</trkpt>
		<trkpt lat="39.4554252624512" lon="2.85518479347229">
			<ele>154.600006103516</ele>
			<time>2014-01-02T11:39:44Z</time>
		</trkpt>
		<trkpt lat="39.4554786682129" lon="2.85519957542419">
			<ele>154.399993896484</ele>
			<time>2014-01-02T11:39:45Z</time>
		</trkpt>
		<trkpt lat="39.4555358886719" lon="2.8552131652832">
			<ele>154.600006103516</ele>
			<time>2014-01-02T11:39:46Z</time>
		</trkpt>
		<trkpt lat="39.4555854797363" lon="2.85522723197937">
			<ele>154.399993896484</ele>
			<time>2014-01-02T11:39:47Z</time>
		</trkpt>
		<trkpt lat="39.4556350708008" lon="2.85524415969849">
			<ele>154.300003051758</ele>
			<time>2014-01-02T11:39:48Z</time>
		</trkpt>
		<trkpt lat="39.4556884765625" lon="2.85526347160339">
			<ele>154.300003051758</ele>
			<time>2014-01-02T11:39:49Z</time>
		</trkpt>
		<trkpt lat="39.4557418823242" lon="2.85528898239136">
			<ele>154.199996948242</ele>
			<time>2014-01-02T11:39:50Z</time>
		</trkpt>
		<trkpt lat="39.4557876586914" lon="2.85531687736511">
			<ele>154.199996948242</ele>
			<time>2014-01-02T11:39:51Z</time>
		</trkpt>
		<trkpt lat="39.4558372497559" lon="2.85535526275635">
			<ele>154</ele>
			<time>2014-01-02T11:39:52Z</time>
		</trkpt>
		<trkpt lat="39.4558792114258" lon="2.85539269447327">
			<ele>154.100006103516</ele>
			<time>2014-01-02T11:39:53Z</time>
		</trkpt>
		<trkpt lat="39.4559211730957" lon="2.85543441772461">
			<ele>153.800003051758</ele>
			<time>2014-01-02T11:39:54Z</time>
		</trkpt>
		<trkpt lat="39.4559669494629" lon="2.8554699420929">
			<ele>154.199996948242</ele>
			<time>2014-01-02T11:39:55Z</time>
		</trkpt>
		<trkpt lat="39.4560127258301" lon="2.8555109500885">
			<ele>154.199996948242</ele>
			<time>2014-01-02T11:39:56Z</time>
		</trkpt>
		<trkpt lat="39.4560585021973" lon="2.85554981231689">
			<ele>154.100006103516</ele>
			<time>2014-01-02T11:39:57Z</time>
		</trkpt>
		<trkpt lat="39.4561042785645" lon="2.85558938980103">
			<ele>153.899993896484</ele>
			<time>2014-01-02T11:39:58Z</time>
		</trkpt>
		<trkpt lat="39.4561462402344" lon="2.85562634468079">
			<ele>153.800003051758</ele>
			<time>2014-01-02T11:39:59Z</time>
		</trkpt>
		<trkpt lat="39.4561920166016" lon="2.85566091537476">
			<ele>153.800003051758</ele>
			<time>2014-01-02T11:40:00Z</time>
		</trkpt>
		<trkpt lat="39.4562339782715" lon="2.85569787025452">
			<ele>153.899993896484</ele>
			<time>2014-01-02T11:40:01Z</time>
		</trkpt>
		<trkpt lat="39.4562759399414" lon="2.85573720932007">
			<ele>153.800003051758</ele>
			<time>2014-01-02T11:40:02Z</time>
		</trkpt>
		<trkpt lat="39.4563179016113" lon="2.85577416419983">
			<ele>154</ele>
			<time>2014-01-02T11:40:03Z</time>
		</trkpt>
		<trkpt lat="39.4563598632813" lon="2.85580968856812">
			<ele>154.100006103516</ele>
			<time>2014-01-02T11:40:04Z</time>
		</trkpt>
		<trkpt lat="39.4563980102539" lon="2.85584425926208">
			<ele>154.199996948242</ele>
			<time>2014-01-02T11:40:05Z</time>
		</trkpt>
		<trkpt lat="39.4564399719238" lon="2.85587954521179">
			<ele>154.300003051758</ele>
			<time>2014-01-02T11:40:06Z</time>
		</trkpt>
		<trkpt lat="39.4564819335938" lon="2.85591292381287">
			<ele>154.5</ele>
			<time>2014-01-02T11:40:07Z</time>
		</trkpt>
		<trkpt lat="39.4565200805664" lon="2.8559455871582">
			<ele>154.699996948242</ele>
			<time>2014-01-02T11:40:08Z</time>
		</trkpt>
		<trkpt lat="39.4565620422363" lon="2.85598158836365">
			<ele>154.800003051758</ele>
			<time>2014-01-02T11:40:09Z</time>
		</trkpt>
		<trkpt lat="39.456600189209" lon="2.85601615905762">
			<ele>154.800003051758</ele>
			<time>2014-01-02T11:40:10Z</time>
		</trkpt>
		<trkpt lat="39.4566421508789" lon="2.85604929924011">
			<ele>154.5</ele>
			<time>2014-01-02T11:40:11Z</time>
		</trkpt>
		<trkpt lat="39.4566841125488" lon="2.85608339309692">
			<ele>154.399993896484</ele>
			<time>2014-01-02T11:40:12Z</time>
		</trkpt>
		<trkpt lat="39.4567260742188" lon="2.85611939430237">
			<ele>154.5</ele>
			<time>2014-01-02T11:40:13Z</time>
		</trkpt>
		<trkpt lat="39.4567680358887" lon="2.85615110397339">
			<ele>154.5</ele>
			<time>2014-01-02T11:40:14Z</time>
		</trkpt>
		<trkpt lat="39.4568061828613" lon="2.85618782043457">
			<ele>154.199996948242</ele>
			<time>2014-01-02T11:40:15Z</time>
		</trkpt>
		<trkpt lat="39.456844329834" lon="2.85622596740723">
			<ele>154.199996948242</ele>
			<time>2014-01-02T11:40:16Z</time>
		</trkpt>
		<trkpt lat="39.4568824768066" lon="2.85626316070557">
			<ele>154.199996948242</ele>
			<time>2014-01-02T11:40:17Z</time>
		</trkpt>
		<trkpt lat="39.4569625854492" lon="2.8563244342804">
			<ele>154</ele>
			<time>2014-01-02T11:40:19Z</time>
		</trkpt>
		<trkpt lat="39.4570007324219" lon="2.85635495185852">
			<ele>154.100006103516</ele>
			<time>2014-01-02T11:40:20Z</time>
		</trkpt>
		<trkpt lat="39.4570388793945" lon="2.85638809204102">
			<ele>154.399993896484</ele>
			<time>2014-01-02T11:40:21Z</time>
		</trkpt>
		<trkpt lat="39.4570770263672" lon="2.85642051696777">
			<ele>154.600006103516</ele>
			<time>2014-01-02T11:40:22Z</time>
		</trkpt>
		<trkpt lat="39.4571151733398" lon="2.85645627975464">
			<ele>154.600006103516</ele>
			<time>2014-01-02T11:40:23Z</time>
		</trkpt>
		<trkpt lat="39.4571571350098" lon="2.85648202896118">
			<ele>154.600006103516</ele>
			<time>2014-01-02T11:40:24Z</time>
		</trkpt>
		<trkpt lat="39.4571914672852" lon="2.856525182724">
			<ele>154.600006103516</ele>
			<time>2014-01-02T11:40:25Z</time>
		</trkpt>
		<trkpt lat="39.4572601318359" lon="2.85657835006714">
			<ele>155.199996948242</ele>
			<time>2014-01-02T11:40:27Z</time>
		</trkpt>
		<trkpt lat="39.4573364257813" lon="2.85663390159607">
			<ele>155.5</ele>
			<time>2014-01-02T11:40:29Z</time>
		</trkpt>
		<trkpt lat="39.4573783874512" lon="2.85666251182556">
			<ele>156.199996948242</ele>
			<time>2014-01-02T11:40:30Z</time>
		</trkpt>
		<trkpt lat="39.4574394226074" lon="2.85671734809875">
			<ele>156.399993896484</ele>
			<time>2014-01-02T11:40:32Z</time>
		</trkpt>
		<trkpt lat="39.4575119018555" lon="2.85678172111511">
			<ele>156.600006103516</ele>
			<time>2014-01-02T11:40:34Z</time>
		</trkpt>
		<trkpt lat="39.4575500488281" lon="2.85681700706482">
			<ele>156.600006103516</ele>
			<time>2014-01-02T11:40:35Z</time>
		</trkpt>
		<trkpt lat="39.4576187133789" lon="2.85687971115112">
			<ele>156.800003051758</ele>
			<time>2014-01-02T11:40:37Z</time>
		</trkpt>
		<trkpt lat="39.4576835632324" lon="2.85693907737732">
			<ele>157.100006103516</ele>
			<time>2014-01-02T11:40:39Z</time>
		</trkpt>
		<trkpt lat="39.4577522277832" lon="2.8569962978363">
			<ele>157.300003051758</ele>
			<time>2014-01-02T11:40:41Z</time>
		</trkpt>
		<trkpt lat="39.457820892334" lon="2.8570511341095">
			<ele>157.399993896484</ele>
			<time>2014-01-02T11:40:43Z</time>
		</trkpt>
		<trkpt lat="39.4578819274902" lon="2.85710906982422">
			<ele>157.600006103516</ele>
			<time>2014-01-02T11:40:45Z</time>
		</trkpt>
		<trkpt lat="39.457950592041" lon="2.85716557502747">
			<ele>157.600006103516</ele>
			<time>2014-01-02T11:40:47Z</time>
		</trkpt>
		<trkpt lat="39.4580192565918" lon="2.85722494125366">
			<ele>158</ele>
			<time>2014-01-02T11:40:49Z</time>
		</trkpt>
		<trkpt lat="39.458080291748" lon="2.85728025436401">
			<ele>158.199996948242</ele>
			<time>2014-01-02T11:40:51Z</time>
		</trkpt>
		<trkpt lat="39.4581527709961" lon="2.85734176635742">
			<ele>157.899993896484</ele>
			<time>2014-01-02T11:40:53Z</time>
		</trkpt>
		<trkpt lat="39.4581909179688" lon="2.85737466812134">
			<ele>158</ele>
			<time>2014-01-02T11:40:54Z</time>
		</trkpt>
		<trkpt lat="39.4582633972168" lon="2.85743641853333">
			<ele>158.600006103516</ele>
			<time>2014-01-02T11:40:56Z</time>
		</trkpt>
		<trkpt lat="39.4583396911621" lon="2.85749959945679">
			<ele>158.5</ele>
			<time>2014-01-02T11:40:58Z</time>
		</trkpt>
		<trkpt lat="39.4583778381348" lon="2.85753273963928">
			<ele>158.199996948242</ele>
			<time>2014-01-02T11:40:59Z</time>
		</trkpt>
		<trkpt lat="39.4584579467773" lon="2.85759878158569">
			<ele>158.300003051758</ele>
			<time>2014-01-02T11:41:01Z</time>
		</trkpt>
		<trkpt lat="39.4585304260254" lon="2.85766410827637">
			<ele>157.399993896484</ele>
			<time>2014-01-02T11:41:03Z</time>
		</trkpt>
		<trkpt lat="39.4586029052734" lon="2.8577241897583">
			<ele>157.399993896484</ele>
			<time>2014-01-02T11:41:05Z</time>
		</trkpt>
		<trkpt lat="39.4586715698242" lon="2.85778474807739">
			<ele>157.300003051758</ele>
			<time>2014-01-02T11:41:07Z</time>
		</trkpt>
		<trkpt lat="39.4587478637695" lon="2.85785365104675">
			<ele>157</ele>
			<time>2014-01-02T11:41:09Z</time>
		</trkpt>
		<trkpt lat="39.4587821960449" lon="2.85788702964783">
			<ele>157.300003051758</ele>
			<time>2014-01-02T11:41:10Z</time>
		</trkpt>
		<trkpt lat="39.458854675293" lon="2.85795569419861">
			<ele>157</ele>
			<time>2014-01-02T11:41:12Z</time>
		</trkpt>
		<trkpt lat="39.4589309692383" lon="2.8580207824707">
			<ele>157.399993896484</ele>
			<time>2014-01-02T11:41:14Z</time>
		</trkpt>
		<trkpt lat="39.4589653015137" lon="2.85805678367615">
			<ele>157.199996948242</ele>
			<time>2014-01-02T11:41:15Z</time>
		</trkpt>
		<trkpt lat="39.4590110778809" lon="2.85809588432312">
			<ele>156.899993896484</ele>
			<time>2014-01-02T11:41:16Z</time>
		</trkpt>
		<trkpt lat="39.4590492248535" lon="2.8581280708313">
			<ele>157.399993896484</ele>
			<time>2014-01-02T11:41:17Z</time>
		</trkpt>
		<trkpt lat="39.4590950012207" lon="2.8581554889679">
			<ele>157</ele>
			<time>2014-01-02T11:41:18Z</time>
		</trkpt>
		<trkpt lat="39.4591331481934" lon="2.85819411277771">
			<ele>156.899993896484</ele>
			<time>2014-01-02T11:41:19Z</time>
		</trkpt>
		<trkpt lat="39.4591674804688" lon="2.85823440551758">
			<ele>156.899993896484</ele>
			<time>2014-01-02T11:41:20Z</time>
		</trkpt>
		<trkpt lat="39.4592399597168" lon="2.85830116271973">
			<ele>156.5</ele>
			<time>2014-01-02T11:41:22Z</time>
		</trkpt>
		<trkpt lat="39.4592781066895" lon="2.85834217071533">
			<ele>157</ele>
			<time>2014-01-02T11:41:23Z</time>
		</trkpt>
		<trkpt lat="39.4593200683594" lon="2.85837602615356">
			<ele>157.399993896484</ele>
			<time>2014-01-02T11:41:24Z</time>
		</trkpt>
		<trkpt lat="39.459358215332" lon="2.85841178894043">
			<ele>157.5</ele>
			<time>2014-01-02T11:41:25Z</time>
		</trkpt>
		<trkpt lat="39.4594306945801" lon="2.85847687721252">
			<ele>156.800003051758</ele>
			<time>2014-01-02T11:41:27Z</time>
		</trkpt>
		<trkpt lat="39.4595031738281" lon="2.85854649543762">
			<ele>157</ele>
			<time>2014-01-02T11:41:29Z</time>
		</trkpt>
		<trkpt lat="39.4595756530762" lon="2.8586208820343">
			<ele>157.199996948242</ele>
			<time>2014-01-02T11:41:31Z</time>
		</trkpt>
		<trkpt lat="39.4596481323242" lon="2.85868906974792">
			<ele>156.800003051758</ele>
			<time>2014-01-02T11:41:33Z</time>
		</trkpt>
		<trkpt lat="39.4596862792969" lon="2.85872554779053">
			<ele>156.899993896484</ele>
			<time>2014-01-02T11:41:34Z</time>
		</trkpt>
		<trkpt lat="39.4597244262695" lon="2.8587601184845">
			<ele>157</ele>
			<time>2014-01-02T11:41:35Z</time>
		</trkpt>
		<trkpt lat="39.4597969055176" lon="2.85883402824402">
			<ele>156.800003051758</ele>
			<time>2014-01-02T11:41:37Z</time>
		</trkpt>
		<trkpt lat="39.4598350524902" lon="2.85887265205383">
			<ele>156.800003051758</ele>
			<time>2014-01-02T11:41:38Z</time>
		</trkpt>
		<trkpt lat="39.4598846435547" lon="2.85890054702759">
			<ele>156.5</ele>
			<time>2014-01-02T11:41:39Z</time>
		</trkpt>
		<trkpt lat="39.4599266052246" lon="2.85892915725708">
			<ele>156.699996948242</ele>
			<time>2014-01-02T11:41:40Z</time>
		</trkpt>
		<trkpt lat="39.4599647521973" lon="2.85896611213684">
			<ele>156.699996948242</ele>
			<time>2014-01-02T11:41:41Z</time>
		</trkpt>
		<trkpt lat="39.4600028991699" lon="2.85900616645813">
			<ele>156.699996948242</ele>
			<time>2014-01-02T11:41:42Z</time>
		</trkpt>
		<trkpt lat="39.460075378418" lon="2.85907483100891">
			<ele>157.100006103516</ele>
			<time>2014-01-02T11:41:44Z</time>
		</trkpt>
		<trkpt lat="39.4601211547852" lon="2.85910677909851">
			<ele>157.800003051758</ele>
			<time>2014-01-02T11:41:45Z</time>
		</trkpt>
		<trkpt lat="39.4601669311523" lon="2.85914969444275">
			<ele>158</ele>
			<time>2014-01-02T11:41:46Z</time>
		</trkpt>
		<trkpt lat="39.4602127075195" lon="2.8591902256012">
			<ele>158.100006103516</ele>
			<time>2014-01-02T11:41:47Z</time>
		</trkpt>
		<trkpt lat="39.4602813720703" lon="2.85925841331482">
			<ele>157</ele>
			<time>2014-01-02T11:41:49Z</time>
		</trkpt>
		<trkpt lat="39.4603233337402" lon="2.85929822921753">
			<ele>156.899993896484</ele>
			<time>2014-01-02T11:41:50Z</time>
		</trkpt>
		<trkpt lat="39.4603576660156" lon="2.85933637619019">
			<ele>156.899993896484</ele>
			<time>2014-01-02T11:41:51Z</time>
		</trkpt>
		<trkpt lat="39.4603996276855" lon="2.85937786102295">
			<ele>156.699996948242</ele>
			<time>2014-01-02T11:41:52Z</time>
		</trkpt>
		<trkpt lat="39.4604454040527" lon="2.85941624641418">
			<ele>156.600006103516</ele>
			<time>2014-01-02T11:41:53Z</time>
		</trkpt>
		<trkpt lat="39.4604911804199" lon="2.85945415496826">
			<ele>156.800003051758</ele>
			<time>2014-01-02T11:41:54Z</time>
		</trkpt>
		<trkpt lat="39.4605369567871" lon="2.85949349403381">
			<ele>156.899993896484</ele>
			<time>2014-01-02T11:41:55Z</time>
		</trkpt>
		<trkpt lat="39.4605751037598" lon="2.85953330993652">
			<ele>156.800003051758</ele>
			<time>2014-01-02T11:41:56Z</time>
		</trkpt>
		<trkpt lat="39.4606170654297" lon="2.85957527160645">
			<ele>156.5</ele>
			<time>2014-01-02T11:41:57Z</time>
		</trkpt>
		<trkpt lat="39.4606475830078" lon="2.85961771011353">
			<ele>155.300003051758</ele>
			<time>2014-01-02T11:41:58Z</time>
		</trkpt>
		<trkpt lat="39.4607009887695" lon="2.85964751243591">
			<ele>156.800003051758</ele>
			<time>2014-01-02T11:41:59Z</time>
		</trkpt>
		<trkpt lat="39.4607429504395" lon="2.85968255996704">
			<ele>157.100006103516</ele>
			<time>2014-01-02T11:42:00Z</time>
		</trkpt>
		<trkpt lat="39.4607887268066" lon="2.85971474647522">
			<ele>157.199996948242</ele>
			<time>2014-01-02T11:42:01Z</time>
		</trkpt>
		<trkpt lat="39.4608573913574" lon="2.85979175567627">
			<ele>156.399993896484</ele>
			<time>2014-01-02T11:42:03Z</time>
		</trkpt>
		<trkpt lat="39.4608993530273" lon="2.85986733436584">
			<ele>155.600006103516</ele>
			<time>2014-01-02T11:42:05Z</time>
		</trkpt>
		<trkpt lat="39.4609413146973" lon="2.85992980003357">
			<ele>155.199996948242</ele>
			<time>2014-01-02T11:42:07Z</time>
		</trkpt>
		<trkpt lat="39.4610557556152" lon="2.85996270179749">
			<ele>156.899993896484</ele>
			<time>2014-01-02T11:42:08Z</time>
		</trkpt>
		<trkpt lat="39.4611053466797" lon="2.85999059677124">
			<ele>157.399993896484</ele>
			<time>2014-01-02T11:42:09Z</time>
		</trkpt>
		<trkpt lat="39.461181640625" lon="2.86005735397339">
			<ele>157.100006103516</ele>
			<time>2014-01-02T11:42:11Z</time>
		</trkpt>
		<trkpt lat="39.4612503051758" lon="2.86011075973511">
			<ele>156.699996948242</ele>
			<time>2014-01-02T11:42:13Z</time>
		</trkpt>
		<trkpt lat="39.4613189697266" lon="2.8601598739624">
			<ele>156.899993896484</ele>
			<time>2014-01-02T11:42:15Z</time>
		</trkpt>
		<trkpt lat="39.4613876342773" lon="2.86022019386292">
			<ele>156.899993896484</ele>
			<time>2014-01-02T11:42:17Z</time>
		</trkpt>
		<trkpt lat="39.4614448547363" lon="2.86026859283447">
			<ele>156.100006103516</ele>
			<time>2014-01-02T11:42:19Z</time>
		</trkpt>
		<trkpt lat="39.4615173339844" lon="2.86030435562134">
			<ele>154.899993896484</ele>
			<time>2014-01-02T11:42:21Z</time>
		</trkpt>
		<trkpt lat="39.4615936279297" lon="2.86036086082458">
			<ele>154.600006103516</ele>
			<time>2014-01-02T11:42:23Z</time>
		</trkpt>
		<trkpt lat="39.4616394042969" lon="2.86039233207703">
			<ele>154.800003051758</ele>
			<time>2014-01-02T11:42:24Z</time>
		</trkpt>
		<trkpt lat="39.4617195129395" lon="2.86044025421143">
			<ele>155.100006103516</ele>
			<time>2014-01-02T11:42:26Z</time>
		</trkpt>
		<trkpt lat="39.4617614746094" lon="2.86048078536987">
			<ele>154.699996948242</ele>
			<time>2014-01-02T11:42:27Z</time>
		</trkpt>
		<trkpt lat="39.4618034362793" lon="2.86051821708679">
			<ele>155</ele>
			<time>2014-01-02T11:42:28Z</time>
		</trkpt>
		<trkpt lat="39.4618453979492" lon="2.86055302619934">
			<ele>155.199996948242</ele>
			<time>2014-01-02T11:42:29Z</time>
		</trkpt>
		<trkpt lat="39.4618835449219" lon="2.86058449745178">
			<ele>155.600006103516</ele>
			<time>2014-01-02T11:42:30Z</time>
		</trkpt>
		<trkpt lat="39.4619255065918" lon="2.86062240600586">
			<ele>155.800003051758</ele>
			<time>2014-01-02T11:42:31Z</time>
		</trkpt>
		<trkpt lat="39.4619636535645" lon="2.86065530776978">
			<ele>155.800003051758</ele>
			<time>2014-01-02T11:42:32Z</time>
		</trkpt>
		<trkpt lat="39.4620361328125" lon="2.86072373390198">
			<ele>156</ele>
			<time>2014-01-02T11:42:34Z</time>
		</trkpt>
		<trkpt lat="39.4621162414551" lon="2.8607873916626">
			<ele>156.5</ele>
			<time>2014-01-02T11:42:36Z</time>
		</trkpt>
		<trkpt lat="39.4621543884277" lon="2.8608226776123">
			<ele>156.5</ele>
			<time>2014-01-02T11:42:37Z</time>
		</trkpt>
		<trkpt lat="39.4622192382813" lon="2.86088347434998">
			<ele>156.300003051758</ele>
			<time>2014-01-02T11:42:39Z</time>
		</trkpt>
		<trkpt lat="39.4622573852539" lon="2.86091995239258">
			<ele>156.199996948242</ele>
			<time>2014-01-02T11:42:40Z</time>
		</trkpt>
		<trkpt lat="39.4623260498047" lon="2.86098074913025">
			<ele>156.399993896484</ele>
			<time>2014-01-02T11:42:42Z</time>
		</trkpt>
		<trkpt lat="39.4623680114746" lon="2.86101508140564">
			<ele>156.199996948242</ele>
			<time>2014-01-02T11:42:43Z</time>
		</trkpt>
		<trkpt lat="39.4624404907227" lon="2.86108231544495">
			<ele>155.899993896484</ele>
			<time>2014-01-02T11:42:45Z</time>
		</trkpt>
		<trkpt lat="39.4624824523926" lon="2.86111497879028">
			<ele>156.199996948242</ele>
			<time>2014-01-02T11:42:46Z</time>
		</trkpt>
		<trkpt lat="39.4625549316406" lon="2.86118006706238">
			<ele>156.5</ele>
			<time>2014-01-02T11:42:48Z</time>
		</trkpt>
		<trkpt lat="39.4625930786133" lon="2.86121273040771">
			<ele>156.800003051758</ele>
			<time>2014-01-02T11:42:49Z</time>
		</trkpt>
		<trkpt lat="39.4626655578613" lon="2.86127948760986">
			<ele>156.399993896484</ele>
			<time>2014-01-02T11:42:51Z</time>
		</trkpt>
		<trkpt lat="39.4627456665039" lon="2.86134147644043">
			<ele>156.600006103516</ele>
			<time>2014-01-02T11:42:53Z</time>
		</trkpt>
		<trkpt lat="39.4628143310547" lon="2.86140656471252">
			<ele>157.100006103516</ele>
			<time>2014-01-02T11:42:55Z</time>
		</trkpt>
		<trkpt lat="39.4628829956055" lon="2.86146688461304">
			<ele>157.300003051758</ele>
			<time>2014-01-02T11:42:57Z</time>
		</trkpt>
		<trkpt lat="39.4629516601563" lon="2.86152791976929">
			<ele>157.399993896484</ele>
			<time>2014-01-02T11:42:59Z</time>
		</trkpt>
		<trkpt lat="39.463020324707" lon="2.86158776283264">
			<ele>157.699996948242</ele>
			<time>2014-01-02T11:43:01Z</time>
		</trkpt>
		<trkpt lat="39.4630928039551" lon="2.86164784431458">
			<ele>157.399993896484</ele>
			<time>2014-01-02T11:43:03Z</time>
		</trkpt>
		<trkpt lat="39.4631614685059" lon="2.86170983314514">
			<ele>157.5</ele>
			<time>2014-01-02T11:43:05Z</time>
		</trkpt>
		<trkpt lat="39.4632339477539" lon="2.86177325248718">
			<ele>157.399993896484</ele>
			<time>2014-01-02T11:43:07Z</time>
		</trkpt>
		<trkpt lat="39.4633026123047" lon="2.86183762550354">
			<ele>157.399993896484</ele>
			<time>2014-01-02T11:43:09Z</time>
		</trkpt>
		<trkpt lat="39.4633750915527" lon="2.86190509796143">
			<ele>156.899993896484</ele>
			<time>2014-01-02T11:43:11Z</time>
		</trkpt>
		<trkpt lat="39.4634437561035" lon="2.86196899414063">
			<ele>157.199996948242</ele>
			<time>2014-01-02T11:43:13Z</time>
		</trkpt>
		<trkpt lat="39.4635162353516" lon="2.86202883720398">
			<ele>156.800003051758</ele>
			<time>2014-01-02T11:43:15Z</time>
		</trkpt>
		<trkpt lat="39.4635848999023" lon="2.8620913028717">
			<ele>156.600006103516</ele>
			<time>2014-01-02T11:43:17Z</time>
		</trkpt>
		<trkpt lat="39.4636573791504" lon="2.86215281486511">
			<ele>157</ele>
			<time>2014-01-02T11:43:19Z</time>
		</trkpt>
		<trkpt lat="39.4637260437012" lon="2.86221694946289">
			<ele>156.600006103516</ele>
			<time>2014-01-02T11:43:21Z</time>
		</trkpt>
		<trkpt lat="39.463794708252" lon="2.86227750778198">
			<ele>156.300003051758</ele>
			<time>2014-01-02T11:43:23Z</time>
		</trkpt>
		<trkpt lat="39.4638633728027" lon="2.8623378276825">
			<ele>156</ele>
			<time>2014-01-02T11:43:25Z</time>
		</trkpt>
		<trkpt lat="39.4639358520508" lon="2.86239910125732">
			<ele>156.100006103516</ele>
			<time>2014-01-02T11:43:27Z</time>
		</trkpt>
		<trkpt lat="39.4640045166016" lon="2.86245918273926">
			<ele>156.300003051758</ele>
			<time>2014-01-02T11:43:29Z</time>
		</trkpt>
		<trkpt lat="39.4640769958496" lon="2.86252331733704">
			<ele>156.199996948242</ele>
			<time>2014-01-02T11:43:31Z</time>
		</trkpt>
		<trkpt lat="39.4641456604004" lon="2.86258292198181">
			<ele>156</ele>
			<time>2014-01-02T11:43:33Z</time>
		</trkpt>
		<trkpt lat="39.4642181396484" lon="2.8626434803009">
			<ele>156.199996948242</ele>
			<time>2014-01-02T11:43:35Z</time>
		</trkpt>
		<trkpt lat="39.464282989502" lon="2.86270809173584">
			<ele>156.300003051758</ele>
			<time>2014-01-02T11:43:37Z</time>
		</trkpt>
		<trkpt lat="39.46435546875" lon="2.86276912689209">
			<ele>156.199996948242</ele>
			<time>2014-01-02T11:43:39Z</time>
		</trkpt>
		<trkpt lat="39.464427947998" lon="2.86282801628113">
			<ele>156.800003051758</ele>
			<time>2014-01-02T11:43:41Z</time>
		</trkpt>
		<trkpt lat="39.4644927978516" lon="2.86288857460022">
			<ele>156.800003051758</ele>
			<time>2014-01-02T11:43:43Z</time>
		</trkpt>
		<trkpt lat="39.4645614624023" lon="2.86294627189636">
			<ele>156.800003051758</ele>
			<time>2014-01-02T11:43:45Z</time>
		</trkpt>
		<trkpt lat="39.4646263122559" lon="2.86300349235535">
			<ele>156.800003051758</ele>
			<time>2014-01-02T11:43:47Z</time>
		</trkpt>
		<trkpt lat="39.4646911621094" lon="2.86305975914001">
			<ele>156.800003051758</ele>
			<time>2014-01-02T11:43:49Z</time>
		</trkpt>
		<trkpt lat="39.4647521972656" lon="2.86310935020447">
			<ele>157</ele>
			<time>2014-01-02T11:43:51Z</time>
		</trkpt>
		<trkpt lat="39.4648132324219" lon="2.86315989494324">
			<ele>157.100006103516</ele>
			<time>2014-01-02T11:43:53Z</time>
		</trkpt>
		<trkpt lat="39.4648628234863" lon="2.86320114135742">
			<ele>157</ele>
			<time>2014-01-02T11:43:55Z</time>
		</trkpt>
		<trkpt lat="39.4649085998535" lon="2.86324644088745">
			<ele>157.199996948242</ele>
			<time>2014-01-02T11:43:57Z</time>
		</trkpt>
		<trkpt lat="39.4649391174316" lon="2.86329364776611">
			<ele>157.300003051758</ele>
			<time>2014-01-02T11:43:59Z</time>
		</trkpt>
		<trkpt lat="39.4649887084961" lon="2.86330842971802">
			<ele>156.5</ele>
			<time>2014-01-02T11:44:02Z</time>
		</trkpt>
		<trkpt lat="39.4650459289551" lon="2.86333155632019">
			<ele>155.699996948242</ele>
			<time>2014-01-02T11:44:07Z</time>
		</trkpt>
		<trkpt lat="39.4651031494141" lon="2.86336803436279">
			<ele>155.5</ele>
			<time>2014-01-02T11:44:11Z</time>
		</trkpt>
		<trkpt lat="39.4651527404785" lon="2.86339926719666">
			<ele>155.399993896484</ele>
			<time>2014-01-02T11:44:14Z</time>
		</trkpt>
		<trkpt lat="39.465202331543" lon="2.86343169212341">
			<ele>155.800003051758</ele>
			<time>2014-01-02T11:44:17Z</time>
		</trkpt>
		<trkpt lat="39.465259552002" lon="2.86345624923706">
			<ele>156.100006103516</ele>
			<time>2014-01-02T11:44:20Z</time>
		</trkpt>
		<trkpt lat="39.4652976989746" lon="2.86348533630371">
			<ele>157.899993896484</ele>
			<time>2014-01-02T11:47:40Z</time>
		</trkpt>
		<trkpt lat="39.4653472900391" lon="2.86351251602173">
			<ele>158.399993896484</ele>
			<time>2014-01-02T11:47:46Z</time>
		</trkpt>
		<trkpt lat="39.4654006958008" lon="2.86353540420532">
			<ele>159.300003051758</ele>
			<time>2014-01-02T11:47:52Z</time>
		</trkpt>
		<trkpt lat="39.4654426574707" lon="2.86355924606323">
			<ele>159.600006103516</ele>
			<time>2014-01-02T11:47:57Z</time>
		</trkpt>
		<trkpt lat="39.4654846191406" lon="2.86357855796814">
			<ele>159.399993896484</ele>
			<time>2014-01-02T11:48:02Z</time>
		</trkpt>
		<trkpt lat="39.4655342102051" lon="2.86360287666321">
			<ele>159.5</ele>
			<time>2014-01-02T11:48:08Z</time>
		</trkpt>
		<trkpt lat="39.4655799865723" lon="2.86363387107849">
			<ele>159.600006103516</ele>
			<time>2014-01-02T11:48:14Z</time>
		</trkpt>
		<trkpt lat="39.4656295776367" lon="2.86366367340088">
			<ele>158.899993896484</ele>
			<time>2014-01-02T11:48:20Z</time>
		</trkpt>
		<trkpt lat="39.4656715393066" lon="2.863694190979">
			<ele>158.800003051758</ele>
			<time>2014-01-02T11:48:25Z</time>
		</trkpt>
		<trkpt lat="39.4657173156738" lon="2.86371827125549">
			<ele>158.5</ele>
			<time>2014-01-02T11:48:30Z</time>
		</trkpt>
		<trkpt lat="39.465763092041" lon="2.86374759674072">
			<ele>158.5</ele>
			<time>2014-01-02T11:48:36Z</time>
		</trkpt>
		<trkpt lat="39.4658050537109" lon="2.86377024650574">
			<ele>159.300003051758</ele>
			<time>2014-01-02T11:48:41Z</time>
		</trkpt>
		<trkpt lat="39.4658584594727" lon="2.8637957572937">
			<ele>159.800003051758</ele>
			<time>2014-01-02T11:48:47Z</time>
		</trkpt>
		<trkpt lat="39.4658966064453" lon="2.86382031440735">
			<ele>159.5</ele>
			<time>2014-01-02T11:48:52Z</time>
		</trkpt>
		<trkpt lat="39.4659423828125" lon="2.86384725570679">
			<ele>159.600006103516</ele>
			<time>2014-01-02T11:48:57Z</time>
		</trkpt>
		<trkpt lat="39.4659843444824" lon="2.86387014389038">
			<ele>160.100006103516</ele>
			<time>2014-01-02T11:49:02Z</time>
		</trkpt>
		<trkpt lat="39.4660339355469" lon="2.86389780044556">
			<ele>160.199996948242</ele>
			<time>2014-01-02T11:49:08Z</time>
		</trkpt>
		<trkpt lat="39.4660758972168" lon="2.86392569541931">
			<ele>160.800003051758</ele>
			<time>2014-01-02T11:49:13Z</time>
		</trkpt>
		<trkpt lat="39.4661178588867" lon="2.86394858360291">
			<ele>160.699996948242</ele>
			<time>2014-01-02T11:49:18Z</time>
		</trkpt>
		<trkpt lat="39.4661636352539" lon="2.8639714717865">
			<ele>160.300003051758</ele>
			<time>2014-01-02T11:49:23Z</time>
		</trkpt>
		<trkpt lat="39.4662094116211" lon="2.86400485038757">
			<ele>160</ele>
			<time>2014-01-02T11:49:28Z</time>
		</trkpt>
		<trkpt lat="39.4662551879883" lon="2.86402821540833">
			<ele>159.800003051758</ele>
			<time>2014-01-02T11:49:33Z</time>
		</trkpt>
		<trkpt lat="39.4662971496582" lon="2.86406087875366">
			<ele>159.5</ele>
			<time>2014-01-02T11:49:38Z</time>
		</trkpt>
		<trkpt lat="39.4663391113281" lon="2.86408519744873">
			<ele>160.199996948242</ele>
			<time>2014-01-02T11:49:43Z</time>
		</trkpt>
		<trkpt lat="39.466381072998" lon="2.86411714553833">
			<ele>160</ele>
			<time>2014-01-02T11:49:48Z</time>
		</trkpt>
		<trkpt lat="39.4664192199707" lon="2.86415219306946">
			<ele>159.699996948242</ele>
			<time>2014-01-02T11:49:53Z</time>
		</trkpt>
		<trkpt lat="39.4664649963379" lon="2.86417937278748">
			<ele>159.699996948242</ele>
			<time>2014-01-02T11:49:58Z</time>
		</trkpt>
		<trkpt lat="39.4665107727051" lon="2.86420631408691">
			<ele>159.199996948242</ele>
			<time>2014-01-02T11:50:03Z</time>
		</trkpt>
		<trkpt lat="39.466552734375" lon="2.86423206329346">
			<ele>159.199996948242</ele>
			<time>2014-01-02T11:50:08Z</time>
		</trkpt>
		<trkpt lat="39.4666023254395" lon="2.86426424980164">
			<ele>159.600006103516</ele>
			<time>2014-01-02T11:50:14Z</time>
		</trkpt>
		<trkpt lat="39.4666442871094" lon="2.86428570747375">
			<ele>159.300003051758</ele>
			<time>2014-01-02T11:50:19Z</time>
		</trkpt>
		<trkpt lat="39.4666862487793" lon="2.86430931091309">
			<ele>159.699996948242</ele>
			<time>2014-01-02T11:50:24Z</time>
		</trkpt>
		<trkpt lat="39.4667358398438" lon="2.86434459686279">
			<ele>158.800003051758</ele>
			<time>2014-01-02T11:50:30Z</time>
		</trkpt>
		<trkpt lat="39.4667778015137" lon="2.86438035964966">
			<ele>158.399993896484</ele>
			<time>2014-01-02T11:50:36Z</time>
		</trkpt>
		<trkpt lat="39.4668235778809" lon="2.86441135406494">
			<ele>158.399993896484</ele>
			<time>2014-01-02T11:50:42Z</time>
		</trkpt>
		<trkpt lat="39.466869354248" lon="2.86444520950317">
			<ele>158.800003051758</ele>
			<time>2014-01-02T11:50:48Z</time>
		</trkpt>
		<trkpt lat="39.466911315918" lon="2.86448073387146">
			<ele>159.399993896484</ele>
			<time>2014-01-02T11:50:54Z</time>
		</trkpt>
		<trkpt lat="39.4669494628906" lon="2.86451959609985">
			<ele>159.199996948242</ele>
			<time>2014-01-02T11:50:59Z</time>
		</trkpt>
		<trkpt lat="39.4669876098633" lon="2.8645544052124">
			<ele>159.5</ele>
			<time>2014-01-02T11:51:04Z</time>
		</trkpt>
		<trkpt lat="39.4670257568359" lon="2.86458945274353">
			<ele>159.300003051758</ele>
			<time>2014-01-02T11:51:09Z</time>
		</trkpt>
		<trkpt lat="39.4670677185059" lon="2.86462211608887">
			<ele>159.300003051758</ele>
			<time>2014-01-02T11:51:14Z</time>
		</trkpt>
		<trkpt lat="39.4671096801758" lon="2.86465549468994">
			<ele>159.300003051758</ele>
			<time>2014-01-02T11:51:19Z</time>
		</trkpt>
		<trkpt lat="39.4671516418457" lon="2.86469149589539">
			<ele>159.600006103516</ele>
			<time>2014-01-02T11:51:24Z</time>
		</trkpt>
		<trkpt lat="39.4671897888184" lon="2.86472582817078">
			<ele>159.5</ele>
			<time>2014-01-02T11:51:29Z</time>
		</trkpt>
		<trkpt lat="39.4672317504883" lon="2.86475825309753">
			<ele>159.800003051758</ele>
			<time>2014-01-02T11:51:34Z</time>
		</trkpt>
		<trkpt lat="39.4672698974609" lon="2.86479139328003">
			<ele>159.800003051758</ele>
			<time>2014-01-02T11:51:39Z</time>
		</trkpt>
		<trkpt lat="39.4673156738281" lon="2.86483240127563">
			<ele>159.899993896484</ele>
			<time>2014-01-02T11:51:44Z</time>
		</trkpt>
		<trkpt lat="39.467357635498" lon="2.86487126350403">
			<ele>159.600006103516</ele>
			<time>2014-01-02T11:51:49Z</time>
		</trkpt>
		<trkpt lat="39.467399597168" lon="2.86491012573242">
			<ele>159.600006103516</ele>
			<time>2014-01-02T11:51:54Z</time>
		</trkpt>
		<trkpt lat="39.4674453735352" lon="2.86494922637939">
			<ele>159.199996948242</ele>
			<time>2014-01-02T11:51:59Z</time>
		</trkpt>
		<trkpt lat="39.4674873352051" lon="2.86498403549194">
			<ele>159.300003051758</ele>
			<time>2014-01-02T11:52:04Z</time>
		</trkpt>
		<trkpt lat="39.467529296875" lon="2.8650267124176">
			<ele>159.300003051758</ele>
			<time>2014-01-02T11:52:09Z</time>
		</trkpt>
		<trkpt lat="39.4675712585449" lon="2.86506175994873">
			<ele>159.399993896484</ele>
			<time>2014-01-02T11:52:14Z</time>
		</trkpt>
		<trkpt lat="39.4676132202148" lon="2.86509799957275">
			<ele>159.199996948242</ele>
			<time>2014-01-02T11:52:19Z</time>
		</trkpt>
		<trkpt lat="39.4676551818848" lon="2.86513066291809">
			<ele>159.399993896484</ele>
			<time>2014-01-02T11:52:24Z</time>
		</trkpt>
		<trkpt lat="39.4676971435547" lon="2.86517000198364">
			<ele>159.399993896484</ele>
			<time>2014-01-02T11:52:29Z</time>
		</trkpt>
		<trkpt lat="39.4677352905273" lon="2.8652069568634">
			<ele>159.5</ele>
			<time>2014-01-02T11:52:34Z</time>
		</trkpt>
		<trkpt lat="39.4677810668945" lon="2.86524033546448">
			<ele>159.100006103516</ele>
			<time>2014-01-02T11:52:50Z</time>
		</trkpt>
		<trkpt lat="39.4678192138672" lon="2.86527633666992">
			<ele>159.100006103516</ele>
			<time>2014-01-02T11:52:55Z</time>
		</trkpt>
		<trkpt lat="39.4678535461426" lon="2.86531639099121">
			<ele>159.199996948242</ele>
			<time>2014-01-02T11:53:00Z</time>
		</trkpt>
		<trkpt lat="39.4678916931152" lon="2.86535620689392">
			<ele>158.899993896484</ele>
			<time>2014-01-02T11:53:05Z</time>
		</trkpt>
		<trkpt lat="39.4679298400879" lon="2.86539912223816">
			<ele>158.899993896484</ele>
			<time>2014-01-02T11:53:10Z</time>
		</trkpt>
		<trkpt lat="39.4679756164551" lon="2.86543583869934">
			<ele>159</ele>
			<time>2014-01-02T11:53:15Z</time>
		</trkpt>
		<trkpt lat="39.4680099487305" lon="2.86547446250916">
			<ele>159.300003051758</ele>
			<time>2014-01-02T11:53:20Z</time>
		</trkpt>
		<trkpt lat="39.4680519104004" lon="2.86551523208618">
			<ele>159.800003051758</ele>
			<time>2014-01-02T11:53:35Z</time>
		</trkpt>
		<trkpt lat="39.4680862426758" lon="2.86556506156921">
			<ele>159.100006103516</ele>
			<time>2014-01-02T11:53:41Z</time>
		</trkpt>
		<trkpt lat="39.468132019043" lon="2.86561489105225">
			<ele>158.800003051758</ele>
			<time>2014-01-02T11:53:44Z</time>
		</trkpt>
		<trkpt lat="39.4681739807129" lon="2.86568212509155">
			<ele>158.5</ele>
			<time>2014-01-02T11:53:47Z</time>
		</trkpt>
		<trkpt lat="39.4682083129883" lon="2.8657341003418">
			<ele>158.399993896484</ele>
			<time>2014-01-02T11:53:49Z</time>
		</trkpt>
		<trkpt lat="39.4682502746582" lon="2.86579298973083">
			<ele>158.399993896484</ele>
			<time>2014-01-02T11:53:51Z</time>
		</trkpt>
		<trkpt lat="39.4682846069336" lon="2.86585640907288">
			<ele>158</ele>
			<time>2014-01-02T11:53:53Z</time>
		</trkpt>
		<trkpt lat="39.4683265686035" lon="2.86592125892639">
			<ele>157.899993896484</ele>
			<time>2014-01-02T11:53:55Z</time>
		</trkpt>
		<trkpt lat="39.4683685302734" lon="2.86598896980286">
			<ele>157.899993896484</ele>
			<time>2014-01-02T11:53:57Z</time>
		</trkpt>
		<trkpt lat="39.4684028625488" lon="2.8660581111908">
			<ele>157.899993896484</ele>
			<time>2014-01-02T11:53:59Z</time>
		</trkpt>
		<trkpt lat="39.4684448242188" lon="2.86612439155579">
			<ele>158</ele>
			<time>2014-01-02T11:54:01Z</time>
		</trkpt>
		<trkpt lat="39.4684791564941" lon="2.86619472503662">
			<ele>158.199996948242</ele>
			<time>2014-01-02T11:54:03Z</time>
		</trkpt>
		<trkpt lat="39.4685134887695" lon="2.86627221107483">
			<ele>158.100006103516</ele>
			<time>2014-01-02T11:54:05Z</time>
		</trkpt>
		<trkpt lat="39.4685440063477" lon="2.86635231971741">
			<ele>158.399993896484</ele>
			<time>2014-01-02T11:54:07Z</time>
		</trkpt>
		<trkpt lat="39.468563079834" lon="2.86643743515015">
			<ele>158.5</ele>
			<time>2014-01-02T11:54:09Z</time>
		</trkpt>
		<trkpt lat="39.4685859680176" lon="2.86651968955994">
			<ele>158.899993896484</ele>
			<time>2014-01-02T11:54:11Z</time>
		</trkpt>
		<trkpt lat="39.4686012268066" lon="2.86660170555115">
			<ele>159.199996948242</ele>
			<time>2014-01-02T11:54:13Z</time>
		</trkpt>
		<trkpt lat="39.4686164855957" lon="2.86668705940247">
			<ele>159</ele>
			<time>2014-01-02T11:54:15Z</time>
		</trkpt>
		<trkpt lat="39.468635559082" lon="2.86677384376526">
			<ele>159.300003051758</ele>
			<time>2014-01-02T11:54:17Z</time>
		</trkpt>
		<trkpt lat="39.4686546325684" lon="2.86686229705811">
			<ele>159.399993896484</ele>
			<time>2014-01-02T11:54:19Z</time>
		</trkpt>
		<trkpt lat="39.4686698913574" lon="2.86695218086243">
			<ele>159.399993896484</ele>
			<time>2014-01-02T11:54:21Z</time>
		</trkpt>
		<trkpt lat="39.4686851501465" lon="2.8670437335968">
			<ele>159.600006103516</ele>
			<time>2014-01-02T11:54:23Z</time>
		</trkpt>
		<trkpt lat="39.4687004089355" lon="2.86713266372681">
			<ele>159.600006103516</ele>
			<time>2014-01-02T11:54:25Z</time>
		</trkpt>
		<trkpt lat="39.4687156677246" lon="2.86722254753113">
			<ele>159.800003051758</ele>
			<time>2014-01-02T11:54:27Z</time>
		</trkpt>
		<trkpt lat="39.4687347412109" lon="2.86730885505676">
			<ele>160</ele>
			<time>2014-01-02T11:54:29Z</time>
		</trkpt>
		<trkpt lat="39.4687538146973" lon="2.86739349365234">
			<ele>160.399993896484</ele>
			<time>2014-01-02T11:54:31Z</time>
		</trkpt>
		<trkpt lat="39.4687767028809" lon="2.86747598648071">
			<ele>160.800003051758</ele>
			<time>2014-01-02T11:54:33Z</time>
		</trkpt>
		<trkpt lat="39.4688186645508" lon="2.86753392219543">
			<ele>160.899993896484</ele>
			<time>2014-01-02T11:54:35Z</time>
		</trkpt>
		<trkpt lat="39.4688568115234" lon="2.867595911026">
			<ele>161.199996948242</ele>
			<time>2014-01-02T11:54:37Z</time>
		</trkpt>
		<trkpt lat="39.4688911437988" lon="2.86766147613525">
			<ele>161.5</ele>
			<time>2014-01-02T11:54:39Z</time>
		</trkpt>
		<trkpt lat="39.468936920166" lon="2.86770462989807">
			<ele>161.399993896484</ele>
			<time>2014-01-02T11:54:41Z</time>
		</trkpt>
		<trkpt lat="39.4689788818359" lon="2.86773204803467">
			<ele>161.800003051758</ele>
			<time>2014-01-02T11:54:42Z</time>
		</trkpt>
		<trkpt lat="39.4690399169922" lon="2.86779284477234">
			<ele>163</ele>
			<time>2014-01-02T11:54:44Z</time>
		</trkpt>
		<trkpt lat="39.4690933227539" lon="2.86786293983459">
			<ele>163.100006103516</ele>
			<time>2014-01-02T11:54:46Z</time>
		</trkpt>
		<trkpt lat="39.4691352844238" lon="2.8679187297821">
			<ele>162</ele>
			<time>2014-01-02T11:54:48Z</time>
		</trkpt>
		<trkpt lat="39.4692230224609" lon="2.86798357963562">
			<ele>166.100006103516</ele>
			<time>2014-01-02T11:54:50Z</time>
		</trkpt>
		<trkpt lat="39.4692649841309" lon="2.86804938316345">
			<ele>166.800003051758</ele>
			<time>2014-01-02T11:54:52Z</time>
		</trkpt>
		<trkpt lat="39.4693260192871" lon="2.86811256408691">
			<ele>166.100006103516</ele>
			<time>2014-01-02T11:54:54Z</time>
		</trkpt>
		<trkpt lat="39.4693717956543" lon="2.86816620826721">
			<ele>165.300003051758</ele>
			<time>2014-01-02T11:54:56Z</time>
		</trkpt>
		<trkpt lat="39.4694290161133" lon="2.86822724342346">
			<ele>165.300003051758</ele>
			<time>2014-01-02T11:54:58Z</time>
		</trkpt>
		<trkpt lat="39.469482421875" lon="2.86828923225403">
			<ele>164.699996948242</ele>
			<time>2014-01-02T11:55:00Z</time>
		</trkpt>
		<trkpt lat="39.4695358276367" lon="2.86834478378296">
			<ele>165.199996948242</ele>
			<time>2014-01-02T11:55:02Z</time>
		</trkpt>
		<trkpt lat="39.4695854187012" lon="2.86840081214905">
			<ele>164.600006103516</ele>
			<time>2014-01-02T11:55:04Z</time>
		</trkpt>
		<trkpt lat="39.4696388244629" lon="2.86846327781677">
			<ele>164.800003051758</ele>
			<time>2014-01-02T11:55:06Z</time>
		</trkpt>
		<trkpt lat="39.4696960449219" lon="2.86852836608887">
			<ele>164.199996948242</ele>
			<time>2014-01-02T11:55:08Z</time>
		</trkpt>
		<trkpt lat="39.4697570800781" lon="2.86859679222107">
			<ele>163.800003051758</ele>
			<time>2014-01-02T11:55:10Z</time>
		</trkpt>
		<trkpt lat="39.4698104858398" lon="2.86865878105164">
			<ele>163</ele>
			<time>2014-01-02T11:55:12Z</time>
		</trkpt>
		<trkpt lat="39.4698600769043" lon="2.86872625350952">
			<ele>162.5</ele>
			<time>2014-01-02T11:55:14Z</time>
		</trkpt>
		<trkpt lat="39.4699172973633" lon="2.86878848075867">
			<ele>162.800003051758</ele>
			<time>2014-01-02T11:55:16Z</time>
		</trkpt>
		<trkpt lat="39.4699783325195" lon="2.86885452270508">
			<ele>162.300003051758</ele>
			<time>2014-01-02T11:55:18Z</time>
		</trkpt>
		<trkpt lat="39.4700469970703" lon="2.86891984939575">
			<ele>162.100006103516</ele>
			<time>2014-01-02T11:55:20Z</time>
		</trkpt>
		<trkpt lat="39.4701080322266" lon="2.86898350715637">
			<ele>162.199996948242</ele>
			<time>2014-01-02T11:55:22Z</time>
		</trkpt>
		<trkpt lat="39.4701690673828" lon="2.86904740333557">
			<ele>162.300003051758</ele>
			<time>2014-01-02T11:55:24Z</time>
		</trkpt>
		<trkpt lat="39.4702301025391" lon="2.86911606788635">
			<ele>162.399993896484</ele>
			<time>2014-01-02T11:55:26Z</time>
		</trkpt>
		<trkpt lat="39.4702835083008" lon="2.86918234825134">
			<ele>162.5</ele>
			<time>2014-01-02T11:55:28Z</time>
		</trkpt>
		<trkpt lat="39.4703369140625" lon="2.86924242973328">
			<ele>162.300003051758</ele>
			<time>2014-01-02T11:55:30Z</time>
		</trkpt>
		<trkpt lat="39.4703979492188" lon="2.86929678916931">
			<ele>161.899993896484</ele>
			<time>2014-01-02T11:55:32Z</time>
		</trkpt>
		<trkpt lat="39.4704551696777" lon="2.86935567855835">
			<ele>161.699996948242</ele>
			<time>2014-01-02T11:55:34Z</time>
		</trkpt>
		<trkpt lat="39.470516204834" lon="2.86940979957581">
			<ele>161.699996948242</ele>
			<time>2014-01-02T11:55:36Z</time>
		</trkpt>
		<trkpt lat="39.4705810546875" lon="2.86946415901184">
			<ele>161.600006103516</ele>
			<time>2014-01-02T11:55:38Z</time>
		</trkpt>
		<trkpt lat="39.4706420898438" lon="2.86951446533203">
			<ele>161.399993896484</ele>
			<time>2014-01-02T11:55:40Z</time>
		</trkpt>
		<trkpt lat="39.470703125" lon="2.86956715583801">
			<ele>161.5</ele>
			<time>2014-01-02T11:55:42Z</time>
		</trkpt>
		<trkpt lat="39.4707679748535" lon="2.8696186542511">
			<ele>161.5</ele>
			<time>2014-01-02T11:55:44Z</time>
		</trkpt>
		<trkpt lat="39.4708290100098" lon="2.86967396736145">
			<ele>161.5</ele>
			<time>2014-01-02T11:55:46Z</time>
		</trkpt>
		<trkpt lat="39.4708976745605" lon="2.86972165107727">
			<ele>161.800003051758</ele>
			<time>2014-01-02T11:55:48Z</time>
		</trkpt>
		<trkpt lat="39.4709625244141" lon="2.86976957321167">
			<ele>161.699996948242</ele>
			<time>2014-01-02T11:55:50Z</time>
		</trkpt>
		<trkpt lat="39.4710273742676" lon="2.86981916427612">
			<ele>161.5</ele>
			<time>2014-01-02T11:55:52Z</time>
		</trkpt>
		<trkpt lat="39.4710884094238" lon="2.86986947059631">
			<ele>161.5</ele>
			<time>2014-01-02T11:55:54Z</time>
		</trkpt>
		<trkpt lat="39.4711570739746" lon="2.86991548538208">
			<ele>161.399993896484</ele>
			<time>2014-01-02T11:55:56Z</time>
		</trkpt>
		<trkpt lat="39.4712219238281" lon="2.86996173858643">
			<ele>161.399993896484</ele>
			<time>2014-01-02T11:55:58Z</time>
		</trkpt>
		<trkpt lat="39.4712905883789" lon="2.87000870704651">
			<ele>161.5</ele>
			<time>2014-01-02T11:56:00Z</time>
		</trkpt>
		<trkpt lat="39.4713592529297" lon="2.87005996704102">
			<ele>161.600006103516</ele>
			<time>2014-01-02T11:56:02Z</time>
		</trkpt>
		<trkpt lat="39.4714279174805" lon="2.87011098861694">
			<ele>162</ele>
			<time>2014-01-02T11:56:04Z</time>
		</trkpt>
		<trkpt lat="39.4715003967285" lon="2.87016201019287">
			<ele>161.899993896484</ele>
			<time>2014-01-02T11:56:06Z</time>
		</trkpt>
		<trkpt lat="39.4715690612793" lon="2.87021040916443">
			<ele>162.100006103516</ele>
			<time>2014-01-02T11:56:08Z</time>
		</trkpt>
		<trkpt lat="39.4716377258301" lon="2.87026143074036">
			<ele>162.100006103516</ele>
			<time>2014-01-02T11:56:10Z</time>
		</trkpt>
		<trkpt lat="39.4717025756836" lon="2.8703134059906">
			<ele>162.199996948242</ele>
			<time>2014-01-02T11:56:12Z</time>
		</trkpt>
		<trkpt lat="39.4717712402344" lon="2.87036371231079">
			<ele>162.199996948242</ele>
			<time>2014-01-02T11:56:14Z</time>
		</trkpt>
		<trkpt lat="39.4718437194824" lon="2.87041091918945">
			<ele>162.399993896484</ele>
			<time>2014-01-02T11:56:16Z</time>
		</trkpt>
		<trkpt lat="39.4719047546387" lon="2.87046360969543">
			<ele>162.600006103516</ele>
			<time>2014-01-02T11:56:18Z</time>
		</trkpt>
		<trkpt lat="39.4719696044922" lon="2.87051510810852">
			<ele>162.699996948242</ele>
			<time>2014-01-02T11:56:20Z</time>
		</trkpt>
		<trkpt lat="39.472038269043" lon="2.87056756019592">
			<ele>162.399993896484</ele>
			<time>2014-01-02T11:56:22Z</time>
		</trkpt>
		<trkpt lat="39.4721069335938" lon="2.87062382698059">
			<ele>162.399993896484</ele>
			<time>2014-01-02T11:56:24Z</time>
		</trkpt>
		<trkpt lat="39.4721717834473" lon="2.87067604064941">
			<ele>162.300003051758</ele>
			<time>2014-01-02T11:56:26Z</time>
		</trkpt>
		<trkpt lat="39.472240447998" lon="2.8707263469696">
			<ele>162.300003051758</ele>
			<time>2014-01-02T11:56:28Z</time>
		</trkpt>
		<trkpt lat="39.4723052978516" lon="2.87078046798706">
			<ele>162.300003051758</ele>
			<time>2014-01-02T11:56:30Z</time>
		</trkpt>
		<trkpt lat="39.4723739624023" lon="2.87082982063293">
			<ele>162.5</ele>
			<time>2014-01-02T11:56:32Z</time>
		</trkpt>
		<trkpt lat="39.4724388122559" lon="2.8708770275116">
			<ele>162.600006103516</ele>
			<time>2014-01-02T11:56:34Z</time>
		</trkpt>
		<trkpt lat="39.4725036621094" lon="2.8709282875061">
			<ele>162.5</ele>
			<time>2014-01-02T11:56:36Z</time>
		</trkpt>
		<trkpt lat="39.4725685119629" lon="2.87098121643066">
			<ele>162.600006103516</ele>
			<time>2014-01-02T11:56:38Z</time>
		</trkpt>
		<trkpt lat="39.4726371765137" lon="2.87103533744812">
			<ele>162.399993896484</ele>
			<time>2014-01-02T11:56:40Z</time>
		</trkpt>
		<trkpt lat="39.4727020263672" lon="2.87108659744263">
			<ele>162.600006103516</ele>
			<time>2014-01-02T11:56:42Z</time>
		</trkpt>
		<trkpt lat="39.4727668762207" lon="2.87113904953003">
			<ele>162.199996948242</ele>
			<time>2014-01-02T11:56:44Z</time>
		</trkpt>
		<trkpt lat="39.4728317260742" lon="2.87119126319885">
			<ele>162.399993896484</ele>
			<time>2014-01-02T11:56:46Z</time>
		</trkpt>
		<trkpt lat="39.4728965759277" lon="2.87124133110046">
			<ele>162.600006103516</ele>
			<time>2014-01-02T11:56:48Z</time>
		</trkpt>
		<trkpt lat="39.472957611084" lon="2.87129592895508">
			<ele>162.600006103516</ele>
			<time>2014-01-02T11:56:50Z</time>
		</trkpt>
		<trkpt lat="39.4730033874512" lon="2.87137031555176">
			<ele>162.399993896484</ele>
			<time>2014-01-02T11:56:52Z</time>
		</trkpt>
		<trkpt lat="39.473030090332" lon="2.87146377563477">
			<ele>162.5</ele>
			<time>2014-01-02T11:56:54Z</time>
		</trkpt>
		<trkpt lat="39.4730453491211" lon="2.87156200408936">
			<ele>162.100006103516</ele>
			<time>2014-01-02T11:56:56Z</time>
		</trkpt>
		<trkpt lat="39.4730491638184" lon="2.871657371521">
			<ele>161.699996948242</ele>
			<time>2014-01-02T11:56:58Z</time>
		</trkpt>
		<trkpt lat="39.4730682373047" lon="2.87175321578979">
			<ele>161.800003051758</ele>
			<time>2014-01-02T11:57:00Z</time>
		</trkpt>
		<trkpt lat="39.4730758666992" lon="2.87185025215149">
			<ele>161.899993896484</ele>
			<time>2014-01-02T11:57:02Z</time>
		</trkpt>
		<trkpt lat="39.473087310791" lon="2.87194752693176">
			<ele>161.800003051758</ele>
			<time>2014-01-02T11:57:04Z</time>
		</trkpt>
		<trkpt lat="39.4730949401855" lon="2.87204098701477">
			<ele>162</ele>
			<time>2014-01-02T11:57:06Z</time>
		</trkpt>
		<trkpt lat="39.4731063842773" lon="2.87213683128357">
			<ele>162.399993896484</ele>
			<time>2014-01-02T11:57:08Z</time>
		</trkpt>
		<trkpt lat="39.4731063842773" lon="2.87222623825073">
			<ele>162.699996948242</ele>
			<time>2014-01-02T11:57:10Z</time>
		</trkpt>
		<trkpt lat="39.473087310791" lon="2.87231302261353">
			<ele>162.800003051758</ele>
			<time>2014-01-02T11:57:12Z</time>
		</trkpt>
		<trkpt lat="39.4730644226074" lon="2.87239861488342">
			<ele>162.800003051758</ele>
			<time>2014-01-02T11:57:14Z</time>
		</trkpt>
		<trkpt lat="39.4730529785156" lon="2.87249040603638">
			<ele>163</ele>
			<time>2014-01-02T11:57:16Z</time>
		</trkpt>
		<trkpt lat="39.4730453491211" lon="2.87259149551392">
			<ele>162.899993896484</ele>
			<time>2014-01-02T11:57:18Z</time>
		</trkpt>
		<trkpt lat="39.4730415344238" lon="2.87268757820129">
			<ele>163</ele>
			<time>2014-01-02T11:57:20Z</time>
		</trkpt>
		<trkpt lat="39.4730415344238" lon="2.8727765083313">
			<ele>163.399993896484</ele>
			<time>2014-01-02T11:57:22Z</time>
		</trkpt>
		<trkpt lat="39.4730453491211" lon="2.87287330627441">
			<ele>163.699996948242</ele>
			<time>2014-01-02T11:57:24Z</time>
		</trkpt>
		<trkpt lat="39.4730491638184" lon="2.87296390533447">
			<ele>163.600006103516</ele>
			<time>2014-01-02T11:57:26Z</time>
		</trkpt>
		<trkpt lat="39.4730606079102" lon="2.87306308746338">
			<ele>163.600006103516</ele>
			<time>2014-01-02T11:57:28Z</time>
		</trkpt>
		<trkpt lat="39.473072052002" lon="2.87316465377808">
			<ele>163.399993896484</ele>
			<time>2014-01-02T11:57:30Z</time>
		</trkpt>
		<trkpt lat="39.4730796813965" lon="2.8732602596283">
			<ele>163.300003051758</ele>
			<time>2014-01-02T11:57:32Z</time>
		</trkpt>
		<trkpt lat="39.4730911254883" lon="2.87335681915283">
			<ele>163.300003051758</ele>
			<time>2014-01-02T11:57:34Z</time>
		</trkpt>
		<trkpt lat="39.4730987548828" lon="2.87345552444458">
			<ele>163.100006103516</ele>
			<time>2014-01-02T11:57:36Z</time>
		</trkpt>
		<trkpt lat="39.4731063842773" lon="2.87355661392212">
			<ele>163.199996948242</ele>
			<time>2014-01-02T11:57:38Z</time>
		</trkpt>
		<trkpt lat="39.4731140136719" lon="2.87365794181824">
			<ele>163</ele>
			<time>2014-01-02T11:57:40Z</time>
		</trkpt>
		<trkpt lat="39.4731216430664" lon="2.87375736236572">
			<ele>163.100006103516</ele>
			<time>2014-01-02T11:57:42Z</time>
		</trkpt>
		<trkpt lat="39.4731330871582" lon="2.873859167099">
			<ele>163.300003051758</ele>
			<time>2014-01-02T11:57:44Z</time>
		</trkpt>
		<trkpt lat="39.4731407165527" lon="2.87395620346069">
			<ele>163.399993896484</ele>
			<time>2014-01-02T11:57:46Z</time>
		</trkpt>
		<trkpt lat="39.4731521606445" lon="2.87405586242676">
			<ele>163.600006103516</ele>
			<time>2014-01-02T11:57:48Z</time>
		</trkpt>
		<trkpt lat="39.4731636047363" lon="2.87415266036987">
			<ele>164</ele>
			<time>2014-01-02T11:57:50Z</time>
		</trkpt>
		<trkpt lat="39.4731712341309" lon="2.87425422668457">
			<ele>164.100006103516</ele>
			<time>2014-01-02T11:57:52Z</time>
		</trkpt>
		<trkpt lat="39.4731750488281" lon="2.87435340881348">
			<ele>164.300003051758</ele>
			<time>2014-01-02T11:57:54Z</time>
		</trkpt>
		<trkpt lat="39.4731712341309" lon="2.87445259094238">
			<ele>164.199996948242</ele>
			<time>2014-01-02T11:57:56Z</time>
		</trkpt>
		<trkpt lat="39.4731712341309" lon="2.87455630302429">
			<ele>164.300003051758</ele>
			<time>2014-01-02T11:57:58Z</time>
		</trkpt>
		<trkpt lat="39.4731674194336" lon="2.87465763092041">
			<ele>164</ele>
			<time>2014-01-02T11:58:00Z</time>
		</trkpt>
		<trkpt lat="39.4731597900391" lon="2.87475943565369">
			<ele>163.899993896484</ele>
			<time>2014-01-02T11:58:02Z</time>
		</trkpt>
		<trkpt lat="39.4731521606445" lon="2.87486553192139">
			<ele>163.699996948242</ele>
			<time>2014-01-02T11:58:04Z</time>
		</trkpt>
		<trkpt lat="39.4731330871582" lon="2.87497091293335">
			<ele>163.800003051758</ele>
			<time>2014-01-02T11:58:06Z</time>
		</trkpt>
		<trkpt lat="39.4731178283691" lon="2.8750741481781">
			<ele>163.600006103516</ele>
			<time>2014-01-02T11:58:08Z</time>
		</trkpt>
		<trkpt lat="39.4731025695801" lon="2.87517714500427">
			<ele>163.600006103516</ele>
			<time>2014-01-02T11:58:10Z</time>
		</trkpt>
		<trkpt lat="39.473087310791" lon="2.87528204917908">
			<ele>164.100006103516</ele>
			<time>2014-01-02T11:58:12Z</time>
		</trkpt>
		<trkpt lat="39.473072052002" lon="2.87538647651672">
			<ele>164</ele>
			<time>2014-01-02T11:58:14Z</time>
		</trkpt>
		<trkpt lat="39.4730529785156" lon="2.87549328804016">
			<ele>164.100006103516</ele>
			<time>2014-01-02T11:58:16Z</time>
		</trkpt>
		<trkpt lat="39.4730377197266" lon="2.87559342384338">
			<ele>164.100006103516</ele>
			<time>2014-01-02T11:58:18Z</time>
		</trkpt>
		<trkpt lat="39.4730110168457" lon="2.87569737434387">
			<ele>164</ele>
			<time>2014-01-02T11:58:20Z</time>
		</trkpt>
		<trkpt lat="39.4729881286621" lon="2.87580132484436">
			<ele>164.199996948242</ele>
			<time>2014-01-02T11:58:22Z</time>
		</trkpt>
		<trkpt lat="39.4729652404785" lon="2.87590622901917">
			<ele>163.899993896484</ele>
			<time>2014-01-02T11:58:24Z</time>
		</trkpt>
		<trkpt lat="39.4729423522949" lon="2.8760085105896">
			<ele>163.800003051758</ele>
			<time>2014-01-02T11:58:26Z</time>
		</trkpt>
		<trkpt lat="39.4729194641113" lon="2.87610983848572">
			<ele>164</ele>
			<time>2014-01-02T11:58:28Z</time>
		</trkpt>
		<trkpt lat="39.4728965759277" lon="2.87621235847473">
			<ele>163.800003051758</ele>
			<time>2014-01-02T11:58:30Z</time>
		</trkpt>
		<trkpt lat="39.4728698730469" lon="2.87631177902222">
			<ele>164.199996948242</ele>
			<time>2014-01-02T11:58:32Z</time>
		</trkpt>
		<trkpt lat="39.4728546142578" lon="2.87639617919922">
			<ele>164.100006103516</ele>
			<time>2014-01-02T11:58:34Z</time>
		</trkpt>
		<trkpt lat="39.4728393554688" lon="2.87645649909973">
			<ele>164.100006103516</ele>
			<time>2014-01-02T11:58:37Z</time>
		</trkpt>
		<trkpt lat="39.4728775024414" lon="2.87651014328003">
			<ele>164.899993896484</ele>
			<time>2014-01-02T11:58:51Z</time>
		</trkpt>
		<trkpt lat="39.4729347229004" lon="2.87651920318604">
			<ele>164</ele>
			<time>2014-01-02T11:58:53Z</time>
		</trkpt>
		<trkpt lat="39.4729881286621" lon="2.87652850151062">
			<ele>164.100006103516</ele>
			<time>2014-01-02T11:58:55Z</time>
		</trkpt>
		<trkpt lat="39.4730606079102" lon="2.8765435218811">
			<ele>163.899993896484</ele>
			<time>2014-01-02T11:58:57Z</time>
		</trkpt>
		<trkpt lat="39.4731292724609" lon="2.87656474113464">
			<ele>163.600006103516</ele>
			<time>2014-01-02T11:58:59Z</time>
		</trkpt>
		<trkpt lat="39.4731979370117" lon="2.87658309936523">
			<ele>163.5</ele>
			<time>2014-01-02T11:59:01Z</time>
		</trkpt>
		<trkpt lat="39.4732666015625" lon="2.87660050392151">
			<ele>163.199996948242</ele>
			<time>2014-01-02T11:59:03Z</time>
		</trkpt>
		<trkpt lat="39.4733390808105" lon="2.87661457061768">
			<ele>163.100006103516</ele>
			<time>2014-01-02T11:59:05Z</time>
		</trkpt>
		<trkpt lat="39.4734039306641" lon="2.87663078308105">
			<ele>163</ele>
			<time>2014-01-02T11:59:07Z</time>
		</trkpt>
		<trkpt lat="39.4734802246094" lon="2.87665009498596">
			<ele>162.899993896484</ele>
			<time>2014-01-02T11:59:09Z</time>
		</trkpt>
		<trkpt lat="39.4735527038574" lon="2.87667560577393">
			<ele>162.399993896484</ele>
			<time>2014-01-02T11:59:11Z</time>
		</trkpt>
		<trkpt lat="39.4736251831055" lon="2.8766918182373">
			<ele>161.800003051758</ele>
			<time>2014-01-02T11:59:13Z</time>
		</trkpt>
		<trkpt lat="39.4737014770508" lon="2.87670803070068">
			<ele>161.699996948242</ele>
			<time>2014-01-02T11:59:15Z</time>
		</trkpt>
		<trkpt lat="39.4737777709961" lon="2.87672448158264">
			<ele>161.600006103516</ele>
			<time>2014-01-02T11:59:17Z</time>
		</trkpt>
		<trkpt lat="39.4738578796387" lon="2.87673926353455">
			<ele>161.800003051758</ele>
			<time>2014-01-02T11:59:19Z</time>
		</trkpt>
		<trkpt lat="39.4739303588867" lon="2.8767569065094">
			<ele>162.300003051758</ele>
			<time>2014-01-02T11:59:21Z</time>
		</trkpt>
		<trkpt lat="39.4740104675293" lon="2.87677502632141">
			<ele>162.300003051758</ele>
			<time>2014-01-02T11:59:23Z</time>
		</trkpt>
		<trkpt lat="39.4740829467773" lon="2.87679195404053">
			<ele>162.300003051758</ele>
			<time>2014-01-02T11:59:25Z</time>
		</trkpt>
		<trkpt lat="39.4741554260254" lon="2.87680697441101">
			<ele>162.399993896484</ele>
			<time>2014-01-02T11:59:27Z</time>
		</trkpt>
		<trkpt lat="39.4742279052734" lon="2.87682628631592">
			<ele>162.600006103516</ele>
			<time>2014-01-02T11:59:29Z</time>
		</trkpt>
		<trkpt lat="39.4743041992188" lon="2.87684535980225">
			<ele>162.800003051758</ele>
			<time>2014-01-02T11:59:31Z</time>
		</trkpt>
		<trkpt lat="39.4743728637695" lon="2.87686634063721">
			<ele>162.699996948242</ele>
			<time>2014-01-02T11:59:33Z</time>
		</trkpt>
		<trkpt lat="39.4744415283203" lon="2.87688446044922">
			<ele>163.100006103516</ele>
			<time>2014-01-02T11:59:35Z</time>
		</trkpt>
		<trkpt lat="39.4745140075684" lon="2.87690019607544">
			<ele>163.399993896484</ele>
			<time>2014-01-02T11:59:37Z</time>
		</trkpt>
		<trkpt lat="39.4745864868164" lon="2.87691831588745">
			<ele>163.800003051758</ele>
			<time>2014-01-02T11:59:39Z</time>
		</trkpt>
		<trkpt lat="39.4746589660645" lon="2.87693762779236">
			<ele>163.899993896484</ele>
			<time>2014-01-02T11:59:41Z</time>
		</trkpt>
		<trkpt lat="39.4747314453125" lon="2.87695336341858">
			<ele>163.699996948242</ele>
			<time>2014-01-02T11:59:43Z</time>
		</trkpt>
		<trkpt lat="39.4748077392578" lon="2.87696743011475">
			<ele>163.699996948242</ele>
			<time>2014-01-02T11:59:45Z</time>
		</trkpt>
		<trkpt lat="39.4748764038086" lon="2.87698268890381">
			<ele>164</ele>
			<time>2014-01-02T11:59:47Z</time>
		</trkpt>
		<trkpt lat="39.4749488830566" lon="2.8770010471344">
			<ele>164.199996948242</ele>
			<time>2014-01-02T11:59:49Z</time>
		</trkpt>
		<trkpt lat="39.475025177002" lon="2.87701773643494">
			<ele>164.399993896484</ele>
			<time>2014-01-02T11:59:51Z</time>
		</trkpt>
		<trkpt lat="39.47509765625" lon="2.87703323364258">
			<ele>164.699996948242</ele>
			<time>2014-01-02T11:59:53Z</time>
		</trkpt>
		<trkpt lat="39.475170135498" lon="2.87704634666443">
			<ele>164.800003051758</ele>
			<time>2014-01-02T11:59:55Z</time>
		</trkpt>
		<trkpt lat="39.4752464294434" lon="2.87706613540649">
			<ele>164.899993896484</ele>
			<time>2014-01-02T11:59:57Z</time>
		</trkpt>
		<trkpt lat="39.4753189086914" lon="2.8770866394043">
			<ele>165</ele>
			<time>2014-01-02T11:59:59Z</time>
		</trkpt>
		<trkpt lat="39.4753875732422" lon="2.87710309028625">
			<ele>165.100006103516</ele>
			<time>2014-01-02T12:00:01Z</time>
		</trkpt>
		<trkpt lat="39.4754600524902" lon="2.87711787223816">
			<ele>165.100006103516</ele>
			<time>2014-01-02T12:00:03Z</time>
		</trkpt>
		<trkpt lat="39.4755325317383" lon="2.87713432312012">
			<ele>165.100006103516</ele>
			<time>2014-01-02T12:00:05Z</time>
		</trkpt>
		<trkpt lat="39.4756050109863" lon="2.87714719772339">
			<ele>165.100006103516</ele>
			<time>2014-01-02T12:00:07Z</time>
		</trkpt>
		<trkpt lat="39.4756736755371" lon="2.87716436386108">
			<ele>164.800003051758</ele>
			<time>2014-01-02T12:00:09Z</time>
		</trkpt>
		<trkpt lat="39.4757499694824" lon="2.8771800994873">
			<ele>165.199996948242</ele>
			<time>2014-01-02T12:00:11Z</time>
		</trkpt>
		<trkpt lat="39.4758224487305" lon="2.87719750404358">
			<ele>165.800003051758</ele>
			<time>2014-01-02T12:00:13Z</time>
		</trkpt>
		<trkpt lat="39.4758949279785" lon="2.87722086906433">
			<ele>165.899993896484</ele>
			<time>2014-01-02T12:00:15Z</time>
		</trkpt>
		<trkpt lat="39.4759635925293" lon="2.87724113464355">
			<ele>166.399993896484</ele>
			<time>2014-01-02T12:00:17Z</time>
		</trkpt>
		<trkpt lat="39.4760246276855" lon="2.87725257873535">
			<ele>166.800003051758</ele>
			<time>2014-01-02T12:00:19Z</time>
		</trkpt>
		<trkpt lat="39.4760894775391" lon="2.87726879119873">
			<ele>166.800003051758</ele>
			<time>2014-01-02T12:00:21Z</time>
		</trkpt>
		<trkpt lat="39.476146697998" lon="2.87728214263916">
			<ele>166.899993896484</ele>
			<time>2014-01-02T12:00:23Z</time>
		</trkpt>
		<trkpt lat="39.476203918457" lon="2.87729120254517">
			<ele>167</ele>
			<time>2014-01-02T12:00:25Z</time>
		</trkpt>
		<trkpt lat="39.4762573242188" lon="2.87729620933533">
			<ele>167.399993896484</ele>
			<time>2014-01-02T12:00:27Z</time>
		</trkpt>
		<trkpt lat="39.4763031005859" lon="2.8773136138916">
			<ele>167.399993896484</ele>
			<time>2014-01-02T12:00:29Z</time>
		</trkpt>
		<trkpt lat="39.4763526916504" lon="2.87732481956482">
			<ele>167.699996948242</ele>
			<time>2014-01-02T12:00:31Z</time>
		</trkpt>
		<trkpt lat="39.4763946533203" lon="2.87732219696045">
			<ele>167.899993896484</ele>
			<time>2014-01-02T12:00:33Z</time>
		</trkpt>
		<trkpt lat="39.4764404296875" lon="2.87733888626099">
			<ele>168.300003051758</ele>
			<time>2014-01-02T12:00:35Z</time>
		</trkpt>
		<trkpt lat="39.4764862060547" lon="2.87735199928284">
			<ele>168.600006103516</ele>
			<time>2014-01-02T12:00:37Z</time>
		</trkpt>
		<trkpt lat="39.4765357971191" lon="2.87736105918884">
			<ele>169</ele>
			<time>2014-01-02T12:00:39Z</time>
		</trkpt>
		<trkpt lat="39.4765968322754" lon="2.87736964225769">
			<ele>169.5</ele>
			<time>2014-01-02T12:00:42Z</time>
		</trkpt>
		<trkpt lat="39.4766616821289" lon="2.87738180160522">
			<ele>170.199996948242</ele>
			<time>2014-01-02T12:00:45Z</time>
		</trkpt>
		<trkpt lat="39.4767150878906" lon="2.87739610671997">
			<ele>170.600006103516</ele>
			<time>2014-01-02T12:00:48Z</time>
		</trkpt>
		<trkpt lat="39.4767723083496" lon="2.87740731239319">
			<ele>171.800003051758</ele>
			<time>2014-01-02T12:00:51Z</time>
		</trkpt>
		<trkpt lat="39.4768333435059" lon="2.87741565704346">
			<ele>172.800003051758</ele>
			<time>2014-01-02T12:00:54Z</time>
		</trkpt>
		<trkpt lat="39.4768943786621" lon="2.87743139266968">
			<ele>173.5</ele>
			<time>2014-01-02T12:00:57Z</time>
		</trkpt>
		<trkpt lat="39.4769554138184" lon="2.87744545936584">
			<ele>174</ele>
			<time>2014-01-02T12:01:00Z</time>
		</trkpt>
		<trkpt lat="39.4770164489746" lon="2.87746572494507">
			<ele>174.399993896484</ele>
			<time>2014-01-02T12:01:03Z</time>
		</trkpt>
		<trkpt lat="39.4770736694336" lon="2.87748312950134">
			<ele>174.600006103516</ele>
			<time>2014-01-02T12:01:06Z</time>
		</trkpt>
		<trkpt lat="39.4771385192871" lon="2.87749743461609">
			<ele>174.899993896484</ele>
			<time>2014-01-02T12:01:09Z</time>
		</trkpt>
		<trkpt lat="39.4771842956543" lon="2.87750864028931">
			<ele>175</ele>
			<time>2014-01-02T12:01:11Z</time>
		</trkpt>
		<trkpt lat="39.4772300720215" lon="2.877516746521">
			<ele>175.300003051758</ele>
			<time>2014-01-02T12:01:13Z</time>
		</trkpt>
		<trkpt lat="39.4772796630859" lon="2.87752938270569">
			<ele>175.5</ele>
			<time>2014-01-02T12:01:15Z</time>
		</trkpt>
		<trkpt lat="39.4773254394531" lon="2.87754344940186">
			<ele>175.800003051758</ele>
			<time>2014-01-02T12:01:17Z</time>
		</trkpt>
		<trkpt lat="39.4773712158203" lon="2.87756061553955">
			<ele>175.699996948242</ele>
			<time>2014-01-02T12:01:19Z</time>
		</trkpt>
		<trkpt lat="39.4774208068848" lon="2.87757349014282">
			<ele>175.800003051758</ele>
			<time>2014-01-02T12:01:21Z</time>
		</trkpt>
		<trkpt lat="39.4774703979492" lon="2.87758326530457">
			<ele>175.899993896484</ele>
			<time>2014-01-02T12:01:23Z</time>
		</trkpt>
		<trkpt lat="39.4775199890137" lon="2.8775999546051">
			<ele>176</ele>
			<time>2014-01-02T12:01:25Z</time>
		</trkpt>
		<trkpt lat="39.4775695800781" lon="2.87762403488159">
			<ele>176</ele>
			<time>2014-01-02T12:01:27Z</time>
		</trkpt>
		<trkpt lat="39.4776229858398" lon="2.87764167785645">
			<ele>176</ele>
			<time>2014-01-02T12:01:29Z</time>
		</trkpt>
		<trkpt lat="39.4776725769043" lon="2.87766313552856">
			<ele>175.899993896484</ele>
			<time>2014-01-02T12:01:31Z</time>
		</trkpt>
		<trkpt lat="39.4777297973633" lon="2.87768197059631">
			<ele>175.899993896484</ele>
			<time>2014-01-02T12:01:33Z</time>
		</trkpt>
		<trkpt lat="39.477783203125" lon="2.8777129650116">
			<ele>175.800003051758</ele>
			<time>2014-01-02T12:01:35Z</time>
		</trkpt>
		<trkpt lat="39.4778442382813" lon="2.87774515151978">
			<ele>175.699996948242</ele>
			<time>2014-01-02T12:01:37Z</time>
		</trkpt>
		<trkpt lat="39.4779052734375" lon="2.8777801990509">
			<ele>175.399993896484</ele>
			<time>2014-01-02T12:01:39Z</time>
		</trkpt>
		<trkpt lat="39.477970123291" lon="2.87780904769897">
			<ele>175.199996948242</ele>
			<time>2014-01-02T12:01:41Z</time>
		</trkpt>
		<trkpt lat="39.4780387878418" lon="2.87785387039185">
			<ele>174.800003051758</ele>
			<time>2014-01-02T12:01:43Z</time>
		</trkpt>
		<trkpt lat="39.4781150817871" lon="2.87790942192078">
			<ele>173.899993896484</ele>
			<time>2014-01-02T12:01:45Z</time>
		</trkpt>
		<trkpt lat="39.478157043457" lon="2.87793970108032">
			<ele>173.5</ele>
			<time>2014-01-02T12:01:46Z</time>
		</trkpt>
		<trkpt lat="39.4782028198242" lon="2.87797260284424">
			<ele>173.100006103516</ele>
			<time>2014-01-02T12:01:47Z</time>
		</trkpt>
		<trkpt lat="39.4782485961914" lon="2.87801074981689">
			<ele>172.699996948242</ele>
			<time>2014-01-02T12:01:48Z</time>
		</trkpt>
		<trkpt lat="39.4782981872559" lon="2.87804746627808">
			<ele>172.399993896484</ele>
			<time>2014-01-02T12:01:49Z</time>
		</trkpt>
		<trkpt lat="39.4783515930176" lon="2.87808799743652">
			<ele>171.899993896484</ele>
			<time>2014-01-02T12:01:50Z</time>
		</trkpt>
		<trkpt lat="39.478401184082" lon="2.87813329696655">
			<ele>171.600006103516</ele>
			<time>2014-01-02T12:01:51Z</time>
		</trkpt>
		<trkpt lat="39.478458404541" lon="2.87818193435669">
			<ele>171</ele>
			<time>2014-01-02T12:01:52Z</time>
		</trkpt>
		<trkpt lat="39.478515625" lon="2.87823343276978">
			<ele>170.600006103516</ele>
			<time>2014-01-02T12:01:53Z</time>
		</trkpt>
		<trkpt lat="39.478572845459" lon="2.87829232215881">
			<ele>170.399993896484</ele>
			<time>2014-01-02T12:01:54Z</time>
		</trkpt>
		<trkpt lat="39.478630065918" lon="2.87834930419922">
			<ele>170.300003051758</ele>
			<time>2014-01-02T12:01:55Z</time>
		</trkpt>
		<trkpt lat="39.4786911010742" lon="2.87840747833252">
			<ele>169.899993896484</ele>
			<time>2014-01-02T12:01:56Z</time>
		</trkpt>
		<trkpt lat="39.4787521362305" lon="2.87846851348877">
			<ele>169.699996948242</ele>
			<time>2014-01-02T12:01:57Z</time>
		</trkpt>
		<trkpt lat="39.4788093566895" lon="2.87852907180786">
			<ele>169.399993896484</ele>
			<time>2014-01-02T12:01:58Z</time>
		</trkpt>
		<trkpt lat="39.4788665771484" lon="2.87859129905701">
			<ele>169.399993896484</ele>
			<time>2014-01-02T12:01:59Z</time>
		</trkpt>
		<trkpt lat="39.4789276123047" lon="2.87865233421326">
			<ele>169.300003051758</ele>
			<time>2014-01-02T12:02:00Z</time>
		</trkpt>
		<trkpt lat="39.4789886474609" lon="2.87871479988098">
			<ele>169.5</ele>
			<time>2014-01-02T12:02:01Z</time>
		</trkpt>
		<trkpt lat="39.4790420532227" lon="2.87877464294434">
			<ele>169.5</ele>
			<time>2014-01-02T12:02:02Z</time>
		</trkpt>
		<trkpt lat="39.4790954589844" lon="2.87882924079895">
			<ele>169.800003051758</ele>
			<time>2014-01-02T12:02:03Z</time>
		</trkpt>
		<trkpt lat="39.4791488647461" lon="2.87888336181641">
			<ele>170</ele>
			<time>2014-01-02T12:02:04Z</time>
		</trkpt>
		<trkpt lat="39.4791984558105" lon="2.87893891334534">
			<ele>169.800003051758</ele>
			<time>2014-01-02T12:02:05Z</time>
		</trkpt>
		<trkpt lat="39.479248046875" lon="2.87899327278137">
			<ele>170</ele>
			<time>2014-01-02T12:02:06Z</time>
		</trkpt>
		<trkpt lat="39.4792976379395" lon="2.87904405593872">
			<ele>170.100006103516</ele>
			<time>2014-01-02T12:02:07Z</time>
		</trkpt>
		<trkpt lat="39.4793472290039" lon="2.87909340858459">
			<ele>170.100006103516</ele>
			<time>2014-01-02T12:02:08Z</time>
		</trkpt>
		<trkpt lat="39.4793968200684" lon="2.8791446685791">
			<ele>170.300003051758</ele>
			<time>2014-01-02T12:02:09Z</time>
		</trkpt>
		<trkpt lat="39.4794387817383" lon="2.8791925907135">
			<ele>170.399993896484</ele>
			<time>2014-01-02T12:02:10Z</time>
		</trkpt>
		<trkpt lat="39.4794845581055" lon="2.87923574447632">
			<ele>170.600006103516</ele>
			<time>2014-01-02T12:02:11Z</time>
		</trkpt>
		<trkpt lat="39.4795303344727" lon="2.8792769908905">
			<ele>170.699996948242</ele>
			<time>2014-01-02T12:02:12Z</time>
		</trkpt>
		<trkpt lat="39.4795722961426" lon="2.87931871414185">
			<ele>171</ele>
			<time>2014-01-02T12:02:13Z</time>
		</trkpt>
		<trkpt lat="39.4796180725098" lon="2.87936091423035">
			<ele>171.100006103516</ele>
			<time>2014-01-02T12:02:14Z</time>
		</trkpt>
		<trkpt lat="39.479663848877" lon="2.87939763069153">
			<ele>171.100006103516</ele>
			<time>2014-01-02T12:02:15Z</time>
		</trkpt>
		<trkpt lat="39.4797019958496" lon="2.87943625450134">
			<ele>171.5</ele>
			<time>2014-01-02T12:02:16Z</time>
		</trkpt>
		<trkpt lat="39.4797439575195" lon="2.87947630882263">
			<ele>171.399993896484</ele>
			<time>2014-01-02T12:02:17Z</time>
		</trkpt>
		<trkpt lat="39.4797821044922" lon="2.87951326370239">
			<ele>171.5</ele>
			<time>2014-01-02T12:02:18Z</time>
		</trkpt>
		<trkpt lat="39.4798240661621" lon="2.87954926490784">
			<ele>171.600006103516</ele>
			<time>2014-01-02T12:02:19Z</time>
		</trkpt>
		<trkpt lat="39.4798622131348" lon="2.87958407402039">
			<ele>171.600006103516</ele>
			<time>2014-01-02T12:02:20Z</time>
		</trkpt>
		<trkpt lat="39.4799003601074" lon="2.8796238899231">
			<ele>171.600006103516</ele>
			<time>2014-01-02T12:02:21Z</time>
		</trkpt>
		<trkpt lat="39.4799423217773" lon="2.87965846061707">
			<ele>171.399993896484</ele>
			<time>2014-01-02T12:02:22Z</time>
		</trkpt>
		<trkpt lat="39.47998046875" lon="2.87969589233398">
			<ele>171.399993896484</ele>
			<time>2014-01-02T12:02:23Z</time>
		</trkpt>
		<trkpt lat="39.4800567626953" lon="2.87975883483887">
			<ele>171.5</ele>
			<time>2014-01-02T12:02:25Z</time>
		</trkpt>
		<trkpt lat="39.4801292419434" lon="2.87981772422791">
			<ele>171.600006103516</ele>
			<time>2014-01-02T12:02:27Z</time>
		</trkpt>
		<trkpt lat="39.4802055358887" lon="2.87987780570984">
			<ele>171.300003051758</ele>
			<time>2014-01-02T12:02:29Z</time>
		</trkpt>
		<trkpt lat="39.4802780151367" lon="2.87993979454041">
			<ele>171</ele>
			<time>2014-01-02T12:02:31Z</time>
		</trkpt>
		<trkpt lat="39.480354309082" lon="2.87999868392944">
			<ele>171.300003051758</ele>
			<time>2014-01-02T12:02:33Z</time>
		</trkpt>
		<trkpt lat="39.4804267883301" lon="2.88005900382996">
			<ele>171.600006103516</ele>
			<time>2014-01-02T12:02:35Z</time>
		</trkpt>
		<trkpt lat="39.4804649353027" lon="2.88008761405945">
			<ele>171.800003051758</ele>
			<time>2014-01-02T12:02:36Z</time>
		</trkpt>
		<trkpt lat="39.4805297851563" lon="2.88015079498291">
			<ele>172</ele>
			<time>2014-01-02T12:02:38Z</time>
		</trkpt>
		<trkpt lat="39.4805717468262" lon="2.88017821311951">
			<ele>171.800003051758</ele>
			<time>2014-01-02T12:02:39Z</time>
		</trkpt>
		<trkpt lat="39.480640411377" lon="2.88023495674133">
			<ele>172.100006103516</ele>
			<time>2014-01-02T12:02:41Z</time>
		</trkpt>
		<trkpt lat="39.4807090759277" lon="2.88028979301453">
			<ele>172.100006103516</ele>
			<time>2014-01-02T12:02:43Z</time>
		</trkpt>
		<trkpt lat="39.4807777404785" lon="2.88034892082214">
			<ele>172.100006103516</ele>
			<time>2014-01-02T12:02:45Z</time>
		</trkpt>
		<trkpt lat="39.4808540344238" lon="2.88041067123413">
			<ele>172.5</ele>
			<time>2014-01-02T12:02:47Z</time>
		</trkpt>
		<trkpt lat="39.4808959960938" lon="2.88043260574341">
			<ele>172.699996948242</ele>
			<time>2014-01-02T12:02:48Z</time>
		</trkpt>
		<trkpt lat="39.4809646606445" lon="2.88049030303955">
			<ele>172.800003051758</ele>
			<time>2014-01-02T12:02:50Z</time>
		</trkpt>
		<trkpt lat="39.4810371398926" lon="2.88055062294006">
			<ele>172.399993896484</ele>
			<time>2014-01-02T12:02:52Z</time>
		</trkpt>
		<trkpt lat="39.4810752868652" lon="2.88058257102966">
			<ele>172.300003051758</ele>
			<time>2014-01-02T12:02:53Z</time>
		</trkpt>
		<trkpt lat="39.4811553955078" lon="2.88064169883728">
			<ele>172.300003051758</ele>
			<time>2014-01-02T12:02:55Z</time>
		</trkpt>
		<trkpt lat="39.4812316894531" lon="2.88070297241211">
			<ele>171.699996948242</ele>
			<time>2014-01-02T12:02:57Z</time>
		</trkpt>
		<trkpt lat="39.4813079833984" lon="2.88075590133667">
			<ele>172</ele>
			<time>2014-01-02T12:02:59Z</time>
		</trkpt>
		<trkpt lat="39.4813766479492" lon="2.88081765174866">
			<ele>172.100006103516</ele>
			<time>2014-01-02T12:03:01Z</time>
		</trkpt>
		<trkpt lat="39.4814147949219" lon="2.88085174560547">
			<ele>172.100006103516</ele>
			<time>2014-01-02T12:03:02Z</time>
		</trkpt>
		<trkpt lat="39.4814872741699" lon="2.88090848922729">
			<ele>172.199996948242</ele>
			<time>2014-01-02T12:03:04Z</time>
		</trkpt>
		<trkpt lat="39.4815559387207" lon="2.88096499443054">
			<ele>172.399993896484</ele>
			<time>2014-01-02T12:03:06Z</time>
		</trkpt>
		<trkpt lat="39.4816246032715" lon="2.88102293014526">
			<ele>172.300003051758</ele>
			<time>2014-01-02T12:03:08Z</time>
		</trkpt>
		<trkpt lat="39.481689453125" lon="2.88107895851135">
			<ele>172.300003051758</ele>
			<time>2014-01-02T12:03:10Z</time>
		</trkpt>
		<trkpt lat="39.4817543029785" lon="2.88114213943481">
			<ele>172.5</ele>
			<time>2014-01-02T12:03:12Z</time>
		</trkpt>
		<trkpt lat="39.4818267822266" lon="2.88119649887085">
			<ele>172.699996948242</ele>
			<time>2014-01-02T12:03:14Z</time>
		</trkpt>
		<trkpt lat="39.4819030761719" lon="2.8812472820282">
			<ele>172.5</ele>
			<time>2014-01-02T12:03:16Z</time>
		</trkpt>
		<trkpt lat="39.4819793701172" lon="2.88129830360413">
			<ele>172.5</ele>
			<time>2014-01-02T12:03:18Z</time>
		</trkpt>
		<trkpt lat="39.4820442199707" lon="2.88135671615601">
			<ele>173</ele>
			<time>2014-01-02T12:03:20Z</time>
		</trkpt>
		<trkpt lat="39.4821090698242" lon="2.88142395019531">
			<ele>173.399993896484</ele>
			<time>2014-01-02T12:03:22Z</time>
		</trkpt>
		<trkpt lat="39.4821701049805" lon="2.88149094581604">
			<ele>174</ele>
			<time>2014-01-02T12:03:24Z</time>
		</trkpt>
		<trkpt lat="39.482234954834" lon="2.88154888153076">
			<ele>174</ele>
			<time>2014-01-02T12:03:26Z</time>
		</trkpt>
		<trkpt lat="39.4822959899902" lon="2.88160181045532">
			<ele>174.100006103516</ele>
			<time>2014-01-02T12:03:28Z</time>
		</trkpt>
		<trkpt lat="39.4823532104492" lon="2.8816545009613">
			<ele>174.5</ele>
			<time>2014-01-02T12:03:30Z</time>
		</trkpt>
		<trkpt lat="39.4824104309082" lon="2.88170886039734">
			<ele>174.399993896484</ele>
			<time>2014-01-02T12:03:32Z</time>
		</trkpt>
		<trkpt lat="39.4824676513672" lon="2.88176822662354">
			<ele>174.699996948242</ele>
			<time>2014-01-02T12:03:34Z</time>
		</trkpt>
		<trkpt lat="39.4825248718262" lon="2.88182902336121">
			<ele>174.600006103516</ele>
			<time>2014-01-02T12:03:36Z</time>
		</trkpt>
		<trkpt lat="39.4825820922852" lon="2.88188743591309">
			<ele>174.5</ele>
			<time>2014-01-02T12:03:38Z</time>
		</trkpt>
		<trkpt lat="39.4826316833496" lon="2.88195109367371">
			<ele>174.5</ele>
			<time>2014-01-02T12:03:40Z</time>
		</trkpt>
		<trkpt lat="39.4826889038086" lon="2.88200950622559">
			<ele>174.399993896484</ele>
			<time>2014-01-02T12:03:42Z</time>
		</trkpt>
		<trkpt lat="39.4827461242676" lon="2.88206720352173">
			<ele>174.300003051758</ele>
			<time>2014-01-02T12:03:44Z</time>
		</trkpt>
		<trkpt lat="39.4828071594238" lon="2.88212752342224">
			<ele>174.199996948242</ele>
			<time>2014-01-02T12:03:46Z</time>
		</trkpt>
		<trkpt lat="39.4828643798828" lon="2.88219022750854">
			<ele>174.399993896484</ele>
			<time>2014-01-02T12:03:48Z</time>
		</trkpt>
		<trkpt lat="39.4829216003418" lon="2.88225150108337">
			<ele>174.300003051758</ele>
			<time>2014-01-02T12:03:50Z</time>
		</trkpt>
		<trkpt lat="39.4829788208008" lon="2.88231420516968">
			<ele>174.5</ele>
			<time>2014-01-02T12:03:52Z</time>
		</trkpt>
		<trkpt lat="39.483039855957" lon="2.88237571716309">
			<ele>174.600006103516</ele>
			<time>2014-01-02T12:03:54Z</time>
		</trkpt>
		<trkpt lat="39.4830894470215" lon="2.88243722915649">
			<ele>174.800003051758</ele>
			<time>2014-01-02T12:03:56Z</time>
		</trkpt>
		<trkpt lat="39.4831428527832" lon="2.88249921798706">
			<ele>175.199996948242</ele>
			<time>2014-01-02T12:03:58Z</time>
		</trkpt>
		<trkpt lat="39.4831962585449" lon="2.88256216049194">
			<ele>175.399993896484</ele>
			<time>2014-01-02T12:04:00Z</time>
		</trkpt>
		<trkpt lat="39.4832496643066" lon="2.88262486457825">
			<ele>175.899993896484</ele>
			<time>2014-01-02T12:04:02Z</time>
		</trkpt>
		<trkpt lat="39.4832992553711" lon="2.88269281387329">
			<ele>176.199996948242</ele>
			<time>2014-01-02T12:04:04Z</time>
		</trkpt>
		<trkpt lat="39.4833488464355" lon="2.88275623321533">
			<ele>176.600006103516</ele>
			<time>2014-01-02T12:04:06Z</time>
		</trkpt>
		<trkpt lat="39.4834022521973" lon="2.88282299041748">
			<ele>176.899993896484</ele>
			<time>2014-01-02T12:04:08Z</time>
		</trkpt>
		<trkpt lat="39.4834518432617" lon="2.88288855552673">
			<ele>177.100006103516</ele>
			<time>2014-01-02T12:04:10Z</time>
		</trkpt>
		<trkpt lat="39.4835052490234" lon="2.88295388221741">
			<ele>177.399993896484</ele>
			<time>2014-01-02T12:04:12Z</time>
		</trkpt>
		<trkpt lat="39.4835624694824" lon="2.88302111625671">
			<ele>177.800003051758</ele>
			<time>2014-01-02T12:04:14Z</time>
		</trkpt>
		<trkpt lat="39.4836120605469" lon="2.88308620452881">
			<ele>177.899993896484</ele>
			<time>2014-01-02T12:04:16Z</time>
		</trkpt>
		<trkpt lat="39.4836654663086" lon="2.88315510749817">
			<ele>178.300003051758</ele>
			<time>2014-01-02T12:04:18Z</time>
		</trkpt>
		<trkpt lat="39.4837188720703" lon="2.88322162628174">
			<ele>178.399993896484</ele>
			<time>2014-01-02T12:04:20Z</time>
		</trkpt>
		<trkpt lat="39.483772277832" lon="2.88328886032104">
			<ele>178.699996948242</ele>
			<time>2014-01-02T12:04:22Z</time>
		</trkpt>
		<trkpt lat="39.4838256835938" lon="2.88335990905762">
			<ele>178.800003051758</ele>
			<time>2014-01-02T12:04:24Z</time>
		</trkpt>
		<trkpt lat="39.4838829040527" lon="2.88342785835266">
			<ele>179</ele>
			<time>2014-01-02T12:04:26Z</time>
		</trkpt>
		<trkpt lat="39.4839363098145" lon="2.88349676132202">
			<ele>179.100006103516</ele>
			<time>2014-01-02T12:04:28Z</time>
		</trkpt>
		<trkpt lat="39.4839973449707" lon="2.8835608959198">
			<ele>179.5</ele>
			<time>2014-01-02T12:04:30Z</time>
		</trkpt>
		<trkpt lat="39.4840507507324" lon="2.88362765312195">
			<ele>179.5</ele>
			<time>2014-01-02T12:04:32Z</time>
		</trkpt>
		<trkpt lat="39.4841079711914" lon="2.88369345664978">
			<ele>179.800003051758</ele>
			<time>2014-01-02T12:04:34Z</time>
		</trkpt>
		<trkpt lat="39.4841651916504" lon="2.88376259803772">
			<ele>180</ele>
			<time>2014-01-02T12:04:36Z</time>
		</trkpt>
		<trkpt lat="39.4842185974121" lon="2.88383364677429">
			<ele>180.100006103516</ele>
			<time>2014-01-02T12:04:38Z</time>
		</trkpt>
		<trkpt lat="39.4842758178711" lon="2.88390254974365">
			<ele>180.300003051758</ele>
			<time>2014-01-02T12:04:40Z</time>
		</trkpt>
		<trkpt lat="39.4843368530273" lon="2.88396596908569">
			<ele>180.699996948242</ele>
			<time>2014-01-02T12:04:42Z</time>
		</trkpt>
		<trkpt lat="39.4843940734863" lon="2.88402962684631">
			<ele>181</ele>
			<time>2014-01-02T12:04:44Z</time>
		</trkpt>
		<trkpt lat="39.4844512939453" lon="2.88409161567688">
			<ele>181.300003051758</ele>
			<time>2014-01-02T12:04:46Z</time>
		</trkpt>
		<trkpt lat="39.4845085144043" lon="2.88415670394897">
			<ele>181.5</ele>
			<time>2014-01-02T12:04:48Z</time>
		</trkpt>
		<trkpt lat="39.4845695495605" lon="2.88421654701233">
			<ele>181.800003051758</ele>
			<time>2014-01-02T12:04:50Z</time>
		</trkpt>
		<trkpt lat="39.4846229553223" lon="2.88428044319153">
			<ele>182</ele>
			<time>2014-01-02T12:04:52Z</time>
		</trkpt>
		<trkpt lat="39.4846801757813" lon="2.88434481620789">
			<ele>182</ele>
			<time>2014-01-02T12:04:54Z</time>
		</trkpt>
		<trkpt lat="39.484733581543" lon="2.88441276550293">
			<ele>182.300003051758</ele>
			<time>2014-01-02T12:04:56Z</time>
		</trkpt>
		<trkpt lat="39.484790802002" lon="2.88448190689087">
			<ele>182.199996948242</ele>
			<time>2014-01-02T12:04:58Z</time>
		</trkpt>
		<trkpt lat="39.4848480224609" lon="2.88455009460449">
			<ele>182.5</ele>
			<time>2014-01-02T12:05:00Z</time>
		</trkpt>
		<trkpt lat="39.4849090576172" lon="2.88461065292358">
			<ele>183.100006103516</ele>
			<time>2014-01-02T12:05:02Z</time>
		</trkpt>
		<trkpt lat="39.4849624633789" lon="2.88467454910278">
			<ele>183.100006103516</ele>
			<time>2014-01-02T12:05:04Z</time>
		</trkpt>
		<trkpt lat="39.4850196838379" lon="2.88473987579346">
			<ele>183.199996948242</ele>
			<time>2014-01-02T12:05:07Z</time>
		</trkpt>
		<trkpt lat="39.485107421875" lon="2.88483858108521">
			<ele>183.800003051758</ele>
			<time>2014-01-02T12:05:09Z</time>
		</trkpt>
		<trkpt lat="39.485164642334" lon="2.88490319252014">
			<ele>184</ele>
			<time>2014-01-02T12:05:12Z</time>
		</trkpt>
		<trkpt lat="39.4852142333984" lon="2.8849630355835">
			<ele>184.800003051758</ele>
			<time>2014-01-02T12:05:13Z</time>
		</trkpt>
		<trkpt lat="39.4852752685547" lon="2.88503813743591">
			<ele>187.100006103516</ele>
			<time>2014-01-02T12:05:15Z</time>
		</trkpt>
		<trkpt lat="39.4853324890137" lon="2.88510417938232">
			<ele>187.699996948242</ele>
			<time>2014-01-02T12:05:17Z</time>
		</trkpt>
		<trkpt lat="39.485408782959" lon="2.88518762588501">
			<ele>187.5</ele>
			<time>2014-01-02T12:05:20Z</time>
		</trkpt>
		<trkpt lat="39.4854774475098" lon="2.88526964187622">
			<ele>187.100006103516</ele>
			<time>2014-01-02T12:05:23Z</time>
		</trkpt>
		<trkpt lat="39.4855346679688" lon="2.88531923294067">
			<ele>187.899993896484</ele>
			<time>2014-01-02T12:05:25Z</time>
		</trkpt>
		<trkpt lat="39.4855918884277" lon="2.8853747844696">
			<ele>187.800003051758</ele>
			<time>2014-01-02T12:05:27Z</time>
		</trkpt>
		<trkpt lat="39.4856414794922" lon="2.88542771339417">
			<ele>188.100006103516</ele>
			<time>2014-01-02T12:05:29Z</time>
		</trkpt>
		<trkpt lat="39.4856986999512" lon="2.88547396659851">
			<ele>188</ele>
			<time>2014-01-02T12:05:31Z</time>
		</trkpt>
		<trkpt lat="39.4857559204102" lon="2.88552284240723">
			<ele>187.699996948242</ele>
			<time>2014-01-02T12:05:33Z</time>
		</trkpt>
		<trkpt lat="39.4858093261719" lon="2.88557457923889">
			<ele>187.5</ele>
			<time>2014-01-02T12:05:35Z</time>
		</trkpt>
		<trkpt lat="39.4858665466309" lon="2.88562512397766">
			<ele>187.300003051758</ele>
			<time>2014-01-02T12:05:37Z</time>
		</trkpt>
		<trkpt lat="39.485912322998" lon="2.88567399978638">
			<ele>187.300003051758</ele>
			<time>2014-01-02T12:05:39Z</time>
		</trkpt>
		<trkpt lat="39.4859580993652" lon="2.88569092750549">
			<ele>188.199996948242</ele>
			<time>2014-01-02T12:05:40Z</time>
		</trkpt>
		<trkpt lat="39.486011505127" lon="2.88573861122131">
			<ele>188.100006103516</ele>
			<time>2014-01-02T12:05:42Z</time>
		</trkpt>
		<trkpt lat="39.4860649108887" lon="2.88578104972839">
			<ele>188.300003051758</ele>
			<time>2014-01-02T12:05:44Z</time>
		</trkpt>
		<trkpt lat="39.4861183166504" lon="2.88583111763">
			<ele>188.600006103516</ele>
			<time>2014-01-02T12:05:46Z</time>
		</trkpt>
		<trkpt lat="39.4861755371094" lon="2.88588786125183">
			<ele>188.699996948242</ele>
			<time>2014-01-02T12:05:48Z</time>
		</trkpt>
		<trkpt lat="39.4862174987793" lon="2.8859269618988">
			<ele>189.199996948242</ele>
			<time>2014-01-02T12:05:50Z</time>
		</trkpt>
		<trkpt lat="39.4862747192383" lon="2.88597106933594">
			<ele>190.899993896484</ele>
			<time>2014-01-02T12:05:52Z</time>
		</trkpt>
		<trkpt lat="39.486328125" lon="2.8860170841217">
			<ele>192</ele>
			<time>2014-01-02T12:05:54Z</time>
		</trkpt>
		<trkpt lat="39.4863815307617" lon="2.88608741760254">
			<ele>193.199996948242</ele>
			<time>2014-01-02T12:05:56Z</time>
		</trkpt>
		<trkpt lat="39.486457824707" lon="2.88612914085388">
			<ele>192.399993896484</ele>
			<time>2014-01-02T12:05:58Z</time>
		</trkpt>
		<trkpt lat="39.4865226745605" lon="2.88615989685059">
			<ele>193.100006103516</ele>
			<time>2014-01-02T12:06:00Z</time>
		</trkpt>
		<trkpt lat="39.4865684509277" lon="2.88621068000793">
			<ele>194.899993896484</ele>
			<time>2014-01-02T12:06:03Z</time>
		</trkpt>
		<trkpt lat="39.4865493774414" lon="2.8862726688385">
			<ele>192.800003051758</ele>
			<time>2014-01-02T12:06:04Z</time>
		</trkpt>
		<trkpt lat="39.4865341186523" lon="2.88634705543518">
			<ele>191.800003051758</ele>
			<time>2014-01-02T12:06:06Z</time>
		</trkpt>
		<trkpt lat="39.4865341186523" lon="2.88643002510071">
			<ele>191.899993896484</ele>
			<time>2014-01-02T12:06:08Z</time>
		</trkpt>
		<trkpt lat="39.4865112304688" lon="2.88652300834656">
			<ele>191.300003051758</ele>
			<time>2014-01-02T12:06:10Z</time>
		</trkpt>
		<trkpt lat="39.4865036010742" lon="2.88661408424377">
			<ele>191</ele>
			<time>2014-01-02T12:06:12Z</time>
		</trkpt>
		<trkpt lat="39.4864959716797" lon="2.88670086860657">
			<ele>190.5</ele>
			<time>2014-01-02T12:06:14Z</time>
		</trkpt>
		<trkpt lat="39.4864768981934" lon="2.88678956031799">
			<ele>190</ele>
			<time>2014-01-02T12:06:16Z</time>
		</trkpt>
		<trkpt lat="39.4864654541016" lon="2.886883020401">
			<ele>189.399993896484</ele>
			<time>2014-01-02T12:06:18Z</time>
		</trkpt>
		<trkpt lat="39.4864463806152" lon="2.88697075843811">
			<ele>189.399993896484</ele>
			<time>2014-01-02T12:06:20Z</time>
		</trkpt>
		<trkpt lat="39.4864387512207" lon="2.88705968856812">
			<ele>189.399993896484</ele>
			<time>2014-01-02T12:06:22Z</time>
		</trkpt>
		<trkpt lat="39.4864158630371" lon="2.88714337348938">
			<ele>189.600006103516</ele>
			<time>2014-01-02T12:06:24Z</time>
		</trkpt>
		<trkpt lat="39.4864158630371" lon="2.8872389793396">
			<ele>188.699996948242</ele>
			<time>2014-01-02T12:06:26Z</time>
		</trkpt>
		<trkpt lat="39.486400604248" lon="2.8873016834259">
			<ele>187.800003051758</ele>
			<time>2014-01-02T12:06:27Z</time>
		</trkpt>
		<trkpt lat="39.486385345459" lon="2.88739657402039">
			<ele>186.699996948242</ele>
			<time>2014-01-02T12:06:29Z</time>
		</trkpt>
		<trkpt lat="39.4863739013672" lon="2.88750076293945">
			<ele>187.5</ele>
			<time>2014-01-02T12:06:31Z</time>
		</trkpt>
		<trkpt lat="39.4863510131836" lon="2.88759994506836">
			<ele>187.600006103516</ele>
			<time>2014-01-02T12:06:33Z</time>
		</trkpt>
		<trkpt lat="39.4863319396973" lon="2.88769745826721">
			<ele>187</ele>
			<time>2014-01-02T12:06:35Z</time>
		</trkpt>
		<trkpt lat="39.486328125" lon="2.88778448104858">
			<ele>188.199996948242</ele>
			<time>2014-01-02T12:06:37Z</time>
		</trkpt>
		<trkpt lat="39.4863166809082" lon="2.88788175582886">
			<ele>188.5</ele>
			<time>2014-01-02T12:06:39Z</time>
		</trkpt>
		<trkpt lat="39.4863052368164" lon="2.88797283172607">
			<ele>188.100006103516</ele>
			<time>2014-01-02T12:06:41Z</time>
		</trkpt>
		<trkpt lat="39.4862861633301" lon="2.88806128501892">
			<ele>188.100006103516</ele>
			<time>2014-01-02T12:06:43Z</time>
		</trkpt>
		<trkpt lat="39.486270904541" lon="2.88816380500793">
			<ele>188.100006103516</ele>
			<time>2014-01-02T12:06:45Z</time>
		</trkpt>
		<trkpt lat="39.4862594604492" lon="2.88825988769531">
			<ele>188.199996948242</ele>
			<time>2014-01-02T12:06:47Z</time>
		</trkpt>
		<trkpt lat="39.4862518310547" lon="2.88835263252258">
			<ele>188.600006103516</ele>
			<time>2014-01-02T12:06:49Z</time>
		</trkpt>
		<trkpt lat="39.4862442016602" lon="2.88844609260559">
			<ele>188.600006103516</ele>
			<time>2014-01-02T12:06:51Z</time>
		</trkpt>
		<trkpt lat="39.4862289428711" lon="2.88853883743286">
			<ele>188.899993896484</ele>
			<time>2014-01-02T12:06:53Z</time>
		</trkpt>
		<trkpt lat="39.4862098693848" lon="2.88862943649292">
			<ele>188.899993896484</ele>
			<time>2014-01-02T12:06:55Z</time>
		</trkpt>
		<trkpt lat="39.486198425293" lon="2.88872647285461">
			<ele>189.199996948242</ele>
			<time>2014-01-02T12:06:57Z</time>
		</trkpt>
		<trkpt lat="39.4861907958984" lon="2.88882040977478">
			<ele>189.5</ele>
			<time>2014-01-02T12:06:59Z</time>
		</trkpt>
		<trkpt lat="39.4861793518066" lon="2.888916015625">
			<ele>189.399993896484</ele>
			<time>2014-01-02T12:07:01Z</time>
		</trkpt>
		<trkpt lat="39.4861679077148" lon="2.8890106678009">
			<ele>189.5</ele>
			<time>2014-01-02T12:07:03Z</time>
		</trkpt>
		<trkpt lat="39.4861526489258" lon="2.88910460472107">
			<ele>189.199996948242</ele>
			<time>2014-01-02T12:07:05Z</time>
		</trkpt>
		<trkpt lat="39.4861373901367" lon="2.88919997215271">
			<ele>189.300003051758</ele>
			<time>2014-01-02T12:07:07Z</time>
		</trkpt>
		<trkpt lat="39.4861221313477" lon="2.88929533958435">
			<ele>189.399993896484</ele>
			<time>2014-01-02T12:07:09Z</time>
		</trkpt>
		<trkpt lat="39.4861106872559" lon="2.88938808441162">
			<ele>189.300003051758</ele>
			<time>2014-01-02T12:07:11Z</time>
		</trkpt>
		<trkpt lat="39.4860954284668" lon="2.88948369026184">
			<ele>189.300003051758</ele>
			<time>2014-01-02T12:07:13Z</time>
		</trkpt>
		<trkpt lat="39.486083984375" lon="2.88957524299622">
			<ele>189.300003051758</ele>
			<time>2014-01-02T12:07:15Z</time>
		</trkpt>
		<trkpt lat="39.4860725402832" lon="2.8896689414978">
			<ele>188.899993896484</ele>
			<time>2014-01-02T12:07:17Z</time>
		</trkpt>
		<trkpt lat="39.4860649108887" lon="2.88976120948792">
			<ele>188.800003051758</ele>
			<time>2014-01-02T12:07:19Z</time>
		</trkpt>
		<trkpt lat="39.4860382080078" lon="2.8898663520813">
			<ele>188.899993896484</ele>
			<time>2014-01-02T12:07:21Z</time>
		</trkpt>
		<trkpt lat="39.486026763916" lon="2.88996434211731">
			<ele>188.899993896484</ele>
			<time>2014-01-02T12:07:23Z</time>
		</trkpt>
		<trkpt lat="39.486011505127" lon="2.89006209373474">
			<ele>189.199996948242</ele>
			<time>2014-01-02T12:07:25Z</time>
		</trkpt>
		<trkpt lat="39.4860000610352" lon="2.89015293121338">
			<ele>189.699996948242</ele>
			<time>2014-01-02T12:07:27Z</time>
		</trkpt>
		<trkpt lat="39.4859924316406" lon="2.89022660255432">
			<ele>189.199996948242</ele>
			<time>2014-01-02T12:07:29Z</time>
		</trkpt>
		<trkpt lat="39.4859962463379" lon="2.89031338691711">
			<ele>189.100006103516</ele>
			<time>2014-01-02T12:07:32Z</time>
		</trkpt>
		<trkpt lat="39.4860076904297" lon="2.89039206504822">
			<ele>188.800003051758</ele>
			<time>2014-01-02T12:07:34Z</time>
		</trkpt>
		<trkpt lat="39.4860153198242" lon="2.89047002792358">
			<ele>189</ele>
			<time>2014-01-02T12:07:36Z</time>
		</trkpt>
		<trkpt lat="39.4860649108887" lon="2.89052104949951">
			<ele>189.100006103516</ele>
			<time>2014-01-02T12:07:39Z</time>
		</trkpt>
		<trkpt lat="39.4861297607422" lon="2.89055776596069">
			<ele>190.399993896484</ele>
			<time>2014-01-02T12:07:41Z</time>
		</trkpt>
		<trkpt lat="39.4861869812012" lon="2.89060378074646">
			<ele>191.199996948242</ele>
			<time>2014-01-02T12:07:43Z</time>
		</trkpt>
		<trkpt lat="39.4862442016602" lon="2.8906409740448">
			<ele>191.399993896484</ele>
			<time>2014-01-02T12:07:45Z</time>
		</trkpt>
		<trkpt lat="39.4862976074219" lon="2.89068245887756">
			<ele>191.199996948242</ele>
			<time>2014-01-02T12:07:47Z</time>
		</trkpt>
		<trkpt lat="39.4863548278809" lon="2.8907196521759">
			<ele>191.199996948242</ele>
			<time>2014-01-02T12:07:49Z</time>
		</trkpt>
		<trkpt lat="39.486400604248" lon="2.8907585144043">
			<ele>191</ele>
			<time>2014-01-02T12:07:51Z</time>
		</trkpt>
		<trkpt lat="39.4864654541016" lon="2.89081621170044">
			<ele>190.699996948242</ele>
			<time>2014-01-02T12:07:53Z</time>
		</trkpt>
		<trkpt lat="39.4865226745605" lon="2.89084672927856">
			<ele>190.5</ele>
			<time>2014-01-02T12:07:55Z</time>
		</trkpt>
		<trkpt lat="39.4865837097168" lon="2.8908839225769">
			<ele>190.600006103516</ele>
			<time>2014-01-02T12:07:57Z</time>
		</trkpt>
		<trkpt lat="39.4866409301758" lon="2.89092326164246">
			<ele>191.300003051758</ele>
			<time>2014-01-02T12:07:59Z</time>
		</trkpt>
		<trkpt lat="39.4866981506348" lon="2.89097023010254">
			<ele>192.199996948242</ele>
			<time>2014-01-02T12:08:01Z</time>
		</trkpt>
		<trkpt lat="39.4867553710938" lon="2.89101052284241">
			<ele>192.600006103516</ele>
			<time>2014-01-02T12:08:03Z</time>
		</trkpt>
		<trkpt lat="39.4868087768555" lon="2.89104962348938">
			<ele>193</ele>
			<time>2014-01-02T12:08:05Z</time>
		</trkpt>
		<trkpt lat="39.4868659973145" lon="2.89109706878662">
			<ele>192.699996948242</ele>
			<time>2014-01-02T12:08:07Z</time>
		</trkpt>
		<trkpt lat="39.4869194030762" lon="2.89114117622375">
			<ele>192</ele>
			<time>2014-01-02T12:08:09Z</time>
		</trkpt>
		<trkpt lat="39.4869689941406" lon="2.89117908477783">
			<ele>192</ele>
			<time>2014-01-02T12:08:11Z</time>
		</trkpt>
		<trkpt lat="39.4870109558105" lon="2.89121437072754">
			<ele>192.199996948242</ele>
			<time>2014-01-02T12:08:13Z</time>
		</trkpt>
		<trkpt lat="39.487060546875" lon="2.8912570476532">
			<ele>191.600006103516</ele>
			<time>2014-01-02T12:08:15Z</time>
		</trkpt>
		<trkpt lat="39.4871253967285" lon="2.89130663871765">
			<ele>192.100006103516</ele>
			<time>2014-01-02T12:08:17Z</time>
		</trkpt>
		<trkpt lat="39.4871788024902" lon="2.8913459777832">
			<ele>192</ele>
			<time>2014-01-02T12:08:19Z</time>
		</trkpt>
		<trkpt lat="39.4872283935547" lon="2.89138603210449">
			<ele>192.5</ele>
			<time>2014-01-02T12:08:21Z</time>
		</trkpt>
		<trkpt lat="39.4872817993164" lon="2.89144349098206">
			<ele>193.800003051758</ele>
			<time>2014-01-02T12:08:23Z</time>
		</trkpt>
		<trkpt lat="39.4873352050781" lon="2.89147448539734">
			<ele>193.600006103516</ele>
			<time>2014-01-02T12:08:25Z</time>
		</trkpt>
		<trkpt lat="39.4873924255371" lon="2.89152359962463">
			<ele>194.300003051758</ele>
			<time>2014-01-02T12:08:27Z</time>
		</trkpt>
		<trkpt lat="39.4874458312988" lon="2.89156103134155">
			<ele>194.399993896484</ele>
			<time>2014-01-02T12:08:29Z</time>
		</trkpt>
		<trkpt lat="39.4874954223633" lon="2.89160513877869">
			<ele>195.199996948242</ele>
			<time>2014-01-02T12:08:31Z</time>
		</trkpt>
		<trkpt lat="39.4875373840332" lon="2.89165687561035">
			<ele>194.699996948242</ele>
			<time>2014-01-02T12:08:33Z</time>
		</trkpt>
		<trkpt lat="39.4875907897949" lon="2.89170026779175">
			<ele>194.899993896484</ele>
			<time>2014-01-02T12:08:35Z</time>
		</trkpt>
		<trkpt lat="39.4876441955566" lon="2.89174509048462">
			<ele>195.300003051758</ele>
			<time>2014-01-02T12:08:37Z</time>
		</trkpt>
		<trkpt lat="39.4877014160156" lon="2.89179039001465">
			<ele>195.800003051758</ele>
			<time>2014-01-02T12:08:39Z</time>
		</trkpt>
		<trkpt lat="39.4877471923828" lon="2.89183187484741">
			<ele>195.899993896484</ele>
			<time>2014-01-02T12:08:41Z</time>
		</trkpt>
		<trkpt lat="39.4878005981445" lon="2.89186668395996">
			<ele>196.100006103516</ele>
			<time>2014-01-02T12:08:43Z</time>
		</trkpt>
		<trkpt lat="39.4878730773926" lon="2.89191293716431">
			<ele>196.800003051758</ele>
			<time>2014-01-02T12:08:45Z</time>
		</trkpt>
		<trkpt lat="39.4879264831543" lon="2.89195275306702">
			<ele>196.699996948242</ele>
			<time>2014-01-02T12:08:47Z</time>
		</trkpt>
		<trkpt lat="39.4879989624023" lon="2.89199781417847">
			<ele>197.100006103516</ele>
			<time>2014-01-02T12:08:49Z</time>
		</trkpt>
		<trkpt lat="39.4880485534668" lon="2.89203190803528">
			<ele>198.199996948242</ele>
			<time>2014-01-02T12:08:51Z</time>
		</trkpt>
		<trkpt lat="39.4881057739258" lon="2.89208388328552">
			<ele>198.100006103516</ele>
			<time>2014-01-02T12:08:53Z</time>
		</trkpt>
		<trkpt lat="39.4881553649902" lon="2.89214158058167">
			<ele>197.899993896484</ele>
			<time>2014-01-02T12:08:55Z</time>
		</trkpt>
		<trkpt lat="39.4882164001465" lon="2.89219164848328">
			<ele>197.699996948242</ele>
			<time>2014-01-02T12:08:57Z</time>
		</trkpt>
		<trkpt lat="39.4882926940918" lon="2.89222979545593">
			<ele>196.100006103516</ele>
			<time>2014-01-02T12:08:59Z</time>
		</trkpt>
		<trkpt lat="39.4883346557617" lon="2.89227175712585">
			<ele>196.399993896484</ele>
			<time>2014-01-02T12:09:01Z</time>
		</trkpt>
		<trkpt lat="39.4883766174316" lon="2.89229917526245">
			<ele>197</ele>
			<time>2014-01-02T12:09:02Z</time>
		</trkpt>
		<trkpt lat="39.4884452819824" lon="2.89234566688538">
			<ele>197.699996948242</ele>
			<time>2014-01-02T12:09:04Z</time>
		</trkpt>
		<trkpt lat="39.4884910583496" lon="2.89237785339355">
			<ele>197.600006103516</ele>
			<time>2014-01-02T12:09:06Z</time>
		</trkpt>
		<trkpt lat="39.4885635375977" lon="2.89237928390503">
			<ele>193.800003051758</ele>
			<time>2014-01-02T12:09:08Z</time>
		</trkpt>
		<trkpt lat="39.4886207580566" lon="2.89241480827332">
			<ele>191.899993896484</ele>
			<time>2014-01-02T12:09:10Z</time>
		</trkpt>
		<trkpt lat="39.4886817932129" lon="2.89245319366455">
			<ele>191.699996948242</ele>
			<time>2014-01-02T12:09:12Z</time>
		</trkpt>
		<trkpt lat="39.4887351989746" lon="2.89250922203064">
			<ele>191.600006103516</ele>
			<time>2014-01-02T12:09:14Z</time>
		</trkpt>
		<trkpt lat="39.4887924194336" lon="2.89255404472351">
			<ele>192</ele>
			<time>2014-01-02T12:09:16Z</time>
		</trkpt>
		<trkpt lat="39.4888114929199" lon="2.89260983467102">
			<ele>193.800003051758</ele>
			<time>2014-01-02T12:09:17Z</time>
		</trkpt>
		<trkpt lat="39.4888687133789" lon="2.89267468452454">
			<ele>194</ele>
			<time>2014-01-02T12:09:19Z</time>
		</trkpt>
		<trkpt lat="39.4889030456543" lon="2.89271283149719">
			<ele>194</ele>
			<time>2014-01-02T12:09:21Z</time>
		</trkpt>
		<trkpt lat="39.4889526367188" lon="2.89278554916382">
			<ele>194.300003051758</ele>
			<time>2014-01-02T12:09:23Z</time>
		</trkpt>
		<trkpt lat="39.4889945983887" lon="2.89281415939331">
			<ele>194.600006103516</ele>
			<time>2014-01-02T12:09:24Z</time>
		</trkpt>
		<trkpt lat="39.4890289306641" lon="2.89287066459656">
			<ele>194.800003051758</ele>
			<time>2014-01-02T12:09:26Z</time>
		</trkpt>
		<trkpt lat="39.4890785217285" lon="2.89288139343262">
			<ele>195.100006103516</ele>
			<time>2014-01-02T12:09:27Z</time>
		</trkpt>
		<trkpt lat="39.489128112793" lon="2.89289855957031">
			<ele>197.100006103516</ele>
			<time>2014-01-02T12:09:30Z</time>
		</trkpt>
		<trkpt lat="39.4891815185547" lon="2.89292907714844">
			<ele>197.399993896484</ele>
			<time>2014-01-02T12:09:31Z</time>
		</trkpt>
		<trkpt lat="39.4892349243164" lon="2.89286184310913">
			<ele>196.300003051758</ele>
			<time>2014-01-02T12:09:33Z</time>
		</trkpt>
		<trkpt lat="39.4892501831055" lon="2.89279961585999">
			<ele>195.199996948242</ele>
			<time>2014-01-02T12:09:34Z</time>
		</trkpt>
		<trkpt lat="39.4892921447754" lon="2.8927173614502">
			<ele>194.100006103516</ele>
			<time>2014-01-02T12:09:36Z</time>
		</trkpt>
		<trkpt lat="39.4893264770508" lon="2.89263701438904">
			<ele>194.100006103516</ele>
			<time>2014-01-02T12:09:38Z</time>
		</trkpt>
		<trkpt lat="39.489372253418" lon="2.89255023002625">
			<ele>194.899993896484</ele>
			<time>2014-01-02T12:09:40Z</time>
		</trkpt>
		<trkpt lat="39.4894256591797" lon="2.89247393608093">
			<ele>194.899993896484</ele>
			<time>2014-01-02T12:09:42Z</time>
		</trkpt>
		<trkpt lat="39.4894714355469" lon="2.89239192008972">
			<ele>194.899993896484</ele>
			<time>2014-01-02T12:09:44Z</time>
		</trkpt>
		<trkpt lat="39.4895095825195" lon="2.89231252670288">
			<ele>194</ele>
			<time>2014-01-02T12:09:46Z</time>
		</trkpt>
		<trkpt lat="39.4895515441895" lon="2.89221692085266">
			<ele>194.399993896484</ele>
			<time>2014-01-02T12:09:48Z</time>
		</trkpt>
		<trkpt lat="39.4895896911621" lon="2.89213919639587">
			<ele>194.600006103516</ele>
			<time>2014-01-02T12:09:50Z</time>
		</trkpt>
		<trkpt lat="39.4896278381348" lon="2.89206457138062">
			<ele>194.800003051758</ele>
			<time>2014-01-02T12:09:52Z</time>
		</trkpt>
		<trkpt lat="39.4896469116211" lon="2.89200234413147">
			<ele>194.600006103516</ele>
			<time>2014-01-02T12:09:54Z</time>
		</trkpt>
		<trkpt lat="39.489688873291" lon="2.89192962646484">
			<ele>194.899993896484</ele>
			<time>2014-01-02T12:09:56Z</time>
		</trkpt>
		<trkpt lat="39.4897270202637" lon="2.89182782173157">
			<ele>195.100006103516</ele>
			<time>2014-01-02T12:09:58Z</time>
		</trkpt>
		<trkpt lat="39.4897689819336" lon="2.89173316955566">
			<ele>197.100006103516</ele>
			<time>2014-01-02T12:10:00Z</time>
		</trkpt>
		<trkpt lat="39.4898109436035" lon="2.89163827896118">
			<ele>195.5</ele>
			<time>2014-01-02T12:10:02Z</time>
		</trkpt>
		<trkpt lat="39.4898376464844" lon="2.89158248901367">
			<ele>193.600006103516</ele>
			<time>2014-01-02T12:10:04Z</time>
		</trkpt>
		<trkpt lat="39.4898529052734" lon="2.8914966583252">
			<ele>191.899993896484</ele>
			<time>2014-01-02T12:10:06Z</time>
		</trkpt>
		<trkpt lat="39.4898910522461" lon="2.89143228530884">
			<ele>191.600006103516</ele>
			<time>2014-01-02T12:10:08Z</time>
		</trkpt>
		<trkpt lat="39.4899444580078" lon="2.89138245582581">
			<ele>191</ele>
			<time>2014-01-02T12:10:10Z</time>
		</trkpt>
		<trkpt lat="39.4899864196777" lon="2.89130520820618">
			<ele>191.399993896484</ele>
			<time>2014-01-02T12:10:12Z</time>
		</trkpt>
		<trkpt lat="39.4900093078613" lon="2.8912250995636">
			<ele>191.399993896484</ele>
			<time>2014-01-02T12:10:14Z</time>
		</trkpt>
		<trkpt lat="39.4900550842285" lon="2.89117193222046">
			<ele>191.300003051758</ele>
			<time>2014-01-02T12:10:16Z</time>
		</trkpt>
		<trkpt lat="39.4900817871094" lon="2.89110612869263">
			<ele>190.699996948242</ele>
			<time>2014-01-02T12:10:17Z</time>
		</trkpt>
		<trkpt lat="39.4901275634766" lon="2.89105129241943">
			<ele>190.5</ele>
			<time>2014-01-02T12:10:19Z</time>
		</trkpt>
		<trkpt lat="39.4901809692383" lon="2.89105439186096">
			<ele>190.399993896484</ele>
			<time>2014-01-02T12:10:21Z</time>
		</trkpt>
		<trkpt lat="39.4902420043945" lon="2.89106607437134">
			<ele>192</ele>
			<time>2014-01-02T12:10:23Z</time>
		</trkpt>
		<trkpt lat="39.4902763366699" lon="2.89112043380737">
			<ele>193.199996948242</ele>
			<time>2014-01-02T12:10:25Z</time>
		</trkpt>
		<trkpt lat="39.4903335571289" lon="2.89113998413086">
			<ele>197.300003051758</ele>
			<time>2014-01-02T12:10:27Z</time>
		</trkpt>
		<trkpt lat="39.4903755187988" lon="2.89116716384888">
			<ele>200.100006103516</ele>
			<time>2014-01-02T12:10:29Z</time>
		</trkpt>
		<trkpt lat="39.4904098510742" lon="2.89121651649475">
			<ele>202.899993896484</ele>
			<time>2014-01-02T12:10:32Z</time>
		</trkpt>
		<trkpt lat="39.4910011291504" lon="2.89142942428589">
			<ele>195.899993896484</ele>
			<time>2014-01-02T12:43:16Z</time>
		</trkpt>
		<trkpt lat="39.4909782409668" lon="2.89138102531433">
			<ele>194.100006103516</ele>
			<time>2014-01-02T12:44:11Z</time>
		</trkpt>
		<trkpt lat="39.491024017334" lon="2.89134883880615">
			<ele>195.300003051758</ele>
			<time>2014-01-02T12:44:18Z</time>
		</trkpt>
		<trkpt lat="39.4910583496094" lon="2.89128303527832">
			<ele>195.100006103516</ele>
			<time>2014-01-02T12:44:20Z</time>
		</trkpt>
		<trkpt lat="39.4910926818848" lon="2.89123320579529">
			<ele>196</ele>
			<time>2014-01-02T12:44:22Z</time>
		</trkpt>
		<trkpt lat="39.4911308288574" lon="2.89117813110352">
			<ele>196.199996948242</ele>
			<time>2014-01-02T12:44:24Z</time>
		</trkpt>
		<trkpt lat="39.4911651611328" lon="2.89112544059753">
			<ele>196.5</ele>
			<time>2014-01-02T12:44:26Z</time>
		</trkpt>
		<trkpt lat="39.4911956787109" lon="2.89108228683472">
			<ele>196.5</ele>
			<time>2014-01-02T12:44:28Z</time>
		</trkpt>
		<trkpt lat="39.4912261962891" lon="2.89102220535278">
			<ele>198</ele>
			<time>2014-01-02T12:44:30Z</time>
		</trkpt>
		<trkpt lat="39.4912757873535" lon="2.8909695148468">
			<ele>195.899993896484</ele>
			<time>2014-01-02T12:44:33Z</time>
		</trkpt>
		<trkpt lat="39.4913139343262" lon="2.89092683792114">
			<ele>196.300003051758</ele>
			<time>2014-01-02T12:44:35Z</time>
		</trkpt>
		<trkpt lat="39.4913444519043" lon="2.89087700843811">
			<ele>196.399993896484</ele>
			<time>2014-01-02T12:44:37Z</time>
		</trkpt>
		<trkpt lat="39.4913635253906" lon="2.89081621170044">
			<ele>195.199996948242</ele>
			<time>2014-01-02T12:44:39Z</time>
		</trkpt>
		<trkpt lat="39.4914054870605" lon="2.89076137542725">
			<ele>195.399993896484</ele>
			<time>2014-01-02T12:44:42Z</time>
		</trkpt>
		<trkpt lat="39.4914436340332" lon="2.89072680473328">
			<ele>195.699996948242</ele>
			<time>2014-01-02T12:44:45Z</time>
		</trkpt>
		<trkpt lat="39.4914894104004" lon="2.89074659347534">
			<ele>197.600006103516</ele>
			<time>2014-01-02T12:44:47Z</time>
		</trkpt>
		<trkpt lat="39.4915390014648" lon="2.89077520370483">
			<ele>197.300003051758</ele>
			<time>2014-01-02T12:44:49Z</time>
		</trkpt>
		<trkpt lat="39.4915962219238" lon="2.89079976081848">
			<ele>198</ele>
			<time>2014-01-02T12:44:52Z</time>
		</trkpt>
		<trkpt lat="39.4916496276855" lon="2.89082789421082">
			<ele>198.699996948242</ele>
			<time>2014-01-02T12:44:55Z</time>
		</trkpt>
		<trkpt lat="39.4917030334473" lon="2.89083886146545">
			<ele>199.399993896484</ele>
			<time>2014-01-02T12:44:57Z</time>
		</trkpt>
		<trkpt lat="39.4917488098145" lon="2.89085531234741">
			<ele>199.899993896484</ele>
			<time>2014-01-02T12:44:59Z</time>
		</trkpt>
		<trkpt lat="39.4918060302734" lon="2.89088797569275">
			<ele>201</ele>
			<time>2014-01-02T12:45:02Z</time>
		</trkpt>
		<trkpt lat="39.4918670654297" lon="2.89086818695068">
			<ele>200.5</ele>
			<time>2014-01-02T12:45:03Z</time>
		</trkpt>
		<trkpt lat="39.4919166564941" lon="2.89085340499878">
			<ele>200.600006103516</ele>
			<time>2014-01-02T12:45:05Z</time>
		</trkpt>
		<trkpt lat="39.4919052124023" lon="2.89074635505676">
			<ele>199.199996948242</ele>
			<time>2014-01-02T12:45:07Z</time>
		</trkpt>
		<trkpt lat="39.4919357299805" lon="2.89068555831909">
			<ele>199.300003051758</ele>
			<time>2014-01-02T12:45:09Z</time>
		</trkpt>
		<trkpt lat="39.4919662475586" lon="2.89061951637268">
			<ele>199.699996948242</ele>
			<time>2014-01-02T12:45:11Z</time>
		</trkpt>
		<trkpt lat="39.4919929504395" lon="2.89055991172791">
			<ele>199.699996948242</ele>
			<time>2014-01-02T12:45:13Z</time>
		</trkpt>
		<trkpt lat="39.4920349121094" lon="2.89050388336182">
			<ele>199.199996948242</ele>
			<time>2014-01-02T12:45:15Z</time>
		</trkpt>
		<trkpt lat="39.4920616149902" lon="2.89042639732361">
			<ele>199.399993896484</ele>
			<time>2014-01-02T12:45:17Z</time>
		</trkpt>
		<trkpt lat="39.4920921325684" lon="2.89036083221436">
			<ele>199.600006103516</ele>
			<time>2014-01-02T12:45:19Z</time>
		</trkpt>
		<trkpt lat="39.4921340942383" lon="2.89029145240784">
			<ele>199.5</ele>
			<time>2014-01-02T12:45:21Z</time>
		</trkpt>
		<trkpt lat="39.4921493530273" lon="2.89022779464722">
			<ele>199.199996948242</ele>
			<time>2014-01-02T12:45:23Z</time>
		</trkpt>
		<trkpt lat="39.4921798706055" lon="2.89014029502869">
			<ele>199.199996948242</ele>
			<time>2014-01-02T12:45:25Z</time>
		</trkpt>
		<trkpt lat="39.4922027587891" lon="2.89007639884949">
			<ele>200.199996948242</ele>
			<time>2014-01-02T12:45:27Z</time>
		</trkpt>
		<trkpt lat="39.4922294616699" lon="2.8900158405304">
			<ele>201.5</ele>
			<time>2014-01-02T12:45:29Z</time>
		</trkpt>
		<trkpt lat="39.4922409057617" lon="2.88993954658508">
			<ele>201.199996948242</ele>
			<time>2014-01-02T12:45:31Z</time>
		</trkpt>
		<trkpt lat="39.4922714233398" lon="2.88987493515015">
			<ele>201.199996948242</ele>
			<time>2014-01-02T12:45:33Z</time>
		</trkpt>
		<trkpt lat="39.492301940918" lon="2.88980340957642">
			<ele>200.600006103516</ele>
			<time>2014-01-02T12:45:35Z</time>
		</trkpt>
		<trkpt lat="39.4923324584961" lon="2.88974642753601">
			<ele>201.399993896484</ele>
			<time>2014-01-02T12:45:37Z</time>
		</trkpt>
		<trkpt lat="39.492359161377" lon="2.88968181610107">
			<ele>202.699996948242</ele>
			<time>2014-01-02T12:45:39Z</time>
		</trkpt>
		<trkpt lat="39.4923820495605" lon="2.88961744308472">
			<ele>203.300003051758</ele>
			<time>2014-01-02T12:45:41Z</time>
		</trkpt>
		<trkpt lat="39.4924125671387" lon="2.88954329490662">
			<ele>203.5</ele>
			<time>2014-01-02T12:45:43Z</time>
		</trkpt>
		<trkpt lat="39.4924392700195" lon="2.889484167099">
			<ele>202.800003051758</ele>
			<time>2014-01-02T12:45:45Z</time>
		</trkpt>
		<trkpt lat="39.4924659729004" lon="2.88942503929138">
			<ele>202.899993896484</ele>
			<time>2014-01-02T12:45:47Z</time>
		</trkpt>
		<trkpt lat="39.492488861084" lon="2.88935422897339">
			<ele>202.100006103516</ele>
			<time>2014-01-02T12:45:49Z</time>
		</trkpt>
		<trkpt lat="39.4925079345703" lon="2.88929176330566">
			<ele>202.800003051758</ele>
			<time>2014-01-02T12:45:51Z</time>
		</trkpt>
		<trkpt lat="39.4925422668457" lon="2.88921785354614">
			<ele>202.699996948242</ele>
			<time>2014-01-02T12:45:53Z</time>
		</trkpt>
		<trkpt lat="39.4925651550293" lon="2.88913893699646">
			<ele>204.199996948242</ele>
			<time>2014-01-02T12:45:55Z</time>
		</trkpt>
		<trkpt lat="39.4925193786621" lon="2.88905954360962">
			<ele>203.199996948242</ele>
			<time>2014-01-02T12:45:58Z</time>
		</trkpt>
		<trkpt lat="39.492488861084" lon="2.88900828361511">
			<ele>202.899993896484</ele>
			<time>2014-01-02T12:46:01Z</time>
		</trkpt>
		<trkpt lat="39.4924049377441" lon="2.88900208473206">
			<ele>202.699996948242</ele>
			<time>2014-01-02T12:46:03Z</time>
		</trkpt>
		<trkpt lat="39.4923477172852" lon="2.88896012306213">
			<ele>201.399993896484</ele>
			<time>2014-01-02T12:46:05Z</time>
		</trkpt>
		<trkpt lat="39.4922828674316" lon="2.88894033432007">
			<ele>201.800003051758</ele>
			<time>2014-01-02T12:46:07Z</time>
		</trkpt>
		<trkpt lat="39.4922294616699" lon="2.88891077041626">
			<ele>202.800003051758</ele>
			<time>2014-01-02T12:46:09Z</time>
		</trkpt>
		<trkpt lat="39.4921684265137" lon="2.88887095451355">
			<ele>202.600006103516</ele>
			<time>2014-01-02T12:46:11Z</time>
		</trkpt>
		<trkpt lat="39.4920921325684" lon="2.88884973526001">
			<ele>203.100006103516</ele>
			<time>2014-01-02T12:46:13Z</time>
		</trkpt>
		<trkpt lat="39.4920425415039" lon="2.88883495330811">
			<ele>203</ele>
			<time>2014-01-02T12:46:14Z</time>
		</trkpt>
		<trkpt lat="39.4919967651367" lon="2.88877773284912">
			<ele>203.899993896484</ele>
			<time>2014-01-02T12:46:16Z</time>
		</trkpt>
		<trkpt lat="39.4919548034668" lon="2.88872671127319">
			<ele>204.100006103516</ele>
			<time>2014-01-02T12:46:18Z</time>
		</trkpt>
		<trkpt lat="39.4918975830078" lon="2.88870549201965">
			<ele>203.899993896484</ele>
			<time>2014-01-02T12:46:20Z</time>
		</trkpt>
		<trkpt lat="39.4919052124023" lon="2.88864302635193">
			<ele>202.600006103516</ele>
			<time>2014-01-02T12:46:22Z</time>
		</trkpt>
		<trkpt lat="39.4918441772461" lon="2.88858866691589">
			<ele>200.699996948242</ele>
			<time>2014-01-02T12:46:25Z</time>
		</trkpt>
		<trkpt lat="39.4917869567871" lon="2.8885486125946">
			<ele>199.399993896484</ele>
			<time>2014-01-02T12:46:27Z</time>
		</trkpt>
		<trkpt lat="39.4917335510254" lon="2.88850331306458">
			<ele>198.899993896484</ele>
			<time>2014-01-02T12:46:29Z</time>
		</trkpt>
		<trkpt lat="39.4916687011719" lon="2.88845777511597">
			<ele>197.899993896484</ele>
			<time>2014-01-02T12:46:31Z</time>
		</trkpt>
		<trkpt lat="39.4915962219238" lon="2.88841986656189">
			<ele>197.800003051758</ele>
			<time>2014-01-02T12:46:33Z</time>
		</trkpt>
		<trkpt lat="39.4915313720703" lon="2.88837218284607">
			<ele>197.800003051758</ele>
			<time>2014-01-02T12:46:35Z</time>
		</trkpt>
		<trkpt lat="39.4914627075195" lon="2.88832831382751">
			<ele>197.399993896484</ele>
			<time>2014-01-02T12:46:37Z</time>
		</trkpt>
		<trkpt lat="39.4914054870605" lon="2.88828730583191">
			<ele>197.399993896484</ele>
			<time>2014-01-02T12:46:39Z</time>
		</trkpt>
		<trkpt lat="39.4913520812988" lon="2.88829398155212">
			<ele>198.300003051758</ele>
			<time>2014-01-02T12:46:40Z</time>
		</trkpt>
		<trkpt lat="39.4912872314453" lon="2.88825225830078">
			<ele>199.199996948242</ele>
			<time>2014-01-02T12:46:42Z</time>
		</trkpt>
		<trkpt lat="39.4912223815918" lon="2.88819813728333">
			<ele>200</ele>
			<time>2014-01-02T12:46:44Z</time>
		</trkpt>
		<trkpt lat="39.4911651611328" lon="2.88811087608337">
			<ele>200.100006103516</ele>
			<time>2014-01-02T12:46:46Z</time>
		</trkpt>
		<trkpt lat="39.4911003112793" lon="2.88804483413696">
			<ele>200.300003051758</ele>
			<time>2014-01-02T12:46:48Z</time>
		</trkpt>
		<trkpt lat="39.4910469055176" lon="2.88797926902771">
			<ele>200</ele>
			<time>2014-01-02T12:46:50Z</time>
		</trkpt>
		<trkpt lat="39.4910354614258" lon="2.88787245750427">
			<ele>197.699996948242</ele>
			<time>2014-01-02T12:46:53Z</time>
		</trkpt>
		<trkpt lat="39.4910583496094" lon="2.88779616355896">
			<ele>197.399993896484</ele>
			<time>2014-01-02T12:46:55Z</time>
		</trkpt>
		<trkpt lat="39.4911041259766" lon="2.8877317905426">
			<ele>197.399993896484</ele>
			<time>2014-01-02T12:46:57Z</time>
		</trkpt>
		<trkpt lat="39.4911422729492" lon="2.88765788078308">
			<ele>197.699996948242</ele>
			<time>2014-01-02T12:46:59Z</time>
		</trkpt>
		<trkpt lat="39.4911804199219" lon="2.88758659362793">
			<ele>197.5</ele>
			<time>2014-01-02T12:47:01Z</time>
		</trkpt>
		<trkpt lat="39.4912185668945" lon="2.8875093460083">
			<ele>196.699996948242</ele>
			<time>2014-01-02T12:47:03Z</time>
		</trkpt>
		<trkpt lat="39.4912528991699" lon="2.88743853569031">
			<ele>197</ele>
			<time>2014-01-02T12:47:05Z</time>
		</trkpt>
		<trkpt lat="39.4912872314453" lon="2.88736486434937">
			<ele>196.5</ele>
			<time>2014-01-02T12:47:07Z</time>
		</trkpt>
		<trkpt lat="39.4913215637207" lon="2.88728904724121">
			<ele>196.100006103516</ele>
			<time>2014-01-02T12:47:09Z</time>
		</trkpt>
		<trkpt lat="39.4913597106934" lon="2.88721346855164">
			<ele>196.100006103516</ele>
			<time>2014-01-02T12:47:11Z</time>
		</trkpt>
		<trkpt lat="39.4913902282715" lon="2.88714742660522">
			<ele>196.199996948242</ele>
			<time>2014-01-02T12:47:13Z</time>
		</trkpt>
		<trkpt lat="39.4914207458496" lon="2.88707256317139">
			<ele>195.600006103516</ele>
			<time>2014-01-02T12:47:15Z</time>
		</trkpt>
		<trkpt lat="39.491455078125" lon="2.88700127601624">
			<ele>195.800003051758</ele>
			<time>2014-01-02T12:47:17Z</time>
		</trkpt>
		<trkpt lat="39.4914894104004" lon="2.88692951202393">
			<ele>196.199996948242</ele>
			<time>2014-01-02T12:47:19Z</time>
		</trkpt>
		<trkpt lat="39.4915199279785" lon="2.88686323165894">
			<ele>195.800003051758</ele>
			<time>2014-01-02T12:47:21Z</time>
		</trkpt>
		<trkpt lat="39.4915428161621" lon="2.88680267333984">
			<ele>195.699996948242</ele>
			<time>2014-01-02T12:47:23Z</time>
		</trkpt>
		<trkpt lat="39.4915657043457" lon="2.88674163818359">
			<ele>196.199996948242</ele>
			<time>2014-01-02T12:47:25Z</time>
		</trkpt>
		<trkpt lat="39.4916038513184" lon="2.88668465614319">
			<ele>196</ele>
			<time>2014-01-02T12:47:27Z</time>
		</trkpt>
		<trkpt lat="39.491641998291" lon="2.88659453392029">
			<ele>195.800003051758</ele>
			<time>2014-01-02T12:47:29Z</time>
		</trkpt>
		<trkpt lat="39.4916801452637" lon="2.88651871681213">
			<ele>196.100006103516</ele>
			<time>2014-01-02T12:47:31Z</time>
		</trkpt>
		<trkpt lat="39.4917221069336" lon="2.88644576072693">
			<ele>196.5</ele>
			<time>2014-01-02T12:47:33Z</time>
		</trkpt>
		<trkpt lat="39.4917602539063" lon="2.88637781143188">
			<ele>197.100006103516</ele>
			<time>2014-01-02T12:47:35Z</time>
		</trkpt>
		<trkpt lat="39.4917907714844" lon="2.88630843162537">
			<ele>196.600006103516</ele>
			<time>2014-01-02T12:47:37Z</time>
		</trkpt>
		<trkpt lat="39.4918251037598" lon="2.88623547554016">
			<ele>195.899993896484</ele>
			<time>2014-01-02T12:47:39Z</time>
		</trkpt>
		<trkpt lat="39.4918594360352" lon="2.88616561889648">
			<ele>195.899993896484</ele>
			<time>2014-01-02T12:47:41Z</time>
		</trkpt>
		<trkpt lat="39.4919013977051" lon="2.88608932495117">
			<ele>195.600006103516</ele>
			<time>2014-01-02T12:47:43Z</time>
		</trkpt>
		<trkpt lat="39.4919357299805" lon="2.88601541519165">
			<ele>195.699996948242</ele>
			<time>2014-01-02T12:47:45Z</time>
		</trkpt>
		<trkpt lat="39.4919662475586" lon="2.88594365119934">
			<ele>195.300003051758</ele>
			<time>2014-01-02T12:47:47Z</time>
		</trkpt>
		<trkpt lat="39.492000579834" lon="2.88587737083435">
			<ele>195.600006103516</ele>
			<time>2014-01-02T12:47:49Z</time>
		</trkpt>
		<trkpt lat="39.4920387268066" lon="2.88581514358521">
			<ele>195.699996948242</ele>
			<time>2014-01-02T12:47:51Z</time>
		</trkpt>
		<trkpt lat="39.4920768737793" lon="2.88573789596558">
			<ele>195.800003051758</ele>
			<time>2014-01-02T12:47:53Z</time>
		</trkpt>
		<trkpt lat="39.492115020752" lon="2.88567066192627">
			<ele>196</ele>
			<time>2014-01-02T12:47:55Z</time>
		</trkpt>
		<trkpt lat="39.4921455383301" lon="2.88559722900391">
			<ele>195.899993896484</ele>
			<time>2014-01-02T12:47:57Z</time>
		</trkpt>
		<trkpt lat="39.4921798706055" lon="2.88552284240723">
			<ele>195.800003051758</ele>
			<time>2014-01-02T12:47:59Z</time>
		</trkpt>
		<trkpt lat="39.4922065734863" lon="2.88544821739197">
			<ele>195.800003051758</ele>
			<time>2014-01-02T12:48:01Z</time>
		</trkpt>
		<trkpt lat="39.4922370910645" lon="2.88537621498108">
			<ele>195.800003051758</ele>
			<time>2014-01-02T12:48:03Z</time>
		</trkpt>
		<trkpt lat="39.4922714233398" lon="2.88530421257019">
			<ele>195.800003051758</ele>
			<time>2014-01-02T12:48:05Z</time>
		</trkpt>
		<trkpt lat="39.4923133850098" lon="2.88523864746094">
			<ele>196.399993896484</ele>
			<time>2014-01-02T12:48:07Z</time>
		</trkpt>
		<trkpt lat="39.4923553466797" lon="2.885174036026">
			<ele>196.100006103516</ele>
			<time>2014-01-02T12:48:09Z</time>
		</trkpt>
		<trkpt lat="39.4923896789551" lon="2.88510799407959">
			<ele>196.300003051758</ele>
			<time>2014-01-02T12:48:11Z</time>
		</trkpt>
		<trkpt lat="39.4924163818359" lon="2.88504910469055">
			<ele>195.899993896484</ele>
			<time>2014-01-02T12:48:13Z</time>
		</trkpt>
		<trkpt lat="39.4924354553223" lon="2.88499331474304">
			<ele>196.100006103516</ele>
			<time>2014-01-02T12:48:15Z</time>
		</trkpt>
		<trkpt lat="39.4924926757813" lon="2.88495445251465">
			<ele>196.899993896484</ele>
			<time>2014-01-02T12:48:18Z</time>
		</trkpt>
		<trkpt lat="39.4925422668457" lon="2.88501977920532">
			<ele>196.699996948242</ele>
			<time>2014-01-02T12:48:20Z</time>
		</trkpt>
		<trkpt lat="39.4925956726074" lon="2.88506150245667">
			<ele>196.5</ele>
			<time>2014-01-02T12:48:22Z</time>
		</trkpt>
		<trkpt lat="39.4926528930664" lon="2.88510894775391">
			<ele>196.699996948242</ele>
			<time>2014-01-02T12:48:24Z</time>
		</trkpt>
		<trkpt lat="39.4927062988281" lon="2.88515114784241">
			<ele>196.899993896484</ele>
			<time>2014-01-02T12:48:26Z</time>
		</trkpt>
		<trkpt lat="39.4927597045898" lon="2.88518619537354">
			<ele>197.199996948242</ele>
			<time>2014-01-02T12:48:28Z</time>
		</trkpt>
		<trkpt lat="39.4928131103516" lon="2.88522124290466">
			<ele>197.600006103516</ele>
			<time>2014-01-02T12:48:30Z</time>
		</trkpt>
		<trkpt lat="39.492862701416" lon="2.88525772094727">
			<ele>198.100006103516</ele>
			<time>2014-01-02T12:48:32Z</time>
		</trkpt>
		<trkpt lat="39.4929161071777" lon="2.88530945777893">
			<ele>198.199996948242</ele>
			<time>2014-01-02T12:48:34Z</time>
		</trkpt>
		<trkpt lat="39.4929656982422" lon="2.88535904884338">
			<ele>199.300003051758</ele>
			<time>2014-01-02T12:48:36Z</time>
		</trkpt>
		<trkpt lat="39.4930229187012" lon="2.8853919506073">
			<ele>199.300003051758</ele>
			<time>2014-01-02T12:48:38Z</time>
		</trkpt>
		<trkpt lat="39.4930839538574" lon="2.8854284286499">
			<ele>198.800003051758</ele>
			<time>2014-01-02T12:48:40Z</time>
		</trkpt>
		<trkpt lat="39.4931335449219" lon="2.88546991348267">
			<ele>197.899993896484</ele>
			<time>2014-01-02T12:48:42Z</time>
		</trkpt>
		<trkpt lat="39.4931831359863" lon="2.88551640510559">
			<ele>197.899993896484</ele>
			<time>2014-01-02T12:48:44Z</time>
		</trkpt>
		<trkpt lat="39.4932327270508" lon="2.8855607509613">
			<ele>198</ele>
			<time>2014-01-02T12:48:46Z</time>
		</trkpt>
		<trkpt lat="39.4932861328125" lon="2.8856029510498">
			<ele>197.899993896484</ele>
			<time>2014-01-02T12:48:48Z</time>
		</trkpt>
		<trkpt lat="39.4933433532715" lon="2.88565015792847">
			<ele>198.100006103516</ele>
			<time>2014-01-02T12:48:50Z</time>
		</trkpt>
		<trkpt lat="39.4934005737305" lon="2.88569355010986">
			<ele>197.699996948242</ele>
			<time>2014-01-02T12:48:52Z</time>
		</trkpt>
		<trkpt lat="39.4934539794922" lon="2.88573884963989">
			<ele>197.800003051758</ele>
			<time>2014-01-02T12:48:54Z</time>
		</trkpt>
		<trkpt lat="39.4935111999512" lon="2.88578128814697">
			<ele>197.800003051758</ele>
			<time>2014-01-02T12:48:56Z</time>
		</trkpt>
		<trkpt lat="39.4935722351074" lon="2.88581371307373">
			<ele>199.199996948242</ele>
			<time>2014-01-02T12:48:58Z</time>
		</trkpt>
		<trkpt lat="39.4936218261719" lon="2.88585901260376">
			<ele>198.100006103516</ele>
			<time>2014-01-02T12:49:00Z</time>
		</trkpt>
		<trkpt lat="39.4936752319336" lon="2.88589763641357">
			<ele>198.600006103516</ele>
			<time>2014-01-02T12:49:02Z</time>
		</trkpt>
		<trkpt lat="39.4937286376953" lon="2.88593769073486">
			<ele>198.899993896484</ele>
			<time>2014-01-02T12:49:04Z</time>
		</trkpt>
		<trkpt lat="39.4937744140625" lon="2.88597249984741">
			<ele>198.600006103516</ele>
			<time>2014-01-02T12:49:06Z</time>
		</trkpt>
		<trkpt lat="39.4938316345215" lon="2.88602161407471">
			<ele>198.199996948242</ele>
			<time>2014-01-02T12:49:08Z</time>
		</trkpt>
		<trkpt lat="39.4938888549805" lon="2.88606214523315">
			<ele>197.699996948242</ele>
			<time>2014-01-02T12:49:10Z</time>
		</trkpt>
		<trkpt lat="39.4939384460449" lon="2.88610982894897">
			<ele>198.600006103516</ele>
			<time>2014-01-02T12:49:12Z</time>
		</trkpt>
		<trkpt lat="39.4939956665039" lon="2.88614988327026">
			<ele>198.300003051758</ele>
			<time>2014-01-02T12:49:14Z</time>
		</trkpt>
		<trkpt lat="39.4940528869629" lon="2.88619828224182">
			<ele>198.300003051758</ele>
			<time>2014-01-02T12:49:16Z</time>
		</trkpt>
		<trkpt lat="39.4941101074219" lon="2.88623738288879">
			<ele>198.399993896484</ele>
			<time>2014-01-02T12:49:18Z</time>
		</trkpt>
		<trkpt lat="39.4941673278809" lon="2.88628149032593">
			<ele>198.699996948242</ele>
			<time>2014-01-02T12:49:20Z</time>
		</trkpt>
		<trkpt lat="39.4942207336426" lon="2.88632607460022">
			<ele>198.899993896484</ele>
			<time>2014-01-02T12:49:22Z</time>
		</trkpt>
		<trkpt lat="39.4942741394043" lon="2.88636517524719">
			<ele>199.600006103516</ele>
			<time>2014-01-02T12:49:24Z</time>
		</trkpt>
		<trkpt lat="39.4943237304688" lon="2.88640928268433">
			<ele>200.100006103516</ele>
			<time>2014-01-02T12:49:26Z</time>
		</trkpt>
		<trkpt lat="39.4943809509277" lon="2.88645100593567">
			<ele>201.199996948242</ele>
			<time>2014-01-02T12:49:28Z</time>
		</trkpt>
		<trkpt lat="39.4944305419922" lon="2.88648676872253">
			<ele>201.699996948242</ele>
			<time>2014-01-02T12:49:30Z</time>
		</trkpt>
		<trkpt lat="39.4944725036621" lon="2.88653564453125">
			<ele>202</ele>
			<time>2014-01-02T12:49:32Z</time>
		</trkpt>
		<trkpt lat="39.4945259094238" lon="2.88657426834106">
			<ele>202.100006103516</ele>
			<time>2014-01-02T12:49:34Z</time>
		</trkpt>
		<trkpt lat="39.4945755004883" lon="2.88661122322083">
			<ele>202.199996948242</ele>
			<time>2014-01-02T12:49:36Z</time>
		</trkpt>
		<trkpt lat="39.4946174621582" lon="2.8866593837738">
			<ele>202.300003051758</ele>
			<time>2014-01-02T12:49:38Z</time>
		</trkpt>
		<trkpt lat="39.494686126709" lon="2.88669943809509">
			<ele>202.199996948242</ele>
			<time>2014-01-02T12:49:40Z</time>
		</trkpt>
		<trkpt lat="39.4947242736816" lon="2.8867449760437">
			<ele>202.399993896484</ele>
			<time>2014-01-02T12:49:43Z</time>
		</trkpt>
		<trkpt lat="39.4947624206543" lon="2.88680338859558">
			<ele>202.199996948242</ele>
			<time>2014-01-02T12:49:45Z</time>
		</trkpt>
		<trkpt lat="39.4948310852051" lon="2.8868408203125">
			<ele>202</ele>
			<time>2014-01-02T12:49:47Z</time>
		</trkpt>
		<trkpt lat="39.4948768615723" lon="2.88685965538025">
			<ele>201.699996948242</ele>
			<time>2014-01-02T12:49:49Z</time>
		</trkpt>
		<trkpt lat="39.4949226379395" lon="2.886878490448">
			<ele>200.300003051758</ele>
			<time>2014-01-02T12:49:51Z</time>
		</trkpt>
		<trkpt lat="39.494987487793" lon="2.88691926002502">
			<ele>199.800003051758</ele>
			<time>2014-01-02T12:49:53Z</time>
		</trkpt>
		<trkpt lat="39.495044708252" lon="2.88696503639221">
			<ele>199.600006103516</ele>
			<time>2014-01-02T12:49:55Z</time>
		</trkpt>
		<trkpt lat="39.4951057434082" lon="2.88701510429382">
			<ele>200.300003051758</ele>
			<time>2014-01-02T12:49:57Z</time>
		</trkpt>
		<trkpt lat="39.4951515197754" lon="2.88707828521729">
			<ele>201.199996948242</ele>
			<time>2014-01-02T12:49:59Z</time>
		</trkpt>
		<trkpt lat="39.4951934814453" lon="2.88713955879211">
			<ele>200.300003051758</ele>
			<time>2014-01-02T12:50:01Z</time>
		</trkpt>
		<trkpt lat="39.495174407959" lon="2.88720202445984">
			<ele>200</ele>
			<time>2014-01-02T12:50:02Z</time>
		</trkpt>
		<trkpt lat="39.4952087402344" lon="2.88726353645325">
			<ele>201.899993896484</ele>
			<time>2014-01-02T12:50:04Z</time>
		</trkpt>
		<trkpt lat="39.4952392578125" lon="2.88733100891113">
			<ele>202.699996948242</ele>
			<time>2014-01-02T12:50:07Z</time>
		</trkpt>
		<trkpt lat="39.4953002929688" lon="2.88737058639526">
			<ele>202.899993896484</ele>
			<time>2014-01-02T12:50:08Z</time>
		</trkpt>
		<trkpt lat="39.4953498840332" lon="2.88733434677124">
			<ele>204.100006103516</ele>
			<time>2014-01-02T12:50:09Z</time>
		</trkpt>
		<trkpt lat="39.4954147338867" lon="2.88732433319092">
			<ele>204.199996948242</ele>
			<time>2014-01-02T12:50:11Z</time>
		</trkpt>
		<trkpt lat="39.4954681396484" lon="2.88729238510132">
			<ele>203</ele>
			<time>2014-01-02T12:50:13Z</time>
		</trkpt>
		<trkpt lat="39.4955177307129" lon="2.88724422454834">
			<ele>203</ele>
			<time>2014-01-02T12:50:15Z</time>
		</trkpt>
		<trkpt lat="39.4955368041992" lon="2.88717007637024">
			<ele>203</ele>
			<time>2014-01-02T12:50:17Z</time>
		</trkpt>
		<trkpt lat="39.4955406188965" lon="2.88709092140198">
			<ele>202.600006103516</ele>
			<time>2014-01-02T12:50:19Z</time>
		</trkpt>
		<trkpt lat="39.4955253601074" lon="2.88700795173645">
			<ele>202.399993896484</ele>
			<time>2014-01-02T12:50:21Z</time>
		</trkpt>
		<trkpt lat="39.4955024719238" lon="2.88693046569824">
			<ele>202.300003051758</ele>
			<time>2014-01-02T12:50:23Z</time>
		</trkpt>
		<trkpt lat="39.4954681396484" lon="2.88684487342834">
			<ele>202</ele>
			<time>2014-01-02T12:50:25Z</time>
		</trkpt>
		<trkpt lat="39.4954299926758" lon="2.88676142692566">
			<ele>202.5</ele>
			<time>2014-01-02T12:50:28Z</time>
		</trkpt>
		<trkpt lat="39.4954833984375" lon="2.88666892051697">
			<ele>203.100006103516</ele>
			<time>2014-01-02T12:50:29Z</time>
		</trkpt>
		<trkpt lat="39.4955291748047" lon="2.88660621643066">
			<ele>202.199996948242</ele>
			<time>2014-01-02T12:50:31Z</time>
		</trkpt>
		<trkpt lat="39.4955749511719" lon="2.88654947280884">
			<ele>202.100006103516</ele>
			<time>2014-01-02T12:50:33Z</time>
		</trkpt>
		<trkpt lat="39.4956207275391" lon="2.88649272918701">
			<ele>201.5</ele>
			<time>2014-01-02T12:50:35Z</time>
		</trkpt>
		<trkpt lat="39.4956741333008" lon="2.88643288612366">
			<ele>200.899993896484</ele>
			<time>2014-01-02T12:50:37Z</time>
		</trkpt>
		<trkpt lat="39.495719909668" lon="2.88637113571167">
			<ele>200.600006103516</ele>
			<time>2014-01-02T12:50:39Z</time>
		</trkpt>
		<trkpt lat="39.4957695007324" lon="2.88631200790405">
			<ele>201</ele>
			<time>2014-01-02T12:50:41Z</time>
		</trkpt>
		<trkpt lat="39.4958152770996" lon="2.88625049591064">
			<ele>201</ele>
			<time>2014-01-02T12:50:43Z</time>
		</trkpt>
		<trkpt lat="39.4958610534668" lon="2.88618874549866">
			<ele>200.699996948242</ele>
			<time>2014-01-02T12:50:45Z</time>
		</trkpt>
		<trkpt lat="39.495906829834" lon="2.88613390922546">
			<ele>200.899993896484</ele>
			<time>2014-01-02T12:50:47Z</time>
		</trkpt>
		<trkpt lat="39.4959526062012" lon="2.88607692718506">
			<ele>201.100006103516</ele>
			<time>2014-01-02T12:50:49Z</time>
		</trkpt>
		<trkpt lat="39.4959983825684" lon="2.88603138923645">
			<ele>202</ele>
			<time>2014-01-02T12:50:51Z</time>
		</trkpt>
		<trkpt lat="39.4960441589355" lon="2.8859875202179">
			<ele>202.800003051758</ele>
			<time>2014-01-02T12:50:53Z</time>
		</trkpt>
		<trkpt lat="39.4960823059082" lon="2.88593316078186">
			<ele>203.100006103516</ele>
			<time>2014-01-02T12:50:55Z</time>
		</trkpt>
		<trkpt lat="39.4961242675781" lon="2.88588571548462">
			<ele>203.300003051758</ele>
			<time>2014-01-02T12:50:57Z</time>
		</trkpt>
		<trkpt lat="39.496166229248" lon="2.88583397865295">
			<ele>203.399993896484</ele>
			<time>2014-01-02T12:50:59Z</time>
		</trkpt>
		<trkpt lat="39.4962120056152" lon="2.8857855796814">
			<ele>203.699996948242</ele>
			<time>2014-01-02T12:51:01Z</time>
		</trkpt>
		<trkpt lat="39.4962577819824" lon="2.88573884963989">
			<ele>204</ele>
			<time>2014-01-02T12:51:03Z</time>
		</trkpt>
		<trkpt lat="39.4962997436523" lon="2.88569474220276">
			<ele>204.300003051758</ele>
			<time>2014-01-02T12:51:05Z</time>
		</trkpt>
		<trkpt lat="39.4963417053223" lon="2.88564825057983">
			<ele>204.199996948242</ele>
			<time>2014-01-02T12:51:07Z</time>
		</trkpt>
		<trkpt lat="39.4963798522949" lon="2.8856029510498">
			<ele>204.399993896484</ele>
			<time>2014-01-02T12:51:09Z</time>
		</trkpt>
		<trkpt lat="39.4964179992676" lon="2.88555788993835">
			<ele>204.600006103516</ele>
			<time>2014-01-02T12:51:11Z</time>
		</trkpt>
		<trkpt lat="39.4964599609375" lon="2.88551259040833">
			<ele>205.100006103516</ele>
			<time>2014-01-02T12:51:13Z</time>
		</trkpt>
		<trkpt lat="39.4965019226074" lon="2.8854718208313">
			<ele>205.300003051758</ele>
			<time>2014-01-02T12:51:15Z</time>
		</trkpt>
		<trkpt lat="39.4965400695801" lon="2.88542723655701">
			<ele>205.199996948242</ele>
			<time>2014-01-02T12:51:17Z</time>
		</trkpt>
		<trkpt lat="39.49658203125" lon="2.8853816986084">
			<ele>205.199996948242</ele>
			<time>2014-01-02T12:51:19Z</time>
		</trkpt>
		<trkpt lat="39.4966201782227" lon="2.88533425331116">
			<ele>204.800003051758</ele>
			<time>2014-01-02T12:51:21Z</time>
		</trkpt>
		<trkpt lat="39.4966583251953" lon="2.8852846622467">
			<ele>204.800003051758</ele>
			<time>2014-01-02T12:51:23Z</time>
		</trkpt>
		<trkpt lat="39.4966926574707" lon="2.8852334022522">
			<ele>204.800003051758</ele>
			<time>2014-01-02T12:51:25Z</time>
		</trkpt>
		<trkpt lat="39.4967269897461" lon="2.88518142700195">
			<ele>204.899993896484</ele>
			<time>2014-01-02T12:51:27Z</time>
		</trkpt>
		<trkpt lat="39.4967613220215" lon="2.88512802124023">
			<ele>204.899993896484</ele>
			<time>2014-01-02T12:51:29Z</time>
		</trkpt>
		<trkpt lat="39.4967956542969" lon="2.88507199287415">
			<ele>205.199996948242</ele>
			<time>2014-01-02T12:51:31Z</time>
		</trkpt>
		<trkpt lat="39.4968299865723" lon="2.88501214981079">
			<ele>205.600006103516</ele>
			<time>2014-01-02T12:51:33Z</time>
		</trkpt>
		<trkpt lat="39.4968719482422" lon="2.88495779037476">
			<ele>205.5</ele>
			<time>2014-01-02T12:51:35Z</time>
		</trkpt>
		<trkpt lat="39.4969062805176" lon="2.88490033149719">
			<ele>205.600006103516</ele>
			<time>2014-01-02T12:51:37Z</time>
		</trkpt>
		<trkpt lat="39.4969482421875" lon="2.88484454154968">
			<ele>205.699996948242</ele>
			<time>2014-01-02T12:51:39Z</time>
		</trkpt>
		<trkpt lat="39.4969863891602" lon="2.88478517532349">
			<ele>205.800003051758</ele>
			<time>2014-01-02T12:51:41Z</time>
		</trkpt>
		<trkpt lat="39.4970207214355" lon="2.88472414016724">
			<ele>205.800003051758</ele>
			<time>2014-01-02T12:51:43Z</time>
		</trkpt>
		<trkpt lat="39.4970588684082" lon="2.88466501235962">
			<ele>205.800003051758</ele>
			<time>2014-01-02T12:51:45Z</time>
		</trkpt>
		<trkpt lat="39.4970970153809" lon="2.88460755348206">
			<ele>205.899993896484</ele>
			<time>2014-01-02T12:51:47Z</time>
		</trkpt>
		<trkpt lat="39.4971351623535" lon="2.88454651832581">
			<ele>206</ele>
			<time>2014-01-02T12:51:49Z</time>
		</trkpt>
		<trkpt lat="39.4971733093262" lon="2.88448643684387">
			<ele>205.899993896484</ele>
			<time>2014-01-02T12:51:51Z</time>
		</trkpt>
		<trkpt lat="39.4972076416016" lon="2.88442754745483">
			<ele>206.5</ele>
			<time>2014-01-02T12:51:53Z</time>
		</trkpt>
		<trkpt lat="39.4972496032715" lon="2.88437128067017">
			<ele>206.800003051758</ele>
			<time>2014-01-02T12:51:55Z</time>
		</trkpt>
		<trkpt lat="39.4972839355469" lon="2.88430953025818">
			<ele>206.5</ele>
			<time>2014-01-02T12:51:57Z</time>
		</trkpt>
		<trkpt lat="39.4973220825195" lon="2.88424730300903">
			<ele>206.100006103516</ele>
			<time>2014-01-02T12:51:59Z</time>
		</trkpt>
		<trkpt lat="39.4973602294922" lon="2.8841872215271">
			<ele>205.899993896484</ele>
			<time>2014-01-02T12:52:01Z</time>
		</trkpt>
		<trkpt lat="39.4973983764648" lon="2.88413166999817">
			<ele>205.600006103516</ele>
			<time>2014-01-02T12:52:03Z</time>
		</trkpt>
		<trkpt lat="39.4974403381348" lon="2.88407754898071">
			<ele>206</ele>
			<time>2014-01-02T12:52:05Z</time>
		</trkpt>
		<trkpt lat="39.497486114502" lon="2.8840274810791">
			<ele>205.800003051758</ele>
			<time>2014-01-02T12:52:07Z</time>
		</trkpt>
		<trkpt lat="39.4975357055664" lon="2.88398504257202">
			<ele>205.5</ele>
			<time>2014-01-02T12:52:09Z</time>
		</trkpt>
		<trkpt lat="39.4975891113281" lon="2.88395118713379">
			<ele>205.800003051758</ele>
			<time>2014-01-02T12:52:11Z</time>
		</trkpt>
		<trkpt lat="39.4976463317871" lon="2.88393020629883">
			<ele>205.5</ele>
			<time>2014-01-02T12:52:13Z</time>
		</trkpt>
		<trkpt lat="39.4977035522461" lon="2.8839123249054">
			<ele>205.199996948242</ele>
			<time>2014-01-02T12:52:15Z</time>
		</trkpt>
		<trkpt lat="39.4977645874023" lon="2.8838939666748">
			<ele>205.100006103516</ele>
			<time>2014-01-02T12:52:17Z</time>
		</trkpt>
		<trkpt lat="39.4978218078613" lon="2.88387250900269">
			<ele>204.800003051758</ele>
			<time>2014-01-02T12:52:19Z</time>
		</trkpt>
		<trkpt lat="39.4978790283203" lon="2.88385009765625">
			<ele>204.399993896484</ele>
			<time>2014-01-02T12:52:21Z</time>
		</trkpt>
		<trkpt lat="39.4979400634766" lon="2.88382744789124">
			<ele>204.300003051758</ele>
			<time>2014-01-02T12:52:23Z</time>
		</trkpt>
		<trkpt lat="39.4979972839355" lon="2.88381171226501">
			<ele>204.300003051758</ele>
			<time>2014-01-02T12:52:25Z</time>
		</trkpt>
		<trkpt lat="39.4980545043945" lon="2.88379192352295">
			<ele>204.199996948242</ele>
			<time>2014-01-02T12:52:27Z</time>
		</trkpt>
		<trkpt lat="39.4981117248535" lon="2.88377356529236">
			<ele>204.300003051758</ele>
			<time>2014-01-02T12:52:29Z</time>
		</trkpt>
		<trkpt lat="39.4981689453125" lon="2.88375544548035">
			<ele>204.300003051758</ele>
			<time>2014-01-02T12:52:31Z</time>
		</trkpt>
		<trkpt lat="39.4982261657715" lon="2.88373780250549">
			<ele>204.199996948242</ele>
			<time>2014-01-02T12:52:33Z</time>
		</trkpt>
		<trkpt lat="39.4982833862305" lon="2.88371729850769">
			<ele>204.100006103516</ele>
			<time>2014-01-02T12:52:35Z</time>
		</trkpt>
		<trkpt lat="39.4983406066895" lon="2.8836989402771">
			<ele>204</ele>
			<time>2014-01-02T12:52:37Z</time>
		</trkpt>
		<trkpt lat="39.4983978271484" lon="2.88367772102356">
			<ele>203.899993896484</ele>
			<time>2014-01-02T12:52:39Z</time>
		</trkpt>
		<trkpt lat="39.4984550476074" lon="2.88366103172302">
			<ele>203.800003051758</ele>
			<time>2014-01-02T12:52:41Z</time>
		</trkpt>
		<trkpt lat="39.4985160827637" lon="2.88363766670227">
			<ele>203.800003051758</ele>
			<time>2014-01-02T12:52:43Z</time>
		</trkpt>
		<trkpt lat="39.4985733032227" lon="2.88362216949463">
			<ele>203.899993896484</ele>
			<time>2014-01-02T12:52:45Z</time>
		</trkpt>
		<trkpt lat="39.4986267089844" lon="2.88360095024109">
			<ele>204.199996948242</ele>
			<time>2014-01-02T12:52:47Z</time>
		</trkpt>
		<trkpt lat="39.4986839294434" lon="2.88358449935913">
			<ele>204.300003051758</ele>
			<time>2014-01-02T12:52:49Z</time>
		</trkpt>
		<trkpt lat="39.4987373352051" lon="2.88356685638428">
			<ele>204.300003051758</ele>
			<time>2014-01-02T12:52:51Z</time>
		</trkpt>
		<trkpt lat="39.4987945556641" lon="2.8835461139679">
			<ele>204.199996948242</ele>
			<time>2014-01-02T12:52:53Z</time>
		</trkpt>
		<trkpt lat="39.4988479614258" lon="2.8835289478302">
			<ele>203.899993896484</ele>
			<time>2014-01-02T12:52:55Z</time>
		</trkpt>
		<trkpt lat="39.498908996582" lon="2.88350248336792">
			<ele>203.899993896484</ele>
			<time>2014-01-02T12:52:57Z</time>
		</trkpt>
		<trkpt lat="39.4989700317383" lon="2.88346743583679">
			<ele>203.800003051758</ele>
			<time>2014-01-02T12:52:59Z</time>
		</trkpt>
		<trkpt lat="39.4990310668945" lon="2.88342070579529">
			<ele>203.800003051758</ele>
			<time>2014-01-02T12:53:01Z</time>
		</trkpt>
		<trkpt lat="39.4990882873535" lon="2.88337087631226">
			<ele>204</ele>
			<time>2014-01-02T12:53:03Z</time>
		</trkpt>
		<trkpt lat="39.4991493225098" lon="2.88332104682922">
			<ele>203.899993896484</ele>
			<time>2014-01-02T12:53:05Z</time>
		</trkpt>
		<trkpt lat="39.499210357666" lon="2.88327169418335">
			<ele>203.800003051758</ele>
			<time>2014-01-02T12:53:07Z</time>
		</trkpt>
		<trkpt lat="39.499267578125" lon="2.88321185112">
			<ele>203.699996948242</ele>
			<time>2014-01-02T12:53:09Z</time>
		</trkpt>
		<trkpt lat="39.4993324279785" lon="2.8831570148468">
			<ele>203.399993896484</ele>
			<time>2014-01-02T12:53:11Z</time>
		</trkpt>
		<trkpt lat="39.4993934631348" lon="2.88309955596924">
			<ele>203.300003051758</ele>
			<time>2014-01-02T12:53:13Z</time>
		</trkpt>
		<trkpt lat="39.4994583129883" lon="2.88304615020752">
			<ele>203.199996948242</ele>
			<time>2014-01-02T12:53:15Z</time>
		</trkpt>
		<trkpt lat="39.4995193481445" lon="2.88299608230591">
			<ele>203.100006103516</ele>
			<time>2014-01-02T12:53:17Z</time>
		</trkpt>
		<trkpt lat="39.4995803833008" lon="2.88294434547424">
			<ele>203</ele>
			<time>2014-01-02T12:53:19Z</time>
		</trkpt>
		<trkpt lat="39.499641418457" lon="2.88288927078247">
			<ele>202.800003051758</ele>
			<time>2014-01-02T12:53:21Z</time>
		</trkpt>
		<trkpt lat="39.4997024536133" lon="2.88283538818359">
			<ele>202.699996948242</ele>
			<time>2014-01-02T12:53:23Z</time>
		</trkpt>
		<trkpt lat="39.4997634887695" lon="2.88278222084045">
			<ele>202.800003051758</ele>
			<time>2014-01-02T12:53:25Z</time>
		</trkpt>
		<trkpt lat="39.4998245239258" lon="2.88272333145142">
			<ele>202.600006103516</ele>
			<time>2014-01-02T12:53:27Z</time>
		</trkpt>
		<trkpt lat="39.4998931884766" lon="2.88266921043396">
			<ele>202.699996948242</ele>
			<time>2014-01-02T12:53:29Z</time>
		</trkpt>
		<trkpt lat="39.4999618530273" lon="2.88261818885803">
			<ele>202.399993896484</ele>
			<time>2014-01-02T12:53:31Z</time>
		</trkpt>
		<trkpt lat="39.5000381469727" lon="2.88257122039795">
			<ele>202.800003051758</ele>
			<time>2014-01-02T12:53:33Z</time>
		</trkpt>
		<trkpt lat="39.5001068115234" lon="2.88252544403076">
			<ele>202.899993896484</ele>
			<time>2014-01-02T12:53:35Z</time>
		</trkpt>
		<trkpt lat="39.5001754760742" lon="2.88248467445374">
			<ele>202.899993896484</ele>
			<time>2014-01-02T12:53:37Z</time>
		</trkpt>
		<trkpt lat="39.500244140625" lon="2.88244009017944">
			<ele>202.699996948242</ele>
			<time>2014-01-02T12:53:39Z</time>
		</trkpt>
		<trkpt lat="39.5003128051758" lon="2.88238954544067">
			<ele>202.5</ele>
			<time>2014-01-02T12:53:41Z</time>
		</trkpt>
		<trkpt lat="39.5003776550293" lon="2.88233852386475">
			<ele>202.399993896484</ele>
			<time>2014-01-02T12:53:43Z</time>
		</trkpt>
		<trkpt lat="39.5004425048828" lon="2.88228487968445">
			<ele>202.399993896484</ele>
			<time>2014-01-02T12:53:45Z</time>
		</trkpt>
		<trkpt lat="39.5005035400391" lon="2.88223433494568">
			<ele>202.300003051758</ele>
			<time>2014-01-02T12:53:47Z</time>
		</trkpt>
		<trkpt lat="39.5005645751953" lon="2.88218307495117">
			<ele>202.199996948242</ele>
			<time>2014-01-02T12:53:49Z</time>
		</trkpt>
		<trkpt lat="39.5006294250488" lon="2.88213324546814">
			<ele>202.300003051758</ele>
			<time>2014-01-02T12:53:51Z</time>
		</trkpt>
		<trkpt lat="39.5006904602051" lon="2.88208317756653">
			<ele>202.300003051758</ele>
			<time>2014-01-02T12:53:53Z</time>
		</trkpt>
		<trkpt lat="39.5007514953613" lon="2.88203287124634">
			<ele>202.199996948242</ele>
			<time>2014-01-02T12:53:55Z</time>
		</trkpt>
		<trkpt lat="39.5008163452148" lon="2.8819785118103">
			<ele>202.100006103516</ele>
			<time>2014-01-02T12:53:57Z</time>
		</trkpt>
		<trkpt lat="39.5008735656738" lon="2.88192582130432">
			<ele>202</ele>
			<time>2014-01-02T12:53:59Z</time>
		</trkpt>
		<trkpt lat="39.5009307861328" lon="2.8818724155426">
			<ele>202.100006103516</ele>
			<time>2014-01-02T12:54:01Z</time>
		</trkpt>
		<trkpt lat="39.5009841918945" lon="2.88182091712952">
			<ele>202.399993896484</ele>
			<time>2014-01-02T12:54:03Z</time>
		</trkpt>
		<trkpt lat="39.5010375976563" lon="2.88176822662354">
			<ele>202.399993896484</ele>
			<time>2014-01-02T12:54:05Z</time>
		</trkpt>
		<trkpt lat="39.5010986328125" lon="2.88171529769897">
			<ele>202.5</ele>
			<time>2014-01-02T12:54:07Z</time>
		</trkpt>
		<trkpt lat="39.5011558532715" lon="2.88166356086731">
			<ele>202.600006103516</ele>
			<time>2014-01-02T12:54:09Z</time>
		</trkpt>
		<trkpt lat="39.5012130737305" lon="2.88161253929138">
			<ele>203.300003051758</ele>
			<time>2014-01-02T12:54:11Z</time>
		</trkpt>
		<trkpt lat="39.5012702941895" lon="2.88156914710999">
			<ele>203.600006103516</ele>
			<time>2014-01-02T12:54:13Z</time>
		</trkpt>
		<trkpt lat="39.5013236999512" lon="2.88152575492859">
			<ele>204.300003051758</ele>
			<time>2014-01-02T12:54:15Z</time>
		</trkpt>
		<trkpt lat="39.5013809204102" lon="2.88148403167725">
			<ele>204.399993896484</ele>
			<time>2014-01-02T12:54:17Z</time>
		</trkpt>
		<trkpt lat="39.5014343261719" lon="2.88144874572754">
			<ele>204.399993896484</ele>
			<time>2014-01-02T12:54:19Z</time>
		</trkpt>
		<trkpt lat="39.5014877319336" lon="2.8814058303833">
			<ele>204.5</ele>
			<time>2014-01-02T12:54:21Z</time>
		</trkpt>
		<trkpt lat="39.5015411376953" lon="2.88135623931885">
			<ele>204.800003051758</ele>
			<time>2014-01-02T12:54:23Z</time>
		</trkpt>
		<trkpt lat="39.501594543457" lon="2.88130402565002">
			<ele>204.399993896484</ele>
			<time>2014-01-02T12:54:25Z</time>
		</trkpt>
		<trkpt lat="39.5016479492188" lon="2.88124895095825">
			<ele>204</ele>
			<time>2014-01-02T12:54:27Z</time>
		</trkpt>
		<trkpt lat="39.5016975402832" lon="2.8811936378479">
			<ele>203.899993896484</ele>
			<time>2014-01-02T12:54:29Z</time>
		</trkpt>
		<trkpt lat="39.5017509460449" lon="2.88113760948181">
			<ele>204.100006103516</ele>
			<time>2014-01-02T12:54:31Z</time>
		</trkpt>
		<trkpt lat="39.5018043518066" lon="2.88108062744141">
			<ele>204.199996948242</ele>
			<time>2014-01-02T12:54:33Z</time>
		</trkpt>
		<trkpt lat="39.5018539428711" lon="2.88102030754089">
			<ele>204.399993896484</ele>
			<time>2014-01-02T12:54:35Z</time>
		</trkpt>
		<trkpt lat="39.5019073486328" lon="2.88096165657043">
			<ele>204.600006103516</ele>
			<time>2014-01-02T12:54:37Z</time>
		</trkpt>
		<trkpt lat="39.5019607543945" lon="2.88090038299561">
			<ele>204.600006103516</ele>
			<time>2014-01-02T12:54:39Z</time>
		</trkpt>
		<trkpt lat="39.5020065307617" lon="2.88084077835083">
			<ele>204.699996948242</ele>
			<time>2014-01-02T12:54:41Z</time>
		</trkpt>
		<trkpt lat="39.5020599365234" lon="2.88078022003174">
			<ele>204.899993896484</ele>
			<time>2014-01-02T12:54:43Z</time>
		</trkpt>
		<trkpt lat="39.5021133422852" lon="2.88072109222412">
			<ele>205.199996948242</ele>
			<time>2014-01-02T12:54:45Z</time>
		</trkpt>
		<trkpt lat="39.5021705627441" lon="2.88065552711487">
			<ele>205.300003051758</ele>
			<time>2014-01-02T12:54:47Z</time>
		</trkpt>
		<trkpt lat="39.5022239685059" lon="2.88059043884277">
			<ele>205.699996948242</ele>
			<time>2014-01-02T12:54:49Z</time>
		</trkpt>
		<trkpt lat="39.5022811889648" lon="2.88052749633789">
			<ele>205.800003051758</ele>
			<time>2014-01-02T12:54:51Z</time>
		</trkpt>
		<trkpt lat="39.5023345947266" lon="2.88046741485596">
			<ele>205.800003051758</ele>
			<time>2014-01-02T12:54:53Z</time>
		</trkpt>
		<trkpt lat="39.5023918151855" lon="2.88040256500244">
			<ele>206</ele>
			<time>2014-01-02T12:54:55Z</time>
		</trkpt>
		<trkpt lat="39.50244140625" lon="2.8803379535675">
			<ele>206.199996948242</ele>
			<time>2014-01-02T12:54:57Z</time>
		</trkpt>
		<trkpt lat="39.5024948120117" lon="2.88027763366699">
			<ele>206.399993896484</ele>
			<time>2014-01-02T12:54:59Z</time>
		</trkpt>
		<trkpt lat="39.5025444030762" lon="2.88021636009216">
			<ele>206.600006103516</ele>
			<time>2014-01-02T12:55:01Z</time>
		</trkpt>
		<trkpt lat="39.5025901794434" lon="2.88015484809875">
			<ele>206.800003051758</ele>
			<time>2014-01-02T12:55:03Z</time>
		</trkpt>
		<trkpt lat="39.5026397705078" lon="2.88009548187256">
			<ele>206.699996948242</ele>
			<time>2014-01-02T12:55:05Z</time>
		</trkpt>
		<trkpt lat="39.5026893615723" lon="2.88003873825073">
			<ele>206.699996948242</ele>
			<time>2014-01-02T12:55:07Z</time>
		</trkpt>
		<trkpt lat="39.5027351379395" lon="2.87998366355896">
			<ele>206.800003051758</ele>
			<time>2014-01-02T12:55:09Z</time>
		</trkpt>
		<trkpt lat="39.5027847290039" lon="2.87992572784424">
			<ele>207</ele>
			<time>2014-01-02T12:55:11Z</time>
		</trkpt>
		<trkpt lat="39.5028381347656" lon="2.87986207008362">
			<ele>207.100006103516</ele>
			<time>2014-01-02T12:55:13Z</time>
		</trkpt>
		<trkpt lat="39.5028915405273" lon="2.87980055809021">
			<ele>206.699996948242</ele>
			<time>2014-01-02T12:55:15Z</time>
		</trkpt>
		<trkpt lat="39.5029411315918" lon="2.87974166870117">
			<ele>206.800003051758</ele>
			<time>2014-01-02T12:55:17Z</time>
		</trkpt>
		<trkpt lat="39.5029945373535" lon="2.87968254089355">
			<ele>206.600006103516</ele>
			<time>2014-01-02T12:55:19Z</time>
		</trkpt>
		<trkpt lat="39.5030479431152" lon="2.87962365150452">
			<ele>206.5</ele>
			<time>2014-01-02T12:55:21Z</time>
		</trkpt>
		<trkpt lat="39.503101348877" lon="2.8795645236969">
			<ele>206.600006103516</ele>
			<time>2014-01-02T12:55:23Z</time>
		</trkpt>
		<trkpt lat="39.5031509399414" lon="2.87950229644775">
			<ele>206.699996948242</ele>
			<time>2014-01-02T12:55:25Z</time>
		</trkpt>
		<trkpt lat="39.5032043457031" lon="2.87944746017456">
			<ele>206.600006103516</ele>
			<time>2014-01-02T12:55:27Z</time>
		</trkpt>
		<trkpt lat="39.5032615661621" lon="2.87938714027405">
			<ele>206.800003051758</ele>
			<time>2014-01-02T12:55:29Z</time>
		</trkpt>
		<trkpt lat="39.5033149719238" lon="2.87933087348938">
			<ele>207.100006103516</ele>
			<time>2014-01-02T12:55:31Z</time>
		</trkpt>
		<trkpt lat="39.5033645629883" lon="2.87927412986755">
			<ele>207.199996948242</ele>
			<time>2014-01-02T12:55:33Z</time>
		</trkpt>
		<trkpt lat="39.5034141540527" lon="2.87921404838562">
			<ele>207.300003051758</ele>
			<time>2014-01-02T12:55:35Z</time>
		</trkpt>
		<trkpt lat="39.5034637451172" lon="2.87915682792664">
			<ele>207.399993896484</ele>
			<time>2014-01-02T12:55:37Z</time>
		</trkpt>
		<trkpt lat="39.5035171508789" lon="2.87910318374634">
			<ele>207.5</ele>
			<time>2014-01-02T12:55:39Z</time>
		</trkpt>
		<trkpt lat="39.5035705566406" lon="2.87904667854309">
			<ele>207.600006103516</ele>
			<time>2014-01-02T12:55:41Z</time>
		</trkpt>
		<trkpt lat="39.5036239624023" lon="2.87898921966553">
			<ele>207.600006103516</ele>
			<time>2014-01-02T12:55:43Z</time>
		</trkpt>
		<trkpt lat="39.5036811828613" lon="2.87893104553223">
			<ele>208.600006103516</ele>
			<time>2014-01-02T12:55:45Z</time>
		</trkpt>
		<trkpt lat="39.5037384033203" lon="2.87887740135193">
			<ele>208.600006103516</ele>
			<time>2014-01-02T12:55:48Z</time>
		</trkpt>
		<trkpt lat="39.5037994384766" lon="2.87882828712463">
			<ele>208.600006103516</ele>
			<time>2014-01-02T12:55:50Z</time>
		</trkpt>
		<trkpt lat="39.5038604736328" lon="2.87879204750061">
			<ele>207</ele>
			<time>2014-01-02T12:55:52Z</time>
		</trkpt>
		<trkpt lat="39.5039558410645" lon="2.87874865531921">
			<ele>207</ele>
			<time>2014-01-02T12:55:54Z</time>
		</trkpt>
		<trkpt lat="39.5040168762207" lon="2.8787248134613">
			<ele>207.600006103516</ele>
			<time>2014-01-02T12:55:56Z</time>
		</trkpt>
		<trkpt lat="39.5040740966797" lon="2.87870788574219">
			<ele>207.899993896484</ele>
			<time>2014-01-02T12:55:58Z</time>
		</trkpt>
		<trkpt lat="39.5041275024414" lon="2.87869000434875">
			<ele>208.100006103516</ele>
			<time>2014-01-02T12:56:00Z</time>
		</trkpt>
		<trkpt lat="39.5041885375977" lon="2.8786723613739">
			<ele>208.199996948242</ele>
			<time>2014-01-02T12:56:02Z</time>
		</trkpt>
		<trkpt lat="39.5042572021484" lon="2.87865233421326">
			<ele>208.300003051758</ele>
			<time>2014-01-02T12:56:04Z</time>
		</trkpt>
		<trkpt lat="39.504322052002" lon="2.87862634658813">
			<ele>208.300003051758</ele>
			<time>2014-01-02T12:56:07Z</time>
		</trkpt>
		<trkpt lat="39.5043869018555" lon="2.87860107421875">
			<ele>208.5</ele>
			<time>2014-01-02T12:56:08Z</time>
		</trkpt>
		<trkpt lat="39.5044555664063" lon="2.878582239151">
			<ele>208.5</ele>
			<time>2014-01-02T12:56:10Z</time>
		</trkpt>
		<trkpt lat="39.504524230957" lon="2.87856149673462">
			<ele>208.600006103516</ele>
			<time>2014-01-02T12:56:12Z</time>
		</trkpt>
		<trkpt lat="39.5045928955078" lon="2.87853932380676">
			<ele>208.600006103516</ele>
			<time>2014-01-02T12:56:14Z</time>
		</trkpt>
		<trkpt lat="39.5046615600586" lon="2.87851595878601">
			<ele>208.5</ele>
			<time>2014-01-02T12:56:16Z</time>
		</trkpt>
		<trkpt lat="39.5047302246094" lon="2.87849521636963">
			<ele>208.699996948242</ele>
			<time>2014-01-02T12:56:18Z</time>
		</trkpt>
		<trkpt lat="39.5047988891602" lon="2.8784716129303">
			<ele>208.800003051758</ele>
			<time>2014-01-02T12:56:20Z</time>
		</trkpt>
		<trkpt lat="39.5048637390137" lon="2.87845182418823">
			<ele>208.5</ele>
			<time>2014-01-02T12:56:22Z</time>
		</trkpt>
		<trkpt lat="39.5049324035645" lon="2.87842869758606">
			<ele>208.600006103516</ele>
			<time>2014-01-02T12:56:24Z</time>
		</trkpt>
		<trkpt lat="39.504997253418" lon="2.87840628623962">
			<ele>208.699996948242</ele>
			<time>2014-01-02T12:56:26Z</time>
		</trkpt>
		<trkpt lat="39.5050621032715" lon="2.8783860206604">
			<ele>208.199996948242</ele>
			<time>2014-01-02T12:56:28Z</time>
		</trkpt>
		<trkpt lat="39.5051345825195" lon="2.87836241722107">
			<ele>208.699996948242</ele>
			<time>2014-01-02T12:56:30Z</time>
		</trkpt>
		<trkpt lat="39.505199432373" lon="2.87834477424622">
			<ele>208.600006103516</ele>
			<time>2014-01-02T12:56:32Z</time>
		</trkpt>
		<trkpt lat="39.5052642822266" lon="2.87832832336426">
			<ele>208</ele>
			<time>2014-01-02T12:56:34Z</time>
		</trkpt>
		<trkpt lat="39.5053329467773" lon="2.87830018997192">
			<ele>208.100006103516</ele>
			<time>2014-01-02T12:56:36Z</time>
		</trkpt>
		<trkpt lat="39.5054016113281" lon="2.87827730178833">
			<ele>208.300003051758</ele>
			<time>2014-01-02T12:56:38Z</time>
		</trkpt>
		<trkpt lat="39.5054664611816" lon="2.87825441360474">
			<ele>208.5</ele>
			<time>2014-01-02T12:56:40Z</time>
		</trkpt>
		<trkpt lat="39.5055313110352" lon="2.87823104858398">
			<ele>208.600006103516</ele>
			<time>2014-01-02T12:56:42Z</time>
		</trkpt>
		<trkpt lat="39.5055923461914" lon="2.87820863723755">
			<ele>208.600006103516</ele>
			<time>2014-01-02T12:56:44Z</time>
		</trkpt>
		<trkpt lat="39.5056571960449" lon="2.87818360328674">
			<ele>208.899993896484</ele>
			<time>2014-01-02T12:56:46Z</time>
		</trkpt>
		<trkpt lat="39.5057182312012" lon="2.87816166877747">
			<ele>208.899993896484</ele>
			<time>2014-01-02T12:56:48Z</time>
		</trkpt>
		<trkpt lat="39.5057716369629" lon="2.87813901901245">
			<ele>209.199996948242</ele>
			<time>2014-01-02T12:56:50Z</time>
		</trkpt>
		<trkpt lat="39.5058288574219" lon="2.87811613082886">
			<ele>209.300003051758</ele>
			<time>2014-01-02T12:56:52Z</time>
		</trkpt>
		<trkpt lat="39.5058860778809" lon="2.87809300422668">
			<ele>209.5</ele>
			<time>2014-01-02T12:56:54Z</time>
		</trkpt>
		<trkpt lat="39.5059471130371" lon="2.87807726860046">
			<ele>208</ele>
			<time>2014-01-02T12:56:56Z</time>
		</trkpt>
		<trkpt lat="39.5060043334961" lon="2.87804746627808">
			<ele>208.100006103516</ele>
			<time>2014-01-02T12:56:58Z</time>
		</trkpt>
		<trkpt lat="39.5060691833496" lon="2.87801671028137">
			<ele>207.899993896484</ele>
			<time>2014-01-02T12:57:00Z</time>
		</trkpt>
		<trkpt lat="39.5061302185059" lon="2.87799572944641">
			<ele>208.100006103516</ele>
			<time>2014-01-02T12:57:02Z</time>
		</trkpt>
		<trkpt lat="39.5061912536621" lon="2.87797856330872">
			<ele>206.800003051758</ele>
			<time>2014-01-02T12:57:04Z</time>
		</trkpt>
		<trkpt lat="39.5062484741211" lon="2.87794876098633">
			<ele>207.199996948242</ele>
			<time>2014-01-02T12:57:06Z</time>
		</trkpt>
		<trkpt lat="39.5063095092773" lon="2.87791633605957">
			<ele>208.600006103516</ele>
			<time>2014-01-02T12:57:08Z</time>
		</trkpt>
		<trkpt lat="39.5063705444336" lon="2.87788438796997">
			<ele>209.100006103516</ele>
			<time>2014-01-02T12:57:10Z</time>
		</trkpt>
		<trkpt lat="39.5064277648926" lon="2.87785482406616">
			<ele>209.399993896484</ele>
			<time>2014-01-02T12:57:12Z</time>
		</trkpt>
		<trkpt lat="39.5064888000488" lon="2.87783241271973">
			<ele>209.5</ele>
			<time>2014-01-02T12:57:14Z</time>
		</trkpt>
		<trkpt lat="39.5065498352051" lon="2.87780594825745">
			<ele>209.399993896484</ele>
			<time>2014-01-02T12:57:16Z</time>
		</trkpt>
		<trkpt lat="39.5066146850586" lon="2.8777801990509">
			<ele>209.5</ele>
			<time>2014-01-02T12:57:18Z</time>
		</trkpt>
		<trkpt lat="39.5066719055176" lon="2.87775325775146">
			<ele>209.699996948242</ele>
			<time>2014-01-02T12:57:20Z</time>
		</trkpt>
		<trkpt lat="39.5067367553711" lon="2.8777277469635">
			<ele>209.800003051758</ele>
			<time>2014-01-02T12:57:22Z</time>
		</trkpt>
		<trkpt lat="39.5068016052246" lon="2.87769985198975">
			<ele>210</ele>
			<time>2014-01-02T12:57:24Z</time>
		</trkpt>
		<trkpt lat="39.5068626403809" lon="2.87767624855042">
			<ele>210.300003051758</ele>
			<time>2014-01-02T12:57:26Z</time>
		</trkpt>
		<trkpt lat="39.5069274902344" lon="2.87765097618103">
			<ele>210.300003051758</ele>
			<time>2014-01-02T12:57:28Z</time>
		</trkpt>
		<trkpt lat="39.5069923400879" lon="2.87761950492859">
			<ele>210.399993896484</ele>
			<time>2014-01-02T12:57:30Z</time>
		</trkpt>
		<trkpt lat="39.5070571899414" lon="2.87759232521057">
			<ele>211.100006103516</ele>
			<time>2014-01-02T12:57:32Z</time>
		</trkpt>
		<trkpt lat="39.5071144104004" lon="2.8775680065155">
			<ele>211</ele>
			<time>2014-01-02T12:57:34Z</time>
		</trkpt>
		<trkpt lat="39.5071830749512" lon="2.87754249572754">
			<ele>211.699996948242</ele>
			<time>2014-01-02T12:57:36Z</time>
		</trkpt>
		<trkpt lat="39.5072441101074" lon="2.87751197814941">
			<ele>212.300003051758</ele>
			<time>2014-01-02T12:57:38Z</time>
		</trkpt>
		<trkpt lat="39.5073127746582" lon="2.87748265266418">
			<ele>212.800003051758</ele>
			<time>2014-01-02T12:57:40Z</time>
		</trkpt>
		<trkpt lat="39.5073699951172" lon="2.87745118141174">
			<ele>212.899993896484</ele>
			<time>2014-01-02T12:57:42Z</time>
		</trkpt>
		<trkpt lat="39.5074272155762" lon="2.8774209022522">
			<ele>212.199996948242</ele>
			<time>2014-01-02T12:57:44Z</time>
		</trkpt>
		<trkpt lat="39.5074920654297" lon="2.8774139881134">
			<ele>211.300003051758</ele>
			<time>2014-01-02T12:57:46Z</time>
		</trkpt>
		<trkpt lat="39.5075531005859" lon="2.87738990783691">
			<ele>211.199996948242</ele>
			<time>2014-01-02T12:57:48Z</time>
		</trkpt>
		<trkpt lat="39.5076141357422" lon="2.87736296653748">
			<ele>211.300003051758</ele>
			<time>2014-01-02T12:57:50Z</time>
		</trkpt>
		<trkpt lat="39.5076751708984" lon="2.87734031677246">
			<ele>212</ele>
			<time>2014-01-02T12:57:52Z</time>
		</trkpt>
		<trkpt lat="39.5077362060547" lon="2.87730836868286">
			<ele>212.300003051758</ele>
			<time>2014-01-02T12:57:54Z</time>
		</trkpt>
		<trkpt lat="39.5077972412109" lon="2.87728118896484">
			<ele>212.399993896484</ele>
			<time>2014-01-02T12:57:56Z</time>
		</trkpt>
		<trkpt lat="39.5078582763672" lon="2.87725257873535">
			<ele>212.399993896484</ele>
			<time>2014-01-02T12:57:58Z</time>
		</trkpt>
		<trkpt lat="39.5079231262207" lon="2.87722945213318">
			<ele>212.5</ele>
			<time>2014-01-02T12:58:00Z</time>
		</trkpt>
		<trkpt lat="39.5079803466797" lon="2.87720155715942">
			<ele>212.300003051758</ele>
			<time>2014-01-02T12:58:02Z</time>
		</trkpt>
		<trkpt lat="39.5080375671387" lon="2.87717199325562">
			<ele>212.899993896484</ele>
			<time>2014-01-02T12:58:04Z</time>
		</trkpt>
		<trkpt lat="39.5080947875977" lon="2.87715888023376">
			<ele>211.600006103516</ele>
			<time>2014-01-02T12:58:06Z</time>
		</trkpt>
		<trkpt lat="39.5081596374512" lon="2.87713384628296">
			<ele>212</ele>
			<time>2014-01-02T12:58:08Z</time>
		</trkpt>
		<trkpt lat="39.5082168579102" lon="2.87710332870483">
			<ele>212.5</ele>
			<time>2014-01-02T12:58:10Z</time>
		</trkpt>
		<trkpt lat="39.5082740783691" lon="2.87707829475403">
			<ele>212.899993896484</ele>
			<time>2014-01-02T12:58:12Z</time>
		</trkpt>
		<trkpt lat="39.5083312988281" lon="2.87705135345459">
			<ele>212.800003051758</ele>
			<time>2014-01-02T12:58:14Z</time>
		</trkpt>
		<trkpt lat="39.5083885192871" lon="2.87702560424805">
			<ele>213</ele>
			<time>2014-01-02T12:58:16Z</time>
		</trkpt>
		<trkpt lat="39.5084457397461" lon="2.87700295448303">
			<ele>213</ele>
			<time>2014-01-02T12:58:18Z</time>
		</trkpt>
		<trkpt lat="39.5084991455078" lon="2.87697958946228">
			<ele>213</ele>
			<time>2014-01-02T12:58:20Z</time>
		</trkpt>
		<trkpt lat="39.5085563659668" lon="2.87695741653442">
			<ele>213.100006103516</ele>
			<time>2014-01-02T12:58:22Z</time>
		</trkpt>
		<trkpt lat="39.5086135864258" lon="2.8769314289093">
			<ele>213.100006103516</ele>
			<time>2014-01-02T12:58:24Z</time>
		</trkpt>
		<trkpt lat="39.5086708068848" lon="2.87690925598145">
			<ele>213.100006103516</ele>
			<time>2014-01-02T12:58:26Z</time>
		</trkpt>
		<trkpt lat="39.5087280273438" lon="2.87688732147217">
			<ele>213.199996948242</ele>
			<time>2014-01-02T12:58:28Z</time>
		</trkpt>
		<trkpt lat="39.5087852478027" lon="2.87686347961426">
			<ele>213.199996948242</ele>
			<time>2014-01-02T12:58:30Z</time>
		</trkpt>
		<trkpt lat="39.5088386535645" lon="2.87683582305908">
			<ele>213.5</ele>
			<time>2014-01-02T12:58:32Z</time>
		</trkpt>
		<trkpt lat="39.5088958740234" lon="2.8768093585968">
			<ele>213.800003051758</ele>
			<time>2014-01-02T12:58:34Z</time>
		</trkpt>
		<trkpt lat="39.5089530944824" lon="2.87678456306458">
			<ele>213.800003051758</ele>
			<time>2014-01-02T12:58:36Z</time>
		</trkpt>
		<trkpt lat="39.5090065002441" lon="2.87676358222961">
			<ele>214</ele>
			<time>2014-01-02T12:58:38Z</time>
		</trkpt>
		<trkpt lat="39.5090675354004" lon="2.87674164772034">
			<ele>213.899993896484</ele>
			<time>2014-01-02T12:58:40Z</time>
		</trkpt>
		<trkpt lat="39.5091247558594" lon="2.8767147064209">
			<ele>214.800003051758</ele>
			<time>2014-01-02T12:58:42Z</time>
		</trkpt>
		<trkpt lat="39.5091819763184" lon="2.87669444084167">
			<ele>214.5</ele>
			<time>2014-01-02T12:58:44Z</time>
		</trkpt>
		<trkpt lat="39.5092391967773" lon="2.87667059898376">
			<ele>214.300003051758</ele>
			<time>2014-01-02T12:58:46Z</time>
		</trkpt>
		<trkpt lat="39.5092964172363" lon="2.87664484977722">
			<ele>214.199996948242</ele>
			<time>2014-01-02T12:58:48Z</time>
		</trkpt>
		<trkpt lat="39.5093574523926" lon="2.87662124633789">
			<ele>215.800003051758</ele>
			<time>2014-01-02T12:58:50Z</time>
		</trkpt>
		<trkpt lat="39.5094146728516" lon="2.87659192085266">
			<ele>217.300003051758</ele>
			<time>2014-01-02T12:58:52Z</time>
		</trkpt>
		<trkpt lat="39.5094680786133" lon="2.87656474113464">
			<ele>217.699996948242</ele>
			<time>2014-01-02T12:58:54Z</time>
		</trkpt>
		<trkpt lat="39.509521484375" lon="2.87653756141663">
			<ele>217.899993896484</ele>
			<time>2014-01-02T12:58:56Z</time>
		</trkpt>
		<trkpt lat="39.509578704834" lon="2.87651777267456">
			<ele>217.899993896484</ele>
			<time>2014-01-02T12:58:58Z</time>
		</trkpt>
		<trkpt lat="39.5096321105957" lon="2.87649774551392">
			<ele>217.899993896484</ele>
			<time>2014-01-02T12:59:00Z</time>
		</trkpt>
		<trkpt lat="39.5096855163574" lon="2.87646865844727">
			<ele>217.899993896484</ele>
			<time>2014-01-02T12:59:02Z</time>
		</trkpt>
		<trkpt lat="39.5097427368164" lon="2.87644743919373">
			<ele>218.100006103516</ele>
			<time>2014-01-02T12:59:05Z</time>
		</trkpt>
		<trkpt lat="39.5097961425781" lon="2.87642312049866">
			<ele>218</ele>
			<time>2014-01-02T12:59:06Z</time>
		</trkpt>
		<trkpt lat="39.5098533630371" lon="2.87639880180359">
			<ele>218.300003051758</ele>
			<time>2014-01-02T12:59:08Z</time>
		</trkpt>
		<trkpt lat="39.5099067687988" lon="2.87637948989868">
			<ele>218.300003051758</ele>
			<time>2014-01-02T12:59:10Z</time>
		</trkpt>
		<trkpt lat="39.5099639892578" lon="2.87635231018066">
			<ele>218.699996948242</ele>
			<time>2014-01-02T12:59:12Z</time>
		</trkpt>
		<trkpt lat="39.5100135803223" lon="2.8763256072998">
			<ele>218.699996948242</ele>
			<time>2014-01-02T12:59:14Z</time>
		</trkpt>
		<trkpt lat="39.5100708007813" lon="2.87630844116211">
			<ele>218.100006103516</ele>
			<time>2014-01-02T12:59:16Z</time>
		</trkpt>
		<trkpt lat="39.5101280212402" lon="2.87628245353699">
			<ele>218.399993896484</ele>
			<time>2014-01-02T12:59:18Z</time>
		</trkpt>
		<trkpt lat="39.5101928710938" lon="2.87625360488892">
			<ele>218.5</ele>
			<time>2014-01-02T12:59:20Z</time>
		</trkpt>
		<trkpt lat="39.5102500915527" lon="2.87623310089111">
			<ele>218.699996948242</ele>
			<time>2014-01-02T12:59:22Z</time>
		</trkpt>
		<trkpt lat="39.510311126709" lon="2.87620782852173">
			<ele>218.800003051758</ele>
			<time>2014-01-02T12:59:24Z</time>
		</trkpt>
		<trkpt lat="39.5103645324707" lon="2.87618136405945">
			<ele>218.5</ele>
			<time>2014-01-02T12:59:26Z</time>
		</trkpt>
		<trkpt lat="39.510425567627" lon="2.87615203857422">
			<ele>221.300003051758</ele>
			<time>2014-01-02T12:59:28Z</time>
		</trkpt>
		<trkpt lat="39.5104789733887" lon="2.87612581253052">
			<ele>220.399993896484</ele>
			<time>2014-01-02T12:59:30Z</time>
		</trkpt>
		<trkpt lat="39.5105361938477" lon="2.87609815597534">
			<ele>220.300003051758</ele>
			<time>2014-01-02T12:59:32Z</time>
		</trkpt>
		<trkpt lat="39.5105934143066" lon="2.87607479095459">
			<ele>220.199996948242</ele>
			<time>2014-01-02T12:59:34Z</time>
		</trkpt>
		<trkpt lat="39.5106468200684" lon="2.87604904174805">
			<ele>220.199996948242</ele>
			<time>2014-01-02T12:59:36Z</time>
		</trkpt>
		<trkpt lat="39.5107040405273" lon="2.87602853775024">
			<ele>220.300003051758</ele>
			<time>2014-01-02T12:59:38Z</time>
		</trkpt>
		<trkpt lat="39.5107612609863" lon="2.87600421905518">
			<ele>220.5</ele>
			<time>2014-01-02T12:59:40Z</time>
		</trkpt>
		<trkpt lat="39.5108184814453" lon="2.8759777545929">
			<ele>220.800003051758</ele>
			<time>2014-01-02T12:59:42Z</time>
		</trkpt>
		<trkpt lat="39.5108757019043" lon="2.87594938278198">
			<ele>221.100006103516</ele>
			<time>2014-01-02T12:59:44Z</time>
		</trkpt>
		<trkpt lat="39.5109329223633" lon="2.87592267990112">
			<ele>220.600006103516</ele>
			<time>2014-01-02T12:59:46Z</time>
		</trkpt>
		<trkpt lat="39.5109939575195" lon="2.87589550018311">
			<ele>220.399993896484</ele>
			<time>2014-01-02T12:59:48Z</time>
		</trkpt>
		<trkpt lat="39.5110549926758" lon="2.87586998939514">
			<ele>221</ele>
			<time>2014-01-02T12:59:50Z</time>
		</trkpt>
		<trkpt lat="39.5111122131348" lon="2.87584662437439">
			<ele>220.899993896484</ele>
			<time>2014-01-02T12:59:52Z</time>
		</trkpt>
		<trkpt lat="39.5111694335938" lon="2.87581920623779">
			<ele>220.600006103516</ele>
			<time>2014-01-02T12:59:54Z</time>
		</trkpt>
		<trkpt lat="39.5112266540527" lon="2.87578940391541">
			<ele>220.600006103516</ele>
			<time>2014-01-02T12:59:56Z</time>
		</trkpt>
		<trkpt lat="39.5112838745117" lon="2.87576174736023">
			<ele>220.399993896484</ele>
			<time>2014-01-02T12:59:58Z</time>
		</trkpt>
		<trkpt lat="39.5113410949707" lon="2.87573885917664">
			<ele>220</ele>
			<time>2014-01-02T13:00:01Z</time>
		</trkpt>
		<trkpt lat="39.511402130127" lon="2.87570858001709">
			<ele>220.699996948242</ele>
			<time>2014-01-02T13:00:02Z</time>
		</trkpt>
		<trkpt lat="39.5114593505859" lon="2.87568497657776">
			<ele>220.300003051758</ele>
			<time>2014-01-02T13:00:04Z</time>
		</trkpt>
		<trkpt lat="39.5115165710449" lon="2.87565588951111">
			<ele>220.5</ele>
			<time>2014-01-02T13:00:06Z</time>
		</trkpt>
		<trkpt lat="39.5115737915039" lon="2.87562799453735">
			<ele>221.5</ele>
			<time>2014-01-02T13:00:08Z</time>
		</trkpt>
		<trkpt lat="39.5116348266602" lon="2.87560153007507">
			<ele>222.899993896484</ele>
			<time>2014-01-02T13:00:10Z</time>
		</trkpt>
		<trkpt lat="39.5116958618164" lon="2.87557482719421">
			<ele>223</ele>
			<time>2014-01-02T13:00:12Z</time>
		</trkpt>
		<trkpt lat="39.5117530822754" lon="2.87554740905762">
			<ele>222.899993896484</ele>
			<time>2014-01-02T13:00:14Z</time>
		</trkpt>
		<trkpt lat="39.5118103027344" lon="2.87552118301392">
			<ele>222.899993896484</ele>
			<time>2014-01-02T13:00:16Z</time>
		</trkpt>
		<trkpt lat="39.5118713378906" lon="2.87549209594727">
			<ele>223.600006103516</ele>
			<time>2014-01-02T13:00:18Z</time>
		</trkpt>
		<trkpt lat="39.5119323730469" lon="2.87546133995056">
			<ele>223.300003051758</ele>
			<time>2014-01-02T13:00:20Z</time>
		</trkpt>
		<trkpt lat="39.5119857788086" lon="2.87542009353638">
			<ele>223.199996948242</ele>
			<time>2014-01-02T13:00:22Z</time>
		</trkpt>
		<trkpt lat="39.5120315551758" lon="2.87537384033203">
			<ele>223</ele>
			<time>2014-01-02T13:00:24Z</time>
		</trkpt>
		<trkpt lat="39.5120735168457" lon="2.87531661987305">
			<ele>223.100006103516</ele>
			<time>2014-01-02T13:00:26Z</time>
		</trkpt>
		<trkpt lat="39.5121154785156" lon="2.87525963783264">
			<ele>223.100006103516</ele>
			<time>2014-01-02T13:00:28Z</time>
		</trkpt>
		<trkpt lat="39.5121574401855" lon="2.87519836425781">
			<ele>223.300003051758</ele>
			<time>2014-01-02T13:00:30Z</time>
		</trkpt>
		<trkpt lat="39.5122032165527" lon="2.8751482963562">
			<ele>223.399993896484</ele>
			<time>2014-01-02T13:00:32Z</time>
		</trkpt>
		<trkpt lat="39.5122413635254" lon="2.87509155273438">
			<ele>223.199996948242</ele>
			<time>2014-01-02T13:00:34Z</time>
		</trkpt>
		<trkpt lat="39.512279510498" lon="2.87503695487976">
			<ele>223.199996948242</ele>
			<time>2014-01-02T13:00:36Z</time>
		</trkpt>
		<trkpt lat="39.512321472168" lon="2.87497925758362">
			<ele>223.300003051758</ele>
			<time>2014-01-02T13:00:38Z</time>
		</trkpt>
		<trkpt lat="39.5123634338379" lon="2.87492084503174">
			<ele>223.5</ele>
			<time>2014-01-02T13:00:40Z</time>
		</trkpt>
		<trkpt lat="39.5124015808105" lon="2.87486577033997">
			<ele>223.800003051758</ele>
			<time>2014-01-02T13:00:42Z</time>
		</trkpt>
		<trkpt lat="39.5124435424805" lon="2.87481951713562">
			<ele>224.100006103516</ele>
			<time>2014-01-02T13:00:44Z</time>
		</trkpt>
		<trkpt lat="39.5124816894531" lon="2.87477374076843">
			<ele>224.199996948242</ele>
			<time>2014-01-02T13:00:46Z</time>
		</trkpt>
		<trkpt lat="39.5125198364258" lon="2.87472605705261">
			<ele>224.399993896484</ele>
			<time>2014-01-02T13:00:48Z</time>
		</trkpt>
		<trkpt lat="39.5125579833984" lon="2.87467646598816">
			<ele>224.399993896484</ele>
			<time>2014-01-02T13:00:50Z</time>
		</trkpt>
		<trkpt lat="39.5125961303711" lon="2.87462615966797">
			<ele>224.300003051758</ele>
			<time>2014-01-02T13:00:52Z</time>
		</trkpt>
		<trkpt lat="39.5126342773438" lon="2.87457299232483">
			<ele>224.199996948242</ele>
			<time>2014-01-02T13:00:54Z</time>
		</trkpt>
		<trkpt lat="39.5126724243164" lon="2.87452173233032">
			<ele>224.600006103516</ele>
			<time>2014-01-02T13:00:56Z</time>
		</trkpt>
		<trkpt lat="39.5127105712891" lon="2.87448024749756">
			<ele>224.800003051758</ele>
			<time>2014-01-02T13:00:58Z</time>
		</trkpt>
		<trkpt lat="39.5127487182617" lon="2.87443208694458">
			<ele>224.699996948242</ele>
			<time>2014-01-02T13:01:00Z</time>
		</trkpt>
		<trkpt lat="39.5127792358398" lon="2.87438678741455">
			<ele>224.600006103516</ele>
			<time>2014-01-02T13:01:02Z</time>
		</trkpt>
		<trkpt lat="39.5128326416016" lon="2.87436437606812">
			<ele>225.399993896484</ele>
			<time>2014-01-02T13:01:05Z</time>
		</trkpt>
		<trkpt lat="39.512882232666" lon="2.87436556816101">
			<ele>225.5</ele>
			<time>2014-01-02T13:01:09Z</time>
		</trkpt>
		<trkpt lat="39.5129432678223" lon="2.87436604499817">
			<ele>225</ele>
			<time>2014-01-02T13:02:08Z</time>
		</trkpt>
		<trkpt lat="39.5129890441895" lon="2.87436437606812">
			<ele>224.800003051758</ele>
			<time>2014-01-02T13:02:11Z</time>
		</trkpt>
		<trkpt lat="39.5130348205566" lon="2.87435793876648">
			<ele>224.699996948242</ele>
			<time>2014-01-02T13:02:13Z</time>
		</trkpt>
		<trkpt lat="39.5130958557129" lon="2.87435388565063">
			<ele>225.300003051758</ele>
			<time>2014-01-02T13:02:15Z</time>
		</trkpt>
		<trkpt lat="39.5131568908691" lon="2.87434720993042">
			<ele>225.699996948242</ele>
			<time>2014-01-02T13:02:17Z</time>
		</trkpt>
		<trkpt lat="39.5132179260254" lon="2.8743417263031">
			<ele>225.899993896484</ele>
			<time>2014-01-02T13:02:19Z</time>
		</trkpt>
		<trkpt lat="39.5132713317871" lon="2.87433791160583">
			<ele>225.899993896484</ele>
			<time>2014-01-02T13:02:21Z</time>
		</trkpt>
		<trkpt lat="39.5133399963379" lon="2.87432408332825">
			<ele>226.699996948242</ele>
			<time>2014-01-02T13:02:23Z</time>
		</trkpt>
		<trkpt lat="39.5134048461914" lon="2.8743269443512">
			<ele>226.300003051758</ele>
			<time>2014-01-02T13:02:25Z</time>
		</trkpt>
		<trkpt lat="39.5134658813477" lon="2.8743257522583">
			<ele>226.5</ele>
			<time>2014-01-02T13:02:27Z</time>
		</trkpt>
		<trkpt lat="39.5135269165039" lon="2.8743212223053">
			<ele>225.600006103516</ele>
			<time>2014-01-02T13:02:29Z</time>
		</trkpt>
		<trkpt lat="39.5135955810547" lon="2.87432312965393">
			<ele>225.5</ele>
			<time>2014-01-02T13:02:31Z</time>
		</trkpt>
		<trkpt lat="39.5136604309082" lon="2.87432456016541">
			<ele>225.100006103516</ele>
			<time>2014-01-02T13:02:33Z</time>
		</trkpt>
		<trkpt lat="39.513729095459" lon="2.87431049346924">
			<ele>225.100006103516</ele>
			<time>2014-01-02T13:02:35Z</time>
		</trkpt>
		<trkpt lat="39.5137939453125" lon="2.87430477142334">
			<ele>225.5</ele>
			<time>2014-01-02T13:02:37Z</time>
		</trkpt>
		<trkpt lat="39.513858795166" lon="2.87429690361023">
			<ele>225.699996948242</ele>
			<time>2014-01-02T13:02:39Z</time>
		</trkpt>
		<trkpt lat="39.5139198303223" lon="2.87428331375122">
			<ele>225.800003051758</ele>
			<time>2014-01-02T13:02:41Z</time>
		</trkpt>
		<trkpt lat="39.5139770507813" lon="2.87428045272827">
			<ele>226</ele>
			<time>2014-01-02T13:02:43Z</time>
		</trkpt>
		<trkpt lat="39.5140342712402" lon="2.87427806854248">
			<ele>226.300003051758</ele>
			<time>2014-01-02T13:02:45Z</time>
		</trkpt>
		<trkpt lat="39.5140953063965" lon="2.87426805496216">
			<ele>226</ele>
			<time>2014-01-02T13:02:47Z</time>
		</trkpt>
		<trkpt lat="39.51416015625" lon="2.87426948547363">
			<ele>226.399993896484</ele>
			<time>2014-01-02T13:02:49Z</time>
		</trkpt>
		<trkpt lat="39.5142211914063" lon="2.87426376342773">
			<ele>226.300003051758</ele>
			<time>2014-01-02T13:02:51Z</time>
		</trkpt>
		<trkpt lat="39.5142784118652" lon="2.8742561340332">
			<ele>226.399993896484</ele>
			<time>2014-01-02T13:02:53Z</time>
		</trkpt>
		<trkpt lat="39.5143432617188" lon="2.87425589561462">
			<ele>226.899993896484</ele>
			<time>2014-01-02T13:02:55Z</time>
		</trkpt>
		<trkpt lat="39.514404296875" lon="2.87425184249878">
			<ele>226.800003051758</ele>
			<time>2014-01-02T13:02:57Z</time>
		</trkpt>
		<trkpt lat="39.5144653320313" lon="2.87424111366272">
			<ele>227.899993896484</ele>
			<time>2014-01-02T13:02:59Z</time>
		</trkpt>
		<trkpt lat="39.5145225524902" lon="2.87423944473267">
			<ele>228</ele>
			<time>2014-01-02T13:03:01Z</time>
		</trkpt>
		<trkpt lat="39.5145797729492" lon="2.87423634529114">
			<ele>227.5</ele>
			<time>2014-01-02T13:03:03Z</time>
		</trkpt>
		<trkpt lat="39.5146369934082" lon="2.87423276901245">
			<ele>227.300003051758</ele>
			<time>2014-01-02T13:03:05Z</time>
		</trkpt>
		<trkpt lat="39.5146942138672" lon="2.87423086166382">
			<ele>227.199996948242</ele>
			<time>2014-01-02T13:03:07Z</time>
		</trkpt>
		<trkpt lat="39.5147514343262" lon="2.87422800064087">
			<ele>227.300003051758</ele>
			<time>2014-01-02T13:03:09Z</time>
		</trkpt>
		<trkpt lat="39.5148086547852" lon="2.87422347068787">
			<ele>227.699996948242</ele>
			<time>2014-01-02T13:03:11Z</time>
		</trkpt>
		<trkpt lat="39.5148620605469" lon="2.87422275543213">
			<ele>228</ele>
			<time>2014-01-02T13:03:13Z</time>
		</trkpt>
		<trkpt lat="39.5149230957031" lon="2.87422657012939">
			<ele>229.100006103516</ele>
			<time>2014-01-02T13:03:15Z</time>
		</trkpt>
		<trkpt lat="39.5149879455566" lon="2.8742151260376">
			<ele>230.5</ele>
			<time>2014-01-02T13:03:17Z</time>
		</trkpt>
		<trkpt lat="39.5150451660156" lon="2.87421083450317">
			<ele>230.100006103516</ele>
			<time>2014-01-02T13:03:19Z</time>
		</trkpt>
		<trkpt lat="39.5151062011719" lon="2.87419557571411">
			<ele>230.899993896484</ele>
			<time>2014-01-02T13:03:21Z</time>
		</trkpt>
		<trkpt lat="39.5151634216309" lon="2.87418031692505">
			<ele>230.899993896484</ele>
			<time>2014-01-02T13:03:23Z</time>
		</trkpt>
		<trkpt lat="39.5152282714844" lon="2.87417364120483">
			<ele>231.5</ele>
			<time>2014-01-02T13:03:25Z</time>
		</trkpt>
		<trkpt lat="39.5152893066406" lon="2.87416887283325">
			<ele>232.5</ele>
			<time>2014-01-02T13:03:27Z</time>
		</trkpt>
		<trkpt lat="39.5153503417969" lon="2.87415719032288">
			<ele>232.699996948242</ele>
			<time>2014-01-02T13:03:29Z</time>
		</trkpt>
		<trkpt lat="39.5154075622559" lon="2.87415242195129">
			<ele>232.100006103516</ele>
			<time>2014-01-02T13:03:31Z</time>
		</trkpt>
		<trkpt lat="39.5154724121094" lon="2.87415099143982">
			<ele>232.800003051758</ele>
			<time>2014-01-02T13:03:33Z</time>
		</trkpt>
		<trkpt lat="39.5155334472656" lon="2.87415099143982">
			<ele>232.699996948242</ele>
			<time>2014-01-02T13:03:35Z</time>
		</trkpt>
		<trkpt lat="39.5155906677246" lon="2.87415027618408">
			<ele>232.899993896484</ele>
			<time>2014-01-02T13:03:37Z</time>
		</trkpt>
		<trkpt lat="39.5156478881836" lon="2.87414336204529">
			<ele>232.899993896484</ele>
			<time>2014-01-02T13:03:39Z</time>
		</trkpt>
		<trkpt lat="39.5157089233398" lon="2.87414264678955">
			<ele>233.100006103516</ele>
			<time>2014-01-02T13:03:41Z</time>
		</trkpt>
		<trkpt lat="39.5157623291016" lon="2.87414145469666">
			<ele>233.300003051758</ele>
			<time>2014-01-02T13:03:43Z</time>
		</trkpt>
		<trkpt lat="39.5158195495605" lon="2.87413644790649">
			<ele>233.100006103516</ele>
			<time>2014-01-02T13:03:45Z</time>
		</trkpt>
		<trkpt lat="39.5158805847168" lon="2.87413334846497">
			<ele>233.399993896484</ele>
			<time>2014-01-02T13:03:47Z</time>
		</trkpt>
		<trkpt lat="39.5159378051758" lon="2.87412786483765">
			<ele>233.5</ele>
			<time>2014-01-02T13:03:49Z</time>
		</trkpt>
		<trkpt lat="39.5159873962402" lon="2.87412643432617">
			<ele>232.899993896484</ele>
			<time>2014-01-02T13:03:51Z</time>
		</trkpt>
		<trkpt lat="39.5160446166992" lon="2.87412071228027">
			<ele>233.5</ele>
			<time>2014-01-02T13:03:53Z</time>
		</trkpt>
		<trkpt lat="39.5160980224609" lon="2.8741180896759">
			<ele>233.600006103516</ele>
			<time>2014-01-02T13:03:55Z</time>
		</trkpt>
		<trkpt lat="39.5161590576172" lon="2.87411713600159">
			<ele>233.5</ele>
			<time>2014-01-02T13:03:57Z</time>
		</trkpt>
		<trkpt lat="39.5162162780762" lon="2.87411427497864">
			<ele>233.800003051758</ele>
			<time>2014-01-02T13:03:59Z</time>
		</trkpt>
		<trkpt lat="39.5162696838379" lon="2.87410712242126">
			<ele>234</ele>
			<time>2014-01-02T13:04:01Z</time>
		</trkpt>
		<trkpt lat="39.5163269042969" lon="2.87411427497864">
			<ele>233.899993896484</ele>
			<time>2014-01-02T13:04:03Z</time>
		</trkpt>
		<trkpt lat="39.5163803100586" lon="2.8741147518158">
			<ele>234</ele>
			<time>2014-01-02T13:04:05Z</time>
		</trkpt>
		<trkpt lat="39.5164337158203" lon="2.87410616874695">
			<ele>234.199996948242</ele>
			<time>2014-01-02T13:04:07Z</time>
		</trkpt>
		<trkpt lat="39.516487121582" lon="2.87410140037537">
			<ele>234.699996948242</ele>
			<time>2014-01-02T13:04:09Z</time>
		</trkpt>
		<trkpt lat="39.5165405273438" lon="2.87409377098083">
			<ele>234.899993896484</ele>
			<time>2014-01-02T13:04:11Z</time>
		</trkpt>
		<trkpt lat="39.5165977478027" lon="2.87409162521362">
			<ele>235.699996948242</ele>
			<time>2014-01-02T13:04:13Z</time>
		</trkpt>
		<trkpt lat="39.5166473388672" lon="2.8740918636322">
			<ele>236.199996948242</ele>
			<time>2014-01-02T13:04:15Z</time>
		</trkpt>
		<trkpt lat="39.5167045593262" lon="2.87408328056335">
			<ele>236.699996948242</ele>
			<time>2014-01-02T13:04:17Z</time>
		</trkpt>
		<trkpt lat="39.5167541503906" lon="2.87407350540161">
			<ele>236.600006103516</ele>
			<time>2014-01-02T13:04:19Z</time>
		</trkpt>
		<trkpt lat="39.5168037414551" lon="2.87406873703003">
			<ele>237.399993896484</ele>
			<time>2014-01-02T13:04:21Z</time>
		</trkpt>
		<trkpt lat="39.5168571472168" lon="2.87406134605408">
			<ele>237.899993896484</ele>
			<time>2014-01-02T13:04:23Z</time>
		</trkpt>
		<trkpt lat="39.5169105529785" lon="2.87405610084534">
			<ele>238</ele>
			<time>2014-01-02T13:04:25Z</time>
		</trkpt>
		<trkpt lat="39.5169639587402" lon="2.87405109405518">
			<ele>238.199996948242</ele>
			<time>2014-01-02T13:04:27Z</time>
		</trkpt>
		<trkpt lat="39.517017364502" lon="2.87405109405518">
			<ele>237.899993896484</ele>
			<time>2014-01-02T13:04:29Z</time>
		</trkpt>
		<trkpt lat="39.5170707702637" lon="2.87404942512512">
			<ele>237.899993896484</ele>
			<time>2014-01-02T13:04:31Z</time>
		</trkpt>
		<trkpt lat="39.5171318054199" lon="2.87404942512512">
			<ele>238.600006103516</ele>
			<time>2014-01-02T13:04:33Z</time>
		</trkpt>
		<trkpt lat="39.5171890258789" lon="2.87404870986938">
			<ele>239.199996948242</ele>
			<time>2014-01-02T13:04:35Z</time>
		</trkpt>
		<trkpt lat="39.5172424316406" lon="2.87404942512512">
			<ele>239.5</ele>
			<time>2014-01-02T13:04:37Z</time>
		</trkpt>
		<trkpt lat="39.5172958374023" lon="2.87404656410217">
			<ele>239.800003051758</ele>
			<time>2014-01-02T13:04:39Z</time>
		</trkpt>
		<trkpt lat="39.5173492431641" lon="2.87403607368469">
			<ele>239.600006103516</ele>
			<time>2014-01-02T13:04:41Z</time>
		</trkpt>
		<trkpt lat="39.5174026489258" lon="2.87403559684753">
			<ele>240</ele>
			<time>2014-01-02T13:04:43Z</time>
		</trkpt>
		<trkpt lat="39.5174560546875" lon="2.87403321266174">
			<ele>240.300003051758</ele>
			<time>2014-01-02T13:04:45Z</time>
		</trkpt>
		<trkpt lat="39.5175094604492" lon="2.87402844429016">
			<ele>240.699996948242</ele>
			<time>2014-01-02T13:04:47Z</time>
		</trkpt>
		<trkpt lat="39.5175628662109" lon="2.87402367591858">
			<ele>240.899993896484</ele>
			<time>2014-01-02T13:04:49Z</time>
		</trkpt>
		<trkpt lat="39.5176162719727" lon="2.87401914596558">
			<ele>241.100006103516</ele>
			<time>2014-01-02T13:04:51Z</time>
		</trkpt>
		<trkpt lat="39.5176658630371" lon="2.87401509284973">
			<ele>241.699996948242</ele>
			<time>2014-01-02T13:04:53Z</time>
		</trkpt>
		<trkpt lat="39.5177154541016" lon="2.87400937080383">
			<ele>242.100006103516</ele>
			<time>2014-01-02T13:04:55Z</time>
		</trkpt>
		<trkpt lat="39.517765045166" lon="2.8740074634552">
			<ele>242.199996948242</ele>
			<time>2014-01-02T13:04:57Z</time>
		</trkpt>
		<trkpt lat="39.5178146362305" lon="2.8740017414093">
			<ele>242.5</ele>
			<time>2014-01-02T13:04:59Z</time>
		</trkpt>
		<trkpt lat="39.5178642272949" lon="2.87399816513062">
			<ele>242.699996948242</ele>
			<time>2014-01-02T13:05:01Z</time>
		</trkpt>
		<trkpt lat="39.5179290771484" lon="2.8739800453186">
			<ele>242.800003051758</ele>
			<time>2014-01-02T13:05:04Z</time>
		</trkpt>
		<trkpt lat="39.5179786682129" lon="2.87398195266724">
			<ele>242.800003051758</ele>
			<time>2014-01-02T13:05:06Z</time>
		</trkpt>
		<trkpt lat="39.5180244445801" lon="2.87398076057434">
			<ele>242.699996948242</ele>
			<time>2014-01-02T13:05:08Z</time>
		</trkpt>
		<trkpt lat="39.5180740356445" lon="2.87398076057434">
			<ele>243.399993896484</ele>
			<time>2014-01-02T13:05:10Z</time>
		</trkpt>
		<trkpt lat="39.518123626709" lon="2.87397813796997">
			<ele>244</ele>
			<time>2014-01-02T13:05:12Z</time>
		</trkpt>
		<trkpt lat="39.5181732177734" lon="2.87397718429565">
			<ele>244.100006103516</ele>
			<time>2014-01-02T13:05:14Z</time>
		</trkpt>
		<trkpt lat="39.5182418823242" lon="2.87397241592407">
			<ele>244.600006103516</ele>
			<time>2014-01-02T13:05:17Z</time>
		</trkpt>
		<trkpt lat="39.5182914733887" lon="2.87396907806396">
			<ele>244.699996948242</ele>
			<time>2014-01-02T13:05:19Z</time>
		</trkpt>
		<trkpt lat="39.5183372497559" lon="2.87396788597107">
			<ele>245.199996948242</ele>
			<time>2014-01-02T13:05:21Z</time>
		</trkpt>
		<trkpt lat="39.518383026123" lon="2.87396621704102">
			<ele>245.100006103516</ele>
			<time>2014-01-02T13:05:23Z</time>
		</trkpt>
		<trkpt lat="39.5184288024902" lon="2.87396025657654">
			<ele>245.100006103516</ele>
			<time>2014-01-02T13:05:25Z</time>
		</trkpt>
		<trkpt lat="39.5184745788574" lon="2.8739538192749">
			<ele>245.100006103516</ele>
			<time>2014-01-02T13:05:27Z</time>
		</trkpt>
		<trkpt lat="39.5185394287109" lon="2.87395143508911">
			<ele>244.800003051758</ele>
			<time>2014-01-02T13:05:30Z</time>
		</trkpt>
		<trkpt lat="39.5186004638672" lon="2.87394976615906">
			<ele>245.100006103516</ele>
			<time>2014-01-02T13:05:33Z</time>
		</trkpt>
		<trkpt lat="39.5186653137207" lon="2.87394237518311">
			<ele>245.199996948242</ele>
			<time>2014-01-02T13:05:36Z</time>
		</trkpt>
		<trkpt lat="39.5187110900879" lon="2.87393999099731">
			<ele>244.899993896484</ele>
			<time>2014-01-02T13:05:38Z</time>
		</trkpt>
		<trkpt lat="39.5187797546387" lon="2.87393927574158">
			<ele>244.800003051758</ele>
			<time>2014-01-02T13:05:41Z</time>
		</trkpt>
		<trkpt lat="39.5188407897949" lon="2.87393069267273">
			<ele>244.899993896484</ele>
			<time>2014-01-02T13:05:44Z</time>
		</trkpt>
		<trkpt lat="39.5189094543457" lon="2.87393164634705">
			<ele>245.5</ele>
			<time>2014-01-02T13:05:47Z</time>
		</trkpt>
		<trkpt lat="39.5189781188965" lon="2.87393116950989">
			<ele>245.800003051758</ele>
			<time>2014-01-02T13:05:50Z</time>
		</trkpt>
		<trkpt lat="39.5190277099609" lon="2.8739287853241">
			<ele>245.800003051758</ele>
			<time>2014-01-02T13:05:52Z</time>
		</trkpt>
		<trkpt lat="39.5190734863281" lon="2.87392592430115">
			<ele>245.800003051758</ele>
			<time>2014-01-02T13:05:54Z</time>
		</trkpt>
		<trkpt lat="39.5191230773926" lon="2.87392258644104">
			<ele>245.800003051758</ele>
			<time>2014-01-02T13:05:56Z</time>
		</trkpt>
		<trkpt lat="39.5191688537598" lon="2.87392234802246">
			<ele>246.199996948242</ele>
			<time>2014-01-02T13:05:58Z</time>
		</trkpt>
		<trkpt lat="39.519229888916" lon="2.87392973899841">
			<ele>245.5</ele>
			<time>2014-01-02T13:06:01Z</time>
		</trkpt>
		<trkpt lat="39.5192909240723" lon="2.87391471862793">
			<ele>244.699996948242</ele>
			<time>2014-01-02T13:07:09Z</time>
		</trkpt>
		<trkpt lat="39.519344329834" lon="2.8739025592804">
			<ele>244.600006103516</ele>
			<time>2014-01-02T13:07:11Z</time>
		</trkpt>
		<trkpt lat="39.5193901062012" lon="2.87390089035034">
			<ele>245.199996948242</ele>
			<time>2014-01-02T13:07:13Z</time>
		</trkpt>
		<trkpt lat="39.5194396972656" lon="2.87389779090881">
			<ele>245.5</ele>
			<time>2014-01-02T13:07:15Z</time>
		</trkpt>
		<trkpt lat="39.5195045471191" lon="2.87389302253723">
			<ele>244.199996948242</ele>
			<time>2014-01-02T13:07:17Z</time>
		</trkpt>
		<trkpt lat="39.5195617675781" lon="2.87389278411865">
			<ele>244.399993896484</ele>
			<time>2014-01-02T13:07:19Z</time>
		</trkpt>
		<trkpt lat="39.5196151733398" lon="2.87389063835144">
			<ele>243.899993896484</ele>
			<time>2014-01-02T13:07:21Z</time>
		</trkpt>
		<trkpt lat="39.5196685791016" lon="2.8738899230957">
			<ele>243.100006103516</ele>
			<time>2014-01-02T13:07:23Z</time>
		</trkpt>
		<trkpt lat="39.519718170166" lon="2.87388205528259">
			<ele>242</ele>
			<time>2014-01-02T13:07:25Z</time>
		</trkpt>
		<trkpt lat="39.5197715759277" lon="2.87387728691101">
			<ele>241.600006103516</ele>
			<time>2014-01-02T13:07:27Z</time>
		</trkpt>
		<trkpt lat="39.5198211669922" lon="2.87387323379517">
			<ele>241.600006103516</ele>
			<time>2014-01-02T13:07:29Z</time>
		</trkpt>
		<trkpt lat="39.5198783874512" lon="2.87386727333069">
			<ele>241.699996948242</ele>
			<time>2014-01-02T13:07:31Z</time>
		</trkpt>
		<trkpt lat="39.5199356079102" lon="2.87386608123779">
			<ele>242.100006103516</ele>
			<time>2014-01-02T13:07:33Z</time>
		</trkpt>
		<trkpt lat="39.5199890136719" lon="2.87386608123779">
			<ele>242</ele>
			<time>2014-01-02T13:07:35Z</time>
		</trkpt>
		<trkpt lat="39.5200424194336" lon="2.87385988235474">
			<ele>241.600006103516</ele>
			<time>2014-01-02T13:07:37Z</time>
		</trkpt>
		<trkpt lat="39.5200958251953" lon="2.87385249137878">
			<ele>242</ele>
			<time>2014-01-02T13:07:39Z</time>
		</trkpt>
		<trkpt lat="39.520149230957" lon="2.87385487556458">
			<ele>241.100006103516</ele>
			<time>2014-01-02T13:07:41Z</time>
		</trkpt>
		<trkpt lat="39.5201988220215" lon="2.87386131286621">
			<ele>240.699996948242</ele>
			<time>2014-01-02T13:07:43Z</time>
		</trkpt>
		<trkpt lat="39.5202522277832" lon="2.87385725975037">
			<ele>240.5</ele>
			<time>2014-01-02T13:07:45Z</time>
		</trkpt>
		<trkpt lat="39.5203056335449" lon="2.87385988235474">
			<ele>240.800003051758</ele>
			<time>2014-01-02T13:07:47Z</time>
		</trkpt>
		<trkpt lat="39.5203552246094" lon="2.87385964393616">
			<ele>240.899993896484</ele>
			<time>2014-01-02T13:07:49Z</time>
		</trkpt>
		<trkpt lat="39.5204086303711" lon="2.87384843826294">
			<ele>241.699996948242</ele>
			<time>2014-01-02T13:07:51Z</time>
		</trkpt>
		<trkpt lat="39.5204658508301" lon="2.87384486198425">
			<ele>242</ele>
			<time>2014-01-02T13:07:53Z</time>
		</trkpt>
		<trkpt lat="39.5205192565918" lon="2.87384986877441">
			<ele>242.300003051758</ele>
			<time>2014-01-02T13:07:55Z</time>
		</trkpt>
		<trkpt lat="39.5205688476563" lon="2.87385106086731">
			<ele>242.699996948242</ele>
			<time>2014-01-02T13:07:57Z</time>
		</trkpt>
		<trkpt lat="39.5206184387207" lon="2.87383151054382">
			<ele>243.100006103516</ele>
			<time>2014-01-02T13:07:59Z</time>
		</trkpt>
		<trkpt lat="39.5206718444824" lon="2.87382411956787">
			<ele>242.699996948242</ele>
			<time>2014-01-02T13:08:01Z</time>
		</trkpt>
		<trkpt lat="39.5207176208496" lon="2.87382650375366">
			<ele>243.199996948242</ele>
			<time>2014-01-02T13:08:03Z</time>
		</trkpt>
		<trkpt lat="39.5207748413086" lon="2.87382769584656">
			<ele>243.399993896484</ele>
			<time>2014-01-02T13:08:05Z</time>
		</trkpt>
		<trkpt lat="39.5208206176758" lon="2.8738374710083">
			<ele>240.5</ele>
			<time>2014-01-02T13:08:07Z</time>
		</trkpt>
		<trkpt lat="39.5208740234375" lon="2.87383103370667">
			<ele>241.5</ele>
			<time>2014-01-02T13:08:09Z</time>
		</trkpt>
		<trkpt lat="39.5209274291992" lon="2.87383055686951">
			<ele>241.699996948242</ele>
			<time>2014-01-02T13:08:11Z</time>
		</trkpt>
		<trkpt lat="39.5209732055664" lon="2.87381100654602">
			<ele>243</ele>
			<time>2014-01-02T13:08:13Z</time>
		</trkpt>
		<trkpt lat="39.5210189819336" lon="2.87380242347717">
			<ele>243.699996948242</ele>
			<time>2014-01-02T13:08:15Z</time>
		</trkpt>
		<trkpt lat="39.521068572998" lon="2.87381029129028">
			<ele>243.899993896484</ele>
			<time>2014-01-02T13:08:17Z</time>
		</trkpt>
		<trkpt lat="39.5211181640625" lon="2.87380623817444">
			<ele>244.300003051758</ele>
			<time>2014-01-02T13:08:19Z</time>
		</trkpt>
		<trkpt lat="39.521167755127" lon="2.87379837036133">
			<ele>245</ele>
			<time>2014-01-02T13:08:21Z</time>
		</trkpt>
		<trkpt lat="39.5212173461914" lon="2.87379765510559">
			<ele>245.600006103516</ele>
			<time>2014-01-02T13:08:23Z</time>
		</trkpt>
		<trkpt lat="39.5212669372559" lon="2.87378931045532">
			<ele>246.800003051758</ele>
			<time>2014-01-02T13:08:25Z</time>
		</trkpt>
		<trkpt lat="39.5213165283203" lon="2.87378287315369">
			<ele>247</ele>
			<time>2014-01-02T13:08:27Z</time>
		</trkpt>
		<trkpt lat="39.521369934082" lon="2.87378287315369">
			<ele>247.199996948242</ele>
			<time>2014-01-02T13:08:29Z</time>
		</trkpt>
		<trkpt lat="39.5214233398438" lon="2.8737907409668">
			<ele>246.699996948242</ele>
			<time>2014-01-02T13:08:31Z</time>
		</trkpt>
		<trkpt lat="39.5214729309082" lon="2.87378311157227">
			<ele>247.100006103516</ele>
			<time>2014-01-02T13:08:33Z</time>
		</trkpt>
		<trkpt lat="39.5215187072754" lon="2.87377953529358">
			<ele>247.100006103516</ele>
			<time>2014-01-02T13:08:35Z</time>
		</trkpt>
		<trkpt lat="39.5215873718262" lon="2.87376689910889">
			<ele>247.5</ele>
			<time>2014-01-02T13:08:38Z</time>
		</trkpt>
		<trkpt lat="39.521656036377" lon="2.87376284599304">
			<ele>247.699996948242</ele>
			<time>2014-01-02T13:08:41Z</time>
		</trkpt>
		<trkpt lat="39.5217056274414" lon="2.87375950813293">
			<ele>247.5</ele>
			<time>2014-01-02T13:08:43Z</time>
		</trkpt>
		<trkpt lat="39.5217742919922" lon="2.8737621307373">
			<ele>247.199996948242</ele>
			<time>2014-01-02T13:08:46Z</time>
		</trkpt>
		<trkpt lat="39.5218276977539" lon="2.8737645149231">
			<ele>247.199996948242</ele>
			<time>2014-01-02T13:08:48Z</time>
		</trkpt>
		<trkpt lat="39.5218887329102" lon="2.87376475334167">
			<ele>247.600006103516</ele>
			<time>2014-01-02T13:08:50Z</time>
		</trkpt>
		<trkpt lat="39.5219497680664" lon="2.87373614311218">
			<ele>249.699996948242</ele>
			<time>2014-01-02T13:08:53Z</time>
		</trkpt>
		<trkpt lat="39.5219955444336" lon="2.87373304367065">
			<ele>250</ele>
			<time>2014-01-02T13:08:55Z</time>
		</trkpt>
		<trkpt lat="39.5220413208008" lon="2.87372612953186">
			<ele>250.800003051758</ele>
			<time>2014-01-02T13:08:57Z</time>
		</trkpt>
		<trkpt lat="39.5220832824707" lon="2.87370133399963">
			<ele>251.600006103516</ele>
			<time>2014-01-02T13:08:59Z</time>
		</trkpt>
		<trkpt lat="39.5221290588379" lon="2.87367820739746">
			<ele>251.5</ele>
			<time>2014-01-02T13:09:01Z</time>
		</trkpt>
		<trkpt lat="39.5221710205078" lon="2.87363767623901">
			<ele>250.800003051758</ele>
			<time>2014-01-02T13:09:03Z</time>
		</trkpt>
		<trkpt lat="39.5222091674805" lon="2.87359070777893">
			<ele>250.600006103516</ele>
			<time>2014-01-02T13:09:05Z</time>
		</trkpt>
		<trkpt lat="39.5222434997559" lon="2.87353444099426">
			<ele>251.199996948242</ele>
			<time>2014-01-02T13:09:07Z</time>
		</trkpt>
		<trkpt lat="39.5222854614258" lon="2.87347340583801">
			<ele>251.600006103516</ele>
			<time>2014-01-02T13:09:09Z</time>
		</trkpt>
		<trkpt lat="39.5223197937012" lon="2.87341666221619">
			<ele>251.600006103516</ele>
			<time>2014-01-02T13:09:11Z</time>
		</trkpt>
		<trkpt lat="39.5223541259766" lon="2.87335824966431">
			<ele>251.600006103516</ele>
			<time>2014-01-02T13:09:13Z</time>
		</trkpt>
		<trkpt lat="39.5223999023438" lon="2.87329602241516">
			<ele>251.899993896484</ele>
			<time>2014-01-02T13:09:15Z</time>
		</trkpt>
		<trkpt lat="39.5224380493164" lon="2.8732316493988">
			<ele>251.800003051758</ele>
			<time>2014-01-02T13:09:17Z</time>
		</trkpt>
		<trkpt lat="39.5224800109863" lon="2.87317204475403">
			<ele>252</ele>
			<time>2014-01-02T13:09:19Z</time>
		</trkpt>
		<trkpt lat="39.5225219726563" lon="2.87310838699341">
			<ele>251.899993896484</ele>
			<time>2014-01-02T13:09:21Z</time>
		</trkpt>
		<trkpt lat="39.5225639343262" lon="2.87304854393005">
			<ele>251.899993896484</ele>
			<time>2014-01-02T13:09:23Z</time>
		</trkpt>
		<trkpt lat="39.5226058959961" lon="2.87298846244812">
			<ele>251.600006103516</ele>
			<time>2014-01-02T13:09:25Z</time>
		</trkpt>
		<trkpt lat="39.5226516723633" lon="2.87292337417603">
			<ele>251.5</ele>
			<time>2014-01-02T13:09:27Z</time>
		</trkpt>
		<trkpt lat="39.5226974487305" lon="2.87285923957825">
			<ele>251.5</ele>
			<time>2014-01-02T13:09:29Z</time>
		</trkpt>
		<trkpt lat="39.5227432250977" lon="2.87279033660889">
			<ele>251.5</ele>
			<time>2014-01-02T13:09:31Z</time>
		</trkpt>
		<trkpt lat="39.5227890014648" lon="2.87272477149963">
			<ele>251.5</ele>
			<time>2014-01-02T13:09:33Z</time>
		</trkpt>
		<trkpt lat="39.522834777832" lon="2.87266230583191">
			<ele>251.5</ele>
			<time>2014-01-02T13:09:35Z</time>
		</trkpt>
		<trkpt lat="39.5228805541992" lon="2.87259101867676">
			<ele>251.199996948242</ele>
			<time>2014-01-02T13:09:37Z</time>
		</trkpt>
		<trkpt lat="39.5229339599609" lon="2.87251472473145">
			<ele>251</ele>
			<time>2014-01-02T13:09:39Z</time>
		</trkpt>
		<trkpt lat="39.5229873657227" lon="2.87243795394897">
			<ele>251.100006103516</ele>
			<time>2014-01-02T13:09:41Z</time>
		</trkpt>
		<trkpt lat="39.5230445861816" lon="2.87235236167908">
			<ele>251.399993896484</ele>
			<time>2014-01-02T13:09:43Z</time>
		</trkpt>
		<trkpt lat="39.5231018066406" lon="2.87226939201355">
			<ele>251</ele>
			<time>2014-01-02T13:09:45Z</time>
		</trkpt>
		<trkpt lat="39.5231552124023" lon="2.87217950820923">
			<ele>250.800003051758</ele>
			<time>2014-01-02T13:09:47Z</time>
		</trkpt>
		<trkpt lat="39.5231895446777" lon="2.87213611602783">
			<ele>250.800003051758</ele>
			<time>2014-01-02T13:09:48Z</time>
		</trkpt>
		<trkpt lat="39.523250579834" lon="2.87204480171204">
			<ele>250.100006103516</ele>
			<time>2014-01-02T13:09:50Z</time>
		</trkpt>
		<trkpt lat="39.5232810974121" lon="2.87199544906616">
			<ele>249.800003051758</ele>
			<time>2014-01-02T13:09:51Z</time>
		</trkpt>
		<trkpt lat="39.5233154296875" lon="2.87194538116455">
			<ele>249.399993896484</ele>
			<time>2014-01-02T13:09:52Z</time>
		</trkpt>
		<trkpt lat="39.5233497619629" lon="2.87189555168152">
			<ele>249.5</ele>
			<time>2014-01-02T13:09:53Z</time>
		</trkpt>
		<trkpt lat="39.5233879089355" lon="2.87183928489685">
			<ele>248.899993896484</ele>
			<time>2014-01-02T13:09:54Z</time>
		</trkpt>
		<trkpt lat="39.5234260559082" lon="2.87178373336792">
			<ele>248.600006103516</ele>
			<time>2014-01-02T13:09:55Z</time>
		</trkpt>
		<trkpt lat="39.5234642028809" lon="2.87172269821167">
			<ele>248.100006103516</ele>
			<time>2014-01-02T13:09:56Z</time>
		</trkpt>
		<trkpt lat="39.5234985351563" lon="2.87166261672974">
			<ele>248</ele>
			<time>2014-01-02T13:09:57Z</time>
		</trkpt>
		<trkpt lat="39.5235366821289" lon="2.87160158157349">
			<ele>247.699996948242</ele>
			<time>2014-01-02T13:09:58Z</time>
		</trkpt>
		<trkpt lat="39.5235748291016" lon="2.87154126167297">
			<ele>247.600006103516</ele>
			<time>2014-01-02T13:09:59Z</time>
		</trkpt>
		<trkpt lat="39.5236129760742" lon="2.87148642539978">
			<ele>247.300003051758</ele>
			<time>2014-01-02T13:10:00Z</time>
		</trkpt>
		<trkpt lat="39.5236549377441" lon="2.87143468856812">
			<ele>247</ele>
			<time>2014-01-02T13:10:01Z</time>
		</trkpt>
		<trkpt lat="39.5236968994141" lon="2.87137985229492">
			<ele>246.699996948242</ele>
			<time>2014-01-02T13:10:02Z</time>
		</trkpt>
		<trkpt lat="39.5237350463867" lon="2.87132549285889">
			<ele>246.600006103516</ele>
			<time>2014-01-02T13:10:03Z</time>
		</trkpt>
		<trkpt lat="39.5237693786621" lon="2.87127113342285">
			<ele>246.800003051758</ele>
			<time>2014-01-02T13:10:04Z</time>
		</trkpt>
		<trkpt lat="39.5238075256348" lon="2.87121534347534">
			<ele>246.600006103516</ele>
			<time>2014-01-02T13:10:05Z</time>
		</trkpt>
		<trkpt lat="39.5238418579102" lon="2.87115621566772">
			<ele>246.399993896484</ele>
			<time>2014-01-02T13:10:06Z</time>
		</trkpt>
		<trkpt lat="39.5238761901855" lon="2.87110638618469">
			<ele>246.5</ele>
			<time>2014-01-02T13:10:07Z</time>
		</trkpt>
		<trkpt lat="39.5239105224609" lon="2.87105178833008">
			<ele>246.399993896484</ele>
			<time>2014-01-02T13:10:08Z</time>
		</trkpt>
		<trkpt lat="39.5239524841309" lon="2.8710024356842">
			<ele>246</ele>
			<time>2014-01-02T13:10:09Z</time>
		</trkpt>
		<trkpt lat="39.5239906311035" lon="2.87095236778259">
			<ele>245.899993896484</ele>
			<time>2014-01-02T13:10:10Z</time>
		</trkpt>
		<trkpt lat="39.5240249633789" lon="2.87090253829956">
			<ele>245.699996948242</ele>
			<time>2014-01-02T13:10:11Z</time>
		</trkpt>
		<trkpt lat="39.5240631103516" lon="2.8708484172821">
			<ele>245.699996948242</ele>
			<time>2014-01-02T13:10:12Z</time>
		</trkpt>
		<trkpt lat="39.524097442627" lon="2.87079358100891">
			<ele>245.5</ele>
			<time>2014-01-02T13:10:13Z</time>
		</trkpt>
		<trkpt lat="39.5241317749023" lon="2.87073636054993">
			<ele>245.300003051758</ele>
			<time>2014-01-02T13:10:14Z</time>
		</trkpt>
		<trkpt lat="39.5241661071777" lon="2.87067842483521">
			<ele>244.800003051758</ele>
			<time>2014-01-02T13:10:15Z</time>
		</trkpt>
		<trkpt lat="39.5242042541504" lon="2.87062668800354">
			<ele>244.399993896484</ele>
			<time>2014-01-02T13:10:16Z</time>
		</trkpt>
		<trkpt lat="39.524242401123" lon="2.87057375907898">
			<ele>243.899993896484</ele>
			<time>2014-01-02T13:10:17Z</time>
		</trkpt>
		<trkpt lat="39.524284362793" lon="2.87051773071289">
			<ele>243.600006103516</ele>
			<time>2014-01-02T13:10:18Z</time>
		</trkpt>
		<trkpt lat="39.5243186950684" lon="2.87045693397522">
			<ele>243.399993896484</ele>
			<time>2014-01-02T13:10:19Z</time>
		</trkpt>
		<trkpt lat="39.524356842041" lon="2.8703978061676">
			<ele>243.600006103516</ele>
			<time>2014-01-02T13:10:20Z</time>
		</trkpt>
		<trkpt lat="39.5243949890137" lon="2.87034463882446">
			<ele>243.300003051758</ele>
			<time>2014-01-02T13:10:21Z</time>
		</trkpt>
		<trkpt lat="39.5244331359863" lon="2.87029266357422">
			<ele>243.100006103516</ele>
			<time>2014-01-02T13:10:22Z</time>
		</trkpt>
		<trkpt lat="39.5244789123535" lon="2.87025237083435">
			<ele>243.100006103516</ele>
			<time>2014-01-02T13:10:23Z</time>
		</trkpt>
		<trkpt lat="39.5245246887207" lon="2.87022352218628">
			<ele>243</ele>
			<time>2014-01-02T13:10:24Z</time>
		</trkpt>
		<trkpt lat="39.5245819091797" lon="2.8702449798584">
			<ele>242.899993896484</ele>
			<time>2014-01-02T13:10:25Z</time>
		</trkpt>
		<trkpt lat="39.5246315002441" lon="2.87026786804199">
			<ele>243.100006103516</ele>
			<time>2014-01-02T13:10:26Z</time>
		</trkpt>
		<trkpt lat="39.5246772766113" lon="2.87029457092285">
			<ele>243.100006103516</ele>
			<time>2014-01-02T13:10:27Z</time>
		</trkpt>
		<trkpt lat="39.5247192382813" lon="2.87032437324524">
			<ele>243.100006103516</ele>
			<time>2014-01-02T13:10:28Z</time>
		</trkpt>
		<trkpt lat="39.5247573852539" lon="2.87035536766052">
			<ele>242.899993896484</ele>
			<time>2014-01-02T13:10:29Z</time>
		</trkpt>
		<trkpt lat="39.5248374938965" lon="2.87041759490967">
			<ele>243.300003051758</ele>
			<time>2014-01-02T13:10:31Z</time>
		</trkpt>
		<trkpt lat="39.5249099731445" lon="2.87046909332275">
			<ele>243.600006103516</ele>
			<time>2014-01-02T13:10:33Z</time>
		</trkpt>
		<trkpt lat="39.5249824523926" lon="2.87051939964294">
			<ele>244.100006103516</ele>
			<time>2014-01-02T13:10:35Z</time>
		</trkpt>
		<trkpt lat="39.5250473022461" lon="2.87057256698608">
			<ele>244.600006103516</ele>
			<time>2014-01-02T13:10:37Z</time>
		</trkpt>
		<trkpt lat="39.5251121520996" lon="2.87061452865601">
			<ele>244.399993896484</ele>
			<time>2014-01-02T13:10:39Z</time>
		</trkpt>
		<trkpt lat="39.5251808166504" lon="2.87065410614014">
			<ele>244.899993896484</ele>
			<time>2014-01-02T13:10:41Z</time>
		</trkpt>
		<trkpt lat="39.5252342224121" lon="2.87069892883301">
			<ele>245.100006103516</ele>
			<time>2014-01-02T13:10:43Z</time>
		</trkpt>
		<trkpt lat="39.5252838134766" lon="2.87074375152588">
			<ele>245.199996948242</ele>
			<time>2014-01-02T13:10:45Z</time>
		</trkpt>
		<trkpt lat="39.5253372192383" lon="2.87078666687012">
			<ele>245.699996948242</ele>
			<time>2014-01-02T13:10:47Z</time>
		</trkpt>
		<trkpt lat="39.5253868103027" lon="2.87082242965698">
			<ele>246.300003051758</ele>
			<time>2014-01-02T13:10:49Z</time>
		</trkpt>
		<trkpt lat="39.5254364013672" lon="2.87086057662964">
			<ele>246.800003051758</ele>
			<time>2014-01-02T13:10:51Z</time>
		</trkpt>
		<trkpt lat="39.5254783630371" lon="2.87089824676514">
			<ele>246.699996948242</ele>
			<time>2014-01-02T13:10:53Z</time>
		</trkpt>
		<trkpt lat="39.5255279541016" lon="2.87092900276184">
			<ele>246.899993896484</ele>
			<time>2014-01-02T13:10:55Z</time>
		</trkpt>
		<trkpt lat="39.5255699157715" lon="2.87096834182739">
			<ele>247.399993896484</ele>
			<time>2014-01-02T13:10:57Z</time>
		</trkpt>
		<trkpt lat="39.5256156921387" lon="2.87100195884705">
			<ele>247.800003051758</ele>
			<time>2014-01-02T13:10:59Z</time>
		</trkpt>
		<trkpt lat="39.5256690979004" lon="2.87103176116943">
			<ele>248.300003051758</ele>
			<time>2014-01-02T13:11:01Z</time>
		</trkpt>
		<trkpt lat="39.5257110595703" lon="2.87106966972351">
			<ele>248.199996948242</ele>
			<time>2014-01-02T13:11:03Z</time>
		</trkpt>
		<trkpt lat="39.5257530212402" lon="2.87110424041748">
			<ele>248.600006103516</ele>
			<time>2014-01-02T13:11:05Z</time>
		</trkpt>
		<trkpt lat="39.5257987976074" lon="2.87114357948303">
			<ele>248.5</ele>
			<time>2014-01-02T13:11:07Z</time>
		</trkpt>
		<trkpt lat="39.5258445739746" lon="2.87117433547974">
			<ele>249.5</ele>
			<time>2014-01-02T13:11:09Z</time>
		</trkpt>
		<trkpt lat="39.5258903503418" lon="2.8712170124054">
			<ele>249.800003051758</ele>
			<time>2014-01-02T13:11:11Z</time>
		</trkpt>
		<trkpt lat="39.525936126709" lon="2.87124872207642">
			<ele>250</ele>
			<time>2014-01-02T13:11:13Z</time>
		</trkpt>
		<trkpt lat="39.5259819030762" lon="2.87128138542175">
			<ele>250.699996948242</ele>
			<time>2014-01-02T13:11:15Z</time>
		</trkpt>
		<trkpt lat="39.5260314941406" lon="2.87131929397583">
			<ele>251.300003051758</ele>
			<time>2014-01-02T13:11:17Z</time>
		</trkpt>
		<trkpt lat="39.5260772705078" lon="2.87135982513428">
			<ele>252.100006103516</ele>
			<time>2014-01-02T13:11:19Z</time>
		</trkpt>
		<trkpt lat="39.5261268615723" lon="2.87139415740967">
			<ele>252.600006103516</ele>
			<time>2014-01-02T13:11:21Z</time>
		</trkpt>
		<trkpt lat="39.5261764526367" lon="2.87142896652222">
			<ele>253.399993896484</ele>
			<time>2014-01-02T13:11:23Z</time>
		</trkpt>
		<trkpt lat="39.5262260437012" lon="2.87146663665771">
			<ele>253.899993896484</ele>
			<time>2014-01-02T13:11:25Z</time>
		</trkpt>
		<trkpt lat="39.5262794494629" lon="2.87150573730469">
			<ele>254</ele>
			<time>2014-01-02T13:11:27Z</time>
		</trkpt>
		<trkpt lat="39.5263252258301" lon="2.87154388427734">
			<ele>254.300003051758</ele>
			<time>2014-01-02T13:11:29Z</time>
		</trkpt>
		<trkpt lat="39.5263748168945" lon="2.87157869338989">
			<ele>254.600006103516</ele>
			<time>2014-01-02T13:11:31Z</time>
		</trkpt>
		<trkpt lat="39.5264205932617" lon="2.87161040306091">
			<ele>254.600006103516</ele>
			<time>2014-01-02T13:11:33Z</time>
		</trkpt>
		<trkpt lat="39.5264701843262" lon="2.87164735794067">
			<ele>254.5</ele>
			<time>2014-01-02T13:11:35Z</time>
		</trkpt>
		<trkpt lat="39.5265235900879" lon="2.8716893196106">
			<ele>254.5</ele>
			<time>2014-01-02T13:11:37Z</time>
		</trkpt>
		<trkpt lat="39.5265769958496" lon="2.87172603607178">
			<ele>254.600006103516</ele>
			<time>2014-01-02T13:11:39Z</time>
		</trkpt>
		<trkpt lat="39.5266342163086" lon="2.87176942825317">
			<ele>254.600006103516</ele>
			<time>2014-01-02T13:11:41Z</time>
		</trkpt>
		<trkpt lat="39.5266952514648" lon="2.87181925773621">
			<ele>254.699996948242</ele>
			<time>2014-01-02T13:11:43Z</time>
		</trkpt>
		<trkpt lat="39.5267601013184" lon="2.87186789512634">
			<ele>255</ele>
			<time>2014-01-02T13:11:45Z</time>
		</trkpt>
		<trkpt lat="39.5268249511719" lon="2.87191700935364">
			<ele>254.899993896484</ele>
			<time>2014-01-02T13:11:47Z</time>
		</trkpt>
		<trkpt lat="39.5268898010254" lon="2.87196612358093">
			<ele>254.899993896484</ele>
			<time>2014-01-02T13:11:49Z</time>
		</trkpt>
		<trkpt lat="39.5269546508789" lon="2.87201833724976">
			<ele>255.300003051758</ele>
			<time>2014-01-02T13:11:51Z</time>
		</trkpt>
		<trkpt lat="39.5270156860352" lon="2.8720645904541">
			<ele>255.699996948242</ele>
			<time>2014-01-02T13:11:53Z</time>
		</trkpt>
		<trkpt lat="39.5270729064941" lon="2.87210202217102">
			<ele>256</ele>
			<time>2014-01-02T13:11:55Z</time>
		</trkpt>
		<trkpt lat="39.5271263122559" lon="2.87213730812073">
			<ele>256.600006103516</ele>
			<time>2014-01-02T13:11:57Z</time>
		</trkpt>
		<trkpt lat="39.5271759033203" lon="2.87217354774475">
			<ele>256.799987792969</ele>
			<time>2014-01-02T13:11:59Z</time>
		</trkpt>
		<trkpt lat="39.5272254943848" lon="2.87221527099609">
			<ele>257</ele>
			<time>2014-01-02T13:12:01Z</time>
		</trkpt>
		<trkpt lat="39.5272750854492" lon="2.87225818634033">
			<ele>257.399993896484</ele>
			<time>2014-01-02T13:12:03Z</time>
		</trkpt>
		<trkpt lat="39.5273208618164" lon="2.87229299545288">
			<ele>258.100006103516</ele>
			<time>2014-01-02T13:12:05Z</time>
		</trkpt>
		<trkpt lat="39.5273704528809" lon="2.87233018875122">
			<ele>258</ele>
			<time>2014-01-02T13:12:07Z</time>
		</trkpt>
		<trkpt lat="39.527416229248" lon="2.87237572669983">
			<ele>258.299987792969</ele>
			<time>2014-01-02T13:12:09Z</time>
		</trkpt>
		<trkpt lat="39.5274620056152" lon="2.87241530418396">
			<ele>258.700012207031</ele>
			<time>2014-01-02T13:12:11Z</time>
		</trkpt>
		<trkpt lat="39.5275039672852" lon="2.87245178222656">
			<ele>259</ele>
			<time>2014-01-02T13:12:13Z</time>
		</trkpt>
		<trkpt lat="39.5275459289551" lon="2.87249422073364">
			<ele>259</ele>
			<time>2014-01-02T13:12:15Z</time>
		</trkpt>
		<trkpt lat="39.527587890625" lon="2.87253832817078">
			<ele>259</ele>
			<time>2014-01-02T13:12:17Z</time>
		</trkpt>
		<trkpt lat="39.5276260375977" lon="2.87258291244507">
			<ele>259.299987792969</ele>
			<time>2014-01-02T13:12:19Z</time>
		</trkpt>
		<trkpt lat="39.5276679992676" lon="2.87262678146362">
			<ele>259.5</ele>
			<time>2014-01-02T13:12:21Z</time>
		</trkpt>
		<trkpt lat="39.5277137756348" lon="2.87266683578491">
			<ele>259.600006103516</ele>
			<time>2014-01-02T13:12:23Z</time>
		</trkpt>
		<trkpt lat="39.5277557373047" lon="2.87271165847778">
			<ele>259.700012207031</ele>
			<time>2014-01-02T13:12:25Z</time>
		</trkpt>
		<trkpt lat="39.5278015136719" lon="2.87275671958923">
			<ele>259.700012207031</ele>
			<time>2014-01-02T13:12:27Z</time>
		</trkpt>
		<trkpt lat="39.5278434753418" lon="2.87280607223511">
			<ele>259.399993896484</ele>
			<time>2014-01-02T13:12:29Z</time>
		</trkpt>
		<trkpt lat="39.5278930664063" lon="2.87286496162415">
			<ele>259.5</ele>
			<time>2014-01-02T13:12:31Z</time>
		</trkpt>
		<trkpt lat="39.5279502868652" lon="2.87292408943176">
			<ele>259.200012207031</ele>
			<time>2014-01-02T13:12:33Z</time>
		</trkpt>
		<trkpt lat="39.5280151367188" lon="2.87298345565796">
			<ele>259.399993896484</ele>
			<time>2014-01-02T13:12:35Z</time>
		</trkpt>
		<trkpt lat="39.5280723571777" lon="2.8730354309082">
			<ele>259.799987792969</ele>
			<time>2014-01-02T13:12:37Z</time>
		</trkpt>
		<trkpt lat="39.5281219482422" lon="2.87308406829834">
			<ele>260.299987792969</ele>
			<time>2014-01-02T13:12:39Z</time>
		</trkpt>
		<trkpt lat="39.5281677246094" lon="2.87311410903931">
			<ele>260.700012207031</ele>
			<time>2014-01-02T13:12:41Z</time>
		</trkpt>
		<trkpt lat="39.5282211303711" lon="2.87313175201416">
			<ele>260.899993896484</ele>
			<time>2014-01-02T13:12:43Z</time>
		</trkpt>
		<trkpt lat="39.5282783508301" lon="2.87313771247864">
			<ele>260.799987792969</ele>
			<time>2014-01-02T13:12:45Z</time>
		</trkpt>
		<trkpt lat="39.5283393859863" lon="2.87314343452454">
			<ele>260.799987792969</ele>
			<time>2014-01-02T13:12:47Z</time>
		</trkpt>
		<trkpt lat="39.5284042358398" lon="2.87314319610596">
			<ele>260.200012207031</ele>
			<time>2014-01-02T13:12:49Z</time>
		</trkpt>
		<trkpt lat="39.5284881591797" lon="2.87314510345459">
			<ele>259.600006103516</ele>
			<time>2014-01-02T13:12:51Z</time>
		</trkpt>
		<trkpt lat="39.5285949707031" lon="2.87314796447754">
			<ele>259.5</ele>
			<time>2014-01-02T13:12:53Z</time>
		</trkpt>
		<trkpt lat="39.5286445617676" lon="2.87315011024475">
			<ele>259.600006103516</ele>
			<time>2014-01-02T13:12:54Z</time>
		</trkpt>
		<trkpt lat="39.5287017822266" lon="2.87315034866333">
			<ele>259.5</ele>
			<time>2014-01-02T13:12:55Z</time>
		</trkpt>
		<trkpt lat="39.5287551879883" lon="2.87315058708191">
			<ele>259.600006103516</ele>
			<time>2014-01-02T13:12:56Z</time>
		</trkpt>
		<trkpt lat="39.5288047790527" lon="2.87315273284912">
			<ele>259.799987792969</ele>
			<time>2014-01-02T13:12:57Z</time>
		</trkpt>
		<trkpt lat="39.5288581848145" lon="2.87314963340759">
			<ele>259.799987792969</ele>
			<time>2014-01-02T13:12:58Z</time>
		</trkpt>
		<trkpt lat="39.5289077758789" lon="2.87316298484802">
			<ele>259.899993896484</ele>
			<time>2014-01-02T13:12:59Z</time>
		</trkpt>
		<trkpt lat="39.5289535522461" lon="2.87316107749939">
			<ele>259.799987792969</ele>
			<time>2014-01-02T13:13:00Z</time>
		</trkpt>
		<trkpt lat="39.5290031433105" lon="2.87316727638245">
			<ele>259.799987792969</ele>
			<time>2014-01-02T13:13:01Z</time>
		</trkpt>
		<trkpt lat="39.5290908813477" lon="2.87320017814636">
			<ele>259.799987792969</ele>
			<time>2014-01-02T13:13:03Z</time>
		</trkpt>
		<trkpt lat="39.5291709899902" lon="2.87325954437256">
			<ele>259.600006103516</ele>
			<time>2014-01-02T13:13:05Z</time>
		</trkpt>
		<trkpt lat="39.5292472839355" lon="2.87331914901733">
			<ele>259.899993896484</ele>
			<time>2014-01-02T13:13:07Z</time>
		</trkpt>
		<trkpt lat="39.5293235778809" lon="2.87337732315063">
			<ele>260.700012207031</ele>
			<time>2014-01-02T13:13:09Z</time>
		</trkpt>
		<trkpt lat="39.5293960571289" lon="2.87342834472656">
			<ele>261</ele>
			<time>2014-01-02T13:13:11Z</time>
		</trkpt>
		<trkpt lat="39.529468536377" lon="2.8734769821167">
			<ele>261.200012207031</ele>
			<time>2014-01-02T13:13:13Z</time>
		</trkpt>
		<trkpt lat="39.5295372009277" lon="2.87352013587952">
			<ele>261.399993896484</ele>
			<time>2014-01-02T13:13:15Z</time>
		</trkpt>
		<trkpt lat="39.5296058654785" lon="2.8735682964325">
			<ele>261.700012207031</ele>
			<time>2014-01-02T13:13:17Z</time>
		</trkpt>
		<trkpt lat="39.5296669006348" lon="2.873615026474">
			<ele>262</ele>
			<time>2014-01-02T13:13:19Z</time>
		</trkpt>
		<trkpt lat="39.5297317504883" lon="2.87365818023682">
			<ele>262</ele>
			<time>2014-01-02T13:13:21Z</time>
		</trkpt>
		<trkpt lat="39.5297927856445" lon="2.87369322776794">
			<ele>262</ele>
			<time>2014-01-02T13:13:23Z</time>
		</trkpt>
		<trkpt lat="39.5298500061035" lon="2.87373185157776">
			<ele>262.299987792969</ele>
			<time>2014-01-02T13:13:25Z</time>
		</trkpt>
		<trkpt lat="39.5299072265625" lon="2.87377333641052">
			<ele>262.899993896484</ele>
			<time>2014-01-02T13:13:27Z</time>
		</trkpt>
		<trkpt lat="39.5299606323242" lon="2.87380957603455">
			<ele>263.399993896484</ele>
			<time>2014-01-02T13:13:29Z</time>
		</trkpt>
		<trkpt lat="39.5300064086914" lon="2.87384557723999">
			<ele>263.399993896484</ele>
			<time>2014-01-02T13:13:31Z</time>
		</trkpt>
		<trkpt lat="39.5300598144531" lon="2.87387347221375">
			<ele>263.700012207031</ele>
			<time>2014-01-02T13:13:33Z</time>
		</trkpt>
		<trkpt lat="39.5301132202148" lon="2.87390279769897">
			<ele>263.299987792969</ele>
			<time>2014-01-02T13:13:35Z</time>
		</trkpt>
		<trkpt lat="39.5301628112793" lon="2.87393260002136">
			<ele>263.799987792969</ele>
			<time>2014-01-02T13:13:37Z</time>
		</trkpt>
		<trkpt lat="39.530216217041" lon="2.87396168708801">
			<ele>263.799987792969</ele>
			<time>2014-01-02T13:13:39Z</time>
		</trkpt>
		<trkpt lat="39.5302658081055" lon="2.87400102615356">
			<ele>262.799987792969</ele>
			<time>2014-01-02T13:13:41Z</time>
		</trkpt>
		<trkpt lat="39.5303115844727" lon="2.87403988838196">
			<ele>262.200012207031</ele>
			<time>2014-01-02T13:13:43Z</time>
		</trkpt>
		<trkpt lat="39.5303573608398" lon="2.87408638000488">
			<ele>262.5</ele>
			<time>2014-01-02T13:13:45Z</time>
		</trkpt>
		<trkpt lat="39.5303955078125" lon="2.87413454055786">
			<ele>262.700012207031</ele>
			<time>2014-01-02T13:13:47Z</time>
		</trkpt>
		<trkpt lat="39.5304412841797" lon="2.87418103218079">
			<ele>262.600006103516</ele>
			<time>2014-01-02T13:13:49Z</time>
		</trkpt>
		<trkpt lat="39.5304946899414" lon="2.87422585487366">
			<ele>262.899993896484</ele>
			<time>2014-01-02T13:13:51Z</time>
		</trkpt>
		<trkpt lat="39.5305480957031" lon="2.87425756454468">
			<ele>263.399993896484</ele>
			<time>2014-01-02T13:13:53Z</time>
		</trkpt>
		<trkpt lat="39.5305938720703" lon="2.87428617477417">
			<ele>262.200012207031</ele>
			<time>2014-01-02T13:13:55Z</time>
		</trkpt>
		<trkpt lat="39.5306434631348" lon="2.87432217597961">
			<ele>262.399993896484</ele>
			<time>2014-01-02T13:13:57Z</time>
		</trkpt>
		<trkpt lat="39.5306930541992" lon="2.8743577003479">
			<ele>262.200012207031</ele>
			<time>2014-01-02T13:13:59Z</time>
		</trkpt>
		<trkpt lat="39.5307426452637" lon="2.87440776824951">
			<ele>264.399993896484</ele>
			<time>2014-01-02T13:14:01Z</time>
		</trkpt>
		<trkpt lat="39.5307922363281" lon="2.87445855140686">
			<ele>265.399993896484</ele>
			<time>2014-01-02T13:14:03Z</time>
		</trkpt>
		<trkpt lat="39.5308380126953" lon="2.87451386451721">
			<ele>265.600006103516</ele>
			<time>2014-01-02T13:14:05Z</time>
		</trkpt>
		<trkpt lat="39.5308799743652" lon="2.87456440925598">
			<ele>265.700012207031</ele>
			<time>2014-01-02T13:14:07Z</time>
		</trkpt>
		<trkpt lat="39.5309295654297" lon="2.87459850311279">
			<ele>265.5</ele>
			<time>2014-01-02T13:14:09Z</time>
		</trkpt>
		<trkpt lat="39.5309829711914" lon="2.87462615966797">
			<ele>265.399993896484</ele>
			<time>2014-01-02T13:14:11Z</time>
		</trkpt>
		<trkpt lat="39.5310325622559" lon="2.87465500831604">
			<ele>266</ele>
			<time>2014-01-02T13:14:13Z</time>
		</trkpt>
		<trkpt lat="39.5310859680176" lon="2.87468266487122">
			<ele>266.100006103516</ele>
			<time>2014-01-02T13:14:15Z</time>
		</trkpt>
		<trkpt lat="39.531135559082" lon="2.87470674514771">
			<ele>266</ele>
			<time>2014-01-02T13:14:17Z</time>
		</trkpt>
		<trkpt lat="39.5311889648438" lon="2.87474632263184">
			<ele>266.200012207031</ele>
			<time>2014-01-02T13:14:19Z</time>
		</trkpt>
		<trkpt lat="39.5312423706055" lon="2.87476325035095">
			<ele>266.5</ele>
			<time>2014-01-02T13:14:21Z</time>
		</trkpt>
		<trkpt lat="39.5313034057617" lon="2.87478160858154">
			<ele>266.899993896484</ele>
			<time>2014-01-02T13:14:23Z</time>
		</trkpt>
		<trkpt lat="39.531364440918" lon="2.87481117248535">
			<ele>266.899993896484</ele>
			<time>2014-01-02T13:14:25Z</time>
		</trkpt>
		<trkpt lat="39.5314140319824" lon="2.87484335899353">
			<ele>267.700012207031</ele>
			<time>2014-01-02T13:14:27Z</time>
		</trkpt>
		<trkpt lat="39.5314712524414" lon="2.87486886978149">
			<ele>267.5</ele>
			<time>2014-01-02T13:14:29Z</time>
		</trkpt>
		<trkpt lat="39.5315208435059" lon="2.87487745285034">
			<ele>267.399993896484</ele>
			<time>2014-01-02T13:14:31Z</time>
		</trkpt>
		<trkpt lat="39.5315780639648" lon="2.87488412857056">
			<ele>267.899993896484</ele>
			<time>2014-01-02T13:14:33Z</time>
		</trkpt>
		<trkpt lat="39.5316429138184" lon="2.8748881816864">
			<ele>269.399993896484</ele>
			<time>2014-01-02T13:14:35Z</time>
		</trkpt>
		<trkpt lat="39.5317077636719" lon="2.87489080429077">
			<ele>270.600006103516</ele>
			<time>2014-01-02T13:14:37Z</time>
		</trkpt>
		<trkpt lat="39.5317611694336" lon="2.8748767375946">
			<ele>270.600006103516</ele>
			<time>2014-01-02T13:14:39Z</time>
		</trkpt>
		<trkpt lat="39.5318222045898" lon="2.87486553192139">
			<ele>271.600006103516</ele>
			<time>2014-01-02T13:14:41Z</time>
		</trkpt>
		<trkpt lat="39.5318717956543" lon="2.87486219406128">
			<ele>270.5</ele>
			<time>2014-01-02T13:14:43Z</time>
		</trkpt>
		<trkpt lat="39.5319213867188" lon="2.8748619556427">
			<ele>269.5</ele>
			<time>2014-01-02T13:14:45Z</time>
		</trkpt>
		<trkpt lat="39.5319747924805" lon="2.87485861778259">
			<ele>269.100006103516</ele>
			<time>2014-01-02T13:14:47Z</time>
		</trkpt>
		<trkpt lat="39.5320320129395" lon="2.87485671043396">
			<ele>269</ele>
			<time>2014-01-02T13:14:49Z</time>
		</trkpt>
		<trkpt lat="39.5320930480957" lon="2.87485074996948">
			<ele>269.899993896484</ele>
			<time>2014-01-02T13:14:51Z</time>
		</trkpt>
		<trkpt lat="39.5321464538574" lon="2.87486696243286">
			<ele>270.5</ele>
			<time>2014-01-02T13:14:53Z</time>
		</trkpt>
		<trkpt lat="39.5322074890137" lon="2.87489056587219">
			<ele>269.899993896484</ele>
			<time>2014-01-02T13:14:55Z</time>
		</trkpt>
		<trkpt lat="39.5322570800781" lon="2.87491536140442">
			<ele>270.700012207031</ele>
			<time>2014-01-02T13:14:57Z</time>
		</trkpt>
		<trkpt lat="39.5323104858398" lon="2.87494277954102">
			<ele>271.799987792969</ele>
			<time>2014-01-02T13:14:59Z</time>
		</trkpt>
		<trkpt lat="39.532356262207" lon="2.87497329711914">
			<ele>271.600006103516</ele>
			<time>2014-01-02T13:15:01Z</time>
		</trkpt>
		<trkpt lat="39.5324096679688" lon="2.87500262260437">
			<ele>272.600006103516</ele>
			<time>2014-01-02T13:15:03Z</time>
		</trkpt>
		<trkpt lat="39.5324630737305" lon="2.87502408027649">
			<ele>273</ele>
			<time>2014-01-02T13:15:05Z</time>
		</trkpt>
		<trkpt lat="39.5325088500977" lon="2.87504482269287">
			<ele>274.799987792969</ele>
			<time>2014-01-02T13:15:07Z</time>
		</trkpt>
		<trkpt lat="39.5325584411621" lon="2.87506151199341">
			<ele>277.5</ele>
			<time>2014-01-02T13:15:09Z</time>
		</trkpt>
		<trkpt lat="39.5326118469238" lon="2.87508034706116">
			<ele>278</ele>
			<time>2014-01-02T13:15:11Z</time>
		</trkpt>
		<trkpt lat="39.5326690673828" lon="2.87509799003601">
			<ele>278</ele>
			<time>2014-01-02T13:15:13Z</time>
		</trkpt>
		<trkpt lat="39.5327262878418" lon="2.87511873245239">
			<ele>277.600006103516</ele>
			<time>2014-01-02T13:15:15Z</time>
		</trkpt>
		<trkpt lat="39.5327682495117" lon="2.87517881393433">
			<ele>275.899993896484</ele>
			<time>2014-01-02T13:15:17Z</time>
		</trkpt>
		<trkpt lat="39.5328063964844" lon="2.8752326965332">
			<ele>275.5</ele>
			<time>2014-01-02T13:15:19Z</time>
		</trkpt>
		<trkpt lat="39.5328407287598" lon="2.87530899047852">
			<ele>276.5</ele>
			<time>2014-01-02T13:15:21Z</time>
		</trkpt>
		<trkpt lat="39.5328788757324" lon="2.87537693977356">
			<ele>276.299987792969</ele>
			<time>2014-01-02T13:15:23Z</time>
		</trkpt>
		<trkpt lat="39.532901763916" lon="2.87544417381287">
			<ele>276.299987792969</ele>
			<time>2014-01-02T13:15:25Z</time>
		</trkpt>
		<trkpt lat="39.5329322814941" lon="2.87551355361938">
			<ele>276.299987792969</ele>
			<time>2014-01-02T13:15:27Z</time>
		</trkpt>
		<trkpt lat="39.5329513549805" lon="2.87556982040405">
			<ele>277</ele>
			<time>2014-01-02T13:15:29Z</time>
		</trkpt>
		<trkpt lat="39.5329818725586" lon="2.87562870979309">
			<ele>276.600006103516</ele>
			<time>2014-01-02T13:15:31Z</time>
		</trkpt>
		<trkpt lat="39.533016204834" lon="2.87568330764771">
			<ele>277</ele>
			<time>2014-01-02T13:15:33Z</time>
		</trkpt>
		<trkpt lat="39.5330581665039" lon="2.87573075294495">
			<ele>276.899993896484</ele>
			<time>2014-01-02T13:15:35Z</time>
		</trkpt>
		<trkpt lat="39.5330963134766" lon="2.87577891349792">
			<ele>276.899993896484</ele>
			<time>2014-01-02T13:15:37Z</time>
		</trkpt>
		<trkpt lat="39.5331344604492" lon="2.8758237361908">
			<ele>277.600006103516</ele>
			<time>2014-01-02T13:15:39Z</time>
		</trkpt>
		<trkpt lat="39.5331878662109" lon="2.87586808204651">
			<ele>278</ele>
			<time>2014-01-02T13:15:41Z</time>
		</trkpt>
		<trkpt lat="39.5332412719727" lon="2.87591791152954">
			<ele>277.700012207031</ele>
			<time>2014-01-02T13:15:43Z</time>
		</trkpt>
		<trkpt lat="39.5332717895508" lon="2.87597227096558">
			<ele>277.899993896484</ele>
			<time>2014-01-02T13:15:45Z</time>
		</trkpt>
		<trkpt lat="39.5333213806152" lon="2.87602686882019">
			<ele>277.600006103516</ele>
			<time>2014-01-02T13:15:47Z</time>
		</trkpt>
		<trkpt lat="39.5333557128906" lon="2.87608051300049">
			<ele>277.700012207031</ele>
			<time>2014-01-02T13:15:49Z</time>
		</trkpt>
		<trkpt lat="39.5334014892578" lon="2.87613534927368">
			<ele>278.100006103516</ele>
			<time>2014-01-02T13:15:51Z</time>
		</trkpt>
		<trkpt lat="39.5334281921387" lon="2.87619614601135">
			<ele>277.899993896484</ele>
			<time>2014-01-02T13:15:53Z</time>
		</trkpt>
		<trkpt lat="39.5334587097168" lon="2.87625002861023">
			<ele>278.700012207031</ele>
			<time>2014-01-02T13:15:55Z</time>
		</trkpt>
		<trkpt lat="39.5334892272949" lon="2.87630701065063">
			<ele>279</ele>
			<time>2014-01-02T13:15:57Z</time>
		</trkpt>
		<trkpt lat="39.5335235595703" lon="2.87637138366699">
			<ele>277.100006103516</ele>
			<time>2014-01-02T13:15:59Z</time>
		</trkpt>
		<trkpt lat="39.5335464477539" lon="2.87644290924072">
			<ele>276.799987792969</ele>
			<time>2014-01-02T13:16:01Z</time>
		</trkpt>
		<trkpt lat="39.5335693359375" lon="2.87651681900024">
			<ele>277.399993896484</ele>
			<time>2014-01-02T13:16:03Z</time>
		</trkpt>
		<trkpt lat="39.5335884094238" lon="2.8765881061554">
			<ele>276.399993896484</ele>
			<time>2014-01-02T13:16:05Z</time>
		</trkpt>
		<trkpt lat="39.5336112976074" lon="2.87666273117065">
			<ele>276.600006103516</ele>
			<time>2014-01-02T13:16:07Z</time>
		</trkpt>
		<trkpt lat="39.5336227416992" lon="2.8767237663269">
			<ele>276.700012207031</ele>
			<time>2014-01-02T13:16:09Z</time>
		</trkpt>
		<trkpt lat="39.533634185791" lon="2.87678337097168">
			<ele>276.600006103516</ele>
			<time>2014-01-02T13:16:11Z</time>
		</trkpt>
		<trkpt lat="39.5336685180664" lon="2.87685608863831">
			<ele>274.700012207031</ele>
			<time>2014-01-02T13:16:14Z</time>
		</trkpt>
		<trkpt lat="39.53369140625" lon="2.87693333625793">
			<ele>274.399993896484</ele>
			<time>2014-01-02T13:16:17Z</time>
		</trkpt>
		<trkpt lat="39.5337219238281" lon="2.8769850730896">
			<ele>277.299987792969</ele>
			<time>2014-01-02T13:16:21Z</time>
		</trkpt>
		<trkpt lat="39.5337715148926" lon="2.87703108787537">
			<ele>280.5</ele>
			<time>2014-01-02T13:18:36Z</time>
		</trkpt>
		<trkpt lat="39.5338249206543" lon="2.87708020210266">
			<ele>280</ele>
			<time>2014-01-02T13:18:38Z</time>
		</trkpt>
		<trkpt lat="39.5339317321777" lon="2.87712025642395">
			<ele>277.799987792969</ele>
			<time>2014-01-02T13:18:39Z</time>
		</trkpt>
		<trkpt lat="39.5340118408203" lon="2.8771550655365">
			<ele>278.100006103516</ele>
			<time>2014-01-02T13:18:41Z</time>
		</trkpt>
		<trkpt lat="39.534065246582" lon="2.87717127799988">
			<ele>278</ele>
			<time>2014-01-02T13:18:42Z</time>
		</trkpt>
		<trkpt lat="39.534122467041" lon="2.8771767616272">
			<ele>277.700012207031</ele>
			<time>2014-01-02T13:18:43Z</time>
		</trkpt>
		<trkpt lat="39.5341949462891" lon="2.8771858215332">
			<ele>277.899993896484</ele>
			<time>2014-01-02T13:18:44Z</time>
		</trkpt>
		<trkpt lat="39.5342559814453" lon="2.87718868255615">
			<ele>277.799987792969</ele>
			<time>2014-01-02T13:18:45Z</time>
		</trkpt>
		<trkpt lat="39.5343208312988" lon="2.87719035148621">
			<ele>277.799987792969</ele>
			<time>2014-01-02T13:18:46Z</time>
		</trkpt>
		<trkpt lat="39.5343856811523" lon="2.87720108032227">
			<ele>277.200012207031</ele>
			<time>2014-01-02T13:18:47Z</time>
		</trkpt>
		<trkpt lat="39.5344314575195" lon="2.87720274925232">
			<ele>277.399993896484</ele>
			<time>2014-01-02T13:18:48Z</time>
		</trkpt>
		<trkpt lat="39.5344734191895" lon="2.8772406578064">
			<ele>275.799987792969</ele>
			<time>2014-01-02T13:18:49Z</time>
		</trkpt>
		<trkpt lat="39.5345268249512" lon="2.87726712226868">
			<ele>276.899993896484</ele>
			<time>2014-01-02T13:18:50Z</time>
		</trkpt>
		<trkpt lat="39.5345726013184" lon="2.8772931098938">
			<ele>277.299987792969</ele>
			<time>2014-01-02T13:18:51Z</time>
		</trkpt>
		<trkpt lat="39.5346183776855" lon="2.8773295879364">
			<ele>277.299987792969</ele>
			<time>2014-01-02T13:18:52Z</time>
		</trkpt>
		<trkpt lat="39.5346565246582" lon="2.87738466262817">
			<ele>277.600006103516</ele>
			<time>2014-01-02T13:18:53Z</time>
		</trkpt>
		<trkpt lat="39.5347290039063" lon="2.87746977806091">
			<ele>277.299987792969</ele>
			<time>2014-01-02T13:18:55Z</time>
		</trkpt>
		<trkpt lat="39.5347671508789" lon="2.87753081321716">
			<ele>277.299987792969</ele>
			<time>2014-01-02T13:18:56Z</time>
		</trkpt>
		<trkpt lat="39.5348052978516" lon="2.87758588790894">
			<ele>276.799987792969</ele>
			<time>2014-01-02T13:18:57Z</time>
		</trkpt>
		<trkpt lat="39.5348625183105" lon="2.87764930725098">
			<ele>277.899993896484</ele>
			<time>2014-01-02T13:18:58Z</time>
		</trkpt>
		<trkpt lat="39.534912109375" lon="2.87770938873291">
			<ele>278</ele>
			<time>2014-01-02T13:18:59Z</time>
		</trkpt>
		<trkpt lat="39.5349578857422" lon="2.8777859210968">
			<ele>277.899993896484</ele>
			<time>2014-01-02T13:19:00Z</time>
		</trkpt>
		<trkpt lat="39.534984588623" lon="2.87786269187927">
			<ele>276.399993896484</ele>
			<time>2014-01-02T13:19:01Z</time>
		</trkpt>
		<trkpt lat="39.5350189208984" lon="2.877925157547">
			<ele>276.799987792969</ele>
			<time>2014-01-02T13:19:02Z</time>
		</trkpt>
		<trkpt lat="39.5350723266602" lon="2.87799668312073">
			<ele>276.299987792969</ele>
			<time>2014-01-02T13:19:03Z</time>
		</trkpt>
		<trkpt lat="39.5351371765137" lon="2.87805080413818">
			<ele>276.299987792969</ele>
			<time>2014-01-02T13:19:04Z</time>
		</trkpt>
		<trkpt lat="39.5351905822754" lon="2.87811923027039">
			<ele>275.399993896484</ele>
			<time>2014-01-02T13:19:05Z</time>
		</trkpt>
		<trkpt lat="39.5352478027344" lon="2.87821006774902">
			<ele>274.700012207031</ele>
			<time>2014-01-02T13:19:06Z</time>
		</trkpt>
		<trkpt lat="39.5353126525879" lon="2.87827157974243">
			<ele>273.5</ele>
			<time>2014-01-02T13:19:07Z</time>
		</trkpt>
		<trkpt lat="39.5353889465332" lon="2.87832689285278">
			<ele>272</ele>
			<time>2014-01-02T13:19:08Z</time>
		</trkpt>
		<trkpt lat="39.535472869873" lon="2.87837529182434">
			<ele>271.799987792969</ele>
			<time>2014-01-02T13:19:09Z</time>
		</trkpt>
		<trkpt lat="39.5355529785156" lon="2.87842774391174">
			<ele>270.899993896484</ele>
			<time>2014-01-02T13:19:10Z</time>
		</trkpt>
		<trkpt lat="39.5356369018555" lon="2.87849235534668">
			<ele>270.600006103516</ele>
			<time>2014-01-02T13:19:11Z</time>
		</trkpt>
		<trkpt lat="39.5357093811035" lon="2.87855362892151">
			<ele>270.5</ele>
			<time>2014-01-02T13:19:12Z</time>
		</trkpt>
		<trkpt lat="39.5357818603516" lon="2.87860703468323">
			<ele>270.799987792969</ele>
			<time>2014-01-02T13:19:13Z</time>
		</trkpt>
		<trkpt lat="39.5358467102051" lon="2.87864828109741">
			<ele>268.799987792969</ele>
			<time>2014-01-02T13:19:14Z</time>
		</trkpt>
		<trkpt lat="39.5359230041504" lon="2.87869906425476">
			<ele>268.299987792969</ele>
			<time>2014-01-02T13:19:15Z</time>
		</trkpt>
		<trkpt lat="39.5359916687012" lon="2.87873935699463">
			<ele>268</ele>
			<time>2014-01-02T13:19:16Z</time>
		</trkpt>
		<trkpt lat="39.536075592041" lon="2.87876749038696">
			<ele>266.899993896484</ele>
			<time>2014-01-02T13:19:17Z</time>
		</trkpt>
		<trkpt lat="39.5361480712891" lon="2.87879705429077">
			<ele>267</ele>
			<time>2014-01-02T13:19:18Z</time>
		</trkpt>
		<trkpt lat="39.5362243652344" lon="2.87882971763611">
			<ele>266.899993896484</ele>
			<time>2014-01-02T13:19:19Z</time>
		</trkpt>
		<trkpt lat="39.5362968444824" lon="2.8788788318634">
			<ele>267</ele>
			<time>2014-01-02T13:19:20Z</time>
		</trkpt>
		<trkpt lat="39.5363578796387" lon="2.87892627716064">
			<ele>266.700012207031</ele>
			<time>2014-01-02T13:19:21Z</time>
		</trkpt>
		<trkpt lat="39.5364227294922" lon="2.87897157669067">
			<ele>266.899993896484</ele>
			<time>2014-01-02T13:19:22Z</time>
		</trkpt>
		<trkpt lat="39.5364837646484" lon="2.87901616096497">
			<ele>267.100006103516</ele>
			<time>2014-01-02T13:19:23Z</time>
		</trkpt>
		<trkpt lat="39.5365524291992" lon="2.87905430793762">
			<ele>267.399993896484</ele>
			<time>2014-01-02T13:19:24Z</time>
		</trkpt>
		<trkpt lat="39.53662109375" lon="2.879070520401">
			<ele>267.299987792969</ele>
			<time>2014-01-02T13:19:25Z</time>
		</trkpt>
		<trkpt lat="39.5366897583008" lon="2.87908625602722">
			<ele>266.600006103516</ele>
			<time>2014-01-02T13:19:26Z</time>
		</trkpt>
		<trkpt lat="39.5367546081543" lon="2.87908816337585">
			<ele>266.200012207031</ele>
			<time>2014-01-02T13:19:27Z</time>
		</trkpt>
		<trkpt lat="39.5368194580078" lon="2.87909078598022">
			<ele>266.399993896484</ele>
			<time>2014-01-02T13:19:28Z</time>
		</trkpt>
		<trkpt lat="39.5368919372559" lon="2.87907147407532">
			<ele>266.200012207031</ele>
			<time>2014-01-02T13:19:29Z</time>
		</trkpt>
		<trkpt lat="39.5369567871094" lon="2.87904858589172">
			<ele>265.399993896484</ele>
			<time>2014-01-02T13:19:30Z</time>
		</trkpt>
		<trkpt lat="39.5370178222656" lon="2.87903022766113">
			<ele>265.299987792969</ele>
			<time>2014-01-02T13:19:31Z</time>
		</trkpt>
		<trkpt lat="39.5370864868164" lon="2.87903690338135">
			<ele>264.299987792969</ele>
			<time>2014-01-02T13:19:32Z</time>
		</trkpt>
		<trkpt lat="39.5371437072754" lon="2.87903213500977">
			<ele>264.299987792969</ele>
			<time>2014-01-02T13:19:33Z</time>
		</trkpt>
		<trkpt lat="39.5372009277344" lon="2.87902498245239">
			<ele>264.200012207031</ele>
			<time>2014-01-02T13:19:34Z</time>
		</trkpt>
		<trkpt lat="39.5372581481934" lon="2.87902474403381">
			<ele>264.5</ele>
			<time>2014-01-02T13:19:35Z</time>
		</trkpt>
		<trkpt lat="39.5373153686523" lon="2.8790295124054">
			<ele>264.399993896484</ele>
			<time>2014-01-02T13:19:36Z</time>
		</trkpt>
		<trkpt lat="39.5373725891113" lon="2.8790385723114">
			<ele>264.100006103516</ele>
			<time>2014-01-02T13:19:37Z</time>
		</trkpt>
		<trkpt lat="39.5374221801758" lon="2.87905192375183">
			<ele>263.799987792969</ele>
			<time>2014-01-02T13:19:38Z</time>
		</trkpt>
		<trkpt lat="39.5374794006348" lon="2.87906193733215">
			<ele>263.899993896484</ele>
			<time>2014-01-02T13:19:39Z</time>
		</trkpt>
		<trkpt lat="39.5375328063965" lon="2.8790762424469">
			<ele>264.200012207031</ele>
			<time>2014-01-02T13:19:40Z</time>
		</trkpt>
		<trkpt lat="39.5375862121582" lon="2.87909412384033">
			<ele>264.100006103516</ele>
			<time>2014-01-02T13:19:41Z</time>
		</trkpt>
		<trkpt lat="39.5376510620117" lon="2.87912154197693">
			<ele>263.5</ele>
			<time>2014-01-02T13:19:42Z</time>
		</trkpt>
		<trkpt lat="39.5376968383789" lon="2.87914490699768">
			<ele>263.299987792969</ele>
			<time>2014-01-02T13:19:43Z</time>
		</trkpt>
		<trkpt lat="39.5377388000488" lon="2.87918376922607">
			<ele>263.799987792969</ele>
			<time>2014-01-02T13:19:44Z</time>
		</trkpt>
		<trkpt lat="39.537784576416" lon="2.87921977043152">
			<ele>263.700012207031</ele>
			<time>2014-01-02T13:19:45Z</time>
		</trkpt>
		<trkpt lat="39.5378532409668" lon="2.87929272651672">
			<ele>264.299987792969</ele>
			<time>2014-01-02T13:19:47Z</time>
		</trkpt>
		<trkpt lat="39.5378875732422" lon="2.87933325767517">
			<ele>263.899993896484</ele>
			<time>2014-01-02T13:19:48Z</time>
		</trkpt>
		<trkpt lat="39.5379219055176" lon="2.87937474250793">
			<ele>264.200012207031</ele>
			<time>2014-01-02T13:19:49Z</time>
		</trkpt>
		<trkpt lat="39.5379829406738" lon="2.87944650650024">
			<ele>264</ele>
			<time>2014-01-02T13:19:51Z</time>
		</trkpt>
		<trkpt lat="39.5380096435547" lon="2.87949872016907">
			<ele>264.399993896484</ele>
			<time>2014-01-02T13:19:52Z</time>
		</trkpt>
		<trkpt lat="39.5380439758301" lon="2.87954306602478">
			<ele>264.700012207031</ele>
			<time>2014-01-02T13:19:53Z</time>
		</trkpt>
		<trkpt lat="39.5380744934082" lon="2.87959837913513">
			<ele>264.600006103516</ele>
			<time>2014-01-02T13:19:54Z</time>
		</trkpt>
		<trkpt lat="39.5380973815918" lon="2.87965512275696">
			<ele>264.299987792969</ele>
			<time>2014-01-02T13:19:55Z</time>
		</trkpt>
		<trkpt lat="39.5381317138672" lon="2.8797128200531">
			<ele>264.200012207031</ele>
			<time>2014-01-02T13:19:56Z</time>
		</trkpt>
		<trkpt lat="39.5381698608398" lon="2.87976837158203">
			<ele>264.200012207031</ele>
			<time>2014-01-02T13:19:57Z</time>
		</trkpt>
		<trkpt lat="39.5382118225098" lon="2.87982225418091">
			<ele>263.600006103516</ele>
			<time>2014-01-02T13:19:58Z</time>
		</trkpt>
		<trkpt lat="39.5382499694824" lon="2.87987899780273">
			<ele>262.600006103516</ele>
			<time>2014-01-02T13:19:59Z</time>
		</trkpt>
		<trkpt lat="39.5382995605469" lon="2.87993240356445">
			<ele>262</ele>
			<time>2014-01-02T13:20:00Z</time>
		</trkpt>
		<trkpt lat="39.5383491516113" lon="2.87998414039612">
			<ele>261.700012207031</ele>
			<time>2014-01-02T13:20:01Z</time>
		</trkpt>
		<trkpt lat="39.5383987426758" lon="2.88003754615784">
			<ele>261.799987792969</ele>
			<time>2014-01-02T13:20:02Z</time>
		</trkpt>
		<trkpt lat="39.5384483337402" lon="2.88008952140808">
			<ele>261.799987792969</ele>
			<time>2014-01-02T13:20:03Z</time>
		</trkpt>
		<trkpt lat="39.5384979248047" lon="2.88014101982117">
			<ele>262</ele>
			<time>2014-01-02T13:20:04Z</time>
		</trkpt>
		<trkpt lat="39.5385475158691" lon="2.88018894195557">
			<ele>261.600006103516</ele>
			<time>2014-01-02T13:20:05Z</time>
		</trkpt>
		<trkpt lat="39.5385971069336" lon="2.88023090362549">
			<ele>261.399993896484</ele>
			<time>2014-01-02T13:20:06Z</time>
		</trkpt>
		<trkpt lat="39.5386428833008" lon="2.88028979301453">
			<ele>261.399993896484</ele>
			<time>2014-01-02T13:20:07Z</time>
		</trkpt>
		<trkpt lat="39.538688659668" lon="2.88034725189209">
			<ele>261.399993896484</ele>
			<time>2014-01-02T13:20:08Z</time>
		</trkpt>
		<trkpt lat="39.5387382507324" lon="2.88040733337402">
			<ele>260.799987792969</ele>
			<time>2014-01-02T13:20:09Z</time>
		</trkpt>
		<trkpt lat="39.5387878417969" lon="2.88046431541443">
			<ele>260.799987792969</ele>
			<time>2014-01-02T13:20:10Z</time>
		</trkpt>
		<trkpt lat="39.5388374328613" lon="2.8805251121521">
			<ele>260.600006103516</ele>
			<time>2014-01-02T13:20:11Z</time>
		</trkpt>
		<trkpt lat="39.538890838623" lon="2.88058257102966">
			<ele>260.700012207031</ele>
			<time>2014-01-02T13:20:12Z</time>
		</trkpt>
		<trkpt lat="39.5389442443848" lon="2.88063383102417">
			<ele>260.799987792969</ele>
			<time>2014-01-02T13:20:13Z</time>
		</trkpt>
		<trkpt lat="39.5389976501465" lon="2.88067960739136">
			<ele>260.299987792969</ele>
			<time>2014-01-02T13:20:14Z</time>
		</trkpt>
		<trkpt lat="39.5390510559082" lon="2.88072991371155">
			<ele>260.200012207031</ele>
			<time>2014-01-02T13:20:15Z</time>
		</trkpt>
		<trkpt lat="39.5391006469727" lon="2.88078498840332">
			<ele>259.700012207031</ele>
			<time>2014-01-02T13:20:16Z</time>
		</trkpt>
		<trkpt lat="39.5391540527344" lon="2.88083791732788">
			<ele>259.5</ele>
			<time>2014-01-02T13:20:17Z</time>
		</trkpt>
		<trkpt lat="39.5392074584961" lon="2.88089060783386">
			<ele>259.299987792969</ele>
			<time>2014-01-02T13:20:18Z</time>
		</trkpt>
		<trkpt lat="39.5392570495605" lon="2.88094568252563">
			<ele>259.100006103516</ele>
			<time>2014-01-02T13:20:19Z</time>
		</trkpt>
		<trkpt lat="39.5393104553223" lon="2.88100051879883">
			<ele>259</ele>
			<time>2014-01-02T13:20:20Z</time>
		</trkpt>
		<trkpt lat="39.539363861084" lon="2.88105034828186">
			<ele>258.899993896484</ele>
			<time>2014-01-02T13:20:21Z</time>
		</trkpt>
		<trkpt lat="39.539421081543" lon="2.88109636306763">
			<ele>258.899993896484</ele>
			<time>2014-01-02T13:20:22Z</time>
		</trkpt>
		<trkpt lat="39.5394821166992" lon="2.88112831115723">
			<ele>258.600006103516</ele>
			<time>2014-01-02T13:20:23Z</time>
		</trkpt>
		<trkpt lat="39.5395431518555" lon="2.88114809989929">
			<ele>258.700012207031</ele>
			<time>2014-01-02T13:20:24Z</time>
		</trkpt>
		<trkpt lat="39.5396041870117" lon="2.88115930557251">
			<ele>258.5</ele>
			<time>2014-01-02T13:20:25Z</time>
		</trkpt>
		<trkpt lat="39.539665222168" lon="2.88116526603699">
			<ele>258.5</ele>
			<time>2014-01-02T13:20:26Z</time>
		</trkpt>
		<trkpt lat="39.5397262573242" lon="2.88116645812988">
			<ele>258.299987792969</ele>
			<time>2014-01-02T13:20:27Z</time>
		</trkpt>
		<trkpt lat="39.5397834777832" lon="2.88116598129272">
			<ele>258.5</ele>
			<time>2014-01-02T13:20:28Z</time>
		</trkpt>
		<trkpt lat="39.5398445129395" lon="2.8811616897583">
			<ele>258.700012207031</ele>
			<time>2014-01-02T13:20:29Z</time>
		</trkpt>
		<trkpt lat="39.5399017333984" lon="2.88116264343262">
			<ele>258.799987792969</ele>
			<time>2014-01-02T13:20:30Z</time>
		</trkpt>
		<trkpt lat="39.5399551391602" lon="2.88116502761841">
			<ele>258.899993896484</ele>
			<time>2014-01-02T13:20:31Z</time>
		</trkpt>
		<trkpt lat="39.5400085449219" lon="2.88116908073425">
			<ele>258.700012207031</ele>
			<time>2014-01-02T13:20:32Z</time>
		</trkpt>
		<trkpt lat="39.540096282959" lon="2.8811252117157">
			<ele>258.799987792969</ele>
			<time>2014-01-02T13:20:35Z</time>
		</trkpt>
		<trkpt lat="39.5400619506836" lon="2.88106489181519">
			<ele>258.600006103516</ele>
			<time>2014-01-02T13:20:36Z</time>
		</trkpt>
		<trkpt lat="39.5401077270508" lon="2.88098788261414">
			<ele>258.100006103516</ele>
			<time>2014-01-02T13:20:38Z</time>
		</trkpt>
		<trkpt lat="39.540168762207" lon="2.88092041015625">
			<ele>257.899993896484</ele>
			<time>2014-01-02T13:20:40Z</time>
		</trkpt>
		<trkpt lat="39.5402297973633" lon="2.88085699081421">
			<ele>257.600006103516</ele>
			<time>2014-01-02T13:20:42Z</time>
		</trkpt>
		<trkpt lat="39.5402908325195" lon="2.8807897567749">
			<ele>257.200012207031</ele>
			<time>2014-01-02T13:20:44Z</time>
		</trkpt>
		<trkpt lat="39.5403633117676" lon="2.88073086738586">
			<ele>257.100006103516</ele>
			<time>2014-01-02T13:20:46Z</time>
		</trkpt>
		<trkpt lat="39.5404396057129" lon="2.88066792488098">
			<ele>256.899993896484</ele>
			<time>2014-01-02T13:20:48Z</time>
		</trkpt>
		<trkpt lat="39.5404815673828" lon="2.88063478469849">
			<ele>256.899993896484</ele>
			<time>2014-01-02T13:20:49Z</time>
		</trkpt>
		<trkpt lat="39.5405197143555" lon="2.88060259819031">
			<ele>257.200012207031</ele>
			<time>2014-01-02T13:20:50Z</time>
		</trkpt>
		<trkpt lat="39.5405578613281" lon="2.88056421279907">
			<ele>257.299987792969</ele>
			<time>2014-01-02T13:20:51Z</time>
		</trkpt>
		<trkpt lat="39.5406036376953" lon="2.88053011894226">
			<ele>257.100006103516</ele>
			<time>2014-01-02T13:20:52Z</time>
		</trkpt>
		<trkpt lat="39.540641784668" lon="2.88049936294556">
			<ele>256.899993896484</ele>
			<time>2014-01-02T13:20:53Z</time>
		</trkpt>
		<trkpt lat="39.5406875610352" lon="2.88046431541443">
			<ele>257</ele>
			<time>2014-01-02T13:20:54Z</time>
		</trkpt>
		<trkpt lat="39.5407295227051" lon="2.88043785095215">
			<ele>257</ele>
			<time>2014-01-02T13:20:55Z</time>
		</trkpt>
		<trkpt lat="39.5407752990723" lon="2.88040590286255">
			<ele>256.700012207031</ele>
			<time>2014-01-02T13:20:56Z</time>
		</trkpt>
		<trkpt lat="39.5408134460449" lon="2.88037467002869">
			<ele>256.600006103516</ele>
			<time>2014-01-02T13:20:57Z</time>
		</trkpt>
		<trkpt lat="39.5408515930176" lon="2.88034057617188">
			<ele>256.700012207031</ele>
			<time>2014-01-02T13:20:58Z</time>
		</trkpt>
		<trkpt lat="39.5408935546875" lon="2.88030743598938">
			<ele>256.600006103516</ele>
			<time>2014-01-02T13:20:59Z</time>
		</trkpt>
		<trkpt lat="39.5409317016602" lon="2.88027477264404">
			<ele>256.600006103516</ele>
			<time>2014-01-02T13:21:00Z</time>
		</trkpt>
		<trkpt lat="39.5409698486328" lon="2.88024353981018">
			<ele>256.5</ele>
			<time>2014-01-02T13:21:01Z</time>
		</trkpt>
		<trkpt lat="39.5410118103027" lon="2.88021326065063">
			<ele>256.700012207031</ele>
			<time>2014-01-02T13:21:02Z</time>
		</trkpt>
		<trkpt lat="39.5410499572754" lon="2.88017988204956">
			<ele>256.799987792969</ele>
			<time>2014-01-02T13:21:03Z</time>
		</trkpt>
		<trkpt lat="39.5410919189453" lon="2.88014888763428">
			<ele>257.299987792969</ele>
			<time>2014-01-02T13:21:04Z</time>
		</trkpt>
		<trkpt lat="39.541130065918" lon="2.88011574745178">
			<ele>257.200012207031</ele>
			<time>2014-01-02T13:21:05Z</time>
		</trkpt>
		<trkpt lat="39.5411682128906" lon="2.88008308410645">
			<ele>257.5</ele>
			<time>2014-01-02T13:21:06Z</time>
		</trkpt>
		<trkpt lat="39.5412063598633" lon="2.88004493713379">
			<ele>257.700012207031</ele>
			<time>2014-01-02T13:21:07Z</time>
		</trkpt>
		<trkpt lat="39.5412445068359" lon="2.88001179695129">
			<ele>257.299987792969</ele>
			<time>2014-01-02T13:21:08Z</time>
		</trkpt>
		<trkpt lat="39.5412826538086" lon="2.87997579574585">
			<ele>257.200012207031</ele>
			<time>2014-01-02T13:21:09Z</time>
		</trkpt>
		<trkpt lat="39.5413208007813" lon="2.8799409866333">
			<ele>257.200012207031</ele>
			<time>2014-01-02T13:21:10Z</time>
		</trkpt>
		<trkpt lat="39.5413932800293" lon="2.87987160682678">
			<ele>257.700012207031</ele>
			<time>2014-01-02T13:21:12Z</time>
		</trkpt>
		<trkpt lat="39.5414581298828" lon="2.87980508804321">
			<ele>257.700012207031</ele>
			<time>2014-01-02T13:21:14Z</time>
		</trkpt>
		<trkpt lat="39.5414962768555" lon="2.87976884841919">
			<ele>257.600006103516</ele>
			<time>2014-01-02T13:21:15Z</time>
		</trkpt>
		<trkpt lat="39.5415344238281" lon="2.87972807884216">
			<ele>257.5</ele>
			<time>2014-01-02T13:21:16Z</time>
		</trkpt>
		<trkpt lat="39.5415687561035" lon="2.87968301773071">
			<ele>257.399993896484</ele>
			<time>2014-01-02T13:21:17Z</time>
		</trkpt>
		<trkpt lat="39.5416069030762" lon="2.879638671875">
			<ele>257.299987792969</ele>
			<time>2014-01-02T13:21:18Z</time>
		</trkpt>
		<trkpt lat="39.5416412353516" lon="2.87959599494934">
			<ele>257.200012207031</ele>
			<time>2014-01-02T13:21:19Z</time>
		</trkpt>
		<trkpt lat="39.541675567627" lon="2.87955021858215">
			<ele>257.299987792969</ele>
			<time>2014-01-02T13:21:20Z</time>
		</trkpt>
		<trkpt lat="39.5417098999023" lon="2.87950444221497">
			<ele>257.299987792969</ele>
			<time>2014-01-02T13:21:21Z</time>
		</trkpt>
		<trkpt lat="39.5417442321777" lon="2.87946152687073">
			<ele>257.299987792969</ele>
			<time>2014-01-02T13:21:22Z</time>
		</trkpt>
		<trkpt lat="39.5417785644531" lon="2.87941837310791">
			<ele>257.600006103516</ele>
			<time>2014-01-02T13:21:23Z</time>
		</trkpt>
		<trkpt lat="39.5418434143066" lon="2.87933373451233">
			<ele>257.399993896484</ele>
			<time>2014-01-02T13:21:25Z</time>
		</trkpt>
		<trkpt lat="39.541877746582" lon="2.87929177284241">
			<ele>257.299987792969</ele>
			<time>2014-01-02T13:21:26Z</time>
		</trkpt>
		<trkpt lat="39.5419387817383" lon="2.87920999526978">
			<ele>257.299987792969</ele>
			<time>2014-01-02T13:21:28Z</time>
		</trkpt>
		<trkpt lat="39.5419731140137" lon="2.87916970252991">
			<ele>257.700012207031</ele>
			<time>2014-01-02T13:21:29Z</time>
		</trkpt>
		<trkpt lat="39.5420341491699" lon="2.87909960746765">
			<ele>257.899993896484</ele>
			<time>2014-01-02T13:21:31Z</time>
		</trkpt>
		<trkpt lat="39.5420989990234" lon="2.87904405593872">
			<ele>258.200012207031</ele>
			<time>2014-01-02T13:21:33Z</time>
		</trkpt>
		<trkpt lat="39.5421714782715" lon="2.87899589538574">
			<ele>258.100006103516</ele>
			<time>2014-01-02T13:21:35Z</time>
		</trkpt>
		<trkpt lat="39.5422439575195" lon="2.87895846366882">
			<ele>258.5</ele>
			<time>2014-01-02T13:21:37Z</time>
		</trkpt>
		<trkpt lat="39.5423126220703" lon="2.87893676757813">
			<ele>258.600006103516</ele>
			<time>2014-01-02T13:21:39Z</time>
		</trkpt>
		<trkpt lat="39.5423774719238" lon="2.87892866134644">
			<ele>258.600006103516</ele>
			<time>2014-01-02T13:21:41Z</time>
		</trkpt>
		<trkpt lat="39.5424423217773" lon="2.87891530990601">
			<ele>258.899993896484</ele>
			<time>2014-01-02T13:21:43Z</time>
		</trkpt>
		<trkpt lat="39.5425109863281" lon="2.87890291213989">
			<ele>258.899993896484</ele>
			<time>2014-01-02T13:21:45Z</time>
		</trkpt>
		<trkpt lat="39.5425758361816" lon="2.87888479232788">
			<ele>258.700012207031</ele>
			<time>2014-01-02T13:21:47Z</time>
		</trkpt>
		<trkpt lat="39.5426406860352" lon="2.87886238098145">
			<ele>258.700012207031</ele>
			<time>2014-01-02T13:21:49Z</time>
		</trkpt>
		<trkpt lat="39.5427093505859" lon="2.87883543968201">
			<ele>258.899993896484</ele>
			<time>2014-01-02T13:21:51Z</time>
		</trkpt>
		<trkpt lat="39.5427780151367" lon="2.87881135940552">
			<ele>258.899993896484</ele>
			<time>2014-01-02T13:21:53Z</time>
		</trkpt>
		<trkpt lat="39.5428466796875" lon="2.87878680229187">
			<ele>258.600006103516</ele>
			<time>2014-01-02T13:21:55Z</time>
		</trkpt>
		<trkpt lat="39.5429191589355" lon="2.87876081466675">
			<ele>258.600006103516</ele>
			<time>2014-01-02T13:21:57Z</time>
		</trkpt>
		<trkpt lat="39.5429954528809" lon="2.87874245643616">
			<ele>258.299987792969</ele>
			<time>2014-01-02T13:21:59Z</time>
		</trkpt>
		<trkpt lat="39.5430755615234" lon="2.87871980667114">
			<ele>258.5</ele>
			<time>2014-01-02T13:22:01Z</time>
		</trkpt>
		<trkpt lat="39.5431632995605" lon="2.8787100315094">
			<ele>258.399993896484</ele>
			<time>2014-01-02T13:22:03Z</time>
		</trkpt>
		<trkpt lat="39.5432510375977" lon="2.87870144844055">
			<ele>258.299987792969</ele>
			<time>2014-01-02T13:22:05Z</time>
		</trkpt>
		<trkpt lat="39.5433387756348" lon="2.87869501113892">
			<ele>258.100006103516</ele>
			<time>2014-01-02T13:22:07Z</time>
		</trkpt>
		<trkpt lat="39.5434265136719" lon="2.87868785858154">
			<ele>258.399993896484</ele>
			<time>2014-01-02T13:22:09Z</time>
		</trkpt>
		<trkpt lat="39.5434722900391" lon="2.87868452072144">
			<ele>258.299987792969</ele>
			<time>2014-01-02T13:22:10Z</time>
		</trkpt>
		<trkpt lat="39.5435180664063" lon="2.87868762016296">
			<ele>258.399993896484</ele>
			<time>2014-01-02T13:22:11Z</time>
		</trkpt>
		<trkpt lat="39.5435638427734" lon="2.8786883354187">
			<ele>258.399993896484</ele>
			<time>2014-01-02T13:22:12Z</time>
		</trkpt>
		<trkpt lat="39.5436134338379" lon="2.87868666648865">
			<ele>258.399993896484</ele>
			<time>2014-01-02T13:22:13Z</time>
		</trkpt>
		<trkpt lat="39.5436592102051" lon="2.87868285179138">
			<ele>258.399993896484</ele>
			<time>2014-01-02T13:22:14Z</time>
		</trkpt>
		<trkpt lat="39.543701171875" lon="2.87867856025696">
			<ele>258.299987792969</ele>
			<time>2014-01-02T13:22:15Z</time>
		</trkpt>
		<trkpt lat="39.5437889099121" lon="2.878666639328">
			<ele>258.299987792969</ele>
			<time>2014-01-02T13:22:17Z</time>
		</trkpt>
		<trkpt lat="39.5438804626465" lon="2.87865400314331">
			<ele>258.299987792969</ele>
			<time>2014-01-02T13:22:19Z</time>
		</trkpt>
		<trkpt lat="39.5439643859863" lon="2.87863993644714">
			<ele>258.700012207031</ele>
			<time>2014-01-02T13:22:21Z</time>
		</trkpt>
		<trkpt lat="39.5440483093262" lon="2.87862348556519">
			<ele>258.600006103516</ele>
			<time>2014-01-02T13:22:23Z</time>
		</trkpt>
		<trkpt lat="39.544132232666" lon="2.87860488891602">
			<ele>258.299987792969</ele>
			<time>2014-01-02T13:22:25Z</time>
		</trkpt>
		<trkpt lat="39.5442123413086" lon="2.87858724594116">
			<ele>258.600006103516</ele>
			<time>2014-01-02T13:22:27Z</time>
		</trkpt>
		<trkpt lat="39.5442962646484" lon="2.87857413291931">
			<ele>258.700012207031</ele>
			<time>2014-01-02T13:22:29Z</time>
		</trkpt>
		<trkpt lat="39.5443801879883" lon="2.87856078147888">
			<ele>258.799987792969</ele>
			<time>2014-01-02T13:22:31Z</time>
		</trkpt>
		<trkpt lat="39.5444564819336" lon="2.87853765487671">
			<ele>258.700012207031</ele>
			<time>2014-01-02T13:22:33Z</time>
		</trkpt>
		<trkpt lat="39.5445289611816" lon="2.87852311134338">
			<ele>258.700012207031</ele>
			<time>2014-01-02T13:22:35Z</time>
		</trkpt>
		<trkpt lat="39.5446014404297" lon="2.87850856781006">
			<ele>258.899993896484</ele>
			<time>2014-01-02T13:22:37Z</time>
		</trkpt>
		<trkpt lat="39.544677734375" lon="2.87848973274231">
			<ele>258.700012207031</ele>
			<time>2014-01-02T13:22:39Z</time>
		</trkpt>
		<trkpt lat="39.5447540283203" lon="2.87847113609314">
			<ele>258.899993896484</ele>
			<time>2014-01-02T13:22:41Z</time>
		</trkpt>
		<trkpt lat="39.5448303222656" lon="2.87845182418823">
			<ele>258.899993896484</ele>
			<time>2014-01-02T13:22:43Z</time>
		</trkpt>
		<trkpt lat="39.5449028015137" lon="2.87843108177185">
			<ele>258.899993896484</ele>
			<time>2014-01-02T13:22:45Z</time>
		</trkpt>
		<trkpt lat="39.5449752807617" lon="2.878422498703">
			<ele>258.200012207031</ele>
			<time>2014-01-02T13:22:48Z</time>
		</trkpt>
		<trkpt lat="39.5450401306152" lon="2.87840723991394">
			<ele>258.200012207031</ele>
			<time>2014-01-02T13:22:50Z</time>
		</trkpt>
		<trkpt lat="39.5451049804688" lon="2.87839126586914">
			<ele>258.299987792969</ele>
			<time>2014-01-02T13:22:52Z</time>
		</trkpt>
		<trkpt lat="39.5451736450195" lon="2.87837529182434">
			<ele>258.700012207031</ele>
			<time>2014-01-02T13:22:53Z</time>
		</trkpt>
		<trkpt lat="39.5452423095703" lon="2.87836122512817">
			<ele>258.799987792969</ele>
			<time>2014-01-02T13:22:55Z</time>
		</trkpt>
		<trkpt lat="39.5453109741211" lon="2.87834453582764">
			<ele>259</ele>
			<time>2014-01-02T13:22:57Z</time>
		</trkpt>
		<trkpt lat="39.5453796386719" lon="2.87832641601563">
			<ele>259.899993896484</ele>
			<time>2014-01-02T13:22:59Z</time>
		</trkpt>
		<trkpt lat="39.545482635498" lon="2.87830662727356">
			<ele>260.5</ele>
			<time>2014-01-02T13:23:05Z</time>
		</trkpt>
		<trkpt lat="39.5455856323242" lon="2.87827849388123">
			<ele>261.799987792969</ele>
			<time>2014-01-02T13:23:10Z</time>
		</trkpt>
		<trkpt lat="39.5456886291504" lon="2.87825870513916">
			<ele>262.100006103516</ele>
			<time>2014-01-02T13:23:11Z</time>
		</trkpt>
		<trkpt lat="39.5457496643066" lon="2.87824845314026">
			<ele>262.600006103516</ele>
			<time>2014-01-02T13:23:13Z</time>
		</trkpt>
		<trkpt lat="39.5458030700684" lon="2.87824177742004">
			<ele>262.799987792969</ele>
			<time>2014-01-02T13:23:15Z</time>
		</trkpt>
		<trkpt lat="39.5458526611328" lon="2.87823057174683">
			<ele>263.200012207031</ele>
			<time>2014-01-02T13:23:17Z</time>
		</trkpt>
		<trkpt lat="39.5459136962891" lon="2.87822413444519">
			<ele>263.899993896484</ele>
			<time>2014-01-02T13:23:20Z</time>
		</trkpt>
		<trkpt lat="39.5459594726563" lon="2.87822246551514">
			<ele>263.899993896484</ele>
			<time>2014-01-02T13:23:22Z</time>
		</trkpt>
		<trkpt lat="39.5460205078125" lon="2.87822842597961">
			<ele>264.700012207031</ele>
			<time>2014-01-02T13:23:25Z</time>
		</trkpt>
		<trkpt lat="39.5460777282715" lon="2.8782434463501">
			<ele>265</ele>
			<time>2014-01-02T13:23:28Z</time>
		</trkpt>
		<trkpt lat="39.546142578125" lon="2.87826013565063">
			<ele>265.299987792969</ele>
			<time>2014-01-02T13:23:31Z</time>
		</trkpt>
		<trkpt lat="39.5462074279785" lon="2.8782947063446">
			<ele>265.399993896484</ele>
			<time>2014-01-02T13:23:34Z</time>
		</trkpt>
		<trkpt lat="39.5462493896484" lon="2.87832522392273">
			<ele>265.299987792969</ele>
			<time>2014-01-02T13:23:36Z</time>
		</trkpt>
		<trkpt lat="39.5462989807129" lon="2.8783655166626">
			<ele>265</ele>
			<time>2014-01-02T13:23:38Z</time>
		</trkpt>
		<trkpt lat="39.5463600158691" lon="2.87841773033142">
			<ele>264.600006103516</ele>
			<time>2014-01-02T13:23:40Z</time>
		</trkpt>
		<trkpt lat="39.5464286804199" lon="2.87847566604614">
			<ele>264.399993896484</ele>
			<time>2014-01-02T13:23:41Z</time>
		</trkpt>
		<trkpt lat="39.5464630126953" lon="2.87850999832153">
			<ele>264.299987792969</ele>
			<time>2014-01-02T13:23:42Z</time>
		</trkpt>
		<trkpt lat="39.546501159668" lon="2.87855052947998">
			<ele>264.200012207031</ele>
			<time>2014-01-02T13:23:43Z</time>
		</trkpt>
		<trkpt lat="39.5465354919434" lon="2.87859129905701">
			<ele>264.299987792969</ele>
			<time>2014-01-02T13:23:44Z</time>
		</trkpt>
		<trkpt lat="39.5465698242188" lon="2.87863802909851">
			<ele>264.700012207031</ele>
			<time>2014-01-02T13:23:45Z</time>
		</trkpt>
		<trkpt lat="39.5466194152832" lon="2.87867498397827">
			<ele>263.5</ele>
			<time>2014-01-02T13:23:46Z</time>
		</trkpt>
		<trkpt lat="39.5466651916504" lon="2.87871336936951">
			<ele>263.200012207031</ele>
			<time>2014-01-02T13:23:47Z</time>
		</trkpt>
		<trkpt lat="39.546703338623" lon="2.87875723838806">
			<ele>263.5</ele>
			<time>2014-01-02T13:23:48Z</time>
		</trkpt>
		<trkpt lat="39.546745300293" lon="2.87879490852356">
			<ele>263.5</ele>
			<time>2014-01-02T13:23:49Z</time>
		</trkpt>
		<trkpt lat="39.5467872619629" lon="2.87883400917053">
			<ele>263.200012207031</ele>
			<time>2014-01-02T13:23:50Z</time>
		</trkpt>
		<trkpt lat="39.5468292236328" lon="2.87886667251587">
			<ele>263.200012207031</ele>
			<time>2014-01-02T13:23:51Z</time>
		</trkpt>
		<trkpt lat="39.5468673706055" lon="2.87889957427979">
			<ele>263.299987792969</ele>
			<time>2014-01-02T13:23:52Z</time>
		</trkpt>
		<trkpt lat="39.546947479248" lon="2.87895131111145">
			<ele>262.700012207031</ele>
			<time>2014-01-02T13:23:54Z</time>
		</trkpt>
		<trkpt lat="39.5470161437988" lon="2.87898445129395">
			<ele>262.5</ele>
			<time>2014-01-02T13:23:56Z</time>
		</trkpt>
		<trkpt lat="39.5470924377441" lon="2.87901163101196">
			<ele>261.899993896484</ele>
			<time>2014-01-02T13:23:58Z</time>
		</trkpt>
		<trkpt lat="39.547176361084" lon="2.87904381752014">
			<ele>261.799987792969</ele>
			<time>2014-01-02T13:24:00Z</time>
		</trkpt>
		<trkpt lat="39.5472183227539" lon="2.87906360626221">
			<ele>262</ele>
			<time>2014-01-02T13:24:01Z</time>
		</trkpt>
		<trkpt lat="39.5472984313965" lon="2.8791139125824">
			<ele>261.600006103516</ele>
			<time>2014-01-02T13:24:03Z</time>
		</trkpt>
		<trkpt lat="39.5473403930664" lon="2.87914323806763">
			<ele>261.5</ele>
			<time>2014-01-02T13:24:04Z</time>
		</trkpt>
		<trkpt lat="39.5473823547363" lon="2.87916898727417">
			<ele>261.299987792969</ele>
			<time>2014-01-02T13:24:05Z</time>
		</trkpt>
		<trkpt lat="39.5474243164063" lon="2.87919473648071">
			<ele>261.100006103516</ele>
			<time>2014-01-02T13:24:06Z</time>
		</trkpt>
		<trkpt lat="39.5475044250488" lon="2.87925410270691">
			<ele>261.100006103516</ele>
			<time>2014-01-02T13:24:08Z</time>
		</trkpt>
		<trkpt lat="39.5475540161133" lon="2.87927460670471">
			<ele>261</ele>
			<time>2014-01-02T13:24:09Z</time>
		</trkpt>
		<trkpt lat="39.5476036071777" lon="2.87929153442383">
			<ele>260.899993896484</ele>
			<time>2014-01-02T13:24:10Z</time>
		</trkpt>
		<trkpt lat="39.5476722717285" lon="2.87932777404785">
			<ele>259.899993896484</ele>
			<time>2014-01-02T13:24:11Z</time>
		</trkpt>
		<trkpt lat="39.547737121582" lon="2.87935662269592">
			<ele>259.700012207031</ele>
			<time>2014-01-02T13:24:12Z</time>
		</trkpt>
		<trkpt lat="39.5478019714355" lon="2.87939238548279">
			<ele>258.200012207031</ele>
			<time>2014-01-02T13:24:13Z</time>
		</trkpt>
		<trkpt lat="39.5478553771973" lon="2.87944197654724">
			<ele>257.5</ele>
			<time>2014-01-02T13:24:14Z</time>
		</trkpt>
		<trkpt lat="39.5479049682617" lon="2.87949466705322">
			<ele>257</ele>
			<time>2014-01-02T13:24:15Z</time>
		</trkpt>
		<trkpt lat="39.5479583740234" lon="2.87954783439636">
			<ele>256.899993896484</ele>
			<time>2014-01-02T13:24:16Z</time>
		</trkpt>
		<trkpt lat="39.5480155944824" lon="2.87960433959961">
			<ele>256.799987792969</ele>
			<time>2014-01-02T13:24:17Z</time>
		</trkpt>
		<trkpt lat="39.5480918884277" lon="2.8796660900116">
			<ele>256.299987792969</ele>
			<time>2014-01-02T13:24:18Z</time>
		</trkpt>
		<trkpt lat="39.548152923584" lon="2.87971520423889">
			<ele>255.899993896484</ele>
			<time>2014-01-02T13:24:19Z</time>
		</trkpt>
		<trkpt lat="39.5482177734375" lon="2.8797550201416">
			<ele>255.699996948242</ele>
			<time>2014-01-02T13:24:20Z</time>
		</trkpt>
		<trkpt lat="39.5482788085938" lon="2.8797664642334">
			<ele>256.200012207031</ele>
			<time>2014-01-02T13:24:21Z</time>
		</trkpt>
		<trkpt lat="39.5483551025391" lon="2.87975287437439">
			<ele>256.200012207031</ele>
			<time>2014-01-02T13:24:22Z</time>
		</trkpt>
		<trkpt lat="39.5484390258789" lon="2.87971758842468">
			<ele>254.5</ele>
			<time>2014-01-02T13:24:23Z</time>
		</trkpt>
		<trkpt lat="39.5485153198242" lon="2.87970876693726">
			<ele>254.399993896484</ele>
			<time>2014-01-02T13:24:24Z</time>
		</trkpt>
		<trkpt lat="39.5485954284668" lon="2.87968850135803">
			<ele>254.199996948242</ele>
			<time>2014-01-02T13:24:25Z</time>
		</trkpt>
		<trkpt lat="39.5486640930176" lon="2.87966513633728">
			<ele>253.800003051758</ele>
			<time>2014-01-02T13:24:26Z</time>
		</trkpt>
		<trkpt lat="39.5487327575684" lon="2.87964177131653">
			<ele>253.899993896484</ele>
			<time>2014-01-02T13:24:27Z</time>
		</trkpt>
		<trkpt lat="39.5488014221191" lon="2.87961602210999">
			<ele>254</ele>
			<time>2014-01-02T13:24:28Z</time>
		</trkpt>
		<trkpt lat="39.5488662719727" lon="2.87959122657776">
			<ele>254.5</ele>
			<time>2014-01-02T13:24:29Z</time>
		</trkpt>
		<trkpt lat="39.5489273071289" lon="2.87957406044006">
			<ele>254.399993896484</ele>
			<time>2014-01-02T13:24:30Z</time>
		</trkpt>
		<trkpt lat="39.5489845275879" lon="2.87955689430237">
			<ele>254.899993896484</ele>
			<time>2014-01-02T13:24:31Z</time>
		</trkpt>
		<trkpt lat="39.5490341186523" lon="2.87954354286194">
			<ele>255</ele>
			<time>2014-01-02T13:24:32Z</time>
		</trkpt>
		<trkpt lat="39.5490875244141" lon="2.87952899932861">
			<ele>255</ele>
			<time>2014-01-02T13:24:33Z</time>
		</trkpt>
		<trkpt lat="39.5491333007813" lon="2.87951278686523">
			<ele>255.300003051758</ele>
			<time>2014-01-02T13:24:34Z</time>
		</trkpt>
		<trkpt lat="39.5491790771484" lon="2.8794960975647">
			<ele>255.399993896484</ele>
			<time>2014-01-02T13:24:35Z</time>
		</trkpt>
		<trkpt lat="39.5492286682129" lon="2.87947916984558">
			<ele>255.600006103516</ele>
			<time>2014-01-02T13:24:36Z</time>
		</trkpt>
		<trkpt lat="39.5492782592773" lon="2.87945890426636">
			<ele>255.899993896484</ele>
			<time>2014-01-02T13:24:37Z</time>
		</trkpt>
		<trkpt lat="39.5493240356445" lon="2.87944531440735">
			<ele>255.800003051758</ele>
			<time>2014-01-02T13:24:38Z</time>
		</trkpt>
		<trkpt lat="39.549373626709" lon="2.8794310092926">
			<ele>255.699996948242</ele>
			<time>2014-01-02T13:24:39Z</time>
		</trkpt>
		<trkpt lat="39.5494575500488" lon="2.87938547134399">
			<ele>254.699996948242</ele>
			<time>2014-01-02T13:24:41Z</time>
		</trkpt>
		<trkpt lat="39.5494995117188" lon="2.87935304641724">
			<ele>254</ele>
			<time>2014-01-02T13:24:42Z</time>
		</trkpt>
		<trkpt lat="39.5495414733887" lon="2.87931537628174">
			<ele>253.5</ele>
			<time>2014-01-02T13:24:43Z</time>
		</trkpt>
		<trkpt lat="39.5495872497559" lon="2.87927174568176">
			<ele>253.600006103516</ele>
			<time>2014-01-02T13:24:44Z</time>
		</trkpt>
		<trkpt lat="39.5496406555176" lon="2.87923049926758">
			<ele>253.699996948242</ele>
			<time>2014-01-02T13:24:45Z</time>
		</trkpt>
		<trkpt lat="39.5496940612793" lon="2.87919974327087">
			<ele>253.199996948242</ele>
			<time>2014-01-02T13:24:46Z</time>
		</trkpt>
		<trkpt lat="39.5497589111328" lon="2.87917256355286">
			<ele>252.5</ele>
			<time>2014-01-02T13:24:47Z</time>
		</trkpt>
		<trkpt lat="39.5498199462891" lon="2.87914848327637">
			<ele>252</ele>
			<time>2014-01-02T13:24:48Z</time>
		</trkpt>
		<trkpt lat="39.5498886108398" lon="2.87912178039551">
			<ele>251.800003051758</ele>
			<time>2014-01-02T13:24:49Z</time>
		</trkpt>
		<trkpt lat="39.5499496459961" lon="2.87908840179443">
			<ele>251.300003051758</ele>
			<time>2014-01-02T13:24:50Z</time>
		</trkpt>
		<trkpt lat="39.5500183105469" lon="2.87905979156494">
			<ele>250.699996948242</ele>
			<time>2014-01-02T13:24:51Z</time>
		</trkpt>
		<trkpt lat="39.5500869750977" lon="2.87903213500977">
			<ele>250.300003051758</ele>
			<time>2014-01-02T13:24:52Z</time>
		</trkpt>
		<trkpt lat="39.5501594543457" lon="2.87900543212891">
			<ele>250</ele>
			<time>2014-01-02T13:24:53Z</time>
		</trkpt>
		<trkpt lat="39.5502319335938" lon="2.87897729873657">
			<ele>249.5</ele>
			<time>2014-01-02T13:24:54Z</time>
		</trkpt>
		<trkpt lat="39.5503082275391" lon="2.87894916534424">
			<ele>249.300003051758</ele>
			<time>2014-01-02T13:24:55Z</time>
		</trkpt>
		<trkpt lat="39.5503845214844" lon="2.87891960144043">
			<ele>249.100006103516</ele>
			<time>2014-01-02T13:24:56Z</time>
		</trkpt>
		<trkpt lat="39.5504531860352" lon="2.87888717651367">
			<ele>249.100006103516</ele>
			<time>2014-01-02T13:24:57Z</time>
		</trkpt>
		<trkpt lat="39.5505256652832" lon="2.8788595199585">
			<ele>248.899993896484</ele>
			<time>2014-01-02T13:24:58Z</time>
		</trkpt>
		<trkpt lat="39.5505981445313" lon="2.87883591651917">
			<ele>248.199996948242</ele>
			<time>2014-01-02T13:24:59Z</time>
		</trkpt>
		<trkpt lat="39.550666809082" lon="2.87880897521973">
			<ele>248.199996948242</ele>
			<time>2014-01-02T13:25:00Z</time>
		</trkpt>
		<trkpt lat="39.5507354736328" lon="2.87877821922302">
			<ele>247.699996948242</ele>
			<time>2014-01-02T13:25:01Z</time>
		</trkpt>
		<trkpt lat="39.5508041381836" lon="2.878751039505">
			<ele>247.5</ele>
			<time>2014-01-02T13:25:02Z</time>
		</trkpt>
		<trkpt lat="39.5508728027344" lon="2.87872767448425">
			<ele>247.399993896484</ele>
			<time>2014-01-02T13:25:03Z</time>
		</trkpt>
		<trkpt lat="39.5509338378906" lon="2.87870907783508">
			<ele>247.800003051758</ele>
			<time>2014-01-02T13:25:04Z</time>
		</trkpt>
		<trkpt lat="39.5509948730469" lon="2.87869048118591">
			<ele>247.600006103516</ele>
			<time>2014-01-02T13:25:05Z</time>
		</trkpt>
		<trkpt lat="39.5510520935059" lon="2.87867212295532">
			<ele>247.300003051758</ele>
			<time>2014-01-02T13:25:06Z</time>
		</trkpt>
		<trkpt lat="39.5511131286621" lon="2.87865781784058">
			<ele>247.100006103516</ele>
			<time>2014-01-02T13:25:07Z</time>
		</trkpt>
		<trkpt lat="39.5511741638184" lon="2.87864542007446">
			<ele>247</ele>
			<time>2014-01-02T13:25:08Z</time>
		</trkpt>
		<trkpt lat="39.5512313842773" lon="2.87863326072693">
			<ele>247.300003051758</ele>
			<time>2014-01-02T13:25:09Z</time>
		</trkpt>
		<trkpt lat="39.5512886047363" lon="2.87861800193787">
			<ele>247.300003051758</ele>
			<time>2014-01-02T13:25:10Z</time>
		</trkpt>
		<trkpt lat="39.5513458251953" lon="2.87860131263733">
			<ele>247.399993896484</ele>
			<time>2014-01-02T13:25:11Z</time>
		</trkpt>
		<trkpt lat="39.5514030456543" lon="2.87858080863953">
			<ele>247.399993896484</ele>
			<time>2014-01-02T13:25:12Z</time>
		</trkpt>
		<trkpt lat="39.551456451416" lon="2.87856340408325">
			<ele>247.5</ele>
			<time>2014-01-02T13:25:13Z</time>
		</trkpt>
		<trkpt lat="39.551513671875" lon="2.87855052947998">
			<ele>247.399993896484</ele>
			<time>2014-01-02T13:25:14Z</time>
		</trkpt>
		<trkpt lat="39.5515670776367" lon="2.87853503227234">
			<ele>247.5</ele>
			<time>2014-01-02T13:25:15Z</time>
		</trkpt>
		<trkpt lat="39.5516166687012" lon="2.87851667404175">
			<ele>247.399993896484</ele>
			<time>2014-01-02T13:25:16Z</time>
		</trkpt>
		<trkpt lat="39.5516700744629" lon="2.87849950790405">
			<ele>247.100006103516</ele>
			<time>2014-01-02T13:25:17Z</time>
		</trkpt>
		<trkpt lat="39.5517196655273" lon="2.87847900390625">
			<ele>247.100006103516</ele>
			<time>2014-01-02T13:25:18Z</time>
		</trkpt>
		<trkpt lat="39.5517730712891" lon="2.87846207618713">
			<ele>247.199996948242</ele>
			<time>2014-01-02T13:25:19Z</time>
		</trkpt>
		<trkpt lat="39.5518226623535" lon="2.87844800949097">
			<ele>247.399993896484</ele>
			<time>2014-01-02T13:25:20Z</time>
		</trkpt>
		<trkpt lat="39.5518760681152" lon="2.87843465805054">
			<ele>247.300003051758</ele>
			<time>2014-01-02T13:25:21Z</time>
		</trkpt>
		<trkpt lat="39.5519256591797" lon="2.87841939926147">
			<ele>247.199996948242</ele>
			<time>2014-01-02T13:25:22Z</time>
		</trkpt>
		<trkpt lat="39.5519828796387" lon="2.87840723991394">
			<ele>247.399993896484</ele>
			<time>2014-01-02T13:25:23Z</time>
		</trkpt>
		<trkpt lat="39.5520324707031" lon="2.87839722633362">
			<ele>247.600006103516</ele>
			<time>2014-01-02T13:25:24Z</time>
		</trkpt>
		<trkpt lat="39.5520820617676" lon="2.87839245796204">
			<ele>247.800003051758</ele>
			<time>2014-01-02T13:25:25Z</time>
		</trkpt>
		<trkpt lat="39.552131652832" lon="2.87839126586914">
			<ele>247.800003051758</ele>
			<time>2014-01-02T13:25:26Z</time>
		</trkpt>
		<trkpt lat="39.5521850585938" lon="2.87838959693909">
			<ele>247.699996948242</ele>
			<time>2014-01-02T13:25:27Z</time>
		</trkpt>
		<trkpt lat="39.5522346496582" lon="2.87838554382324">
			<ele>247.600006103516</ele>
			<time>2014-01-02T13:25:28Z</time>
		</trkpt>
		<trkpt lat="39.5522880554199" lon="2.87838315963745">
			<ele>247.699996948242</ele>
			<time>2014-01-02T13:25:29Z</time>
		</trkpt>
		<trkpt lat="39.5523376464844" lon="2.87838172912598">
			<ele>247.5</ele>
			<time>2014-01-02T13:25:30Z</time>
		</trkpt>
		<trkpt lat="39.5523834228516" lon="2.87837910652161">
			<ele>247.399993896484</ele>
			<time>2014-01-02T13:25:31Z</time>
		</trkpt>
		<trkpt lat="39.5524291992188" lon="2.87837433815002">
			<ele>247.300003051758</ele>
			<time>2014-01-02T13:25:32Z</time>
		</trkpt>
		<trkpt lat="39.5525169372559" lon="2.87837219238281">
			<ele>247.300003051758</ele>
			<time>2014-01-02T13:25:34Z</time>
		</trkpt>
		<trkpt lat="39.5525970458984" lon="2.87836623191833">
			<ele>247.300003051758</ele>
			<time>2014-01-02T13:25:36Z</time>
		</trkpt>
		<trkpt lat="39.5526733398438" lon="2.87836742401123">
			<ele>247.5</ele>
			<time>2014-01-02T13:25:38Z</time>
		</trkpt>
		<trkpt lat="39.5527496337891" lon="2.8783643245697">
			<ele>247.399993896484</ele>
			<time>2014-01-02T13:25:40Z</time>
		</trkpt>
		<trkpt lat="39.5528297424316" lon="2.87835645675659">
			<ele>247.600006103516</ele>
			<time>2014-01-02T13:25:42Z</time>
		</trkpt>
		<trkpt lat="39.5529136657715" lon="2.87834239006042">
			<ele>247.5</ele>
			<time>2014-01-02T13:25:44Z</time>
		</trkpt>
		<trkpt lat="39.5529975891113" lon="2.87832975387573">
			<ele>247.300003051758</ele>
			<time>2014-01-02T13:25:46Z</time>
		</trkpt>
		<trkpt lat="39.5530738830566" lon="2.87830948829651">
			<ele>247.399993896484</ele>
			<time>2014-01-02T13:25:48Z</time>
		</trkpt>
		<trkpt lat="39.5531578063965" lon="2.8782970905304">
			<ele>247.199996948242</ele>
			<time>2014-01-02T13:25:50Z</time>
		</trkpt>
		<trkpt lat="39.5532264709473" lon="2.87829446792603">
			<ele>247.199996948242</ele>
			<time>2014-01-02T13:25:52Z</time>
		</trkpt>
		<trkpt lat="39.5532760620117" lon="2.87829899787903">
			<ele>246.699996948242</ele>
			<time>2014-01-02T13:25:54Z</time>
		</trkpt>
		<trkpt lat="39.5533447265625" lon="2.8783106803894">
			<ele>245.600006103516</ele>
			<time>2014-01-02T13:25:57Z</time>
		</trkpt>
		<trkpt lat="39.553409576416" lon="2.87831735610962">
			<ele>245.300003051758</ele>
			<time>2014-01-02T13:25:59Z</time>
		</trkpt>
		<trkpt lat="39.5534896850586" lon="2.87833118438721">
			<ele>246</ele>
			<time>2014-01-02T13:26:01Z</time>
		</trkpt>
		<trkpt lat="39.5535736083984" lon="2.87834763526917">
			<ele>247</ele>
			<time>2014-01-02T13:26:03Z</time>
		</trkpt>
		<trkpt lat="39.5536193847656" lon="2.8783655166626">
			<ele>246.300003051758</ele>
			<time>2014-01-02T13:26:04Z</time>
		</trkpt>
		<trkpt lat="39.5536651611328" lon="2.87837433815002">
			<ele>246.300003051758</ele>
			<time>2014-01-02T13:26:05Z</time>
		</trkpt>
		<trkpt lat="39.5537109375" lon="2.87838339805603">
			<ele>246.199996948242</ele>
			<time>2014-01-02T13:26:07Z</time>
		</trkpt>
		<trkpt lat="39.5538063049316" lon="2.87840723991394">
			<ele>246.100006103516</ele>
			<time>2014-01-02T13:26:08Z</time>
		</trkpt>
		<trkpt lat="39.5538558959961" lon="2.87841439247131">
			<ele>245.899993896484</ele>
			<time>2014-01-02T13:26:09Z</time>
		</trkpt>
		<trkpt lat="39.5539054870605" lon="2.87842392921448">
			<ele>246</ele>
			<time>2014-01-02T13:26:10Z</time>
		</trkpt>
		<trkpt lat="39.553955078125" lon="2.87843084335327">
			<ele>246</ele>
			<time>2014-01-02T13:26:11Z</time>
		</trkpt>
		<trkpt lat="39.5540008544922" lon="2.87844800949097">
			<ele>245.699996948242</ele>
			<time>2014-01-02T13:26:12Z</time>
		</trkpt>
		<trkpt lat="39.5540542602539" lon="2.87846946716309">
			<ele>245.5</ele>
			<time>2014-01-02T13:26:13Z</time>
		</trkpt>
		<trkpt lat="39.5541000366211" lon="2.87847876548767">
			<ele>245.800003051758</ele>
			<time>2014-01-02T13:26:14Z</time>
		</trkpt>
		<trkpt lat="39.5541496276855" lon="2.87848901748657">
			<ele>246.100006103516</ele>
			<time>2014-01-02T13:26:15Z</time>
		</trkpt>
		<trkpt lat="39.55419921875" lon="2.87850165367126">
			<ele>245.899993896484</ele>
			<time>2014-01-02T13:26:16Z</time>
		</trkpt>
		<trkpt lat="39.5542526245117" lon="2.8785138130188">
			<ele>245.800003051758</ele>
			<time>2014-01-02T13:26:17Z</time>
		</trkpt>
		<trkpt lat="39.5543060302734" lon="2.87852954864502">
			<ele>245.800003051758</ele>
			<time>2014-01-02T13:26:18Z</time>
		</trkpt>
		<trkpt lat="39.5543556213379" lon="2.87854743003845">
			<ele>246.100006103516</ele>
			<time>2014-01-02T13:26:19Z</time>
		</trkpt>
		<trkpt lat="39.5543975830078" lon="2.87857413291931">
			<ele>246.300003051758</ele>
			<time>2014-01-02T13:26:20Z</time>
		</trkpt>
		<trkpt lat="39.5544509887695" lon="2.8785982131958">
			<ele>246.300003051758</ele>
			<time>2014-01-02T13:26:21Z</time>
		</trkpt>
		<trkpt lat="39.5544967651367" lon="2.87860870361328">
			<ele>246.600006103516</ele>
			<time>2014-01-02T13:26:22Z</time>
		</trkpt>
		<trkpt lat="39.5545501708984" lon="2.87862586975098">
			<ele>246.800003051758</ele>
			<time>2014-01-02T13:26:23Z</time>
		</trkpt>
		<trkpt lat="39.5545997619629" lon="2.87864589691162">
			<ele>247</ele>
			<time>2014-01-02T13:26:24Z</time>
		</trkpt>
		<trkpt lat="39.5546493530273" lon="2.878666639328">
			<ele>246.899993896484</ele>
			<time>2014-01-02T13:26:25Z</time>
		</trkpt>
		<trkpt lat="39.5546989440918" lon="2.87868547439575">
			<ele>246.5</ele>
			<time>2014-01-02T13:26:26Z</time>
		</trkpt>
		<trkpt lat="39.5547485351563" lon="2.87870478630066">
			<ele>246.300003051758</ele>
			<time>2014-01-02T13:26:27Z</time>
		</trkpt>
		<trkpt lat="39.554801940918" lon="2.87872958183289">
			<ele>246.199996948242</ele>
			<time>2014-01-02T13:26:28Z</time>
		</trkpt>
		<trkpt lat="39.5548553466797" lon="2.87874817848206">
			<ele>246.300003051758</ele>
			<time>2014-01-02T13:26:29Z</time>
		</trkpt>
		<trkpt lat="39.5549125671387" lon="2.87876749038696">
			<ele>245.899993896484</ele>
			<time>2014-01-02T13:26:30Z</time>
		</trkpt>
		<trkpt lat="39.5549659729004" lon="2.87879371643066">
			<ele>245.899993896484</ele>
			<time>2014-01-02T13:26:31Z</time>
		</trkpt>
		<trkpt lat="39.5550231933594" lon="2.87881278991699">
			<ele>245.899993896484</ele>
			<time>2014-01-02T13:26:32Z</time>
		</trkpt>
		<trkpt lat="39.5550804138184" lon="2.87882471084595">
			<ele>245.399993896484</ele>
			<time>2014-01-02T13:26:33Z</time>
		</trkpt>
		<trkpt lat="39.5551414489746" lon="2.87884640693665">
			<ele>245.100006103516</ele>
			<time>2014-01-02T13:26:34Z</time>
		</trkpt>
		<trkpt lat="39.5551986694336" lon="2.87886571884155">
			<ele>244.5</ele>
			<time>2014-01-02T13:26:35Z</time>
		</trkpt>
		<trkpt lat="39.5552597045898" lon="2.87888312339783">
			<ele>243.899993896484</ele>
			<time>2014-01-02T13:26:36Z</time>
		</trkpt>
		<trkpt lat="39.5553169250488" lon="2.8789005279541">
			<ele>244</ele>
			<time>2014-01-02T13:26:37Z</time>
		</trkpt>
		<trkpt lat="39.5553779602051" lon="2.87892317771912">
			<ele>243.899993896484</ele>
			<time>2014-01-02T13:26:38Z</time>
		</trkpt>
		<trkpt lat="39.5554389953613" lon="2.87894105911255">
			<ele>243.899993896484</ele>
			<time>2014-01-02T13:26:39Z</time>
		</trkpt>
		<trkpt lat="39.5555000305176" lon="2.8789529800415">
			<ele>244.199996948242</ele>
			<time>2014-01-02T13:26:40Z</time>
		</trkpt>
		<trkpt lat="39.5555572509766" lon="2.87896919250488">
			<ele>244.300003051758</ele>
			<time>2014-01-02T13:26:41Z</time>
		</trkpt>
		<trkpt lat="39.5556182861328" lon="2.87898373603821">
			<ele>243.899993896484</ele>
			<time>2014-01-02T13:26:42Z</time>
		</trkpt>
		<trkpt lat="39.5556716918945" lon="2.87899780273438">
			<ele>243.699996948242</ele>
			<time>2014-01-02T13:26:43Z</time>
		</trkpt>
		<trkpt lat="39.5557250976563" lon="2.87902283668518">
			<ele>243.300003051758</ele>
			<time>2014-01-02T13:26:44Z</time>
		</trkpt>
		<trkpt lat="39.5557899475098" lon="2.87903928756714">
			<ele>243</ele>
			<time>2014-01-02T13:26:45Z</time>
		</trkpt>
		<trkpt lat="39.5558471679688" lon="2.87905144691467">
			<ele>243</ele>
			<time>2014-01-02T13:26:46Z</time>
		</trkpt>
		<trkpt lat="39.5559005737305" lon="2.87906861305237">
			<ele>242.899993896484</ele>
			<time>2014-01-02T13:26:47Z</time>
		</trkpt>
		<trkpt lat="39.5559577941895" lon="2.87908506393433">
			<ele>243.100006103516</ele>
			<time>2014-01-02T13:26:48Z</time>
		</trkpt>
		<trkpt lat="39.5560188293457" lon="2.87910103797913">
			<ele>243</ele>
			<time>2014-01-02T13:26:49Z</time>
		</trkpt>
		<trkpt lat="39.556079864502" lon="2.87911939620972">
			<ele>242.800003051758</ele>
			<time>2014-01-02T13:26:51Z</time>
		</trkpt>
		<trkpt lat="39.5561981201172" lon="2.87915778160095">
			<ele>242.699996948242</ele>
			<time>2014-01-02T13:26:53Z</time>
		</trkpt>
		<trkpt lat="39.5563163757324" lon="2.87919640541077">
			<ele>242.699996948242</ele>
			<time>2014-01-02T13:26:54Z</time>
		</trkpt>
		<trkpt lat="39.5563735961914" lon="2.87921643257141">
			<ele>242.899993896484</ele>
			<time>2014-01-02T13:26:55Z</time>
		</trkpt>
		<trkpt lat="39.5564346313477" lon="2.87923645973206">
			<ele>242.5</ele>
			<time>2014-01-02T13:26:56Z</time>
		</trkpt>
		<trkpt lat="39.5564956665039" lon="2.87925100326538">
			<ele>242.699996948242</ele>
			<time>2014-01-02T13:26:57Z</time>
		</trkpt>
		<trkpt lat="39.5565490722656" lon="2.87926149368286">
			<ele>242.899993896484</ele>
			<time>2014-01-02T13:26:58Z</time>
		</trkpt>
		<trkpt lat="39.5566062927246" lon="2.87926936149597">
			<ele>242.199996948242</ele>
			<time>2014-01-02T13:26:59Z</time>
		</trkpt>
		<trkpt lat="39.5566558837891" lon="2.87928652763367">
			<ele>242.199996948242</ele>
			<time>2014-01-02T13:27:00Z</time>
		</trkpt>
		<trkpt lat="39.556713104248" lon="2.87930083274841">
			<ele>242.199996948242</ele>
			<time>2014-01-02T13:27:01Z</time>
		</trkpt>
		<trkpt lat="39.5567741394043" lon="2.87931895256042">
			<ele>242.100006103516</ele>
			<time>2014-01-02T13:27:02Z</time>
		</trkpt>
		<trkpt lat="39.556827545166" lon="2.87933540344238">
			<ele>242.100006103516</ele>
			<time>2014-01-02T13:27:03Z</time>
		</trkpt>
		<trkpt lat="39.556884765625" lon="2.87935256958008">
			<ele>242</ele>
			<time>2014-01-02T13:27:04Z</time>
		</trkpt>
		<trkpt lat="39.5569381713867" lon="2.87935829162598">
			<ele>241.800003051758</ele>
			<time>2014-01-02T13:27:05Z</time>
		</trkpt>
		<trkpt lat="39.5569953918457" lon="2.87936544418335">
			<ele>241.600006103516</ele>
			<time>2014-01-02T13:27:06Z</time>
		</trkpt>
		<trkpt lat="39.557056427002" lon="2.87937021255493">
			<ele>241.399993896484</ele>
			<time>2014-01-02T13:27:07Z</time>
		</trkpt>
		<trkpt lat="39.5571174621582" lon="2.87937259674072">
			<ele>241.300003051758</ele>
			<time>2014-01-02T13:27:08Z</time>
		</trkpt>
		<trkpt lat="39.5571746826172" lon="2.87937068939209">
			<ele>240.899993896484</ele>
			<time>2014-01-02T13:27:09Z</time>
		</trkpt>
		<trkpt lat="39.5572357177734" lon="2.87936401367188">
			<ele>240.600006103516</ele>
			<time>2014-01-02T13:27:10Z</time>
		</trkpt>
		<trkpt lat="39.5572967529297" lon="2.87935280799866">
			<ele>240.800003051758</ele>
			<time>2014-01-02T13:27:11Z</time>
		</trkpt>
		<trkpt lat="39.5573616027832" lon="2.87934136390686">
			<ele>240.699996948242</ele>
			<time>2014-01-02T13:27:12Z</time>
		</trkpt>
		<trkpt lat="39.5574264526367" lon="2.87932753562927">
			<ele>240.600006103516</ele>
			<time>2014-01-02T13:27:13Z</time>
		</trkpt>
		<trkpt lat="39.557487487793" lon="2.87931108474731">
			<ele>240.300003051758</ele>
			<time>2014-01-02T13:27:14Z</time>
		</trkpt>
		<trkpt lat="39.5575561523438" lon="2.87930130958557">
			<ele>240</ele>
			<time>2014-01-02T13:27:15Z</time>
		</trkpt>
		<trkpt lat="39.5576210021973" lon="2.87929558753967">
			<ele>240.100006103516</ele>
			<time>2014-01-02T13:27:16Z</time>
		</trkpt>
		<trkpt lat="39.5576858520508" lon="2.87929034233093">
			<ele>240.100006103516</ele>
			<time>2014-01-02T13:27:17Z</time>
		</trkpt>
		<trkpt lat="39.5577545166016" lon="2.87928748130798">
			<ele>239.899993896484</ele>
			<time>2014-01-02T13:27:18Z</time>
		</trkpt>
		<trkpt lat="39.5578155517578" lon="2.87928509712219">
			<ele>239.600006103516</ele>
			<time>2014-01-02T13:27:19Z</time>
		</trkpt>
		<trkpt lat="39.5578804016113" lon="2.87927556037903">
			<ele>239.300003051758</ele>
			<time>2014-01-02T13:27:20Z</time>
		</trkpt>
		<trkpt lat="39.5579452514648" lon="2.87926578521729">
			<ele>238.899993896484</ele>
			<time>2014-01-02T13:27:21Z</time>
		</trkpt>
		<trkpt lat="39.5580101013184" lon="2.87926435470581">
			<ele>239</ele>
			<time>2014-01-02T13:27:22Z</time>
		</trkpt>
		<trkpt lat="39.5580711364746" lon="2.87926173210144">
			<ele>238.800003051758</ele>
			<time>2014-01-02T13:27:23Z</time>
		</trkpt>
		<trkpt lat="39.5581321716309" lon="2.8792552947998">
			<ele>238.800003051758</ele>
			<time>2014-01-02T13:27:24Z</time>
		</trkpt>
		<trkpt lat="39.5581893920898" lon="2.87925386428833">
			<ele>238.800003051758</ele>
			<time>2014-01-02T13:27:25Z</time>
		</trkpt>
		<trkpt lat="39.5582466125488" lon="2.87924790382385">
			<ele>238.800003051758</ele>
			<time>2014-01-02T13:27:26Z</time>
		</trkpt>
		<trkpt lat="39.5583038330078" lon="2.87924528121948">
			<ele>238.600006103516</ele>
			<time>2014-01-02T13:27:27Z</time>
		</trkpt>
		<trkpt lat="39.5583610534668" lon="2.87923741340637">
			<ele>238.399993896484</ele>
			<time>2014-01-02T13:27:28Z</time>
		</trkpt>
		<trkpt lat="39.5584182739258" lon="2.87923240661621">
			<ele>238</ele>
			<time>2014-01-02T13:27:29Z</time>
		</trkpt>
		<trkpt lat="39.5584754943848" lon="2.87922549247742">
			<ele>237.699996948242</ele>
			<time>2014-01-02T13:27:30Z</time>
		</trkpt>
		<trkpt lat="39.5585327148438" lon="2.87922048568726">
			<ele>237.5</ele>
			<time>2014-01-02T13:27:31Z</time>
		</trkpt>
		<trkpt lat="39.55859375" lon="2.87921571731567">
			<ele>237.199996948242</ele>
			<time>2014-01-02T13:27:32Z</time>
		</trkpt>
		<trkpt lat="39.558650970459" lon="2.87921023368835">
			<ele>237.100006103516</ele>
			<time>2014-01-02T13:27:33Z</time>
		</trkpt>
		<trkpt lat="39.558708190918" lon="2.87920427322388">
			<ele>237.100006103516</ele>
			<time>2014-01-02T13:27:34Z</time>
		</trkpt>
		<trkpt lat="39.558765411377" lon="2.8791983127594">
			<ele>237</ele>
			<time>2014-01-02T13:27:35Z</time>
		</trkpt>
		<trkpt lat="39.5588226318359" lon="2.87919235229492">
			<ele>237.199996948242</ele>
			<time>2014-01-02T13:27:36Z</time>
		</trkpt>
		<trkpt lat="39.5588798522949" lon="2.87918615341187">
			<ele>236.899993896484</ele>
			<time>2014-01-02T13:27:37Z</time>
		</trkpt>
		<trkpt lat="39.5589370727539" lon="2.87917637825012">
			<ele>237.100006103516</ele>
			<time>2014-01-02T13:27:38Z</time>
		</trkpt>
		<trkpt lat="39.5589904785156" lon="2.87917375564575">
			<ele>236.5</ele>
			<time>2014-01-02T13:27:39Z</time>
		</trkpt>
		<trkpt lat="39.5590476989746" lon="2.87916731834412">
			<ele>236.600006103516</ele>
			<time>2014-01-02T13:27:40Z</time>
		</trkpt>
		<trkpt lat="39.5591049194336" lon="2.87916445732117">
			<ele>236.5</ele>
			<time>2014-01-02T13:27:41Z</time>
		</trkpt>
		<trkpt lat="39.5591621398926" lon="2.87915778160095">
			<ele>236.300003051758</ele>
			<time>2014-01-02T13:27:42Z</time>
		</trkpt>
		<trkpt lat="39.5592155456543" lon="2.8791491985321">
			<ele>236.300003051758</ele>
			<time>2014-01-02T13:27:43Z</time>
		</trkpt>
		<trkpt lat="39.559268951416" lon="2.87914490699768">
			<ele>236</ele>
			<time>2014-01-02T13:27:44Z</time>
		</trkpt>
		<trkpt lat="39.5593223571777" lon="2.87914228439331">
			<ele>235.899993896484</ele>
			<time>2014-01-02T13:27:45Z</time>
		</trkpt>
		<trkpt lat="39.5593795776367" lon="2.87913799285889">
			<ele>236</ele>
			<time>2014-01-02T13:27:46Z</time>
		</trkpt>
		<trkpt lat="39.5594367980957" lon="2.87913203239441">
			<ele>236</ele>
			<time>2014-01-02T13:27:47Z</time>
		</trkpt>
		<trkpt lat="39.559497833252" lon="2.87912487983704">
			<ele>235.899993896484</ele>
			<time>2014-01-02T13:27:48Z</time>
		</trkpt>
		<trkpt lat="39.5595550537109" lon="2.87911891937256">
			<ele>235.600006103516</ele>
			<time>2014-01-02T13:27:49Z</time>
		</trkpt>
		<trkpt lat="39.5596122741699" lon="2.87910914421082">
			<ele>235.600006103516</ele>
			<time>2014-01-02T13:27:50Z</time>
		</trkpt>
		<trkpt lat="39.5596733093262" lon="2.87910199165344">
			<ele>235.5</ele>
			<time>2014-01-02T13:27:51Z</time>
		</trkpt>
		<trkpt lat="39.5597343444824" lon="2.87909388542175">
			<ele>235.5</ele>
			<time>2014-01-02T13:27:52Z</time>
		</trkpt>
		<trkpt lat="39.5597953796387" lon="2.87908935546875">
			<ele>235.800003051758</ele>
			<time>2014-01-02T13:27:53Z</time>
		</trkpt>
		<trkpt lat="39.5598526000977" lon="2.87908434867859">
			<ele>235.399993896484</ele>
			<time>2014-01-02T13:27:54Z</time>
		</trkpt>
		<trkpt lat="39.5599136352539" lon="2.87907338142395">
			<ele>235.699996948242</ele>
			<time>2014-01-02T13:27:55Z</time>
		</trkpt>
		<trkpt lat="39.5599746704102" lon="2.8790647983551">
			<ele>235.699996948242</ele>
			<time>2014-01-02T13:27:56Z</time>
		</trkpt>
		<trkpt lat="39.5600318908691" lon="2.87905526161194">
			<ele>235.100006103516</ele>
			<time>2014-01-02T13:27:57Z</time>
		</trkpt>
		<trkpt lat="39.5600929260254" lon="2.87904715538025">
			<ele>235.300003051758</ele>
			<time>2014-01-02T13:27:58Z</time>
		</trkpt>
		<trkpt lat="39.5601501464844" lon="2.87903952598572">
			<ele>235.100006103516</ele>
			<time>2014-01-02T13:27:59Z</time>
		</trkpt>
		<trkpt lat="39.5602073669434" lon="2.87903022766113">
			<ele>234.899993896484</ele>
			<time>2014-01-02T13:28:00Z</time>
		</trkpt>
		<trkpt lat="39.5602684020996" lon="2.87901997566223">
			<ele>235</ele>
			<time>2014-01-02T13:28:01Z</time>
		</trkpt>
		<trkpt lat="39.5603256225586" lon="2.87900924682617">
			<ele>234.800003051758</ele>
			<time>2014-01-02T13:28:02Z</time>
		</trkpt>
		<trkpt lat="39.5603828430176" lon="2.87900185585022">
			<ele>234.800003051758</ele>
			<time>2014-01-02T13:28:03Z</time>
		</trkpt>
		<trkpt lat="39.5604400634766" lon="2.87899684906006">
			<ele>234.600006103516</ele>
			<time>2014-01-02T13:28:04Z</time>
		</trkpt>
		<trkpt lat="39.5605010986328" lon="2.87901830673218">
			<ele>234.5</ele>
			<time>2014-01-02T13:28:05Z</time>
		</trkpt>
		<trkpt lat="39.5605583190918" lon="2.8790340423584">
			<ele>234.300003051758</ele>
			<time>2014-01-02T13:28:06Z</time>
		</trkpt>
		<trkpt lat="39.5606117248535" lon="2.87906360626221">
			<ele>234.300003051758</ele>
			<time>2014-01-02T13:28:07Z</time>
		</trkpt>
		<trkpt lat="39.5606689453125" lon="2.87908744812012">
			<ele>234.199996948242</ele>
			<time>2014-01-02T13:28:08Z</time>
		</trkpt>
		<trkpt lat="39.5607223510742" lon="2.87911057472229">
			<ele>234.199996948242</ele>
			<time>2014-01-02T13:28:09Z</time>
		</trkpt>
		<trkpt lat="39.5607757568359" lon="2.87913584709167">
			<ele>233.800003051758</ele>
			<time>2014-01-02T13:28:10Z</time>
		</trkpt>
		<trkpt lat="39.5608329772949" lon="2.87915754318237">
			<ele>233.5</ele>
			<time>2014-01-02T13:28:11Z</time>
		</trkpt>
		<trkpt lat="39.5608863830566" lon="2.8791766166687">
			<ele>233.199996948242</ele>
			<time>2014-01-02T13:28:12Z</time>
		</trkpt>
		<trkpt lat="39.5609397888184" lon="2.87918972969055">
			<ele>232.899993896484</ele>
			<time>2014-01-02T13:28:13Z</time>
		</trkpt>
		<trkpt lat="39.5610275268555" lon="2.87920546531677">
			<ele>232.399993896484</ele>
			<time>2014-01-02T13:28:15Z</time>
		</trkpt>
		<trkpt lat="39.561092376709" lon="2.87921214103699">
			<ele>232.699996948242</ele>
			<time>2014-01-02T13:28:17Z</time>
		</trkpt>
		<trkpt lat="39.561149597168" lon="2.87917757034302">
			<ele>232.199996948242</ele>
			<time>2014-01-02T13:28:19Z</time>
		</trkpt>
		<trkpt lat="39.5611343383789" lon="2.87908339500427">
			<ele>232.300003051758</ele>
			<time>2014-01-02T13:28:21Z</time>
		</trkpt>
		<trkpt lat="39.5611038208008" lon="2.87900233268738">
			<ele>231.899993896484</ele>
			<time>2014-01-02T13:28:23Z</time>
		</trkpt>
		<trkpt lat="39.5610809326172" lon="2.8789210319519">
			<ele>232.100006103516</ele>
			<time>2014-01-02T13:28:25Z</time>
		</trkpt>
		<trkpt lat="39.5610580444336" lon="2.87884712219238">
			<ele>232.600006103516</ele>
			<time>2014-01-02T13:28:27Z</time>
		</trkpt>
		<trkpt lat="39.5610313415527" lon="2.87877464294434">
			<ele>232.5</ele>
			<time>2014-01-02T13:28:29Z</time>
		</trkpt>
		<trkpt lat="39.5610122680664" lon="2.87869620323181">
			<ele>232.600006103516</ele>
			<time>2014-01-02T13:28:31Z</time>
		</trkpt>
		<trkpt lat="39.5609855651855" lon="2.87862491607666">
			<ele>232.800003051758</ele>
			<time>2014-01-02T13:28:33Z</time>
		</trkpt>
		<trkpt lat="39.5609588623047" lon="2.87854337692261">
			<ele>233</ele>
			<time>2014-01-02T13:28:35Z</time>
		</trkpt>
		<trkpt lat="39.5609436035156" lon="2.87846922874451">
			<ele>233</ele>
			<time>2014-01-02T13:28:37Z</time>
		</trkpt>
		<trkpt lat="39.5609283447266" lon="2.87839245796204">
			<ele>232.800003051758</ele>
			<time>2014-01-02T13:28:39Z</time>
		</trkpt>
		<trkpt lat="39.5609092712402" lon="2.8783175945282">
			<ele>233.199996948242</ele>
			<time>2014-01-02T13:28:41Z</time>
		</trkpt>
		<trkpt lat="39.5608825683594" lon="2.87824273109436">
			<ele>233</ele>
			<time>2014-01-02T13:28:43Z</time>
		</trkpt>
		<trkpt lat="39.5608673095703" lon="2.87816905975342">
			<ele>233.300003051758</ele>
			<time>2014-01-02T13:28:45Z</time>
		</trkpt>
		<trkpt lat="39.5608520507813" lon="2.87809014320374">
			<ele>233.100006103516</ele>
			<time>2014-01-02T13:28:47Z</time>
		</trkpt>
		<trkpt lat="39.5608329772949" lon="2.878014087677">
			<ele>233.399993896484</ele>
			<time>2014-01-02T13:28:49Z</time>
		</trkpt>
		<trkpt lat="39.5608139038086" lon="2.87793731689453">
			<ele>233.300003051758</ele>
			<time>2014-01-02T13:28:51Z</time>
		</trkpt>
		<trkpt lat="39.5607948303223" lon="2.87785983085632">
			<ele>233.800003051758</ele>
			<time>2014-01-02T13:28:53Z</time>
		</trkpt>
		<trkpt lat="39.5607795715332" lon="2.87778496742249">
			<ele>234</ele>
			<time>2014-01-02T13:28:55Z</time>
		</trkpt>
		<trkpt lat="39.5607604980469" lon="2.87770819664001">
			<ele>234.699996948242</ele>
			<time>2014-01-02T13:28:57Z</time>
		</trkpt>
		<trkpt lat="39.5607452392578" lon="2.87763428688049">
			<ele>234.899993896484</ele>
			<time>2014-01-02T13:28:59Z</time>
		</trkpt>
		<trkpt lat="39.5607299804688" lon="2.87756133079529">
			<ele>234.899993896484</ele>
			<time>2014-01-02T13:29:01Z</time>
		</trkpt>
		<trkpt lat="39.5607109069824" lon="2.87748670578003">
			<ele>235.199996948242</ele>
			<time>2014-01-02T13:29:03Z</time>
		</trkpt>
		<trkpt lat="39.5607032775879" lon="2.87741446495056">
			<ele>234.800003051758</ele>
			<time>2014-01-02T13:29:05Z</time>
		</trkpt>
		<trkpt lat="39.5607032775879" lon="2.8773341178894">
			<ele>234.5</ele>
			<time>2014-01-02T13:29:07Z</time>
		</trkpt>
		<trkpt lat="39.5606994628906" lon="2.87725448608398">
			<ele>235</ele>
			<time>2014-01-02T13:29:09Z</time>
		</trkpt>
		<trkpt lat="39.5606994628906" lon="2.87717795372009">
			<ele>235</ele>
			<time>2014-01-02T13:29:11Z</time>
		</trkpt>
		<trkpt lat="39.5607032775879" lon="2.87709593772888">
			<ele>234.699996948242</ele>
			<time>2014-01-02T13:29:13Z</time>
		</trkpt>
		<trkpt lat="39.5606994628906" lon="2.87701535224915">
			<ele>234.5</ele>
			<time>2014-01-02T13:29:15Z</time>
		</trkpt>
		<trkpt lat="39.5606956481934" lon="2.87693381309509">
			<ele>234.5</ele>
			<time>2014-01-02T13:29:17Z</time>
		</trkpt>
		<trkpt lat="39.5606956481934" lon="2.87685370445251">
			<ele>234.899993896484</ele>
			<time>2014-01-02T13:29:19Z</time>
		</trkpt>
		<trkpt lat="39.5606918334961" lon="2.87677073478699">
			<ele>234.199996948242</ele>
			<time>2014-01-02T13:29:21Z</time>
		</trkpt>
		<trkpt lat="39.5606956481934" lon="2.8766815662384">
			<ele>233.800003051758</ele>
			<time>2014-01-02T13:29:23Z</time>
		</trkpt>
		<trkpt lat="39.5607032775879" lon="2.87660598754883">
			<ele>232.199996948242</ele>
			<time>2014-01-02T13:29:25Z</time>
		</trkpt>
		<trkpt lat="39.560718536377" lon="2.87651586532593">
			<ele>232.5</ele>
			<time>2014-01-02T13:29:27Z</time>
		</trkpt>
		<trkpt lat="39.560733795166" lon="2.8764283657074">
			<ele>232.600006103516</ele>
			<time>2014-01-02T13:29:29Z</time>
		</trkpt>
		<trkpt lat="39.5607452392578" lon="2.87633204460144">
			<ele>232.699996948242</ele>
			<time>2014-01-02T13:29:31Z</time>
		</trkpt>
		<trkpt lat="39.5607566833496" lon="2.87623643875122">
			<ele>233</ele>
			<time>2014-01-02T13:29:33Z</time>
		</trkpt>
		<trkpt lat="39.5607604980469" lon="2.87617230415344">
			<ele>234.699996948242</ele>
			<time>2014-01-02T13:29:34Z</time>
		</trkpt>
		<trkpt lat="39.5607795715332" lon="2.8760826587677">
			<ele>234.600006103516</ele>
			<time>2014-01-02T13:29:36Z</time>
		</trkpt>
		<trkpt lat="39.5608024597168" lon="2.8759913444519">
			<ele>235.5</ele>
			<time>2014-01-02T13:29:38Z</time>
		</trkpt>
		<trkpt lat="39.5608291625977" lon="2.87590336799622">
			<ele>236.199996948242</ele>
			<time>2014-01-02T13:29:40Z</time>
		</trkpt>
		<trkpt lat="39.560863494873" lon="2.87580323219299">
			<ele>235.899993896484</ele>
			<time>2014-01-02T13:29:42Z</time>
		</trkpt>
		<trkpt lat="39.5608978271484" lon="2.87571263313293">
			<ele>235.800003051758</ele>
			<time>2014-01-02T13:29:44Z</time>
		</trkpt>
		<trkpt lat="39.5609321594238" lon="2.8756251335144">
			<ele>235.300003051758</ele>
			<time>2014-01-02T13:29:46Z</time>
		</trkpt>
		<trkpt lat="39.560962677002" lon="2.87553071975708">
			<ele>235</ele>
			<time>2014-01-02T13:29:48Z</time>
		</trkpt>
		<trkpt lat="39.5609970092773" lon="2.87543797492981">
			<ele>234.5</ele>
			<time>2014-01-02T13:29:50Z</time>
		</trkpt>
		<trkpt lat="39.5610275268555" lon="2.87534379959106">
			<ele>234</ele>
			<time>2014-01-02T13:29:52Z</time>
		</trkpt>
		<trkpt lat="39.5610618591309" lon="2.87524700164795">
			<ele>235</ele>
			<time>2014-01-02T13:29:54Z</time>
		</trkpt>
		<trkpt lat="39.5610847473145" lon="2.87516450881958">
			<ele>234</ele>
			<time>2014-01-02T13:29:56Z</time>
		</trkpt>
		<trkpt lat="39.5611267089844" lon="2.87508296966553">
			<ele>234</ele>
			<time>2014-01-02T13:29:58Z</time>
		</trkpt>
		<trkpt lat="39.5611686706543" lon="2.87500405311584">
			<ele>233.399993896484</ele>
			<time>2014-01-02T13:30:00Z</time>
		</trkpt>
		<trkpt lat="39.5612144470215" lon="2.87493443489075">
			<ele>232.899993896484</ele>
			<time>2014-01-02T13:30:02Z</time>
		</trkpt>
		<trkpt lat="39.5612602233887" lon="2.87485694885254">
			<ele>232.5</ele>
			<time>2014-01-02T13:30:04Z</time>
		</trkpt>
		<trkpt lat="39.5613098144531" lon="2.87477016448975">
			<ele>232.199996948242</ele>
			<time>2014-01-02T13:30:06Z</time>
		</trkpt>
		<trkpt lat="39.5613594055176" lon="2.87467265129089">
			<ele>231.800003051758</ele>
			<time>2014-01-02T13:30:08Z</time>
		</trkpt>
		<trkpt lat="39.5613822937012" lon="2.87461686134338">
			<ele>231.5</ele>
			<time>2014-01-02T13:30:09Z</time>
		</trkpt>
		<trkpt lat="39.5614013671875" lon="2.87455821037292">
			<ele>231.5</ele>
			<time>2014-01-02T13:30:10Z</time>
		</trkpt>
		<trkpt lat="39.5614204406738" lon="2.87450051307678">
			<ele>231.699996948242</ele>
			<time>2014-01-02T13:30:11Z</time>
		</trkpt>
		<trkpt lat="39.5614395141602" lon="2.87444472312927">
			<ele>231.600006103516</ele>
			<time>2014-01-02T13:30:12Z</time>
		</trkpt>
		<trkpt lat="39.5614547729492" lon="2.87438941001892">
			<ele>231.600006103516</ele>
			<time>2014-01-02T13:30:13Z</time>
		</trkpt>
		<trkpt lat="39.5614738464355" lon="2.87433218955994">
			<ele>231.5</ele>
			<time>2014-01-02T13:30:14Z</time>
		</trkpt>
		<trkpt lat="39.5614929199219" lon="2.87427806854248">
			<ele>231.5</ele>
			<time>2014-01-02T13:30:15Z</time>
		</trkpt>
		<trkpt lat="39.5615272521973" lon="2.8741729259491">
			<ele>231.399993896484</ele>
			<time>2014-01-02T13:30:17Z</time>
		</trkpt>
		<trkpt lat="39.5615463256836" lon="2.8741180896759">
			<ele>231.399993896484</ele>
			<time>2014-01-02T13:30:18Z</time>
		</trkpt>
		<trkpt lat="39.561580657959" lon="2.87401413917542">
			<ele>231.600006103516</ele>
			<time>2014-01-02T13:30:20Z</time>
		</trkpt>
		<trkpt lat="39.5616073608398" lon="2.87390756607056">
			<ele>231.600006103516</ele>
			<time>2014-01-02T13:30:22Z</time>
		</trkpt>
		<trkpt lat="39.5616340637207" lon="2.87380456924438">
			<ele>231</ele>
			<time>2014-01-02T13:30:24Z</time>
		</trkpt>
		<trkpt lat="39.5616607666016" lon="2.873694896698">
			<ele>230.800003051758</ele>
			<time>2014-01-02T13:30:26Z</time>
		</trkpt>
		<trkpt lat="39.5616836547852" lon="2.87358736991882">
			<ele>230.800003051758</ele>
			<time>2014-01-02T13:30:28Z</time>
		</trkpt>
		<trkpt lat="39.5617065429688" lon="2.87347555160522">
			<ele>230.5</ele>
			<time>2014-01-02T13:30:30Z</time>
		</trkpt>
		<trkpt lat="39.5617332458496" lon="2.87336587905884">
			<ele>230.100006103516</ele>
			<time>2014-01-02T13:30:32Z</time>
		</trkpt>
		<trkpt lat="39.5617485046387" lon="2.8733081817627">
			<ele>229.899993896484</ele>
			<time>2014-01-02T13:30:33Z</time>
		</trkpt>
		<trkpt lat="39.5617599487305" lon="2.87324738502502">
			<ele>229.800003051758</ele>
			<time>2014-01-02T13:30:34Z</time>
		</trkpt>
		<trkpt lat="39.5617713928223" lon="2.87318515777588">
			<ele>229.699996948242</ele>
			<time>2014-01-02T13:30:35Z</time>
		</trkpt>
		<trkpt lat="39.5617866516113" lon="2.87312436103821">
			<ele>229.800003051758</ele>
			<time>2014-01-02T13:30:36Z</time>
		</trkpt>
		<trkpt lat="39.5617980957031" lon="2.8730628490448">
			<ele>229.600006103516</ele>
			<time>2014-01-02T13:30:37Z</time>
		</trkpt>
		<trkpt lat="39.5618133544922" lon="2.87300419807434">
			<ele>229.600006103516</ele>
			<time>2014-01-02T13:30:38Z</time>
		</trkpt>
		<trkpt lat="39.5618286132813" lon="2.87294173240662">
			<ele>229.399993896484</ele>
			<time>2014-01-02T13:30:39Z</time>
		</trkpt>
		<trkpt lat="39.561840057373" lon="2.87287878990173">
			<ele>229</ele>
			<time>2014-01-02T13:30:40Z</time>
		</trkpt>
		<trkpt lat="39.5618553161621" lon="2.87281441688538">
			<ele>229.100006103516</ele>
			<time>2014-01-02T13:30:41Z</time>
		</trkpt>
		<trkpt lat="39.5618667602539" lon="2.87275123596191">
			<ele>228.899993896484</ele>
			<time>2014-01-02T13:30:42Z</time>
		</trkpt>
		<trkpt lat="39.561882019043" lon="2.87269330024719">
			<ele>228.800003051758</ele>
			<time>2014-01-02T13:30:43Z</time>
		</trkpt>
		<trkpt lat="39.5618934631348" lon="2.87263059616089">
			<ele>228.399993896484</ele>
			<time>2014-01-02T13:30:44Z</time>
		</trkpt>
		<trkpt lat="39.5619087219238" lon="2.87257385253906">
			<ele>228.5</ele>
			<time>2014-01-02T13:30:45Z</time>
		</trkpt>
		<trkpt lat="39.5619201660156" lon="2.87251615524292">
			<ele>228.300003051758</ele>
			<time>2014-01-02T13:30:46Z</time>
		</trkpt>
		<trkpt lat="39.5619354248047" lon="2.87246012687683">
			<ele>228.100006103516</ele>
			<time>2014-01-02T13:30:47Z</time>
		</trkpt>
		<trkpt lat="39.5619506835938" lon="2.87240195274353">
			<ele>228</ele>
			<time>2014-01-02T13:30:48Z</time>
		</trkpt>
		<trkpt lat="39.5619659423828" lon="2.8723452091217">
			<ele>228</ele>
			<time>2014-01-02T13:30:49Z</time>
		</trkpt>
		<trkpt lat="39.5619888305664" lon="2.872234582901">
			<ele>227.399993896484</ele>
			<time>2014-01-02T13:30:51Z</time>
		</trkpt>
		<trkpt lat="39.5620155334473" lon="2.87212514877319">
			<ele>227</ele>
			<time>2014-01-02T13:30:53Z</time>
		</trkpt>
		<trkpt lat="39.5620307922363" lon="2.87206721305847">
			<ele>226.899993896484</ele>
			<time>2014-01-02T13:30:54Z</time>
		</trkpt>
		<trkpt lat="39.5620422363281" lon="2.87200951576233">
			<ele>226.699996948242</ele>
			<time>2014-01-02T13:30:55Z</time>
		</trkpt>
		<trkpt lat="39.5620651245117" lon="2.8719003200531">
			<ele>226.800003051758</ele>
			<time>2014-01-02T13:30:57Z</time>
		</trkpt>
		<trkpt lat="39.5620880126953" lon="2.87179374694824">
			<ele>227.100006103516</ele>
			<time>2014-01-02T13:30:59Z</time>
		</trkpt>
		<trkpt lat="39.5621070861816" lon="2.87168836593628">
			<ele>227</ele>
			<time>2014-01-02T13:31:01Z</time>
		</trkpt>
		<trkpt lat="39.5621299743652" lon="2.87158131599426">
			<ele>227.100006103516</ele>
			<time>2014-01-02T13:31:03Z</time>
		</trkpt>
		<trkpt lat="39.5621566772461" lon="2.87148356437683">
			<ele>227.100006103516</ele>
			<time>2014-01-02T13:31:05Z</time>
		</trkpt>
		<trkpt lat="39.5621795654297" lon="2.87138223648071">
			<ele>227.100006103516</ele>
			<time>2014-01-02T13:31:07Z</time>
		</trkpt>
		<trkpt lat="39.5622024536133" lon="2.87127947807312">
			<ele>227.300003051758</ele>
			<time>2014-01-02T13:31:09Z</time>
		</trkpt>
		<trkpt lat="39.5622253417969" lon="2.8711793422699">
			<ele>227.199996948242</ele>
			<time>2014-01-02T13:31:11Z</time>
		</trkpt>
		<trkpt lat="39.5622520446777" lon="2.87107586860657">
			<ele>227.399993896484</ele>
			<time>2014-01-02T13:31:13Z</time>
		</trkpt>
		<trkpt lat="39.5622787475586" lon="2.87097454071045">
			<ele>227.5</ele>
			<time>2014-01-02T13:31:15Z</time>
		</trkpt>
		<trkpt lat="39.5623016357422" lon="2.87086725234985">
			<ele>227.899993896484</ele>
			<time>2014-01-02T13:31:17Z</time>
		</trkpt>
		<trkpt lat="39.5623168945313" lon="2.87076449394226">
			<ele>227.800003051758</ele>
			<time>2014-01-02T13:31:19Z</time>
		</trkpt>
		<trkpt lat="39.5623397827148" lon="2.87066030502319">
			<ele>227.699996948242</ele>
			<time>2014-01-02T13:31:21Z</time>
		</trkpt>
		<trkpt lat="39.5623588562012" lon="2.87055063247681">
			<ele>227.5</ele>
			<time>2014-01-02T13:31:23Z</time>
		</trkpt>
		<trkpt lat="39.562370300293" lon="2.87049341201782">
			<ele>227.600006103516</ele>
			<time>2014-01-02T13:31:24Z</time>
		</trkpt>
		<trkpt lat="39.5623931884766" lon="2.87038278579712">
			<ele>227.800003051758</ele>
			<time>2014-01-02T13:31:26Z</time>
		</trkpt>
		<trkpt lat="39.5624160766602" lon="2.87027502059937">
			<ele>228.100006103516</ele>
			<time>2014-01-02T13:31:28Z</time>
		</trkpt>
		<trkpt lat="39.5624389648438" lon="2.87017154693604">
			<ele>228.100006103516</ele>
			<time>2014-01-02T13:31:30Z</time>
		</trkpt>
		<trkpt lat="39.5624618530273" lon="2.87006616592407">
			<ele>228.100006103516</ele>
			<time>2014-01-02T13:31:32Z</time>
		</trkpt>
		<trkpt lat="39.5624809265137" lon="2.86995983123779">
			<ele>228.100006103516</ele>
			<time>2014-01-02T13:31:34Z</time>
		</trkpt>
		<trkpt lat="39.5625" lon="2.86985540390015">
			<ele>228</ele>
			<time>2014-01-02T13:31:36Z</time>
		</trkpt>
		<trkpt lat="39.5625190734863" lon="2.86974930763245">
			<ele>227.800003051758</ele>
			<time>2014-01-02T13:31:38Z</time>
		</trkpt>
		<trkpt lat="39.5625419616699" lon="2.86965155601501">
			<ele>226.699996948242</ele>
			<time>2014-01-02T13:31:40Z</time>
		</trkpt>
		<trkpt lat="39.5625686645508" lon="2.86954474449158">
			<ele>226.800003051758</ele>
			<time>2014-01-02T13:31:42Z</time>
		</trkpt>
		<trkpt lat="39.5625877380371" lon="2.86943387985229">
			<ele>226.800003051758</ele>
			<time>2014-01-02T13:31:44Z</time>
		</trkpt>
		<trkpt lat="39.5625991821289" lon="2.86937689781189">
			<ele>226.800003051758</ele>
			<time>2014-01-02T13:31:45Z</time>
		</trkpt>
		<trkpt lat="39.5626068115234" lon="2.86931896209717">
			<ele>226.600006103516</ele>
			<time>2014-01-02T13:31:46Z</time>
		</trkpt>
		<trkpt lat="39.5626182556152" lon="2.86925911903381">
			<ele>226.5</ele>
			<time>2014-01-02T13:31:47Z</time>
		</trkpt>
		<trkpt lat="39.5626258850098" lon="2.86919903755188">
			<ele>226.5</ele>
			<time>2014-01-02T13:31:48Z</time>
		</trkpt>
		<trkpt lat="39.5626449584961" lon="2.86908459663391">
			<ele>226.800003051758</ele>
			<time>2014-01-02T13:31:50Z</time>
		</trkpt>
		<trkpt lat="39.5626564025879" lon="2.86902713775635">
			<ele>226.899993896484</ele>
			<time>2014-01-02T13:31:51Z</time>
		</trkpt>
		<trkpt lat="39.562671661377" lon="2.8689169883728">
			<ele>226.899993896484</ele>
			<time>2014-01-02T13:31:53Z</time>
		</trkpt>
		<trkpt lat="39.562686920166" lon="2.86880922317505">
			<ele>226.699996948242</ele>
			<time>2014-01-02T13:31:55Z</time>
		</trkpt>
		<trkpt lat="39.5627021789551" lon="2.86870384216309">
			<ele>226.600006103516</ele>
			<time>2014-01-02T13:31:57Z</time>
		</trkpt>
		<trkpt lat="39.5627174377441" lon="2.86859941482544">
			<ele>227</ele>
			<time>2014-01-02T13:31:59Z</time>
		</trkpt>
		<trkpt lat="39.5627326965332" lon="2.868492603302">
			<ele>227.100006103516</ele>
			<time>2014-01-02T13:32:01Z</time>
		</trkpt>
		<trkpt lat="39.5627517700195" lon="2.86839246749878">
			<ele>227.300003051758</ele>
			<time>2014-01-02T13:32:03Z</time>
		</trkpt>
		<trkpt lat="39.5627670288086" lon="2.86829042434692">
			<ele>227.300003051758</ele>
			<time>2014-01-02T13:32:05Z</time>
		</trkpt>
		<trkpt lat="39.5627899169922" lon="2.86819124221802">
			<ele>227.699996948242</ele>
			<time>2014-01-02T13:32:07Z</time>
		</trkpt>
		<trkpt lat="39.5628204345703" lon="2.86809825897217">
			<ele>227.600006103516</ele>
			<time>2014-01-02T13:32:09Z</time>
		</trkpt>
		<trkpt lat="39.562858581543" lon="2.86801099777222">
			<ele>227.600006103516</ele>
			<time>2014-01-02T13:32:11Z</time>
		</trkpt>
		<trkpt lat="39.5629005432129" lon="2.867924451828">
			<ele>227.600006103516</ele>
			<time>2014-01-02T13:32:13Z</time>
		</trkpt>
		<trkpt lat="39.5629425048828" lon="2.86784148216248">
			<ele>227.399993896484</ele>
			<time>2014-01-02T13:32:15Z</time>
		</trkpt>
		<trkpt lat="39.5629844665527" lon="2.86775612831116">
			<ele>227.5</ele>
			<time>2014-01-02T13:32:17Z</time>
		</trkpt>
		<trkpt lat="39.5630226135254" lon="2.86767101287842">
			<ele>227.699996948242</ele>
			<time>2014-01-02T13:32:19Z</time>
		</trkpt>
		<trkpt lat="39.563060760498" lon="2.86758542060852">
			<ele>227.600006103516</ele>
			<time>2014-01-02T13:32:21Z</time>
		</trkpt>
		<trkpt lat="39.563102722168" lon="2.86749958992004">
			<ele>227.600006103516</ele>
			<time>2014-01-02T13:32:23Z</time>
		</trkpt>
		<trkpt lat="39.5631484985352" lon="2.86740875244141">
			<ele>227.800003051758</ele>
			<time>2014-01-02T13:32:25Z</time>
		</trkpt>
		<trkpt lat="39.5631866455078" lon="2.86731863021851">
			<ele>227.800003051758</ele>
			<time>2014-01-02T13:32:27Z</time>
		</trkpt>
		<trkpt lat="39.5632247924805" lon="2.86722755432129">
			<ele>228.300003051758</ele>
			<time>2014-01-02T13:32:29Z</time>
		</trkpt>
		<trkpt lat="39.5632629394531" lon="2.86715340614319">
			<ele>228.5</ele>
			<time>2014-01-02T13:32:31Z</time>
		</trkpt>
		<trkpt lat="39.5633010864258" lon="2.86705040931702">
			<ele>228.300003051758</ele>
			<time>2014-01-02T13:32:33Z</time>
		</trkpt>
		<trkpt lat="39.5633316040039" lon="2.86695408821106">
			<ele>227.899993896484</ele>
			<time>2014-01-02T13:32:35Z</time>
		</trkpt>
		<trkpt lat="39.5633773803711" lon="2.86687207221985">
			<ele>219.899993896484</ele>
			<time>2014-01-02T13:32:38Z</time>
		</trkpt>
		<trkpt lat="39.5633926391602" lon="2.86678886413574">
			<ele>221</ele>
			<time>2014-01-02T13:32:39Z</time>
		</trkpt>
		<trkpt lat="39.5634078979492" lon="2.86672616004944">
			<ele>221.600006103516</ele>
			<time>2014-01-02T13:32:40Z</time>
		</trkpt>
		<trkpt lat="39.5634307861328" lon="2.86665654182434">
			<ele>222.199996948242</ele>
			<time>2014-01-02T13:32:41Z</time>
		</trkpt>
		<trkpt lat="39.5634460449219" lon="2.86659073829651">
			<ele>222.399993896484</ele>
			<time>2014-01-02T13:32:42Z</time>
		</trkpt>
		<trkpt lat="39.5634613037109" lon="2.86652565002441">
			<ele>222.899993896484</ele>
			<time>2014-01-02T13:32:43Z</time>
		</trkpt>
		<trkpt lat="39.5634765625" lon="2.86646437644958">
			<ele>223.5</ele>
			<time>2014-01-02T13:32:44Z</time>
		</trkpt>
		<trkpt lat="39.5634956359863" lon="2.86641216278076">
			<ele>222.300003051758</ele>
			<time>2014-01-02T13:32:45Z</time>
		</trkpt>
		<trkpt lat="39.5635147094727" lon="2.86634707450867">
			<ele>222.399993896484</ele>
			<time>2014-01-02T13:32:46Z</time>
		</trkpt>
		<trkpt lat="39.563533782959" lon="2.86628079414368">
			<ele>222.600006103516</ele>
			<time>2014-01-02T13:32:47Z</time>
		</trkpt>
		<trkpt lat="39.563549041748" lon="2.86621332168579">
			<ele>222.699996948242</ele>
			<time>2014-01-02T13:32:48Z</time>
		</trkpt>
		<trkpt lat="39.5635643005371" lon="2.86614894866943">
			<ele>222.899993896484</ele>
			<time>2014-01-02T13:32:49Z</time>
		</trkpt>
		<trkpt lat="39.5635833740234" lon="2.86608242988586">
			<ele>222.899993896484</ele>
			<time>2014-01-02T13:32:50Z</time>
		</trkpt>
		<trkpt lat="39.5635986328125" lon="2.86601233482361">
			<ele>223.5</ele>
			<time>2014-01-02T13:32:51Z</time>
		</trkpt>
		<trkpt lat="39.5636177062988" lon="2.86595368385315">
			<ele>223.399993896484</ele>
			<time>2014-01-02T13:32:52Z</time>
		</trkpt>
		<trkpt lat="39.5636405944824" lon="2.86589384078979">
			<ele>223.5</ele>
			<time>2014-01-02T13:32:53Z</time>
		</trkpt>
		<trkpt lat="39.5636596679688" lon="2.86582779884338">
			<ele>223.100006103516</ele>
			<time>2014-01-02T13:32:54Z</time>
		</trkpt>
		<trkpt lat="39.5636825561523" lon="2.8657534122467">
			<ele>222.800003051758</ele>
			<time>2014-01-02T13:32:55Z</time>
		</trkpt>
		<trkpt lat="39.563720703125" lon="2.86568188667297">
			<ele>222.800003051758</ele>
			<time>2014-01-02T13:32:56Z</time>
		</trkpt>
		<trkpt lat="39.5637359619141" lon="2.86557865142822">
			<ele>224.399993896484</ele>
			<time>2014-01-02T13:32:57Z</time>
		</trkpt>
		<trkpt lat="39.5637512207031" lon="2.86551451683044">
			<ele>224.399993896484</ele>
			<time>2014-01-02T13:32:58Z</time>
		</trkpt>
		<trkpt lat="39.5637702941895" lon="2.86544466018677">
			<ele>224.199996948242</ele>
			<time>2014-01-02T13:32:59Z</time>
		</trkpt>
		<trkpt lat="39.5637969970703" lon="2.86538338661194">
			<ele>224.100006103516</ele>
			<time>2014-01-02T13:33:00Z</time>
		</trkpt>
		<trkpt lat="39.5638160705566" lon="2.86531472206116">
			<ele>224.100006103516</ele>
			<time>2014-01-02T13:33:01Z</time>
		</trkpt>
		<trkpt lat="39.563835144043" lon="2.86524224281311">
			<ele>224.100006103516</ele>
			<time>2014-01-02T13:33:02Z</time>
		</trkpt>
		<trkpt lat="39.5638542175293" lon="2.86517834663391">
			<ele>224.5</ele>
			<time>2014-01-02T13:33:03Z</time>
		</trkpt>
		<trkpt lat="39.5638732910156" lon="2.86511206626892">
			<ele>224.600006103516</ele>
			<time>2014-01-02T13:33:04Z</time>
		</trkpt>
		<trkpt lat="39.563892364502" lon="2.86504316329956">
			<ele>224.600006103516</ele>
			<time>2014-01-02T13:33:05Z</time>
		</trkpt>
		<trkpt lat="39.5639114379883" lon="2.86497497558594">
			<ele>224.5</ele>
			<time>2014-01-02T13:33:06Z</time>
		</trkpt>
		<trkpt lat="39.5639343261719" lon="2.86490964889526">
			<ele>224.399993896484</ele>
			<time>2014-01-02T13:33:07Z</time>
		</trkpt>
		<trkpt lat="39.5639533996582" lon="2.86484384536743">
			<ele>224.199996948242</ele>
			<time>2014-01-02T13:33:08Z</time>
		</trkpt>
		<trkpt lat="39.5639724731445" lon="2.86477637290955">
			<ele>224.100006103516</ele>
			<time>2014-01-02T13:33:09Z</time>
		</trkpt>
		<trkpt lat="39.5639953613281" lon="2.86471891403198">
			<ele>224.100006103516</ele>
			<time>2014-01-02T13:33:10Z</time>
		</trkpt>
		<trkpt lat="39.5640182495117" lon="2.86465454101563">
			<ele>223.800003051758</ele>
			<time>2014-01-02T13:33:11Z</time>
		</trkpt>
		<trkpt lat="39.564037322998" lon="2.86459183692932">
			<ele>223.899993896484</ele>
			<time>2014-01-02T13:33:12Z</time>
		</trkpt>
		<trkpt lat="39.5640602111816" lon="2.8645293712616">
			<ele>223.699996948242</ele>
			<time>2014-01-02T13:33:13Z</time>
		</trkpt>
		<trkpt lat="39.564079284668" lon="2.86446928977966">
			<ele>223.5</ele>
			<time>2014-01-02T13:33:14Z</time>
		</trkpt>
		<trkpt lat="39.5641021728516" lon="2.86441016197205">
			<ele>223.800003051758</ele>
			<time>2014-01-02T13:33:15Z</time>
		</trkpt>
		<trkpt lat="39.5641212463379" lon="2.86435174942017">
			<ele>223.899993896484</ele>
			<time>2014-01-02T13:33:16Z</time>
		</trkpt>
		<trkpt lat="39.5641403198242" lon="2.86429667472839">
			<ele>223.899993896484</ele>
			<time>2014-01-02T13:33:17Z</time>
		</trkpt>
		<trkpt lat="39.5641632080078" lon="2.86423873901367">
			<ele>224.199996948242</ele>
			<time>2014-01-02T13:33:18Z</time>
		</trkpt>
		<trkpt lat="39.5641822814941" lon="2.86418604850769">
			<ele>224.100006103516</ele>
			<time>2014-01-02T13:33:19Z</time>
		</trkpt>
		<trkpt lat="39.5642051696777" lon="2.86412978172302">
			<ele>224.100006103516</ele>
			<time>2014-01-02T13:33:20Z</time>
		</trkpt>
		<trkpt lat="39.5642242431641" lon="2.8640730381012">
			<ele>224</ele>
			<time>2014-01-02T13:33:21Z</time>
		</trkpt>
		<trkpt lat="39.5642471313477" lon="2.86401867866516">
			<ele>224</ele>
			<time>2014-01-02T13:33:22Z</time>
		</trkpt>
		<trkpt lat="39.564266204834" lon="2.8639612197876">
			<ele>223.899993896484</ele>
			<time>2014-01-02T13:33:23Z</time>
		</trkpt>
		<trkpt lat="39.5642852783203" lon="2.86390471458435">
			<ele>223.899993896484</ele>
			<time>2014-01-02T13:33:24Z</time>
		</trkpt>
		<trkpt lat="39.5643081665039" lon="2.86384844779968">
			<ele>223.800003051758</ele>
			<time>2014-01-02T13:33:25Z</time>
		</trkpt>
		<trkpt lat="39.5643272399902" lon="2.8637912273407">
			<ele>224.100006103516</ele>
			<time>2014-01-02T13:33:26Z</time>
		</trkpt>
		<trkpt lat="39.5643463134766" lon="2.86373329162598">
			<ele>224.100006103516</ele>
			<time>2014-01-02T13:33:27Z</time>
		</trkpt>
		<trkpt lat="39.5643653869629" lon="2.86367440223694">
			<ele>224.100006103516</ele>
			<time>2014-01-02T13:33:28Z</time>
		</trkpt>
		<trkpt lat="39.5643844604492" lon="2.86361646652222">
			<ele>224.199996948242</ele>
			<time>2014-01-02T13:33:29Z</time>
		</trkpt>
		<trkpt lat="39.5644035339355" lon="2.86355757713318">
			<ele>224.300003051758</ele>
			<time>2014-01-02T13:33:30Z</time>
		</trkpt>
		<trkpt lat="39.5644226074219" lon="2.86350345611572">
			<ele>224.199996948242</ele>
			<time>2014-01-02T13:33:31Z</time>
		</trkpt>
		<trkpt lat="39.5644454956055" lon="2.86344695091248">
			<ele>224</ele>
			<time>2014-01-02T13:33:32Z</time>
		</trkpt>
		<trkpt lat="39.5644683837891" lon="2.86338901519775">
			<ele>223.699996948242</ele>
			<time>2014-01-02T13:33:33Z</time>
		</trkpt>
		<trkpt lat="39.5644912719727" lon="2.86332774162292">
			<ele>224.100006103516</ele>
			<time>2014-01-02T13:33:34Z</time>
		</trkpt>
		<trkpt lat="39.564510345459" lon="2.86326384544373">
			<ele>223.899993896484</ele>
			<time>2014-01-02T13:33:35Z</time>
		</trkpt>
		<trkpt lat="39.5645332336426" lon="2.86319851875305">
			<ele>223.699996948242</ele>
			<time>2014-01-02T13:33:36Z</time>
		</trkpt>
		<trkpt lat="39.5645523071289" lon="2.86313605308533">
			<ele>223.800003051758</ele>
			<time>2014-01-02T13:33:37Z</time>
		</trkpt>
		<trkpt lat="39.5645751953125" lon="2.86307621002197">
			<ele>223.5</ele>
			<time>2014-01-02T13:33:38Z</time>
		</trkpt>
		<trkpt lat="39.5645980834961" lon="2.8630166053772">
			<ele>223.199996948242</ele>
			<time>2014-01-02T13:33:39Z</time>
		</trkpt>
		<trkpt lat="39.5646171569824" lon="2.86295461654663">
			<ele>222.800003051758</ele>
			<time>2014-01-02T13:33:40Z</time>
		</trkpt>
		<trkpt lat="39.5646324157715" lon="2.86289191246033">
			<ele>222.800003051758</ele>
			<time>2014-01-02T13:33:41Z</time>
		</trkpt>
		<trkpt lat="39.5646514892578" lon="2.86283254623413">
			<ele>222.699996948242</ele>
			<time>2014-01-02T13:33:42Z</time>
		</trkpt>
		<trkpt lat="39.5646667480469" lon="2.86276984214783">
			<ele>222.699996948242</ele>
			<time>2014-01-02T13:33:43Z</time>
		</trkpt>
		<trkpt lat="39.5646896362305" lon="2.862713098526">
			<ele>222.5</ele>
			<time>2014-01-02T13:33:44Z</time>
		</trkpt>
		<trkpt lat="39.5647087097168" lon="2.86265659332275">
			<ele>222.5</ele>
			<time>2014-01-02T13:33:45Z</time>
		</trkpt>
		<trkpt lat="39.5647277832031" lon="2.86260056495667">
			<ele>222.300003051758</ele>
			<time>2014-01-02T13:33:46Z</time>
		</trkpt>
		<trkpt lat="39.5647468566895" lon="2.86254501342773">
			<ele>222.600006103516</ele>
			<time>2014-01-02T13:33:47Z</time>
		</trkpt>
		<trkpt lat="39.5647659301758" lon="2.8624894618988">
			<ele>222.399993896484</ele>
			<time>2014-01-02T13:33:48Z</time>
		</trkpt>
		<trkpt lat="39.5647850036621" lon="2.86243557929993">
			<ele>222.5</ele>
			<time>2014-01-02T13:33:49Z</time>
		</trkpt>
		<trkpt lat="39.5648078918457" lon="2.86238026618958">
			<ele>222.5</ele>
			<time>2014-01-02T13:33:50Z</time>
		</trkpt>
		<trkpt lat="39.564826965332" lon="2.8623251914978">
			<ele>222.300003051758</ele>
			<time>2014-01-02T13:33:51Z</time>
		</trkpt>
		<trkpt lat="39.5648460388184" lon="2.86226844787598">
			<ele>222.300003051758</ele>
			<time>2014-01-02T13:33:52Z</time>
		</trkpt>
		<trkpt lat="39.5648651123047" lon="2.86221051216125">
			<ele>222.5</ele>
			<time>2014-01-02T13:33:53Z</time>
		</trkpt>
		<trkpt lat="39.564884185791" lon="2.86215353012085">
			<ele>222.399993896484</ele>
			<time>2014-01-02T13:33:54Z</time>
		</trkpt>
		<trkpt lat="39.5649032592773" lon="2.86209893226624">
			<ele>222.199996948242</ele>
			<time>2014-01-02T13:33:55Z</time>
		</trkpt>
		<trkpt lat="39.5649223327637" lon="2.8620457649231">
			<ele>222</ele>
			<time>2014-01-02T13:33:56Z</time>
		</trkpt>
		<trkpt lat="39.56494140625" lon="2.86199021339417">
			<ele>221.899993896484</ele>
			<time>2014-01-02T13:33:57Z</time>
		</trkpt>
		<trkpt lat="39.5649642944336" lon="2.8619372844696">
			<ele>221.800003051758</ele>
			<time>2014-01-02T13:33:58Z</time>
		</trkpt>
		<trkpt lat="39.5649871826172" lon="2.86188411712646">
			<ele>221.899993896484</ele>
			<time>2014-01-02T13:33:59Z</time>
		</trkpt>
		<trkpt lat="39.5650062561035" lon="2.86182689666748">
			<ele>222</ele>
			<time>2014-01-02T13:34:00Z</time>
		</trkpt>
		<trkpt lat="39.5650291442871" lon="2.86177563667297">
			<ele>222</ele>
			<time>2014-01-02T13:34:01Z</time>
		</trkpt>
		<trkpt lat="39.5650672912598" lon="2.86167168617249">
			<ele>221.699996948242</ele>
			<time>2014-01-02T13:34:03Z</time>
		</trkpt>
		<trkpt lat="39.5650901794434" lon="2.8616156578064">
			<ele>221.5</ele>
			<time>2014-01-02T13:34:04Z</time>
		</trkpt>
		<trkpt lat="39.5651092529297" lon="2.86156129837036">
			<ele>221.5</ele>
			<time>2014-01-02T13:34:05Z</time>
		</trkpt>
		<trkpt lat="39.565128326416" lon="2.86150646209717">
			<ele>221.600006103516</ele>
			<time>2014-01-02T13:34:06Z</time>
		</trkpt>
		<trkpt lat="39.5651512145996" lon="2.86145257949829">
			<ele>221.5</ele>
			<time>2014-01-02T13:34:07Z</time>
		</trkpt>
		<trkpt lat="39.5651702880859" lon="2.86139941215515">
			<ele>221.600006103516</ele>
			<time>2014-01-02T13:34:08Z</time>
		</trkpt>
		<trkpt lat="39.5651931762695" lon="2.8613440990448">
			<ele>221.600006103516</ele>
			<time>2014-01-02T13:34:09Z</time>
		</trkpt>
		<trkpt lat="39.5652122497559" lon="2.86128783226013">
			<ele>221.699996948242</ele>
			<time>2014-01-02T13:34:10Z</time>
		</trkpt>
		<trkpt lat="39.5652465820313" lon="2.86118507385254">
			<ele>221.899993896484</ele>
			<time>2014-01-02T13:34:12Z</time>
		</trkpt>
		<trkpt lat="39.5652694702148" lon="2.86113095283508">
			<ele>221.899993896484</ele>
			<time>2014-01-02T13:34:13Z</time>
		</trkpt>
		<trkpt lat="39.5652847290039" lon="2.86107683181763">
			<ele>221.899993896484</ele>
			<time>2014-01-02T13:34:14Z</time>
		</trkpt>
		<trkpt lat="39.5653038024902" lon="2.86102294921875">
			<ele>222</ele>
			<time>2014-01-02T13:34:15Z</time>
		</trkpt>
		<trkpt lat="39.5653266906738" lon="2.86097002029419">
			<ele>221.899993896484</ele>
			<time>2014-01-02T13:34:16Z</time>
		</trkpt>
		<trkpt lat="39.5653457641602" lon="2.86091709136963">
			<ele>221.699996948242</ele>
			<time>2014-01-02T13:34:17Z</time>
		</trkpt>
		<trkpt lat="39.5653648376465" lon="2.86086010932922">
			<ele>221.600006103516</ele>
			<time>2014-01-02T13:34:18Z</time>
		</trkpt>
		<trkpt lat="39.5653839111328" lon="2.86080098152161">
			<ele>221.399993896484</ele>
			<time>2014-01-02T13:34:19Z</time>
		</trkpt>
		<trkpt lat="39.5654067993164" lon="2.86074495315552">
			<ele>221.399993896484</ele>
			<time>2014-01-02T13:34:20Z</time>
		</trkpt>
		<trkpt lat="39.5654335021973" lon="2.86068511009216">
			<ele>221.5</ele>
			<time>2014-01-02T13:34:21Z</time>
		</trkpt>
		<trkpt lat="39.5654563903809" lon="2.86060810089111">
			<ele>221.100006103516</ele>
			<time>2014-01-02T13:34:22Z</time>
		</trkpt>
		<trkpt lat="39.5654754638672" lon="2.86054182052612">
			<ele>220.600006103516</ele>
			<time>2014-01-02T13:34:23Z</time>
		</trkpt>
		<trkpt lat="39.5654983520508" lon="2.86047220230103">
			<ele>220.300003051758</ele>
			<time>2014-01-02T13:34:24Z</time>
		</trkpt>
		<trkpt lat="39.5655212402344" lon="2.86040306091309">
			<ele>220.100006103516</ele>
			<time>2014-01-02T13:34:25Z</time>
		</trkpt>
		<trkpt lat="39.5655403137207" lon="2.86033487319946">
			<ele>219.100006103516</ele>
			<time>2014-01-02T13:34:26Z</time>
		</trkpt>
		<trkpt lat="39.5655670166016" lon="2.86026382446289">
			<ele>219</ele>
			<time>2014-01-02T13:34:27Z</time>
		</trkpt>
		<trkpt lat="39.5655937194824" lon="2.86019039154053">
			<ele>218.699996948242</ele>
			<time>2014-01-02T13:34:28Z</time>
		</trkpt>
		<trkpt lat="39.565616607666" lon="2.86011242866516">
			<ele>219.300003051758</ele>
			<time>2014-01-02T13:34:29Z</time>
		</trkpt>
		<trkpt lat="39.5656394958496" lon="2.86003375053406">
			<ele>219.5</ele>
			<time>2014-01-02T13:34:30Z</time>
		</trkpt>
		<trkpt lat="39.5656585693359" lon="2.85995483398438">
			<ele>219.300003051758</ele>
			<time>2014-01-02T13:34:31Z</time>
		</trkpt>
		<trkpt lat="39.5656776428223" lon="2.85987997055054">
			<ele>219.600006103516</ele>
			<time>2014-01-02T13:34:32Z</time>
		</trkpt>
		<trkpt lat="39.5657005310059" lon="2.8598096370697">
			<ele>219.699996948242</ele>
			<time>2014-01-02T13:34:33Z</time>
		</trkpt>
		<trkpt lat="39.5657196044922" lon="2.85974097251892">
			<ele>219.600006103516</ele>
			<time>2014-01-02T13:34:34Z</time>
		</trkpt>
		<trkpt lat="39.5657424926758" lon="2.85967111587524">
			<ele>219.600006103516</ele>
			<time>2014-01-02T13:34:35Z</time>
		</trkpt>
		<trkpt lat="39.5657615661621" lon="2.8596043586731">
			<ele>219.5</ele>
			<time>2014-01-02T13:34:36Z</time>
		</trkpt>
		<trkpt lat="39.5657844543457" lon="2.85954213142395">
			<ele>219.300003051758</ele>
			<time>2014-01-02T13:34:37Z</time>
		</trkpt>
		<trkpt lat="39.565803527832" lon="2.85947632789612">
			<ele>219.199996948242</ele>
			<time>2014-01-02T13:34:38Z</time>
		</trkpt>
		<trkpt lat="39.5658226013184" lon="2.85941314697266">
			<ele>219.100006103516</ele>
			<time>2014-01-02T13:34:39Z</time>
		</trkpt>
		<trkpt lat="39.5658378601074" lon="2.85934925079346">
			<ele>218.899993896484</ele>
			<time>2014-01-02T13:34:40Z</time>
		</trkpt>
		<trkpt lat="39.5658569335938" lon="2.85928726196289">
			<ele>219</ele>
			<time>2014-01-02T13:34:41Z</time>
		</trkpt>
		<trkpt lat="39.5658760070801" lon="2.85922718048096">
			<ele>218.699996948242</ele>
			<time>2014-01-02T13:34:42Z</time>
		</trkpt>
		<trkpt lat="39.5658912658691" lon="2.85917186737061">
			<ele>218.399993896484</ele>
			<time>2014-01-02T13:34:43Z</time>
		</trkpt>
		<trkpt lat="39.5659065246582" lon="2.85911536216736">
			<ele>218.199996948242</ele>
			<time>2014-01-02T13:34:44Z</time>
		</trkpt>
		<trkpt lat="39.5659370422363" lon="2.85900688171387">
			<ele>218</ele>
			<time>2014-01-02T13:34:46Z</time>
		</trkpt>
		<trkpt lat="39.5659523010254" lon="2.85895180702209">
			<ele>218.199996948242</ele>
			<time>2014-01-02T13:34:47Z</time>
		</trkpt>
		<trkpt lat="39.5659866333008" lon="2.85884833335876">
			<ele>218.199996948242</ele>
			<time>2014-01-02T13:34:49Z</time>
		</trkpt>
		<trkpt lat="39.5660171508789" lon="2.85874629020691">
			<ele>218.5</ele>
			<time>2014-01-02T13:34:51Z</time>
		</trkpt>
		<trkpt lat="39.566047668457" lon="2.85864806175232">
			<ele>218.399993896484</ele>
			<time>2014-01-02T13:34:53Z</time>
		</trkpt>
		<trkpt lat="39.5660781860352" lon="2.85855269432068">
			<ele>218.600006103516</ele>
			<time>2014-01-02T13:34:55Z</time>
		</trkpt>
		<trkpt lat="39.566104888916" lon="2.85845470428467">
			<ele>218.300003051758</ele>
			<time>2014-01-02T13:34:57Z</time>
		</trkpt>
		<trkpt lat="39.5661277770996" lon="2.8583517074585">
			<ele>218.800003051758</ele>
			<time>2014-01-02T13:34:59Z</time>
		</trkpt>
		<trkpt lat="39.5661544799805" lon="2.85825896263123">
			<ele>218.600006103516</ele>
			<time>2014-01-02T13:35:01Z</time>
		</trkpt>
		<trkpt lat="39.5661888122559" lon="2.85816764831543">
			<ele>218.600006103516</ele>
			<time>2014-01-02T13:35:03Z</time>
		</trkpt>
		<trkpt lat="39.5662269592285" lon="2.85807323455811">
			<ele>218.399993896484</ele>
			<time>2014-01-02T13:35:05Z</time>
		</trkpt>
		<trkpt lat="39.5662536621094" lon="2.85797834396362">
			<ele>218.199996948242</ele>
			<time>2014-01-02T13:35:07Z</time>
		</trkpt>
		<trkpt lat="39.5662879943848" lon="2.85788726806641">
			<ele>217.600006103516</ele>
			<time>2014-01-02T13:35:09Z</time>
		</trkpt>
		<trkpt lat="39.5663223266602" lon="2.85779452323914">
			<ele>217.800003051758</ele>
			<time>2014-01-02T13:35:11Z</time>
		</trkpt>
		<trkpt lat="39.5663528442383" lon="2.85770106315613">
			<ele>218</ele>
			<time>2014-01-02T13:35:13Z</time>
		</trkpt>
		<trkpt lat="39.5663871765137" lon="2.85761404037476">
			<ele>217.699996948242</ele>
			<time>2014-01-02T13:35:15Z</time>
		</trkpt>
		<trkpt lat="39.5664138793945" lon="2.8575222492218">
			<ele>217.899993896484</ele>
			<time>2014-01-02T13:35:17Z</time>
		</trkpt>
		<trkpt lat="39.5664443969727" lon="2.85742998123169">
			<ele>218</ele>
			<time>2014-01-02T13:35:19Z</time>
		</trkpt>
		<trkpt lat="39.5664749145508" lon="2.85733938217163">
			<ele>217.800003051758</ele>
			<time>2014-01-02T13:35:21Z</time>
		</trkpt>
		<trkpt lat="39.5665016174316" lon="2.85725116729736">
			<ele>217.800003051758</ele>
			<time>2014-01-02T13:35:23Z</time>
		</trkpt>
		<trkpt lat="39.5665321350098" lon="2.85716772079468">
			<ele>217.399993896484</ele>
			<time>2014-01-02T13:35:25Z</time>
		</trkpt>
		<trkpt lat="39.5665588378906" lon="2.85707592964172">
			<ele>217.199996948242</ele>
			<time>2014-01-02T13:35:27Z</time>
		</trkpt>
		<trkpt lat="39.5665893554688" lon="2.85698413848877">
			<ele>217.199996948242</ele>
			<time>2014-01-02T13:35:29Z</time>
		</trkpt>
		<trkpt lat="39.5666236877441" lon="2.85688996315002">
			<ele>217.199996948242</ele>
			<time>2014-01-02T13:35:31Z</time>
		</trkpt>
		<trkpt lat="39.566650390625" lon="2.8567967414856">
			<ele>216.699996948242</ele>
			<time>2014-01-02T13:35:33Z</time>
		</trkpt>
		<trkpt lat="39.5666770935059" lon="2.85670375823975">
			<ele>216.399993896484</ele>
			<time>2014-01-02T13:35:35Z</time>
		</trkpt>
		<trkpt lat="39.566707611084" lon="2.85662722587585">
			<ele>214.600006103516</ele>
			<time>2014-01-02T13:35:37Z</time>
		</trkpt>
		<trkpt lat="39.5667381286621" lon="2.85653424263">
			<ele>215</ele>
			<time>2014-01-02T13:35:39Z</time>
		</trkpt>
		<trkpt lat="39.5667686462402" lon="2.85644292831421">
			<ele>214.800003051758</ele>
			<time>2014-01-02T13:35:41Z</time>
		</trkpt>
		<trkpt lat="39.5667915344238" lon="2.85634922981262">
			<ele>214.5</ele>
			<time>2014-01-02T13:35:43Z</time>
		</trkpt>
		<trkpt lat="39.5668182373047" lon="2.85625410079956">
			<ele>214.600006103516</ele>
			<time>2014-01-02T13:35:45Z</time>
		</trkpt>
		<trkpt lat="39.5668411254883" lon="2.85615825653076">
			<ele>214.600006103516</ele>
			<time>2014-01-02T13:35:47Z</time>
		</trkpt>
		<trkpt lat="39.5668640136719" lon="2.85606622695923">
			<ele>214.5</ele>
			<time>2014-01-02T13:35:49Z</time>
		</trkpt>
		<trkpt lat="39.5668869018555" lon="2.85597562789917">
			<ele>214.300003051758</ele>
			<time>2014-01-02T13:35:51Z</time>
		</trkpt>
		<trkpt lat="39.5669097900391" lon="2.855881690979">
			<ele>214.199996948242</ele>
			<time>2014-01-02T13:35:53Z</time>
		</trkpt>
		<trkpt lat="39.5669288635254" lon="2.85578799247742">
			<ele>214.300003051758</ele>
			<time>2014-01-02T13:35:55Z</time>
		</trkpt>
		<trkpt lat="39.5669479370117" lon="2.85569524765015">
			<ele>214</ele>
			<time>2014-01-02T13:35:57Z</time>
		</trkpt>
		<trkpt lat="39.566967010498" lon="2.85559749603271">
			<ele>214</ele>
			<time>2014-01-02T13:35:59Z</time>
		</trkpt>
		<trkpt lat="39.5669860839844" lon="2.85549712181091">
			<ele>213.699996948242</ele>
			<time>2014-01-02T13:36:01Z</time>
		</trkpt>
		<trkpt lat="39.5670051574707" lon="2.85539150238037">
			<ele>213.699996948242</ele>
			<time>2014-01-02T13:36:03Z</time>
		</trkpt>
		<trkpt lat="39.5670280456543" lon="2.85529017448425">
			<ele>213.699996948242</ele>
			<time>2014-01-02T13:36:05Z</time>
		</trkpt>
		<trkpt lat="39.5670547485352" lon="2.85519123077393">
			<ele>213.899993896484</ele>
			<time>2014-01-02T13:36:07Z</time>
		</trkpt>
		<trkpt lat="39.5670967102051" lon="2.85510087013245">
			<ele>214</ele>
			<time>2014-01-02T13:36:09Z</time>
		</trkpt>
		<trkpt lat="39.5671501159668" lon="2.85502529144287">
			<ele>214.100006103516</ele>
			<time>2014-01-02T13:36:11Z</time>
		</trkpt>
		<trkpt lat="39.567211151123" lon="2.85494828224182">
			<ele>213.699996948242</ele>
			<time>2014-01-02T13:36:13Z</time>
		</trkpt>
		<trkpt lat="39.5672721862793" lon="2.85487461090088">
			<ele>213.600006103516</ele>
			<time>2014-01-02T13:36:15Z</time>
		</trkpt>
		<trkpt lat="39.5673294067383" lon="2.85479187965393">
			<ele>213.899993896484</ele>
			<time>2014-01-02T13:36:17Z</time>
		</trkpt>
		<trkpt lat="39.5673904418945" lon="2.85470724105835">
			<ele>213.800003051758</ele>
			<time>2014-01-02T13:36:19Z</time>
		</trkpt>
		<trkpt lat="39.5674209594727" lon="2.85466480255127">
			<ele>213.800003051758</ele>
			<time>2014-01-02T13:36:20Z</time>
		</trkpt>
		<trkpt lat="39.5674514770508" lon="2.85461950302124">
			<ele>213.699996948242</ele>
			<time>2014-01-02T13:36:21Z</time>
		</trkpt>
		<trkpt lat="39.5674858093262" lon="2.85457682609558">
			<ele>213.5</ele>
			<time>2014-01-02T13:36:22Z</time>
		</trkpt>
		<trkpt lat="39.5675163269043" lon="2.85453295707703">
			<ele>213</ele>
			<time>2014-01-02T13:36:23Z</time>
		</trkpt>
		<trkpt lat="39.5675506591797" lon="2.8544909954071">
			<ele>212.899993896484</ele>
			<time>2014-01-02T13:36:24Z</time>
		</trkpt>
		<trkpt lat="39.5675849914551" lon="2.85444474220276">
			<ele>212.800003051758</ele>
			<time>2014-01-02T13:36:25Z</time>
		</trkpt>
		<trkpt lat="39.5676155090332" lon="2.85440158843994">
			<ele>212.600006103516</ele>
			<time>2014-01-02T13:36:26Z</time>
		</trkpt>
		<trkpt lat="39.5676460266113" lon="2.85435724258423">
			<ele>212.600006103516</ele>
			<time>2014-01-02T13:36:27Z</time>
		</trkpt>
		<trkpt lat="39.5676803588867" lon="2.85431361198425">
			<ele>212.5</ele>
			<time>2014-01-02T13:36:28Z</time>
		</trkpt>
		<trkpt lat="39.5677108764648" lon="2.85427188873291">
			<ele>212.699996948242</ele>
			<time>2014-01-02T13:36:29Z</time>
		</trkpt>
		<trkpt lat="39.5677719116211" lon="2.85419058799744">
			<ele>212.800003051758</ele>
			<time>2014-01-02T13:36:31Z</time>
		</trkpt>
		<trkpt lat="39.5678215026855" lon="2.85410499572754">
			<ele>213.100006103516</ele>
			<time>2014-01-02T13:36:33Z</time>
		</trkpt>
		<trkpt lat="39.56787109375" lon="2.85402274131775">
			<ele>212.899993896484</ele>
			<time>2014-01-02T13:36:35Z</time>
		</trkpt>
		<trkpt lat="39.5679244995117" lon="2.85394239425659">
			<ele>213.100006103516</ele>
			<time>2014-01-02T13:36:37Z</time>
		</trkpt>
		<trkpt lat="39.5679550170898" lon="2.85389757156372">
			<ele>213</ele>
			<time>2014-01-02T13:36:38Z</time>
		</trkpt>
		<trkpt lat="39.5680160522461" lon="2.85380816459656">
			<ele>212.800003051758</ele>
			<time>2014-01-02T13:36:40Z</time>
		</trkpt>
		<trkpt lat="39.5680465698242" lon="2.85376143455505">
			<ele>212.600006103516</ele>
			<time>2014-01-02T13:36:41Z</time>
		</trkpt>
		<trkpt lat="39.5680770874023" lon="2.8537163734436">
			<ele>212.5</ele>
			<time>2014-01-02T13:36:42Z</time>
		</trkpt>
		<trkpt lat="39.5681037902832" lon="2.85366916656494">
			<ele>212.399993896484</ele>
			<time>2014-01-02T13:36:43Z</time>
		</trkpt>
		<trkpt lat="39.5681381225586" lon="2.85361909866333">
			<ele>212.199996948242</ele>
			<time>2014-01-02T13:36:44Z</time>
		</trkpt>
		<trkpt lat="39.5681686401367" lon="2.85357117652893">
			<ele>211.699996948242</ele>
			<time>2014-01-02T13:36:45Z</time>
		</trkpt>
		<trkpt lat="39.5682029724121" lon="2.85352563858032">
			<ele>211.699996948242</ele>
			<time>2014-01-02T13:36:46Z</time>
		</trkpt>
		<trkpt lat="39.5682373046875" lon="2.85347723960876">
			<ele>211.5</ele>
			<time>2014-01-02T13:36:47Z</time>
		</trkpt>
		<trkpt lat="39.5682716369629" lon="2.85342884063721">
			<ele>211.699996948242</ele>
			<time>2014-01-02T13:36:48Z</time>
		</trkpt>
		<trkpt lat="39.5683097839355" lon="2.85338091850281">
			<ele>211.600006103516</ele>
			<time>2014-01-02T13:36:49Z</time>
		</trkpt>
		<trkpt lat="39.5683403015137" lon="2.85333228111267">
			<ele>211.5</ele>
			<time>2014-01-02T13:36:50Z</time>
		</trkpt>
		<trkpt lat="39.5683746337891" lon="2.85328102111816">
			<ele>211.199996948242</ele>
			<time>2014-01-02T13:36:51Z</time>
		</trkpt>
		<trkpt lat="39.5684051513672" lon="2.85323333740234">
			<ele>211.199996948242</ele>
			<time>2014-01-02T13:36:52Z</time>
		</trkpt>
		<trkpt lat="39.5684394836426" lon="2.85318732261658">
			<ele>211</ele>
			<time>2014-01-02T13:36:53Z</time>
		</trkpt>
		<trkpt lat="39.5685043334961" lon="2.85311079025269">
			<ele>211</ele>
			<time>2014-01-02T13:36:55Z</time>
		</trkpt>
		<trkpt lat="39.5685577392578" lon="2.85303521156311">
			<ele>211</ele>
			<time>2014-01-02T13:36:57Z</time>
		</trkpt>
		<trkpt lat="39.5686149597168" lon="2.85296392440796">
			<ele>211.100006103516</ele>
			<time>2014-01-02T13:36:59Z</time>
		</trkpt>
		<trkpt lat="39.5686645507813" lon="2.85289454460144">
			<ele>211.100006103516</ele>
			<time>2014-01-02T13:37:01Z</time>
		</trkpt>
		<trkpt lat="39.5687141418457" lon="2.8528196811676">
			<ele>211</ele>
			<time>2014-01-02T13:37:03Z</time>
		</trkpt>
		<trkpt lat="39.5687637329102" lon="2.85274720191956">
			<ele>211.199996948242</ele>
			<time>2014-01-02T13:37:05Z</time>
		</trkpt>
		<trkpt lat="39.5688133239746" lon="2.85267972946167">
			<ele>211.100006103516</ele>
			<time>2014-01-02T13:37:07Z</time>
		</trkpt>
		<trkpt lat="39.5688629150391" lon="2.85261082649231">
			<ele>211</ele>
			<time>2014-01-02T13:37:09Z</time>
		</trkpt>
		<trkpt lat="39.568920135498" lon="2.85254096984863">
			<ele>211</ele>
			<time>2014-01-02T13:37:11Z</time>
		</trkpt>
		<trkpt lat="39.5689659118652" lon="2.85246253013611">
			<ele>210.899993896484</ele>
			<time>2014-01-02T13:37:13Z</time>
		</trkpt>
		<trkpt lat="39.5690116882324" lon="2.85238718986511">
			<ele>210.899993896484</ele>
			<time>2014-01-02T13:37:15Z</time>
		</trkpt>
		<trkpt lat="39.5690574645996" lon="2.85231328010559">
			<ele>211</ele>
			<time>2014-01-02T13:37:17Z</time>
		</trkpt>
		<trkpt lat="39.5690956115723" lon="2.85224509239197">
			<ele>210.600006103516</ele>
			<time>2014-01-02T13:37:19Z</time>
		</trkpt>
		<trkpt lat="39.5691299438477" lon="2.85218024253845">
			<ele>210.5</ele>
			<time>2014-01-02T13:37:21Z</time>
		</trkpt>
		<trkpt lat="39.5691680908203" lon="2.85210871696472">
			<ele>210.399993896484</ele>
			<time>2014-01-02T13:37:23Z</time>
		</trkpt>
		<trkpt lat="39.5692100524902" lon="2.8520290851593">
			<ele>210.800003051758</ele>
			<time>2014-01-02T13:37:25Z</time>
		</trkpt>
		<trkpt lat="39.5692481994629" lon="2.85195684432983">
			<ele>210.5</ele>
			<time>2014-01-02T13:37:27Z</time>
		</trkpt>
		<trkpt lat="39.569278717041" lon="2.85188698768616">
			<ele>210.5</ele>
			<time>2014-01-02T13:37:29Z</time>
		</trkpt>
		<trkpt lat="39.5693092346191" lon="2.85180950164795">
			<ele>211.199996948242</ele>
			<time>2014-01-02T13:37:31Z</time>
		</trkpt>
		<trkpt lat="39.5693397521973" lon="2.8517279624939">
			<ele>212.100006103516</ele>
			<time>2014-01-02T13:37:33Z</time>
		</trkpt>
		<trkpt lat="39.5693550109863" lon="2.85164165496826">
			<ele>213</ele>
			<time>2014-01-02T13:37:35Z</time>
		</trkpt>
		<trkpt lat="39.5693626403809" lon="2.85155987739563">
			<ele>212.699996948242</ele>
			<time>2014-01-02T13:37:37Z</time>
		</trkpt>
		<trkpt lat="39.5693817138672" lon="2.85147714614868">
			<ele>212.5</ele>
			<time>2014-01-02T13:37:39Z</time>
		</trkpt>
		<trkpt lat="39.5693893432617" lon="2.85139799118042">
			<ele>213.399993896484</ele>
			<time>2014-01-02T13:37:41Z</time>
		</trkpt>
		<trkpt lat="39.5693969726563" lon="2.85132527351379">
			<ele>214.100006103516</ele>
			<time>2014-01-02T13:37:43Z</time>
		</trkpt>
		<trkpt lat="39.5694007873535" lon="2.85125541687012">
			<ele>215.199996948242</ele>
			<time>2014-01-02T13:37:45Z</time>
		</trkpt>
		<trkpt lat="39.5694046020508" lon="2.85119318962097">
			<ele>215.100006103516</ele>
			<time>2014-01-02T13:37:47Z</time>
		</trkpt>
		<trkpt lat="39.5693969726563" lon="2.85112643241882">
			<ele>215.600006103516</ele>
			<time>2014-01-02T13:37:49Z</time>
		</trkpt>
		<trkpt lat="39.5693855285645" lon="2.85106587409973">
			<ele>215.899993896484</ele>
			<time>2014-01-02T13:37:51Z</time>
		</trkpt>
		<trkpt lat="39.5693588256836" lon="2.85098624229431">
			<ele>216.100006103516</ele>
			<time>2014-01-02T13:37:54Z</time>
		</trkpt>
		<trkpt lat="39.5693321228027" lon="2.85093474388123">
			<ele>216.5</ele>
			<time>2014-01-02T13:37:56Z</time>
		</trkpt>
		<trkpt lat="39.5693016052246" lon="2.85089325904846">
			<ele>216.600006103516</ele>
			<time>2014-01-02T13:37:58Z</time>
		</trkpt>
		<trkpt lat="39.5692520141602" lon="2.85084342956543">
			<ele>217.100006103516</ele>
			<time>2014-01-02T13:38:01Z</time>
		</trkpt>
		<trkpt lat="39.5692024230957" lon="2.85078978538513">
			<ele>217.300003051758</ele>
			<time>2014-01-02T13:38:04Z</time>
		</trkpt>
		<trkpt lat="39.5691528320313" lon="2.85073447227478">
			<ele>217.100006103516</ele>
			<time>2014-01-02T13:38:07Z</time>
		</trkpt>
		<trkpt lat="39.5691299438477" lon="2.85067939758301">
			<ele>217.399993896484</ele>
			<time>2014-01-02T13:38:09Z</time>
		</trkpt>
		<trkpt lat="39.5690879821777" lon="2.8506236076355">
			<ele>217.300003051758</ele>
			<time>2014-01-02T13:38:11Z</time>
		</trkpt>
		<trkpt lat="39.5690269470215" lon="2.85057067871094">
			<ele>217.100006103516</ele>
			<time>2014-01-02T13:38:13Z</time>
		</trkpt>
		<trkpt lat="39.568962097168" lon="2.85052108764648">
			<ele>216.899993896484</ele>
			<time>2014-01-02T13:38:15Z</time>
		</trkpt>
		<trkpt lat="39.5688934326172" lon="2.8504650592804">
			<ele>216.600006103516</ele>
			<time>2014-01-02T13:38:17Z</time>
		</trkpt>
		<trkpt lat="39.5688247680664" lon="2.85040879249573">
			<ele>215.899993896484</ele>
			<time>2014-01-02T13:38:19Z</time>
		</trkpt>
		<trkpt lat="39.5687675476074" lon="2.85032916069031">
			<ele>215.300003051758</ele>
			<time>2014-01-02T13:38:21Z</time>
		</trkpt>
		<trkpt lat="39.5687522888184" lon="2.85027432441711">
			<ele>215</ele>
			<time>2014-01-02T13:38:22Z</time>
		</trkpt>
		<trkpt lat="39.5687408447266" lon="2.85015177726746">
			<ele>214.300003051758</ele>
			<time>2014-01-02T13:38:24Z</time>
		</trkpt>
		<trkpt lat="39.5687484741211" lon="2.85007357597351">
			<ele>213.600006103516</ele>
			<time>2014-01-02T13:38:25Z</time>
		</trkpt>
		<trkpt lat="39.5687599182129" lon="2.84999537467957">
			<ele>212.899993896484</ele>
			<time>2014-01-02T13:38:26Z</time>
		</trkpt>
		<trkpt lat="39.5687866210938" lon="2.84991765022278">
			<ele>212.199996948242</ele>
			<time>2014-01-02T13:38:27Z</time>
		</trkpt>
		<trkpt lat="39.5688247680664" lon="2.8498420715332">
			<ele>212.100006103516</ele>
			<time>2014-01-02T13:38:28Z</time>
		</trkpt>
		<trkpt lat="39.5688591003418" lon="2.84977078437805">
			<ele>211.899993896484</ele>
			<time>2014-01-02T13:38:29Z</time>
		</trkpt>
		<trkpt lat="39.5689010620117" lon="2.84970784187317">
			<ele>211.600006103516</ele>
			<time>2014-01-02T13:38:30Z</time>
		</trkpt>
		<trkpt lat="39.5689468383789" lon="2.84965682029724">
			<ele>211.800003051758</ele>
			<time>2014-01-02T13:38:31Z</time>
		</trkpt>
		<trkpt lat="39.5689888000488" lon="2.84959626197815">
			<ele>211.899993896484</ele>
			<time>2014-01-02T13:38:32Z</time>
		</trkpt>
		<trkpt lat="39.5690231323242" lon="2.84953641891479">
			<ele>212</ele>
			<time>2014-01-02T13:38:33Z</time>
		</trkpt>
		<trkpt lat="39.5690612792969" lon="2.84948515892029">
			<ele>211.800003051758</ele>
			<time>2014-01-02T13:38:34Z</time>
		</trkpt>
		<trkpt lat="39.5690994262695" lon="2.84943747520447">
			<ele>211.899993896484</ele>
			<time>2014-01-02T13:38:35Z</time>
		</trkpt>
		<trkpt lat="39.5691375732422" lon="2.84938859939575">
			<ele>211.800003051758</ele>
			<time>2014-01-02T13:38:36Z</time>
		</trkpt>
		<trkpt lat="39.5691757202148" lon="2.84935331344604">
			<ele>211.600006103516</ele>
			<time>2014-01-02T13:38:37Z</time>
		</trkpt>
		<trkpt lat="39.5692100524902" lon="2.84931540489197">
			<ele>211.399993896484</ele>
			<time>2014-01-02T13:38:38Z</time>
		</trkpt>
		<trkpt lat="39.5692520141602" lon="2.84928393363953">
			<ele>211.399993896484</ele>
			<time>2014-01-02T13:38:39Z</time>
		</trkpt>
		<trkpt lat="39.5693206787109" lon="2.84922647476196">
			<ele>211.5</ele>
			<time>2014-01-02T13:38:41Z</time>
		</trkpt>
		<trkpt lat="39.5693817138672" lon="2.84916591644287">
			<ele>211.399993896484</ele>
			<time>2014-01-02T13:38:43Z</time>
		</trkpt>
		<trkpt lat="39.5694351196289" lon="2.84909701347351">
			<ele>211</ele>
			<time>2014-01-02T13:38:45Z</time>
		</trkpt>
		<trkpt lat="39.5694808959961" lon="2.8490161895752">
			<ele>211</ele>
			<time>2014-01-02T13:38:47Z</time>
		</trkpt>
		<trkpt lat="39.569507598877" lon="2.84893226623535">
			<ele>211.100006103516</ele>
			<time>2014-01-02T13:38:49Z</time>
		</trkpt>
		<trkpt lat="39.5695190429688" lon="2.84882736206055">
			<ele>211.300003051758</ele>
			<time>2014-01-02T13:38:51Z</time>
		</trkpt>
		<trkpt lat="39.569522857666" lon="2.84873509407043">
			<ele>211.100006103516</ele>
			<time>2014-01-02T13:38:53Z</time>
		</trkpt>
		<trkpt lat="39.5695114135742" lon="2.8486499786377">
			<ele>210.899993896484</ele>
			<time>2014-01-02T13:38:55Z</time>
		</trkpt>
		<trkpt lat="39.5695152282715" lon="2.84856033325195">
			<ele>211.5</ele>
			<time>2014-01-02T13:38:57Z</time>
		</trkpt>
		<trkpt lat="39.5695114135742" lon="2.84848666191101">
			<ele>211.199996948242</ele>
			<time>2014-01-02T13:38:59Z</time>
		</trkpt>
		<trkpt lat="39.5695114135742" lon="2.84841704368591">
			<ele>211.300003051758</ele>
			<time>2014-01-02T13:39:01Z</time>
		</trkpt>
		<trkpt lat="39.569507598877" lon="2.84835505485535">
			<ele>211.100006103516</ele>
			<time>2014-01-02T13:39:03Z</time>
		</trkpt>
		<trkpt lat="39.5695495605469" lon="2.84833955764771">
			<ele>215.600006103516</ele>
			<time>2014-01-02T13:47:27Z</time>
		</trkpt>
		<trkpt lat="39.5695419311523" lon="2.84824776649475">
			<ele>215.199996948242</ele>
			<time>2014-01-02T13:48:19Z</time>
		</trkpt>
		<trkpt lat="39.5695457458496" lon="2.84818148612976">
			<ele>214.699996948242</ele>
			<time>2014-01-02T13:48:21Z</time>
		</trkpt>
		<trkpt lat="39.5695457458496" lon="2.8481080532074">
			<ele>214</ele>
			<time>2014-01-02T13:48:23Z</time>
		</trkpt>
		<trkpt lat="39.5695419311523" lon="2.84802389144897">
			<ele>213.5</ele>
			<time>2014-01-02T13:48:25Z</time>
		</trkpt>
		<trkpt lat="39.5695533752441" lon="2.84793734550476">
			<ele>213.100006103516</ele>
			<time>2014-01-02T13:48:27Z</time>
		</trkpt>
		<trkpt lat="39.5695648193359" lon="2.84784698486328">
			<ele>212.699996948242</ele>
			<time>2014-01-02T13:48:29Z</time>
		</trkpt>
		<trkpt lat="39.5695762634277" lon="2.84775114059448">
			<ele>212.699996948242</ele>
			<time>2014-01-02T13:48:31Z</time>
		</trkpt>
		<trkpt lat="39.5695762634277" lon="2.84764409065247">
			<ele>212.899993896484</ele>
			<time>2014-01-02T13:48:33Z</time>
		</trkpt>
		<trkpt lat="39.5695838928223" lon="2.84754204750061">
			<ele>212.699996948242</ele>
			<time>2014-01-02T13:48:35Z</time>
		</trkpt>
		<trkpt lat="39.5695915222168" lon="2.84743094444275">
			<ele>211.699996948242</ele>
			<time>2014-01-02T13:48:37Z</time>
		</trkpt>
		<trkpt lat="39.5695991516113" lon="2.84731554985046">
			<ele>211.300003051758</ele>
			<time>2014-01-02T13:48:39Z</time>
		</trkpt>
		<trkpt lat="39.5696067810059" lon="2.84725499153137">
			<ele>211</ele>
			<time>2014-01-02T13:48:40Z</time>
		</trkpt>
		<trkpt lat="39.5696105957031" lon="2.84719586372375">
			<ele>210.800003051758</ele>
			<time>2014-01-02T13:48:41Z</time>
		</trkpt>
		<trkpt lat="39.5696144104004" lon="2.84713459014893">
			<ele>210.600006103516</ele>
			<time>2014-01-02T13:48:42Z</time>
		</trkpt>
		<trkpt lat="39.5696220397949" lon="2.84707379341125">
			<ele>210.600006103516</ele>
			<time>2014-01-02T13:48:43Z</time>
		</trkpt>
		<trkpt lat="39.5696182250977" lon="2.84701371192932">
			<ele>210.100006103516</ele>
			<time>2014-01-02T13:48:44Z</time>
		</trkpt>
		<trkpt lat="39.5696220397949" lon="2.8469512462616">
			<ele>210.100006103516</ele>
			<time>2014-01-02T13:48:45Z</time>
		</trkpt>
		<trkpt lat="39.5696220397949" lon="2.84689259529114">
			<ele>209.600006103516</ele>
			<time>2014-01-02T13:48:46Z</time>
		</trkpt>
		<trkpt lat="39.5696220397949" lon="2.84683012962341">
			<ele>209.5</ele>
			<time>2014-01-02T13:48:47Z</time>
		</trkpt>
		<trkpt lat="39.5696258544922" lon="2.8467710018158">
			<ele>209.300003051758</ele>
			<time>2014-01-02T13:48:48Z</time>
		</trkpt>
		<trkpt lat="39.5696296691895" lon="2.84665846824646">
			<ele>208.699996948242</ele>
			<time>2014-01-02T13:48:50Z</time>
		</trkpt>
		<trkpt lat="39.5696258544922" lon="2.84654664993286">
			<ele>208.399993896484</ele>
			<time>2014-01-02T13:48:52Z</time>
		</trkpt>
		<trkpt lat="39.5696258544922" lon="2.84648609161377">
			<ele>208.5</ele>
			<time>2014-01-02T13:48:53Z</time>
		</trkpt>
		<trkpt lat="39.5696296691895" lon="2.84642577171326">
			<ele>208.300003051758</ele>
			<time>2014-01-02T13:48:54Z</time>
		</trkpt>
		<trkpt lat="39.5696334838867" lon="2.84636735916138">
			<ele>208</ele>
			<time>2014-01-02T13:48:55Z</time>
		</trkpt>
		<trkpt lat="39.5696411132813" lon="2.84625434875488">
			<ele>208</ele>
			<time>2014-01-02T13:48:57Z</time>
		</trkpt>
		<trkpt lat="39.5696449279785" lon="2.84614586830139">
			<ele>207.399993896484</ele>
			<time>2014-01-02T13:48:59Z</time>
		</trkpt>
		<trkpt lat="39.5696449279785" lon="2.84603691101074">
			<ele>206.800003051758</ele>
			<time>2014-01-02T13:49:01Z</time>
		</trkpt>
		<trkpt lat="39.5696487426758" lon="2.84592986106873">
			<ele>206.399993896484</ele>
			<time>2014-01-02T13:49:03Z</time>
		</trkpt>
		<trkpt lat="39.5696563720703" lon="2.8458263874054">
			<ele>206.199996948242</ele>
			<time>2014-01-02T13:49:05Z</time>
		</trkpt>
		<trkpt lat="39.5696601867676" lon="2.8457202911377">
			<ele>206.100006103516</ele>
			<time>2014-01-02T13:49:07Z</time>
		</trkpt>
		<trkpt lat="39.5696601867676" lon="2.84561443328857">
			<ele>205.800003051758</ele>
			<time>2014-01-02T13:49:09Z</time>
		</trkpt>
		<trkpt lat="39.5696678161621" lon="2.84551095962524">
			<ele>205.699996948242</ele>
			<time>2014-01-02T13:49:11Z</time>
		</trkpt>
		<trkpt lat="39.5696716308594" lon="2.8454110622406">
			<ele>206.100006103516</ele>
			<time>2014-01-02T13:49:13Z</time>
		</trkpt>
		<trkpt lat="39.5696754455566" lon="2.84531736373901">
			<ele>206.199996948242</ele>
			<time>2014-01-02T13:49:15Z</time>
		</trkpt>
		<trkpt lat="39.5696907043457" lon="2.84522986412048">
			<ele>206.5</ele>
			<time>2014-01-02T13:49:17Z</time>
		</trkpt>
		<trkpt lat="39.5697021484375" lon="2.84513878822327">
			<ele>207</ele>
			<time>2014-01-02T13:49:19Z</time>
		</trkpt>
		<trkpt lat="39.5697059631348" lon="2.84505033493042">
			<ele>206.899993896484</ele>
			<time>2014-01-02T13:49:21Z</time>
		</trkpt>
		<trkpt lat="39.5697174072266" lon="2.84496021270752">
			<ele>207.199996948242</ele>
			<time>2014-01-02T13:49:23Z</time>
		</trkpt>
		<trkpt lat="39.5697288513184" lon="2.84488606452942">
			<ele>207.199996948242</ele>
			<time>2014-01-02T13:49:25Z</time>
		</trkpt>
		<trkpt lat="39.5697364807129" lon="2.84480786323547">
			<ele>207.699996948242</ele>
			<time>2014-01-02T13:49:27Z</time>
		</trkpt>
		<trkpt lat="39.5697441101074" lon="2.84472513198853">
			<ele>207.800003051758</ele>
			<time>2014-01-02T13:49:29Z</time>
		</trkpt>
		<trkpt lat="39.569751739502" lon="2.84463882446289">
			<ele>207.899993896484</ele>
			<time>2014-01-02T13:49:31Z</time>
		</trkpt>
		<trkpt lat="39.5697593688965" lon="2.8445565700531">
			<ele>207.699996948242</ele>
			<time>2014-01-02T13:49:33Z</time>
		</trkpt>
		<trkpt lat="39.569766998291" lon="2.84446883201599">
			<ele>207.699996948242</ele>
			<time>2014-01-02T13:49:35Z</time>
		</trkpt>
		<trkpt lat="39.5697708129883" lon="2.84437847137451">
			<ele>207.199996948242</ele>
			<time>2014-01-02T13:49:37Z</time>
		</trkpt>
		<trkpt lat="39.5697746276855" lon="2.84428358078003">
			<ele>207</ele>
			<time>2014-01-02T13:49:39Z</time>
		</trkpt>
		<trkpt lat="39.5697746276855" lon="2.8441858291626">
			<ele>207.100006103516</ele>
			<time>2014-01-02T13:49:41Z</time>
		</trkpt>
		<trkpt lat="39.5697784423828" lon="2.84407758712769">
			<ele>206.600006103516</ele>
			<time>2014-01-02T13:49:43Z</time>
		</trkpt>
		<trkpt lat="39.5697822570801" lon="2.84397149085999">
			<ele>206</ele>
			<time>2014-01-02T13:49:45Z</time>
		</trkpt>
		<trkpt lat="39.5697898864746" lon="2.84385895729065">
			<ele>205.699996948242</ele>
			<time>2014-01-02T13:49:47Z</time>
		</trkpt>
		<trkpt lat="39.5698013305664" lon="2.84373569488525">
			<ele>205.399993896484</ele>
			<time>2014-01-02T13:49:49Z</time>
		</trkpt>
		<trkpt lat="39.5698051452637" lon="2.84367179870605">
			<ele>205.300003051758</ele>
			<time>2014-01-02T13:49:50Z</time>
		</trkpt>
		<trkpt lat="39.5698051452637" lon="2.84360766410828">
			<ele>204.899993896484</ele>
			<time>2014-01-02T13:49:51Z</time>
		</trkpt>
		<trkpt lat="39.5698089599609" lon="2.84354305267334">
			<ele>204.699996948242</ele>
			<time>2014-01-02T13:49:52Z</time>
		</trkpt>
		<trkpt lat="39.5698127746582" lon="2.84347629547119">
			<ele>204.600006103516</ele>
			<time>2014-01-02T13:49:53Z</time>
		</trkpt>
		<trkpt lat="39.5698165893555" lon="2.84340691566467">
			<ele>204.399993896484</ele>
			<time>2014-01-02T13:49:54Z</time>
		</trkpt>
		<trkpt lat="39.5698204040527" lon="2.84333515167236">
			<ele>204</ele>
			<time>2014-01-02T13:49:55Z</time>
		</trkpt>
		<trkpt lat="39.5698280334473" lon="2.84326195716858">
			<ele>203.699996948242</ele>
			<time>2014-01-02T13:49:56Z</time>
		</trkpt>
		<trkpt lat="39.5698318481445" lon="2.843186378479">
			<ele>203.5</ele>
			<time>2014-01-02T13:49:57Z</time>
		</trkpt>
		<trkpt lat="39.5698356628418" lon="2.84310960769653">
			<ele>203.199996948242</ele>
			<time>2014-01-02T13:49:58Z</time>
		</trkpt>
		<trkpt lat="39.5698394775391" lon="2.84303379058838">
			<ele>203</ele>
			<time>2014-01-02T13:49:59Z</time>
		</trkpt>
		<trkpt lat="39.5698432922363" lon="2.84295701980591">
			<ele>203.100006103516</ele>
			<time>2014-01-02T13:50:00Z</time>
		</trkpt>
		<trkpt lat="39.5698471069336" lon="2.84287619590759">
			<ele>203.100006103516</ele>
			<time>2014-01-02T13:50:01Z</time>
		</trkpt>
		<trkpt lat="39.5698547363281" lon="2.84280037879944">
			<ele>202.800003051758</ele>
			<time>2014-01-02T13:50:02Z</time>
		</trkpt>
		<trkpt lat="39.5698623657227" lon="2.84272336959839">
			<ele>202.800003051758</ele>
			<time>2014-01-02T13:50:03Z</time>
		</trkpt>
		<trkpt lat="39.5698661804199" lon="2.84264373779297">
			<ele>202.600006103516</ele>
			<time>2014-01-02T13:50:04Z</time>
		</trkpt>
		<trkpt lat="39.5698699951172" lon="2.84256625175476">
			<ele>202.300003051758</ele>
			<time>2014-01-02T13:50:05Z</time>
		</trkpt>
		<trkpt lat="39.5698738098145" lon="2.84249091148376">
			<ele>202.199996948242</ele>
			<time>2014-01-02T13:50:06Z</time>
		</trkpt>
		<trkpt lat="39.5698776245117" lon="2.84241580963135">
			<ele>202</ele>
			<time>2014-01-02T13:50:07Z</time>
		</trkpt>
		<trkpt lat="39.569881439209" lon="2.84233975410461">
			<ele>201.800003051758</ele>
			<time>2014-01-02T13:50:08Z</time>
		</trkpt>
		<trkpt lat="39.5698852539063" lon="2.84226894378662">
			<ele>201.5</ele>
			<time>2014-01-02T13:50:09Z</time>
		</trkpt>
		<trkpt lat="39.5698890686035" lon="2.84218764305115">
			<ele>201.199996948242</ele>
			<time>2014-01-02T13:50:10Z</time>
		</trkpt>
		<trkpt lat="39.5698928833008" lon="2.84210634231567">
			<ele>200.899993896484</ele>
			<time>2014-01-02T13:50:11Z</time>
		</trkpt>
		<trkpt lat="39.569896697998" lon="2.84202289581299">
			<ele>200.600006103516</ele>
			<time>2014-01-02T13:50:12Z</time>
		</trkpt>
		<trkpt lat="39.5699005126953" lon="2.84194016456604">
			<ele>200.399993896484</ele>
			<time>2014-01-02T13:50:13Z</time>
		</trkpt>
		<trkpt lat="39.5699005126953" lon="2.84185385704041">
			<ele>199.899993896484</ele>
			<time>2014-01-02T13:50:14Z</time>
		</trkpt>
		<trkpt lat="39.5699043273926" lon="2.84176993370056">
			<ele>199.100006103516</ele>
			<time>2014-01-02T13:50:15Z</time>
		</trkpt>
		<trkpt lat="39.5699119567871" lon="2.8416805267334">
			<ele>199</ele>
			<time>2014-01-02T13:50:16Z</time>
		</trkpt>
		<trkpt lat="39.5699195861816" lon="2.84158992767334">
			<ele>198.600006103516</ele>
			<time>2014-01-02T13:50:17Z</time>
		</trkpt>
		<trkpt lat="39.5699234008789" lon="2.84150266647339">
			<ele>198</ele>
			<time>2014-01-02T13:50:18Z</time>
		</trkpt>
		<trkpt lat="39.5699234008789" lon="2.84141802787781">
			<ele>197.5</ele>
			<time>2014-01-02T13:50:19Z</time>
		</trkpt>
		<trkpt lat="39.5699234008789" lon="2.84132862091064">
			<ele>197.399993896484</ele>
			<time>2014-01-02T13:50:20Z</time>
		</trkpt>
		<trkpt lat="39.5699234008789" lon="2.84123706817627">
			<ele>197.399993896484</ele>
			<time>2014-01-02T13:50:21Z</time>
		</trkpt>
		<trkpt lat="39.5699234008789" lon="2.84114360809326">
			<ele>198.100006103516</ele>
			<time>2014-01-02T13:50:22Z</time>
		</trkpt>
		<trkpt lat="39.5699157714844" lon="2.84105205535889">
			<ele>198.899993896484</ele>
			<time>2014-01-02T13:50:23Z</time>
		</trkpt>
		<trkpt lat="39.5699081420898" lon="2.8409583568573">
			<ele>199.699996948242</ele>
			<time>2014-01-02T13:50:24Z</time>
		</trkpt>
		<trkpt lat="39.5699043273926" lon="2.8408203125">
			<ele>196.399993896484</ele>
			<time>2014-01-02T13:50:26Z</time>
		</trkpt>
		<trkpt lat="39.5699043273926" lon="2.84073328971863">
			<ele>196.699996948242</ele>
			<time>2014-01-02T13:50:27Z</time>
		</trkpt>
		<trkpt lat="39.5699043273926" lon="2.84064865112305">
			<ele>196.199996948242</ele>
			<time>2014-01-02T13:50:28Z</time>
		</trkpt>
		<trkpt lat="39.5699005126953" lon="2.84056901931763">
			<ele>196.399993896484</ele>
			<time>2014-01-02T13:50:29Z</time>
		</trkpt>
		<trkpt lat="39.569896697998" lon="2.84049296379089">
			<ele>195.899993896484</ele>
			<time>2014-01-02T13:50:30Z</time>
		</trkpt>
		<trkpt lat="39.5698928833008" lon="2.84041476249695">
			<ele>195.699996948242</ele>
			<time>2014-01-02T13:50:31Z</time>
		</trkpt>
		<trkpt lat="39.5698890686035" lon="2.84033012390137">
			<ele>196</ele>
			<time>2014-01-02T13:50:32Z</time>
		</trkpt>
		<trkpt lat="39.5698852539063" lon="2.84025478363037">
			<ele>195.300003051758</ele>
			<time>2014-01-02T13:50:33Z</time>
		</trkpt>
		<trkpt lat="39.5698852539063" lon="2.84017419815063">
			<ele>195.300003051758</ele>
			<time>2014-01-02T13:50:34Z</time>
		</trkpt>
		<trkpt lat="39.5698776245117" lon="2.84009337425232">
			<ele>195.199996948242</ele>
			<time>2014-01-02T13:50:35Z</time>
		</trkpt>
		<trkpt lat="39.5698738098145" lon="2.84001779556274">
			<ele>194.800003051758</ele>
			<time>2014-01-02T13:50:36Z</time>
		</trkpt>
		<trkpt lat="39.5698699951172" lon="2.83994007110596">
			<ele>194.600006103516</ele>
			<time>2014-01-02T13:50:37Z</time>
		</trkpt>
		<trkpt lat="39.5698661804199" lon="2.83986067771912">
			<ele>194.600006103516</ele>
			<time>2014-01-02T13:50:38Z</time>
		</trkpt>
		<trkpt lat="39.5698585510254" lon="2.83978748321533">
			<ele>194.399993896484</ele>
			<time>2014-01-02T13:50:39Z</time>
		</trkpt>
		<trkpt lat="39.5698509216309" lon="2.83970928192139">
			<ele>194</ele>
			<time>2014-01-02T13:50:40Z</time>
		</trkpt>
		<trkpt lat="39.5698432922363" lon="2.83963131904602">
			<ele>194</ele>
			<time>2014-01-02T13:50:41Z</time>
		</trkpt>
		<trkpt lat="39.5698394775391" lon="2.83955907821655">
			<ele>194.100006103516</ele>
			<time>2014-01-02T13:50:42Z</time>
		</trkpt>
		<trkpt lat="39.5698356628418" lon="2.83948755264282">
			<ele>194.199996948242</ele>
			<time>2014-01-02T13:50:43Z</time>
		</trkpt>
		<trkpt lat="39.5698280334473" lon="2.83941769599915">
			<ele>194</ele>
			<time>2014-01-02T13:50:44Z</time>
		</trkpt>
		<trkpt lat="39.5698204040527" lon="2.8393497467041">
			<ele>194.100006103516</ele>
			<time>2014-01-02T13:50:45Z</time>
		</trkpt>
		<trkpt lat="39.5698089599609" lon="2.83928036689758">
			<ele>194</ele>
			<time>2014-01-02T13:50:46Z</time>
		</trkpt>
		<trkpt lat="39.5697975158691" lon="2.83921432495117">
			<ele>193.899993896484</ele>
			<time>2014-01-02T13:50:47Z</time>
		</trkpt>
		<trkpt lat="39.5697860717773" lon="2.83914756774902">
			<ele>194.100006103516</ele>
			<time>2014-01-02T13:50:48Z</time>
		</trkpt>
		<trkpt lat="39.5697746276855" lon="2.83908247947693">
			<ele>194.600006103516</ele>
			<time>2014-01-02T13:50:49Z</time>
		</trkpt>
		<trkpt lat="39.5697593688965" lon="2.83901810646057">
			<ele>194.899993896484</ele>
			<time>2014-01-02T13:50:50Z</time>
		</trkpt>
		<trkpt lat="39.5697479248047" lon="2.83895397186279">
			<ele>195</ele>
			<time>2014-01-02T13:50:51Z</time>
		</trkpt>
		<trkpt lat="39.5697326660156" lon="2.83889055252075">
			<ele>195.300003051758</ele>
			<time>2014-01-02T13:50:52Z</time>
		</trkpt>
		<trkpt lat="39.5697212219238" lon="2.83882856369019">
			<ele>195.399993896484</ele>
			<time>2014-01-02T13:50:53Z</time>
		</trkpt>
		<trkpt lat="39.569709777832" lon="2.83876776695251">
			<ele>195.300003051758</ele>
			<time>2014-01-02T13:50:54Z</time>
		</trkpt>
		<trkpt lat="39.5696907043457" lon="2.83870410919189">
			<ele>195.300003051758</ele>
			<time>2014-01-02T13:50:55Z</time>
		</trkpt>
		<trkpt lat="39.5696754455566" lon="2.83864545822144">
			<ele>195.199996948242</ele>
			<time>2014-01-02T13:50:56Z</time>
		</trkpt>
		<trkpt lat="39.5696601867676" lon="2.8385865688324">
			<ele>195.800003051758</ele>
			<time>2014-01-02T13:50:57Z</time>
		</trkpt>
		<trkpt lat="39.5696487426758" lon="2.83852744102478">
			<ele>196</ele>
			<time>2014-01-02T13:50:58Z</time>
		</trkpt>
		<trkpt lat="39.5696334838867" lon="2.83841633796692">
			<ele>196.199996948242</ele>
			<time>2014-01-02T13:51:00Z</time>
		</trkpt>
		<trkpt lat="39.5696182250977" lon="2.8383309841156">
			<ele>196.699996948242</ele>
			<time>2014-01-02T13:51:02Z</time>
		</trkpt>
		<trkpt lat="39.5696029663086" lon="2.83825969696045">
			<ele>196.899993896484</ele>
			<time>2014-01-02T13:51:04Z</time>
		</trkpt>
		<trkpt lat="39.5695915222168" lon="2.83819484710693">
			<ele>196.899993896484</ele>
			<time>2014-01-02T13:51:06Z</time>
		</trkpt>
		<trkpt lat="39.5695686340332" lon="2.83813261985779">
			<ele>196.600006103516</ele>
			<time>2014-01-02T13:51:08Z</time>
		</trkpt>
		<trkpt lat="39.5695457458496" lon="2.83807039260864">
			<ele>196.5</ele>
			<time>2014-01-02T13:51:10Z</time>
		</trkpt>
		<trkpt lat="39.5695266723633" lon="2.83798885345459">
			<ele>195.800003051758</ele>
			<time>2014-01-02T13:51:13Z</time>
		</trkpt>
		<trkpt lat="39.5694999694824" lon="2.8379373550415">
			<ele>196</ele>
			<time>2014-01-02T13:51:15Z</time>
		</trkpt>
		<trkpt lat="39.5694808959961" lon="2.83785653114319">
			<ele>196.199996948242</ele>
			<time>2014-01-02T13:51:18Z</time>
		</trkpt>
		<trkpt lat="39.569450378418" lon="2.83778262138367">
			<ele>196.600006103516</ele>
			<time>2014-01-02T13:51:21Z</time>
		</trkpt>
		<trkpt lat="39.5694313049316" lon="2.83770823478699">
			<ele>197</ele>
			<time>2014-01-02T13:51:24Z</time>
		</trkpt>
		<trkpt lat="39.5694046020508" lon="2.8376350402832">
			<ele>197.199996948242</ele>
			<time>2014-01-02T13:51:27Z</time>
		</trkpt>
		<trkpt lat="39.5693817138672" lon="2.83756446838379">
			<ele>197.600006103516</ele>
			<time>2014-01-02T13:51:30Z</time>
		</trkpt>
		<trkpt lat="39.5693626403809" lon="2.83749079704285">
			<ele>197.800003051758</ele>
			<time>2014-01-02T13:51:33Z</time>
		</trkpt>
		<trkpt lat="39.5693359375" lon="2.83742761611938">
			<ele>198.699996948242</ele>
			<time>2014-01-02T13:51:36Z</time>
		</trkpt>
		<trkpt lat="39.5693130493164" lon="2.83736824989319">
			<ele>198.899993896484</ele>
			<time>2014-01-02T13:51:39Z</time>
		</trkpt>
		<trkpt lat="39.5692901611328" lon="2.83730387687683">
			<ele>199.300003051758</ele>
			<time>2014-01-02T13:51:42Z</time>
		</trkpt>
		<trkpt lat="39.5692672729492" lon="2.83723735809326">
			<ele>199.399993896484</ele>
			<time>2014-01-02T13:51:45Z</time>
		</trkpt>
		<trkpt lat="39.5692443847656" lon="2.8371696472168">
			<ele>199.300003051758</ele>
			<time>2014-01-02T13:51:48Z</time>
		</trkpt>
		<trkpt lat="39.569221496582" lon="2.83710503578186">
			<ele>199.100006103516</ele>
			<time>2014-01-02T13:51:51Z</time>
		</trkpt>
		<trkpt lat="39.5691986083984" lon="2.83703184127808">
			<ele>199</ele>
			<time>2014-01-02T13:51:54Z</time>
		</trkpt>
		<trkpt lat="39.5691757202148" lon="2.83695411682129">
			<ele>198.600006103516</ele>
			<time>2014-01-02T13:51:57Z</time>
		</trkpt>
		<trkpt lat="39.569149017334" lon="2.83687615394592">
			<ele>198.5</ele>
			<time>2014-01-02T13:52:00Z</time>
		</trkpt>
		<trkpt lat="39.5691184997559" lon="2.83680391311646">
			<ele>198.300003051758</ele>
			<time>2014-01-02T13:52:03Z</time>
		</trkpt>
		<trkpt lat="39.5690841674805" lon="2.83672881126404">
			<ele>198.600006103516</ele>
			<time>2014-01-02T13:52:06Z</time>
		</trkpt>
		<trkpt lat="39.5690650939941" lon="2.836674451828">
			<ele>198.300003051758</ele>
			<time>2014-01-02T13:52:08Z</time>
		</trkpt>
		<trkpt lat="39.569034576416" lon="2.83661437034607">
			<ele>198.600006103516</ele>
			<time>2014-01-02T13:52:10Z</time>
		</trkpt>
		<trkpt lat="39.5690040588379" lon="2.83655381202698">
			<ele>198.399993896484</ele>
			<time>2014-01-02T13:52:12Z</time>
		</trkpt>
		<trkpt lat="39.5689735412598" lon="2.83648538589478">
			<ele>198.5</ele>
			<time>2014-01-02T13:52:14Z</time>
		</trkpt>
		<trkpt lat="39.5689315795898" lon="2.83640193939209">
			<ele>198.300003051758</ele>
			<time>2014-01-02T13:52:16Z</time>
		</trkpt>
		<trkpt lat="39.5688705444336" lon="2.83628082275391">
			<ele>198.199996948242</ele>
			<time>2014-01-02T13:52:19Z</time>
		</trkpt>
		<trkpt lat="39.5688362121582" lon="2.83619022369385">
			<ele>198</ele>
			<time>2014-01-02T13:52:21Z</time>
		</trkpt>
		<trkpt lat="39.5688018798828" lon="2.8360960483551">
			<ele>197.600006103516</ele>
			<time>2014-01-02T13:52:23Z</time>
		</trkpt>
		<trkpt lat="39.5687522888184" lon="2.8359477519989">
			<ele>197.899993896484</ele>
			<time>2014-01-02T13:52:26Z</time>
		</trkpt>
		<trkpt lat="39.568717956543" lon="2.83585786819458">
			<ele>197.699996948242</ele>
			<time>2014-01-02T13:52:28Z</time>
		</trkpt>
		<trkpt lat="39.5686798095703" lon="2.83577919006348">
			<ele>197.300003051758</ele>
			<time>2014-01-02T13:52:30Z</time>
		</trkpt>
		<trkpt lat="39.5686378479004" lon="2.83571434020996">
			<ele>198.199996948242</ele>
			<time>2014-01-02T13:52:32Z</time>
		</trkpt>
		<trkpt lat="39.5685844421387" lon="2.83568525314331">
			<ele>197.399993896484</ele>
			<time>2014-01-02T13:52:34Z</time>
		</trkpt>
		<trkpt lat="39.5685386657715" lon="2.83571767807007">
			<ele>199.600006103516</ele>
			<time>2014-01-02T13:52:35Z</time>
		</trkpt>
		<trkpt lat="39.5684776306152" lon="2.83574414253235">
			<ele>200.300003051758</ele>
			<time>2014-01-02T13:52:37Z</time>
		</trkpt>
		<trkpt lat="39.5684204101563" lon="2.83573651313782">
			<ele>200.199996948242</ele>
			<time>2014-01-02T13:52:39Z</time>
		</trkpt>
		<trkpt lat="39.5684356689453" lon="2.83566641807556">
			<ele>199.399993896484</ele>
			<time>2014-01-02T13:52:41Z</time>
		</trkpt>
		<trkpt lat="39.5684776306152" lon="2.83561396598816">
			<ele>199</ele>
			<time>2014-01-02T13:52:43Z</time>
		</trkpt>
		<trkpt lat="39.5685157775879" lon="2.83555340766907">
			<ele>198.399993896484</ele>
			<time>2014-01-02T13:52:45Z</time>
		</trkpt>
		<trkpt lat="39.5685424804688" lon="2.83548331260681">
			<ele>198.399993896484</ele>
			<time>2014-01-02T13:52:47Z</time>
		</trkpt>
		<trkpt lat="39.5685615539551" lon="2.83541393280029">
			<ele>198.100006103516</ele>
			<time>2014-01-02T13:52:49Z</time>
		</trkpt>
		<trkpt lat="39.5685729980469" lon="2.83533883094788">
			<ele>198.100006103516</ele>
			<time>2014-01-02T13:52:51Z</time>
		</trkpt>
		<trkpt lat="39.5685653686523" lon="2.83526492118835">
			<ele>198</ele>
			<time>2014-01-02T13:52:53Z</time>
		</trkpt>
		<trkpt lat="39.5685424804688" lon="2.83519101142883">
			<ele>197.800003051758</ele>
			<time>2014-01-02T13:52:55Z</time>
		</trkpt>
		<trkpt lat="39.5685043334961" lon="2.83512759208679">
			<ele>197.800003051758</ele>
			<time>2014-01-02T13:52:57Z</time>
		</trkpt>
		<trkpt lat="39.5684623718262" lon="2.8350715637207">
			<ele>197.5</ele>
			<time>2014-01-02T13:52:59Z</time>
		</trkpt>
		<trkpt lat="39.5684089660645" lon="2.83502840995789">
			<ele>197.399993896484</ele>
			<time>2014-01-02T13:53:01Z</time>
		</trkpt>
		<trkpt lat="39.5683479309082" lon="2.83500146865845">
			<ele>197.199996948242</ele>
			<time>2014-01-02T13:53:03Z</time>
		</trkpt>
		<trkpt lat="39.5682792663574" lon="2.8349928855896">
			<ele>196.399993896484</ele>
			<time>2014-01-02T13:53:05Z</time>
		</trkpt>
		<trkpt lat="39.5682067871094" lon="2.83498096466064">
			<ele>196.199996948242</ele>
			<time>2014-01-02T13:53:07Z</time>
		</trkpt>
		<trkpt lat="39.5681419372559" lon="2.83493852615356">
			<ele>196.800003051758</ele>
			<time>2014-01-02T13:53:09Z</time>
		</trkpt>
		<trkpt lat="39.5681571960449" lon="2.83487749099731">
			<ele>196.300003051758</ele>
			<time>2014-01-02T13:53:10Z</time>
		</trkpt>
		<trkpt lat="39.5681533813477" lon="2.83479022979736">
			<ele>196.5</ele>
			<time>2014-01-02T13:53:12Z</time>
		</trkpt>
		<trkpt lat="39.5681571960449" lon="2.83471131324768">
			<ele>196.600006103516</ele>
			<time>2014-01-02T13:53:14Z</time>
		</trkpt>
		<trkpt lat="39.5681533813477" lon="2.83463263511658">
			<ele>196.600006103516</ele>
			<time>2014-01-02T13:53:16Z</time>
		</trkpt>
		<trkpt lat="39.5681457519531" lon="2.83455395698547">
			<ele>196.300003051758</ele>
			<time>2014-01-02T13:53:18Z</time>
		</trkpt>
		<trkpt lat="39.5681304931641" lon="2.83448338508606">
			<ele>196.300003051758</ele>
			<time>2014-01-02T13:53:20Z</time>
		</trkpt>
		<trkpt lat="39.5681114196777" lon="2.83441662788391">
			<ele>196.5</ele>
			<time>2014-01-02T13:53:22Z</time>
		</trkpt>
		<trkpt lat="39.5680961608887" lon="2.83434844017029">
			<ele>196.199996948242</ele>
			<time>2014-01-02T13:53:24Z</time>
		</trkpt>
		<trkpt lat="39.5680732727051" lon="2.8342764377594">
			<ele>196.399993896484</ele>
			<time>2014-01-02T13:53:26Z</time>
		</trkpt>
		<trkpt lat="39.5680541992188" lon="2.83420372009277">
			<ele>196.300003051758</ele>
			<time>2014-01-02T13:53:28Z</time>
		</trkpt>
		<trkpt lat="39.5680313110352" lon="2.83413553237915">
			<ele>196.300003051758</ele>
			<time>2014-01-02T13:53:30Z</time>
		</trkpt>
		<trkpt lat="39.5680046081543" lon="2.83407044410706">
			<ele>196.199996948242</ele>
			<time>2014-01-02T13:53:32Z</time>
		</trkpt>
		<trkpt lat="39.5679817199707" lon="2.83400416374207">
			<ele>196.399993896484</ele>
			<time>2014-01-02T13:53:34Z</time>
		</trkpt>
		<trkpt lat="39.5679626464844" lon="2.83393669128418">
			<ele>196.600006103516</ele>
			<time>2014-01-02T13:53:36Z</time>
		</trkpt>
		<trkpt lat="39.567943572998" lon="2.83386921882629">
			<ele>196.5</ele>
			<time>2014-01-02T13:53:38Z</time>
		</trkpt>
		<trkpt lat="39.5679206848145" lon="2.83380246162415">
			<ele>196.600006103516</ele>
			<time>2014-01-02T13:53:40Z</time>
		</trkpt>
		<trkpt lat="39.5679016113281" lon="2.833735704422">
			<ele>196.699996948242</ele>
			<time>2014-01-02T13:53:42Z</time>
		</trkpt>
		<trkpt lat="39.5678901672363" lon="2.8336615562439">
			<ele>196.899993896484</ele>
			<time>2014-01-02T13:53:44Z</time>
		</trkpt>
		<trkpt lat="39.5678825378418" lon="2.8335862159729">
			<ele>197</ele>
			<time>2014-01-02T13:53:46Z</time>
		</trkpt>
		<trkpt lat="39.5678787231445" lon="2.83351063728333">
			<ele>196.800003051758</ele>
			<time>2014-01-02T13:53:48Z</time>
		</trkpt>
		<trkpt lat="39.5678749084473" lon="2.83343243598938">
			<ele>196.5</ele>
			<time>2014-01-02T13:53:50Z</time>
		</trkpt>
		<trkpt lat="39.56787109375" lon="2.83335423469543">
			<ele>196.5</ele>
			<time>2014-01-02T13:53:52Z</time>
		</trkpt>
		<trkpt lat="39.56787109375" lon="2.83327746391296">
			<ele>196.199996948242</ele>
			<time>2014-01-02T13:53:54Z</time>
		</trkpt>
		<trkpt lat="39.56787109375" lon="2.83319497108459">
			<ele>196.100006103516</ele>
			<time>2014-01-02T13:53:56Z</time>
		</trkpt>
		<trkpt lat="39.5678787231445" lon="2.83310627937317">
			<ele>196</ele>
			<time>2014-01-02T13:53:58Z</time>
		</trkpt>
		<trkpt lat="39.5678863525391" lon="2.83301138877869">
			<ele>195.699996948242</ele>
			<time>2014-01-02T13:54:00Z</time>
		</trkpt>
		<trkpt lat="39.5679054260254" lon="2.83291292190552">
			<ele>195</ele>
			<time>2014-01-02T13:54:02Z</time>
		</trkpt>
		<trkpt lat="39.5679244995117" lon="2.83281898498535">
			<ele>195</ele>
			<time>2014-01-02T13:54:04Z</time>
		</trkpt>
		<trkpt lat="39.567943572998" lon="2.83272647857666">
			<ele>195.300003051758</ele>
			<time>2014-01-02T13:54:06Z</time>
		</trkpt>
		<trkpt lat="39.5679702758789" lon="2.83262777328491">
			<ele>195.899993896484</ele>
			<time>2014-01-02T13:54:08Z</time>
		</trkpt>
		<trkpt lat="39.5679969787598" lon="2.83255314826965">
			<ele>195.699996948242</ele>
			<time>2014-01-02T13:54:10Z</time>
		</trkpt>
		<trkpt lat="39.5680351257324" lon="2.83245849609375">
			<ele>194.800003051758</ele>
			<time>2014-01-02T13:54:12Z</time>
		</trkpt>
		<trkpt lat="39.5680694580078" lon="2.83235716819763">
			<ele>194.5</ele>
			<time>2014-01-02T13:54:14Z</time>
		</trkpt>
		<trkpt lat="39.5681114196777" lon="2.83225536346436">
			<ele>194.699996948242</ele>
			<time>2014-01-02T13:54:16Z</time>
		</trkpt>
		<trkpt lat="39.5681419372559" lon="2.83215594291687">
			<ele>194.800003051758</ele>
			<time>2014-01-02T13:54:18Z</time>
		</trkpt>
		<trkpt lat="39.5681533813477" lon="2.83209347724915">
			<ele>194.300003051758</ele>
			<time>2014-01-02T13:54:19Z</time>
		</trkpt>
		<trkpt lat="39.5681762695313" lon="2.83204197883606">
			<ele>194.600006103516</ele>
			<time>2014-01-02T13:54:20Z</time>
		</trkpt>
		<trkpt lat="39.5682144165039" lon="2.83194160461426">
			<ele>194.399993896484</ele>
			<time>2014-01-02T13:54:22Z</time>
		</trkpt>
		<trkpt lat="39.5682525634766" lon="2.83183765411377">
			<ele>194.5</ele>
			<time>2014-01-02T13:54:24Z</time>
		</trkpt>
		<trkpt lat="39.5682907104492" lon="2.83174300193787">
			<ele>194.899993896484</ele>
			<time>2014-01-02T13:54:26Z</time>
		</trkpt>
		<trkpt lat="39.5683326721191" lon="2.8316547870636">
			<ele>195.199996948242</ele>
			<time>2014-01-02T13:54:28Z</time>
		</trkpt>
		<trkpt lat="39.5683708190918" lon="2.83156847953796">
			<ele>194.800003051758</ele>
			<time>2014-01-02T13:54:30Z</time>
		</trkpt>
		<trkpt lat="39.5684127807617" lon="2.83149433135986">
			<ele>194.800003051758</ele>
			<time>2014-01-02T13:54:32Z</time>
		</trkpt>
		<trkpt lat="39.5684509277344" lon="2.83142590522766">
			<ele>194.5</ele>
			<time>2014-01-02T13:54:34Z</time>
		</trkpt>
		<trkpt lat="39.5684967041016" lon="2.83134388923645">
			<ele>194.5</ele>
			<time>2014-01-02T13:54:36Z</time>
		</trkpt>
		<trkpt lat="39.5685195922852" lon="2.83129048347473">
			<ele>194.199996948242</ele>
			<time>2014-01-02T13:54:37Z</time>
		</trkpt>
		<trkpt lat="39.5685577392578" lon="2.83118581771851">
			<ele>193.5</ele>
			<time>2014-01-02T13:54:39Z</time>
		</trkpt>
		<trkpt lat="39.5685806274414" lon="2.83113217353821">
			<ele>192.800003051758</ele>
			<time>2014-01-02T13:54:40Z</time>
		</trkpt>
		<trkpt lat="39.5685997009277" lon="2.83107590675354">
			<ele>192.800003051758</ele>
			<time>2014-01-02T13:54:41Z</time>
		</trkpt>
		<trkpt lat="39.5686264038086" lon="2.83102035522461">
			<ele>192.800003051758</ele>
			<time>2014-01-02T13:54:42Z</time>
		</trkpt>
		<trkpt lat="39.5686531066895" lon="2.83097147941589">
			<ele>192.5</ele>
			<time>2014-01-02T13:54:43Z</time>
		</trkpt>
		<trkpt lat="39.5686798095703" lon="2.83091974258423">
			<ele>192.199996948242</ele>
			<time>2014-01-02T13:54:44Z</time>
		</trkpt>
		<trkpt lat="39.568717956543" lon="2.83087635040283">
			<ele>191.699996948242</ele>
			<time>2014-01-02T13:54:45Z</time>
		</trkpt>
		<trkpt lat="39.5687522888184" lon="2.83082675933838">
			<ele>191.699996948242</ele>
			<time>2014-01-02T13:54:46Z</time>
		</trkpt>
		<trkpt lat="39.5687828063965" lon="2.83078026771545">
			<ele>191.300003051758</ele>
			<time>2014-01-02T13:54:47Z</time>
		</trkpt>
		<trkpt lat="39.5688247680664" lon="2.83073401451111">
			<ele>191.100006103516</ele>
			<time>2014-01-02T13:54:48Z</time>
		</trkpt>
		<trkpt lat="39.5688552856445" lon="2.83068323135376">
			<ele>191</ele>
			<time>2014-01-02T13:54:49Z</time>
		</trkpt>
		<trkpt lat="39.5688972473145" lon="2.83063578605652">
			<ele>190.800003051758</ele>
			<time>2014-01-02T13:54:50Z</time>
		</trkpt>
		<trkpt lat="39.5689392089844" lon="2.8305926322937">
			<ele>190.399993896484</ele>
			<time>2014-01-02T13:54:51Z</time>
		</trkpt>
		<trkpt lat="39.5689811706543" lon="2.83054637908936">
			<ele>190.100006103516</ele>
			<time>2014-01-02T13:54:52Z</time>
		</trkpt>
		<trkpt lat="39.5690269470215" lon="2.83049917221069">
			<ele>189.800003051758</ele>
			<time>2014-01-02T13:54:53Z</time>
		</trkpt>
		<trkpt lat="39.5690689086914" lon="2.83045101165771">
			<ele>189.399993896484</ele>
			<time>2014-01-02T13:54:56Z</time>
		</trkpt>
		<trkpt lat="39.5692100524902" lon="2.83029270172119">
			<ele>188.5</ele>
			<time>2014-01-02T13:54:57Z</time>
		</trkpt>
		<trkpt lat="39.5692596435547" lon="2.83023524284363">
			<ele>188.600006103516</ele>
			<time>2014-01-02T13:54:58Z</time>
		</trkpt>
		<trkpt lat="39.5693130493164" lon="2.83018159866333">
			<ele>188.399993896484</ele>
			<time>2014-01-02T13:55:00Z</time>
		</trkpt>
		<trkpt lat="39.5693588256836" lon="2.83012461662292">
			<ele>188.100006103516</ele>
			<time>2014-01-02T13:55:01Z</time>
		</trkpt>
		<trkpt lat="39.5694427490234" lon="2.82999014854431">
			<ele>187.100006103516</ele>
			<time>2014-01-02T13:55:02Z</time>
		</trkpt>
		<trkpt lat="39.5694923400879" lon="2.8299241065979">
			<ele>186.300003051758</ele>
			<time>2014-01-02T13:55:03Z</time>
		</trkpt>
		<trkpt lat="39.5695381164551" lon="2.82985806465149">
			<ele>186</ele>
			<time>2014-01-02T13:55:04Z</time>
		</trkpt>
		<trkpt lat="39.5695915222168" lon="2.82979369163513">
			<ele>185.600006103516</ele>
			<time>2014-01-02T13:55:05Z</time>
		</trkpt>
		<trkpt lat="39.5696449279785" lon="2.82972693443298">
			<ele>185.399993896484</ele>
			<time>2014-01-02T13:55:06Z</time>
		</trkpt>
		<trkpt lat="39.569694519043" lon="2.82966446876526">
			<ele>185.199996948242</ele>
			<time>2014-01-02T13:55:07Z</time>
		</trkpt>
		<trkpt lat="39.5697479248047" lon="2.82960200309753">
			<ele>185.100006103516</ele>
			<time>2014-01-02T13:55:08Z</time>
		</trkpt>
		<trkpt lat="39.5698013305664" lon="2.82954049110413">
			<ele>184.600006103516</ele>
			<time>2014-01-02T13:55:09Z</time>
		</trkpt>
		<trkpt lat="39.5698547363281" lon="2.82947611808777">
			<ele>184.199996948242</ele>
			<time>2014-01-02T13:55:10Z</time>
		</trkpt>
		<trkpt lat="39.5699005126953" lon="2.82941436767578">
			<ele>183.800003051758</ele>
			<time>2014-01-02T13:55:11Z</time>
		</trkpt>
		<trkpt lat="39.5699501037598" lon="2.82935547828674">
			<ele>183.600006103516</ele>
			<time>2014-01-02T13:55:12Z</time>
		</trkpt>
		<trkpt lat="39.5699996948242" lon="2.82929801940918">
			<ele>183.100006103516</ele>
			<time>2014-01-02T13:55:13Z</time>
		</trkpt>
		<trkpt lat="39.5700454711914" lon="2.82923984527588">
			<ele>183.100006103516</ele>
			<time>2014-01-02T13:55:14Z</time>
		</trkpt>
		<trkpt lat="39.5700912475586" lon="2.82918214797974">
			<ele>183</ele>
			<time>2014-01-02T13:55:15Z</time>
		</trkpt>
		<trkpt lat="39.570140838623" lon="2.82912397384644">
			<ele>182.899993896484</ele>
			<time>2014-01-02T13:55:16Z</time>
		</trkpt>
		<trkpt lat="39.5701866149902" lon="2.82906532287598">
			<ele>182.800003051758</ele>
			<time>2014-01-02T13:55:17Z</time>
		</trkpt>
		<trkpt lat="39.5702285766602" lon="2.82900953292847">
			<ele>182.600006103516</ele>
			<time>2014-01-02T13:55:18Z</time>
		</trkpt>
		<trkpt lat="39.5702743530273" lon="2.82895493507385">
			<ele>182.399993896484</ele>
			<time>2014-01-02T13:55:19Z</time>
		</trkpt>
		<trkpt lat="39.5703163146973" lon="2.82890200614929">
			<ele>182.5</ele>
			<time>2014-01-02T13:55:20Z</time>
		</trkpt>
		<trkpt lat="39.5703620910645" lon="2.82884764671326">
			<ele>182.300003051758</ele>
			<time>2014-01-02T13:55:21Z</time>
		</trkpt>
		<trkpt lat="39.5704040527344" lon="2.8287947177887">
			<ele>182.100006103516</ele>
			<time>2014-01-02T13:55:22Z</time>
		</trkpt>
		<trkpt lat="39.5704498291016" lon="2.82874226570129">
			<ele>182.100006103516</ele>
			<time>2014-01-02T13:55:23Z</time>
		</trkpt>
		<trkpt lat="39.5704917907715" lon="2.82869029045105">
			<ele>182</ele>
			<time>2014-01-02T13:55:24Z</time>
		</trkpt>
		<trkpt lat="39.5705299377441" lon="2.82864689826965">
			<ele>182.199996948242</ele>
			<time>2014-01-02T13:55:25Z</time>
		</trkpt>
		<trkpt lat="39.5705871582031" lon="2.82857704162598">
			<ele>182.100006103516</ele>
			<time>2014-01-02T13:55:27Z</time>
		</trkpt>
		<trkpt lat="39.570629119873" lon="2.82853055000305">
			<ele>182</ele>
			<time>2014-01-02T13:55:30Z</time>
		</trkpt>
		<trkpt lat="39.5707054138184" lon="2.82842755317688">
			<ele>181</ele>
			<time>2014-01-02T13:58:49Z</time>
		</trkpt>
		<trkpt lat="39.5707511901855" lon="2.82837009429932">
			<ele>180.800003051758</ele>
			<time>2014-01-02T13:58:51Z</time>
		</trkpt>
		<trkpt lat="39.57080078125" lon="2.82828593254089">
			<ele>180.899993896484</ele>
			<time>2014-01-02T13:58:52Z</time>
		</trkpt>
		<trkpt lat="39.5708465576172" lon="2.82822418212891">
			<ele>180.699996948242</ele>
			<time>2014-01-02T13:58:56Z</time>
		</trkpt>
		<trkpt lat="39.5708923339844" lon="2.82813906669617">
			<ele>181.199996948242</ele>
			<time>2014-01-02T13:59:01Z</time>
		</trkpt>
		<trkpt lat="39.5709228515625" lon="2.82807445526123">
			<ele>181.600006103516</ele>
			<time>2014-01-02T13:59:03Z</time>
		</trkpt>
		<trkpt lat="39.5709800720215" lon="2.82798767089844">
			<ele>181.899993896484</ele>
			<time>2014-01-02T13:59:06Z</time>
		</trkpt>
		<trkpt lat="39.5710182189941" lon="2.82791376113892">
			<ele>182.100006103516</ele>
			<time>2014-01-02T13:59:10Z</time>
		</trkpt>
		<trkpt lat="39.5710678100586" lon="2.82781147956848">
			<ele>182.899993896484</ele>
			<time>2014-01-02T13:59:14Z</time>
		</trkpt>
		<trkpt lat="39.5710906982422" lon="2.82775592803955">
			<ele>183.300003051758</ele>
			<time>2014-01-02T13:59:16Z</time>
		</trkpt>
		<trkpt lat="39.5711364746094" lon="2.82766723632813">
			<ele>183.699996948242</ele>
			<time>2014-01-02T13:59:19Z</time>
		</trkpt>
		<trkpt lat="39.5711708068848" lon="2.82758808135986">
			<ele>182.899993896484</ele>
			<time>2014-01-02T13:59:23Z</time>
		</trkpt>
		<trkpt lat="39.5712013244629" lon="2.82750940322876">
			<ele>183.300003051758</ele>
			<time>2014-01-02T13:59:26Z</time>
		</trkpt>
		<trkpt lat="39.571231842041" lon="2.82745242118835">
			<ele>183.100006103516</ele>
			<time>2014-01-02T13:59:28Z</time>
		</trkpt>
		<trkpt lat="39.5712623596191" lon="2.82738208770752">
			<ele>183.199996948242</ele>
			<time>2014-01-02T13:59:30Z</time>
		</trkpt>
		<trkpt lat="39.5713081359863" lon="2.82726335525513">
			<ele>182.899993896484</ele>
			<time>2014-01-02T13:59:33Z</time>
		</trkpt>
		<trkpt lat="39.5713539123535" lon="2.82713079452515">
			<ele>182.699996948242</ele>
			<time>2014-01-02T13:59:35Z</time>
		</trkpt>
		<trkpt lat="39.5713768005371" lon="2.8270742893219">
			<ele>183.199996948242</ele>
			<time>2014-01-02T13:59:36Z</time>
		</trkpt>
		<trkpt lat="39.5714149475098" lon="2.82699370384216">
			<ele>182</ele>
			<time>2014-01-02T13:59:38Z</time>
		</trkpt>
		<trkpt lat="39.5714492797852" lon="2.82689237594604">
			<ele>181.800003051758</ele>
			<time>2014-01-02T13:59:40Z</time>
		</trkpt>
		<trkpt lat="39.5714797973633" lon="2.82678842544556">
			<ele>181.899993896484</ele>
			<time>2014-01-02T13:59:42Z</time>
		</trkpt>
		<trkpt lat="39.5714988708496" lon="2.82673120498657">
			<ele>181.899993896484</ele>
			<time>2014-01-02T13:59:44Z</time>
		</trkpt>
		<trkpt lat="39.5715179443359" lon="2.82666993141174">
			<ele>181.800003051758</ele>
			<time>2014-01-02T13:59:44Z</time>
		</trkpt>
		<trkpt lat="39.5715522766113" lon="2.82655501365662">
			<ele>181.199996948242</ele>
			<time>2014-01-02T13:59:46Z</time>
		</trkpt>
		<trkpt lat="39.5715675354004" lon="2.82649827003479">
			<ele>181.399993896484</ele>
			<time>2014-01-02T13:59:47Z</time>
		</trkpt>
		<trkpt lat="39.5715827941895" lon="2.82643747329712">
			<ele>181.5</ele>
			<time>2014-01-02T13:59:48Z</time>
		</trkpt>
		<trkpt lat="39.5716018676758" lon="2.82637190818787">
			<ele>181.600006103516</ele>
			<time>2014-01-02T13:59:49Z</time>
		</trkpt>
		<trkpt lat="39.5716133117676" lon="2.82630228996277">
			<ele>181.399993896484</ele>
			<time>2014-01-02T13:59:50Z</time>
		</trkpt>
		<trkpt lat="39.5716323852539" lon="2.82624316215515">
			<ele>181.399993896484</ele>
			<time>2014-01-02T13:59:51Z</time>
		</trkpt>
		<trkpt lat="39.571647644043" lon="2.82618546485901">
			<ele>181.5</ele>
			<time>2014-01-02T13:59:52Z</time>
		</trkpt>
		<trkpt lat="39.571662902832" lon="2.8261194229126">
			<ele>181.300003051758</ele>
			<time>2014-01-02T13:59:53Z</time>
		</trkpt>
		<trkpt lat="39.5716819763184" lon="2.82605791091919">
			<ele>181.399993896484</ele>
			<time>2014-01-02T13:59:54Z</time>
		</trkpt>
		<trkpt lat="39.5716972351074" lon="2.82599234580994">
			<ele>181</ele>
			<time>2014-01-02T13:59:55Z</time>
		</trkpt>
		<trkpt lat="39.5717124938965" lon="2.82593035697937">
			<ele>180.800003051758</ele>
			<time>2014-01-02T13:59:57Z</time>
		</trkpt>
		<trkpt lat="39.5717239379883" lon="2.82586479187012">
			<ele>180.899993896484</ele>
			<time>2014-01-02T13:59:57Z</time>
		</trkpt>
		<trkpt lat="39.5717353820801" lon="2.82579708099365">
			<ele>180.699996948242</ele>
			<time>2014-01-02T13:59:58Z</time>
		</trkpt>
		<trkpt lat="39.5717468261719" lon="2.82573461532593">
			<ele>180.300003051758</ele>
			<time>2014-01-02T14:00:00Z</time>
		</trkpt>
		<trkpt lat="39.5717735290527" lon="2.82561206817627">
			<ele>180.100006103516</ele>
			<time>2014-01-02T14:00:01Z</time>
		</trkpt>
		<trkpt lat="39.5717887878418" lon="2.82554340362549">
			<ele>180</ele>
			<time>2014-01-02T14:00:02Z</time>
		</trkpt>
		<trkpt lat="39.5718040466309" lon="2.82546925544739">
			<ele>179.399993896484</ele>
			<time>2014-01-02T14:00:03Z</time>
		</trkpt>
		<trkpt lat="39.5718193054199" lon="2.82539677619934">
			<ele>179.300003051758</ele>
			<time>2014-01-02T14:00:04Z</time>
		</trkpt>
		<trkpt lat="39.571834564209" lon="2.82532119750977">
			<ele>179.199996948242</ele>
			<time>2014-01-02T14:00:05Z</time>
		</trkpt>
		<trkpt lat="39.571849822998" lon="2.8252489566803">
			<ele>179.199996948242</ele>
			<time>2014-01-02T14:00:06Z</time>
		</trkpt>
		<trkpt lat="39.5718650817871" lon="2.82517838478088">
			<ele>178.899993896484</ele>
			<time>2014-01-02T14:00:07Z</time>
		</trkpt>
		<trkpt lat="39.5718765258789" lon="2.82509803771973">
			<ele>178.800003051758</ele>
			<time>2014-01-02T14:00:08Z</time>
		</trkpt>
		<trkpt lat="39.5718803405762" lon="2.82502269744873">
			<ele>178.699996948242</ele>
			<time>2014-01-02T14:00:09Z</time>
		</trkpt>
		<trkpt lat="39.571891784668" lon="2.82494282722473">
			<ele>178.399993896484</ele>
			<time>2014-01-02T14:00:10Z</time>
		</trkpt>
		<trkpt lat="39.5718994140625" lon="2.82486438751221">
			<ele>178.199996948242</ele>
			<time>2014-01-02T14:00:11Z</time>
		</trkpt>
		<trkpt lat="39.5719108581543" lon="2.82479095458984">
			<ele>177.800003051758</ele>
			<time>2014-01-02T14:00:12Z</time>
		</trkpt>
		<trkpt lat="39.5719223022461" lon="2.82471632957458">
			<ele>177.699996948242</ele>
			<time>2014-01-02T14:00:13Z</time>
		</trkpt>
		<trkpt lat="39.5719299316406" lon="2.82464504241943">
			<ele>177.699996948242</ele>
			<time>2014-01-02T14:00:14Z</time>
		</trkpt>
		<trkpt lat="39.5719413757324" lon="2.82457518577576">
			<ele>177.199996948242</ele>
			<time>2014-01-02T14:00:15Z</time>
		</trkpt>
		<trkpt lat="39.5719528198242" lon="2.82450461387634">
			<ele>177.199996948242</ele>
			<time>2014-01-02T14:00:16Z</time>
		</trkpt>
		<trkpt lat="39.5719604492188" lon="2.82443380355835">
			<ele>177.100006103516</ele>
			<time>2014-01-02T14:00:17Z</time>
		</trkpt>
		<trkpt lat="39.5719680786133" lon="2.82436323165894">
			<ele>177</ele>
			<time>2014-01-02T14:00:18Z</time>
		</trkpt>
		<trkpt lat="39.5719718933105" lon="2.824294090271">
			<ele>176.800003051758</ele>
			<time>2014-01-02T14:00:19Z</time>
		</trkpt>
		<trkpt lat="39.5719795227051" lon="2.8242301940918">
			<ele>176.600006103516</ele>
			<time>2014-01-02T14:00:20Z</time>
		</trkpt>
		<trkpt lat="39.5719833374023" lon="2.8241662979126">
			<ele>176.399993896484</ele>
			<time>2014-01-02T14:00:21Z</time>
		</trkpt>
		<trkpt lat="39.5719833374023" lon="2.82409620285034">
			<ele>176.5</ele>
			<time>2014-01-02T14:00:22Z</time>
		</trkpt>
		<trkpt lat="39.5719947814941" lon="2.82403635978699">
			<ele>176.100006103516</ele>
			<time>2014-01-02T14:00:23Z</time>
		</trkpt>
		<trkpt lat="39.5719985961914" lon="2.82392144203186">
			<ele>176.100006103516</ele>
			<time>2014-01-02T14:00:25Z</time>
		</trkpt>
		<trkpt lat="39.5720024108887" lon="2.82380938529968">
			<ele>175.899993896484</ele>
			<time>2014-01-02T14:00:27Z</time>
		</trkpt>
		<trkpt lat="39.5720100402832" lon="2.82370018959045">
			<ele>175.899993896484</ele>
			<time>2014-01-02T14:00:29Z</time>
		</trkpt>
		<trkpt lat="39.5720062255859" lon="2.8235912322998">
			<ele>175.800003051758</ele>
			<time>2014-01-02T14:00:31Z</time>
		</trkpt>
		<trkpt lat="39.5720100402832" lon="2.82348370552063">
			<ele>175.5</ele>
			<time>2014-01-02T14:00:33Z</time>
		</trkpt>
		<trkpt lat="39.5720100402832" lon="2.82337713241577">
			<ele>175.100006103516</ele>
			<time>2014-01-02T14:00:35Z</time>
		</trkpt>
		<trkpt lat="39.5720100402832" lon="2.82327437400818">
			<ele>175.300003051758</ele>
			<time>2014-01-02T14:00:37Z</time>
		</trkpt>
		<trkpt lat="39.5720100402832" lon="2.82316946983337">
			<ele>174.800003051758</ele>
			<time>2014-01-02T14:00:39Z</time>
		</trkpt>
		<trkpt lat="39.5720138549805" lon="2.82305717468262">
			<ele>174.199996948242</ele>
			<time>2014-01-02T14:00:41Z</time>
		</trkpt>
		<trkpt lat="39.5720176696777" lon="2.82299590110779">
			<ele>174</ele>
			<time>2014-01-02T14:00:42Z</time>
		</trkpt>
		<trkpt lat="39.5720176696777" lon="2.82292532920837">
			<ele>173.699996948242</ele>
			<time>2014-01-02T14:00:43Z</time>
		</trkpt>
		<trkpt lat="39.5720176696777" lon="2.8228554725647">
			<ele>173.199996948242</ele>
			<time>2014-01-02T14:00:44Z</time>
		</trkpt>
		<trkpt lat="39.5720176696777" lon="2.82278418540955">
			<ele>172.800003051758</ele>
			<time>2014-01-02T14:00:45Z</time>
		</trkpt>
		<trkpt lat="39.5720176696777" lon="2.82271122932434">
			<ele>172.300003051758</ele>
			<time>2014-01-02T14:00:46Z</time>
		</trkpt>
		<trkpt lat="39.5720176696777" lon="2.8226363658905">
			<ele>171.899993896484</ele>
			<time>2014-01-02T14:00:47Z</time>
		</trkpt>
		<trkpt lat="39.5720176696777" lon="2.82255887985229">
			<ele>171.800003051758</ele>
			<time>2014-01-02T14:00:48Z</time>
		</trkpt>
		<trkpt lat="39.5720138549805" lon="2.82248020172119">
			<ele>171.699996948242</ele>
			<time>2014-01-02T14:00:49Z</time>
		</trkpt>
		<trkpt lat="39.5720100402832" lon="2.82239627838135">
			<ele>171.399993896484</ele>
			<time>2014-01-02T14:00:50Z</time>
		</trkpt>
		<trkpt lat="39.5720062255859" lon="2.82231259346008">
			<ele>171.100006103516</ele>
			<time>2014-01-02T14:00:51Z</time>
		</trkpt>
		<trkpt lat="39.5719947814941" lon="2.82223439216614">
			<ele>170.699996948242</ele>
			<time>2014-01-02T14:00:52Z</time>
		</trkpt>
		<trkpt lat="39.5719795227051" lon="2.82215738296509">
			<ele>170.600006103516</ele>
			<time>2014-01-02T14:00:53Z</time>
		</trkpt>
		<trkpt lat="39.5719604492188" lon="2.82208561897278">
			<ele>170.5</ele>
			<time>2014-01-02T14:00:54Z</time>
		</trkpt>
		<trkpt lat="39.5719261169434" lon="2.82201552391052">
			<ele>169.800003051758</ele>
			<time>2014-01-02T14:00:55Z</time>
		</trkpt>
		<trkpt lat="39.5718994140625" lon="2.82194399833679">
			<ele>169</ele>
			<time>2014-01-02T14:00:56Z</time>
		</trkpt>
		<trkpt lat="39.5718688964844" lon="2.82187056541443">
			<ele>168.300003051758</ele>
			<time>2014-01-02T14:00:57Z</time>
		</trkpt>
		<trkpt lat="39.571834564209" lon="2.82178902626038">
			<ele>167.899993896484</ele>
			<time>2014-01-02T14:00:58Z</time>
		</trkpt>
		<trkpt lat="39.5718002319336" lon="2.82170724868774">
			<ele>167.899993896484</ele>
			<time>2014-01-02T14:00:59Z</time>
		</trkpt>
		<trkpt lat="39.5717811584473" lon="2.82162570953369">
			<ele>166.600006103516</ele>
			<time>2014-01-02T14:01:00Z</time>
		</trkpt>
		<trkpt lat="39.5717544555664" lon="2.82153415679932">
			<ele>165.899993896484</ele>
			<time>2014-01-02T14:01:01Z</time>
		</trkpt>
		<trkpt lat="39.5717544555664" lon="2.82145524024963">
			<ele>166.399993896484</ele>
			<time>2014-01-02T14:01:02Z</time>
		</trkpt>
		<trkpt lat="39.5717849731445" lon="2.82140612602234">
			<ele>166.5</ele>
			<time>2014-01-02T14:01:03Z</time>
		</trkpt>
		<trkpt lat="39.5718078613281" lon="2.82134389877319">
			<ele>166.5</ele>
			<time>2014-01-02T14:01:04Z</time>
		</trkpt>
		<trkpt lat="39.5718307495117" lon="2.82124185562134">
			<ele>166.399993896484</ele>
			<time>2014-01-02T14:01:06Z</time>
		</trkpt>
		<trkpt lat="39.5718536376953" lon="2.8211407661438">
			<ele>165.800003051758</ele>
			<time>2014-01-02T14:01:08Z</time>
		</trkpt>
		<trkpt lat="39.5718650817871" lon="2.82103776931763">
			<ele>165.5</ele>
			<time>2014-01-02T14:01:10Z</time>
		</trkpt>
		<trkpt lat="39.5718650817871" lon="2.82093453407288">
			<ele>165.399993896484</ele>
			<time>2014-01-02T14:01:12Z</time>
		</trkpt>
		<trkpt lat="39.5718421936035" lon="2.82083034515381">
			<ele>165.100006103516</ele>
			<time>2014-01-02T14:01:14Z</time>
		</trkpt>
		<trkpt lat="39.5718307495117" lon="2.82077145576477">
			<ele>165</ele>
			<time>2014-01-02T14:01:15Z</time>
		</trkpt>
		<trkpt lat="39.5718193054199" lon="2.82070851325989">
			<ele>165</ele>
			<time>2014-01-02T14:01:16Z</time>
		</trkpt>
		<trkpt lat="39.5718078613281" lon="2.82064652442932">
			<ele>164.600006103516</ele>
			<time>2014-01-02T14:01:17Z</time>
		</trkpt>
		<trkpt lat="39.5717964172363" lon="2.82058191299438">
			<ele>164.300003051758</ele>
			<time>2014-01-02T14:01:18Z</time>
		</trkpt>
		<trkpt lat="39.5717849731445" lon="2.82051491737366">
			<ele>163.699996948242</ele>
			<time>2014-01-02T14:01:19Z</time>
		</trkpt>
		<trkpt lat="39.57177734375" lon="2.82044553756714">
			<ele>163.300003051758</ele>
			<time>2014-01-02T14:01:20Z</time>
		</trkpt>
		<trkpt lat="39.5717658996582" lon="2.82037734985352">
			<ele>163</ele>
			<time>2014-01-02T14:01:21Z</time>
		</trkpt>
		<trkpt lat="39.5717544555664" lon="2.820307970047">
			<ele>162.699996948242</ele>
			<time>2014-01-02T14:01:22Z</time>
		</trkpt>
		<trkpt lat="39.5717430114746" lon="2.82024240493774">
			<ele>162.100006103516</ele>
			<time>2014-01-02T14:01:23Z</time>
		</trkpt>
		<trkpt lat="39.5717315673828" lon="2.8201801776886">
			<ele>161.699996948242</ele>
			<time>2014-01-02T14:01:24Z</time>
		</trkpt>
		<trkpt lat="39.5717239379883" lon="2.82011651992798">
			<ele>161.600006103516</ele>
			<time>2014-01-02T14:01:25Z</time>
		</trkpt>
		<trkpt lat="39.5717124938965" lon="2.82000946998596">
			<ele>162.100006103516</ele>
			<time>2014-01-02T14:01:27Z</time>
		</trkpt>
		<trkpt lat="39.5717010498047" lon="2.81992959976196">
			<ele>161.600006103516</ele>
			<time>2014-01-02T14:01:29Z</time>
		</trkpt>
		<trkpt lat="39.5716934204102" lon="2.81986331939697">
			<ele>160.899993896484</ele>
			<time>2014-01-02T14:01:31Z</time>
		</trkpt>
		<trkpt lat="39.5716819763184" lon="2.81978607177734">
			<ele>161.5</ele>
			<time>2014-01-02T14:01:33Z</time>
		</trkpt>
		<trkpt lat="39.5716743469238" lon="2.81971192359924">
			<ele>160.800003051758</ele>
			<time>2014-01-02T14:01:35Z</time>
		</trkpt>
		<trkpt lat="39.5716667175293" lon="2.81965088844299">
			<ele>160.600006103516</ele>
			<time>2014-01-02T14:01:37Z</time>
		</trkpt>
		<trkpt lat="39.5716590881348" lon="2.81957340240479">
			<ele>157.5</ele>
			<time>2014-01-02T14:02:58Z</time>
		</trkpt>
		<trkpt lat="39.5716323852539" lon="2.81938457489014">
			<ele>155.199996948242</ele>
			<time>2014-01-02T14:03:00Z</time>
		</trkpt>
		<trkpt lat="39.5716094970703" lon="2.81922125816345">
			<ele>154</ele>
			<time>2014-01-02T14:03:01Z</time>
		</trkpt>
		<trkpt lat="39.5715980529785" lon="2.81914138793945">
			<ele>154</ele>
			<time>2014-01-02T14:03:05Z</time>
		</trkpt>
		<trkpt lat="39.5715255737305" lon="2.81873273849487">
			<ele>152.399993896484</ele>
			<time>2014-01-02T14:03:07Z</time>
		</trkpt>
		<trkpt lat="39.5715026855469" lon="2.81853818893433">
			<ele>151.800003051758</ele>
			<time>2014-01-02T14:03:14Z</time>
		</trkpt>
		<trkpt lat="39.5714836120605" lon="2.81841135025024">
			<ele>150.800003051758</ele>
			<time>2014-01-02T14:03:14Z</time>
		</trkpt>
		<trkpt lat="39.5714225769043" lon="2.81819462776184">
			<ele>149.699996948242</ele>
			<time>2014-01-02T14:03:14Z</time>
		</trkpt>
		<trkpt lat="39.5713310241699" lon="2.81800127029419">
			<ele>148.800003051758</ele>
			<time>2014-01-02T14:03:14Z</time>
		</trkpt>
		<trkpt lat="39.5712814331055" lon="2.81790471076965">
			<ele>148.100006103516</ele>
			<time>2014-01-02T14:03:14Z</time>
		</trkpt>
		<trkpt lat="39.571231842041" lon="2.81781435012817">
			<ele>146.800003051758</ele>
			<time>2014-01-02T14:03:15Z</time>
		</trkpt>
		<trkpt lat="39.5711784362793" lon="2.81772351264954">
			<ele>146.199996948242</ele>
			<time>2014-01-02T14:03:17Z</time>
		</trkpt>
		<trkpt lat="39.5710563659668" lon="2.81755661964417">
			<ele>146.300003051758</ele>
			<time>2014-01-02T14:03:19Z</time>
		</trkpt>
		<trkpt lat="39.5709266662598" lon="2.81739544868469">
			<ele>145.699996948242</ele>
			<time>2014-01-02T14:03:21Z</time>
		</trkpt>
		<trkpt lat="39.5707969665527" lon="2.81726408004761">
			<ele>143.199996948242</ele>
			<time>2014-01-02T14:03:23Z</time>
		</trkpt>
		<trkpt lat="39.5707054138184" lon="2.8171079158783">
			<ele>141.899993896484</ele>
			<time>2014-01-02T14:03:25Z</time>
		</trkpt>
		<trkpt lat="39.570743560791" lon="2.81692409515381">
			<ele>138.899993896484</ele>
			<time>2014-01-02T14:03:27Z</time>
		</trkpt>
		<trkpt lat="39.5709037780762" lon="2.81687331199646">
			<ele>137.699996948242</ele>
			<time>2014-01-02T14:03:29Z</time>
		</trkpt>
		<trkpt lat="39.5710487365723" lon="2.81686305999756">
			<ele>137.199996948242</ele>
			<time>2014-01-02T14:03:30Z</time>
		</trkpt>
		<trkpt lat="39.5711212158203" lon="2.81686091423035">
			<ele>136.5</ele>
			<time>2014-01-02T14:03:31Z</time>
		</trkpt>
		<trkpt lat="39.5711936950684" lon="2.81682896614075">
			<ele>135.600006103516</ele>
			<time>2014-01-02T14:03:32Z</time>
		</trkpt>
		<trkpt lat="39.5712432861328" lon="2.81675744056702">
			<ele>135.5</ele>
			<time>2014-01-02T14:03:33Z</time>
		</trkpt>
		<trkpt lat="39.5712547302246" lon="2.81666731834412">
			<ele>135.399993896484</ele>
			<time>2014-01-02T14:03:34Z</time>
		</trkpt>
		<trkpt lat="39.5712585449219" lon="2.81658530235291">
			<ele>135.300003051758</ele>
			<time>2014-01-02T14:03:35Z</time>
		</trkpt>
		<trkpt lat="39.5712394714355" lon="2.81650257110596">
			<ele>135.399993896484</ele>
			<time>2014-01-02T14:03:36Z</time>
		</trkpt>
		<trkpt lat="39.571216583252" lon="2.81642580032349">
			<ele>135.699996948242</ele>
			<time>2014-01-02T14:03:37Z</time>
		</trkpt>
		<trkpt lat="39.5712127685547" lon="2.81634902954102">
			<ele>135.300003051758</ele>
			<time>2014-01-02T14:03:38Z</time>
		</trkpt>
		<trkpt lat="39.5711975097656" lon="2.81626272201538">
			<ele>135.5</ele>
			<time>2014-01-02T14:03:39Z</time>
		</trkpt>
		<trkpt lat="39.5711898803711" lon="2.81617426872253">
			<ele>135.399993896484</ele>
			<time>2014-01-02T14:03:39Z</time>
		</trkpt>
		<trkpt lat="39.5711822509766" lon="2.8160982131958">
			<ele>135.399993896484</ele>
			<time>2014-01-02T14:03:41Z</time>
		</trkpt>
		<trkpt lat="39.5711669921875" lon="2.81602430343628">
			<ele>135.100006103516</ele>
			<time>2014-01-02T14:03:42Z</time>
		</trkpt>
		<trkpt lat="39.5711479187012" lon="2.81594800949097">
			<ele>134.600006103516</ele>
			<time>2014-01-02T14:03:43Z</time>
		</trkpt>
		<trkpt lat="39.5711288452148" lon="2.81586885452271">
			<ele>134.5</ele>
			<time>2014-01-02T14:03:44Z</time>
		</trkpt>
		<trkpt lat="39.5711135864258" lon="2.81578707695007">
			<ele>134.300003051758</ele>
			<time>2014-01-02T14:03:45Z</time>
		</trkpt>
		<trkpt lat="39.5710983276367" lon="2.81570744514465">
			<ele>133.899993896484</ele>
			<time>2014-01-02T14:03:46Z</time>
		</trkpt>
		<trkpt lat="39.5710830688477" lon="2.81562352180481">
			<ele>133.5</ele>
			<time>2014-01-02T14:03:47Z</time>
		</trkpt>
		<trkpt lat="39.5710639953613" lon="2.8155357837677">
			<ele>133</ele>
			<time>2014-01-02T14:03:49Z</time>
		</trkpt>
		<trkpt lat="39.5710258483887" lon="2.81535768508911">
			<ele>132.899993896484</ele>
			<time>2014-01-02T14:03:50Z</time>
		</trkpt>
		<trkpt lat="39.5710067749023" lon="2.81526112556458">
			<ele>132.100006103516</ele>
			<time>2014-01-02T14:03:51Z</time>
		</trkpt>
		<trkpt lat="39.570987701416" lon="2.81516265869141">
			<ele>131.800003051758</ele>
			<time>2014-01-02T14:03:52Z</time>
		</trkpt>
		<trkpt lat="39.5709609985352" lon="2.81506633758545">
			<ele>130.800003051758</ele>
			<time>2014-01-02T14:03:53Z</time>
		</trkpt>
		<trkpt lat="39.5709457397461" lon="2.81496787071228">
			<ele>130.100006103516</ele>
			<time>2014-01-02T14:03:55Z</time>
		</trkpt>
		<trkpt lat="39.5708885192871" lon="2.81477761268616">
			<ele>130.300003051758</ele>
			<time>2014-01-02T14:03:56Z</time>
		</trkpt>
		<trkpt lat="39.5708656311035" lon="2.81468534469604">
			<ele>130.100006103516</ele>
			<time>2014-01-02T14:03:56Z</time>
		</trkpt>
		<trkpt lat="39.5708351135254" lon="2.81459784507751">
			<ele>130</ele>
			<time>2014-01-02T14:03:57Z</time>
		</trkpt>
		<trkpt lat="39.5708084106445" lon="2.81451463699341">
			<ele>130</ele>
			<time>2014-01-02T14:03:58Z</time>
		</trkpt>
		<trkpt lat="39.5707817077637" lon="2.81442713737488">
			<ele>129.899993896484</ele>
			<time>2014-01-02T14:03:59Z</time>
		</trkpt>
		<trkpt lat="39.5707550048828" lon="2.81433844566345">
			<ele>129.399993896484</ele>
			<time>2014-01-02T14:04:00Z</time>
		</trkpt>
		<trkpt lat="39.570728302002" lon="2.81425380706787">
			<ele>129.699996948242</ele>
			<time>2014-01-02T14:04:01Z</time>
		</trkpt>
		<trkpt lat="39.5707015991211" lon="2.81416988372803">
			<ele>129.399993896484</ele>
			<time>2014-01-02T14:04:02Z</time>
		</trkpt>
		<trkpt lat="39.570671081543" lon="2.81408452987671">
			<ele>129.100006103516</ele>
			<time>2014-01-02T14:04:03Z</time>
		</trkpt>
		<trkpt lat="39.5706443786621" lon="2.81400465965271">
			<ele>128.5</ele>
			<time>2014-01-02T14:04:04Z</time>
		</trkpt>
		<trkpt lat="39.570613861084" lon="2.81392073631287">
			<ele>128.300003051758</ele>
			<time>2014-01-02T14:04:05Z</time>
		</trkpt>
		<trkpt lat="39.5705833435059" lon="2.81383752822876">
			<ele>128.100006103516</ele>
			<time>2014-01-02T14:04:06Z</time>
		</trkpt>
		<trkpt lat="39.5705642700195" lon="2.8137514591217">
			<ele>127.800003051758</ele>
			<time>2014-01-02T14:04:07Z</time>
		</trkpt>
		<trkpt lat="39.5705451965332" lon="2.81366324424744">
			<ele>127.400001525879</ele>
			<time>2014-01-02T14:04:08Z</time>
		</trkpt>
		<trkpt lat="39.5705223083496" lon="2.81357932090759">
			<ele>127.400001525879</ele>
			<time>2014-01-02T14:04:09Z</time>
		</trkpt>
		<trkpt lat="39.5705032348633" lon="2.8134970664978">
			<ele>127.099998474121</ele>
			<time>2014-01-02T14:04:10Z</time>
		</trkpt>
		<trkpt lat="39.5704879760742" lon="2.81341433525085">
			<ele>126.400001525879</ele>
			<time>2014-01-02T14:04:12Z</time>
		</trkpt>
		<trkpt lat="39.5704689025879" lon="2.81333184242249">
			<ele>126.199996948242</ele>
			<time>2014-01-02T14:04:12Z</time>
		</trkpt>
		<trkpt lat="39.5704460144043" lon="2.8132438659668">
			<ele>125.699996948242</ele>
			<time>2014-01-02T14:04:13Z</time>
		</trkpt>
		<trkpt lat="39.570426940918" lon="2.81315779685974">
			<ele>125.199996948242</ele>
			<time>2014-01-02T14:04:14Z</time>
		</trkpt>
		<trkpt lat="39.5704040527344" lon="2.81307005882263">
			<ele>124.800003051758</ele>
			<time>2014-01-02T14:04:15Z</time>
		</trkpt>
		<trkpt lat="39.5703811645508" lon="2.81297612190247">
			<ele>124</ele>
			<time>2014-01-02T14:04:16Z</time>
		</trkpt>
		<trkpt lat="39.5703582763672" lon="2.81288170814514">
			<ele>123.400001525879</ele>
			<time>2014-01-02T14:04:17Z</time>
		</trkpt>
		<trkpt lat="39.5703392028809" lon="2.81278371810913">
			<ele>123.099998474121</ele>
			<time>2014-01-02T14:04:18Z</time>
		</trkpt>
		<trkpt lat="39.5703163146973" lon="2.81268429756165">
			<ele>122.300003051758</ele>
			<time>2014-01-02T14:04:19Z</time>
		</trkpt>
		<trkpt lat="39.5702934265137" lon="2.81258177757263">
			<ele>121.599998474121</ele>
			<time>2014-01-02T14:04:21Z</time>
		</trkpt>
		<trkpt lat="39.5702705383301" lon="2.81247854232788">
			<ele>121.5</ele>
			<time>2014-01-02T14:04:21Z</time>
		</trkpt>
		<trkpt lat="39.5702629089355" lon="2.81237030029297">
			<ele>120.699996948242</ele>
			<time>2014-01-02T14:04:22Z</time>
		</trkpt>
		<trkpt lat="39.5702590942383" lon="2.81226277351379">
			<ele>119.900001525879</ele>
			<time>2014-01-02T14:04:23Z</time>
		</trkpt>
		<trkpt lat="39.5702476501465" lon="2.81215524673462">
			<ele>119.400001525879</ele>
			<time>2014-01-02T14:04:24Z</time>
		</trkpt>
		<trkpt lat="39.570240020752" lon="2.81204581260681">
			<ele>119</ele>
			<time>2014-01-02T14:04:25Z</time>
		</trkpt>
		<trkpt lat="39.570240020752" lon="2.81193852424622">
			<ele>118.800003051758</ele>
			<time>2014-01-02T14:04:26Z</time>
		</trkpt>
		<trkpt lat="39.5702247619629" lon="2.81182050704956">
			<ele>118.099998474121</ele>
			<time>2014-01-02T14:04:27Z</time>
		</trkpt>
		<trkpt lat="39.5702133178711" lon="2.81171059608459">
			<ele>117.599998474121</ele>
			<time>2014-01-02T14:04:28Z</time>
		</trkpt>
		<trkpt lat="39.5702018737793" lon="2.81159853935242">
			<ele>116.699996948242</ele>
			<time>2014-01-02T14:04:29Z</time>
		</trkpt>
		<trkpt lat="39.5701942443848" lon="2.8114902973175">
			<ele>115.400001525879</ele>
			<time>2014-01-02T14:04:30Z</time>
		</trkpt>
		<trkpt lat="39.5701866149902" lon="2.81138324737549">
			<ele>114.900001525879</ele>
			<time>2014-01-02T14:04:31Z</time>
		</trkpt>
		<trkpt lat="39.5701942443848" lon="2.81128907203674">
			<ele>114.099998474121</ele>
			<time>2014-01-02T14:04:32Z</time>
		</trkpt>
		<trkpt lat="39.5702056884766" lon="2.81121015548706">
			<ele>113.699996948242</ele>
			<time>2014-01-02T14:04:33Z</time>
		</trkpt>
		<trkpt lat="39.5702285766602" lon="2.8111560344696">
			<ele>113.199996948242</ele>
			<time>2014-01-02T14:04:34Z</time>
		</trkpt>
		<trkpt lat="39.5702667236328" lon="2.81104636192322">
			<ele>112</ele>
			<time>2014-01-02T14:04:36Z</time>
		</trkpt>
		<trkpt lat="39.5702590942383" lon="2.81097960472107">
			<ele>111.400001525879</ele>
			<time>2014-01-02T14:04:37Z</time>
		</trkpt>
		<trkpt lat="39.570255279541" lon="2.8109085559845">
			<ele>111.199996948242</ele>
			<time>2014-01-02T14:04:38Z</time>
		</trkpt>
		<trkpt lat="39.5702438354492" lon="2.81083965301514">
			<ele>111.300003051758</ele>
			<time>2014-01-02T14:04:39Z</time>
		</trkpt>
		<trkpt lat="39.5702323913574" lon="2.81076216697693">
			<ele>111.5</ele>
			<time>2014-01-02T14:04:40Z</time>
		</trkpt>
		<trkpt lat="39.5702247619629" lon="2.81068301200867">
			<ele>111.599998474121</ele>
			<time>2014-01-02T14:04:41Z</time>
		</trkpt>
		<trkpt lat="39.5702171325684" lon="2.81059050559998">
			<ele>111.400001525879</ele>
			<time>2014-01-02T14:04:42Z</time>
		</trkpt>
		<trkpt lat="39.5702018737793" lon="2.81048130989075">
			<ele>110.199996948242</ele>
			<time>2014-01-02T14:04:43Z</time>
		</trkpt>
		<trkpt lat="39.5702018737793" lon="2.81037950515747">
			<ele>109.300003051758</ele>
			<time>2014-01-02T14:04:44Z</time>
		</trkpt>
		<trkpt lat="39.5702018737793" lon="2.81026864051819">
			<ele>108.5</ele>
			<time>2014-01-02T14:04:45Z</time>
		</trkpt>
		<trkpt lat="39.5701866149902" lon="2.81013822555542">
			<ele>107.699996948242</ele>
			<time>2014-01-02T14:04:46Z</time>
		</trkpt>
		<trkpt lat="39.5701713562012" lon="2.80999875068665">
			<ele>107.199996948242</ele>
			<time>2014-01-02T14:04:47Z</time>
		</trkpt>
		<trkpt lat="39.5701675415039" lon="2.80987143516541">
			<ele>106.900001525879</ele>
			<time>2014-01-02T14:04:48Z</time>
		</trkpt>
		<trkpt lat="39.570140838623" lon="2.80976247787476">
			<ele>106.599998474121</ele>
			<time>2014-01-02T14:04:49Z</time>
		</trkpt>
		<trkpt lat="39.5701293945313" lon="2.80968427658081">
			<ele>105.800003051758</ele>
			<time>2014-01-02T14:04:50Z</time>
		</trkpt>
		<trkpt lat="39.5701332092285" lon="2.80959224700928">
			<ele>105.099998474121</ele>
			<time>2014-01-02T14:04:51Z</time>
		</trkpt>
		<trkpt lat="39.5701560974121" lon="2.80951237678528">
			<ele>104.400001525879</ele>
			<time>2014-01-02T14:04:52Z</time>
		</trkpt>
		<trkpt lat="39.570198059082" lon="2.80945539474487">
			<ele>103.300003051758</ele>
			<time>2014-01-02T14:04:53Z</time>
		</trkpt>
		<trkpt lat="39.5702781677246" lon="2.80946278572083">
			<ele>102.300003051758</ele>
			<time>2014-01-02T14:04:54Z</time>
		</trkpt>
		<trkpt lat="39.5703277587891" lon="2.80945229530334">
			<ele>102.099998474121</ele>
			<time>2014-01-02T14:04:55Z</time>
		</trkpt>
		<trkpt lat="39.5703773498535" lon="2.80944466590881">
			<ele>102.099998474121</ele>
			<time>2014-01-02T14:04:56Z</time>
		</trkpt>
		<trkpt lat="39.5704803466797" lon="2.80946254730225">
			<ele>102.400001525879</ele>
			<time>2014-01-02T14:04:58Z</time>
		</trkpt>
		<trkpt lat="39.5705413818359" lon="2.80947041511536">
			<ele>102.599998474121</ele>
			<time>2014-01-02T14:04:59Z</time>
		</trkpt>
		<trkpt lat="39.5706024169922" lon="2.80943918228149">
			<ele>102</ele>
			<time>2014-01-02T14:05:00Z</time>
		</trkpt>
		<trkpt lat="39.5706520080566" lon="2.80943846702576">
			<ele>101.099998474121</ele>
			<time>2014-01-02T14:05:01Z</time>
		</trkpt>
		<trkpt lat="39.5707092285156" lon="2.80943489074707">
			<ele>100.699996948242</ele>
			<time>2014-01-02T14:05:02Z</time>
		</trkpt>
		<trkpt lat="39.5707626342773" lon="2.8094367980957">
			<ele>100.599998474121</ele>
			<time>2014-01-02T14:05:03Z</time>
		</trkpt>
		<trkpt lat="39.5707969665527" lon="2.80949330329895">
			<ele>98</ele>
			<time>2014-01-02T14:05:06Z</time>
		</trkpt>
		<trkpt lat="39.5708236694336" lon="2.80956244468689">
			<ele>96.5</ele>
			<time>2014-01-02T14:05:09Z</time>
		</trkpt>
		<trkpt lat="39.5708847045898" lon="2.80961394309998">
			<ele>96.5</ele>
			<time>2014-01-02T14:05:12Z</time>
		</trkpt>
		<trkpt lat="39.5709190368652" lon="2.80966114997864">
			<ele>96.8000030517578</ele>
			<time>2014-01-02T14:05:15Z</time>
		</trkpt>
		<trkpt lat="39.570972442627" lon="2.80969643592834">
			<ele>97</ele>
			<time>2014-01-02T14:05:18Z</time>
		</trkpt>
		<trkpt lat="39.5710220336914" lon="2.80971264839172">
			<ele>97.9000015258789</ele>
			<time>2014-01-02T14:05:20Z</time>
		</trkpt>
		<trkpt lat="39.5710525512695" lon="2.80966377258301">
			<ele>98.0999984741211</ele>
			<time>2014-01-02T14:05:23Z</time>
		</trkpt>
		<trkpt lat="39.5710182189941" lon="2.80958819389343">
			<ele>98.1999969482422</ele>
			<time>2014-01-02T14:05:25Z</time>
		</trkpt>
		<trkpt lat="39.570987701416" lon="2.80952525138855">
			<ele>98.4000015258789</ele>
			<time>2014-01-02T14:05:27Z</time>
		</trkpt>
		<trkpt lat="39.5709571838379" lon="2.80946111679077">
			<ele>98.0999984741211</ele>
			<time>2014-01-02T14:05:29Z</time>
		</trkpt>
		<trkpt lat="39.5709342956543" lon="2.80939483642578">
			<ele>97.5999984741211</ele>
			<time>2014-01-02T14:05:31Z</time>
		</trkpt>
		<trkpt lat="39.570915222168" lon="2.80931115150452">
			<ele>98</ele>
			<time>2014-01-02T14:05:33Z</time>
		</trkpt>
		<trkpt lat="39.5708961486816" lon="2.80923271179199">
			<ele>98</ele>
			<time>2014-01-02T14:05:35Z</time>
		</trkpt>
		<trkpt lat="39.5708694458008" lon="2.80914735794067">
			<ele>98.3000030517578</ele>
			<time>2014-01-02T14:05:37Z</time>
		</trkpt>
		<trkpt lat="39.5708465576172" lon="2.80906343460083">
			<ele>98.6999969482422</ele>
			<time>2014-01-02T14:05:39Z</time>
		</trkpt>
		<trkpt lat="39.5708274841309" lon="2.80896377563477">
			<ele>98.5</ele>
			<time>2014-01-02T14:05:41Z</time>
		</trkpt>
		<trkpt lat="39.57080078125" lon="2.80886602401733">
			<ele>98.9000015258789</ele>
			<time>2014-01-02T14:05:43Z</time>
		</trkpt>
		<trkpt lat="39.5707778930664" lon="2.80876278877258">
			<ele>99.1999969482422</ele>
			<time>2014-01-02T14:05:45Z</time>
		</trkpt>
		<trkpt lat="39.5707626342773" lon="2.80866670608521">
			<ele>99.5</ele>
			<time>2014-01-02T14:05:47Z</time>
		</trkpt>
		<trkpt lat="39.5707511901855" lon="2.80857491493225">
			<ele>99.1999969482422</ele>
			<time>2014-01-02T14:05:49Z</time>
		</trkpt>
		<trkpt lat="39.5707359313965" lon="2.80848622322083">
			<ele>99.3000030517578</ele>
			<time>2014-01-02T14:05:51Z</time>
		</trkpt>
		<trkpt lat="39.570728302002" lon="2.80839037895203">
			<ele>99.5999984741211</ele>
			<time>2014-01-02T14:05:53Z</time>
		</trkpt>
		<trkpt lat="39.5707206726074" lon="2.80829834938049">
			<ele>99</ele>
			<time>2014-01-02T14:05:55Z</time>
		</trkpt>
		<trkpt lat="39.5707092285156" lon="2.80820178985596">
			<ele>99.0999984741211</ele>
			<time>2014-01-02T14:05:57Z</time>
		</trkpt>
		<trkpt lat="39.5707054138184" lon="2.80810236930847">
			<ele>98.5</ele>
			<time>2014-01-02T14:05:59Z</time>
		</trkpt>
		<trkpt lat="39.5707015991211" lon="2.80800247192383">
			<ele>98.6999969482422</ele>
			<time>2014-01-02T14:06:01Z</time>
		</trkpt>
		<trkpt lat="39.5707054138184" lon="2.80790185928345">
			<ele>98.5999984741211</ele>
			<time>2014-01-02T14:06:03Z</time>
		</trkpt>
		<trkpt lat="39.5707168579102" lon="2.80780053138733">
			<ele>97.9000015258789</ele>
			<time>2014-01-02T14:06:05Z</time>
		</trkpt>
		<trkpt lat="39.570728302002" lon="2.80769181251526">
			<ele>97.5999984741211</ele>
			<time>2014-01-02T14:06:07Z</time>
		</trkpt>
		<trkpt lat="39.5707359313965" lon="2.80757927894592">
			<ele>97.6999969482422</ele>
			<time>2014-01-02T14:06:09Z</time>
		</trkpt>
		<trkpt lat="39.570743560791" lon="2.80746936798096">
			<ele>97.3000030517578</ele>
			<time>2014-01-02T14:06:11Z</time>
		</trkpt>
		<trkpt lat="39.5707550048828" lon="2.8073616027832">
			<ele>97.0999984741211</ele>
			<time>2014-01-02T14:06:13Z</time>
		</trkpt>
		<trkpt lat="39.5707664489746" lon="2.80725717544556">
			<ele>97.4000015258789</ele>
			<time>2014-01-02T14:06:15Z</time>
		</trkpt>
		<trkpt lat="39.5707740783691" lon="2.80715441703796">
			<ele>97.4000015258789</ele>
			<time>2014-01-02T14:06:17Z</time>
		</trkpt>
		<trkpt lat="39.5707778930664" lon="2.80705642700195">
			<ele>97.3000030517578</ele>
			<time>2014-01-02T14:06:19Z</time>
		</trkpt>
		<trkpt lat="39.5707855224609" lon="2.806964635849">
			<ele>97.4000015258789</ele>
			<time>2014-01-02T14:06:21Z</time>
		</trkpt>
		<trkpt lat="39.5707969665527" lon="2.8068790435791">
			<ele>97.5</ele>
			<time>2014-01-02T14:06:23Z</time>
		</trkpt>
		<trkpt lat="39.5708045959473" lon="2.80679798126221">
			<ele>97.4000015258789</ele>
			<time>2014-01-02T14:06:24Z</time>
		</trkpt>
		<trkpt lat="39.5708084106445" lon="2.80671906471252">
			<ele>97.5</ele>
			<time>2014-01-02T14:06:26Z</time>
		</trkpt>
		<trkpt lat="39.5708236694336" lon="2.80663800239563">
			<ele>97.5999984741211</ele>
			<time>2014-01-02T14:06:28Z</time>
		</trkpt>
		<trkpt lat="39.5708427429199" lon="2.80654215812683">
			<ele>97.3000030517578</ele>
			<time>2014-01-02T14:06:30Z</time>
		</trkpt>
		<trkpt lat="39.5708618164063" lon="2.80643749237061">
			<ele>97.1999969482422</ele>
			<time>2014-01-02T14:06:32Z</time>
		</trkpt>
		<trkpt lat="39.570873260498" lon="2.8063268661499">
			<ele>97.0999984741211</ele>
			<time>2014-01-02T14:06:34Z</time>
		</trkpt>
		<trkpt lat="39.5708885192871" lon="2.80621600151062">
			<ele>97.1999969482422</ele>
			<time>2014-01-02T14:06:36Z</time>
		</trkpt>
		<trkpt lat="39.5709037780762" lon="2.80611109733582">
			<ele>97.0999984741211</ele>
			<time>2014-01-02T14:06:38Z</time>
		</trkpt>
		<trkpt lat="39.570915222168" lon="2.80600810050964">
			<ele>96.9000015258789</ele>
			<time>2014-01-02T14:06:40Z</time>
		</trkpt>
		<trkpt lat="39.570930480957" lon="2.80590343475342">
			<ele>96.8000030517578</ele>
			<time>2014-01-02T14:06:42Z</time>
		</trkpt>
		<trkpt lat="39.5709457397461" lon="2.80579352378845">
			<ele>96.3000030517578</ele>
			<time>2014-01-02T14:06:44Z</time>
		</trkpt>
		<trkpt lat="39.5709609985352" lon="2.80567908287048">
			<ele>96</ele>
			<time>2014-01-02T14:06:46Z</time>
		</trkpt>
		<trkpt lat="39.5709686279297" lon="2.80561995506287">
			<ele>95.8000030517578</ele>
			<time>2014-01-02T14:06:47Z</time>
		</trkpt>
		<trkpt lat="39.5709762573242" lon="2.80555629730225">
			<ele>95.5</ele>
			<time>2014-01-02T14:06:48Z</time>
		</trkpt>
		<trkpt lat="39.5709838867188" lon="2.80549430847168">
			<ele>95.5</ele>
			<time>2014-01-02T14:06:49Z</time>
		</trkpt>
		<trkpt lat="39.5709953308105" lon="2.80542755126953">
			<ele>95.3000030517578</ele>
			<time>2014-01-02T14:06:50Z</time>
		</trkpt>
		<trkpt lat="39.5710067749023" lon="2.80535864830017">
			<ele>95.0999984741211</ele>
			<time>2014-01-02T14:06:51Z</time>
		</trkpt>
		<trkpt lat="39.5710182189941" lon="2.80528807640076">
			<ele>94.5999984741211</ele>
			<time>2014-01-02T14:06:52Z</time>
		</trkpt>
		<trkpt lat="39.5710296630859" lon="2.80521512031555">
			<ele>94.3000030517578</ele>
			<time>2014-01-02T14:06:53Z</time>
		</trkpt>
		<trkpt lat="39.5710411071777" lon="2.80514669418335">
			<ele>94.0999984741211</ele>
			<time>2014-01-02T14:06:54Z</time>
		</trkpt>
		<trkpt lat="39.5710487365723" lon="2.80507397651672">
			<ele>94</ele>
			<time>2014-01-02T14:06:55Z</time>
		</trkpt>
		<trkpt lat="39.5710601806641" lon="2.80500555038452">
			<ele>94.1999969482422</ele>
			<time>2014-01-02T14:06:56Z</time>
		</trkpt>
		<trkpt lat="39.5710678100586" lon="2.8049430847168">
			<ele>94.1999969482422</ele>
			<time>2014-01-02T14:06:57Z</time>
		</trkpt>
		<trkpt lat="39.5710754394531" lon="2.80487632751465">
			<ele>94.1999969482422</ele>
			<time>2014-01-02T14:06:58Z</time>
		</trkpt>
		<trkpt lat="39.5710792541504" lon="2.80481219291687">
			<ele>94.0999984741211</ele>
			<time>2014-01-02T14:06:59Z</time>
		</trkpt>
		<trkpt lat="39.5710868835449" lon="2.80475282669067">
			<ele>94.0999984741211</ele>
			<time>2014-01-02T14:07:00Z</time>
		</trkpt>
		<trkpt lat="39.5710945129395" lon="2.80469274520874">
			<ele>93.9000015258789</ele>
			<time>2014-01-02T14:07:01Z</time>
		</trkpt>
		<trkpt lat="39.571102142334" lon="2.80463409423828">
			<ele>93.9000015258789</ele>
			<time>2014-01-02T14:07:02Z</time>
		</trkpt>
		<trkpt lat="39.5711059570313" lon="2.80457043647766">
			<ele>93.6999969482422</ele>
			<time>2014-01-02T14:07:03Z</time>
		</trkpt>
		<trkpt lat="39.5711135864258" lon="2.80450868606567">
			<ele>93.8000030517578</ele>
			<time>2014-01-02T14:07:04Z</time>
		</trkpt>
		<trkpt lat="39.571117401123" lon="2.80444383621216">
			<ele>93.8000030517578</ele>
			<time>2014-01-02T14:07:05Z</time>
		</trkpt>
		<trkpt lat="39.5711250305176" lon="2.80438542366028">
			<ele>93.8000030517578</ele>
			<time>2014-01-02T14:07:06Z</time>
		</trkpt>
		<trkpt lat="39.5711326599121" lon="2.8042733669281">
			<ele>93.9000015258789</ele>
			<time>2014-01-02T14:07:08Z</time>
		</trkpt>
		<trkpt lat="39.5711441040039" lon="2.80416464805603">
			<ele>93.9000015258789</ele>
			<time>2014-01-02T14:07:10Z</time>
		</trkpt>
		<trkpt lat="39.5711479187012" lon="2.80406928062439">
			<ele>94.3000030517578</ele>
			<time>2014-01-02T14:07:12Z</time>
		</trkpt>
		<trkpt lat="39.5711479187012" lon="2.80398297309875">
			<ele>94.8000030517578</ele>
			<time>2014-01-02T14:07:14Z</time>
		</trkpt>
		<trkpt lat="39.5711479187012" lon="2.80391049385071">
			<ele>94.9000015258789</ele>
			<time>2014-01-02T14:07:16Z</time>
		</trkpt>
		<trkpt lat="39.5711441040039" lon="2.80383896827698">
			<ele>95</ele>
			<time>2014-01-02T14:07:18Z</time>
		</trkpt>
		<trkpt lat="39.5711441040039" lon="2.80377054214478">
			<ele>95.1999969482422</ele>
			<time>2014-01-02T14:07:20Z</time>
		</trkpt>
		<trkpt lat="39.5711441040039" lon="2.80370950698853">
			<ele>95.4000015258789</ele>
			<time>2014-01-02T14:07:22Z</time>
		</trkpt>
		<trkpt lat="39.5711479187012" lon="2.80365014076233">
			<ele>95.5</ele>
			<time>2014-01-02T14:07:24Z</time>
		</trkpt>
		<trkpt lat="39.5711479187012" lon="2.80358862876892">
			<ele>95.8000030517578</ele>
			<time>2014-01-02T14:07:26Z</time>
		</trkpt>
		<trkpt lat="39.5711517333984" lon="2.80350494384766">
			<ele>95.6999969482422</ele>
			<time>2014-01-02T14:07:29Z</time>
		</trkpt>
		<trkpt lat="39.5711441040039" lon="2.80341792106628">
			<ele>96.3000030517578</ele>
			<time>2014-01-02T14:07:32Z</time>
		</trkpt>
		<trkpt lat="39.5711555480957" lon="2.80335760116577">
			<ele>96.5</ele>
			<time>2014-01-02T14:07:34Z</time>
		</trkpt>
		<trkpt lat="39.5711631774902" lon="2.80328774452209">
			<ele>96.3000030517578</ele>
			<time>2014-01-02T14:07:36Z</time>
		</trkpt>
		<trkpt lat="39.5711708068848" lon="2.80321288108826">
			<ele>95.6999969482422</ele>
			<time>2014-01-02T14:07:38Z</time>
		</trkpt>
		<trkpt lat="39.5711784362793" lon="2.80312252044678">
			<ele>95.5</ele>
			<time>2014-01-02T14:07:40Z</time>
		</trkpt>
		<trkpt lat="39.5711898803711" lon="2.80301547050476">
			<ele>94.8000030517578</ele>
			<time>2014-01-02T14:07:42Z</time>
		</trkpt>
		<trkpt lat="39.5711975097656" lon="2.80295753479004">
			<ele>94.5</ele>
			<time>2014-01-02T14:07:43Z</time>
		</trkpt>
		<trkpt lat="39.5712013244629" lon="2.80289053916931">
			<ele>94.8000030517578</ele>
			<time>2014-01-02T14:07:44Z</time>
		</trkpt>
		<trkpt lat="39.5712013244629" lon="2.80281734466553">
			<ele>95.3000030517578</ele>
			<time>2014-01-02T14:07:45Z</time>
		</trkpt>
		<trkpt lat="39.5712127685547" lon="2.8027515411377">
			<ele>94.0999984741211</ele>
			<time>2014-01-02T14:07:46Z</time>
		</trkpt>
		<trkpt lat="39.5712127685547" lon="2.80267381668091">
			<ele>94.0999984741211</ele>
			<time>2014-01-02T14:07:47Z</time>
		</trkpt>
		<trkpt lat="39.571216583252" lon="2.80260014533997">
			<ele>94.3000030517578</ele>
			<time>2014-01-02T14:07:48Z</time>
		</trkpt>
		<trkpt lat="39.571216583252" lon="2.80252194404602">
			<ele>93.6999969482422</ele>
			<time>2014-01-02T14:07:49Z</time>
		</trkpt>
		<trkpt lat="39.5712127685547" lon="2.80243921279907">
			<ele>93.5</ele>
			<time>2014-01-02T14:07:50Z</time>
		</trkpt>
		<trkpt lat="39.5712089538574" lon="2.80235719680786">
			<ele>93.4000015258789</ele>
			<time>2014-01-02T14:07:51Z</time>
		</trkpt>
		<trkpt lat="39.5712089538574" lon="2.80227375030518">
			<ele>92.8000030517578</ele>
			<time>2014-01-02T14:07:52Z</time>
		</trkpt>
		<trkpt lat="39.5712051391602" lon="2.80218458175659">
			<ele>92.6999969482422</ele>
			<time>2014-01-02T14:07:53Z</time>
		</trkpt>
		<trkpt lat="39.5711975097656" lon="2.80210041999817">
			<ele>92.4000015258789</ele>
			<time>2014-01-02T14:07:54Z</time>
		</trkpt>
		<trkpt lat="39.5711860656738" lon="2.80201244354248">
			<ele>92.1999969482422</ele>
			<time>2014-01-02T14:07:55Z</time>
		</trkpt>
		<trkpt lat="39.5711708068848" lon="2.80192852020264">
			<ele>92</ele>
			<time>2014-01-02T14:07:56Z</time>
		</trkpt>
		<trkpt lat="39.571159362793" lon="2.8018524646759">
			<ele>92.1999969482422</ele>
			<time>2014-01-02T14:07:57Z</time>
		</trkpt>
		<trkpt lat="39.5711479187012" lon="2.80177426338196">
			<ele>92.5</ele>
			<time>2014-01-02T14:07:58Z</time>
		</trkpt>
		<trkpt lat="39.5711326599121" lon="2.80170440673828">
			<ele>92.4000015258789</ele>
			<time>2014-01-02T14:07:59Z</time>
		</trkpt>
		<trkpt lat="39.571117401123" lon="2.80164074897766">
			<ele>92.4000015258789</ele>
			<time>2014-01-02T14:08:00Z</time>
		</trkpt>
		<trkpt lat="39.5710983276367" lon="2.80157327651978">
			<ele>92.5</ele>
			<time>2014-01-02T14:08:01Z</time>
		</trkpt>
		<trkpt lat="39.5710868835449" lon="2.80150675773621">
			<ele>92.5</ele>
			<time>2014-01-02T14:08:02Z</time>
		</trkpt>
		<trkpt lat="39.5710678100586" lon="2.80144476890564">
			<ele>92.5</ele>
			<time>2014-01-02T14:08:03Z</time>
		</trkpt>
		<trkpt lat="39.5710525512695" lon="2.80138111114502">
			<ele>92</ele>
			<time>2014-01-02T14:08:04Z</time>
		</trkpt>
		<trkpt lat="39.5710411071777" lon="2.80131793022156">
			<ele>92</ele>
			<time>2014-01-02T14:08:05Z</time>
		</trkpt>
		<trkpt lat="39.5710296630859" lon="2.80124831199646">
			<ele>91.5999984741211</ele>
			<time>2014-01-02T14:08:06Z</time>
		</trkpt>
		<trkpt lat="39.5710182189941" lon="2.80117678642273">
			<ele>91</ele>
			<time>2014-01-02T14:08:07Z</time>
		</trkpt>
		<trkpt lat="39.5710029602051" lon="2.80110096931458">
			<ele>90.8000030517578</ele>
			<time>2014-01-02T14:08:08Z</time>
		</trkpt>
		<trkpt lat="39.5709838867188" lon="2.80102896690369">
			<ele>90.1999969482422</ele>
			<time>2014-01-02T14:08:09Z</time>
		</trkpt>
		<trkpt lat="39.5709609985352" lon="2.80095171928406">
			<ele>90.1999969482422</ele>
			<time>2014-01-02T14:08:11Z</time>
		</trkpt>
		<trkpt lat="39.5709419250488" lon="2.80087351799011">
			<ele>90.3000030517578</ele>
			<time>2014-01-02T14:08:12Z</time>
		</trkpt>
		<trkpt lat="39.5709114074707" lon="2.80080342292786">
			<ele>89.8000030517578</ele>
			<time>2014-01-02T14:08:13Z</time>
		</trkpt>
		<trkpt lat="39.5708923339844" lon="2.80072617530823">
			<ele>89.4000015258789</ele>
			<time>2014-01-02T14:08:14Z</time>
		</trkpt>
		<trkpt lat="39.5708656311035" lon="2.80065274238586">
			<ele>88.5</ele>
			<time>2014-01-02T14:08:15Z</time>
		</trkpt>
		<trkpt lat="39.5708389282227" lon="2.80057740211487">
			<ele>87.5</ele>
			<time>2014-01-02T14:08:16Z</time>
		</trkpt>
		<trkpt lat="39.5708122253418" lon="2.80050134658813">
			<ele>87</ele>
			<time>2014-01-02T14:08:17Z</time>
		</trkpt>
		<trkpt lat="39.5707778930664" lon="2.80042743682861">
			<ele>86.5999984741211</ele>
			<time>2014-01-02T14:08:18Z</time>
		</trkpt>
		<trkpt lat="39.5707473754883" lon="2.80034852027893">
			<ele>86.3000030517578</ele>
			<time>2014-01-02T14:08:19Z</time>
		</trkpt>
		<trkpt lat="39.5707168579102" lon="2.80026865005493">
			<ele>85.5999984741211</ele>
			<time>2014-01-02T14:08:20Z</time>
		</trkpt>
		<trkpt lat="39.5706825256348" lon="2.80019330978394">
			<ele>85.1999969482422</ele>
			<time>2014-01-02T14:08:21Z</time>
		</trkpt>
		<trkpt lat="39.5706520080566" lon="2.80011916160583">
			<ele>85.1999969482422</ele>
			<time>2014-01-02T14:08:22Z</time>
		</trkpt>
		<trkpt lat="39.5706214904785" lon="2.800048828125">
			<ele>85.0999984741211</ele>
			<time>2014-01-02T14:08:23Z</time>
		</trkpt>
		<trkpt lat="39.5705909729004" lon="2.79997110366821">
			<ele>84.1999969482422</ele>
			<time>2014-01-02T14:08:24Z</time>
		</trkpt>
		<trkpt lat="39.5705680847168" lon="2.7998833656311">
			<ele>84</ele>
			<time>2014-01-02T14:08:25Z</time>
		</trkpt>
		<trkpt lat="39.5705299377441" lon="2.79979753494263">
			<ele>84.0999984741211</ele>
			<time>2014-01-02T14:08:28Z</time>
		</trkpt>
		<trkpt lat="39.5704574584961" lon="2.79954695701599">
			<ele>84.5999984741211</ele>
			<time>2014-01-02T14:08:29Z</time>
		</trkpt>
		<trkpt lat="39.5704345703125" lon="2.79946303367615">
			<ele>84.9000015258789</ele>
			<time>2014-01-02T14:08:30Z</time>
		</trkpt>
		<trkpt lat="39.5704116821289" lon="2.79938197135925">
			<ele>85.3000030517578</ele>
			<time>2014-01-02T14:08:31Z</time>
		</trkpt>
		<trkpt lat="39.5703887939453" lon="2.79930019378662">
			<ele>85.4000015258789</ele>
			<time>2014-01-02T14:08:32Z</time>
		</trkpt>
		<trkpt lat="39.570384979248" lon="2.79922461509705">
			<ele>84.4000015258789</ele>
			<time>2014-01-02T14:08:33Z</time>
		</trkpt>
		<trkpt lat="39.570369720459" lon="2.7991418838501">
			<ele>84.5</ele>
			<time>2014-01-02T14:08:34Z</time>
		</trkpt>
		<trkpt lat="39.5703544616699" lon="2.79905939102173">
			<ele>84.3000030517578</ele>
			<time>2014-01-02T14:08:35Z</time>
		</trkpt>
		<trkpt lat="39.5703506469727" lon="2.79897665977478">
			<ele>84.4000015258789</ele>
			<time>2014-01-02T14:08:37Z</time>
		</trkpt>
		<trkpt lat="39.5703239440918" lon="2.79881238937378">
			<ele>84.6999969482422</ele>
			<time>2014-01-02T14:08:38Z</time>
		</trkpt>
		<trkpt lat="39.5703163146973" lon="2.79873633384705">
			<ele>84.1999969482422</ele>
			<time>2014-01-02T14:08:39Z</time>
		</trkpt>
		<trkpt lat="39.5703048706055" lon="2.7986581325531">
			<ele>84.6999969482422</ele>
			<time>2014-01-02T14:08:41Z</time>
		</trkpt>
		<trkpt lat="39.5702781677246" lon="2.79850673675537">
			<ele>85.3000030517578</ele>
			<time>2014-01-02T14:08:42Z</time>
		</trkpt>
		<trkpt lat="39.5702667236328" lon="2.79843688011169">
			<ele>85.5</ele>
			<time>2014-01-02T14:08:43Z</time>
		</trkpt>
		<trkpt lat="39.5702667236328" lon="2.79836368560791">
			<ele>85.1999969482422</ele>
			<time>2014-01-02T14:08:44Z</time>
		</trkpt>
		<trkpt lat="39.570255279541" lon="2.79828858375549">
			<ele>85.6999969482422</ele>
			<time>2014-01-02T14:08:45Z</time>
		</trkpt>
		<trkpt lat="39.5702476501465" lon="2.79821944236755">
			<ele>85.5999984741211</ele>
			<time>2014-01-02T14:08:46Z</time>
		</trkpt>
		<trkpt lat="39.5702476501465" lon="2.79815530776978">
			<ele>85.1999969482422</ele>
			<time>2014-01-02T14:08:47Z</time>
		</trkpt>
		<trkpt lat="39.5702438354492" lon="2.79808259010315">
			<ele>84.8000030517578</ele>
			<time>2014-01-02T14:08:48Z</time>
		</trkpt>
		<trkpt lat="39.5702476501465" lon="2.798011302948">
			<ele>84.9000015258789</ele>
			<time>2014-01-02T14:08:49Z</time>
		</trkpt>
		<trkpt lat="39.5702323913574" lon="2.79792523384094">
			<ele>85.6999969482422</ele>
			<time>2014-01-02T14:08:50Z</time>
		</trkpt>
		<trkpt lat="39.5702323913574" lon="2.79786133766174">
			<ele>84.5</ele>
			<time>2014-01-02T14:08:51Z</time>
		</trkpt>
		<trkpt lat="39.5702323913574" lon="2.79778480529785">
			<ele>85.1999969482422</ele>
			<time>2014-01-02T14:08:52Z</time>
		</trkpt>
		<trkpt lat="39.5702285766602" lon="2.79771113395691">
			<ele>85.4000015258789</ele>
			<time>2014-01-02T14:08:53Z</time>
		</trkpt>
		<trkpt lat="39.5702247619629" lon="2.79764199256897">
			<ele>86.0999984741211</ele>
			<time>2014-01-02T14:08:54Z</time>
		</trkpt>
		<trkpt lat="39.5702171325684" lon="2.7975742816925">
			<ele>85.5</ele>
			<time>2014-01-02T14:08:55Z</time>
		</trkpt>
		<trkpt lat="39.5702133178711" lon="2.7975025177002">
			<ele>85</ele>
			<time>2014-01-02T14:08:57Z</time>
		</trkpt>
		<trkpt lat="39.5702133178711" lon="2.79743552207947">
			<ele>84.8000030517578</ele>
			<time>2014-01-02T14:08:57Z</time>
		</trkpt>
		<trkpt lat="39.5702095031738" lon="2.79735612869263">
			<ele>84.5999984741211</ele>
			<time>2014-01-02T14:08:58Z</time>
		</trkpt>
		<trkpt lat="39.5702133178711" lon="2.7972846031189">
			<ele>83.5</ele>
			<time>2014-01-02T14:08:59Z</time>
		</trkpt>
		<trkpt lat="39.5702095031738" lon="2.79721522331238">
			<ele>83.4000015258789</ele>
			<time>2014-01-02T14:09:00Z</time>
		</trkpt>
		<trkpt lat="39.5702095031738" lon="2.79713845252991">
			<ele>83.5999984741211</ele>
			<time>2014-01-02T14:09:01Z</time>
		</trkpt>
		<trkpt lat="39.5702209472656" lon="2.79705691337585">
			<ele>82.6999969482422</ele>
			<time>2014-01-02T14:09:02Z</time>
		</trkpt>
		<trkpt lat="39.5702285766602" lon="2.79698133468628">
			<ele>82.3000030517578</ele>
			<time>2014-01-02T14:09:03Z</time>
		</trkpt>
		<trkpt lat="39.5702323913574" lon="2.79689168930054">
			<ele>81.4000015258789</ele>
			<time>2014-01-02T14:09:04Z</time>
		</trkpt>
		<trkpt lat="39.570240020752" lon="2.7968225479126">
			<ele>80.5</ele>
			<time>2014-01-02T14:09:05Z</time>
		</trkpt>
		<trkpt lat="39.5702438354492" lon="2.79674577713013">
			<ele>80.3000030517578</ele>
			<time>2014-01-02T14:09:06Z</time>
		</trkpt>
		<trkpt lat="39.5702438354492" lon="2.79666638374329">
			<ele>79.6999969482422</ele>
			<time>2014-01-02T14:09:07Z</time>
		</trkpt>
		<trkpt lat="39.5702438354492" lon="2.79657673835754">
			<ele>79.0999984741211</ele>
			<time>2014-01-02T14:09:08Z</time>
		</trkpt>
		<trkpt lat="39.5702438354492" lon="2.79650211334229">
			<ele>78.8000030517578</ele>
			<time>2014-01-02T14:09:09Z</time>
		</trkpt>
		<trkpt lat="39.570240020752" lon="2.79642391204834">
			<ele>78.5</ele>
			<time>2014-01-02T14:09:10Z</time>
		</trkpt>
		<trkpt lat="39.5702362060547" lon="2.79634284973145">
			<ele>77.9000015258789</ele>
			<time>2014-01-02T14:09:11Z</time>
		</trkpt>
		<trkpt lat="39.5702362060547" lon="2.79626774787903">
			<ele>77</ele>
			<time>2014-01-02T14:09:12Z</time>
		</trkpt>
		<trkpt lat="39.5702323913574" lon="2.79619646072388">
			<ele>76.4000015258789</ele>
			<time>2014-01-02T14:09:13Z</time>
		</trkpt>
		<trkpt lat="39.5702285766602" lon="2.79612350463867">
			<ele>76.0999984741211</ele>
			<time>2014-01-02T14:09:14Z</time>
		</trkpt>
		<trkpt lat="39.5702285766602" lon="2.79605174064636">
			<ele>75.8000030517578</ele>
			<time>2014-01-02T14:09:15Z</time>
		</trkpt>
		<trkpt lat="39.5702285766602" lon="2.79597973823547">
			<ele>75.3000030517578</ele>
			<time>2014-01-02T14:09:16Z</time>
		</trkpt>
		<trkpt lat="39.5702247619629" lon="2.7959098815918">
			<ele>75</ele>
			<time>2014-01-02T14:09:17Z</time>
		</trkpt>
		<trkpt lat="39.5702247619629" lon="2.79583740234375">
			<ele>74.6999969482422</ele>
			<time>2014-01-02T14:09:18Z</time>
		</trkpt>
		<trkpt lat="39.5702209472656" lon="2.79576706886292">
			<ele>74.8000030517578</ele>
			<time>2014-01-02T14:09:19Z</time>
		</trkpt>
		<trkpt lat="39.5702209472656" lon="2.79570317268372">
			<ele>74.5</ele>
			<time>2014-01-02T14:09:20Z</time>
		</trkpt>
		<trkpt lat="39.5702209472656" lon="2.79563808441162">
			<ele>74.1999969482422</ele>
			<time>2014-01-02T14:09:21Z</time>
		</trkpt>
		<trkpt lat="39.5702171325684" lon="2.79557299613953">
			<ele>73.9000015258789</ele>
			<time>2014-01-02T14:09:22Z</time>
		</trkpt>
		<trkpt lat="39.5702133178711" lon="2.79551029205322">
			<ele>73.9000015258789</ele>
			<time>2014-01-02T14:09:23Z</time>
		</trkpt>
		<trkpt lat="39.5702095031738" lon="2.79545187950134">
			<ele>73.5999984741211</ele>
			<time>2014-01-02T14:09:24Z</time>
		</trkpt>
		<trkpt lat="39.5702018737793" lon="2.79538917541504">
			<ele>73.5</ele>
			<time>2014-01-02T14:09:25Z</time>
		</trkpt>
		<trkpt lat="39.5702018737793" lon="2.79532599449158">
			<ele>72.9000015258789</ele>
			<time>2014-01-02T14:09:26Z</time>
		</trkpt>
		<trkpt lat="39.570198059082" lon="2.79526305198669">
			<ele>72.6999969482422</ele>
			<time>2014-01-02T14:09:27Z</time>
		</trkpt>
		<trkpt lat="39.5701942443848" lon="2.79520082473755">
			<ele>72.6999969482422</ele>
			<time>2014-01-02T14:09:28Z</time>
		</trkpt>
		<trkpt lat="39.5701904296875" lon="2.79513573646545">
			<ele>72.4000015258789</ele>
			<time>2014-01-02T14:09:29Z</time>
		</trkpt>
		<trkpt lat="39.5701789855957" lon="2.79507446289063">
			<ele>72.1999969482422</ele>
			<time>2014-01-02T14:09:30Z</time>
		</trkpt>
		<trkpt lat="39.5701713562012" lon="2.79500985145569">
			<ele>72.6999969482422</ele>
			<time>2014-01-02T14:09:31Z</time>
		</trkpt>
		<trkpt lat="39.5701751708984" lon="2.7949481010437">
			<ele>72.6999969482422</ele>
			<time>2014-01-02T14:09:32Z</time>
		</trkpt>
		<trkpt lat="39.5701789855957" lon="2.79488039016724">
			<ele>72.0999984741211</ele>
			<time>2014-01-02T14:09:33Z</time>
		</trkpt>
		<trkpt lat="39.5701751708984" lon="2.79480981826782">
			<ele>72.3000030517578</ele>
			<time>2014-01-02T14:09:34Z</time>
		</trkpt>
		<trkpt lat="39.5701789855957" lon="2.79474472999573">
			<ele>72.0999984741211</ele>
			<time>2014-01-02T14:09:35Z</time>
		</trkpt>
		<trkpt lat="39.5701789855957" lon="2.79467630386353">
			<ele>71.9000015258789</ele>
			<time>2014-01-02T14:09:36Z</time>
		</trkpt>
		<trkpt lat="39.5701789855957" lon="2.79460644721985">
			<ele>71.8000030517578</ele>
			<time>2014-01-02T14:09:37Z</time>
		</trkpt>
		<trkpt lat="39.5701751708984" lon="2.7945351600647">
			<ele>71.4000015258789</ele>
			<time>2014-01-02T14:09:38Z</time>
		</trkpt>
		<trkpt lat="39.5701751708984" lon="2.79446578025818">
			<ele>71.0999984741211</ele>
			<time>2014-01-02T14:09:39Z</time>
		</trkpt>
		<trkpt lat="39.5701751708984" lon="2.79439640045166">
			<ele>70.5999984741211</ele>
			<time>2014-01-02T14:09:40Z</time>
		</trkpt>
		<trkpt lat="39.5701789855957" lon="2.79432654380798">
			<ele>69.9000015258789</ele>
			<time>2014-01-02T14:09:41Z</time>
		</trkpt>
		<trkpt lat="39.5701751708984" lon="2.79425501823425">
			<ele>69.8000030517578</ele>
			<time>2014-01-02T14:09:42Z</time>
		</trkpt>
		<trkpt lat="39.5701713562012" lon="2.79418468475342">
			<ele>69.5</ele>
			<time>2014-01-02T14:09:43Z</time>
		</trkpt>
		<trkpt lat="39.5701675415039" lon="2.79411292076111">
			<ele>69.4000015258789</ele>
			<time>2014-01-02T14:09:44Z</time>
		</trkpt>
		<trkpt lat="39.5701675415039" lon="2.7940468788147">
			<ele>68.9000015258789</ele>
			<time>2014-01-02T14:09:45Z</time>
		</trkpt>
		<trkpt lat="39.5701675415039" lon="2.79397869110107">
			<ele>69.1999969482422</ele>
			<time>2014-01-02T14:09:46Z</time>
		</trkpt>
		<trkpt lat="39.5701637268066" lon="2.7939145565033">
			<ele>69</ele>
			<time>2014-01-02T14:09:47Z</time>
		</trkpt>
		<trkpt lat="39.5701675415039" lon="2.79384803771973">
			<ele>68.8000030517578</ele>
			<time>2014-01-02T14:09:48Z</time>
		</trkpt>
		<trkpt lat="39.5701675415039" lon="2.79378509521484">
			<ele>68.6999969482422</ele>
			<time>2014-01-02T14:09:49Z</time>
		</trkpt>
		<trkpt lat="39.5701637268066" lon="2.79371809959412">
			<ele>68.4000015258789</ele>
			<time>2014-01-02T14:09:50Z</time>
		</trkpt>
		<trkpt lat="39.5701599121094" lon="2.79365396499634">
			<ele>68.5999984741211</ele>
			<time>2014-01-02T14:09:51Z</time>
		</trkpt>
		<trkpt lat="39.5701560974121" lon="2.79359126091003">
			<ele>68.3000030517578</ele>
			<time>2014-01-02T14:09:52Z</time>
		</trkpt>
		<trkpt lat="39.5701560974121" lon="2.79352593421936">
			<ele>68.1999969482422</ele>
			<time>2014-01-02T14:09:53Z</time>
		</trkpt>
		<trkpt lat="39.5701522827148" lon="2.79345750808716">
			<ele>68.4000015258789</ele>
			<time>2014-01-02T14:09:54Z</time>
		</trkpt>
		<trkpt lat="39.5701522827148" lon="2.79339194297791">
			<ele>68</ele>
			<time>2014-01-02T14:09:55Z</time>
		</trkpt>
		<trkpt lat="39.5701522827148" lon="2.79332900047302">
			<ele>67.8000030517578</ele>
			<time>2014-01-02T14:09:56Z</time>
		</trkpt>
		<trkpt lat="39.5701484680176" lon="2.79326415061951">
			<ele>67.5</ele>
			<time>2014-01-02T14:09:57Z</time>
		</trkpt>
		<trkpt lat="39.5701484680176" lon="2.7931981086731">
			<ele>67.4000015258789</ele>
			<time>2014-01-02T14:09:58Z</time>
		</trkpt>
		<trkpt lat="39.5701446533203" lon="2.79313230514526">
			<ele>67.6999969482422</ele>
			<time>2014-01-02T14:09:59Z</time>
		</trkpt>
		<trkpt lat="39.570140838623" lon="2.7930645942688">
			<ele>67.4000015258789</ele>
			<time>2014-01-02T14:10:00Z</time>
		</trkpt>
		<trkpt lat="39.570140838623" lon="2.7929961681366">
			<ele>67</ele>
			<time>2014-01-02T14:10:01Z</time>
		</trkpt>
		<trkpt lat="39.570140838623" lon="2.79292440414429">
			<ele>66.8000030517578</ele>
			<time>2014-01-02T14:10:02Z</time>
		</trkpt>
		<trkpt lat="39.5701370239258" lon="2.79285335540771">
			<ele>66.5</ele>
			<time>2014-01-02T14:10:03Z</time>
		</trkpt>
		<trkpt lat="39.5701293945313" lon="2.79278659820557">
			<ele>66.4000015258789</ele>
			<time>2014-01-02T14:10:04Z</time>
		</trkpt>
		<trkpt lat="39.5701293945313" lon="2.79271578788757">
			<ele>66.3000030517578</ele>
			<time>2014-01-02T14:10:05Z</time>
		</trkpt>
		<trkpt lat="39.570125579834" lon="2.7926504611969">
			<ele>66.1999969482422</ele>
			<time>2014-01-02T14:10:06Z</time>
		</trkpt>
		<trkpt lat="39.5701217651367" lon="2.79258298873901">
			<ele>66.0999984741211</ele>
			<time>2014-01-02T14:10:07Z</time>
		</trkpt>
		<trkpt lat="39.5701179504395" lon="2.79251909255981">
			<ele>66.3000030517578</ele>
			<time>2014-01-02T14:10:08Z</time>
		</trkpt>
		<trkpt lat="39.5701141357422" lon="2.79245781898499">
			<ele>66.1999969482422</ele>
			<time>2014-01-02T14:10:09Z</time>
		</trkpt>
		<trkpt lat="39.5701065063477" lon="2.79239368438721">
			<ele>66.1999969482422</ele>
			<time>2014-01-02T14:10:10Z</time>
		</trkpt>
		<trkpt lat="39.5701026916504" lon="2.79232740402222">
			<ele>66.0999984741211</ele>
			<time>2014-01-02T14:10:11Z</time>
		</trkpt>
		<trkpt lat="39.5700950622559" lon="2.79226160049438">
			<ele>66</ele>
			<time>2014-01-02T14:10:12Z</time>
		</trkpt>
		<trkpt lat="39.5700950622559" lon="2.79219317436218">
			<ele>65.5999984741211</ele>
			<time>2014-01-02T14:10:13Z</time>
		</trkpt>
		<trkpt lat="39.5700874328613" lon="2.79213070869446">
			<ele>65.5</ele>
			<time>2014-01-02T14:10:14Z</time>
		</trkpt>
		<trkpt lat="39.5700798034668" lon="2.79206109046936">
			<ele>65.5</ele>
			<time>2014-01-02T14:10:15Z</time>
		</trkpt>
		<trkpt lat="39.5700759887695" lon="2.79199814796448">
			<ele>65.5999984741211</ele>
			<time>2014-01-02T14:10:16Z</time>
		</trkpt>
		<trkpt lat="39.5700721740723" lon="2.79193258285522">
			<ele>65.6999969482422</ele>
			<time>2014-01-02T14:10:17Z</time>
		</trkpt>
		<trkpt lat="39.5700645446777" lon="2.79187035560608">
			<ele>65.5</ele>
			<time>2014-01-02T14:10:18Z</time>
		</trkpt>
		<trkpt lat="39.5700607299805" lon="2.79180693626404">
			<ele>65.3000030517578</ele>
			<time>2014-01-02T14:10:19Z</time>
		</trkpt>
		<trkpt lat="39.5700607299805" lon="2.79174375534058">
			<ele>65.3000030517578</ele>
			<time>2014-01-02T14:10:20Z</time>
		</trkpt>
		<trkpt lat="39.5700531005859" lon="2.79168057441711">
			<ele>65.6999969482422</ele>
			<time>2014-01-02T14:10:21Z</time>
		</trkpt>
		<trkpt lat="39.5700454711914" lon="2.79161882400513">
			<ele>65.6999969482422</ele>
			<time>2014-01-02T14:10:22Z</time>
		</trkpt>
		<trkpt lat="39.5700416564941" lon="2.79155611991882">
			<ele>65.5</ele>
			<time>2014-01-02T14:10:23Z</time>
		</trkpt>
		<trkpt lat="39.5700340270996" lon="2.79149508476257">
			<ele>65.9000015258789</ele>
			<time>2014-01-02T14:10:24Z</time>
		</trkpt>
		<trkpt lat="39.5700302124023" lon="2.79143309593201">
			<ele>65.9000015258789</ele>
			<time>2014-01-02T14:10:25Z</time>
		</trkpt>
		<trkpt lat="39.5700302124023" lon="2.79137253761292">
			<ele>66.5</ele>
			<time>2014-01-02T14:10:26Z</time>
		</trkpt>
		<trkpt lat="39.5700263977051" lon="2.79131031036377">
			<ele>66.5</ele>
			<time>2014-01-02T14:10:27Z</time>
		</trkpt>
		<trkpt lat="39.5700263977051" lon="2.79124450683594">
			<ele>66.0999984741211</ele>
			<time>2014-01-02T14:10:28Z</time>
		</trkpt>
		<trkpt lat="39.5700263977051" lon="2.79118132591248">
			<ele>66</ele>
			<time>2014-01-02T14:10:29Z</time>
		</trkpt>
		<trkpt lat="39.5700187683105" lon="2.79111790657043">
			<ele>65.9000015258789</ele>
			<time>2014-01-02T14:10:30Z</time>
		</trkpt>
		<trkpt lat="39.5700149536133" lon="2.79105591773987">
			<ele>65.8000030517578</ele>
			<time>2014-01-02T14:10:31Z</time>
		</trkpt>
		<trkpt lat="39.5700073242188" lon="2.79099273681641">
			<ele>66.0999984741211</ele>
			<time>2014-01-02T14:10:32Z</time>
		</trkpt>
		<trkpt lat="39.5700035095215" lon="2.79092812538147">
			<ele>66.0999984741211</ele>
			<time>2014-01-02T14:10:33Z</time>
		</trkpt>
		<trkpt lat="39.5699996948242" lon="2.79086399078369">
			<ele>66</ele>
			<time>2014-01-02T14:10:34Z</time>
		</trkpt>
		<trkpt lat="39.5699920654297" lon="2.79080128669739">
			<ele>66.0999984741211</ele>
			<time>2014-01-02T14:10:35Z</time>
		</trkpt>
		<trkpt lat="39.5699882507324" lon="2.79073691368103">
			<ele>65.8000030517578</ele>
			<time>2014-01-02T14:10:36Z</time>
		</trkpt>
		<trkpt lat="39.5699806213379" lon="2.79067349433899">
			<ele>65.5999984741211</ele>
			<time>2014-01-02T14:10:37Z</time>
		</trkpt>
		<trkpt lat="39.5699768066406" lon="2.79061102867126">
			<ele>65.8000030517578</ele>
			<time>2014-01-02T14:10:38Z</time>
		</trkpt>
		<trkpt lat="39.5699729919434" lon="2.79054760932922">
			<ele>66</ele>
			<time>2014-01-02T14:10:39Z</time>
		</trkpt>
		<trkpt lat="39.5699653625488" lon="2.79048538208008">
			<ele>65.9000015258789</ele>
			<time>2014-01-02T14:10:40Z</time>
		</trkpt>
		<trkpt lat="39.5699615478516" lon="2.79042434692383">
			<ele>65.6999969482422</ele>
			<time>2014-01-02T14:10:41Z</time>
		</trkpt>
		<trkpt lat="39.5699577331543" lon="2.79036355018616">
			<ele>66</ele>
			<time>2014-01-02T14:10:42Z</time>
		</trkpt>
		<trkpt lat="39.569953918457" lon="2.79030299186707">
			<ele>66</ele>
			<time>2014-01-02T14:10:43Z</time>
		</trkpt>
		<trkpt lat="39.5699462890625" lon="2.79024505615234">
			<ele>65.8000030517578</ele>
			<time>2014-01-02T14:10:44Z</time>
		</trkpt>
		<trkpt lat="39.5699462890625" lon="2.79018592834473">
			<ele>65.6999969482422</ele>
			<time>2014-01-02T14:10:45Z</time>
		</trkpt>
		<trkpt lat="39.5699348449707" lon="2.79007053375244">
			<ele>65.4000015258789</ele>
			<time>2014-01-02T14:10:47Z</time>
		</trkpt>
		<trkpt lat="39.5699195861816" lon="2.78995847702026">
			<ele>65.1999969482422</ele>
			<time>2014-01-02T14:10:49Z</time>
		</trkpt>
		<trkpt lat="39.5699157714844" lon="2.78984260559082">
			<ele>65.0999984741211</ele>
			<time>2014-01-02T14:10:51Z</time>
		</trkpt>
		<trkpt lat="39.5699043273926" lon="2.78973412513733">
			<ele>65</ele>
			<time>2014-01-02T14:10:53Z</time>
		</trkpt>
		<trkpt lat="39.5698928833008" lon="2.78962588310242">
			<ele>64.5999984741211</ele>
			<time>2014-01-02T14:10:55Z</time>
		</trkpt>
		<trkpt lat="39.5698776245117" lon="2.78951668739319">
			<ele>64.6999969482422</ele>
			<time>2014-01-02T14:10:57Z</time>
		</trkpt>
		<trkpt lat="39.5698699951172" lon="2.78940773010254">
			<ele>64.5999984741211</ele>
			<time>2014-01-02T14:10:59Z</time>
		</trkpt>
		<trkpt lat="39.5698623657227" lon="2.78930234909058">
			<ele>64.4000015258789</ele>
			<time>2014-01-02T14:11:01Z</time>
		</trkpt>
		<trkpt lat="39.5698547363281" lon="2.78918766975403">
			<ele>64.0999984741211</ele>
			<time>2014-01-02T14:11:03Z</time>
		</trkpt>
		<trkpt lat="39.5698471069336" lon="2.7890796661377">
			<ele>63.9000015258789</ele>
			<time>2014-01-02T14:11:05Z</time>
		</trkpt>
		<trkpt lat="39.5698432922363" lon="2.78896975517273">
			<ele>63.9000015258789</ele>
			<time>2014-01-02T14:11:07Z</time>
		</trkpt>
		<trkpt lat="39.5698318481445" lon="2.7888650894165">
			<ele>64.3000030517578</ele>
			<time>2014-01-02T14:11:09Z</time>
		</trkpt>
		<trkpt lat="39.56982421875" lon="2.78875708580017">
			<ele>64.0999984741211</ele>
			<time>2014-01-02T14:11:11Z</time>
		</trkpt>
		<trkpt lat="39.5698165893555" lon="2.7886483669281">
			<ele>63.9000015258789</ele>
			<time>2014-01-02T14:11:13Z</time>
		</trkpt>
		<trkpt lat="39.5698051452637" lon="2.78853940963745">
			<ele>63.7999992370605</ele>
			<time>2014-01-02T14:11:15Z</time>
		</trkpt>
		<trkpt lat="39.5698013305664" lon="2.78843212127686">
			<ele>63.5</ele>
			<time>2014-01-02T14:11:17Z</time>
		</trkpt>
		<trkpt lat="39.5697937011719" lon="2.7883186340332">
			<ele>63.2999992370605</ele>
			<time>2014-01-02T14:11:19Z</time>
		</trkpt>
		<trkpt lat="39.5697860717773" lon="2.78820896148682">
			<ele>63.2999992370605</ele>
			<time>2014-01-02T14:11:21Z</time>
		</trkpt>
		<trkpt lat="39.5697822570801" lon="2.78809857368469">
			<ele>63.2000007629395</ele>
			<time>2014-01-02T14:11:23Z</time>
		</trkpt>
		<trkpt lat="39.5697746276855" lon="2.78798937797546">
			<ele>63.0999984741211</ele>
			<time>2014-01-02T14:11:25Z</time>
		</trkpt>
		<trkpt lat="39.5697631835938" lon="2.78788137435913">
			<ele>63.2000007629395</ele>
			<time>2014-01-02T14:11:27Z</time>
		</trkpt>
		<trkpt lat="39.5697631835938" lon="2.78777480125427">
			<ele>63.0999984741211</ele>
			<time>2014-01-02T14:11:29Z</time>
		</trkpt>
		<trkpt lat="39.5697746276855" lon="2.78771877288818">
			<ele>63.0999984741211</ele>
			<time>2014-01-02T14:11:30Z</time>
		</trkpt>
		<trkpt lat="39.5698165893555" lon="2.7876238822937">
			<ele>63.2000007629395</ele>
			<time>2014-01-02T14:11:32Z</time>
		</trkpt>
		<trkpt lat="39.5698432922363" lon="2.78751444816589">
			<ele>62.4000015258789</ele>
			<time>2014-01-02T14:11:34Z</time>
		</trkpt>
		<trkpt lat="39.5698394775391" lon="2.78745007514954">
			<ele>62.2999992370605</ele>
			<time>2014-01-02T14:11:35Z</time>
		</trkpt>
		<trkpt lat="39.5698318481445" lon="2.78739142417908">
			<ele>62.0999984741211</ele>
			<time>2014-01-02T14:11:36Z</time>
		</trkpt>
		<trkpt lat="39.5698204040527" lon="2.78733253479004">
			<ele>62.0999984741211</ele>
			<time>2014-01-02T14:11:37Z</time>
		</trkpt>
		<trkpt lat="39.5697975158691" lon="2.78722071647644">
			<ele>61.7999992370605</ele>
			<time>2014-01-02T14:11:39Z</time>
		</trkpt>
		<trkpt lat="39.5697898864746" lon="2.78711009025574">
			<ele>61.7999992370605</ele>
			<time>2014-01-02T14:11:41Z</time>
		</trkpt>
		<trkpt lat="39.5698165893555" lon="2.78701734542847">
			<ele>61.7999992370605</ele>
			<time>2014-01-02T14:11:43Z</time>
		</trkpt>
		<trkpt lat="39.5698471069336" lon="2.78692603111267">
			<ele>61.5</ele>
			<time>2014-01-02T14:11:45Z</time>
		</trkpt>
		<trkpt lat="39.5698432922363" lon="2.78680944442749">
			<ele>61.2000007629395</ele>
			<time>2014-01-02T14:11:47Z</time>
		</trkpt>
		<trkpt lat="39.5698394775391" lon="2.78674864768982">
			<ele>61.0999984741211</ele>
			<time>2014-01-02T14:11:48Z</time>
		</trkpt>
		<trkpt lat="39.5698356628418" lon="2.78668785095215">
			<ele>61.0999984741211</ele>
			<time>2014-01-02T14:11:49Z</time>
		</trkpt>
		<trkpt lat="39.5698280334473" lon="2.78662919998169">
			<ele>61.2000007629395</ele>
			<time>2014-01-02T14:11:50Z</time>
		</trkpt>
		<trkpt lat="39.5698165893555" lon="2.7865149974823">
			<ele>61.2999992370605</ele>
			<time>2014-01-02T14:11:52Z</time>
		</trkpt>
		<trkpt lat="39.5698089599609" lon="2.7864031791687">
			<ele>61</ele>
			<time>2014-01-02T14:11:54Z</time>
		</trkpt>
		<trkpt lat="39.5697975158691" lon="2.786292552948">
			<ele>60.5999984741211</ele>
			<time>2014-01-02T14:11:56Z</time>
		</trkpt>
		<trkpt lat="39.5697937011719" lon="2.78623199462891">
			<ele>60.4000015258789</ele>
			<time>2014-01-02T14:11:57Z</time>
		</trkpt>
		<trkpt lat="39.5697898864746" lon="2.78617310523987">
			<ele>60.2000007629395</ele>
			<time>2014-01-02T14:11:58Z</time>
		</trkpt>
		<trkpt lat="39.5697822570801" lon="2.78606200218201">
			<ele>60.0999984741211</ele>
			<time>2014-01-02T14:12:00Z</time>
		</trkpt>
		<trkpt lat="39.5697708129883" lon="2.78595089912415">
			<ele>60</ele>
			<time>2014-01-02T14:12:02Z</time>
		</trkpt>
		<trkpt lat="39.5697593688965" lon="2.78584241867065">
			<ele>59.9000015258789</ele>
			<time>2014-01-02T14:12:04Z</time>
		</trkpt>
		<trkpt lat="39.569751739502" lon="2.78573608398438">
			<ele>59.7999992370605</ele>
			<time>2014-01-02T14:12:06Z</time>
		</trkpt>
		<trkpt lat="39.5697441101074" lon="2.78562688827515">
			<ele>59.9000015258789</ele>
			<time>2014-01-02T14:12:08Z</time>
		</trkpt>
		<trkpt lat="39.5697364807129" lon="2.78551936149597">
			<ele>60</ele>
			<time>2014-01-02T14:12:10Z</time>
		</trkpt>
		<trkpt lat="39.5697250366211" lon="2.78541231155396">
			<ele>60.2000007629395</ele>
			<time>2014-01-02T14:12:12Z</time>
		</trkpt>
		<trkpt lat="39.5697212219238" lon="2.78531265258789">
			<ele>60.5</ele>
			<time>2014-01-02T14:12:14Z</time>
		</trkpt>
		<trkpt lat="39.569709777832" lon="2.78521180152893">
			<ele>60.2999992370605</ele>
			<time>2014-01-02T14:12:16Z</time>
		</trkpt>
		<trkpt lat="39.5697059631348" lon="2.78510475158691">
			<ele>60.0999984741211</ele>
			<time>2014-01-02T14:12:18Z</time>
		</trkpt>
		<trkpt lat="39.5696983337402" lon="2.78500580787659">
			<ele>60</ele>
			<time>2014-01-02T14:12:20Z</time>
		</trkpt>
		<trkpt lat="39.5696983337402" lon="2.78491568565369">
			<ele>60.0999984741211</ele>
			<time>2014-01-02T14:12:22Z</time>
		</trkpt>
		<trkpt lat="39.5696830749512" lon="2.78483724594116">
			<ele>60.2000007629395</ele>
			<time>2014-01-02T14:12:24Z</time>
		</trkpt>
		<trkpt lat="39.5696792602539" lon="2.78475069999695">
			<ele>60.2000007629395</ele>
			<time>2014-01-02T14:12:26Z</time>
		</trkpt>
		<trkpt lat="39.5696716308594" lon="2.7846531867981">
			<ele>60.0999984741211</ele>
			<time>2014-01-02T14:12:28Z</time>
		</trkpt>
		<trkpt lat="39.5696563720703" lon="2.78455328941345">
			<ele>60.2000007629395</ele>
			<time>2014-01-02T14:12:30Z</time>
		</trkpt>
		<trkpt lat="39.5696487426758" lon="2.78444981575012">
			<ele>60.4000015258789</ele>
			<time>2014-01-02T14:12:32Z</time>
		</trkpt>
		<trkpt lat="39.569637298584" lon="2.784348487854">
			<ele>60.4000015258789</ele>
			<time>2014-01-02T14:12:34Z</time>
		</trkpt>
		<trkpt lat="39.5696296691895" lon="2.78424572944641">
			<ele>60.4000015258789</ele>
			<time>2014-01-02T14:12:36Z</time>
		</trkpt>
		<trkpt lat="39.5696220397949" lon="2.78414106369019">
			<ele>60.4000015258789</ele>
			<time>2014-01-02T14:12:38Z</time>
		</trkpt>
		<trkpt lat="39.5696105957031" lon="2.78403544425964">
			<ele>60.0999984741211</ele>
			<time>2014-01-02T14:12:40Z</time>
		</trkpt>
		<trkpt lat="39.5695991516113" lon="2.78393149375916">
			<ele>60.2000007629395</ele>
			<time>2014-01-02T14:12:42Z</time>
		</trkpt>
		<trkpt lat="39.5695877075195" lon="2.78382086753845">
			<ele>60.2999992370605</ele>
			<time>2014-01-02T14:12:44Z</time>
		</trkpt>
		<trkpt lat="39.5695762634277" lon="2.78370761871338">
			<ele>59.9000015258789</ele>
			<time>2014-01-02T14:12:46Z</time>
		</trkpt>
		<trkpt lat="39.5695610046387" lon="2.78359651565552">
			<ele>59.5999984741211</ele>
			<time>2014-01-02T14:12:48Z</time>
		</trkpt>
		<trkpt lat="39.5695495605469" lon="2.7834906578064">
			<ele>60</ele>
			<time>2014-01-02T14:12:50Z</time>
		</trkpt>
		<trkpt lat="39.5695419311523" lon="2.78339338302612">
			<ele>60.7000007629395</ele>
			<time>2014-01-02T14:12:52Z</time>
		</trkpt>
		<trkpt lat="39.5695343017578" lon="2.78330373764038">
			<ele>60.7000007629395</ele>
			<time>2014-01-02T14:12:54Z</time>
		</trkpt>
		<trkpt lat="39.5695266723633" lon="2.78319096565247">
			<ele>59.9000015258789</ele>
			<time>2014-01-02T14:12:56Z</time>
		</trkpt>
		<trkpt lat="39.5695190429688" lon="2.78307485580444">
			<ele>59.7000007629395</ele>
			<time>2014-01-02T14:12:58Z</time>
		</trkpt>
		<trkpt lat="39.5695152282715" lon="2.78301453590393">
			<ele>59.7999992370605</ele>
			<time>2014-01-02T14:12:59Z</time>
		</trkpt>
		<trkpt lat="39.5695152282715" lon="2.782954454422">
			<ele>59.7000007629395</ele>
			<time>2014-01-02T14:13:00Z</time>
		</trkpt>
		<trkpt lat="39.569507598877" lon="2.78289341926575">
			<ele>59.7000007629395</ele>
			<time>2014-01-02T14:13:01Z</time>
		</trkpt>
		<trkpt lat="39.5695037841797" lon="2.78283357620239">
			<ele>59.7000007629395</ele>
			<time>2014-01-02T14:13:02Z</time>
		</trkpt>
		<trkpt lat="39.5694923400879" lon="2.78271770477295">
			<ele>60.0999984741211</ele>
			<time>2014-01-02T14:13:04Z</time>
		</trkpt>
		<trkpt lat="39.5694808959961" lon="2.78261017799377">
			<ele>59.9000015258789</ele>
			<time>2014-01-02T14:13:06Z</time>
		</trkpt>
		<trkpt lat="39.5694732666016" lon="2.7825014591217">
			<ele>60.2000007629395</ele>
			<time>2014-01-02T14:13:08Z</time>
		</trkpt>
		<trkpt lat="39.5694618225098" lon="2.78239321708679">
			<ele>60.0999984741211</ele>
			<time>2014-01-02T14:13:10Z</time>
		</trkpt>
		<trkpt lat="39.5694389343262" lon="2.78217506408691">
			<ele>60.0999984741211</ele>
			<time>2014-01-02T14:13:14Z</time>
		</trkpt>
		<trkpt lat="39.5694274902344" lon="2.78207015991211">
			<ele>59.9000015258789</ele>
			<time>2014-01-02T14:13:17Z</time>
		</trkpt>
		<trkpt lat="39.5694160461426" lon="2.78196144104004">
			<ele>60.0999984741211</ele>
			<time>2014-01-02T14:13:18Z</time>
		</trkpt>
		<trkpt lat="39.569408416748" lon="2.78185367584229">
			<ele>60</ele>
			<time>2014-01-02T14:13:20Z</time>
		</trkpt>
		<trkpt lat="39.5693969726563" lon="2.78175592422485">
			<ele>60.2000007629395</ele>
			<time>2014-01-02T14:13:22Z</time>
		</trkpt>
		<trkpt lat="39.569393157959" lon="2.78166604042053">
			<ele>60.2000007629395</ele>
			<time>2014-01-02T14:13:24Z</time>
		</trkpt>
		<trkpt lat="39.5693817138672" lon="2.78157734870911">
			<ele>60.0999984741211</ele>
			<time>2014-01-02T14:13:26Z</time>
		</trkpt>
		<trkpt lat="39.5693740844727" lon="2.78146624565125">
			<ele>59.9000015258789</ele>
			<time>2014-01-02T14:13:28Z</time>
		</trkpt>
		<trkpt lat="39.5693702697754" lon="2.78140664100647">
			<ele>59.9000015258789</ele>
			<time>2014-01-02T14:13:29Z</time>
		</trkpt>
		<trkpt lat="39.5693626403809" lon="2.78134870529175">
			<ele>59.7999992370605</ele>
			<time>2014-01-02T14:13:30Z</time>
		</trkpt>
		<trkpt lat="39.5693550109863" lon="2.7812385559082">
			<ele>59.7999992370605</ele>
			<time>2014-01-02T14:13:32Z</time>
		</trkpt>
		<trkpt lat="39.5693435668945" lon="2.78112745285034">
			<ele>59.9000015258789</ele>
			<time>2014-01-02T14:13:34Z</time>
		</trkpt>
		<trkpt lat="39.5693359375" lon="2.78101515769958">
			<ele>60.2000007629395</ele>
			<time>2014-01-02T14:13:36Z</time>
		</trkpt>
		<trkpt lat="39.5693321228027" lon="2.78090739250183">
			<ele>60.0999984741211</ele>
			<time>2014-01-02T14:13:38Z</time>
		</trkpt>
		<trkpt lat="39.5693244934082" lon="2.78080344200134">
			<ele>60.0999984741211</ele>
			<time>2014-01-02T14:13:42Z</time>
		</trkpt>
		<trkpt lat="39.5693206787109" lon="2.78064155578613">
			<ele>59.7000007629395</ele>
			<time>2014-01-02T14:13:43Z</time>
		</trkpt>
		<trkpt lat="39.5693206787109" lon="2.78048276901245">
			<ele>59.5999984741211</ele>
			<time>2014-01-02T14:13:47Z</time>
		</trkpt>
		<trkpt lat="39.5693206787109" lon="2.78032565116882">
			<ele>59.2999992370605</ele>
			<time>2014-01-02T14:13:50Z</time>
		</trkpt>
		<trkpt lat="39.5693168640137" lon="2.78017997741699">
			<ele>59.0999984741211</ele>
			<time>2014-01-02T14:13:51Z</time>
		</trkpt>
		<trkpt lat="39.5693168640137" lon="2.78008651733398">
			<ele>58.5999984741211</ele>
			<time>2014-01-02T14:13:53Z</time>
		</trkpt>
		<trkpt lat="39.5693244934082" lon="2.77999114990234">
			<ele>58.5</ele>
			<time>2014-01-02T14:13:55Z</time>
		</trkpt>
		<trkpt lat="39.5693321228027" lon="2.77988743782043">
			<ele>58.4000015258789</ele>
			<time>2014-01-02T14:13:57Z</time>
		</trkpt>
		<trkpt lat="39.5693321228027" lon="2.77978301048279">
			<ele>58.5</ele>
			<time>2014-01-02T14:13:59Z</time>
		</trkpt>
		<trkpt lat="39.5693359375" lon="2.77967929840088">
			<ele>58.5999984741211</ele>
			<time>2014-01-02T14:14:01Z</time>
		</trkpt>
		<trkpt lat="39.5693397521973" lon="2.77957558631897">
			<ele>58.5999984741211</ele>
			<time>2014-01-02T14:14:03Z</time>
		</trkpt>
		<trkpt lat="39.5693435668945" lon="2.77946996688843">
			<ele>58.4000015258789</ele>
			<time>2014-01-02T14:14:05Z</time>
		</trkpt>
		<trkpt lat="39.5693435668945" lon="2.7793664932251">
			<ele>58.2999992370605</ele>
			<time>2014-01-02T14:14:07Z</time>
		</trkpt>
		<trkpt lat="39.5693473815918" lon="2.77926635742188">
			<ele>58.2000007629395</ele>
			<time>2014-01-02T14:14:09Z</time>
		</trkpt>
		<trkpt lat="39.5693473815918" lon="2.77917218208313">
			<ele>58</ele>
			<time>2014-01-02T14:14:11Z</time>
		</trkpt>
		<trkpt lat="39.5693511962891" lon="2.77907848358154">
			<ele>58.2000007629395</ele>
			<time>2014-01-02T14:14:13Z</time>
		</trkpt>
		<trkpt lat="39.5693511962891" lon="2.77898597717285">
			<ele>58.2000007629395</ele>
			<time>2014-01-02T14:14:15Z</time>
		</trkpt>
		<trkpt lat="39.5693511962891" lon="2.77889251708984">
			<ele>58.4000015258789</ele>
			<time>2014-01-02T14:14:17Z</time>
		</trkpt>
		<trkpt lat="39.5693511962891" lon="2.77880144119263">
			<ele>59</ele>
			<time>2014-01-02T14:14:19Z</time>
		</trkpt>
		<trkpt lat="39.5693550109863" lon="2.7787139415741">
			<ele>59.0999984741211</ele>
			<time>2014-01-02T14:14:23Z</time>
		</trkpt>
		<trkpt lat="39.5693588256836" lon="2.77862691879272">
			<ele>58.9000015258789</ele>
			<time>2014-01-02T14:14:24Z</time>
		</trkpt>
		<trkpt lat="39.5693588256836" lon="2.77854228019714">
			<ele>58.7999992370605</ele>
			<time>2014-01-02T14:14:26Z</time>
		</trkpt>
		<trkpt lat="39.5693626403809" lon="2.77845478057861">
			<ele>58.7000007629395</ele>
			<time>2014-01-02T14:14:28Z</time>
		</trkpt>
		<trkpt lat="39.5693588256836" lon="2.77836227416992">
			<ele>58.9000015258789</ele>
			<time>2014-01-02T14:14:30Z</time>
		</trkpt>
		<trkpt lat="39.5693550109863" lon="2.77826905250549">
			<ele>59</ele>
			<time>2014-01-02T14:14:32Z</time>
		</trkpt>
		<trkpt lat="39.5693511962891" lon="2.77817273139954">
			<ele>58.9000015258789</ele>
			<time>2014-01-02T14:14:34Z</time>
		</trkpt>
		<trkpt lat="39.5693321228027" lon="2.77807950973511">
			<ele>58.4000015258789</ele>
			<time>2014-01-02T14:14:36Z</time>
		</trkpt>
		<trkpt lat="39.5693130493164" lon="2.77798342704773">
			<ele>58.4000015258789</ele>
			<time>2014-01-02T14:14:38Z</time>
		</trkpt>
		<trkpt lat="39.5693016052246" lon="2.77789092063904">
			<ele>58.9000015258789</ele>
			<time>2014-01-02T14:14:40Z</time>
		</trkpt>
		<trkpt lat="39.5692939758301" lon="2.7778000831604">
			<ele>58.7999992370605</ele>
			<time>2014-01-02T14:14:42Z</time>
		</trkpt>
		<trkpt lat="39.5692901611328" lon="2.77771043777466">
			<ele>59.2000007629395</ele>
			<time>2014-01-02T14:14:44Z</time>
		</trkpt>
		<trkpt lat="39.5692863464355" lon="2.77762269973755">
			<ele>59.7999992370605</ele>
			<time>2014-01-02T14:14:46Z</time>
		</trkpt>
		<trkpt lat="39.5692825317383" lon="2.77753496170044">
			<ele>59.7999992370605</ele>
			<time>2014-01-02T14:14:48Z</time>
		</trkpt>
		<trkpt lat="39.569278717041" lon="2.77745294570923">
			<ele>59.9000015258789</ele>
			<time>2014-01-02T14:14:50Z</time>
		</trkpt>
		<trkpt lat="39.5692825317383" lon="2.7773756980896">
			<ele>60.0999984741211</ele>
			<time>2014-01-02T14:14:52Z</time>
		</trkpt>
		<trkpt lat="39.569278717041" lon="2.77730083465576">
			<ele>60.5999984741211</ele>
			<time>2014-01-02T14:14:54Z</time>
		</trkpt>
		<trkpt lat="39.5692825317383" lon="2.77722978591919">
			<ele>61</ele>
			<time>2014-01-02T14:14:56Z</time>
		</trkpt>
		<trkpt lat="39.5692825317383" lon="2.77715826034546">
			<ele>61.4000015258789</ele>
			<time>2014-01-02T14:14:58Z</time>
		</trkpt>
		<trkpt lat="39.5692825317383" lon="2.77708673477173">
			<ele>61.5999984741211</ele>
			<time>2014-01-02T14:15:00Z</time>
		</trkpt>
		<trkpt lat="39.569278717041" lon="2.77701497077942">
			<ele>62</ele>
			<time>2014-01-02T14:15:02Z</time>
		</trkpt>
		<trkpt lat="39.569278717041" lon="2.77694797515869">
			<ele>62.4000015258789</ele>
			<time>2014-01-02T14:15:04Z</time>
		</trkpt>
		<trkpt lat="39.569278717041" lon="2.77688121795654">
			<ele>62.9000015258789</ele>
			<time>2014-01-02T14:15:06Z</time>
		</trkpt>
		<trkpt lat="39.5692749023438" lon="2.77681374549866">
			<ele>63.4000015258789</ele>
			<time>2014-01-02T14:15:08Z</time>
		</trkpt>
		<trkpt lat="39.5692749023438" lon="2.77674698829651">
			<ele>63.7999992370605</ele>
			<time>2014-01-02T14:15:10Z</time>
		</trkpt>
		<trkpt lat="39.5692749023438" lon="2.77668046951294">
			<ele>64.0999984741211</ele>
			<time>2014-01-02T14:15:12Z</time>
		</trkpt>
		<trkpt lat="39.5692710876465" lon="2.77661609649658">
			<ele>64.5</ele>
			<time>2014-01-02T14:15:14Z</time>
		</trkpt>
		<trkpt lat="39.5692710876465" lon="2.77655148506165">
			<ele>64.9000015258789</ele>
			<time>2014-01-02T14:15:16Z</time>
		</trkpt>
		<trkpt lat="39.5692672729492" lon="2.77649068832397">
			<ele>65.3000030517578</ele>
			<time>2014-01-02T14:15:18Z</time>
		</trkpt>
		<trkpt lat="39.569263458252" lon="2.77642893791199">
			<ele>65.8000030517578</ele>
			<time>2014-01-02T14:15:20Z</time>
		</trkpt>
		<trkpt lat="39.5692672729492" lon="2.77636647224426">
			<ele>65.9000015258789</ele>
			<time>2014-01-02T14:15:22Z</time>
		</trkpt>
		<trkpt lat="39.5692710876465" lon="2.77630567550659">
			<ele>66.0999984741211</ele>
			<time>2014-01-02T14:15:24Z</time>
		</trkpt>
		<trkpt lat="39.5692672729492" lon="2.77624464035034">
			<ele>66.5</ele>
			<time>2014-01-02T14:15:26Z</time>
		</trkpt>
		<trkpt lat="39.569263458252" lon="2.77618479728699">
			<ele>66.5</ele>
			<time>2014-01-02T14:15:28Z</time>
		</trkpt>
		<trkpt lat="39.5692596435547" lon="2.77612471580505">
			<ele>66.5</ele>
			<time>2014-01-02T14:15:30Z</time>
		</trkpt>
		<trkpt lat="39.569263458252" lon="2.77606272697449">
			<ele>66.5</ele>
			<time>2014-01-02T14:15:32Z</time>
		</trkpt>
		<trkpt lat="39.569263458252" lon="2.77600169181824">
			<ele>66.4000015258789</ele>
			<time>2014-01-02T14:15:34Z</time>
		</trkpt>
		<trkpt lat="39.5692596435547" lon="2.77593874931335">
			<ele>66.5999984741211</ele>
			<time>2014-01-02T14:15:36Z</time>
		</trkpt>
		<trkpt lat="39.5692672729492" lon="2.7758777141571">
			<ele>66.4000015258789</ele>
			<time>2014-01-02T14:15:38Z</time>
		</trkpt>
		<trkpt lat="39.5692710876465" lon="2.77581405639648">
			<ele>66.5</ele>
			<time>2014-01-02T14:15:40Z</time>
		</trkpt>
		<trkpt lat="39.569278717041" lon="2.77574872970581">
			<ele>66.4000015258789</ele>
			<time>2014-01-02T14:15:42Z</time>
		</trkpt>
		<trkpt lat="39.5692939758301" lon="2.77564668655396">
			<ele>66.5</ele>
			<time>2014-01-02T14:15:45Z</time>
		</trkpt>
		<trkpt lat="39.5693168640137" lon="2.77557897567749">
			<ele>66.6999969482422</ele>
			<time>2014-01-02T14:15:47Z</time>
		</trkpt>
		<trkpt lat="39.5693435668945" lon="2.77551698684692">
			<ele>66.6999969482422</ele>
			<time>2014-01-02T14:15:49Z</time>
		</trkpt>
		<trkpt lat="39.5693664550781" lon="2.77545547485352">
			<ele>67.0999984741211</ele>
			<time>2014-01-02T14:15:52Z</time>
		</trkpt>
		<trkpt lat="39.5694198608398" lon="2.77540564537048">
			<ele>67.1999969482422</ele>
			<time>2014-01-02T14:15:55Z</time>
		</trkpt>
		<trkpt lat="39.5694541931152" lon="2.77536416053772">
			<ele>67.0999984741211</ele>
			<time>2014-01-02T14:16:12Z</time>
		</trkpt>
		<trkpt lat="39.5694847106934" lon="2.77527785301208">
			<ele>66.5</ele>
			<time>2014-01-02T14:16:14Z</time>
		</trkpt>
		<trkpt lat="39.569507598877" lon="2.77520418167114">
			<ele>66.5999984741211</ele>
			<time>2014-01-02T14:16:16Z</time>
		</trkpt>
		<trkpt lat="39.569522857666" lon="2.77513194084167">
			<ele>66.5999984741211</ele>
			<time>2014-01-02T14:16:18Z</time>
		</trkpt>
		<trkpt lat="39.5694999694824" lon="2.77506494522095">
			<ele>66.3000030517578</ele>
			<time>2014-01-02T14:16:20Z</time>
		</trkpt>
		<trkpt lat="39.569465637207" lon="2.77500200271606">
			<ele>66.1999969482422</ele>
			<time>2014-01-02T14:16:22Z</time>
		</trkpt>
		<trkpt lat="39.5694198608398" lon="2.77496147155762">
			<ele>66.1999969482422</ele>
			<time>2014-01-02T14:16:24Z</time>
		</trkpt>
		<trkpt lat="39.5693664550781" lon="2.77494382858276">
			<ele>66.6999969482422</ele>
			<time>2014-01-02T14:16:26Z</time>
		</trkpt>
		<trkpt lat="39.5693244934082" lon="2.77490758895874">
			<ele>67</ele>
			<time>2014-01-02T14:16:28Z</time>
		</trkpt>
		<trkpt lat="39.5692863464355" lon="2.77482438087463">
			<ele>67.1999969482422</ele>
			<time>2014-01-02T14:16:31Z</time>
		</trkpt>
		<trkpt lat="39.5692520141602" lon="2.77476143836975">
			<ele>66.8000030517578</ele>
			<time>2014-01-02T14:16:33Z</time>
		</trkpt>
		<trkpt lat="39.5692138671875" lon="2.7747004032135">
			<ele>66.5999984741211</ele>
			<time>2014-01-02T14:16:35Z</time>
		</trkpt>
		<trkpt lat="39.5691719055176" lon="2.77464389801025">
			<ele>66.8000030517578</ele>
			<time>2014-01-02T14:16:37Z</time>
		</trkpt>
		<trkpt lat="39.5691261291504" lon="2.77458906173706">
			<ele>66.8000030517578</ele>
			<time>2014-01-02T14:16:39Z</time>
		</trkpt>
		<trkpt lat="39.5690727233887" lon="2.77454257011414">
			<ele>67</ele>
			<time>2014-01-02T14:16:41Z</time>
		</trkpt>
		<trkpt lat="39.5690155029297" lon="2.77451038360596">
			<ele>67</ele>
			<time>2014-01-02T14:16:43Z</time>
		</trkpt>
		<trkpt lat="39.5689544677734" lon="2.7744927406311">
			<ele>67</ele>
			<time>2014-01-02T14:16:45Z</time>
		</trkpt>
		<trkpt lat="39.5688896179199" lon="2.77448058128357">
			<ele>67</ele>
			<time>2014-01-02T14:16:47Z</time>
		</trkpt>
		<trkpt lat="39.5688171386719" lon="2.77448654174805">
			<ele>66.9000015258789</ele>
			<time>2014-01-02T14:16:49Z</time>
		</trkpt>
		<trkpt lat="39.5687484741211" lon="2.77450585365295">
			<ele>67.0999984741211</ele>
			<time>2014-01-02T14:16:51Z</time>
		</trkpt>
		<trkpt lat="39.5686798095703" lon="2.77453780174255">
			<ele>67.0999984741211</ele>
			<time>2014-01-02T14:16:53Z</time>
		</trkpt>
		<trkpt lat="39.5686187744141" lon="2.77457451820374">
			<ele>67.1999969482422</ele>
			<time>2014-01-02T14:16:55Z</time>
		</trkpt>
		<trkpt lat="39.5685653686523" lon="2.77461457252502">
			<ele>67.4000015258789</ele>
			<time>2014-01-02T14:16:57Z</time>
		</trkpt>
		<trkpt lat="39.5685234069824" lon="2.77467322349548">
			<ele>67.4000015258789</ele>
			<time>2014-01-02T14:16:59Z</time>
		</trkpt>
		<trkpt lat="39.5684852600098" lon="2.77473306655884">
			<ele>67.3000030517578</ele>
			<time>2014-01-02T14:17:01Z</time>
		</trkpt>
		<trkpt lat="39.5684471130371" lon="2.7747917175293">
			<ele>67.5999984741211</ele>
			<time>2014-01-02T14:17:03Z</time>
		</trkpt>
		<trkpt lat="39.568416595459" lon="2.77485513687134">
			<ele>67.6999969482422</ele>
			<time>2014-01-02T14:17:05Z</time>
		</trkpt>
		<trkpt lat="39.5683784484863" lon="2.77492427825928">
			<ele>67.6999969482422</ele>
			<time>2014-01-02T14:17:07Z</time>
		</trkpt>
		<trkpt lat="39.5683288574219" lon="2.77499461174011">
			<ele>67.8000030517578</ele>
			<time>2014-01-02T14:17:09Z</time>
		</trkpt>
		<trkpt lat="39.5682678222656" lon="2.77505731582642">
			<ele>67.5999984741211</ele>
			<time>2014-01-02T14:17:11Z</time>
		</trkpt>
		<trkpt lat="39.5681915283203" lon="2.77510833740234">
			<ele>67.5</ele>
			<time>2014-01-02T14:17:13Z</time>
		</trkpt>
		<trkpt lat="39.5681076049805" lon="2.77514791488647">
			<ele>67</ele>
			<time>2014-01-02T14:17:16Z</time>
		</trkpt>
		<trkpt lat="39.5680618286133" lon="2.77516579627991">
			<ele>66.8000030517578</ele>
			<time>2014-01-02T14:17:17Z</time>
		</trkpt>
		<trkpt lat="39.5680160522461" lon="2.77518200874329">
			<ele>66.9000015258789</ele>
			<time>2014-01-02T14:17:19Z</time>
		</trkpt>
		<trkpt lat="39.5679206848145" lon="2.77521824836731">
			<ele>66.4000015258789</ele>
			<time>2014-01-02T14:17:20Z</time>
		</trkpt>
		<trkpt lat="39.5678672790527" lon="2.77523612976074">
			<ele>66.1999969482422</ele>
			<time>2014-01-02T14:17:21Z</time>
		</trkpt>
		<trkpt lat="39.567813873291" lon="2.77525353431702">
			<ele>66.1999969482422</ele>
			<time>2014-01-02T14:17:22Z</time>
		</trkpt>
		<trkpt lat="39.5677604675293" lon="2.77527832984924">
			<ele>65.8000030517578</ele>
			<time>2014-01-02T14:17:23Z</time>
		</trkpt>
		<trkpt lat="39.5677070617676" lon="2.77529811859131">
			<ele>65.8000030517578</ele>
			<time>2014-01-02T14:17:24Z</time>
		</trkpt>
		<trkpt lat="39.5676460266113" lon="2.77531385421753">
			<ele>65.5</ele>
			<time>2014-01-02T14:17:25Z</time>
		</trkpt>
		<trkpt lat="39.5675849914551" lon="2.7753324508667">
			<ele>65.0999984741211</ele>
			<time>2014-01-02T14:17:26Z</time>
		</trkpt>
		<trkpt lat="39.5675239562988" lon="2.77535033226013">
			<ele>65</ele>
			<time>2014-01-02T14:17:27Z</time>
		</trkpt>
		<trkpt lat="39.5674667358398" lon="2.77537178993225">
			<ele>65.0999984741211</ele>
			<time>2014-01-02T14:17:28Z</time>
		</trkpt>
		<trkpt lat="39.5674057006836" lon="2.77539348602295">
			<ele>64.8000030517578</ele>
			<time>2014-01-02T14:17:29Z</time>
		</trkpt>
		<trkpt lat="39.5673408508301" lon="2.77541136741638">
			<ele>64.9000015258789</ele>
			<time>2014-01-02T14:17:30Z</time>
		</trkpt>
		<trkpt lat="39.5672760009766" lon="2.77542638778687">
			<ele>64.6999969482422</ele>
			<time>2014-01-02T14:17:31Z</time>
		</trkpt>
		<trkpt lat="39.5672149658203" lon="2.77544045448303">
			<ele>64.5999984741211</ele>
			<time>2014-01-02T14:17:32Z</time>
		</trkpt>
		<trkpt lat="39.5671539306641" lon="2.77545356750488">
			<ele>64.5</ele>
			<time>2014-01-02T14:17:33Z</time>
		</trkpt>
		<trkpt lat="39.5670928955078" lon="2.77546763420105">
			<ele>64.4000015258789</ele>
			<time>2014-01-02T14:17:34Z</time>
		</trkpt>
		<trkpt lat="39.5670318603516" lon="2.77547597885132">
			<ele>64.5</ele>
			<time>2014-01-02T14:17:35Z</time>
		</trkpt>
		<trkpt lat="39.5669708251953" lon="2.77547335624695">
			<ele>64.5</ele>
			<time>2014-01-02T14:17:36Z</time>
		</trkpt>
		<trkpt lat="39.5669174194336" lon="2.77546429634094">
			<ele>64.5999984741211</ele>
			<time>2014-01-02T14:17:37Z</time>
		</trkpt>
		<trkpt lat="39.5668563842773" lon="2.77546215057373">
			<ele>64.6999969482422</ele>
			<time>2014-01-02T14:17:38Z</time>
		</trkpt>
		<trkpt lat="39.5668029785156" lon="2.77546739578247">
			<ele>64.8000030517578</ele>
			<time>2014-01-02T14:17:39Z</time>
		</trkpt>
		<trkpt lat="39.5667533874512" lon="2.77546334266663">
			<ele>64.6999969482422</ele>
			<time>2014-01-02T14:17:40Z</time>
		</trkpt>
		<trkpt lat="39.5667037963867" lon="2.77545976638794">
			<ele>64.9000015258789</ele>
			<time>2014-01-02T14:17:41Z</time>
		</trkpt>
		<trkpt lat="39.5666542053223" lon="2.77545738220215">
			<ele>65</ele>
			<time>2014-01-02T14:17:42Z</time>
		</trkpt>
		<trkpt lat="39.5666084289551" lon="2.77544832229614">
			<ele>65</ele>
			<time>2014-01-02T14:17:43Z</time>
		</trkpt>
		<trkpt lat="39.5665588378906" lon="2.77543520927429">
			<ele>64.6999969482422</ele>
			<time>2014-01-02T14:17:44Z</time>
		</trkpt>
		<trkpt lat="39.5665092468262" lon="2.77542614936829">
			<ele>64.5</ele>
			<time>2014-01-02T14:17:45Z</time>
		</trkpt>
		<trkpt lat="39.566463470459" lon="2.77541208267212">
			<ele>64.4000015258789</ele>
			<time>2014-01-02T14:17:46Z</time>
		</trkpt>
		<trkpt lat="39.5664176940918" lon="2.77540111541748">
			<ele>64.1999969482422</ele>
			<time>2014-01-02T14:17:47Z</time>
		</trkpt>
		<trkpt lat="39.5663681030273" lon="2.77538824081421">
			<ele>64.0999984741211</ele>
			<time>2014-01-02T14:17:48Z</time>
		</trkpt>
		<trkpt lat="39.5663223266602" lon="2.77537488937378">
			<ele>63.7999992370605</ele>
			<time>2014-01-02T14:17:49Z</time>
		</trkpt>
		<trkpt lat="39.566276550293" lon="2.77536058425903">
			<ele>63.7999992370605</ele>
			<time>2014-01-02T14:17:50Z</time>
		</trkpt>
		<trkpt lat="39.5661888122559" lon="2.77532982826233">
			<ele>63.0999984741211</ele>
			<time>2014-01-02T14:17:52Z</time>
		</trkpt>
		<trkpt lat="39.5661468505859" lon="2.77531123161316">
			<ele>63.0999984741211</ele>
			<time>2014-01-02T14:17:53Z</time>
		</trkpt>
		<trkpt lat="39.5660591125488" lon="2.77527070045471">
			<ele>63.2000007629395</ele>
			<time>2014-01-02T14:17:55Z</time>
		</trkpt>
		<trkpt lat="39.565975189209" lon="2.77523016929626">
			<ele>63</ele>
			<time>2014-01-02T14:17:57Z</time>
		</trkpt>
		<trkpt lat="39.5659332275391" lon="2.77521109580994">
			<ele>63</ele>
			<time>2014-01-02T14:17:58Z</time>
		</trkpt>
		<trkpt lat="39.5658531188965" lon="2.77516531944275">
			<ele>63.4000015258789</ele>
			<time>2014-01-02T14:18:00Z</time>
		</trkpt>
		<trkpt lat="39.5657730102539" lon="2.77511668205261">
			<ele>63.4000015258789</ele>
			<time>2014-01-02T14:18:02Z</time>
		</trkpt>
		<trkpt lat="39.565731048584" lon="2.7750928401947">
			<ele>63.4000015258789</ele>
			<time>2014-01-02T14:18:03Z</time>
		</trkpt>
		<trkpt lat="39.5656890869141" lon="2.77506542205811">
			<ele>63.7000007629395</ele>
			<time>2014-01-02T14:18:04Z</time>
		</trkpt>
		<trkpt lat="39.565616607666" lon="2.77501177787781">
			<ele>64.0999984741211</ele>
			<time>2014-01-02T14:18:06Z</time>
		</trkpt>
		<trkpt lat="39.5655364990234" lon="2.77495956420898">
			<ele>63.9000015258789</ele>
			<time>2014-01-02T14:18:08Z</time>
		</trkpt>
		<trkpt lat="39.5654945373535" lon="2.77493071556091">
			<ele>64</ele>
			<time>2014-01-02T14:18:09Z</time>
		</trkpt>
		<trkpt lat="39.5654182434082" lon="2.77486538887024">
			<ele>63.9000015258789</ele>
			<time>2014-01-02T14:18:11Z</time>
		</trkpt>
		<trkpt lat="39.5653419494629" lon="2.77480912208557">
			<ele>63.9000015258789</ele>
			<time>2014-01-02T14:18:13Z</time>
		</trkpt>
		<trkpt lat="39.5653038024902" lon="2.7747757434845">
			<ele>64.1999969482422</ele>
			<time>2014-01-02T14:18:14Z</time>
		</trkpt>
		<trkpt lat="39.5652275085449" lon="2.77471733093262">
			<ele>65</ele>
			<time>2014-01-02T14:18:16Z</time>
		</trkpt>
		<trkpt lat="39.5651512145996" lon="2.77466082572937">
			<ele>65.5999984741211</ele>
			<time>2014-01-02T14:18:18Z</time>
		</trkpt>
		<trkpt lat="39.5650825500488" lon="2.77459383010864">
			<ele>66.4000015258789</ele>
			<time>2014-01-02T14:18:20Z</time>
		</trkpt>
		<trkpt lat="39.5650062561035" lon="2.77452516555786">
			<ele>67.0999984741211</ele>
			<time>2014-01-02T14:18:22Z</time>
		</trkpt>
		<trkpt lat="39.5649681091309" lon="2.774489402771">
			<ele>67.4000015258789</ele>
			<time>2014-01-02T14:18:23Z</time>
		</trkpt>
		<trkpt lat="39.5649299621582" lon="2.7744619846344">
			<ele>67.5999984741211</ele>
			<time>2014-01-02T14:18:24Z</time>
		</trkpt>
		<trkpt lat="39.5648918151855" lon="2.77442979812622">
			<ele>67.5999984741211</ele>
			<time>2014-01-02T14:18:25Z</time>
		</trkpt>
		<trkpt lat="39.5648498535156" lon="2.77439308166504">
			<ele>67.9000015258789</ele>
			<time>2014-01-02T14:18:26Z</time>
		</trkpt>
		<trkpt lat="39.5648078918457" lon="2.77435970306396">
			<ele>67.5999984741211</ele>
			<time>2014-01-02T14:18:27Z</time>
		</trkpt>
		<trkpt lat="39.564769744873" lon="2.77432036399841">
			<ele>68</ele>
			<time>2014-01-02T14:18:28Z</time>
		</trkpt>
		<trkpt lat="39.5647048950195" lon="2.77425456047058">
			<ele>68.3000030517578</ele>
			<time>2014-01-02T14:18:30Z</time>
		</trkpt>
		<trkpt lat="39.5646324157715" lon="2.77419185638428">
			<ele>68.5</ele>
			<time>2014-01-02T14:18:32Z</time>
		</trkpt>
		<trkpt lat="39.5645904541016" lon="2.77416610717773">
			<ele>67.9000015258789</ele>
			<time>2014-01-02T14:18:33Z</time>
		</trkpt>
		<trkpt lat="39.5645523071289" lon="2.77413415908813">
			<ele>68</ele>
			<time>2014-01-02T14:18:34Z</time>
		</trkpt>
		<trkpt lat="39.564510345459" lon="2.77410340309143">
			<ele>68.3000030517578</ele>
			<time>2014-01-02T14:18:35Z</time>
		</trkpt>
		<trkpt lat="39.5644721984863" lon="2.7740683555603">
			<ele>68.6999969482422</ele>
			<time>2014-01-02T14:18:36Z</time>
		</trkpt>
		<trkpt lat="39.564395904541" lon="2.77401161193848">
			<ele>68.1999969482422</ele>
			<time>2014-01-02T14:18:38Z</time>
		</trkpt>
		<trkpt lat="39.5643272399902" lon="2.77394723892212">
			<ele>67.9000015258789</ele>
			<time>2014-01-02T14:18:40Z</time>
		</trkpt>
		<trkpt lat="39.5642547607422" lon="2.77388715744019">
			<ele>67.4000015258789</ele>
			<time>2014-01-02T14:18:42Z</time>
		</trkpt>
		<trkpt lat="39.5641822814941" lon="2.77383017539978">
			<ele>67.1999969482422</ele>
			<time>2014-01-02T14:18:44Z</time>
		</trkpt>
		<trkpt lat="39.5641136169434" lon="2.773766040802">
			<ele>66.5999984741211</ele>
			<time>2014-01-02T14:18:46Z</time>
		</trkpt>
		<trkpt lat="39.5640449523926" lon="2.77370715141296">
			<ele>66.4000015258789</ele>
			<time>2014-01-02T14:18:48Z</time>
		</trkpt>
		<trkpt lat="39.5639839172363" lon="2.77364563941956">
			<ele>66.1999969482422</ele>
			<time>2014-01-02T14:18:50Z</time>
		</trkpt>
		<trkpt lat="39.5639152526855" lon="2.77359056472778">
			<ele>65.5</ele>
			<time>2014-01-02T14:18:52Z</time>
		</trkpt>
		<trkpt lat="39.563850402832" lon="2.77353739738464">
			<ele>65</ele>
			<time>2014-01-02T14:18:54Z</time>
		</trkpt>
		<trkpt lat="39.5637893676758" lon="2.77348017692566">
			<ele>64.3000030517578</ele>
			<time>2014-01-02T14:18:56Z</time>
		</trkpt>
		<trkpt lat="39.5637245178223" lon="2.77342796325684">
			<ele>63.9000015258789</ele>
			<time>2014-01-02T14:18:58Z</time>
		</trkpt>
		<trkpt lat="39.5636596679688" lon="2.7733736038208">
			<ele>63.4000015258789</ele>
			<time>2014-01-02T14:19:00Z</time>
		</trkpt>
		<trkpt lat="39.5635986328125" lon="2.77332067489624">
			<ele>63.0999984741211</ele>
			<time>2014-01-02T14:19:02Z</time>
		</trkpt>
		<trkpt lat="39.5635375976563" lon="2.77326798439026">
			<ele>63.4000015258789</ele>
			<time>2014-01-02T14:19:04Z</time>
		</trkpt>
		<trkpt lat="39.5634765625" lon="2.77321791648865">
			<ele>63.2000007629395</ele>
			<time>2014-01-02T14:19:06Z</time>
		</trkpt>
		<trkpt lat="39.5634155273438" lon="2.77316451072693">
			<ele>62.7000007629395</ele>
			<time>2014-01-02T14:19:08Z</time>
		</trkpt>
		<trkpt lat="39.5633506774902" lon="2.77311372756958">
			<ele>62.5</ele>
			<time>2014-01-02T14:19:10Z</time>
		</trkpt>
		<trkpt lat="39.563289642334" lon="2.77305889129639">
			<ele>62.4000015258789</ele>
			<time>2014-01-02T14:19:12Z</time>
		</trkpt>
		<trkpt lat="39.5632286071777" lon="2.77300834655762">
			<ele>62.0999984741211</ele>
			<time>2014-01-02T14:19:14Z</time>
		</trkpt>
		<trkpt lat="39.5631637573242" lon="2.77295827865601">
			<ele>62.2000007629395</ele>
			<time>2014-01-02T14:19:16Z</time>
		</trkpt>
		<trkpt lat="39.5630989074707" lon="2.77290391921997">
			<ele>61.9000015258789</ele>
			<time>2014-01-02T14:19:18Z</time>
		</trkpt>
		<trkpt lat="39.5630340576172" lon="2.77285504341125">
			<ele>61.9000015258789</ele>
			<time>2014-01-02T14:19:20Z</time>
		</trkpt>
		<trkpt lat="39.5629692077637" lon="2.77280068397522">
			<ele>62.2000007629395</ele>
			<time>2014-01-02T14:19:22Z</time>
		</trkpt>
		<trkpt lat="39.5629043579102" lon="2.77274942398071">
			<ele>62</ele>
			<time>2014-01-02T14:19:24Z</time>
		</trkpt>
		<trkpt lat="39.5628395080566" lon="2.77269721031189">
			<ele>62.0999984741211</ele>
			<time>2014-01-02T14:19:26Z</time>
		</trkpt>
		<trkpt lat="39.5627746582031" lon="2.77264547348022">
			<ele>62.0999984741211</ele>
			<time>2014-01-02T14:19:28Z</time>
		</trkpt>
		<trkpt lat="39.5627136230469" lon="2.77259492874146">
			<ele>61.9000015258789</ele>
			<time>2014-01-02T14:19:30Z</time>
		</trkpt>
		<trkpt lat="39.5626525878906" lon="2.772540807724">
			<ele>62</ele>
			<time>2014-01-02T14:19:32Z</time>
		</trkpt>
		<trkpt lat="39.5625877380371" lon="2.77248930931091">
			<ele>62.0999984741211</ele>
			<time>2014-01-02T14:19:34Z</time>
		</trkpt>
		<trkpt lat="39.5625228881836" lon="2.77243447303772">
			<ele>62.0999984741211</ele>
			<time>2014-01-02T14:19:36Z</time>
		</trkpt>
		<trkpt lat="39.5624618530273" lon="2.77237963676453">
			<ele>62.2999992370605</ele>
			<time>2014-01-02T14:19:38Z</time>
		</trkpt>
		<trkpt lat="39.5623970031738" lon="2.77232646942139">
			<ele>62.2999992370605</ele>
			<time>2014-01-02T14:19:40Z</time>
		</trkpt>
		<trkpt lat="39.5623359680176" lon="2.77227258682251">
			<ele>62.2000007629395</ele>
			<time>2014-01-02T14:19:42Z</time>
		</trkpt>
		<trkpt lat="39.5622749328613" lon="2.77221846580505">
			<ele>62.2000007629395</ele>
			<time>2014-01-02T14:19:44Z</time>
		</trkpt>
		<trkpt lat="39.5622100830078" lon="2.77216672897339">
			<ele>62.2000007629395</ele>
			<time>2014-01-02T14:19:46Z</time>
		</trkpt>
		<trkpt lat="39.5621490478516" lon="2.77211308479309">
			<ele>62.0999984741211</ele>
			<time>2014-01-02T14:19:48Z</time>
		</trkpt>
		<trkpt lat="39.562084197998" lon="2.772057056427">
			<ele>62.2999992370605</ele>
			<time>2014-01-02T14:19:50Z</time>
		</trkpt>
		<trkpt lat="39.5620193481445" lon="2.77200412750244">
			<ele>62.2000007629395</ele>
			<time>2014-01-02T14:19:52Z</time>
		</trkpt>
		<trkpt lat="39.5619583129883" lon="2.77194714546204">
			<ele>62.0999984741211</ele>
			<time>2014-01-02T14:19:54Z</time>
		</trkpt>
		<trkpt lat="39.5618934631348" lon="2.77189588546753">
			<ele>62</ele>
			<time>2014-01-02T14:19:56Z</time>
		</trkpt>
		<trkpt lat="39.5618324279785" lon="2.77184128761292">
			<ele>62</ele>
			<time>2014-01-02T14:19:58Z</time>
		</trkpt>
		<trkpt lat="39.5617713928223" lon="2.77178692817688">
			<ele>62</ele>
			<time>2014-01-02T14:20:00Z</time>
		</trkpt>
		<trkpt lat="39.5617027282715" lon="2.77173399925232">
			<ele>62</ele>
			<time>2014-01-02T14:20:02Z</time>
		</trkpt>
		<trkpt lat="39.5616416931152" lon="2.7716805934906">
			<ele>61.7999992370605</ele>
			<time>2014-01-02T14:20:04Z</time>
		</trkpt>
		<trkpt lat="39.5615730285645" lon="2.77162551879883">
			<ele>61.7999992370605</ele>
			<time>2014-01-02T14:20:06Z</time>
		</trkpt>
		<trkpt lat="39.5615081787109" lon="2.77157163619995">
			<ele>61.5999984741211</ele>
			<time>2014-01-02T14:20:08Z</time>
		</trkpt>
		<trkpt lat="39.5614395141602" lon="2.77151679992676">
			<ele>61.5</ele>
			<time>2014-01-02T14:20:10Z</time>
		</trkpt>
		<trkpt lat="39.5613746643066" lon="2.77145743370056">
			<ele>61.5999984741211</ele>
			<time>2014-01-02T14:20:12Z</time>
		</trkpt>
		<trkpt lat="39.5613059997559" lon="2.77140259742737">
			<ele>61.5</ele>
			<time>2014-01-02T14:20:14Z</time>
		</trkpt>
		<trkpt lat="39.5612411499023" lon="2.77134704589844">
			<ele>61.4000015258789</ele>
			<time>2014-01-02T14:20:16Z</time>
		</trkpt>
		<trkpt lat="39.5611763000488" lon="2.77128887176514">
			<ele>61.0999984741211</ele>
			<time>2014-01-02T14:20:18Z</time>
		</trkpt>
		<trkpt lat="39.561107635498" lon="2.77123165130615">
			<ele>60.9000015258789</ele>
			<time>2014-01-02T14:20:20Z</time>
		</trkpt>
		<trkpt lat="39.5610427856445" lon="2.77117371559143">
			<ele>60.7000007629395</ele>
			<time>2014-01-02T14:20:22Z</time>
		</trkpt>
		<trkpt lat="39.560977935791" lon="2.77111792564392">
			<ele>60.7000007629395</ele>
			<time>2014-01-02T14:20:24Z</time>
		</trkpt>
		<trkpt lat="39.5609092712402" lon="2.77106595039368">
			<ele>60.5999984741211</ele>
			<time>2014-01-02T14:20:26Z</time>
		</trkpt>
		<trkpt lat="39.5608406066895" lon="2.77101111412048">
			<ele>60.4000015258789</ele>
			<time>2014-01-02T14:20:28Z</time>
		</trkpt>
		<trkpt lat="39.5607757568359" lon="2.7709527015686">
			<ele>60.2000007629395</ele>
			<time>2014-01-02T14:20:30Z</time>
		</trkpt>
		<trkpt lat="39.5607070922852" lon="2.7709002494812">
			<ele>60</ele>
			<time>2014-01-02T14:20:32Z</time>
		</trkpt>
		<trkpt lat="39.5606384277344" lon="2.77084255218506">
			<ele>60.0999984741211</ele>
			<time>2014-01-02T14:20:34Z</time>
		</trkpt>
		<trkpt lat="39.5605773925781" lon="2.77078342437744">
			<ele>60.0999984741211</ele>
			<time>2014-01-02T14:20:36Z</time>
		</trkpt>
		<trkpt lat="39.5605087280273" lon="2.77073335647583">
			<ele>60</ele>
			<time>2014-01-02T14:20:38Z</time>
		</trkpt>
		<trkpt lat="39.5604438781738" lon="2.77068042755127">
			<ele>60</ele>
			<time>2014-01-02T14:20:40Z</time>
		</trkpt>
		<trkpt lat="39.5603790283203" lon="2.77062845230103">
			<ele>60.2000007629395</ele>
			<time>2014-01-02T14:20:42Z</time>
		</trkpt>
		<trkpt lat="39.5603179931641" lon="2.77057552337646">
			<ele>60.2000007629395</ele>
			<time>2014-01-02T14:20:44Z</time>
		</trkpt>
		<trkpt lat="39.5602569580078" lon="2.77051949501038">
			<ele>60.2000007629395</ele>
			<time>2014-01-02T14:20:46Z</time>
		</trkpt>
		<trkpt lat="39.5601959228516" lon="2.77047443389893">
			<ele>60.2000007629395</ele>
			<time>2014-01-02T14:20:48Z</time>
		</trkpt>
		<trkpt lat="39.560131072998" lon="2.77042102813721">
			<ele>60.0999984741211</ele>
			<time>2014-01-02T14:20:50Z</time>
		</trkpt>
		<trkpt lat="39.5600700378418" lon="2.77036643028259">
			<ele>59.9000015258789</ele>
			<time>2014-01-02T14:20:52Z</time>
		</trkpt>
		<trkpt lat="39.5600090026855" lon="2.77031707763672">
			<ele>59.9000015258789</ele>
			<time>2014-01-02T14:20:54Z</time>
		</trkpt>
		<trkpt lat="39.5599479675293" lon="2.77026724815369">
			<ele>59.7999992370605</ele>
			<time>2014-01-02T14:20:56Z</time>
		</trkpt>
		<trkpt lat="39.559886932373" lon="2.77021360397339">
			<ele>59.5999984741211</ele>
			<time>2014-01-02T14:20:58Z</time>
		</trkpt>
		<trkpt lat="39.5598258972168" lon="2.77016091346741">
			<ele>59.7999992370605</ele>
			<time>2014-01-02T14:21:00Z</time>
		</trkpt>
		<trkpt lat="39.5597686767578" lon="2.7701153755188">
			<ele>59.7000007629395</ele>
			<time>2014-01-02T14:21:02Z</time>
		</trkpt>
		<trkpt lat="39.5597114562988" lon="2.77006554603577">
			<ele>59.7000007629395</ele>
			<time>2014-01-02T14:21:04Z</time>
		</trkpt>
		<trkpt lat="39.5596580505371" lon="2.77001953125">
			<ele>59.9000015258789</ele>
			<time>2014-01-02T14:21:06Z</time>
		</trkpt>
		<trkpt lat="39.5596084594727" lon="2.76997494697571">
			<ele>59.9000015258789</ele>
			<time>2014-01-02T14:21:08Z</time>
		</trkpt>
		<trkpt lat="39.5595664978027" lon="2.76993775367737">
			<ele>59.5999984741211</ele>
			<time>2014-01-02T14:21:10Z</time>
		</trkpt>
		<trkpt lat="39.5595169067383" lon="2.76988935470581">
			<ele>59.4000015258789</ele>
			<time>2014-01-02T14:21:13Z</time>
		</trkpt>
		<trkpt lat="39.5594673156738" lon="2.76984643936157">
			<ele>61.2000007629395</ele>
			<time>2014-01-02T14:21:49Z</time>
		</trkpt>
		<trkpt lat="39.5594253540039" lon="2.76980376243591">
			<ele>61.7000007629395</ele>
			<time>2014-01-02T14:21:51Z</time>
		</trkpt>
		<trkpt lat="39.5593948364258" lon="2.76973438262939">
			<ele>62.5</ele>
			<time>2014-01-02T14:21:53Z</time>
		</trkpt>
		<trkpt lat="39.5593757629395" lon="2.76964926719666">
			<ele>62.2999992370605</ele>
			<time>2014-01-02T14:21:55Z</time>
		</trkpt>
		<trkpt lat="39.5593452453613" lon="2.76957106590271">
			<ele>62.5</ele>
			<time>2014-01-02T14:21:57Z</time>
		</trkpt>
		<trkpt lat="39.5592918395996" lon="2.76951956748962">
			<ele>62.7000007629395</ele>
			<time>2014-01-02T14:21:59Z</time>
		</trkpt>
		<trkpt lat="39.5592269897461" lon="2.76949214935303">
			<ele>62.7000007629395</ele>
			<time>2014-01-02T14:22:01Z</time>
		</trkpt>
		<trkpt lat="39.559154510498" lon="2.76950311660767">
			<ele>62.9000015258789</ele>
			<time>2014-01-02T14:22:03Z</time>
		</trkpt>
		<trkpt lat="39.5590896606445" lon="2.76956152915955">
			<ele>63.0999984741211</ele>
			<time>2014-01-02T14:22:05Z</time>
		</trkpt>
		<trkpt lat="39.5590515136719" lon="2.76965093612671">
			<ele>63.2999992370605</ele>
			<time>2014-01-02T14:22:07Z</time>
		</trkpt>
		<trkpt lat="39.5590400695801" lon="2.76976084709167">
			<ele>63.4000015258789</ele>
			<time>2014-01-02T14:22:09Z</time>
		</trkpt>
		<trkpt lat="39.5590362548828" lon="2.76986646652222">
			<ele>63.2999992370605</ele>
			<time>2014-01-02T14:22:11Z</time>
		</trkpt>
		<trkpt lat="39.559024810791" lon="2.76997590065002">
			<ele>62.7999992370605</ele>
			<time>2014-01-02T14:22:13Z</time>
		</trkpt>
		<trkpt lat="39.559009552002" lon="2.77003216743469">
			<ele>62.5999984741211</ele>
			<time>2014-01-02T14:22:14Z</time>
		</trkpt>
		<trkpt lat="39.5589828491211" lon="2.77008700370789">
			<ele>62.2999992370605</ele>
			<time>2014-01-02T14:22:15Z</time>
		</trkpt>
		<trkpt lat="39.5589447021484" lon="2.77013635635376">
			<ele>62.7000007629395</ele>
			<time>2014-01-02T14:22:16Z</time>
		</trkpt>
		<trkpt lat="39.5589141845703" lon="2.77019095420837">
			<ele>62.7000007629395</ele>
			<time>2014-01-02T14:22:17Z</time>
		</trkpt>
		<trkpt lat="39.5588874816895" lon="2.77023649215698">
			<ele>62.5</ele>
			<time>2014-01-02T14:22:18Z</time>
		</trkpt>
		<trkpt lat="39.5588569641113" lon="2.77028965950012">
			<ele>62.7000007629395</ele>
			<time>2014-01-02T14:22:19Z</time>
		</trkpt>
		<trkpt lat="39.5588302612305" lon="2.77033495903015">
			<ele>62.7999992370605</ele>
			<time>2014-01-02T14:22:20Z</time>
		</trkpt>
		<trkpt lat="39.5587768554688" lon="2.77042126655579">
			<ele>62.4000015258789</ele>
			<time>2014-01-02T14:22:22Z</time>
		</trkpt>
		<trkpt lat="39.5587425231934" lon="2.77046394348145">
			<ele>62.5999984741211</ele>
			<time>2014-01-02T14:22:23Z</time>
		</trkpt>
		<trkpt lat="39.5586853027344" lon="2.77055525779724">
			<ele>62.7000007629395</ele>
			<time>2014-01-02T14:22:25Z</time>
		</trkpt>
		<trkpt lat="39.5586585998535" lon="2.77060723304749">
			<ele>62.5</ele>
			<time>2014-01-02T14:22:26Z</time>
		</trkpt>
		<trkpt lat="39.5586013793945" lon="2.77069902420044">
			<ele>63.0999984741211</ele>
			<time>2014-01-02T14:22:28Z</time>
		</trkpt>
		<trkpt lat="39.5585746765137" lon="2.770751953125">
			<ele>63.2999992370605</ele>
			<time>2014-01-02T14:22:29Z</time>
		</trkpt>
		<trkpt lat="39.5585441589355" lon="2.77079892158508">
			<ele>63.4000015258789</ele>
			<time>2014-01-02T14:22:30Z</time>
		</trkpt>
		<trkpt lat="39.5584869384766" lon="2.77089214324951">
			<ele>64.0999984741211</ele>
			<time>2014-01-02T14:22:32Z</time>
		</trkpt>
		<trkpt lat="39.5584564208984" lon="2.77093744277954">
			<ele>64.1999969482422</ele>
			<time>2014-01-02T14:22:33Z</time>
		</trkpt>
		<trkpt lat="39.5584297180176" lon="2.77098560333252">
			<ele>64.4000015258789</ele>
			<time>2014-01-02T14:22:34Z</time>
		</trkpt>
		<trkpt lat="39.5583992004395" lon="2.77102899551392">
			<ele>64.5999984741211</ele>
			<time>2014-01-02T14:22:35Z</time>
		</trkpt>
		<trkpt lat="39.5583648681641" lon="2.77107453346252">
			<ele>65.0999984741211</ele>
			<time>2014-01-02T14:22:36Z</time>
		</trkpt>
		<trkpt lat="39.5583076477051" lon="2.771164894104">
			<ele>65.4000015258789</ele>
			<time>2014-01-02T14:22:38Z</time>
		</trkpt>
		<trkpt lat="39.5582695007324" lon="2.77121376991272">
			<ele>65.8000030517578</ele>
			<time>2014-01-02T14:22:39Z</time>
		</trkpt>
		<trkpt lat="39.5582427978516" lon="2.7712664604187">
			<ele>65.8000030517578</ele>
			<time>2014-01-02T14:22:40Z</time>
		</trkpt>
		<trkpt lat="39.5581855773926" lon="2.77136135101318">
			<ele>66.5</ele>
			<time>2014-01-02T14:22:42Z</time>
		</trkpt>
		<trkpt lat="39.5581550598145" lon="2.77140760421753">
			<ele>66.5999984741211</ele>
			<time>2014-01-02T14:22:43Z</time>
		</trkpt>
		<trkpt lat="39.5581130981445" lon="2.77149438858032">
			<ele>66.6999969482422</ele>
			<time>2014-01-02T14:22:45Z</time>
		</trkpt>
		<trkpt lat="39.5580673217773" lon="2.77158069610596">
			<ele>66.5999984741211</ele>
			<time>2014-01-02T14:22:47Z</time>
		</trkpt>
		<trkpt lat="39.5580368041992" lon="2.77162575721741">
			<ele>66.5999984741211</ele>
			<time>2014-01-02T14:22:48Z</time>
		</trkpt>
		<trkpt lat="39.5579872131348" lon="2.77172350883484">
			<ele>66.8000030517578</ele>
			<time>2014-01-02T14:22:50Z</time>
		</trkpt>
		<trkpt lat="39.5579605102539" lon="2.77177309989929">
			<ele>66.8000030517578</ele>
			<time>2014-01-02T14:22:51Z</time>
		</trkpt>
		<trkpt lat="39.5579071044922" lon="2.77186679840088">
			<ele>67.3000030517578</ele>
			<time>2014-01-02T14:22:53Z</time>
		</trkpt>
		<trkpt lat="39.5578651428223" lon="2.77196264266968">
			<ele>67</ele>
			<time>2014-01-02T14:22:55Z</time>
		</trkpt>
		<trkpt lat="39.5578422546387" lon="2.77201509475708">
			<ele>66.6999969482422</ele>
			<time>2014-01-02T14:22:56Z</time>
		</trkpt>
		<trkpt lat="39.5578193664551" lon="2.77206826210022">
			<ele>66.3000030517578</ele>
			<time>2014-01-02T14:22:57Z</time>
		</trkpt>
		<trkpt lat="39.557788848877" lon="2.77212285995483">
			<ele>66.1999969482422</ele>
			<time>2014-01-02T14:22:58Z</time>
		</trkpt>
		<trkpt lat="39.5577621459961" lon="2.77217268943787">
			<ele>65.9000015258789</ele>
			<time>2014-01-02T14:22:59Z</time>
		</trkpt>
		<trkpt lat="39.557731628418" lon="2.77221941947937">
			<ele>66</ele>
			<time>2014-01-02T14:23:00Z</time>
		</trkpt>
		<trkpt lat="39.5577087402344" lon="2.77227163314819">
			<ele>65.9000015258789</ele>
			<time>2014-01-02T14:23:01Z</time>
		</trkpt>
		<trkpt lat="39.5576820373535" lon="2.77232027053833">
			<ele>65.5999984741211</ele>
			<time>2014-01-02T14:23:02Z</time>
		</trkpt>
		<trkpt lat="39.5576553344727" lon="2.77237010002136">
			<ele>65.9000015258789</ele>
			<time>2014-01-02T14:23:03Z</time>
		</trkpt>
		<trkpt lat="39.5576286315918" lon="2.77242016792297">
			<ele>66.3000030517578</ele>
			<time>2014-01-02T14:23:04Z</time>
		</trkpt>
		<trkpt lat="39.5576019287109" lon="2.77246999740601">
			<ele>66.0999984741211</ele>
			<time>2014-01-02T14:23:05Z</time>
		</trkpt>
		<trkpt lat="39.5575752258301" lon="2.77251887321472">
			<ele>66.1999969482422</ele>
			<time>2014-01-02T14:23:06Z</time>
		</trkpt>
		<trkpt lat="39.5575485229492" lon="2.77257370948792">
			<ele>66.1999969482422</ele>
			<time>2014-01-02T14:23:07Z</time>
		</trkpt>
		<trkpt lat="39.5575256347656" lon="2.77262425422668">
			<ele>66.3000030517578</ele>
			<time>2014-01-02T14:23:08Z</time>
		</trkpt>
		<trkpt lat="39.5574760437012" lon="2.77271223068237">
			<ele>66.4000015258789</ele>
			<time>2014-01-02T14:23:10Z</time>
		</trkpt>
		<trkpt lat="39.557430267334" lon="2.77281355857849">
			<ele>66.3000030517578</ele>
			<time>2014-01-02T14:23:12Z</time>
		</trkpt>
		<trkpt lat="39.5574035644531" lon="2.77286529541016">
			<ele>66.5</ele>
			<time>2014-01-02T14:23:13Z</time>
		</trkpt>
		<trkpt lat="39.5573806762695" lon="2.77291941642761">
			<ele>66.4000015258789</ele>
			<time>2014-01-02T14:23:14Z</time>
		</trkpt>
		<trkpt lat="39.5573387145996" lon="2.77303051948547">
			<ele>66.1999969482422</ele>
			<time>2014-01-02T14:23:16Z</time>
		</trkpt>
		<trkpt lat="39.5573196411133" lon="2.77309012413025">
			<ele>66.5999984741211</ele>
			<time>2014-01-02T14:23:17Z</time>
		</trkpt>
		<trkpt lat="39.557300567627" lon="2.77314901351929">
			<ele>66.5999984741211</ele>
			<time>2014-01-02T14:23:18Z</time>
		</trkpt>
		<trkpt lat="39.5572776794434" lon="2.77320051193237">
			<ele>66.4000015258789</ele>
			<time>2014-01-02T14:23:19Z</time>
		</trkpt>
		<trkpt lat="39.5572624206543" lon="2.77325415611267">
			<ele>65.5999984741211</ele>
			<time>2014-01-02T14:23:20Z</time>
		</trkpt>
		<trkpt lat="39.5572280883789" lon="2.77336144447327">
			<ele>65.9000015258789</ele>
			<time>2014-01-02T14:23:22Z</time>
		</trkpt>
		<trkpt lat="39.5572166442871" lon="2.77341842651367">
			<ele>65.4000015258789</ele>
			<time>2014-01-02T14:23:23Z</time>
		</trkpt>
		<trkpt lat="39.5571937561035" lon="2.77353620529175">
			<ele>65</ele>
			<time>2014-01-02T14:23:25Z</time>
		</trkpt>
		<trkpt lat="39.5571746826172" lon="2.77360081672668">
			<ele>65</ele>
			<time>2014-01-02T14:23:26Z</time>
		</trkpt>
		<trkpt lat="39.5571556091309" lon="2.77365827560425">
			<ele>65.4000015258789</ele>
			<time>2014-01-02T14:23:27Z</time>
		</trkpt>
		<trkpt lat="39.5571403503418" lon="2.77371740341187">
			<ele>65.5</ele>
			<time>2014-01-02T14:23:28Z</time>
		</trkpt>
		<trkpt lat="39.5571250915527" lon="2.77377557754517">
			<ele>65.5999984741211</ele>
			<time>2014-01-02T14:23:29Z</time>
		</trkpt>
		<trkpt lat="39.5571060180664" lon="2.77383995056152">
			<ele>65.4000015258789</ele>
			<time>2014-01-02T14:23:30Z</time>
		</trkpt>
		<trkpt lat="39.5570907592773" lon="2.77389931678772">
			<ele>65.0999984741211</ele>
			<time>2014-01-02T14:23:31Z</time>
		</trkpt>
		<trkpt lat="39.557071685791" lon="2.77396130561829">
			<ele>65.0999984741211</ele>
			<time>2014-01-02T14:23:32Z</time>
		</trkpt>
		<trkpt lat="39.557056427002" lon="2.77402114868164">
			<ele>65.3000030517578</ele>
			<time>2014-01-02T14:23:33Z</time>
		</trkpt>
		<trkpt lat="39.5570373535156" lon="2.77408170700073">
			<ele>65.3000030517578</ele>
			<time>2014-01-02T14:23:34Z</time>
		</trkpt>
		<trkpt lat="39.5570297241211" lon="2.77414083480835">
			<ele>65.0999984741211</ele>
			<time>2014-01-02T14:23:35Z</time>
		</trkpt>
		<trkpt lat="39.556999206543" lon="2.77425146102905">
			<ele>64.4000015258789</ele>
			<time>2014-01-02T14:23:37Z</time>
		</trkpt>
		<trkpt lat="39.5569801330566" lon="2.77430725097656">
			<ele>64.6999969482422</ele>
			<time>2014-01-02T14:23:38Z</time>
		</trkpt>
		<trkpt lat="39.5569648742676" lon="2.77436447143555">
			<ele>64.8000030517578</ele>
			<time>2014-01-02T14:23:39Z</time>
		</trkpt>
		<trkpt lat="39.5569458007813" lon="2.77442336082458">
			<ele>64.1999969482422</ele>
			<time>2014-01-02T14:23:40Z</time>
		</trkpt>
		<trkpt lat="39.5569000244141" lon="2.77452492713928">
			<ele>63.7000007629395</ele>
			<time>2014-01-02T14:23:42Z</time>
		</trkpt>
		<trkpt lat="39.5568733215332" lon="2.77457356452942">
			<ele>63.7000007629395</ele>
			<time>2014-01-02T14:23:43Z</time>
		</trkpt>
		<trkpt lat="39.5568428039551" lon="2.77461981773376">
			<ele>63.9000015258789</ele>
			<time>2014-01-02T14:23:44Z</time>
		</trkpt>
		<trkpt lat="39.5568161010742" lon="2.77467203140259">
			<ele>64.1999969482422</ele>
			<time>2014-01-02T14:23:45Z</time>
		</trkpt>
		<trkpt lat="39.556770324707" lon="2.77471232414246">
			<ele>64.9000015258789</ele>
			<time>2014-01-02T14:23:47Z</time>
		</trkpt>
		<trkpt lat="39.5567283630371" lon="2.77474999427795">
			<ele>65</ele>
			<time>2014-01-02T14:23:47Z</time>
		</trkpt>
		<trkpt lat="39.5566596984863" lon="2.77483177185059">
			<ele>65.4000015258789</ele>
			<time>2014-01-02T14:23:49Z</time>
		</trkpt>
		<trkpt lat="39.5566253662109" lon="2.77487444877625">
			<ele>65.5999984741211</ele>
			<time>2014-01-02T14:23:50Z</time>
		</trkpt>
		<trkpt lat="39.5565872192383" lon="2.7749125957489">
			<ele>65.5999984741211</ele>
			<time>2014-01-02T14:23:51Z</time>
		</trkpt>
		<trkpt lat="39.5565528869629" lon="2.77495121955872">
			<ele>65.9000015258789</ele>
			<time>2014-01-02T14:23:52Z</time>
		</trkpt>
		<trkpt lat="39.5564918518066" lon="2.77502870559692">
			<ele>65.5999984741211</ele>
			<time>2014-01-02T14:23:54Z</time>
		</trkpt>
		<trkpt lat="39.5564384460449" lon="2.77511119842529">
			<ele>65.8000030517578</ele>
			<time>2014-01-02T14:23:56Z</time>
		</trkpt>
		<trkpt lat="39.5563812255859" lon="2.77518391609192">
			<ele>65.6999969482422</ele>
			<time>2014-01-02T14:23:58Z</time>
		</trkpt>
		<trkpt lat="39.556324005127" lon="2.77526545524597">
			<ele>65.3000030517578</ele>
			<time>2014-01-02T14:24:00Z</time>
		</trkpt>
		<trkpt lat="39.5562782287598" lon="2.77535367012024">
			<ele>66.1999969482422</ele>
			<time>2014-01-02T14:24:02Z</time>
		</trkpt>
		<trkpt lat="39.5562210083008" lon="2.77542781829834">
			<ele>66.5999984741211</ele>
			<time>2014-01-02T14:24:04Z</time>
		</trkpt>
		<trkpt lat="39.5561676025391" lon="2.77549576759338">
			<ele>66.6999969482422</ele>
			<time>2014-01-02T14:24:06Z</time>
		</trkpt>
		<trkpt lat="39.5561180114746" lon="2.77556157112122">
			<ele>68.5</ele>
			<time>2014-01-02T14:24:08Z</time>
		</trkpt>
		<trkpt lat="39.5560722351074" lon="2.77562093734741">
			<ele>69.4000015258789</ele>
			<time>2014-01-02T14:24:10Z</time>
		</trkpt>
		<trkpt lat="39.5560302734375" lon="2.77568125724792">
			<ele>70.8000030517578</ele>
			<time>2014-01-02T14:24:12Z</time>
		</trkpt>
		<trkpt lat="39.5559844970703" lon="2.77573943138123">
			<ele>71.9000015258789</ele>
			<time>2014-01-02T14:24:14Z</time>
		</trkpt>
		<trkpt lat="39.5559349060059" lon="2.77578711509705">
			<ele>72.8000030517578</ele>
			<time>2014-01-02T14:24:16Z</time>
		</trkpt>
		<trkpt lat="39.5558853149414" lon="2.7758412361145">
			<ele>73.5999984741211</ele>
			<time>2014-01-02T14:24:18Z</time>
		</trkpt>
		<trkpt lat="39.5558433532715" lon="2.77587699890137">
			<ele>74.4000015258789</ele>
			<time>2014-01-02T14:24:20Z</time>
		</trkpt>
		<trkpt lat="39.5558013916016" lon="2.77592921257019">
			<ele>74.9000015258789</ele>
			<time>2014-01-02T14:24:22Z</time>
		</trkpt>
		<trkpt lat="39.5557556152344" lon="2.77596545219421">
			<ele>74.8000030517578</ele>
			<time>2014-01-02T14:24:24Z</time>
		</trkpt>
		<trkpt lat="39.5557098388672" lon="2.7759268283844">
			<ele>74.5</ele>
			<time>2014-01-02T14:24:26Z</time>
		</trkpt>
		<trkpt lat="39.5556488037109" lon="2.77591180801392">
			<ele>73.8000030517578</ele>
			<time>2014-01-02T14:24:28Z</time>
		</trkpt>
		<trkpt lat="39.5555763244629" lon="2.77590155601501">
			<ele>73.0999984741211</ele>
			<time>2014-01-02T14:24:30Z</time>
		</trkpt>
		<trkpt lat="39.5554962158203" lon="2.77588796615601">
			<ele>72.5999984741211</ele>
			<time>2014-01-02T14:24:32Z</time>
		</trkpt>
		<trkpt lat="39.5554161071777" lon="2.77588868141174">
			<ele>72.0999984741211</ele>
			<time>2014-01-02T14:24:34Z</time>
		</trkpt>
		<trkpt lat="39.5553703308105" lon="2.77587580680847">
			<ele>71.8000030517578</ele>
			<time>2014-01-02T14:24:35Z</time>
		</trkpt>
		<trkpt lat="39.5552864074707" lon="2.77586650848389">
			<ele>71.8000030517578</ele>
			<time>2014-01-02T14:24:37Z</time>
		</trkpt>
		<trkpt lat="39.5551986694336" lon="2.77586936950684">
			<ele>71.1999969482422</ele>
			<time>2014-01-02T14:24:39Z</time>
		</trkpt>
		<trkpt lat="39.5551147460938" lon="2.7758641242981">
			<ele>70.5</ele>
			<time>2014-01-02T14:24:41Z</time>
		</trkpt>
		<trkpt lat="39.5550308227539" lon="2.77585935592651">
			<ele>70</ele>
			<time>2014-01-02T14:24:43Z</time>
		</trkpt>
		<trkpt lat="39.5549507141113" lon="2.77584314346313">
			<ele>70</ele>
			<time>2014-01-02T14:24:45Z</time>
		</trkpt>
		<trkpt lat="39.5548706054688" lon="2.77583360671997">
			<ele>69.8000030517578</ele>
			<time>2014-01-02T14:24:47Z</time>
		</trkpt>
		<trkpt lat="39.5547866821289" lon="2.77582192420959">
			<ele>69.1999969482422</ele>
			<time>2014-01-02T14:24:49Z</time>
		</trkpt>
		<trkpt lat="39.5547065734863" lon="2.77581381797791">
			<ele>68.5999984741211</ele>
			<time>2014-01-02T14:24:51Z</time>
		</trkpt>
		<trkpt lat="39.5546226501465" lon="2.77582669258118">
			<ele>68.8000030517578</ele>
			<time>2014-01-02T14:24:53Z</time>
		</trkpt>
		<trkpt lat="39.5545768737793" lon="2.77584338188171">
			<ele>68.5999984741211</ele>
			<time>2014-01-02T14:24:54Z</time>
		</trkpt>
		<trkpt lat="39.5544967651367" lon="2.77587413787842">
			<ele>68.1999969482422</ele>
			<time>2014-01-02T14:24:56Z</time>
		</trkpt>
		<trkpt lat="39.5544128417969" lon="2.77589392662048">
			<ele>67.5999984741211</ele>
			<time>2014-01-02T14:24:58Z</time>
		</trkpt>
		<trkpt lat="39.5543251037598" lon="2.77591156959534">
			<ele>67.8000030517578</ele>
			<time>2014-01-02T14:25:00Z</time>
		</trkpt>
		<trkpt lat="39.5542411804199" lon="2.77593183517456">
			<ele>67.6999969482422</ele>
			<time>2014-01-02T14:25:02Z</time>
		</trkpt>
		<trkpt lat="39.5541954040527" lon="2.7759370803833">
			<ele>67.8000030517578</ele>
			<time>2014-01-02T14:25:03Z</time>
		</trkpt>
		<trkpt lat="39.5541458129883" lon="2.77595734596252">
			<ele>68.1999969482422</ele>
			<time>2014-01-02T14:25:04Z</time>
		</trkpt>
		<trkpt lat="39.5540962219238" lon="2.7759690284729">
			<ele>68.6999969482422</ele>
			<time>2014-01-02T14:25:05Z</time>
		</trkpt>
		<trkpt lat="39.5540237426758" lon="2.77599716186523">
			<ele>68.5</ele>
			<time>2014-01-02T14:25:07Z</time>
		</trkpt>
		<trkpt lat="39.5539588928223" lon="2.77604079246521">
			<ele>68.5999984741211</ele>
			<time>2014-01-02T14:25:09Z</time>
		</trkpt>
		<trkpt lat="39.5538864135742" lon="2.77608871459961">
			<ele>69.3000030517578</ele>
			<time>2014-01-02T14:25:11Z</time>
		</trkpt>
		<trkpt lat="39.5538139343262" lon="2.77614164352417">
			<ele>70.0999984741211</ele>
			<time>2014-01-02T14:25:13Z</time>
		</trkpt>
		<trkpt lat="39.5537490844727" lon="2.7761070728302">
			<ele>70.1999969482422</ele>
			<time>2014-01-02T14:25:15Z</time>
		</trkpt>
		<trkpt lat="39.5536727905273" lon="2.77611517906189">
			<ele>71.0999984741211</ele>
			<time>2014-01-02T14:25:17Z</time>
		</trkpt>
		<trkpt lat="39.5536041259766" lon="2.77614665031433">
			<ele>71.4000015258789</ele>
			<time>2014-01-02T14:25:19Z</time>
		</trkpt>
		<trkpt lat="39.553539276123" lon="2.77616381645203">
			<ele>71.3000030517578</ele>
			<time>2014-01-02T14:25:21Z</time>
		</trkpt>
		<trkpt lat="39.5534858703613" lon="2.77616834640503">
			<ele>71.4000015258789</ele>
			<time>2014-01-02T14:25:23Z</time>
		</trkpt>
		<trkpt lat="39.5534515380859" lon="2.77620935440063">
			<ele>72.6999969482422</ele>
			<time>2014-01-02T14:25:24Z</time>
		</trkpt>
		<trkpt lat="39.5534057617188" lon="2.77622652053833">
			<ele>72.6999969482422</ele>
			<time>2014-01-02T14:25:26Z</time>
		</trkpt>
		<trkpt lat="39.5533638000488" lon="2.77617359161377">
			<ele>71.5999984741211</ele>
			<time>2014-01-02T14:25:28Z</time>
		</trkpt>
		<trkpt lat="39.553337097168" lon="2.77611875534058">
			<ele>71.0999984741211</ele>
			<time>2014-01-02T14:25:30Z</time>
		</trkpt>
		<trkpt lat="39.5533752441406" lon="2.7759952545166">
			<ele>68.5999984741211</ele>
			<time>2014-01-02T14:25:32Z</time>
		</trkpt>
		<trkpt lat="39.5533905029297" lon="2.77593660354614">
			<ele>67.6999969482422</ele>
			<time>2014-01-02T14:25:35Z</time>
		</trkpt>
		<trkpt lat="39.5534057617188" lon="2.7758162021637">
			<ele>64.9000015258789</ele>
			<time>2014-01-02T14:25:36Z</time>
		</trkpt>
		<trkpt lat="39.5534210205078" lon="2.7756872177124">
			<ele>65</ele>
			<time>2014-01-02T14:25:37Z</time>
		</trkpt>
		<trkpt lat="39.5534286499023" lon="2.77562165260315">
			<ele>64.9000015258789</ele>
			<time>2014-01-02T14:25:38Z</time>
		</trkpt>
		<trkpt lat="39.5534400939941" lon="2.77555441856384">
			<ele>64.8000030517578</ele>
			<time>2014-01-02T14:25:39Z</time>
		</trkpt>
		<trkpt lat="39.5534439086914" lon="2.77548360824585">
			<ele>64.5999984741211</ele>
			<time>2014-01-02T14:25:40Z</time>
		</trkpt>
		<trkpt lat="39.5534553527832" lon="2.77541351318359">
			<ele>63.7999992370605</ele>
			<time>2014-01-02T14:25:41Z</time>
		</trkpt>
		<trkpt lat="39.5534706115723" lon="2.77534413337708">
			<ele>63.5</ele>
			<time>2014-01-02T14:25:42Z</time>
		</trkpt>
		<trkpt lat="39.5534858703613" lon="2.77527499198914">
			<ele>63.2000007629395</ele>
			<time>2014-01-02T14:25:43Z</time>
		</trkpt>
		<trkpt lat="39.5534934997559" lon="2.77520966529846">
			<ele>63.2999992370605</ele>
			<time>2014-01-02T14:25:44Z</time>
		</trkpt>
		<trkpt lat="39.5535163879395" lon="2.77513647079468">
			<ele>62.2999992370605</ele>
			<time>2014-01-02T14:25:45Z</time>
		</trkpt>
		<trkpt lat="39.5535163879395" lon="2.77502202987671">
			<ele>61.2999992370605</ele>
			<time>2014-01-02T14:25:47Z</time>
		</trkpt>
		<trkpt lat="39.5535163879395" lon="2.77495789527893">
			<ele>61.2000007629395</ele>
			<time>2014-01-02T14:25:48Z</time>
		</trkpt>
		<trkpt lat="39.5535163879395" lon="2.77488827705383">
			<ele>61.4000015258789</ele>
			<time>2014-01-02T14:25:49Z</time>
		</trkpt>
		<trkpt lat="39.5535011291504" lon="2.77477169036865">
			<ele>61</ele>
			<time>2014-01-02T14:25:51Z</time>
		</trkpt>
		<trkpt lat="39.5534782409668" lon="2.77469182014465">
			<ele>62.4000015258789</ele>
			<time>2014-01-02T14:25:53Z</time>
		</trkpt>
		<trkpt lat="39.5534286499023" lon="2.77463245391846">
			<ele>62</ele>
			<time>2014-01-02T14:25:55Z</time>
		</trkpt>
		<trkpt lat="39.5533905029297" lon="2.77459979057312">
			<ele>62.5999984741211</ele>
			<time>2014-01-02T14:25:56Z</time>
		</trkpt>
		<trkpt lat="39.5533180236816" lon="2.77454447746277">
			<ele>63.2999992370605</ele>
			<time>2014-01-02T14:25:58Z</time>
		</trkpt>
		<trkpt lat="39.5532493591309" lon="2.77450180053711">
			<ele>63.4000015258789</ele>
			<time>2014-01-02T14:26:00Z</time>
		</trkpt>
		<trkpt lat="39.5531845092773" lon="2.77445864677429">
			<ele>63.5999984741211</ele>
			<time>2014-01-02T14:26:02Z</time>
		</trkpt>
		<trkpt lat="39.5531234741211" lon="2.77441239356995">
			<ele>63.5999984741211</ele>
			<time>2014-01-02T14:26:04Z</time>
		</trkpt>
		<trkpt lat="39.5530624389648" lon="2.77436637878418">
			<ele>63.5</ele>
			<time>2014-01-02T14:26:06Z</time>
		</trkpt>
		<trkpt lat="39.5530014038086" lon="2.77432179450989">
			<ele>63.5</ele>
			<time>2014-01-02T14:26:08Z</time>
		</trkpt>
		<trkpt lat="39.5529403686523" lon="2.77428126335144">
			<ele>64.0999984741211</ele>
			<time>2014-01-02T14:26:10Z</time>
		</trkpt>
		<trkpt lat="39.5528831481934" lon="2.77423977851868">
			<ele>64.4000015258789</ele>
			<time>2014-01-02T14:26:12Z</time>
		</trkpt>
		<trkpt lat="39.5528297424316" lon="2.7741858959198">
			<ele>64.8000030517578</ele>
			<time>2014-01-02T14:26:14Z</time>
		</trkpt>
		<trkpt lat="39.5527687072754" lon="2.77413582801819">
			<ele>65.4000015258789</ele>
			<time>2014-01-02T14:26:16Z</time>
		</trkpt>
		<trkpt lat="39.5527114868164" lon="2.77408623695374">
			<ele>66.0999984741211</ele>
			<time>2014-01-02T14:26:18Z</time>
		</trkpt>
		<trkpt lat="39.5526580810547" lon="2.77402997016907">
			<ele>66.6999969482422</ele>
			<time>2014-01-02T14:26:20Z</time>
		</trkpt>
		<trkpt lat="39.552604675293" lon="2.77398443222046">
			<ele>66.8000030517578</ele>
			<time>2014-01-02T14:26:22Z</time>
		</trkpt>
		<trkpt lat="39.5525665283203" lon="2.77390050888062">
			<ele>66.8000030517578</ele>
			<time>2014-01-02T14:26:24Z</time>
		</trkpt>
		<trkpt lat="39.5525550842285" lon="2.77380347251892">
			<ele>66.4000015258789</ele>
			<time>2014-01-02T14:26:26Z</time>
		</trkpt>
		<trkpt lat="39.5525817871094" lon="2.77370595932007">
			<ele>65.5</ele>
			<time>2014-01-02T14:26:28Z</time>
		</trkpt>
		<trkpt lat="39.5525970458984" lon="2.77360105514526">
			<ele>64.8000030517578</ele>
			<time>2014-01-02T14:26:30Z</time>
		</trkpt>
		<trkpt lat="39.552604675293" lon="2.77349781990051">
			<ele>64.4000015258789</ele>
			<time>2014-01-02T14:26:32Z</time>
		</trkpt>
		<trkpt lat="39.5526008605957" lon="2.77339005470276">
			<ele>64.1999969482422</ele>
			<time>2014-01-02T14:26:34Z</time>
		</trkpt>
		<trkpt lat="39.5525932312012" lon="2.7732789516449">
			<ele>64.5999984741211</ele>
			<time>2014-01-02T14:26:36Z</time>
		</trkpt>
		<trkpt lat="39.5525779724121" lon="2.77317333221436">
			<ele>64.4000015258789</ele>
			<time>2014-01-02T14:26:38Z</time>
		</trkpt>
		<trkpt lat="39.552562713623" lon="2.77306580543518">
			<ele>64.4000015258789</ele>
			<time>2014-01-02T14:26:40Z</time>
		</trkpt>
		<trkpt lat="39.5525436401367" lon="2.77296495437622">
			<ele>64.8000030517578</ele>
			<time>2014-01-02T14:26:42Z</time>
		</trkpt>
		<trkpt lat="39.5525131225586" lon="2.77286815643311">
			<ele>64.5999984741211</ele>
			<time>2014-01-02T14:26:44Z</time>
		</trkpt>
		<trkpt lat="39.5524826049805" lon="2.77277827262878">
			<ele>64.5999984741211</ele>
			<time>2014-01-02T14:26:46Z</time>
		</trkpt>
		<trkpt lat="39.5524482727051" lon="2.77269530296326">
			<ele>64.6999969482422</ele>
			<time>2014-01-02T14:26:48Z</time>
		</trkpt>
		<trkpt lat="39.5524101257324" lon="2.772616147995">
			<ele>65.0999984741211</ele>
			<time>2014-01-02T14:26:50Z</time>
		</trkpt>
		<trkpt lat="39.5523681640625" lon="2.77253818511963">
			<ele>65.5</ele>
			<time>2014-01-02T14:26:52Z</time>
		</trkpt>
		<trkpt lat="39.5523223876953" lon="2.7724666595459">
			<ele>65.5</ele>
			<time>2014-01-02T14:26:54Z</time>
		</trkpt>
		<trkpt lat="39.5522804260254" lon="2.77239966392517">
			<ele>65.8000030517578</ele>
			<time>2014-01-02T14:26:56Z</time>
		</trkpt>
		<trkpt lat="39.5522346496582" lon="2.77234601974487">
			<ele>66</ele>
			<time>2014-01-02T14:26:58Z</time>
		</trkpt>
		<trkpt lat="39.5521850585938" lon="2.77229380607605">
			<ele>66.0999984741211</ele>
			<time>2014-01-02T14:27:00Z</time>
		</trkpt>
		<trkpt lat="39.5521278381348" lon="2.77224850654602">
			<ele>66.3000030517578</ele>
			<time>2014-01-02T14:27:02Z</time>
		</trkpt>
		<trkpt lat="39.552074432373" lon="2.77221083641052">
			<ele>66.5</ele>
			<time>2014-01-02T14:27:04Z</time>
		</trkpt>
		<trkpt lat="39.5520248413086" lon="2.77217507362366">
			<ele>66.8000030517578</ele>
			<time>2014-01-02T14:27:06Z</time>
		</trkpt>
		<trkpt lat="39.5519714355469" lon="2.77214860916138">
			<ele>67.0999984741211</ele>
			<time>2014-01-02T14:27:08Z</time>
		</trkpt>
		<trkpt lat="39.5519218444824" lon="2.77212500572205">
			<ele>67.4000015258789</ele>
			<time>2014-01-02T14:27:10Z</time>
		</trkpt>
		<trkpt lat="39.5518684387207" lon="2.77209830284119">
			<ele>67.8000030517578</ele>
			<time>2014-01-02T14:27:12Z</time>
		</trkpt>
		<trkpt lat="39.5518188476563" lon="2.77207469940186">
			<ele>68</ele>
			<time>2014-01-02T14:27:14Z</time>
		</trkpt>
		<trkpt lat="39.5517654418945" lon="2.77204751968384">
			<ele>68</ele>
			<time>2014-01-02T14:27:16Z</time>
		</trkpt>
		<trkpt lat="39.5517082214355" lon="2.77202200889587">
			<ele>68.0999984741211</ele>
			<time>2014-01-02T14:27:18Z</time>
		</trkpt>
		<trkpt lat="39.5516548156738" lon="2.77198934555054">
			<ele>68.3000030517578</ele>
			<time>2014-01-02T14:27:20Z</time>
		</trkpt>
		<trkpt lat="39.5516014099121" lon="2.77195835113525">
			<ele>68.3000030517578</ele>
			<time>2014-01-02T14:27:22Z</time>
		</trkpt>
		<trkpt lat="39.5515480041504" lon="2.77193188667297">
			<ele>68.3000030517578</ele>
			<time>2014-01-02T14:27:24Z</time>
		</trkpt>
		<trkpt lat="39.5514984130859" lon="2.77190279960632">
			<ele>68.4000015258789</ele>
			<time>2014-01-02T14:27:26Z</time>
		</trkpt>
		<trkpt lat="39.5514488220215" lon="2.77187490463257">
			<ele>68.3000030517578</ele>
			<time>2014-01-02T14:27:28Z</time>
		</trkpt>
		<trkpt lat="39.551399230957" lon="2.77184581756592">
			<ele>68.4000015258789</ele>
			<time>2014-01-02T14:27:30Z</time>
		</trkpt>
		<trkpt lat="39.551342010498" lon="2.77181696891785">
			<ele>68.5</ele>
			<time>2014-01-02T14:27:32Z</time>
		</trkpt>
		<trkpt lat="39.5512962341309" lon="2.77178430557251">
			<ele>70.3000030517578</ele>
			<time>2014-01-02T14:27:34Z</time>
		</trkpt>
		<trkpt lat="39.5512428283691" lon="2.77175450325012">
			<ele>71.5</ele>
			<time>2014-01-02T14:27:36Z</time>
		</trkpt>
		<trkpt lat="39.5511932373047" lon="2.771733045578">
			<ele>71.8000030517578</ele>
			<time>2014-01-02T14:27:38Z</time>
		</trkpt>
		<trkpt lat="39.5511360168457" lon="2.77171301841736">
			<ele>72.0999984741211</ele>
			<time>2014-01-02T14:27:40Z</time>
		</trkpt>
		<trkpt lat="39.5510940551758" lon="2.77167940139771">
			<ele>69.6999969482422</ele>
			<time>2014-01-02T14:27:42Z</time>
		</trkpt>
		<trkpt lat="39.5510406494141" lon="2.77164077758789">
			<ele>70.3000030517578</ele>
			<time>2014-01-02T14:27:44Z</time>
		</trkpt>
		<trkpt lat="39.5509986877441" lon="2.77160120010376">
			<ele>69.8000030517578</ele>
			<time>2014-01-02T14:27:46Z</time>
		</trkpt>
		<trkpt lat="39.5509490966797" lon="2.77157187461853">
			<ele>68.8000030517578</ele>
			<time>2014-01-02T14:27:48Z</time>
		</trkpt>
		<trkpt lat="39.550910949707" lon="2.77154469490051">
			<ele>68.0999984741211</ele>
			<time>2014-01-02T14:27:50Z</time>
		</trkpt>
		<trkpt lat="39.5508651733398" lon="2.77152848243713">
			<ele>68.3000030517578</ele>
			<time>2014-01-02T14:27:52Z</time>
		</trkpt>
		<trkpt lat="39.5508079528809" lon="2.771488904953">
			<ele>68.0999984741211</ele>
			<time>2014-01-02T14:27:54Z</time>
		</trkpt>
		<trkpt lat="39.5507621765137" lon="2.77146625518799">
			<ele>69.4000015258789</ele>
			<time>2014-01-02T14:27:56Z</time>
		</trkpt>
		<trkpt lat="39.550708770752" lon="2.77144169807434">
			<ele>70.0999984741211</ele>
			<time>2014-01-02T14:27:58Z</time>
		</trkpt>
		<trkpt lat="39.5506629943848" lon="2.77141857147217">
			<ele>71.1999969482422</ele>
			<time>2014-01-02T14:28:00Z</time>
		</trkpt>
		<trkpt lat="39.5506248474121" lon="2.77138781547546">
			<ele>71.8000030517578</ele>
			<time>2014-01-02T14:28:02Z</time>
		</trkpt>
		<trkpt lat="39.5505790710449" lon="2.77133917808533">
			<ele>72.5999984741211</ele>
			<time>2014-01-02T14:28:04Z</time>
		</trkpt>
		<trkpt lat="39.5505294799805" lon="2.77123284339905">
			<ele>73.5999984741211</ele>
			<time>2014-01-02T14:28:06Z</time>
		</trkpt>
		<trkpt lat="39.5504913330078" lon="2.77113437652588">
			<ele>73.5999984741211</ele>
			<time>2014-01-02T14:28:08Z</time>
		</trkpt>
		<trkpt lat="39.5504684448242" lon="2.77107858657837">
			<ele>73.8000030517578</ele>
			<time>2014-01-02T14:28:09Z</time>
		</trkpt>
		<trkpt lat="39.5504264831543" lon="2.77098631858826">
			<ele>73.4000015258789</ele>
			<time>2014-01-02T14:28:11Z</time>
		</trkpt>
		<trkpt lat="39.5503768920898" lon="2.77088117599487">
			<ele>73.5</ele>
			<time>2014-01-02T14:28:13Z</time>
		</trkpt>
		<trkpt lat="39.550350189209" lon="2.77083373069763">
			<ele>73.1999969482422</ele>
			<time>2014-01-02T14:28:14Z</time>
		</trkpt>
		<trkpt lat="39.5503044128418" lon="2.77073168754578">
			<ele>71.8000030517578</ele>
			<time>2014-01-02T14:28:16Z</time>
		</trkpt>
		<trkpt lat="39.5502738952637" lon="2.77067971229553">
			<ele>71.5999984741211</ele>
			<time>2014-01-02T14:28:17Z</time>
		</trkpt>
		<trkpt lat="39.5502510070801" lon="2.77062225341797">
			<ele>71.0999984741211</ele>
			<time>2014-01-02T14:28:18Z</time>
		</trkpt>
		<trkpt lat="39.550220489502" lon="2.77056217193604">
			<ele>71.4000015258789</ele>
			<time>2014-01-02T14:28:19Z</time>
		</trkpt>
		<trkpt lat="39.5501899719238" lon="2.77050495147705">
			<ele>71.5</ele>
			<time>2014-01-02T14:28:20Z</time>
		</trkpt>
		<trkpt lat="39.550163269043" lon="2.77045083045959">
			<ele>71.3000030517578</ele>
			<time>2014-01-02T14:28:21Z</time>
		</trkpt>
		<trkpt lat="39.5501403808594" lon="2.77038955688477">
			<ele>71</ele>
			<time>2014-01-02T14:28:22Z</time>
		</trkpt>
		<trkpt lat="39.5501174926758" lon="2.77032947540283">
			<ele>71.4000015258789</ele>
			<time>2014-01-02T14:28:23Z</time>
		</trkpt>
		<trkpt lat="39.5500907897949" lon="2.77027821540833">
			<ele>71</ele>
			<time>2014-01-02T14:28:24Z</time>
		</trkpt>
		<trkpt lat="39.5500640869141" lon="2.77022480964661">
			<ele>70.9000015258789</ele>
			<time>2014-01-02T14:28:25Z</time>
		</trkpt>
		<trkpt lat="39.5500297546387" lon="2.77017450332642">
			<ele>71.0999984741211</ele>
			<time>2014-01-02T14:28:26Z</time>
		</trkpt>
		<trkpt lat="39.5499954223633" lon="2.77013254165649">
			<ele>70.9000015258789</ele>
			<time>2014-01-02T14:28:27Z</time>
		</trkpt>
		<trkpt lat="39.5499572753906" lon="2.77009606361389">
			<ele>71.0999984741211</ele>
			<time>2014-01-02T14:28:28Z</time>
		</trkpt>
		<trkpt lat="39.5498962402344" lon="2.77003264427185">
			<ele>70.3000030517578</ele>
			<time>2014-01-02T14:28:30Z</time>
		</trkpt>
		<trkpt lat="39.5498199462891" lon="2.76998019218445">
			<ele>69.8000030517578</ele>
			<time>2014-01-02T14:28:32Z</time>
		</trkpt>
		<trkpt lat="39.5497512817383" lon="2.76993083953857">
			<ele>69.5999984741211</ele>
			<time>2014-01-02T14:28:34Z</time>
		</trkpt>
		<trkpt lat="39.549674987793" lon="2.76989698410034">
			<ele>68.9000015258789</ele>
			<time>2014-01-02T14:28:36Z</time>
		</trkpt>
		<trkpt lat="39.5495872497559" lon="2.76988983154297">
			<ele>69.5</ele>
			<time>2014-01-02T14:28:38Z</time>
		</trkpt>
		<trkpt lat="39.5495414733887" lon="2.76988053321838">
			<ele>69.4000015258789</ele>
			<time>2014-01-02T14:28:39Z</time>
		</trkpt>
		<trkpt lat="39.5494613647461" lon="2.76987552642822">
			<ele>69.0999984741211</ele>
			<time>2014-01-02T14:28:41Z</time>
		</trkpt>
		<trkpt lat="39.5493850708008" lon="2.76987195014954">
			<ele>69</ele>
			<time>2014-01-02T14:28:43Z</time>
		</trkpt>
		<trkpt lat="39.5493087768555" lon="2.76986789703369">
			<ele>69</ele>
			<time>2014-01-02T14:28:45Z</time>
		</trkpt>
		<trkpt lat="39.5492286682129" lon="2.76986908912659">
			<ele>68.5999984741211</ele>
			<time>2014-01-02T14:28:47Z</time>
		</trkpt>
		<trkpt lat="39.5491485595703" lon="2.7698769569397">
			<ele>68.9000015258789</ele>
			<time>2014-01-02T14:28:49Z</time>
		</trkpt>
		<trkpt lat="39.5490684509277" lon="2.76989531517029">
			<ele>68.4000015258789</ele>
			<time>2014-01-02T14:28:51Z</time>
		</trkpt>
		<trkpt lat="39.5489883422852" lon="2.76990866661072">
			<ele>68.0999984741211</ele>
			<time>2014-01-02T14:28:53Z</time>
		</trkpt>
		<trkpt lat="39.548942565918" lon="2.7698814868927">
			<ele>68.1999969482422</ele>
			<time>2014-01-02T14:28:54Z</time>
		</trkpt>
		<trkpt lat="39.5488586425781" lon="2.76985597610474">
			<ele>67.9000015258789</ele>
			<time>2014-01-02T14:28:56Z</time>
		</trkpt>
		<trkpt lat="39.5487670898438" lon="2.7698347568512">
			<ele>67.6999969482422</ele>
			<time>2014-01-02T14:28:58Z</time>
		</trkpt>
		<trkpt lat="39.5487213134766" lon="2.76982688903809">
			<ele>67.5999984741211</ele>
			<time>2014-01-02T14:28:59Z</time>
		</trkpt>
		<trkpt lat="39.5486373901367" lon="2.76981258392334">
			<ele>67.8000030517578</ele>
			<time>2014-01-02T14:29:01Z</time>
		</trkpt>
		<trkpt lat="39.5485572814941" lon="2.76978659629822">
			<ele>67.8000030517578</ele>
			<time>2014-01-02T14:29:03Z</time>
		</trkpt>
		<trkpt lat="39.5484848022461" lon="2.76976704597473">
			<ele>68</ele>
			<time>2014-01-02T14:29:05Z</time>
		</trkpt>
		<trkpt lat="39.5484085083008" lon="2.76974844932556">
			<ele>67.8000030517578</ele>
			<time>2014-01-02T14:29:07Z</time>
		</trkpt>
		<trkpt lat="39.5483322143555" lon="2.76973032951355">
			<ele>67.8000030517578</ele>
			<time>2014-01-02T14:29:09Z</time>
		</trkpt>
		<trkpt lat="39.5482597351074" lon="2.76971292495728">
			<ele>68</ele>
			<time>2014-01-02T14:29:11Z</time>
		</trkpt>
		<trkpt lat="39.5481491088867" lon="2.76968216896057">
			<ele>67.9000015258789</ele>
			<time>2014-01-02T14:29:14Z</time>
		</trkpt>
		<trkpt lat="39.5480728149414" lon="2.76966285705566">
			<ele>67.8000030517578</ele>
			<time>2014-01-02T14:29:16Z</time>
		</trkpt>
		<trkpt lat="39.5479965209961" lon="2.76963496208191">
			<ele>67.3000030517578</ele>
			<time>2014-01-02T14:29:18Z</time>
		</trkpt>
		<trkpt lat="39.5479125976563" lon="2.76961445808411">
			<ele>67.0999984741211</ele>
			<time>2014-01-02T14:29:20Z</time>
		</trkpt>
		<trkpt lat="39.5478668212891" lon="2.76962995529175">
			<ele>67.1999969482422</ele>
			<time>2014-01-02T14:29:21Z</time>
		</trkpt>
		<trkpt lat="39.5478210449219" lon="2.76963949203491">
			<ele>67.1999969482422</ele>
			<time>2014-01-02T14:29:22Z</time>
		</trkpt>
		<trkpt lat="39.547779083252" lon="2.76965069770813">
			<ele>67.1999969482422</ele>
			<time>2014-01-02T14:29:23Z</time>
		</trkpt>
		<trkpt lat="39.5477027893066" lon="2.76969718933105">
			<ele>66.5</ele>
			<time>2014-01-02T14:29:25Z</time>
		</trkpt>
		<trkpt lat="39.5476989746094" lon="2.76975965499878">
			<ele>67.0999984741211</ele>
			<time>2014-01-02T14:29:26Z</time>
		</trkpt>
		<trkpt lat="39.5476608276367" lon="2.76983094215393">
			<ele>67.5</ele>
			<time>2014-01-02T14:29:28Z</time>
		</trkpt>
		<trkpt lat="39.5476112365723" lon="2.76989555358887">
			<ele>69.4000015258789</ele>
			<time>2014-01-02T14:29:30Z</time>
		</trkpt>
		<trkpt lat="39.5475654602051" lon="2.76995897293091">
			<ele>70.0999984741211</ele>
			<time>2014-01-02T14:29:32Z</time>
		</trkpt>
		<trkpt lat="39.5475158691406" lon="2.770015001297">
			<ele>70.5999984741211</ele>
			<time>2014-01-02T14:29:34Z</time>
		</trkpt>
		<trkpt lat="39.5474700927734" lon="2.77007293701172">
			<ele>70.9000015258789</ele>
			<time>2014-01-02T14:29:36Z</time>
		</trkpt>
		<trkpt lat="39.5474128723145" lon="2.77013516426086">
			<ele>71.4000015258789</ele>
			<time>2014-01-02T14:29:38Z</time>
		</trkpt>
		<trkpt lat="39.5473594665527" lon="2.77019762992859">
			<ele>71.6999969482422</ele>
			<time>2014-01-02T14:29:40Z</time>
		</trkpt>
		<trkpt lat="39.5473136901855" lon="2.77025651931763">
			<ele>72.1999969482422</ele>
			<time>2014-01-02T14:29:42Z</time>
		</trkpt>
		<trkpt lat="39.5472564697266" lon="2.77030968666077">
			<ele>72.5999984741211</ele>
			<time>2014-01-02T14:29:44Z</time>
		</trkpt>
		<trkpt lat="39.5472068786621" lon="2.7703697681427">
			<ele>73.3000030517578</ele>
			<time>2014-01-02T14:29:46Z</time>
		</trkpt>
		<trkpt lat="39.5471611022949" lon="2.77042412757874">
			<ele>73.3000030517578</ele>
			<time>2014-01-02T14:29:48Z</time>
		</trkpt>
		<trkpt lat="39.5471153259277" lon="2.77047562599182">
			<ele>73.5999984741211</ele>
			<time>2014-01-02T14:29:50Z</time>
		</trkpt>
		<trkpt lat="39.5470695495605" lon="2.77052617073059">
			<ele>73.9000015258789</ele>
			<time>2014-01-02T14:29:52Z</time>
		</trkpt>
		<trkpt lat="39.5470237731934" lon="2.77058100700378">
			<ele>74.3000030517578</ele>
			<time>2014-01-02T14:29:54Z</time>
		</trkpt>
		<trkpt lat="39.5469818115234" lon="2.77062439918518">
			<ele>74.1999969482422</ele>
			<time>2014-01-02T14:29:56Z</time>
		</trkpt>
		<trkpt lat="39.5469436645508" lon="2.77067828178406">
			<ele>73.9000015258789</ele>
			<time>2014-01-02T14:29:58Z</time>
		</trkpt>
		<trkpt lat="39.5468902587891" lon="2.77071833610535">
			<ele>74.1999969482422</ele>
			<time>2014-01-02T14:30:00Z</time>
		</trkpt>
		<trkpt lat="39.5468406677246" lon="2.77079510688782">
			<ele>76.5999984741211</ele>
			<time>2014-01-02T14:30:02Z</time>
		</trkpt>
		<trkpt lat="39.5467720031738" lon="2.77082896232605">
			<ele>77.1999969482422</ele>
			<time>2014-01-02T14:30:04Z</time>
		</trkpt>
		<trkpt lat="39.546703338623" lon="2.77077960968018">
			<ele>77.9000015258789</ele>
			<time>2014-01-02T14:30:06Z</time>
		</trkpt>
		<trkpt lat="39.5466461181641" lon="2.77074003219604">
			<ele>77.9000015258789</ele>
			<time>2014-01-02T14:30:08Z</time>
		</trkpt>
		<trkpt lat="39.5465850830078" lon="2.77068328857422">
			<ele>78.1999969482422</ele>
			<time>2014-01-02T14:30:10Z</time>
		</trkpt>
		<trkpt lat="39.5465278625488" lon="2.77064323425293">
			<ele>78.5999984741211</ele>
			<time>2014-01-02T14:30:12Z</time>
		</trkpt>
		<trkpt lat="39.5464706420898" lon="2.7706036567688">
			<ele>78.9000015258789</ele>
			<time>2014-01-02T14:30:14Z</time>
		</trkpt>
		<trkpt lat="39.5464134216309" lon="2.77056431770325">
			<ele>78.9000015258789</ele>
			<time>2014-01-02T14:30:16Z</time>
		</trkpt>
		<trkpt lat="39.5463600158691" lon="2.77052307128906">
			<ele>79.0999984741211</ele>
			<time>2014-01-02T14:30:18Z</time>
		</trkpt>
		<trkpt lat="39.5463066101074" lon="2.77048754692078">
			<ele>79.1999969482422</ele>
			<time>2014-01-02T14:30:20Z</time>
		</trkpt>
		<trkpt lat="39.5462455749512" lon="2.77045178413391">
			<ele>79.5</ele>
			<time>2014-01-02T14:30:22Z</time>
		</trkpt>
		<trkpt lat="39.5461845397949" lon="2.77040982246399">
			<ele>79.1999969482422</ele>
			<time>2014-01-02T14:30:24Z</time>
		</trkpt>
		<trkpt lat="39.5461196899414" lon="2.77036809921265">
			<ele>78.8000030517578</ele>
			<time>2014-01-02T14:30:26Z</time>
		</trkpt>
		<trkpt lat="39.5460548400879" lon="2.77032327651978">
			<ele>78.5</ele>
			<time>2014-01-02T14:30:28Z</time>
		</trkpt>
		<trkpt lat="39.5459861755371" lon="2.77028608322144">
			<ele>78.5</ele>
			<time>2014-01-02T14:30:30Z</time>
		</trkpt>
		<trkpt lat="39.5459403991699" lon="2.77024865150452">
			<ele>77.9000015258789</ele>
			<time>2014-01-02T14:30:32Z</time>
		</trkpt>
		<trkpt lat="39.5458869934082" lon="2.77021050453186">
			<ele>75.9000015258789</ele>
			<time>2014-01-02T14:30:58Z</time>
		</trkpt>
		<trkpt lat="39.545841217041" lon="2.77017521858215">
			<ele>75.1999969482422</ele>
			<time>2014-01-02T14:31:00Z</time>
		</trkpt>
		<trkpt lat="39.5457801818848" lon="2.77012848854065">
			<ele>74.1999969482422</ele>
			<time>2014-01-02T14:31:02Z</time>
		</trkpt>
		<trkpt lat="39.5456924438477" lon="2.77007460594177">
			<ele>73.9000015258789</ele>
			<time>2014-01-02T14:31:04Z</time>
		</trkpt>
		<trkpt lat="39.5456390380859" lon="2.77004218101501">
			<ele>72.5</ele>
			<time>2014-01-02T14:31:05Z</time>
		</trkpt>
		<trkpt lat="39.5455856323242" lon="2.77000641822815">
			<ele>71.6999969482422</ele>
			<time>2014-01-02T14:31:06Z</time>
		</trkpt>
		<trkpt lat="39.5455284118652" lon="2.76997637748718">
			<ele>70.8000030517578</ele>
			<time>2014-01-02T14:31:07Z</time>
		</trkpt>
		<trkpt lat="39.545467376709" lon="2.76993465423584">
			<ele>70.5999984741211</ele>
			<time>2014-01-02T14:31:08Z</time>
		</trkpt>
		<trkpt lat="39.5454025268555" lon="2.76989817619324">
			<ele>70.4000015258789</ele>
			<time>2014-01-02T14:31:09Z</time>
		</trkpt>
		<trkpt lat="39.545337677002" lon="2.76986169815063">
			<ele>70</ele>
			<time>2014-01-02T14:31:10Z</time>
		</trkpt>
		<trkpt lat="39.545280456543" lon="2.76982450485229">
			<ele>69.6999969482422</ele>
			<time>2014-01-02T14:31:11Z</time>
		</trkpt>
		<trkpt lat="39.5452194213867" lon="2.76978754997253">
			<ele>69.6999969482422</ele>
			<time>2014-01-02T14:31:12Z</time>
		</trkpt>
		<trkpt lat="39.5451622009277" lon="2.76975274085999">
			<ele>69.4000015258789</ele>
			<time>2014-01-02T14:31:13Z</time>
		</trkpt>
		<trkpt lat="39.5451126098633" lon="2.76971697807312">
			<ele>69.0999984741211</ele>
			<time>2014-01-02T14:31:14Z</time>
		</trkpt>
		<trkpt lat="39.5450630187988" lon="2.76969122886658">
			<ele>68.8000030517578</ele>
			<time>2014-01-02T14:31:15Z</time>
		</trkpt>
		<trkpt lat="39.5450096130371" lon="2.76966094970703">
			<ele>68.8000030517578</ele>
			<time>2014-01-02T14:31:16Z</time>
		</trkpt>
		<trkpt lat="39.5449676513672" lon="2.76963710784912">
			<ele>68.4000015258789</ele>
			<time>2014-01-02T14:31:17Z</time>
		</trkpt>
		<trkpt lat="39.544921875" lon="2.76960444450378">
			<ele>68.1999969482422</ele>
			<time>2014-01-02T14:31:18Z</time>
		</trkpt>
		<trkpt lat="39.5448799133301" lon="2.76957511901855">
			<ele>68.0999984741211</ele>
			<time>2014-01-02T14:31:19Z</time>
		</trkpt>
		<trkpt lat="39.5447998046875" lon="2.76952910423279">
			<ele>67.9000015258789</ele>
			<time>2014-01-02T14:31:21Z</time>
		</trkpt>
		<trkpt lat="39.5447196960449" lon="2.76948118209839">
			<ele>67.6999969482422</ele>
			<time>2014-01-02T14:31:23Z</time>
		</trkpt>
		<trkpt lat="39.5446395874023" lon="2.76942944526672">
			<ele>67.8000030517578</ele>
			<time>2014-01-02T14:31:25Z</time>
		</trkpt>
		<trkpt lat="39.544563293457" lon="2.76938223838806">
			<ele>67.8000030517578</ele>
			<time>2014-01-02T14:31:27Z</time>
		</trkpt>
		<trkpt lat="39.5444869995117" lon="2.76933550834656">
			<ele>67.9000015258789</ele>
			<time>2014-01-02T14:31:29Z</time>
		</trkpt>
		<trkpt lat="39.5444145202637" lon="2.76929092407227">
			<ele>67.9000015258789</ele>
			<time>2014-01-02T14:31:31Z</time>
		</trkpt>
		<trkpt lat="39.5443382263184" lon="2.76924538612366">
			<ele>67.8000030517578</ele>
			<time>2014-01-02T14:31:33Z</time>
		</trkpt>
		<trkpt lat="39.5442657470703" lon="2.76920294761658">
			<ele>67.9000015258789</ele>
			<time>2014-01-02T14:31:35Z</time>
		</trkpt>
		<trkpt lat="39.5441970825195" lon="2.76915979385376">
			<ele>67.8000030517578</ele>
			<time>2014-01-02T14:31:37Z</time>
		</trkpt>
		<trkpt lat="39.5441284179688" lon="2.76911759376526">
			<ele>67.4000015258789</ele>
			<time>2014-01-02T14:31:39Z</time>
		</trkpt>
		<trkpt lat="39.544059753418" lon="2.76907825469971">
			<ele>67</ele>
			<time>2014-01-02T14:31:41Z</time>
		</trkpt>
		<trkpt lat="39.5439910888672" lon="2.76903700828552">
			<ele>67.1999969482422</ele>
			<time>2014-01-02T14:31:43Z</time>
		</trkpt>
		<trkpt lat="39.5439224243164" lon="2.7689962387085">
			<ele>67</ele>
			<time>2014-01-02T14:31:45Z</time>
		</trkpt>
		<trkpt lat="39.5438537597656" lon="2.76895117759705">
			<ele>67</ele>
			<time>2014-01-02T14:31:47Z</time>
		</trkpt>
		<trkpt lat="39.5437850952148" lon="2.76890730857849">
			<ele>67.0999984741211</ele>
			<time>2014-01-02T14:31:49Z</time>
		</trkpt>
		<trkpt lat="39.5437164306641" lon="2.76886320114136">
			<ele>67</ele>
			<time>2014-01-02T14:31:51Z</time>
		</trkpt>
		<trkpt lat="39.5436477661133" lon="2.76882266998291">
			<ele>66.9000015258789</ele>
			<time>2014-01-02T14:31:53Z</time>
		</trkpt>
		<trkpt lat="39.5435791015625" lon="2.76878094673157">
			<ele>67.1999969482422</ele>
			<time>2014-01-02T14:31:55Z</time>
		</trkpt>
		<trkpt lat="39.5435066223145" lon="2.76873826980591">
			<ele>66.9000015258789</ele>
			<time>2014-01-02T14:31:57Z</time>
		</trkpt>
		<trkpt lat="39.5434379577637" lon="2.76869225502014">
			<ele>67</ele>
			<time>2014-01-02T14:31:59Z</time>
		</trkpt>
		<trkpt lat="39.5433692932129" lon="2.76864838600159">
			<ele>67.4000015258789</ele>
			<time>2014-01-02T14:32:01Z</time>
		</trkpt>
		<trkpt lat="39.5433082580566" lon="2.76861548423767">
			<ele>67.3000030517578</ele>
			<time>2014-01-02T14:32:03Z</time>
		</trkpt>
		<trkpt lat="39.5432548522949" lon="2.7685763835907">
			<ele>67.5</ele>
			<time>2014-01-02T14:32:05Z</time>
		</trkpt>
		<trkpt lat="39.5432090759277" lon="2.76854825019836">
			<ele>67.5</ele>
			<time>2014-01-02T14:32:07Z</time>
		</trkpt>
		<trkpt lat="39.5431518554688" lon="2.7685124874115">
			<ele>66.6999969482422</ele>
			<time>2014-01-02T14:32:10Z</time>
		</trkpt>
		<trkpt lat="39.5430946350098" lon="2.76852440834045">
			<ele>66.9000015258789</ele>
			<time>2014-01-02T14:32:14Z</time>
		</trkpt>
		<trkpt lat="39.5430488586426" lon="2.76857399940491">
			<ele>67</ele>
			<time>2014-01-02T14:32:16Z</time>
		</trkpt>
		<trkpt lat="39.5430183410645" lon="2.76865839958191">
			<ele>67</ele>
			<time>2014-01-02T14:32:18Z</time>
		</trkpt>
		<trkpt lat="39.5429878234863" lon="2.76874470710754">
			<ele>66.6999969482422</ele>
			<time>2014-01-02T14:32:20Z</time>
		</trkpt>
		<trkpt lat="39.5429573059082" lon="2.76882863044739">
			<ele>66.6999969482422</ele>
			<time>2014-01-02T14:32:22Z</time>
		</trkpt>
		<trkpt lat="39.5429267883301" lon="2.7689197063446">
			<ele>66.6999969482422</ele>
			<time>2014-01-02T14:32:24Z</time>
		</trkpt>
		<trkpt lat="39.542896270752" lon="2.76900744438171">
			<ele>67.1999969482422</ele>
			<time>2014-01-02T14:32:26Z</time>
		</trkpt>
		<trkpt lat="39.5428619384766" lon="2.76909494400024">
			<ele>67.3000030517578</ele>
			<time>2014-01-02T14:32:28Z</time>
		</trkpt>
		<trkpt lat="39.5428276062012" lon="2.76918792724609">
			<ele>67.3000030517578</ele>
			<time>2014-01-02T14:32:30Z</time>
		</trkpt>
		<trkpt lat="39.5427932739258" lon="2.76927971839905">
			<ele>67.8000030517578</ele>
			<time>2014-01-02T14:32:32Z</time>
		</trkpt>
		<trkpt lat="39.5427627563477" lon="2.76936388015747">
			<ele>68.0999984741211</ele>
			<time>2014-01-02T14:32:34Z</time>
		</trkpt>
		<trkpt lat="39.5427322387695" lon="2.76944780349731">
			<ele>68.4000015258789</ele>
			<time>2014-01-02T14:32:36Z</time>
		</trkpt>
		<trkpt lat="39.5427017211914" lon="2.76953387260437">
			<ele>68.3000030517578</ele>
			<time>2014-01-02T14:32:38Z</time>
		</trkpt>
		<trkpt lat="39.542667388916" lon="2.7696168422699">
			<ele>68.8000030517578</ele>
			<time>2014-01-02T14:32:40Z</time>
		</trkpt>
		<trkpt lat="39.5426406860352" lon="2.76969766616821">
			<ele>68.8000030517578</ele>
			<time>2014-01-02T14:32:42Z</time>
		</trkpt>
		<trkpt lat="39.5426139831543" lon="2.76978302001953">
			<ele>69.0999984741211</ele>
			<time>2014-01-02T14:32:44Z</time>
		</trkpt>
		<trkpt lat="39.5425720214844" lon="2.769864320755">
			<ele>69.4000015258789</ele>
			<time>2014-01-02T14:32:46Z</time>
		</trkpt>
		<trkpt lat="39.5425415039063" lon="2.76994585990906">
			<ele>69.5999984741211</ele>
			<time>2014-01-02T14:32:48Z</time>
		</trkpt>
		<trkpt lat="39.5425262451172" lon="2.77001333236694">
			<ele>69.6999969482422</ele>
			<time>2014-01-02T14:32:50Z</time>
		</trkpt>
		<trkpt lat="39.5424957275391" lon="2.77009534835815">
			<ele>69.0999984741211</ele>
			<time>2014-01-02T14:32:52Z</time>
		</trkpt>
		<trkpt lat="39.5424728393555" lon="2.77017855644226">
			<ele>69.4000015258789</ele>
			<time>2014-01-02T14:32:54Z</time>
		</trkpt>
		<trkpt lat="39.5424537658691" lon="2.77027273178101">
			<ele>70.5</ele>
			<time>2014-01-02T14:32:56Z</time>
		</trkpt>
		<trkpt lat="39.5424385070801" lon="2.77036094665527">
			<ele>71.5</ele>
			<time>2014-01-02T14:32:58Z</time>
		</trkpt>
		<trkpt lat="39.5424003601074" lon="2.77042818069458">
			<ele>71.0999984741211</ele>
			<time>2014-01-02T14:33:00Z</time>
		</trkpt>
		<trkpt lat="39.542366027832" lon="2.77050876617432">
			<ele>72.1999969482422</ele>
			<time>2014-01-02T14:33:02Z</time>
		</trkpt>
		<trkpt lat="39.5423355102539" lon="2.77058815956116">
			<ele>72.0999984741211</ele>
			<time>2014-01-02T14:33:04Z</time>
		</trkpt>
		<trkpt lat="39.542308807373" lon="2.77066612243652">
			<ele>72.1999969482422</ele>
			<time>2014-01-02T14:33:06Z</time>
		</trkpt>
		<trkpt lat="39.5422744750977" lon="2.77075242996216">
			<ele>71.9000015258789</ele>
			<time>2014-01-02T14:33:08Z</time>
		</trkpt>
		<trkpt lat="39.5422401428223" lon="2.77082514762878">
			<ele>71.0999984741211</ele>
			<time>2014-01-02T14:33:10Z</time>
		</trkpt>
		<trkpt lat="39.5422058105469" lon="2.77090048789978">
			<ele>70.8000030517578</ele>
			<time>2014-01-02T14:33:12Z</time>
		</trkpt>
		<trkpt lat="39.5421752929688" lon="2.77097296714783">
			<ele>70.1999969482422</ele>
			<time>2014-01-02T14:33:14Z</time>
		</trkpt>
		<trkpt lat="39.5421447753906" lon="2.77104640007019">
			<ele>70</ele>
			<time>2014-01-02T14:33:16Z</time>
		</trkpt>
		<trkpt lat="39.5421142578125" lon="2.77113509178162">
			<ele>72</ele>
			<time>2014-01-02T14:33:18Z</time>
		</trkpt>
		<trkpt lat="39.5420379638672" lon="2.77119183540344">
			<ele>73</ele>
			<time>2014-01-02T14:33:20Z</time>
		</trkpt>
		<trkpt lat="39.5420074462891" lon="2.77114391326904">
			<ele>72.6999969482422</ele>
			<time>2014-01-02T14:33:21Z</time>
		</trkpt>
		<trkpt lat="39.5419425964355" lon="2.77110075950623">
			<ele>72.8000030517578</ele>
			<time>2014-01-02T14:33:23Z</time>
		</trkpt>
		<trkpt lat="39.5418815612793" lon="2.77105522155762">
			<ele>72.9000015258789</ele>
			<time>2014-01-02T14:33:25Z</time>
		</trkpt>
		<trkpt lat="39.5418243408203" lon="2.77100372314453">
			<ele>71.6999969482422</ele>
			<time>2014-01-02T14:33:27Z</time>
		</trkpt>
		<trkpt lat="39.5417594909668" lon="2.77096271514893">
			<ele>71.9000015258789</ele>
			<time>2014-01-02T14:33:29Z</time>
		</trkpt>
		<trkpt lat="39.541690826416" lon="2.77092885971069">
			<ele>72</ele>
			<time>2014-01-02T14:33:31Z</time>
		</trkpt>
		<trkpt lat="39.5416259765625" lon="2.77088737487793">
			<ele>72.4000015258789</ele>
			<time>2014-01-02T14:33:33Z</time>
		</trkpt>
		<trkpt lat="39.541561126709" lon="2.77084589004517">
			<ele>72.5</ele>
			<time>2014-01-02T14:33:35Z</time>
		</trkpt>
		<trkpt lat="39.5414962768555" lon="2.77080416679382">
			<ele>72.6999969482422</ele>
			<time>2014-01-02T14:33:37Z</time>
		</trkpt>
		<trkpt lat="39.5414390563965" lon="2.77075982093811">
			<ele>72.5</ele>
			<time>2014-01-02T14:33:39Z</time>
		</trkpt>
		<trkpt lat="39.5413818359375" lon="2.77070832252502">
			<ele>71.4000015258789</ele>
			<time>2014-01-02T14:33:41Z</time>
		</trkpt>
		<trkpt lat="39.5413131713867" lon="2.77066993713379">
			<ele>71.8000030517578</ele>
			<time>2014-01-02T14:33:43Z</time>
		</trkpt>
		<trkpt lat="39.5412445068359" lon="2.77063584327698">
			<ele>71.4000015258789</ele>
			<time>2014-01-02T14:33:45Z</time>
		</trkpt>
		<trkpt lat="39.5411796569824" lon="2.77060294151306">
			<ele>70.6999969482422</ele>
			<time>2014-01-02T14:33:47Z</time>
		</trkpt>
		<trkpt lat="39.5411186218262" lon="2.7705614566803">
			<ele>70.1999969482422</ele>
			<time>2014-01-02T14:33:49Z</time>
		</trkpt>
		<trkpt lat="39.5410537719727" lon="2.77052807807922">
			<ele>70.4000015258789</ele>
			<time>2014-01-02T14:33:51Z</time>
		</trkpt>
		<trkpt lat="39.5409889221191" lon="2.77049517631531">
			<ele>70.3000030517578</ele>
			<time>2014-01-02T14:33:53Z</time>
		</trkpt>
		<trkpt lat="39.5409317016602" lon="2.77045488357544">
			<ele>69.5999984741211</ele>
			<time>2014-01-02T14:33:55Z</time>
		</trkpt>
		<trkpt lat="39.5408706665039" lon="2.77040958404541">
			<ele>69.6999969482422</ele>
			<time>2014-01-02T14:33:57Z</time>
		</trkpt>
		<trkpt lat="39.5408134460449" lon="2.77037215232849">
			<ele>69.0999984741211</ele>
			<time>2014-01-02T14:33:59Z</time>
		</trkpt>
		<trkpt lat="39.5407524108887" lon="2.7703263759613">
			<ele>68.5999984741211</ele>
			<time>2014-01-02T14:34:01Z</time>
		</trkpt>
		<trkpt lat="39.5406913757324" lon="2.77028965950012">
			<ele>68.3000030517578</ele>
			<time>2014-01-02T14:34:03Z</time>
		</trkpt>
		<trkpt lat="39.5406265258789" lon="2.77024722099304">
			<ele>67.6999969482422</ele>
			<time>2014-01-02T14:34:05Z</time>
		</trkpt>
		<trkpt lat="39.5405693054199" lon="2.77021145820618">
			<ele>67.3000030517578</ele>
			<time>2014-01-02T14:34:07Z</time>
		</trkpt>
		<trkpt lat="39.5405044555664" lon="2.77017092704773">
			<ele>67.3000030517578</ele>
			<time>2014-01-02T14:34:09Z</time>
		</trkpt>
		<trkpt lat="39.5404434204102" lon="2.77012872695923">
			<ele>67.1999969482422</ele>
			<time>2014-01-02T14:34:11Z</time>
		</trkpt>
		<trkpt lat="39.5403823852539" lon="2.77008891105652">
			<ele>66.9000015258789</ele>
			<time>2014-01-02T14:34:13Z</time>
		</trkpt>
		<trkpt lat="39.5403175354004" lon="2.7700514793396">
			<ele>66.8000030517578</ele>
			<time>2014-01-02T14:34:15Z</time>
		</trkpt>
		<trkpt lat="39.5402603149414" lon="2.77001547813416">
			<ele>66.4000015258789</ele>
			<time>2014-01-02T14:34:17Z</time>
		</trkpt>
		<trkpt lat="39.5401954650879" lon="2.76997518539429">
			<ele>66.3000030517578</ele>
			<time>2014-01-02T14:34:19Z</time>
		</trkpt>
		<trkpt lat="39.5401344299316" lon="2.76993870735168">
			<ele>66</ele>
			<time>2014-01-02T14:34:21Z</time>
		</trkpt>
		<trkpt lat="39.5400695800781" lon="2.76989769935608">
			<ele>65.6999969482422</ele>
			<time>2014-01-02T14:34:23Z</time>
		</trkpt>
		<trkpt lat="39.5400085449219" lon="2.76986002922058">
			<ele>65.5999984741211</ele>
			<time>2014-01-02T14:34:25Z</time>
		</trkpt>
		<trkpt lat="39.5399475097656" lon="2.7698233127594">
			<ele>65.5</ele>
			<time>2014-01-02T14:34:27Z</time>
		</trkpt>
		<trkpt lat="39.5398864746094" lon="2.76978993415833">
			<ele>65.4000015258789</ele>
			<time>2014-01-02T14:34:29Z</time>
		</trkpt>
		<trkpt lat="39.5398254394531" lon="2.76975560188293">
			<ele>65.0999984741211</ele>
			<time>2014-01-02T14:34:31Z</time>
		</trkpt>
		<trkpt lat="39.5397644042969" lon="2.76972842216492">
			<ele>65</ele>
			<time>2014-01-02T14:34:33Z</time>
		</trkpt>
		<trkpt lat="39.5396995544434" lon="2.76972007751465">
			<ele>65.4000015258789</ele>
			<time>2014-01-02T14:34:35Z</time>
		</trkpt>
		<trkpt lat="39.5396347045898" lon="2.7697229385376">
			<ele>65.1999969482422</ele>
			<time>2014-01-02T14:34:37Z</time>
		</trkpt>
		<trkpt lat="39.5395698547363" lon="2.76973509788513">
			<ele>65.3000030517578</ele>
			<time>2014-01-02T14:34:39Z</time>
		</trkpt>
		<trkpt lat="39.5395011901855" lon="2.7697536945343">
			<ele>65.3000030517578</ele>
			<time>2014-01-02T14:34:41Z</time>
		</trkpt>
		<trkpt lat="39.539436340332" lon="2.76977920532227">
			<ele>65.4000015258789</ele>
			<time>2014-01-02T14:34:43Z</time>
		</trkpt>
		<trkpt lat="39.539363861084" lon="2.76980233192444">
			<ele>65.4000015258789</ele>
			<time>2014-01-02T14:34:45Z</time>
		</trkpt>
		<trkpt lat="39.5392990112305" lon="2.76981949806213">
			<ele>65.4000015258789</ele>
			<time>2014-01-02T14:34:47Z</time>
		</trkpt>
		<trkpt lat="39.5392303466797" lon="2.76982593536377">
			<ele>66.0999984741211</ele>
			<time>2014-01-02T14:34:49Z</time>
		</trkpt>
		<trkpt lat="39.5391616821289" lon="2.76982259750366">
			<ele>66.5</ele>
			<time>2014-01-02T14:34:51Z</time>
		</trkpt>
		<trkpt lat="39.5390968322754" lon="2.76979851722717">
			<ele>66.8000030517578</ele>
			<time>2014-01-02T14:34:53Z</time>
		</trkpt>
		<trkpt lat="39.5390319824219" lon="2.76977062225342">
			<ele>66.5</ele>
			<time>2014-01-02T14:34:55Z</time>
		</trkpt>
		<trkpt lat="39.5389747619629" lon="2.76973342895508">
			<ele>66.8000030517578</ele>
			<time>2014-01-02T14:34:57Z</time>
		</trkpt>
		<trkpt lat="39.5389099121094" lon="2.76969408988953">
			<ele>67</ele>
			<time>2014-01-02T14:34:59Z</time>
		</trkpt>
		<trkpt lat="39.5388488769531" lon="2.76966071128845">
			<ele>66.9000015258789</ele>
			<time>2014-01-02T14:35:01Z</time>
		</trkpt>
		<trkpt lat="39.5387840270996" lon="2.76962566375732">
			<ele>66.9000015258789</ele>
			<time>2014-01-02T14:35:03Z</time>
		</trkpt>
		<trkpt lat="39.5387229919434" lon="2.76959109306335">
			<ele>67.0999984741211</ele>
			<time>2014-01-02T14:35:05Z</time>
		</trkpt>
		<trkpt lat="39.5386581420898" lon="2.76954889297485">
			<ele>67.0999984741211</ele>
			<time>2014-01-02T14:35:07Z</time>
		</trkpt>
		<trkpt lat="39.5385932922363" lon="2.76950836181641">
			<ele>67.1999969482422</ele>
			<time>2014-01-02T14:35:09Z</time>
		</trkpt>
		<trkpt lat="39.5385284423828" lon="2.76946830749512">
			<ele>66.9000015258789</ele>
			<time>2014-01-02T14:35:11Z</time>
		</trkpt>
		<trkpt lat="39.5384674072266" lon="2.76943016052246">
			<ele>67.0999984741211</ele>
			<time>2014-01-02T14:35:13Z</time>
		</trkpt>
		<trkpt lat="39.5384063720703" lon="2.76939463615417">
			<ele>67.1999969482422</ele>
			<time>2014-01-02T14:35:15Z</time>
		</trkpt>
		<trkpt lat="39.5383453369141" lon="2.76935601234436">
			<ele>67.1999969482422</ele>
			<time>2014-01-02T14:35:17Z</time>
		</trkpt>
		<trkpt lat="39.5382804870605" lon="2.76931738853455">
			<ele>67.5</ele>
			<time>2014-01-02T14:35:19Z</time>
		</trkpt>
		<trkpt lat="39.538215637207" lon="2.76927900314331">
			<ele>67.6999969482422</ele>
			<time>2014-01-02T14:35:21Z</time>
		</trkpt>
		<trkpt lat="39.5381507873535" lon="2.76923942565918">
			<ele>67.3000030517578</ele>
			<time>2014-01-02T14:35:23Z</time>
		</trkpt>
		<trkpt lat="39.5380859375" lon="2.76919937133789">
			<ele>67.5999984741211</ele>
			<time>2014-01-02T14:35:25Z</time>
		</trkpt>
		<trkpt lat="39.5380210876465" lon="2.76916265487671">
			<ele>67.5999984741211</ele>
			<time>2014-01-02T14:35:27Z</time>
		</trkpt>
		<trkpt lat="39.537956237793" lon="2.76912069320679">
			<ele>67.5999984741211</ele>
			<time>2014-01-02T14:35:29Z</time>
		</trkpt>
		<trkpt lat="39.5378913879395" lon="2.76908159255981">
			<ele>67.9000015258789</ele>
			<time>2014-01-02T14:35:31Z</time>
		</trkpt>
		<trkpt lat="39.5378303527832" lon="2.769047498703">
			<ele>68.1999969482422</ele>
			<time>2014-01-02T14:35:33Z</time>
		</trkpt>
		<trkpt lat="39.5377655029297" lon="2.76901078224182">
			<ele>68.1999969482422</ele>
			<time>2014-01-02T14:35:35Z</time>
		</trkpt>
		<trkpt lat="39.5377044677734" lon="2.76897883415222">
			<ele>68.4000015258789</ele>
			<time>2014-01-02T14:35:37Z</time>
		</trkpt>
		<trkpt lat="39.5376434326172" lon="2.76894450187683">
			<ele>68.4000015258789</ele>
			<time>2014-01-02T14:35:39Z</time>
		</trkpt>
		<trkpt lat="39.5375785827637" lon="2.76890420913696">
			<ele>68.1999969482422</ele>
			<time>2014-01-02T14:35:41Z</time>
		</trkpt>
		<trkpt lat="39.5375099182129" lon="2.76886439323425">
			<ele>68.3000030517578</ele>
			<time>2014-01-02T14:35:43Z</time>
		</trkpt>
		<trkpt lat="39.5374374389648" lon="2.7688295841217">
			<ele>68.4000015258789</ele>
			<time>2014-01-02T14:35:45Z</time>
		</trkpt>
		<trkpt lat="39.5373687744141" lon="2.76878881454468">
			<ele>68.9000015258789</ele>
			<time>2014-01-02T14:35:47Z</time>
		</trkpt>
		<trkpt lat="39.5373039245605" lon="2.76874494552612">
			<ele>68.3000030517578</ele>
			<time>2014-01-02T14:35:49Z</time>
		</trkpt>
		<trkpt lat="39.537239074707" lon="2.76870608329773">
			<ele>68.1999969482422</ele>
			<time>2014-01-02T14:35:51Z</time>
		</trkpt>
		<trkpt lat="39.5371704101563" lon="2.76866269111633">
			<ele>68.1999969482422</ele>
			<time>2014-01-02T14:35:53Z</time>
		</trkpt>
		<trkpt lat="39.5371055603027" lon="2.76862072944641">
			<ele>67.9000015258789</ele>
			<time>2014-01-02T14:35:55Z</time>
		</trkpt>
		<trkpt lat="39.537036895752" lon="2.76857590675354">
			<ele>67.5999984741211</ele>
			<time>2014-01-02T14:35:57Z</time>
		</trkpt>
		<trkpt lat="39.5369720458984" lon="2.76853203773499">
			<ele>67.5</ele>
			<time>2014-01-02T14:35:59Z</time>
		</trkpt>
		<trkpt lat="39.5369110107422" lon="2.76849293708801">
			<ele>67.5999984741211</ele>
			<time>2014-01-02T14:36:01Z</time>
		</trkpt>
		<trkpt lat="39.5368499755859" lon="2.76845860481262">
			<ele>67.5999984741211</ele>
			<time>2014-01-02T14:36:03Z</time>
		</trkpt>
		<trkpt lat="39.5367965698242" lon="2.76842832565308">
			<ele>67.5999984741211</ele>
			<time>2014-01-02T14:36:05Z</time>
		</trkpt>
		<trkpt lat="39.5367469787598" lon="2.76839208602905">
			<ele>67.5</ele>
			<time>2014-01-02T14:36:07Z</time>
		</trkpt>
		<trkpt lat="39.5367469787598" lon="2.76831221580505">
			<ele>67.4000015258789</ele>
			<time>2014-01-02T14:36:10Z</time>
		</trkpt>
		<trkpt lat="39.5367202758789" lon="2.76836085319519">
			<ele>66.4000015258789</ele>
			<time>2014-01-02T14:42:31Z</time>
		</trkpt>
		<trkpt lat="39.5366706848145" lon="2.76836538314819">
			<ele>69.1999969482422</ele>
			<time>2014-01-02T14:42:42Z</time>
		</trkpt>
		<trkpt lat="39.5366287231445" lon="2.76832747459412">
			<ele>69.5</ele>
			<time>2014-01-02T14:42:44Z</time>
		</trkpt>
		<trkpt lat="39.5365829467773" lon="2.76829981803894">
			<ele>69.3000030517578</ele>
			<time>2014-01-02T14:42:46Z</time>
		</trkpt>
		<trkpt lat="39.5365371704102" lon="2.76826500892639">
			<ele>69.4000015258789</ele>
			<time>2014-01-02T14:42:48Z</time>
		</trkpt>
		<trkpt lat="39.5364875793457" lon="2.76823687553406">
			<ele>69.8000030517578</ele>
			<time>2014-01-02T14:42:50Z</time>
		</trkpt>
		<trkpt lat="39.5364379882813" lon="2.76820588111877">
			<ele>70.0999984741211</ele>
			<time>2014-01-02T14:42:52Z</time>
		</trkpt>
		<trkpt lat="39.5363845825195" lon="2.76817393302917">
			<ele>70.0999984741211</ele>
			<time>2014-01-02T14:42:54Z</time>
		</trkpt>
		<trkpt lat="39.5363235473633" lon="2.76813769340515">
			<ele>69.8000030517578</ele>
			<time>2014-01-02T14:42:56Z</time>
		</trkpt>
		<trkpt lat="39.5362586975098" lon="2.76810264587402">
			<ele>69.5999984741211</ele>
			<time>2014-01-02T14:42:58Z</time>
		</trkpt>
		<trkpt lat="39.5361938476563" lon="2.76806879043579">
			<ele>69.3000030517578</ele>
			<time>2014-01-02T14:43:00Z</time>
		</trkpt>
		<trkpt lat="39.5361251831055" lon="2.76802587509155">
			<ele>69.0999984741211</ele>
			<time>2014-01-02T14:43:02Z</time>
		</trkpt>
		<trkpt lat="39.5360565185547" lon="2.76798701286316">
			<ele>69.1999969482422</ele>
			<time>2014-01-02T14:43:04Z</time>
		</trkpt>
		<trkpt lat="39.5359916687012" lon="2.76794624328613">
			<ele>69.1999969482422</ele>
			<time>2014-01-02T14:43:06Z</time>
		</trkpt>
		<trkpt lat="39.5359191894531" lon="2.76791191101074">
			<ele>69.1999969482422</ele>
			<time>2014-01-02T14:43:08Z</time>
		</trkpt>
		<trkpt lat="39.5358505249023" lon="2.76787137985229">
			<ele>69.4000015258789</ele>
			<time>2014-01-02T14:43:10Z</time>
		</trkpt>
		<trkpt lat="39.5357551574707" lon="2.76781249046326">
			<ele>69.4000015258789</ele>
			<time>2014-01-02T14:43:15Z</time>
		</trkpt>
		<trkpt lat="39.5356903076172" lon="2.76777458190918">
			<ele>69.5999984741211</ele>
			<time>2014-01-02T14:43:15Z</time>
		</trkpt>
		<trkpt lat="39.5356254577637" lon="2.767733335495">
			<ele>69.6999969482422</ele>
			<time>2014-01-02T14:43:18Z</time>
		</trkpt>
		<trkpt lat="39.5355224609375" lon="2.76767468452454">
			<ele>69.8000030517578</ele>
			<time>2014-01-02T14:43:20Z</time>
		</trkpt>
		<trkpt lat="39.5354537963867" lon="2.76763296127319">
			<ele>69.9000015258789</ele>
			<time>2014-01-02T14:43:22Z</time>
		</trkpt>
		<trkpt lat="39.5353813171387" lon="2.76759004592896">
			<ele>69.9000015258789</ele>
			<time>2014-01-02T14:43:24Z</time>
		</trkpt>
		<trkpt lat="39.5353126525879" lon="2.76754784584045">
			<ele>70</ele>
			<time>2014-01-02T14:43:26Z</time>
		</trkpt>
		<trkpt lat="39.5352439880371" lon="2.76750159263611">
			<ele>70</ele>
			<time>2014-01-02T14:43:28Z</time>
		</trkpt>
		<trkpt lat="39.5351715087891" lon="2.76745772361755">
			<ele>69.6999969482422</ele>
			<time>2014-01-02T14:43:30Z</time>
		</trkpt>
		<trkpt lat="39.5351028442383" lon="2.76741552352905">
			<ele>69.6999969482422</ele>
			<time>2014-01-02T14:43:32Z</time>
		</trkpt>
		<trkpt lat="39.5350303649902" lon="2.76737856864929">
			<ele>69.5</ele>
			<time>2014-01-02T14:43:34Z</time>
		</trkpt>
		<trkpt lat="39.5349578857422" lon="2.7673544883728">
			<ele>69.5999984741211</ele>
			<time>2014-01-02T14:43:36Z</time>
		</trkpt>
		<trkpt lat="39.5348854064941" lon="2.76734781265259">
			<ele>69.5</ele>
			<time>2014-01-02T14:43:38Z</time>
		</trkpt>
		<trkpt lat="39.5348091125488" lon="2.76735758781433">
			<ele>69.0999984741211</ele>
			<time>2014-01-02T14:43:40Z</time>
		</trkpt>
		<trkpt lat="39.5347366333008" lon="2.7673819065094">
			<ele>69</ele>
			<time>2014-01-02T14:43:42Z</time>
		</trkpt>
		<trkpt lat="39.5346603393555" lon="2.767422914505">
			<ele>69.0999984741211</ele>
			<time>2014-01-02T14:43:44Z</time>
		</trkpt>
		<trkpt lat="39.5345916748047" lon="2.76747107505798">
			<ele>69.1999969482422</ele>
			<time>2014-01-02T14:43:46Z</time>
		</trkpt>
		<trkpt lat="39.5345230102539" lon="2.7675256729126">
			<ele>69.0999984741211</ele>
			<time>2014-01-02T14:43:48Z</time>
		</trkpt>
		<trkpt lat="39.5344543457031" lon="2.76757788658142">
			<ele>69.3000030517578</ele>
			<time>2014-01-02T14:43:50Z</time>
		</trkpt>
		<trkpt lat="39.5343856811523" lon="2.76763010025024">
			<ele>69.4000015258789</ele>
			<time>2014-01-02T14:43:52Z</time>
		</trkpt>
		<trkpt lat="39.5343170166016" lon="2.76767516136169">
			<ele>69.6999969482422</ele>
			<time>2014-01-02T14:43:54Z</time>
		</trkpt>
		<trkpt lat="39.5342483520508" lon="2.76771998405457">
			<ele>69.5999984741211</ele>
			<time>2014-01-02T14:43:56Z</time>
		</trkpt>
		<trkpt lat="39.5341758728027" lon="2.76776075363159">
			<ele>69.5999984741211</ele>
			<time>2014-01-02T14:43:58Z</time>
		</trkpt>
		<trkpt lat="39.534107208252" lon="2.76780247688293">
			<ele>69.8000030517578</ele>
			<time>2014-01-02T14:44:00Z</time>
		</trkpt>
		<trkpt lat="39.5340385437012" lon="2.76783561706543">
			<ele>69.6999969482422</ele>
			<time>2014-01-02T14:44:02Z</time>
		</trkpt>
		<trkpt lat="39.5339622497559" lon="2.76785516738892">
			<ele>69.9000015258789</ele>
			<time>2014-01-02T14:44:04Z</time>
		</trkpt>
		<trkpt lat="39.5338897705078" lon="2.76786613464355">
			<ele>69.6999969482422</ele>
			<time>2014-01-02T14:44:06Z</time>
		</trkpt>
		<trkpt lat="39.533821105957" lon="2.76786255836487">
			<ele>69.8000030517578</ele>
			<time>2014-01-02T14:44:08Z</time>
		</trkpt>
		<trkpt lat="39.5337524414063" lon="2.76784825325012">
			<ele>69.8000030517578</ele>
			<time>2014-01-02T14:44:10Z</time>
		</trkpt>
		<trkpt lat="39.5336875915527" lon="2.76782274246216">
			<ele>69.5999984741211</ele>
			<time>2014-01-02T14:44:12Z</time>
		</trkpt>
		<trkpt lat="39.5336227416992" lon="2.76779270172119">
			<ele>69.1999969482422</ele>
			<time>2014-01-02T14:44:14Z</time>
		</trkpt>
		<trkpt lat="39.533561706543" lon="2.76774954795837">
			<ele>69.5</ele>
			<time>2014-01-02T14:44:16Z</time>
		</trkpt>
		<trkpt lat="39.5335006713867" lon="2.76770901679993">
			<ele>70.0999984741211</ele>
			<time>2014-01-02T14:44:18Z</time>
		</trkpt>
		<trkpt lat="39.5334396362305" lon="2.76766967773438">
			<ele>70.1999969482422</ele>
			<time>2014-01-02T14:44:19Z</time>
		</trkpt>
		<trkpt lat="39.533374786377" lon="2.76763391494751">
			<ele>70.5999984741211</ele>
			<time>2014-01-02T14:44:21Z</time>
		</trkpt>
		<trkpt lat="39.5333137512207" lon="2.76760172843933">
			<ele>70.6999969482422</ele>
			<time>2014-01-02T14:44:23Z</time>
		</trkpt>
		<trkpt lat="39.5332527160645" lon="2.76756477355957">
			<ele>70.5999984741211</ele>
			<time>2014-01-02T14:44:25Z</time>
		</trkpt>
		<trkpt lat="39.5331878662109" lon="2.76752591133118">
			<ele>70.1999969482422</ele>
			<time>2014-01-02T14:44:27Z</time>
		</trkpt>
		<trkpt lat="39.5331268310547" lon="2.76748943328857">
			<ele>70</ele>
			<time>2014-01-02T14:44:29Z</time>
		</trkpt>
		<trkpt lat="39.5330657958984" lon="2.76745104789734">
			<ele>69.8000030517578</ele>
			<time>2014-01-02T14:44:32Z</time>
		</trkpt>
		<trkpt lat="39.5330009460449" lon="2.76741218566895">
			<ele>69.5999984741211</ele>
			<time>2014-01-02T14:44:33Z</time>
		</trkpt>
		<trkpt lat="39.5329360961914" lon="2.76737713813782">
			<ele>69.5999984741211</ele>
			<time>2014-01-02T14:44:35Z</time>
		</trkpt>
		<trkpt lat="39.5328712463379" lon="2.76733803749084">
			<ele>69.5</ele>
			<time>2014-01-02T14:44:37Z</time>
		</trkpt>
		<trkpt lat="39.5328025817871" lon="2.7672975063324">
			<ele>69.5</ele>
			<time>2014-01-02T14:44:39Z</time>
		</trkpt>
		<trkpt lat="39.5327301025391" lon="2.76725935935974">
			<ele>69.8000030517578</ele>
			<time>2014-01-02T14:44:41Z</time>
		</trkpt>
		<trkpt lat="39.5326652526855" lon="2.76721978187561">
			<ele>70</ele>
			<time>2014-01-02T14:44:43Z</time>
		</trkpt>
		<trkpt lat="39.5325965881348" lon="2.76717972755432">
			<ele>70.0999984741211</ele>
			<time>2014-01-02T14:44:45Z</time>
		</trkpt>
		<trkpt lat="39.5325317382813" lon="2.76713800430298">
			<ele>70.3000030517578</ele>
			<time>2014-01-02T14:44:47Z</time>
		</trkpt>
		<trkpt lat="39.5324668884277" lon="2.7671012878418">
			<ele>70.3000030517578</ele>
			<time>2014-01-02T14:44:49Z</time>
		</trkpt>
		<trkpt lat="39.5324058532715" lon="2.76706552505493">
			<ele>70.4000015258789</ele>
			<time>2014-01-02T14:44:51Z</time>
		</trkpt>
		<trkpt lat="39.5323371887207" lon="2.76702570915222">
			<ele>70.1999969482422</ele>
			<time>2014-01-02T14:44:53Z</time>
		</trkpt>
		<trkpt lat="39.5322647094727" lon="2.76698994636536">
			<ele>70.3000030517578</ele>
			<time>2014-01-02T14:44:55Z</time>
		</trkpt>
		<trkpt lat="39.5322036743164" lon="2.76694917678833">
			<ele>70.3000030517578</ele>
			<time>2014-01-02T14:44:57Z</time>
		</trkpt>
		<trkpt lat="39.5321350097656" lon="2.76691770553589">
			<ele>70.4000015258789</ele>
			<time>2014-01-02T14:44:59Z</time>
		</trkpt>
		<trkpt lat="39.5320739746094" lon="2.76688385009766">
			<ele>70.5999984741211</ele>
			<time>2014-01-02T14:45:01Z</time>
		</trkpt>
		<trkpt lat="39.5320167541504" lon="2.76684546470642">
			<ele>70.6999969482422</ele>
			<time>2014-01-02T14:45:03Z</time>
		</trkpt>
		<trkpt lat="39.5319519042969" lon="2.76680970191956">
			<ele>70.4000015258789</ele>
			<time>2014-01-02T14:45:05Z</time>
		</trkpt>
		<trkpt lat="39.5318870544434" lon="2.76676964759827">
			<ele>70.1999969482422</ele>
			<time>2014-01-02T14:45:07Z</time>
		</trkpt>
		<trkpt lat="39.5318260192871" lon="2.76673340797424">
			<ele>70.0999984741211</ele>
			<time>2014-01-02T14:45:09Z</time>
		</trkpt>
		<trkpt lat="39.5317649841309" lon="2.76669669151306">
			<ele>70.5</ele>
			<time>2014-01-02T14:45:11Z</time>
		</trkpt>
		<trkpt lat="39.5317001342773" lon="2.76666116714478">
			<ele>70.6999969482422</ele>
			<time>2014-01-02T14:45:13Z</time>
		</trkpt>
		<trkpt lat="39.5316352844238" lon="2.76662468910217">
			<ele>70.5999984741211</ele>
			<time>2014-01-02T14:45:15Z</time>
		</trkpt>
		<trkpt lat="39.5315742492676" lon="2.76658701896667">
			<ele>70.6999969482422</ele>
			<time>2014-01-02T14:45:17Z</time>
		</trkpt>
		<trkpt lat="39.5315093994141" lon="2.76654744148254">
			<ele>70.5</ele>
			<time>2014-01-02T14:45:19Z</time>
		</trkpt>
		<trkpt lat="39.5314445495605" lon="2.7665114402771">
			<ele>70.5999984741211</ele>
			<time>2014-01-02T14:45:21Z</time>
		</trkpt>
		<trkpt lat="39.531379699707" lon="2.76647686958313">
			<ele>70.6999969482422</ele>
			<time>2014-01-02T14:45:23Z</time>
		</trkpt>
		<trkpt lat="39.5313262939453" lon="2.76644086837769">
			<ele>70.1999969482422</ele>
			<time>2014-01-02T14:45:25Z</time>
		</trkpt>
		<trkpt lat="39.5312614440918" lon="2.76640558242798">
			<ele>70.3000030517578</ele>
			<time>2014-01-02T14:45:27Z</time>
		</trkpt>
		<trkpt lat="39.5311965942383" lon="2.76636505126953">
			<ele>70.3000030517578</ele>
			<time>2014-01-02T14:45:29Z</time>
		</trkpt>
		<trkpt lat="39.5311279296875" lon="2.76633191108704">
			<ele>70.3000030517578</ele>
			<time>2014-01-02T14:45:31Z</time>
		</trkpt>
		<trkpt lat="39.5310592651367" lon="2.76629137992859">
			<ele>70.0999984741211</ele>
			<time>2014-01-02T14:45:33Z</time>
		</trkpt>
		<trkpt lat="39.5309944152832" lon="2.76625084877014">
			<ele>70.0999984741211</ele>
			<time>2014-01-02T14:45:35Z</time>
		</trkpt>
		<trkpt lat="39.5309257507324" lon="2.76621294021606">
			<ele>70.1999969482422</ele>
			<time>2014-01-02T14:45:37Z</time>
		</trkpt>
		<trkpt lat="39.5308570861816" lon="2.76617074012756">
			<ele>70.1999969482422</ele>
			<time>2014-01-02T14:45:39Z</time>
		</trkpt>
		<trkpt lat="39.5307922363281" lon="2.76612949371338">
			<ele>70.1999969482422</ele>
			<time>2014-01-02T14:45:41Z</time>
		</trkpt>
		<trkpt lat="39.5307235717773" lon="2.76608824729919">
			<ele>70.1999969482422</ele>
			<time>2014-01-02T14:45:43Z</time>
		</trkpt>
		<trkpt lat="39.5306625366211" lon="2.76605010032654">
			<ele>70.0999984741211</ele>
			<time>2014-01-02T14:45:45Z</time>
		</trkpt>
		<trkpt lat="39.5305938720703" lon="2.7660129070282">
			<ele>70</ele>
			<time>2014-01-02T14:45:47Z</time>
		</trkpt>
		<trkpt lat="39.5305290222168" lon="2.76597571372986">
			<ele>70</ele>
			<time>2014-01-02T14:45:49Z</time>
		</trkpt>
		<trkpt lat="39.530460357666" lon="2.76593494415283">
			<ele>69.9000015258789</ele>
			<time>2014-01-02T14:45:51Z</time>
		</trkpt>
		<trkpt lat="39.5303916931152" lon="2.76589441299438">
			<ele>69.8000030517578</ele>
			<time>2014-01-02T14:45:53Z</time>
		</trkpt>
		<trkpt lat="39.5303230285645" lon="2.76585388183594">
			<ele>69.5</ele>
			<time>2014-01-02T14:45:55Z</time>
		</trkpt>
		<trkpt lat="39.5302543640137" lon="2.76581239700317">
			<ele>69.5999984741211</ele>
			<time>2014-01-02T14:45:57Z</time>
		</trkpt>
		<trkpt lat="39.5301856994629" lon="2.76576995849609">
			<ele>69.6999969482422</ele>
			<time>2014-01-02T14:45:59Z</time>
		</trkpt>
		<trkpt lat="39.5301170349121" lon="2.76572871208191">
			<ele>69.5999984741211</ele>
			<time>2014-01-02T14:46:01Z</time>
		</trkpt>
		<trkpt lat="39.5300483703613" lon="2.7656877040863">
			<ele>69.5</ele>
			<time>2014-01-02T14:46:03Z</time>
		</trkpt>
		<trkpt lat="39.5299835205078" lon="2.76564621925354">
			<ele>69.8000030517578</ele>
			<time>2014-01-02T14:46:05Z</time>
		</trkpt>
		<trkpt lat="39.529914855957" lon="2.7656044960022">
			<ele>69.8000030517578</ele>
			<time>2014-01-02T14:46:07Z</time>
		</trkpt>
		<trkpt lat="39.5298461914063" lon="2.76556634902954">
			<ele>70.0999984741211</ele>
			<time>2014-01-02T14:46:09Z</time>
		</trkpt>
		<trkpt lat="39.5297775268555" lon="2.76552557945251">
			<ele>70.3000030517578</ele>
			<time>2014-01-02T14:46:11Z</time>
		</trkpt>
		<trkpt lat="39.529712677002" lon="2.76548862457275">
			<ele>70.5</ele>
			<time>2014-01-02T14:46:13Z</time>
		</trkpt>
		<trkpt lat="39.5296478271484" lon="2.76545310020447">
			<ele>70.5999984741211</ele>
			<time>2014-01-02T14:46:15Z</time>
		</trkpt>
		<trkpt lat="39.5295829772949" lon="2.76541495323181">
			<ele>70.4000015258789</ele>
			<time>2014-01-02T14:46:17Z</time>
		</trkpt>
		<trkpt lat="39.5295219421387" lon="2.76537466049194">
			<ele>70.5999984741211</ele>
			<time>2014-01-02T14:46:19Z</time>
		</trkpt>
		<trkpt lat="39.5294570922852" lon="2.76533246040344">
			<ele>70.5</ele>
			<time>2014-01-02T14:46:21Z</time>
		</trkpt>
		<trkpt lat="39.5293960571289" lon="2.76529264450073">
			<ele>70.4000015258789</ele>
			<time>2014-01-02T14:46:23Z</time>
		</trkpt>
		<trkpt lat="39.5293312072754" lon="2.76525187492371">
			<ele>70.3000030517578</ele>
			<time>2014-01-02T14:46:25Z</time>
		</trkpt>
		<trkpt lat="39.5292701721191" lon="2.76521253585815">
			<ele>70.3000030517578</ele>
			<time>2014-01-02T14:46:27Z</time>
		</trkpt>
		<trkpt lat="39.5292015075684" lon="2.76517534255981">
			<ele>70.3000030517578</ele>
			<time>2014-01-02T14:46:29Z</time>
		</trkpt>
		<trkpt lat="39.5291404724121" lon="2.76513981819153">
			<ele>70.1999969482422</ele>
			<time>2014-01-02T14:46:31Z</time>
		</trkpt>
		<trkpt lat="39.5290756225586" lon="2.76509881019592">
			<ele>69.9000015258789</ele>
			<time>2014-01-02T14:46:33Z</time>
		</trkpt>
		<trkpt lat="39.5290069580078" lon="2.76505827903748">
			<ele>69.9000015258789</ele>
			<time>2014-01-02T14:46:35Z</time>
		</trkpt>
		<trkpt lat="39.5289421081543" lon="2.76501703262329">
			<ele>69.6999969482422</ele>
			<time>2014-01-02T14:46:37Z</time>
		</trkpt>
		<trkpt lat="39.5288772583008" lon="2.7649781703949">
			<ele>69.5</ele>
			<time>2014-01-02T14:46:39Z</time>
		</trkpt>
		<trkpt lat="39.5288124084473" lon="2.76493716239929">
			<ele>69.0999984741211</ele>
			<time>2014-01-02T14:46:41Z</time>
		</trkpt>
		<trkpt lat="39.5287475585938" lon="2.76489639282227">
			<ele>68.8000030517578</ele>
			<time>2014-01-02T14:46:43Z</time>
		</trkpt>
		<trkpt lat="39.528678894043" lon="2.76485991477966">
			<ele>68.5</ele>
			<time>2014-01-02T14:46:45Z</time>
		</trkpt>
		<trkpt lat="39.5286140441895" lon="2.76481795310974">
			<ele>68.1999969482422</ele>
			<time>2014-01-02T14:46:47Z</time>
		</trkpt>
		<trkpt lat="39.5285491943359" lon="2.76477766036987">
			<ele>67.8000030517578</ele>
			<time>2014-01-02T14:46:49Z</time>
		</trkpt>
		<trkpt lat="39.5284843444824" lon="2.7647430896759">
			<ele>67.4000015258789</ele>
			<time>2014-01-02T14:46:51Z</time>
		</trkpt>
		<trkpt lat="39.5284156799316" lon="2.76470160484314">
			<ele>67.3000030517578</ele>
			<time>2014-01-02T14:46:53Z</time>
		</trkpt>
		<trkpt lat="39.5283508300781" lon="2.76466012001038">
			<ele>67.3000030517578</ele>
			<time>2014-01-02T14:46:55Z</time>
		</trkpt>
		<trkpt lat="39.5282859802246" lon="2.76462244987488">
			<ele>67</ele>
			<time>2014-01-02T14:46:57Z</time>
		</trkpt>
		<trkpt lat="39.5282173156738" lon="2.76458120346069">
			<ele>66.6999969482422</ele>
			<time>2014-01-02T14:46:59Z</time>
		</trkpt>
		<trkpt lat="39.528148651123" lon="2.76454257965088">
			<ele>66.6999969482422</ele>
			<time>2014-01-02T14:47:01Z</time>
		</trkpt>
		<trkpt lat="39.5280799865723" lon="2.76450395584106">
			<ele>66.5</ele>
			<time>2014-01-02T14:47:03Z</time>
		</trkpt>
		<trkpt lat="39.5280151367188" lon="2.76446461677551">
			<ele>66.3000030517578</ele>
			<time>2014-01-02T14:47:05Z</time>
		</trkpt>
		<trkpt lat="39.5279502868652" lon="2.7644248008728">
			<ele>66.1999969482422</ele>
			<time>2014-01-02T14:47:07Z</time>
		</trkpt>
		<trkpt lat="39.5278854370117" lon="2.76438164710999">
			<ele>66.1999969482422</ele>
			<time>2014-01-02T14:47:09Z</time>
		</trkpt>
		<trkpt lat="39.5278205871582" lon="2.76434564590454">
			<ele>66.3000030517578</ele>
			<time>2014-01-02T14:47:11Z</time>
		</trkpt>
		<trkpt lat="39.5277557373047" lon="2.76430535316467">
			<ele>66.0999984741211</ele>
			<time>2014-01-02T14:47:13Z</time>
		</trkpt>
		<trkpt lat="39.5276908874512" lon="2.76426839828491">
			<ele>66</ele>
			<time>2014-01-02T14:47:15Z</time>
		</trkpt>
		<trkpt lat="39.5276260375977" lon="2.76423001289368">
			<ele>66</ele>
			<time>2014-01-02T14:47:17Z</time>
		</trkpt>
		<trkpt lat="39.5275611877441" lon="2.76419138908386">
			<ele>65.9000015258789</ele>
			<time>2014-01-02T14:47:19Z</time>
		</trkpt>
		<trkpt lat="39.5274963378906" lon="2.76415467262268">
			<ele>66.0999984741211</ele>
			<time>2014-01-02T14:47:21Z</time>
		</trkpt>
		<trkpt lat="39.5274314880371" lon="2.76411914825439">
			<ele>65.9000015258789</ele>
			<time>2014-01-02T14:47:23Z</time>
		</trkpt>
		<trkpt lat="39.5273666381836" lon="2.76408290863037">
			<ele>65.5999984741211</ele>
			<time>2014-01-02T14:47:25Z</time>
		</trkpt>
		<trkpt lat="39.5273017883301" lon="2.76404571533203">
			<ele>65.5</ele>
			<time>2014-01-02T14:47:27Z</time>
		</trkpt>
		<trkpt lat="39.5272331237793" lon="2.76401305198669">
			<ele>65.4000015258789</ele>
			<time>2014-01-02T14:47:29Z</time>
		</trkpt>
		<trkpt lat="39.5271682739258" lon="2.76398944854736">
			<ele>65.4000015258789</ele>
			<time>2014-01-02T14:47:31Z</time>
		</trkpt>
		<trkpt lat="39.5271034240723" lon="2.76396703720093">
			<ele>65.5</ele>
			<time>2014-01-02T14:47:33Z</time>
		</trkpt>
		<trkpt lat="39.5270385742188" lon="2.76394033432007">
			<ele>65.6999969482422</ele>
			<time>2014-01-02T14:47:35Z</time>
		</trkpt>
		<trkpt lat="39.5269737243652" lon="2.76391768455505">
			<ele>65.9000015258789</ele>
			<time>2014-01-02T14:47:37Z</time>
		</trkpt>
		<trkpt lat="39.5269088745117" lon="2.76389741897583">
			<ele>65.8000030517578</ele>
			<time>2014-01-02T14:47:39Z</time>
		</trkpt>
		<trkpt lat="39.5268478393555" lon="2.76387548446655">
			<ele>65.9000015258789</ele>
			<time>2014-01-02T14:47:41Z</time>
		</trkpt>
		<trkpt lat="39.5267868041992" lon="2.76385593414307">
			<ele>65.9000015258789</ele>
			<time>2014-01-02T14:47:43Z</time>
		</trkpt>
		<trkpt lat="39.526725769043" lon="2.76383590698242">
			<ele>66.0999984741211</ele>
			<time>2014-01-02T14:47:45Z</time>
		</trkpt>
		<trkpt lat="39.5266647338867" lon="2.76381421089172">
			<ele>66.0999984741211</ele>
			<time>2014-01-02T14:47:47Z</time>
		</trkpt>
		<trkpt lat="39.5265998840332" lon="2.76379323005676">
			<ele>66.1999969482422</ele>
			<time>2014-01-02T14:47:49Z</time>
		</trkpt>
		<trkpt lat="39.526538848877" lon="2.76377034187317">
			<ele>66.1999969482422</ele>
			<time>2014-01-02T14:47:51Z</time>
		</trkpt>
		<trkpt lat="39.5264701843262" lon="2.76374959945679">
			<ele>65.4000015258789</ele>
			<time>2014-01-02T14:47:53Z</time>
		</trkpt>
		<trkpt lat="39.5264015197754" lon="2.76372766494751">
			<ele>65.8000030517578</ele>
			<time>2014-01-02T14:47:55Z</time>
		</trkpt>
		<trkpt lat="39.5263366699219" lon="2.76370406150818">
			<ele>65.6999969482422</ele>
			<time>2014-01-02T14:47:57Z</time>
		</trkpt>
		<trkpt lat="39.5262641906738" lon="2.76368451118469">
			<ele>65.5999984741211</ele>
			<time>2014-01-02T14:47:59Z</time>
		</trkpt>
		<trkpt lat="39.526195526123" lon="2.76366686820984">
			<ele>65.3000030517578</ele>
			<time>2014-01-02T14:48:01Z</time>
		</trkpt>
		<trkpt lat="39.5261268615723" lon="2.76364183425903">
			<ele>65.0999984741211</ele>
			<time>2014-01-02T14:48:03Z</time>
		</trkpt>
		<trkpt lat="39.5260581970215" lon="2.7636182308197">
			<ele>65</ele>
			<time>2014-01-02T14:48:05Z</time>
		</trkpt>
		<trkpt lat="39.5259895324707" lon="2.76359701156616">
			<ele>64.5999984741211</ele>
			<time>2014-01-02T14:48:07Z</time>
		</trkpt>
		<trkpt lat="39.5259208679199" lon="2.76357340812683">
			<ele>64.5999984741211</ele>
			<time>2014-01-02T14:48:09Z</time>
		</trkpt>
		<trkpt lat="39.5258483886719" lon="2.76355195045471">
			<ele>64.4000015258789</ele>
			<time>2014-01-02T14:48:11Z</time>
		</trkpt>
		<trkpt lat="39.5257759094238" lon="2.76352882385254">
			<ele>64.0999984741211</ele>
			<time>2014-01-02T14:48:13Z</time>
		</trkpt>
		<trkpt lat="39.525707244873" lon="2.76350426673889">
			<ele>64.0999984741211</ele>
			<time>2014-01-02T14:48:15Z</time>
		</trkpt>
		<trkpt lat="39.5256385803223" lon="2.76347875595093">
			<ele>63.7999992370605</ele>
			<time>2014-01-02T14:48:17Z</time>
		</trkpt>
		<trkpt lat="39.5255699157715" lon="2.76345753669739">
			<ele>63.9000015258789</ele>
			<time>2014-01-02T14:48:19Z</time>
		</trkpt>
		<trkpt lat="39.5255012512207" lon="2.76343536376953">
			<ele>63.9000015258789</ele>
			<time>2014-01-02T14:48:21Z</time>
		</trkpt>
		<trkpt lat="39.5254287719727" lon="2.76341533660889">
			<ele>63.7999992370605</ele>
			<time>2014-01-02T14:48:23Z</time>
		</trkpt>
		<trkpt lat="39.5253601074219" lon="2.76339054107666">
			<ele>63.7000007629395</ele>
			<time>2014-01-02T14:48:25Z</time>
		</trkpt>
		<trkpt lat="39.5252914428711" lon="2.76336932182312">
			<ele>63.7999992370605</ele>
			<time>2014-01-02T14:48:27Z</time>
		</trkpt>
		<trkpt lat="39.5252227783203" lon="2.76334428787231">
			<ele>64.0999984741211</ele>
			<time>2014-01-02T14:48:29Z</time>
		</trkpt>
		<trkpt lat="39.5251541137695" lon="2.7633204460144">
			<ele>64</ele>
			<time>2014-01-02T14:48:31Z</time>
		</trkpt>
		<trkpt lat="39.5250854492188" lon="2.76329708099365">
			<ele>64.1999969482422</ele>
			<time>2014-01-02T14:48:33Z</time>
		</trkpt>
		<trkpt lat="39.525016784668" lon="2.76327276229858">
			<ele>64.3000030517578</ele>
			<time>2014-01-02T14:48:35Z</time>
		</trkpt>
		<trkpt lat="39.5249519348145" lon="2.76324772834778">
			<ele>64.1999969482422</ele>
			<time>2014-01-02T14:48:37Z</time>
		</trkpt>
		<trkpt lat="39.5248794555664" lon="2.7632257938385">
			<ele>64.5</ele>
			<time>2014-01-02T14:48:39Z</time>
		</trkpt>
		<trkpt lat="39.5248069763184" lon="2.76320505142212">
			<ele>64.5999984741211</ele>
			<time>2014-01-02T14:48:41Z</time>
		</trkpt>
		<trkpt lat="39.5247383117676" lon="2.76318216323853">
			<ele>64.5999984741211</ele>
			<time>2014-01-02T14:48:43Z</time>
		</trkpt>
		<trkpt lat="39.5246696472168" lon="2.7631573677063">
			<ele>64.5</ele>
			<time>2014-01-02T14:48:45Z</time>
		</trkpt>
		<trkpt lat="39.524600982666" lon="2.76313257217407">
			<ele>64.1999969482422</ele>
			<time>2014-01-02T14:48:47Z</time>
		</trkpt>
		<trkpt lat="39.5245323181152" lon="2.76311254501343">
			<ele>64.3000030517578</ele>
			<time>2014-01-02T14:48:49Z</time>
		</trkpt>
		<trkpt lat="39.5244636535645" lon="2.76308846473694">
			<ele>64.3000030517578</ele>
			<time>2014-01-02T14:48:51Z</time>
		</trkpt>
		<trkpt lat="39.5243949890137" lon="2.7630660533905">
			<ele>64.3000030517578</ele>
			<time>2014-01-02T14:48:53Z</time>
		</trkpt>
		<trkpt lat="39.5243263244629" lon="2.76304364204407">
			<ele>64.1999969482422</ele>
			<time>2014-01-02T14:48:55Z</time>
		</trkpt>
		<trkpt lat="39.5242614746094" lon="2.763019323349">
			<ele>64</ele>
			<time>2014-01-02T14:48:57Z</time>
		</trkpt>
		<trkpt lat="39.5241966247559" lon="2.76299333572388">
			<ele>64</ele>
			<time>2014-01-02T14:48:59Z</time>
		</trkpt>
		<trkpt lat="39.5241317749023" lon="2.76297354698181">
			<ele>63.7999992370605</ele>
			<time>2014-01-02T14:49:01Z</time>
		</trkpt>
		<trkpt lat="39.5240631103516" lon="2.76295375823975">
			<ele>63.7999992370605</ele>
			<time>2014-01-02T14:49:03Z</time>
		</trkpt>
		<trkpt lat="39.5239944458008" lon="2.76293420791626">
			<ele>63.9000015258789</ele>
			<time>2014-01-02T14:49:05Z</time>
		</trkpt>
		<trkpt lat="39.52392578125" lon="2.76291251182556">
			<ele>63.5</ele>
			<time>2014-01-02T14:49:07Z</time>
		</trkpt>
		<trkpt lat="39.523853302002" lon="2.76288890838623">
			<ele>63.5</ele>
			<time>2014-01-02T14:49:09Z</time>
		</trkpt>
		<trkpt lat="39.5237770080566" lon="2.76286482810974">
			<ele>63.2999992370605</ele>
			<time>2014-01-02T14:49:11Z</time>
		</trkpt>
		<trkpt lat="39.5237007141113" lon="2.76284050941467">
			<ele>63.4000015258789</ele>
			<time>2014-01-02T14:49:13Z</time>
		</trkpt>
		<trkpt lat="39.5236206054688" lon="2.7628185749054">
			<ele>63.7000007629395</ele>
			<time>2014-01-02T14:49:15Z</time>
		</trkpt>
		<trkpt lat="39.5235443115234" lon="2.76279330253601">
			<ele>63.7000007629395</ele>
			<time>2014-01-02T14:49:17Z</time>
		</trkpt>
		<trkpt lat="39.5234642028809" lon="2.76276588439941">
			<ele>63.7000007629395</ele>
			<time>2014-01-02T14:49:19Z</time>
		</trkpt>
		<trkpt lat="39.5233840942383" lon="2.76273560523987">
			<ele>63.5999984741211</ele>
			<time>2014-01-02T14:49:21Z</time>
		</trkpt>
		<trkpt lat="39.523307800293" lon="2.76270580291748">
			<ele>63.5999984741211</ele>
			<time>2014-01-02T14:49:23Z</time>
		</trkpt>
		<trkpt lat="39.5232276916504" lon="2.76268076896667">
			<ele>63.5</ele>
			<time>2014-01-02T14:49:25Z</time>
		</trkpt>
		<trkpt lat="39.5231475830078" lon="2.76265835762024">
			<ele>63.5</ele>
			<time>2014-01-02T14:49:27Z</time>
		</trkpt>
		<trkpt lat="39.5230712890625" lon="2.76263284683228">
			<ele>63.2999992370605</ele>
			<time>2014-01-02T14:49:29Z</time>
		</trkpt>
		<trkpt lat="39.5229949951172" lon="2.76260757446289">
			<ele>63.2999992370605</ele>
			<time>2014-01-02T14:49:31Z</time>
		</trkpt>
		<trkpt lat="39.5229225158691" lon="2.76258659362793">
			<ele>63.2000007629395</ele>
			<time>2014-01-02T14:49:33Z</time>
		</trkpt>
		<trkpt lat="39.5228538513184" lon="2.76256060600281">
			<ele>63</ele>
			<time>2014-01-02T14:49:35Z</time>
		</trkpt>
		<trkpt lat="39.5227813720703" lon="2.76253724098206">
			<ele>62.9000015258789</ele>
			<time>2014-01-02T14:49:37Z</time>
		</trkpt>
		<trkpt lat="39.5227127075195" lon="2.76251029968262">
			<ele>63</ele>
			<time>2014-01-02T14:49:39Z</time>
		</trkpt>
		<trkpt lat="39.5226402282715" lon="2.7624876499176">
			<ele>63</ele>
			<time>2014-01-02T14:49:41Z</time>
		</trkpt>
		<trkpt lat="39.522575378418" lon="2.76246643066406">
			<ele>62.9000015258789</ele>
			<time>2014-01-02T14:49:43Z</time>
		</trkpt>
		<trkpt lat="39.5225105285645" lon="2.76244640350342">
			<ele>63</ele>
			<time>2014-01-02T14:49:45Z</time>
		</trkpt>
		<trkpt lat="39.5224456787109" lon="2.76242637634277">
			<ele>62.7000007629395</ele>
			<time>2014-01-02T14:49:47Z</time>
		</trkpt>
		<trkpt lat="39.5223808288574" lon="2.76240611076355">
			<ele>62.5999984741211</ele>
			<time>2014-01-02T14:49:49Z</time>
		</trkpt>
		<trkpt lat="39.5223159790039" lon="2.7623872756958">
			<ele>62.5</ele>
			<time>2014-01-02T14:49:51Z</time>
		</trkpt>
		<trkpt lat="39.5222511291504" lon="2.76236653327942">
			<ele>62.5</ele>
			<time>2014-01-02T14:49:53Z</time>
		</trkpt>
		<trkpt lat="39.5221862792969" lon="2.76234149932861">
			<ele>62.5999984741211</ele>
			<time>2014-01-02T14:49:55Z</time>
		</trkpt>
		<trkpt lat="39.5221176147461" lon="2.76231861114502">
			<ele>62.5999984741211</ele>
			<time>2014-01-02T14:49:57Z</time>
		</trkpt>
		<trkpt lat="39.5220527648926" lon="2.76229786872864">
			<ele>62.5</ele>
			<time>2014-01-02T14:49:59Z</time>
		</trkpt>
		<trkpt lat="39.5219841003418" lon="2.7622766494751">
			<ele>62.4000015258789</ele>
			<time>2014-01-02T14:50:01Z</time>
		</trkpt>
		<trkpt lat="39.521915435791" lon="2.7622537612915">
			<ele>62.5</ele>
			<time>2014-01-02T14:50:03Z</time>
		</trkpt>
		<trkpt lat="39.5218505859375" lon="2.76222944259644">
			<ele>62.5</ele>
			<time>2014-01-02T14:50:05Z</time>
		</trkpt>
		<trkpt lat="39.5217819213867" lon="2.76221084594727">
			<ele>62.5</ele>
			<time>2014-01-02T14:50:07Z</time>
		</trkpt>
		<trkpt lat="39.5217132568359" lon="2.76218914985657">
			<ele>62.4000015258789</ele>
			<time>2014-01-02T14:50:09Z</time>
		</trkpt>
		<trkpt lat="39.5216407775879" lon="2.76216721534729">
			<ele>62.5999984741211</ele>
			<time>2014-01-02T14:50:11Z</time>
		</trkpt>
		<trkpt lat="39.5215721130371" lon="2.76214623451233">
			<ele>62.7000007629395</ele>
			<time>2014-01-02T14:50:13Z</time>
		</trkpt>
		<trkpt lat="39.5215034484863" lon="2.762122631073">
			<ele>62.7999992370605</ele>
			<time>2014-01-02T14:50:15Z</time>
		</trkpt>
		<trkpt lat="39.5214347839355" lon="2.76209807395935">
			<ele>63</ele>
			<time>2014-01-02T14:50:17Z</time>
		</trkpt>
		<trkpt lat="39.5213623046875" lon="2.76207661628723">
			<ele>63.2000007629395</ele>
			<time>2014-01-02T14:50:19Z</time>
		</trkpt>
		<trkpt lat="39.5212936401367" lon="2.7620542049408">
			<ele>63.2999992370605</ele>
			<time>2014-01-02T14:50:21Z</time>
		</trkpt>
		<trkpt lat="39.5212249755859" lon="2.76203107833862">
			<ele>63.2000007629395</ele>
			<time>2014-01-02T14:50:23Z</time>
		</trkpt>
		<trkpt lat="39.5211563110352" lon="2.76201128959656">
			<ele>63.2000007629395</ele>
			<time>2014-01-02T14:50:25Z</time>
		</trkpt>
		<trkpt lat="39.5210914611816" lon="2.76198625564575">
			<ele>63.0999984741211</ele>
			<time>2014-01-02T14:50:27Z</time>
		</trkpt>
		<trkpt lat="39.5210227966309" lon="2.76196336746216">
			<ele>63.5</ele>
			<time>2014-01-02T14:50:29Z</time>
		</trkpt>
		<trkpt lat="39.5209579467773" lon="2.76194047927856">
			<ele>63.5999984741211</ele>
			<time>2014-01-02T14:50:31Z</time>
		</trkpt>
		<trkpt lat="39.5208930969238" lon="2.76191425323486">
			<ele>63.7999992370605</ele>
			<time>2014-01-02T14:50:33Z</time>
		</trkpt>
		<trkpt lat="39.5208282470703" lon="2.76189517974854">
			<ele>63.9000015258789</ele>
			<time>2014-01-02T14:50:35Z</time>
		</trkpt>
		<trkpt lat="39.5207633972168" lon="2.76187491416931">
			<ele>64.0999984741211</ele>
			<time>2014-01-02T14:50:37Z</time>
		</trkpt>
		<trkpt lat="39.5207023620605" lon="2.76185417175293">
			<ele>64.0999984741211</ele>
			<time>2014-01-02T14:50:39Z</time>
		</trkpt>
		<trkpt lat="39.520637512207" lon="2.76184153556824">
			<ele>64.3000030517578</ele>
			<time>2014-01-02T14:50:41Z</time>
		</trkpt>
		<trkpt lat="39.5205841064453" lon="2.76182460784912">
			<ele>64.5999984741211</ele>
			<time>2014-01-02T14:50:43Z</time>
		</trkpt>
		<trkpt lat="39.5205268859863" lon="2.76180505752563">
			<ele>64.5999984741211</ele>
			<time>2014-01-02T14:50:45Z</time>
		</trkpt>
		<trkpt lat="39.5204734802246" lon="2.76178956031799">
			<ele>64.4000015258789</ele>
			<time>2014-01-02T14:50:47Z</time>
		</trkpt>
		<trkpt lat="39.5204200744629" lon="2.76176905632019">
			<ele>64.6999969482422</ele>
			<time>2014-01-02T14:50:49Z</time>
		</trkpt>
		<trkpt lat="39.5203628540039" lon="2.76175236701965">
			<ele>64.6999969482422</ele>
			<time>2014-01-02T14:50:51Z</time>
		</trkpt>
		<trkpt lat="39.5203094482422" lon="2.76173329353333">
			<ele>65</ele>
			<time>2014-01-02T14:50:53Z</time>
		</trkpt>
		<trkpt lat="39.5202560424805" lon="2.76171469688416">
			<ele>65.4000015258789</ele>
			<time>2014-01-02T14:50:55Z</time>
		</trkpt>
		<trkpt lat="39.5202026367188" lon="2.76169109344482">
			<ele>65.4000015258789</ele>
			<time>2014-01-02T14:50:57Z</time>
		</trkpt>
		<trkpt lat="39.520149230957" lon="2.7616708278656">
			<ele>65.8000030517578</ele>
			<time>2014-01-02T14:50:59Z</time>
		</trkpt>
		<trkpt lat="39.5200958251953" lon="2.76165223121643">
			<ele>65.9000015258789</ele>
			<time>2014-01-02T14:51:01Z</time>
		</trkpt>
		<trkpt lat="39.5200424194336" lon="2.76163220405579">
			<ele>66.6999969482422</ele>
			<time>2014-01-02T14:51:03Z</time>
		</trkpt>
		<trkpt lat="39.5199851989746" lon="2.76161003112793">
			<ele>66.9000015258789</ele>
			<time>2014-01-02T14:51:05Z</time>
		</trkpt>
		<trkpt lat="39.5199317932129" lon="2.76159310340881">
			<ele>67.1999969482422</ele>
			<time>2014-01-02T14:51:07Z</time>
		</trkpt>
		<trkpt lat="39.5198783874512" lon="2.76157236099243">
			<ele>67.6999969482422</ele>
			<time>2014-01-02T14:51:09Z</time>
		</trkpt>
		<trkpt lat="39.5198249816895" lon="2.76155042648315">
			<ele>67.5999984741211</ele>
			<time>2014-01-02T14:51:11Z</time>
		</trkpt>
		<trkpt lat="39.5197677612305" lon="2.76152682304382">
			<ele>67.5999984741211</ele>
			<time>2014-01-02T14:51:13Z</time>
		</trkpt>
		<trkpt lat="39.5197143554688" lon="2.7615008354187">
			<ele>67.5</ele>
			<time>2014-01-02T14:51:15Z</time>
		</trkpt>
		<trkpt lat="39.519660949707" lon="2.76147103309631">
			<ele>67.5999984741211</ele>
			<time>2014-01-02T14:51:17Z</time>
		</trkpt>
		<trkpt lat="39.5196113586426" lon="2.76143789291382">
			<ele>67.5</ele>
			<time>2014-01-02T14:51:19Z</time>
		</trkpt>
		<trkpt lat="39.5195693969727" lon="2.76137137413025">
			<ele>68</ele>
			<time>2014-01-02T14:51:21Z</time>
		</trkpt>
		<trkpt lat="39.5195388793945" lon="2.7613000869751">
			<ele>68.1999969482422</ele>
			<time>2014-01-02T14:51:23Z</time>
		</trkpt>
		<trkpt lat="39.5195007324219" lon="2.76123690605164">
			<ele>67.9000015258789</ele>
			<time>2014-01-02T14:51:25Z</time>
		</trkpt>
		<trkpt lat="39.5194549560547" lon="2.76118993759155">
			<ele>67.8000030517578</ele>
			<time>2014-01-02T14:51:27Z</time>
		</trkpt>
		<trkpt lat="39.519401550293" lon="2.76116347312927">
			<ele>67.9000015258789</ele>
			<time>2014-01-02T14:51:29Z</time>
		</trkpt>
		<trkpt lat="39.5193481445313" lon="2.76115655899048">
			<ele>68</ele>
			<time>2014-01-02T14:51:31Z</time>
		</trkpt>
		<trkpt lat="39.5192909240723" lon="2.76116704940796">
			<ele>68.0999984741211</ele>
			<time>2014-01-02T14:51:33Z</time>
		</trkpt>
		<trkpt lat="39.5192337036133" lon="2.76119470596313">
			<ele>68.5</ele>
			<time>2014-01-02T14:51:35Z</time>
		</trkpt>
		<trkpt lat="39.519172668457" lon="2.76121115684509">
			<ele>68.8000030517578</ele>
			<time>2014-01-02T14:51:37Z</time>
		</trkpt>
		<trkpt lat="39.5191192626953" lon="2.76119899749756">
			<ele>68.9000015258789</ele>
			<time>2014-01-02T14:51:39Z</time>
		</trkpt>
		<trkpt lat="39.5190658569336" lon="2.76118159294128">
			<ele>68.6999969482422</ele>
			<time>2014-01-02T14:51:41Z</time>
		</trkpt>
		<trkpt lat="39.5190124511719" lon="2.76115441322327">
			<ele>68.8000030517578</ele>
			<time>2014-01-02T14:51:43Z</time>
		</trkpt>
		<trkpt lat="39.5189590454102" lon="2.76113176345825">
			<ele>68.5999984741211</ele>
			<time>2014-01-02T14:51:45Z</time>
		</trkpt>
		<trkpt lat="39.5189056396484" lon="2.76110768318176">
			<ele>68.4000015258789</ele>
			<time>2014-01-02T14:51:47Z</time>
		</trkpt>
		<trkpt lat="39.5188522338867" lon="2.76108241081238">
			<ele>68.1999969482422</ele>
			<time>2014-01-02T14:51:49Z</time>
		</trkpt>
		<trkpt lat="39.518798828125" lon="2.76105165481567">
			<ele>68.1999969482422</ele>
			<time>2014-01-02T14:51:51Z</time>
		</trkpt>
		<trkpt lat="39.5187377929688" lon="2.76102423667908">
			<ele>68.1999969482422</ele>
			<time>2014-01-02T14:51:53Z</time>
		</trkpt>
		<trkpt lat="39.5186805725098" lon="2.76099300384521">
			<ele>68.1999969482422</ele>
			<time>2014-01-02T14:51:55Z</time>
		</trkpt>
		<trkpt lat="39.5186233520508" lon="2.76096749305725">
			<ele>68.0999984741211</ele>
			<time>2014-01-02T14:51:57Z</time>
		</trkpt>
		<trkpt lat="39.5185661315918" lon="2.76093649864197">
			<ele>68.1999969482422</ele>
			<time>2014-01-02T14:51:59Z</time>
		</trkpt>
		<trkpt lat="39.5185089111328" lon="2.76090288162231">
			<ele>68.0999984741211</ele>
			<time>2014-01-02T14:52:01Z</time>
		</trkpt>
		<trkpt lat="39.518440246582" lon="2.76086664199829">
			<ele>68.1999969482422</ele>
			<time>2014-01-02T14:52:03Z</time>
		</trkpt>
		<trkpt lat="39.5183715820313" lon="2.76083183288574">
			<ele>68.0999984741211</ele>
			<time>2014-01-02T14:52:05Z</time>
		</trkpt>
		<trkpt lat="39.5182952880859" lon="2.76079845428467">
			<ele>68.0999984741211</ele>
			<time>2014-01-02T14:52:07Z</time>
		</trkpt>
		<trkpt lat="39.5182189941406" lon="2.76075839996338">
			<ele>67.6999969482422</ele>
			<time>2014-01-02T14:52:09Z</time>
		</trkpt>
		<trkpt lat="39.5181350708008" lon="2.76072144508362">
			<ele>67.3000030517578</ele>
			<time>2014-01-02T14:52:11Z</time>
		</trkpt>
		<trkpt lat="39.5180931091309" lon="2.76069569587708">
			<ele>67.0999984741211</ele>
			<time>2014-01-02T14:52:12Z</time>
		</trkpt>
		<trkpt lat="39.5180130004883" lon="2.76064705848694">
			<ele>66.8000030517578</ele>
			<time>2014-01-02T14:52:14Z</time>
		</trkpt>
		<trkpt lat="39.5179443359375" lon="2.76058721542358">
			<ele>66.6999969482422</ele>
			<time>2014-01-02T14:52:16Z</time>
		</trkpt>
		<trkpt lat="39.5179100036621" lon="2.76048016548157">
			<ele>66.6999969482422</ele>
			<time>2014-01-02T14:52:18Z</time>
		</trkpt>
		<trkpt lat="39.5178871154785" lon="2.76042222976685">
			<ele>66.6999969482422</ele>
			<time>2014-01-02T14:52:19Z</time>
		</trkpt>
		<trkpt lat="39.5178565979004" lon="2.76036787033081">
			<ele>66.8000030517578</ele>
			<time>2014-01-02T14:52:20Z</time>
		</trkpt>
		<trkpt lat="39.5178031921387" lon="2.76032876968384">
			<ele>66.5999984741211</ele>
			<time>2014-01-02T14:52:21Z</time>
		</trkpt>
		<trkpt lat="39.517749786377" lon="2.76030850410461">
			<ele>66.4000015258789</ele>
			<time>2014-01-02T14:52:22Z</time>
		</trkpt>
		<trkpt lat="39.517692565918" lon="2.76029205322266">
			<ele>66.4000015258789</ele>
			<time>2014-01-02T14:52:23Z</time>
		</trkpt>
		<trkpt lat="39.517635345459" lon="2.76031279563904">
			<ele>66.3000030517578</ele>
			<time>2014-01-02T14:52:24Z</time>
		</trkpt>
		<trkpt lat="39.517578125" lon="2.76031994819641">
			<ele>66.3000030517578</ele>
			<time>2014-01-02T14:52:25Z</time>
		</trkpt>
		<trkpt lat="39.5175094604492" lon="2.76032996177673">
			<ele>66.3000030517578</ele>
			<time>2014-01-02T14:52:26Z</time>
		</trkpt>
		<trkpt lat="39.517448425293" lon="2.760329246521">
			<ele>66.1999969482422</ele>
			<time>2014-01-02T14:52:27Z</time>
		</trkpt>
		<trkpt lat="39.517391204834" lon="2.76032090187073">
			<ele>65.9000015258789</ele>
			<time>2014-01-02T14:52:28Z</time>
		</trkpt>
		<trkpt lat="39.5173301696777" lon="2.76030588150024">
			<ele>66</ele>
			<time>2014-01-02T14:52:29Z</time>
		</trkpt>
		<trkpt lat="39.5172729492188" lon="2.7602813243866">
			<ele>66</ele>
			<time>2014-01-02T14:52:30Z</time>
		</trkpt>
		<trkpt lat="39.517219543457" lon="2.76025652885437">
			<ele>66</ele>
			<time>2014-01-02T14:52:31Z</time>
		</trkpt>
		<trkpt lat="39.517162322998" lon="2.76022958755493">
			<ele>66.1999969482422</ele>
			<time>2014-01-02T14:52:32Z</time>
		</trkpt>
		<trkpt lat="39.5171127319336" lon="2.76020359992981">
			<ele>66.1999969482422</ele>
			<time>2014-01-02T14:52:33Z</time>
		</trkpt>
		<trkpt lat="39.5170593261719" lon="2.76018261909485">
			<ele>66.3000030517578</ele>
			<time>2014-01-02T14:52:34Z</time>
		</trkpt>
		<trkpt lat="39.5170135498047" lon="2.76015901565552">
			<ele>66.5999984741211</ele>
			<time>2014-01-02T14:52:35Z</time>
		</trkpt>
		<trkpt lat="39.5169639587402" lon="2.76013803482056">
			<ele>66.5999984741211</ele>
			<time>2014-01-02T14:52:36Z</time>
		</trkpt>
		<trkpt lat="39.5169143676758" lon="2.76011204719543">
			<ele>66.4000015258789</ele>
			<time>2014-01-02T14:52:37Z</time>
		</trkpt>
		<trkpt lat="39.5168685913086" lon="2.76008796691895">
			<ele>66.3000030517578</ele>
			<time>2014-01-02T14:52:38Z</time>
		</trkpt>
		<trkpt lat="39.5168228149414" lon="2.76006460189819">
			<ele>66.5</ele>
			<time>2014-01-02T14:52:39Z</time>
		</trkpt>
		<trkpt lat="39.5167770385742" lon="2.7600417137146">
			<ele>66.1999969482422</ele>
			<time>2014-01-02T14:52:40Z</time>
		</trkpt>
		<trkpt lat="39.516731262207" lon="2.76002264022827">
			<ele>66.1999969482422</ele>
			<time>2014-01-02T14:52:41Z</time>
		</trkpt>
		<trkpt lat="39.5166854858398" lon="2.7599983215332">
			<ele>66.3000030517578</ele>
			<time>2014-01-02T14:52:42Z</time>
		</trkpt>
		<trkpt lat="39.5166435241699" lon="2.75997495651245">
			<ele>66.3000030517578</ele>
			<time>2014-01-02T14:52:43Z</time>
		</trkpt>
		<trkpt lat="39.5165977478027" lon="2.75995063781738">
			<ele>66.3000030517578</ele>
			<time>2014-01-02T14:52:44Z</time>
		</trkpt>
		<trkpt lat="39.5165557861328" lon="2.75992584228516">
			<ele>66.0999984741211</ele>
			<time>2014-01-02T14:52:45Z</time>
		</trkpt>
		<trkpt lat="39.5165138244629" lon="2.75990748405457">
			<ele>66</ele>
			<time>2014-01-02T14:52:46Z</time>
		</trkpt>
		<trkpt lat="39.516429901123" lon="2.75986886024475">
			<ele>66</ele>
			<time>2014-01-02T14:52:48Z</time>
		</trkpt>
		<trkpt lat="39.5163497924805" lon="2.75982761383057">
			<ele>65.9000015258789</ele>
			<time>2014-01-02T14:52:50Z</time>
		</trkpt>
		<trkpt lat="39.5163040161133" lon="2.75980758666992">
			<ele>65.8000030517578</ele>
			<time>2014-01-02T14:52:51Z</time>
		</trkpt>
		<trkpt lat="39.5162239074707" lon="2.75976610183716">
			<ele>65.8000030517578</ele>
			<time>2014-01-02T14:52:53Z</time>
		</trkpt>
		<trkpt lat="39.5161781311035" lon="2.75974798202515">
			<ele>65.5</ele>
			<time>2014-01-02T14:52:54Z</time>
		</trkpt>
		<trkpt lat="39.5160942077637" lon="2.75971293449402">
			<ele>65.5</ele>
			<time>2014-01-02T14:52:56Z</time>
		</trkpt>
		<trkpt lat="39.5160140991211" lon="2.75967240333557">
			<ele>65.6999969482422</ele>
			<time>2014-01-02T14:52:58Z</time>
		</trkpt>
		<trkpt lat="39.5159301757813" lon="2.75963473320007">
			<ele>65.8000030517578</ele>
			<time>2014-01-02T14:53:00Z</time>
		</trkpt>
		<trkpt lat="39.5158500671387" lon="2.75959300994873">
			<ele>66.0999984741211</ele>
			<time>2014-01-02T14:53:02Z</time>
		</trkpt>
		<trkpt lat="39.5157699584961" lon="2.75954985618591">
			<ele>66</ele>
			<time>2014-01-02T14:53:04Z</time>
		</trkpt>
		<trkpt lat="39.5156936645508" lon="2.75951099395752">
			<ele>66</ele>
			<time>2014-01-02T14:53:06Z</time>
		</trkpt>
		<trkpt lat="39.5156211853027" lon="2.75946927070618">
			<ele>66</ele>
			<time>2014-01-02T14:53:08Z</time>
		</trkpt>
		<trkpt lat="39.5155601501465" lon="2.75942516326904">
			<ele>66</ele>
			<time>2014-01-02T14:53:10Z</time>
		</trkpt>
		<trkpt lat="39.515495300293" lon="2.75938630104065">
			<ele>65.8000030517578</ele>
			<time>2014-01-02T14:53:12Z</time>
		</trkpt>
		<trkpt lat="39.5154342651367" lon="2.75934505462646">
			<ele>66</ele>
			<time>2014-01-02T14:53:14Z</time>
		</trkpt>
		<trkpt lat="39.5153694152832" lon="2.75930428504944">
			<ele>65.9000015258789</ele>
			<time>2014-01-02T14:53:16Z</time>
		</trkpt>
		<trkpt lat="39.5153045654297" lon="2.75926351547241">
			<ele>66.3000030517578</ele>
			<time>2014-01-02T14:53:18Z</time>
		</trkpt>
		<trkpt lat="39.5152435302734" lon="2.75922465324402">
			<ele>66.3000030517578</ele>
			<time>2014-01-02T14:53:20Z</time>
		</trkpt>
		<trkpt lat="39.5151863098145" lon="2.75919032096863">
			<ele>66.3000030517578</ele>
			<time>2014-01-02T14:53:22Z</time>
		</trkpt>
		<trkpt lat="39.5151290893555" lon="2.7591540813446">
			<ele>66.1999969482422</ele>
			<time>2014-01-02T14:53:24Z</time>
		</trkpt>
		<trkpt lat="39.5150718688965" lon="2.75912642478943">
			<ele>65</ele>
			<time>2014-01-02T14:53:26Z</time>
		</trkpt>
		<trkpt lat="39.5149993896484" lon="2.75908541679382">
			<ele>66.5</ele>
			<time>2014-01-02T14:53:28Z</time>
		</trkpt>
		<trkpt lat="39.5149421691895" lon="2.75904297828674">
			<ele>67</ele>
			<time>2014-01-02T14:53:30Z</time>
		</trkpt>
		<trkpt lat="39.514892578125" lon="2.75901198387146">
			<ele>67.8000030517578</ele>
			<time>2014-01-02T14:53:32Z</time>
		</trkpt>
		<trkpt lat="39.5148468017578" lon="2.75898671150208">
			<ele>67.1999969482422</ele>
			<time>2014-01-02T14:53:34Z</time>
		</trkpt>
		<trkpt lat="39.5148010253906" lon="2.75895595550537">
			<ele>66.9000015258789</ele>
			<time>2014-01-02T14:53:36Z</time>
		</trkpt>
		<trkpt lat="39.5147552490234" lon="2.75893902778625">
			<ele>66.3000030517578</ele>
			<time>2014-01-02T14:53:39Z</time>
		</trkpt>
		<trkpt lat="39.5147094726563" lon="2.75890493392944">
			<ele>66.6999969482422</ele>
			<time>2014-01-02T14:53:42Z</time>
		</trkpt>
		<trkpt lat="39.5146560668945" lon="2.75887036323547">
			<ele>66.8000030517578</ele>
			<time>2014-01-02T14:53:44Z</time>
		</trkpt>
		<trkpt lat="39.5145874023438" lon="2.75883531570435">
			<ele>67</ele>
			<time>2014-01-02T14:53:46Z</time>
		</trkpt>
		<trkpt lat="39.5145149230957" lon="2.75878977775574">
			<ele>67.0999984741211</ele>
			<time>2014-01-02T14:53:48Z</time>
		</trkpt>
		<trkpt lat="39.5144386291504" lon="2.7587354183197">
			<ele>67.4000015258789</ele>
			<time>2014-01-02T14:53:50Z</time>
		</trkpt>
		<trkpt lat="39.5143966674805" lon="2.75870800018311">
			<ele>67.5</ele>
			<time>2014-01-02T14:53:51Z</time>
		</trkpt>
		<trkpt lat="39.5143165588379" lon="2.75865721702576">
			<ele>67.4000015258789</ele>
			<time>2014-01-02T14:53:53Z</time>
		</trkpt>
		<trkpt lat="39.514274597168" lon="2.7586305141449">
			<ele>67.4000015258789</ele>
			<time>2014-01-02T14:53:54Z</time>
		</trkpt>
		<trkpt lat="39.514232635498" lon="2.75860142707825">
			<ele>67.1999969482422</ele>
			<time>2014-01-02T14:53:55Z</time>
		</trkpt>
		<trkpt lat="39.5141906738281" lon="2.75857925415039">
			<ele>67</ele>
			<time>2014-01-02T14:53:56Z</time>
		</trkpt>
		<trkpt lat="39.5141067504883" lon="2.75852870941162">
			<ele>66.5999984741211</ele>
			<time>2014-01-02T14:53:58Z</time>
		</trkpt>
		<trkpt lat="39.5140609741211" lon="2.75850033760071">
			<ele>66.4000015258789</ele>
			<time>2014-01-02T14:53:59Z</time>
		</trkpt>
		<trkpt lat="39.5140151977539" lon="2.75847315788269">
			<ele>66.3000030517578</ele>
			<time>2014-01-02T14:54:00Z</time>
		</trkpt>
		<trkpt lat="39.513973236084" lon="2.75844049453735">
			<ele>66.3000030517578</ele>
			<time>2014-01-02T14:54:01Z</time>
		</trkpt>
		<trkpt lat="39.5139236450195" lon="2.7584125995636">
			<ele>66.5</ele>
			<time>2014-01-02T14:54:02Z</time>
		</trkpt>
		<trkpt lat="39.5138816833496" lon="2.75838112831116">
			<ele>66.4000015258789</ele>
			<time>2014-01-02T14:54:03Z</time>
		</trkpt>
		<trkpt lat="39.5138359069824" lon="2.75834608078003">
			<ele>66.5999984741211</ele>
			<time>2014-01-02T14:54:04Z</time>
		</trkpt>
		<trkpt lat="39.5137901306152" lon="2.75832152366638">
			<ele>66.4000015258789</ele>
			<time>2014-01-02T14:54:05Z</time>
		</trkpt>
		<trkpt lat="39.5137481689453" lon="2.75828742980957">
			<ele>66.1999969482422</ele>
			<time>2014-01-02T14:54:06Z</time>
		</trkpt>
		<trkpt lat="39.5137062072754" lon="2.75825881958008">
			<ele>66.4000015258789</ele>
			<time>2014-01-02T14:54:07Z</time>
		</trkpt>
		<trkpt lat="39.5136680603027" lon="2.75823068618774">
			<ele>66.6999969482422</ele>
			<time>2014-01-02T14:54:08Z</time>
		</trkpt>
		<trkpt lat="39.5136299133301" lon="2.75819516181946">
			<ele>66.4000015258789</ele>
			<time>2014-01-02T14:54:09Z</time>
		</trkpt>
		<trkpt lat="39.5135841369629" lon="2.75817322731018">
			<ele>66.3000030517578</ele>
			<time>2014-01-02T14:54:10Z</time>
		</trkpt>
		<trkpt lat="39.513542175293" lon="2.75814938545227">
			<ele>66.6999969482422</ele>
			<time>2014-01-02T14:54:11Z</time>
		</trkpt>
		<trkpt lat="39.5134658813477" lon="2.75811576843262">
			<ele>66</ele>
			<time>2014-01-02T14:54:13Z</time>
		</trkpt>
		<trkpt lat="39.5133857727051" lon="2.75808072090149">
			<ele>66.6999969482422</ele>
			<time>2014-01-02T14:54:15Z</time>
		</trkpt>
		<trkpt lat="39.5133094787598" lon="2.75803804397583">
			<ele>66.4000015258789</ele>
			<time>2014-01-02T14:54:17Z</time>
		</trkpt>
		<trkpt lat="39.5132331848145" lon="2.7579927444458">
			<ele>67</ele>
			<time>2014-01-02T14:54:19Z</time>
		</trkpt>
		<trkpt lat="39.5131721496582" lon="2.75794363021851">
			<ele>66.9000015258789</ele>
			<time>2014-01-02T14:54:21Z</time>
		</trkpt>
		<trkpt lat="39.5130996704102" lon="2.75791311264038">
			<ele>67.0999984741211</ele>
			<time>2014-01-02T14:54:23Z</time>
		</trkpt>
		<trkpt lat="39.5130271911621" lon="2.75786709785461">
			<ele>67.5</ele>
			<time>2014-01-02T14:54:25Z</time>
		</trkpt>
		<trkpt lat="39.5129585266113" lon="2.757817029953">
			<ele>67.5999984741211</ele>
			<time>2014-01-02T14:54:27Z</time>
		</trkpt>
		<trkpt lat="39.512882232666" lon="2.75776433944702">
			<ele>67.5999984741211</ele>
			<time>2014-01-02T14:54:29Z</time>
		</trkpt>
		<trkpt lat="39.5128059387207" lon="2.75771498680115">
			<ele>67.0999984741211</ele>
			<time>2014-01-02T14:54:31Z</time>
		</trkpt>
		<trkpt lat="39.5127296447754" lon="2.75765872001648">
			<ele>66.5999984741211</ele>
			<time>2014-01-02T14:54:33Z</time>
		</trkpt>
		<trkpt lat="39.5126876831055" lon="2.75762939453125">
			<ele>66.5</ele>
			<time>2014-01-02T14:54:34Z</time>
		</trkpt>
		<trkpt lat="39.5126457214355" lon="2.75760102272034">
			<ele>66.0999984741211</ele>
			<time>2014-01-02T14:54:35Z</time>
		</trkpt>
		<trkpt lat="39.5126075744629" lon="2.75757575035095">
			<ele>65.8000030517578</ele>
			<time>2014-01-02T14:54:36Z</time>
		</trkpt>
		<trkpt lat="39.5125694274902" lon="2.75753974914551">
			<ele>65.9000015258789</ele>
			<time>2014-01-02T14:54:37Z</time>
		</trkpt>
		<trkpt lat="39.5125274658203" lon="2.75751900672913">
			<ele>65.8000030517578</ele>
			<time>2014-01-02T14:54:38Z</time>
		</trkpt>
		<trkpt lat="39.5124855041504" lon="2.75748753547668">
			<ele>65.5</ele>
			<time>2014-01-02T14:54:39Z</time>
		</trkpt>
		<trkpt lat="39.5124435424805" lon="2.75745987892151">
			<ele>65.4000015258789</ele>
			<time>2014-01-02T14:54:40Z</time>
		</trkpt>
		<trkpt lat="39.5123977661133" lon="2.75743818283081">
			<ele>65.5999984741211</ele>
			<time>2014-01-02T14:54:41Z</time>
		</trkpt>
		<trkpt lat="39.5123558044434" lon="2.75741314888">
			<ele>65.5</ele>
			<time>2014-01-02T14:54:42Z</time>
		</trkpt>
		<trkpt lat="39.5123138427734" lon="2.75738668441772">
			<ele>65.5</ele>
			<time>2014-01-02T14:54:43Z</time>
		</trkpt>
		<trkpt lat="39.5122680664063" lon="2.75735211372375">
			<ele>65.4000015258789</ele>
			<time>2014-01-02T14:54:44Z</time>
		</trkpt>
		<trkpt lat="39.5122222900391" lon="2.75732088088989">
			<ele>65.4000015258789</ele>
			<time>2014-01-02T14:54:45Z</time>
		</trkpt>
		<trkpt lat="39.5121765136719" lon="2.7572968006134">
			<ele>65.3000030517578</ele>
			<time>2014-01-02T14:54:46Z</time>
		</trkpt>
		<trkpt lat="39.512134552002" lon="2.75726699829102">
			<ele>65.1999969482422</ele>
			<time>2014-01-02T14:54:47Z</time>
		</trkpt>
		<trkpt lat="39.5120849609375" lon="2.75723648071289">
			<ele>65.0999984741211</ele>
			<time>2014-01-02T14:54:48Z</time>
		</trkpt>
		<trkpt lat="39.5120429992676" lon="2.75721001625061">
			<ele>65</ele>
			<time>2014-01-02T14:54:49Z</time>
		</trkpt>
		<trkpt lat="39.5119972229004" lon="2.75717973709106">
			<ele>64.5999984741211</ele>
			<time>2014-01-02T14:54:50Z</time>
		</trkpt>
		<trkpt lat="39.5119476318359" lon="2.75714516639709">
			<ele>64.0999984741211</ele>
			<time>2014-01-02T14:54:51Z</time>
		</trkpt>
		<trkpt lat="39.5118942260742" lon="2.75711464881897">
			<ele>63.7999992370605</ele>
			<time>2014-01-02T14:54:52Z</time>
		</trkpt>
		<trkpt lat="39.5118446350098" lon="2.757084608078">
			<ele>63.7999992370605</ele>
			<time>2014-01-02T14:54:53Z</time>
		</trkpt>
		<trkpt lat="39.511791229248" lon="2.75705337524414">
			<ele>63.7999992370605</ele>
			<time>2014-01-02T14:54:54Z</time>
		</trkpt>
		<trkpt lat="39.5117454528809" lon="2.75702428817749">
			<ele>64</ele>
			<time>2014-01-02T14:54:55Z</time>
		</trkpt>
		<trkpt lat="39.5116882324219" lon="2.75698685646057">
			<ele>64</ele>
			<time>2014-01-02T14:54:56Z</time>
		</trkpt>
		<trkpt lat="39.5116310119629" lon="2.75694918632507">
			<ele>64.0999984741211</ele>
			<time>2014-01-02T14:54:57Z</time>
		</trkpt>
		<trkpt lat="39.5115852355957" lon="2.75691699981689">
			<ele>63.4000015258789</ele>
			<time>2014-01-02T14:54:58Z</time>
		</trkpt>
		<trkpt lat="39.5115280151367" lon="2.75688576698303">
			<ele>62.9000015258789</ele>
			<time>2014-01-02T14:54:59Z</time>
		</trkpt>
		<trkpt lat="39.5114784240723" lon="2.75686001777649">
			<ele>62.5999984741211</ele>
			<time>2014-01-02T14:55:00Z</time>
		</trkpt>
		<trkpt lat="39.5114288330078" lon="2.75683116912842">
			<ele>62.2000007629395</ele>
			<time>2014-01-02T14:55:01Z</time>
		</trkpt>
		<trkpt lat="39.5113830566406" lon="2.7567982673645">
			<ele>62.2999992370605</ele>
			<time>2014-01-02T14:55:02Z</time>
		</trkpt>
		<trkpt lat="39.5113334655762" lon="2.75676155090332">
			<ele>62.5999984741211</ele>
			<time>2014-01-02T14:55:03Z</time>
		</trkpt>
		<trkpt lat="39.511287689209" lon="2.7567310333252">
			<ele>62.5999984741211</ele>
			<time>2014-01-02T14:55:04Z</time>
		</trkpt>
		<trkpt lat="39.5112342834473" lon="2.75670099258423">
			<ele>62.5999984741211</ele>
			<time>2014-01-02T14:55:05Z</time>
		</trkpt>
		<trkpt lat="39.5111427307129" lon="2.75664830207825">
			<ele>62.9000015258789</ele>
			<time>2014-01-02T14:55:07Z</time>
		</trkpt>
		<trkpt lat="39.5110931396484" lon="2.75661540031433">
			<ele>62.5</ele>
			<time>2014-01-02T14:55:08Z</time>
		</trkpt>
		<trkpt lat="39.5110473632813" lon="2.75658822059631">
			<ele>62.5</ele>
			<time>2014-01-02T14:55:09Z</time>
		</trkpt>
		<trkpt lat="39.5109977722168" lon="2.75655078887939">
			<ele>62.2000007629395</ele>
			<time>2014-01-02T14:55:10Z</time>
		</trkpt>
		<trkpt lat="39.5109443664551" lon="2.75651812553406">
			<ele>62.0999984741211</ele>
			<time>2014-01-02T14:55:11Z</time>
		</trkpt>
		<trkpt lat="39.5108985900879" lon="2.75648474693298">
			<ele>61.9000015258789</ele>
			<time>2014-01-02T14:55:12Z</time>
		</trkpt>
		<trkpt lat="39.5108489990234" lon="2.7564537525177">
			<ele>61.7000007629395</ele>
			<time>2014-01-02T14:55:13Z</time>
		</trkpt>
		<trkpt lat="39.5108032226563" lon="2.75642323493958">
			<ele>61.5</ele>
			<time>2014-01-02T14:55:14Z</time>
		</trkpt>
		<trkpt lat="39.5107536315918" lon="2.75639247894287">
			<ele>61.7000007629395</ele>
			<time>2014-01-02T14:55:15Z</time>
		</trkpt>
		<trkpt lat="39.5107078552246" lon="2.75636410713196">
			<ele>61.7000007629395</ele>
			<time>2014-01-02T14:55:16Z</time>
		</trkpt>
		<trkpt lat="39.5106620788574" lon="2.75633215904236">
			<ele>61.5999984741211</ele>
			<time>2014-01-02T14:55:17Z</time>
		</trkpt>
		<trkpt lat="39.5106201171875" lon="2.75630044937134">
			<ele>61.7999992370605</ele>
			<time>2014-01-02T14:55:18Z</time>
		</trkpt>
		<trkpt lat="39.5105743408203" lon="2.756272315979">
			<ele>62.2000007629395</ele>
			<time>2014-01-02T14:55:19Z</time>
		</trkpt>
		<trkpt lat="39.5105285644531" lon="2.75624680519104">
			<ele>62.2999992370605</ele>
			<time>2014-01-02T14:55:20Z</time>
		</trkpt>
		<trkpt lat="39.5104789733887" lon="2.75622010231018">
			<ele>62.2000007629395</ele>
			<time>2014-01-02T14:55:21Z</time>
		</trkpt>
		<trkpt lat="39.5104370117188" lon="2.75619912147522">
			<ele>62.2000007629395</ele>
			<time>2014-01-02T14:55:22Z</time>
		</trkpt>
		<trkpt lat="39.5103569030762" lon="2.75615239143372">
			<ele>62.4000015258789</ele>
			<time>2014-01-02T14:55:24Z</time>
		</trkpt>
		<trkpt lat="39.5102806091309" lon="2.75610637664795">
			<ele>62.4000015258789</ele>
			<time>2014-01-02T14:55:26Z</time>
		</trkpt>
		<trkpt lat="39.5102119445801" lon="2.75606203079224">
			<ele>62.2999992370605</ele>
			<time>2014-01-02T14:55:28Z</time>
		</trkpt>
		<trkpt lat="39.5101623535156" lon="2.75602889060974">
			<ele>62.5</ele>
			<time>2014-01-02T14:55:30Z</time>
		</trkpt>
		<trkpt lat="39.5101127624512" lon="2.7559974193573">
			<ele>62.5</ele>
			<time>2014-01-02T14:55:33Z</time>
		</trkpt>
		<trkpt lat="39.5100631713867" lon="2.75597143173218">
			<ele>62</ele>
			<time>2014-01-02T14:55:36Z</time>
		</trkpt>
		<trkpt lat="39.5100250244141" lon="2.75594162940979">
			<ele>62.2000007629395</ele>
			<time>2014-01-02T14:55:39Z</time>
		</trkpt>
		<trkpt lat="39.5099639892578" lon="2.7558970451355">
			<ele>63.0999984741211</ele>
			<time>2014-01-02T14:55:50Z</time>
		</trkpt>
		<trkpt lat="39.509895324707" lon="2.75585007667542">
			<ele>63.2000007629395</ele>
			<time>2014-01-02T14:55:52Z</time>
		</trkpt>
		<trkpt lat="39.5098190307617" lon="2.75580191612244">
			<ele>61.9000015258789</ele>
			<time>2014-01-02T14:55:54Z</time>
		</trkpt>
		<trkpt lat="39.5097770690918" lon="2.75577473640442">
			<ele>62.0999984741211</ele>
			<time>2014-01-02T14:55:55Z</time>
		</trkpt>
		<trkpt lat="39.5097351074219" lon="2.75574421882629">
			<ele>62.5</ele>
			<time>2014-01-02T14:55:56Z</time>
		</trkpt>
		<trkpt lat="39.5096893310547" lon="2.7557168006897">
			<ele>62.4000015258789</ele>
			<time>2014-01-02T14:55:57Z</time>
		</trkpt>
		<trkpt lat="39.5096473693848" lon="2.75569176673889">
			<ele>62.2999992370605</ele>
			<time>2014-01-02T14:55:58Z</time>
		</trkpt>
		<trkpt lat="39.5096015930176" lon="2.75567173957825">
			<ele>61.7999992370605</ele>
			<time>2014-01-02T14:55:59Z</time>
		</trkpt>
		<trkpt lat="39.5095558166504" lon="2.75564217567444">
			<ele>61.2999992370605</ele>
			<time>2014-01-02T14:56:00Z</time>
		</trkpt>
		<trkpt lat="39.5095100402832" lon="2.75561189651489">
			<ele>61</ele>
			<time>2014-01-02T14:56:01Z</time>
		</trkpt>
		<trkpt lat="39.509464263916" lon="2.7555890083313">
			<ele>61</ele>
			<time>2014-01-02T14:56:02Z</time>
		</trkpt>
		<trkpt lat="39.5094184875488" lon="2.75556302070618">
			<ele>61.2999992370605</ele>
			<time>2014-01-02T14:56:03Z</time>
		</trkpt>
		<trkpt lat="39.5093688964844" lon="2.755535364151">
			<ele>61.5</ele>
			<time>2014-01-02T14:56:04Z</time>
		</trkpt>
		<trkpt lat="39.5093269348145" lon="2.7555103302002">
			<ele>61.2000007629395</ele>
			<time>2014-01-02T14:56:05Z</time>
		</trkpt>
		<trkpt lat="39.5092811584473" lon="2.75548243522644">
			<ele>60.9000015258789</ele>
			<time>2014-01-02T14:56:06Z</time>
		</trkpt>
		<trkpt lat="39.5092353820801" lon="2.755450963974">
			<ele>61</ele>
			<time>2014-01-02T14:56:07Z</time>
		</trkpt>
		<trkpt lat="39.5091857910156" lon="2.75542449951172">
			<ele>61</ele>
			<time>2014-01-02T14:56:08Z</time>
		</trkpt>
		<trkpt lat="39.5091438293457" lon="2.7553985118866">
			<ele>60.7000007629395</ele>
			<time>2014-01-02T14:56:09Z</time>
		</trkpt>
		<trkpt lat="39.5090980529785" lon="2.75536441802979">
			<ele>60.7000007629395</ele>
			<time>2014-01-02T14:56:10Z</time>
		</trkpt>
		<trkpt lat="39.5090484619141" lon="2.75533390045166">
			<ele>60.7000007629395</ele>
			<time>2014-01-02T14:56:11Z</time>
		</trkpt>
		<trkpt lat="39.5090026855469" lon="2.75530195236206">
			<ele>60.7999992370605</ele>
			<time>2014-01-02T14:56:12Z</time>
		</trkpt>
		<trkpt lat="39.5089530944824" lon="2.75527238845825">
			<ele>60.7000007629395</ele>
			<time>2014-01-02T14:56:13Z</time>
		</trkpt>
		<trkpt lat="39.508903503418" lon="2.75524544715881">
			<ele>60.2000007629395</ele>
			<time>2014-01-02T14:56:14Z</time>
		</trkpt>
		<trkpt lat="39.5088539123535" lon="2.755215883255">
			<ele>60</ele>
			<time>2014-01-02T14:56:15Z</time>
		</trkpt>
		<trkpt lat="39.5088043212891" lon="2.75518774986267">
			<ele>60.0999984741211</ele>
			<time>2014-01-02T14:56:16Z</time>
		</trkpt>
		<trkpt lat="39.5087585449219" lon="2.7551646232605">
			<ele>60.2000007629395</ele>
			<time>2014-01-02T14:56:17Z</time>
		</trkpt>
		<trkpt lat="39.5087127685547" lon="2.75513291358948">
			<ele>60.2000007629395</ele>
			<time>2014-01-02T14:56:18Z</time>
		</trkpt>
		<trkpt lat="39.5086669921875" lon="2.75510597229004">
			<ele>59.9000015258789</ele>
			<time>2014-01-02T14:56:19Z</time>
		</trkpt>
		<trkpt lat="39.5085830688477" lon="2.75505828857422">
			<ele>59.7000007629395</ele>
			<time>2014-01-02T14:56:21Z</time>
		</trkpt>
		<trkpt lat="39.5085411071777" lon="2.75502681732178">
			<ele>59.2000007629395</ele>
			<time>2014-01-02T14:56:22Z</time>
		</trkpt>
		<trkpt lat="39.5084915161133" lon="2.75491142272949">
			<ele>59.2999992370605</ele>
			<time>2014-01-02T14:56:24Z</time>
		</trkpt>
		<trkpt lat="39.5084915161133" lon="2.75483512878418">
			<ele>59</ele>
			<time>2014-01-02T14:56:25Z</time>
		</trkpt>
		<trkpt lat="39.5085334777832" lon="2.75476884841919">
			<ele>58.7999992370605</ele>
			<time>2014-01-02T14:56:26Z</time>
		</trkpt>
		<trkpt lat="39.5085525512695" lon="2.75470662117004">
			<ele>58.5</ele>
			<time>2014-01-02T14:56:27Z</time>
		</trkpt>
		<trkpt lat="39.5085792541504" lon="2.75464630126953">
			<ele>58.5999984741211</ele>
			<time>2014-01-02T14:56:28Z</time>
		</trkpt>
		<trkpt lat="39.5085983276367" lon="2.75458979606628">
			<ele>58.7000007629395</ele>
			<time>2014-01-02T14:56:29Z</time>
		</trkpt>
		<trkpt lat="39.5086212158203" lon="2.75453233718872">
			<ele>57.0999984741211</ele>
			<time>2014-01-02T14:56:30Z</time>
		</trkpt>
		<trkpt lat="39.5086441040039" lon="2.75446391105652">
			<ele>57.0999984741211</ele>
			<time>2014-01-02T14:56:31Z</time>
		</trkpt>
		<trkpt lat="39.5086631774902" lon="2.75439977645874">
			<ele>56.0999984741211</ele>
			<time>2014-01-02T14:56:32Z</time>
		</trkpt>
		<trkpt lat="39.5086784362793" lon="2.75433540344238">
			<ele>55.2999992370605</ele>
			<time>2014-01-02T14:56:33Z</time>
		</trkpt>
		<trkpt lat="39.5086936950684" lon="2.75426912307739">
			<ele>55.5</ele>
			<time>2014-01-02T14:56:34Z</time>
		</trkpt>
		<trkpt lat="39.508716583252" lon="2.75420546531677">
			<ele>55.5</ele>
			<time>2014-01-02T14:56:35Z</time>
		</trkpt>
		<trkpt lat="39.5087394714355" lon="2.75415396690369">
			<ele>55.4000015258789</ele>
			<time>2014-01-02T14:56:36Z</time>
		</trkpt>
		<trkpt lat="39.5087623596191" lon="2.75409412384033">
			<ele>54.9000015258789</ele>
			<time>2014-01-02T14:56:37Z</time>
		</trkpt>
		<trkpt lat="39.5087890625" lon="2.75403189659119">
			<ele>54.5999984741211</ele>
			<time>2014-01-02T14:56:38Z</time>
		</trkpt>
		<trkpt lat="39.5087547302246" lon="2.75396108627319">
			<ele>54.7999992370605</ele>
			<time>2014-01-02T14:56:39Z</time>
		</trkpt>
		<trkpt lat="39.508731842041" lon="2.75390028953552">
			<ele>54.7999992370605</ele>
			<time>2014-01-02T14:56:40Z</time>
		</trkpt>
		<trkpt lat="39.5086975097656" lon="2.75384902954102">
			<ele>55.0999984741211</ele>
			<time>2014-01-02T14:56:41Z</time>
		</trkpt>
		<trkpt lat="39.508617401123" lon="2.75384163856506">
			<ele>55</ele>
			<time>2014-01-02T14:56:42Z</time>
		</trkpt>
		<trkpt lat="39.5085639953613" lon="2.75381660461426">
			<ele>54.7000007629395</ele>
			<time>2014-01-02T14:56:43Z</time>
		</trkpt>
		<trkpt lat="39.5085105895996" lon="2.75379419326782">
			<ele>54.7000007629395</ele>
			<time>2014-01-02T14:56:44Z</time>
		</trkpt>
		<trkpt lat="39.5084533691406" lon="2.75377488136292">
			<ele>55</ele>
			<time>2014-01-02T14:56:45Z</time>
		</trkpt>
		<trkpt lat="39.5084037780762" lon="2.75374913215637">
			<ele>55.0999984741211</ele>
			<time>2014-01-02T14:56:46Z</time>
		</trkpt>
		<trkpt lat="39.5083503723145" lon="2.75370335578918">
			<ele>54.7000007629395</ele>
			<time>2014-01-02T14:56:47Z</time>
		</trkpt>
		<trkpt lat="39.5083122253418" lon="2.75366973876953">
			<ele>55.0999984741211</ele>
			<time>2014-01-02T14:56:48Z</time>
		</trkpt>
		<trkpt lat="39.5082359313965" lon="2.75363206863403">
			<ele>55.0999984741211</ele>
			<time>2014-01-02T14:56:50Z</time>
		</trkpt>
		<trkpt lat="39.508171081543" lon="2.75356364250183">
			<ele>55.2000007629395</ele>
			<time>2014-01-02T14:56:52Z</time>
		</trkpt>
		<trkpt lat="39.5081214904785" lon="2.75353407859802">
			<ele>55.5999984741211</ele>
			<time>2014-01-02T14:56:53Z</time>
		</trkpt>
		<trkpt lat="39.5080604553223" lon="2.75351214408875">
			<ele>55.2000007629395</ele>
			<time>2014-01-02T14:56:54Z</time>
		</trkpt>
		<trkpt lat="39.5080032348633" lon="2.75347876548767">
			<ele>55.2000007629395</ele>
			<time>2014-01-02T14:56:55Z</time>
		</trkpt>
		<trkpt lat="39.507942199707" lon="2.75344038009644">
			<ele>56.2000007629395</ele>
			<time>2014-01-02T14:56:56Z</time>
		</trkpt>
		<trkpt lat="39.5078926086426" lon="2.7534008026123">
			<ele>55.9000015258789</ele>
			<time>2014-01-02T14:56:57Z</time>
		</trkpt>
		<trkpt lat="39.5078506469727" lon="2.75337433815002">
			<ele>54.5</ele>
			<time>2014-01-02T14:56:58Z</time>
		</trkpt>
		<trkpt lat="39.5078010559082" lon="2.75333786010742">
			<ele>55</ele>
			<time>2014-01-02T14:56:59Z</time>
		</trkpt>
		<trkpt lat="39.5077476501465" lon="2.75330948829651">
			<ele>54.9000015258789</ele>
			<time>2014-01-02T14:57:00Z</time>
		</trkpt>
		<trkpt lat="39.507698059082" lon="2.75328540802002">
			<ele>55.0999984741211</ele>
			<time>2014-01-02T14:57:01Z</time>
		</trkpt>
		<trkpt lat="39.5076522827148" lon="2.75325655937195">
			<ele>54.5999984741211</ele>
			<time>2014-01-02T14:57:02Z</time>
		</trkpt>
		<trkpt lat="39.5076026916504" lon="2.75321626663208">
			<ele>54</ele>
			<time>2014-01-02T14:57:03Z</time>
		</trkpt>
		<trkpt lat="39.5075569152832" lon="2.75319218635559">
			<ele>53.5</ele>
			<time>2014-01-02T14:57:04Z</time>
		</trkpt>
		<trkpt lat="39.5075035095215" lon="2.75316596031189">
			<ele>53.2999992370605</ele>
			<time>2014-01-02T14:57:05Z</time>
		</trkpt>
		<trkpt lat="39.5074577331543" lon="2.7531521320343">
			<ele>53.2999992370605</ele>
			<time>2014-01-02T14:57:06Z</time>
		</trkpt>
		<trkpt lat="39.5074119567871" lon="2.7531681060791">
			<ele>53.4000015258789</ele>
			<time>2014-01-02T14:57:07Z</time>
		</trkpt>
		<trkpt lat="39.5073852539063" lon="2.75321578979492">
			<ele>53.7999992370605</ele>
			<time>2014-01-02T14:57:08Z</time>
		</trkpt>
		<trkpt lat="39.5073585510254" lon="2.75328612327576">
			<ele>54.4000015258789</ele>
			<time>2014-01-02T14:57:09Z</time>
		</trkpt>
		<trkpt lat="39.5073318481445" lon="2.75333881378174">
			<ele>54.2000007629395</ele>
			<time>2014-01-02T14:57:10Z</time>
		</trkpt>
		<trkpt lat="39.5073089599609" lon="2.7533905506134">
			<ele>54.0999984741211</ele>
			<time>2014-01-02T14:57:11Z</time>
		</trkpt>
		<trkpt lat="39.5072860717773" lon="2.75344443321228">
			<ele>53.9000015258789</ele>
			<time>2014-01-02T14:57:12Z</time>
		</trkpt>
		<trkpt lat="39.5072479248047" lon="2.7535445690155">
			<ele>54.0999984741211</ele>
			<time>2014-01-02T14:57:14Z</time>
		</trkpt>
		<trkpt lat="39.5072288513184" lon="2.75365304946899">
			<ele>55</ele>
			<time>2014-01-02T14:57:16Z</time>
		</trkpt>
		<trkpt lat="39.5071983337402" lon="2.7537534236908">
			<ele>54.2999992370605</ele>
			<time>2014-01-02T14:57:18Z</time>
		</trkpt>
		<trkpt lat="39.5071716308594" lon="2.75383639335632">
			<ele>54.2000007629395</ele>
			<time>2014-01-02T14:57:20Z</time>
		</trkpt>
		<trkpt lat="39.507152557373" lon="2.75392031669617">
			<ele>54.0999984741211</ele>
			<time>2014-01-02T14:57:22Z</time>
		</trkpt>
		<trkpt lat="39.5071258544922" lon="2.75397324562073">
			<ele>54</ele>
			<time>2014-01-02T14:57:24Z</time>
		</trkpt>
		<trkpt lat="39.5071067810059" lon="2.75403261184692">
			<ele>53.7999992370605</ele>
			<time>2014-01-02T14:57:26Z</time>
		</trkpt>
		<trkpt lat="39.5070953369141" lon="2.75410413742065">
			<ele>54.2000007629395</ele>
			<time>2014-01-02T14:57:28Z</time>
		</trkpt>
		<trkpt lat="39.5070724487305" lon="2.75416374206543">
			<ele>55.0999984741211</ele>
			<time>2014-01-02T14:57:30Z</time>
		</trkpt>
		<trkpt lat="39.5070533752441" lon="2.75423812866211">
			<ele>55.5999984741211</ele>
			<time>2014-01-02T14:57:32Z</time>
		</trkpt>
		<trkpt lat="39.5070343017578" lon="2.75429248809814">
			<ele>55.2999992370605</ele>
			<time>2014-01-02T14:57:34Z</time>
		</trkpt>
		<trkpt lat="39.5070190429688" lon="2.75438022613525">
			<ele>57.5</ele>
			<time>2014-01-02T14:57:36Z</time>
		</trkpt>
		<trkpt lat="39.5069885253906" lon="2.75445747375488">
			<ele>57.9000015258789</ele>
			<time>2014-01-02T14:57:38Z</time>
		</trkpt>
		<trkpt lat="39.506965637207" lon="2.75451922416687">
			<ele>58.9000015258789</ele>
			<time>2014-01-02T14:57:40Z</time>
		</trkpt>
		<trkpt lat="39.5069465637207" lon="2.75459671020508">
			<ele>59.5999984741211</ele>
			<time>2014-01-02T14:57:42Z</time>
		</trkpt>
		<trkpt lat="39.5069274902344" lon="2.75466537475586">
			<ele>61.0999984741211</ele>
			<time>2014-01-02T14:57:44Z</time>
		</trkpt>
		<trkpt lat="39.506908416748" lon="2.75472831726074">
			<ele>62</ele>
			<time>2014-01-02T14:57:46Z</time>
		</trkpt>
		<trkpt lat="39.5069046020508" lon="2.75479459762573">
			<ele>61.5999984741211</ele>
			<time>2014-01-02T14:57:49Z</time>
		</trkpt>
		<trkpt lat="39.5069618225098" lon="2.75483417510986">
			<ele>61.2000007629395</ele>
			<time>2014-01-02T14:57:52Z</time>
		</trkpt>
		<trkpt lat="39.5070152282715" lon="2.75487470626831">
			<ele>61.5</ele>
			<time>2014-01-02T14:57:54Z</time>
		</trkpt>
		<trkpt lat="39.5070686340332" lon="2.75492334365845">
			<ele>62</ele>
			<time>2014-01-02T14:57:56Z</time>
		</trkpt>
		<trkpt lat="39.5071258544922" lon="2.75494623184204">
			<ele>61.7000007629395</ele>
			<time>2014-01-02T14:57:58Z</time>
		</trkpt>
		<trkpt lat="39.5072059631348" lon="2.7549684047699">
			<ele>61.7000007629395</ele>
			<time>2014-01-02T14:58:00Z</time>
		</trkpt>
		<trkpt lat="39.507251739502" lon="2.75496315956116">
			<ele>61.0999984741211</ele>
			<time>2014-01-02T14:58:01Z</time>
		</trkpt>
		<trkpt lat="39.5073013305664" lon="2.75502061843872">
			<ele>63.2000007629395</ele>
			<time>2014-01-02T14:58:03Z</time>
		</trkpt>
		<trkpt lat="39.5072937011719" lon="2.75511431694031">
			<ele>63.5999984741211</ele>
			<time>2014-01-02T14:58:05Z</time>
		</trkpt>
		<trkpt lat="39.5071907043457" lon="2.75516390800476">
			<ele>64.5</ele>
			<time>2014-01-02T14:58:07Z</time>
		</trkpt>
		<trkpt lat="39.5071411132813" lon="2.75522994995117">
			<ele>65.5999984741211</ele>
			<time>2014-01-02T14:58:09Z</time>
		</trkpt>
		<trkpt lat="39.5071487426758" lon="2.75530099868774">
			<ele>64.6999969482422</ele>
			<time>2014-01-02T14:58:12Z</time>
		</trkpt>
	</trkseg>
</trk>

</gpx>